<?xml version="1.0" encoding="UTF-8" standalone="no" ?>
<gpx xmlns="http://www.topografix.com/GPX/1/1" xmlns:xsi="http://www.w3.org/2001/XMLSchema-instance" xsi:schemaLocation="http://www.topografix.com/GPX/1/1 http://www.topografix.com/GPX/1/1/gpx.xsd" version="1.1" creator="VisuGPX - https://www.visugpx.com">
  <metadata>
    <name>CMC Le Puech</name>
    <desc><![CDATA[Belle randonnée, temps agréable pour la saison, quelques détours volontaires ou involontaires, au sommet du Puech vue magnifique sur les Pyrénées.
]]></desc>
  </metadata>
  <trk>
    <name><![CDATA[Saint-Lary Marche à pied]]></name>
    <trkseg>
      <trkpt lat="42.92191" lon="0.87958">
        <ele>890</ele>
        <time>2018-12-02T07:39:40.000Z</time>
      </trkpt>
      <trkpt lat="42.92195" lon="0.87957">
        <ele>891</ele>
        <time>2018-12-02T07:39:42.000Z</time>
      </trkpt>
      <trkpt lat="42.92233" lon="0.87899">
        <ele>906</ele>
        <time>2018-12-02T07:39:44.000Z</time>
      </trkpt>
      <trkpt lat="42.92231" lon="0.87904">
        <ele>905</ele>
        <time>2018-12-02T07:39:46.000Z</time>
      </trkpt>
      <trkpt lat="42.92227" lon="0.87904">
        <ele>903</ele>
        <time>2018-12-02T07:39:48.000Z</time>
      </trkpt>
      <trkpt lat="42.92232" lon="0.87901">
        <ele>905</ele>
        <time>2018-12-02T07:39:50.000Z</time>
      </trkpt>
      <trkpt lat="42.92231" lon="0.87901">
        <ele>905</ele>
        <time>2018-12-02T07:39:52.000Z</time>
      </trkpt>
      <trkpt lat="42.92235" lon="0.879">
        <ele>906</ele>
        <time>2018-12-02T07:39:54.000Z</time>
      </trkpt>
      <trkpt lat="42.92235" lon="0.87904">
        <ele>906</ele>
        <time>2018-12-02T07:39:56.000Z</time>
      </trkpt>
      <trkpt lat="42.9224" lon="0.87899">
        <ele>908</ele>
        <time>2018-12-02T07:39:58.000Z</time>
      </trkpt>
      <trkpt lat="42.92237" lon="0.87896">
        <ele>907</ele>
        <time>2018-12-02T07:40:00.000Z</time>
      </trkpt>
      <trkpt lat="42.92237" lon="0.87895">
        <ele>907</ele>
        <time>2018-12-02T07:40:02.000Z</time>
      </trkpt>
      <trkpt lat="42.92243" lon="0.87897">
        <ele>909</ele>
        <time>2018-12-02T07:40:04.000Z</time>
      </trkpt>
      <trkpt lat="42.92241" lon="0.87902">
        <ele>908</ele>
        <time>2018-12-02T07:40:06.000Z</time>
      </trkpt>
      <trkpt lat="42.92236" lon="0.87904">
        <ele>906</ele>
        <time>2018-12-02T07:40:08.000Z</time>
      </trkpt>
      <trkpt lat="42.92233" lon="0.87905">
        <ele>905</ele>
        <time>2018-12-02T07:40:10.000Z</time>
      </trkpt>
      <trkpt lat="42.92236" lon="0.87905">
        <ele>906</ele>
        <time>2018-12-02T07:40:12.000Z</time>
      </trkpt>
      <trkpt lat="42.92238" lon="0.87903">
        <ele>907</ele>
        <time>2018-12-02T07:40:14.000Z</time>
      </trkpt>
      <trkpt lat="42.92241" lon="0.87903">
        <ele>908</ele>
        <time>2018-12-02T07:40:16.000Z</time>
      </trkpt>
      <trkpt lat="42.92243" lon="0.87902">
        <ele>908</ele>
        <time>2018-12-02T07:40:18.000Z</time>
      </trkpt>
      <trkpt lat="42.92244" lon="0.87902">
        <ele>909</ele>
        <time>2018-12-02T07:40:20.000Z</time>
      </trkpt>
      <trkpt lat="42.92245" lon="0.87902">
        <ele>909</ele>
        <time>2018-12-02T07:40:22.000Z</time>
      </trkpt>
      <trkpt lat="42.92246" lon="0.87903">
        <ele>910</ele>
        <time>2018-12-02T07:40:24.000Z</time>
      </trkpt>
      <trkpt lat="42.92248" lon="0.87902">
        <ele>910</ele>
        <time>2018-12-02T07:40:26.000Z</time>
      </trkpt>
      <trkpt lat="42.92249" lon="0.87903">
        <ele>910</ele>
        <time>2018-12-02T07:40:28.000Z</time>
      </trkpt>
      <trkpt lat="42.9225" lon="0.87904">
        <ele>911</ele>
        <time>2018-12-02T07:40:30.000Z</time>
      </trkpt>
      <trkpt lat="42.92251" lon="0.87904">
        <ele>911</ele>
        <time>2018-12-02T07:40:32.000Z</time>
      </trkpt>
      <trkpt lat="42.92251" lon="0.87905">
        <ele>911</ele>
        <time>2018-12-02T07:40:34.000Z</time>
      </trkpt>
      <trkpt lat="42.92253" lon="0.87907">
        <ele>911</ele>
        <time>2018-12-02T07:40:36.000Z</time>
      </trkpt>
      <trkpt lat="42.92253" lon="0.87908">
        <ele>911</ele>
        <time>2018-12-02T07:40:38.000Z</time>
      </trkpt>
      <trkpt lat="42.92256" lon="0.87908">
        <ele>912</ele>
        <time>2018-12-02T07:40:40.000Z</time>
      </trkpt>
      <trkpt lat="42.92256" lon="0.87909">
        <ele>912</ele>
        <time>2018-12-02T07:40:42.000Z</time>
      </trkpt>
      <trkpt lat="42.92257" lon="0.8791">
        <ele>913</ele>
        <time>2018-12-02T07:40:44.000Z</time>
      </trkpt>
      <trkpt lat="42.92258" lon="0.87911">
        <ele>913</ele>
        <time>2018-12-02T07:40:46.000Z</time>
      </trkpt>
      <trkpt lat="42.92259" lon="0.87912">
        <ele>913</ele>
        <time>2018-12-02T07:40:48.000Z</time>
      </trkpt>
      <trkpt lat="42.92258" lon="0.87914">
        <ele>913</ele>
        <time>2018-12-02T07:40:50.000Z</time>
      </trkpt>
      <trkpt lat="42.92259" lon="0.87915">
        <ele>913</ele>
        <time>2018-12-02T07:40:52.000Z</time>
      </trkpt>
      <trkpt lat="42.9226" lon="0.87916">
        <ele>913</ele>
        <time>2018-12-02T07:40:54.000Z</time>
      </trkpt>
      <trkpt lat="42.92262" lon="0.87916">
        <ele>914</ele>
        <time>2018-12-02T07:40:56.000Z</time>
      </trkpt>
      <trkpt lat="42.92263" lon="0.87917">
        <ele>914</ele>
        <time>2018-12-02T07:40:58.000Z</time>
      </trkpt>
      <trkpt lat="42.92264" lon="0.87918">
        <ele>914</ele>
        <time>2018-12-02T07:41:00.000Z</time>
      </trkpt>
      <trkpt lat="42.92266" lon="0.87918">
        <ele>915</ele>
        <time>2018-12-02T07:41:02.000Z</time>
      </trkpt>
      <trkpt lat="42.92267" lon="0.87918">
        <ele>915</ele>
        <time>2018-12-02T07:41:04.000Z</time>
      </trkpt>
      <trkpt lat="42.92268" lon="0.87918">
        <ele>915</ele>
        <time>2018-12-02T07:41:06.000Z</time>
      </trkpt>
      <trkpt lat="42.92269" lon="0.87918">
        <ele>916</ele>
        <time>2018-12-02T07:41:08.000Z</time>
      </trkpt>
      <trkpt lat="42.92269" lon="0.87918">
        <ele>916</ele>
        <time>2018-12-02T07:41:10.000Z</time>
      </trkpt>
      <trkpt lat="42.92269" lon="0.87918">
        <ele>916</ele>
        <time>2018-12-02T07:41:12.000Z</time>
      </trkpt>
      <trkpt lat="42.92269" lon="0.8792">
        <ele>916</ele>
        <time>2018-12-02T07:41:14.000Z</time>
      </trkpt>
      <trkpt lat="42.9227" lon="0.8792">
        <ele>916</ele>
        <time>2018-12-02T07:41:16.000Z</time>
      </trkpt>
      <trkpt lat="42.92271" lon="0.87919">
        <ele>916</ele>
        <time>2018-12-02T07:41:18.000Z</time>
      </trkpt>
      <trkpt lat="42.92272" lon="0.87919">
        <ele>917</ele>
        <time>2018-12-02T07:41:20.000Z</time>
      </trkpt>
      <trkpt lat="42.92272" lon="0.87919">
        <ele>917</ele>
        <time>2018-12-02T07:41:22.000Z</time>
      </trkpt>
      <trkpt lat="42.92273" lon="0.87919">
        <ele>917</ele>
        <time>2018-12-02T07:41:24.000Z</time>
      </trkpt>
      <trkpt lat="42.92274" lon="0.87919">
        <ele>917</ele>
        <time>2018-12-02T07:41:26.000Z</time>
      </trkpt>
      <trkpt lat="42.92274" lon="0.87919">
        <ele>917</ele>
        <time>2018-12-02T07:41:28.000Z</time>
      </trkpt>
      <trkpt lat="42.92275" lon="0.87919">
        <ele>918</ele>
        <time>2018-12-02T07:41:30.000Z</time>
      </trkpt>
      <trkpt lat="42.92276" lon="0.87918">
        <ele>918</ele>
        <time>2018-12-02T07:41:32.000Z</time>
      </trkpt>
      <trkpt lat="42.92277" lon="0.87918">
        <ele>918</ele>
        <time>2018-12-02T07:41:34.000Z</time>
      </trkpt>
      <trkpt lat="42.92277" lon="0.87918">
        <ele>919</ele>
        <time>2018-12-02T07:41:36.000Z</time>
      </trkpt>
      <trkpt lat="42.92279" lon="0.87919">
        <ele>919</ele>
        <time>2018-12-02T07:41:38.000Z</time>
      </trkpt>
      <trkpt lat="42.9228" lon="0.87919">
        <ele>919</ele>
        <time>2018-12-02T07:41:40.000Z</time>
      </trkpt>
      <trkpt lat="42.92281" lon="0.87918">
        <ele>920</ele>
        <time>2018-12-02T07:41:42.000Z</time>
      </trkpt>
      <trkpt lat="42.92283" lon="0.87917">
        <ele>920</ele>
        <time>2018-12-02T07:41:44.000Z</time>
      </trkpt>
      <trkpt lat="42.92283" lon="0.87918">
        <ele>921</ele>
        <time>2018-12-02T07:41:46.000Z</time>
      </trkpt>
      <trkpt lat="42.92284" lon="0.87918">
        <ele>921</ele>
        <time>2018-12-02T07:41:48.000Z</time>
      </trkpt>
      <trkpt lat="42.92285" lon="0.87918">
        <ele>921</ele>
        <time>2018-12-02T07:41:50.000Z</time>
      </trkpt>
      <trkpt lat="42.92285" lon="0.87918">
        <ele>921</ele>
        <time>2018-12-02T07:41:52.000Z</time>
      </trkpt>
      <trkpt lat="42.92286" lon="0.87919">
        <ele>921</ele>
        <time>2018-12-02T07:41:54.000Z</time>
      </trkpt>
      <trkpt lat="42.92287" lon="0.87919">
        <ele>922</ele>
        <time>2018-12-02T07:41:56.000Z</time>
      </trkpt>
      <trkpt lat="42.92288" lon="0.87919">
        <ele>922</ele>
        <time>2018-12-02T07:41:58.000Z</time>
      </trkpt>
      <trkpt lat="42.92288" lon="0.87918">
        <ele>922</ele>
        <time>2018-12-02T07:42:00.000Z</time>
      </trkpt>
      <trkpt lat="42.92288" lon="0.87919">
        <ele>922</ele>
        <time>2018-12-02T07:42:02.000Z</time>
      </trkpt>
      <trkpt lat="42.92289" lon="0.87919">
        <ele>922</ele>
        <time>2018-12-02T07:42:04.000Z</time>
      </trkpt>
      <trkpt lat="42.92289" lon="0.87919">
        <ele>922</ele>
        <time>2018-12-02T07:42:06.000Z</time>
      </trkpt>
      <trkpt lat="42.92289" lon="0.87918">
        <ele>922</ele>
        <time>2018-12-02T07:42:08.000Z</time>
      </trkpt>
      <trkpt lat="42.92289" lon="0.87918">
        <ele>922</ele>
        <time>2018-12-02T07:42:10.000Z</time>
      </trkpt>
      <trkpt lat="42.92289" lon="0.87918">
        <ele>923</ele>
        <time>2018-12-02T07:42:12.000Z</time>
      </trkpt>
      <trkpt lat="42.92289" lon="0.87917">
        <ele>923</ele>
        <time>2018-12-02T07:42:14.000Z</time>
      </trkpt>
      <trkpt lat="42.92289" lon="0.87917">
        <ele>923</ele>
        <time>2018-12-02T07:42:16.000Z</time>
      </trkpt>
      <trkpt lat="42.92289" lon="0.87915">
        <ele>923</ele>
        <time>2018-12-02T07:42:18.000Z</time>
      </trkpt>
      <trkpt lat="42.92289" lon="0.87914">
        <ele>923</ele>
        <time>2018-12-02T07:42:20.000Z</time>
      </trkpt>
      <trkpt lat="42.92289" lon="0.87912">
        <ele>923</ele>
        <time>2018-12-02T07:42:22.000Z</time>
      </trkpt>
      <trkpt lat="42.92289" lon="0.87911">
        <ele>923</ele>
        <time>2018-12-02T07:42:24.000Z</time>
      </trkpt>
      <trkpt lat="42.92289" lon="0.8791">
        <ele>924</ele>
        <time>2018-12-02T07:42:26.000Z</time>
      </trkpt>
      <trkpt lat="42.92289" lon="0.87909">
        <ele>924</ele>
        <time>2018-12-02T07:42:28.000Z</time>
      </trkpt>
      <trkpt lat="42.92289" lon="0.87906">
        <ele>924</ele>
        <time>2018-12-02T07:42:30.000Z</time>
      </trkpt>
      <trkpt lat="42.92289" lon="0.87905">
        <ele>924</ele>
        <time>2018-12-02T07:42:32.000Z</time>
      </trkpt>
      <trkpt lat="42.92288" lon="0.87903">
        <ele>924</ele>
        <time>2018-12-02T07:42:34.000Z</time>
      </trkpt>
      <trkpt lat="42.92288" lon="0.87902">
        <ele>925</ele>
        <time>2018-12-02T07:42:36.000Z</time>
      </trkpt>
      <trkpt lat="42.92289" lon="0.879">
        <ele>925</ele>
        <time>2018-12-02T07:42:38.000Z</time>
      </trkpt>
      <trkpt lat="42.9229" lon="0.87898">
        <ele>926</ele>
        <time>2018-12-02T07:42:40.000Z</time>
      </trkpt>
      <trkpt lat="42.9229" lon="0.87895">
        <ele>926</ele>
        <time>2018-12-02T07:42:43.000Z</time>
      </trkpt>
      <trkpt lat="42.92289" lon="0.87892">
        <ele>927</ele>
        <time>2018-12-02T07:42:45.000Z</time>
      </trkpt>
      <trkpt lat="42.9229" lon="0.87887">
        <ele>927</ele>
        <time>2018-12-02T07:42:47.000Z</time>
      </trkpt>
      <trkpt lat="42.9229" lon="0.87884">
        <ele>927</ele>
        <time>2018-12-02T07:42:49.000Z</time>
      </trkpt>
      <trkpt lat="42.9229" lon="0.87881">
        <ele>928</ele>
        <time>2018-12-02T07:42:51.000Z</time>
      </trkpt>
      <trkpt lat="42.9229" lon="0.8788">
        <ele>928</ele>
        <time>2018-12-02T07:42:53.000Z</time>
      </trkpt>
      <trkpt lat="42.92289" lon="0.87878">
        <ele>928</ele>
        <time>2018-12-02T07:42:55.000Z</time>
      </trkpt>
      <trkpt lat="42.9229" lon="0.87877">
        <ele>928</ele>
        <time>2018-12-02T07:42:57.000Z</time>
      </trkpt>
      <trkpt lat="42.9229" lon="0.87875">
        <ele>928</ele>
        <time>2018-12-02T07:42:59.000Z</time>
      </trkpt>
      <trkpt lat="42.92275" lon="0.87876">
        <ele>922</ele>
        <time>2018-12-02T07:43:01.000Z</time>
      </trkpt>
      <trkpt lat="42.92278" lon="0.87874">
        <ele>924</ele>
        <time>2018-12-02T07:43:03.000Z</time>
      </trkpt>
      <trkpt lat="42.9228" lon="0.87871">
        <ele>925</ele>
        <time>2018-12-02T07:43:05.000Z</time>
      </trkpt>
      <trkpt lat="42.92281" lon="0.87868">
        <ele>925</ele>
        <time>2018-12-02T07:43:07.000Z</time>
      </trkpt>
      <trkpt lat="42.9228" lon="0.87865">
        <ele>925</ele>
        <time>2018-12-02T07:43:09.000Z</time>
      </trkpt>
      <trkpt lat="42.9228" lon="0.87862">
        <ele>925</ele>
        <time>2018-12-02T07:43:11.000Z</time>
      </trkpt>
      <trkpt lat="42.92279" lon="0.8786">
        <ele>925</ele>
        <time>2018-12-02T07:43:13.000Z</time>
      </trkpt>
      <trkpt lat="42.9228" lon="0.87857">
        <ele>926</ele>
        <time>2018-12-02T07:43:16.000Z</time>
      </trkpt>
      <trkpt lat="42.92279" lon="0.87856">
        <ele>925</ele>
        <time>2018-12-02T07:43:18.000Z</time>
      </trkpt>
      <trkpt lat="42.92279" lon="0.87853">
        <ele>926</ele>
        <time>2018-12-02T07:43:20.000Z</time>
      </trkpt>
      <trkpt lat="42.92278" lon="0.8785">
        <ele>926</ele>
        <time>2018-12-02T07:43:22.000Z</time>
      </trkpt>
      <trkpt lat="42.92277" lon="0.87846">
        <ele>926</ele>
        <time>2018-12-02T07:43:24.000Z</time>
      </trkpt>
      <trkpt lat="42.92277" lon="0.87842">
        <ele>926</ele>
        <time>2018-12-02T07:43:26.000Z</time>
      </trkpt>
      <trkpt lat="42.92276" lon="0.87839">
        <ele>926</ele>
        <time>2018-12-02T07:43:28.000Z</time>
      </trkpt>
      <trkpt lat="42.92275" lon="0.87837">
        <ele>926</ele>
        <time>2018-12-02T07:43:30.000Z</time>
      </trkpt>
      <trkpt lat="42.92275" lon="0.87834">
        <ele>926</ele>
        <time>2018-12-02T07:43:32.000Z</time>
      </trkpt>
      <trkpt lat="42.92274" lon="0.8783">
        <ele>926</ele>
        <time>2018-12-02T07:43:34.000Z</time>
      </trkpt>
      <trkpt lat="42.92272" lon="0.87827">
        <ele>925</ele>
        <time>2018-12-02T07:43:36.000Z</time>
      </trkpt>
      <trkpt lat="42.92271" lon="0.87824">
        <ele>925</ele>
        <time>2018-12-02T07:43:38.000Z</time>
      </trkpt>
      <trkpt lat="42.92271" lon="0.87821">
        <ele>925</ele>
        <time>2018-12-02T07:43:40.000Z</time>
      </trkpt>
      <trkpt lat="42.92271" lon="0.87818">
        <ele>926</ele>
        <time>2018-12-02T07:43:42.000Z</time>
      </trkpt>
      <trkpt lat="42.9227" lon="0.87816">
        <ele>926</ele>
        <time>2018-12-02T07:43:44.000Z</time>
      </trkpt>
      <trkpt lat="42.9227" lon="0.87814">
        <ele>926</ele>
        <time>2018-12-02T07:43:46.000Z</time>
      </trkpt>
      <trkpt lat="42.92269" lon="0.87813">
        <ele>926</ele>
        <time>2018-12-02T07:43:48.000Z</time>
      </trkpt>
      <trkpt lat="42.92268" lon="0.87811">
        <ele>925</ele>
        <time>2018-12-02T07:43:50.000Z</time>
      </trkpt>
      <trkpt lat="42.92267" lon="0.87809">
        <ele>925</ele>
        <time>2018-12-02T07:43:52.000Z</time>
      </trkpt>
      <trkpt lat="42.92265" lon="0.87807">
        <ele>925</ele>
        <time>2018-12-02T07:43:54.000Z</time>
      </trkpt>
      <trkpt lat="42.92264" lon="0.87805">
        <ele>925</ele>
        <time>2018-12-02T07:43:56.000Z</time>
      </trkpt>
      <trkpt lat="42.92262" lon="0.87804">
        <ele>924</ele>
        <time>2018-12-02T07:43:58.000Z</time>
      </trkpt>
      <trkpt lat="42.92261" lon="0.87802">
        <ele>924</ele>
        <time>2018-12-02T07:44:00.000Z</time>
      </trkpt>
      <trkpt lat="42.9226" lon="0.878">
        <ele>924</ele>
        <time>2018-12-02T07:44:02.000Z</time>
      </trkpt>
      <trkpt lat="42.92259" lon="0.87798">
        <ele>924</ele>
        <time>2018-12-02T07:44:04.000Z</time>
      </trkpt>
      <trkpt lat="42.92258" lon="0.87797">
        <ele>924</ele>
        <time>2018-12-02T07:44:06.000Z</time>
      </trkpt>
      <trkpt lat="42.92257" lon="0.87796">
        <ele>924</ele>
        <time>2018-12-02T07:44:08.000Z</time>
      </trkpt>
      <trkpt lat="42.92256" lon="0.87794">
        <ele>924</ele>
        <time>2018-12-02T07:44:10.000Z</time>
      </trkpt>
      <trkpt lat="42.92255" lon="0.87793">
        <ele>924</ele>
        <time>2018-12-02T07:44:12.000Z</time>
      </trkpt>
      <trkpt lat="42.92254" lon="0.87792">
        <ele>923</ele>
        <time>2018-12-02T07:44:14.000Z</time>
      </trkpt>
      <trkpt lat="42.92252" lon="0.87791">
        <ele>923</ele>
        <time>2018-12-02T07:44:16.000Z</time>
      </trkpt>
      <trkpt lat="42.92251" lon="0.87791">
        <ele>923</ele>
        <time>2018-12-02T07:44:18.000Z</time>
      </trkpt>
      <trkpt lat="42.9225" lon="0.87791">
        <ele>923</ele>
        <time>2018-12-02T07:44:20.000Z</time>
      </trkpt>
      <trkpt lat="42.92249" lon="0.87789">
        <ele>922</ele>
        <time>2018-12-02T07:44:22.000Z</time>
      </trkpt>
      <trkpt lat="42.92248" lon="0.87787">
        <ele>923</ele>
        <time>2018-12-02T07:44:24.000Z</time>
      </trkpt>
      <trkpt lat="42.92247" lon="0.87785">
        <ele>923</ele>
        <time>2018-12-02T07:44:26.000Z</time>
      </trkpt>
      <trkpt lat="42.92246" lon="0.87783">
        <ele>923</ele>
        <time>2018-12-02T07:44:28.000Z</time>
      </trkpt>
      <trkpt lat="42.92245" lon="0.87781">
        <ele>923</ele>
        <time>2018-12-02T07:44:30.000Z</time>
      </trkpt>
      <trkpt lat="42.92245" lon="0.8778">
        <ele>923</ele>
        <time>2018-12-02T07:44:32.000Z</time>
      </trkpt>
      <trkpt lat="42.92244" lon="0.87778">
        <ele>924</ele>
        <time>2018-12-02T07:44:34.000Z</time>
      </trkpt>
      <trkpt lat="42.92244" lon="0.87777">
        <ele>924</ele>
        <time>2018-12-02T07:44:36.000Z</time>
      </trkpt>
      <trkpt lat="42.92244" lon="0.87775">
        <ele>924</ele>
        <time>2018-12-02T07:44:38.000Z</time>
      </trkpt>
      <trkpt lat="42.92243" lon="0.87774">
        <ele>925</ele>
        <time>2018-12-02T07:44:40.000Z</time>
      </trkpt>
      <trkpt lat="42.92243" lon="0.87773">
        <ele>925</ele>
        <time>2018-12-02T07:44:42.000Z</time>
      </trkpt>
      <trkpt lat="42.92243" lon="0.87771">
        <ele>925</ele>
        <time>2018-12-02T07:44:44.000Z</time>
      </trkpt>
      <trkpt lat="42.92243" lon="0.8777">
        <ele>925</ele>
        <time>2018-12-02T07:44:46.000Z</time>
      </trkpt>
      <trkpt lat="42.92242" lon="0.87769">
        <ele>925</ele>
        <time>2018-12-02T07:44:48.000Z</time>
      </trkpt>
      <trkpt lat="42.92242" lon="0.87768">
        <ele>925</ele>
        <time>2018-12-02T07:44:50.000Z</time>
      </trkpt>
      <trkpt lat="42.92242" lon="0.87768">
        <ele>926</ele>
        <time>2018-12-02T07:44:52.000Z</time>
      </trkpt>
      <trkpt lat="42.92242" lon="0.87768">
        <ele>926</ele>
        <time>2018-12-02T07:44:54.000Z</time>
      </trkpt>
      <trkpt lat="42.92242" lon="0.87767">
        <ele>926</ele>
        <time>2018-12-02T07:44:56.000Z</time>
      </trkpt>
      <trkpt lat="42.92242" lon="0.87765">
        <ele>926</ele>
        <time>2018-12-02T07:44:58.000Z</time>
      </trkpt>
      <trkpt lat="42.92242" lon="0.87764">
        <ele>926</ele>
        <time>2018-12-02T07:45:00.000Z</time>
      </trkpt>
      <trkpt lat="42.92242" lon="0.87763">
        <ele>927</ele>
        <time>2018-12-02T07:45:02.000Z</time>
      </trkpt>
      <trkpt lat="42.92242" lon="0.87762">
        <ele>927</ele>
        <time>2018-12-02T07:45:04.000Z</time>
      </trkpt>
      <trkpt lat="42.92242" lon="0.87761">
        <ele>928</ele>
        <time>2018-12-02T07:45:06.000Z</time>
      </trkpt>
      <trkpt lat="42.92242" lon="0.87759">
        <ele>928</ele>
        <time>2018-12-02T07:45:08.000Z</time>
      </trkpt>
      <trkpt lat="42.92242" lon="0.87757">
        <ele>928</ele>
        <time>2018-12-02T07:45:10.000Z</time>
      </trkpt>
      <trkpt lat="42.92242" lon="0.87754">
        <ele>929</ele>
        <time>2018-12-02T07:45:12.000Z</time>
      </trkpt>
      <trkpt lat="42.92242" lon="0.87751">
        <ele>930</ele>
        <time>2018-12-02T07:45:14.000Z</time>
      </trkpt>
      <trkpt lat="42.92242" lon="0.87749">
        <ele>930</ele>
        <time>2018-12-02T07:45:16.000Z</time>
      </trkpt>
      <trkpt lat="42.92242" lon="0.87747">
        <ele>931</ele>
        <time>2018-12-02T07:45:18.000Z</time>
      </trkpt>
      <trkpt lat="42.92242" lon="0.87745">
        <ele>931</ele>
        <time>2018-12-02T07:45:20.000Z</time>
      </trkpt>
      <trkpt lat="42.92241" lon="0.87743">
        <ele>932</ele>
        <time>2018-12-02T07:45:23.000Z</time>
      </trkpt>
      <trkpt lat="42.92241" lon="0.87741">
        <ele>932</ele>
        <time>2018-12-02T07:45:25.000Z</time>
      </trkpt>
      <trkpt lat="42.92241" lon="0.87739">
        <ele>932</ele>
        <time>2018-12-02T07:45:27.000Z</time>
      </trkpt>
      <trkpt lat="42.9224" lon="0.87739">
        <ele>932</ele>
        <time>2018-12-02T07:45:29.000Z</time>
      </trkpt>
      <trkpt lat="42.92239" lon="0.87737">
        <ele>932</ele>
        <time>2018-12-02T07:45:31.000Z</time>
      </trkpt>
      <trkpt lat="42.92238" lon="0.87736">
        <ele>932</ele>
        <time>2018-12-02T07:45:33.000Z</time>
      </trkpt>
      <trkpt lat="42.92238" lon="0.87734">
        <ele>933</ele>
        <time>2018-12-02T07:45:35.000Z</time>
      </trkpt>
      <trkpt lat="42.92237" lon="0.87733">
        <ele>933</ele>
        <time>2018-12-02T07:45:37.000Z</time>
      </trkpt>
      <trkpt lat="42.92237" lon="0.8773">
        <ele>933</ele>
        <time>2018-12-02T07:45:39.000Z</time>
      </trkpt>
      <trkpt lat="42.92236" lon="0.87729">
        <ele>933</ele>
        <time>2018-12-02T07:45:41.000Z</time>
      </trkpt>
      <trkpt lat="42.92235" lon="0.87728">
        <ele>933</ele>
        <time>2018-12-02T07:45:43.000Z</time>
      </trkpt>
      <trkpt lat="42.92235" lon="0.87727">
        <ele>933</ele>
        <time>2018-12-02T07:45:45.000Z</time>
      </trkpt>
      <trkpt lat="42.92234" lon="0.87725">
        <ele>934</ele>
        <time>2018-12-02T07:45:47.000Z</time>
      </trkpt>
      <trkpt lat="42.92234" lon="0.87724">
        <ele>934</ele>
        <time>2018-12-02T07:45:49.000Z</time>
      </trkpt>
      <trkpt lat="42.92233" lon="0.87723">
        <ele>934</ele>
        <time>2018-12-02T07:45:51.000Z</time>
      </trkpt>
      <trkpt lat="42.92232" lon="0.87719">
        <ele>934</ele>
        <time>2018-12-02T07:45:53.000Z</time>
      </trkpt>
      <trkpt lat="42.92231" lon="0.87717">
        <ele>935</ele>
        <time>2018-12-02T07:45:55.000Z</time>
      </trkpt>
      <trkpt lat="42.92229" lon="0.87716">
        <ele>934</ele>
        <time>2018-12-02T07:45:57.000Z</time>
      </trkpt>
      <trkpt lat="42.92228" lon="0.87714">
        <ele>935</ele>
        <time>2018-12-02T07:45:59.000Z</time>
      </trkpt>
      <trkpt lat="42.92227" lon="0.87711">
        <ele>935</ele>
        <time>2018-12-02T07:46:01.000Z</time>
      </trkpt>
      <trkpt lat="42.92226" lon="0.87708">
        <ele>935</ele>
        <time>2018-12-02T07:46:03.000Z</time>
      </trkpt>
      <trkpt lat="42.92225" lon="0.87706">
        <ele>936</ele>
        <time>2018-12-02T07:46:05.000Z</time>
      </trkpt>
      <trkpt lat="42.92224" lon="0.87704">
        <ele>936</ele>
        <time>2018-12-02T07:46:07.000Z</time>
      </trkpt>
      <trkpt lat="42.92223" lon="0.87701">
        <ele>936</ele>
        <time>2018-12-02T07:46:09.000Z</time>
      </trkpt>
      <trkpt lat="42.92222" lon="0.87697">
        <ele>937</ele>
        <time>2018-12-02T07:46:12.000Z</time>
      </trkpt>
      <trkpt lat="42.92222" lon="0.87695">
        <ele>938</ele>
        <time>2018-12-02T07:46:14.000Z</time>
      </trkpt>
      <trkpt lat="42.92221" lon="0.87693">
        <ele>938</ele>
        <time>2018-12-02T07:46:16.000Z</time>
      </trkpt>
      <trkpt lat="42.9222" lon="0.87693">
        <ele>938</ele>
        <time>2018-12-02T07:46:18.000Z</time>
      </trkpt>
      <trkpt lat="42.9222" lon="0.87693">
        <ele>937</ele>
        <time>2018-12-02T07:46:20.000Z</time>
      </trkpt>
      <trkpt lat="42.9222" lon="0.87692">
        <ele>938</ele>
        <time>2018-12-02T07:46:22.000Z</time>
      </trkpt>
      <trkpt lat="42.92219" lon="0.8769">
        <ele>938</ele>
        <time>2018-12-02T07:46:24.000Z</time>
      </trkpt>
      <trkpt lat="42.92218" lon="0.87688">
        <ele>938</ele>
        <time>2018-12-02T07:46:26.000Z</time>
      </trkpt>
      <trkpt lat="42.92218" lon="0.87686">
        <ele>939</ele>
        <time>2018-12-02T07:46:28.000Z</time>
      </trkpt>
      <trkpt lat="42.92217" lon="0.87684">
        <ele>939</ele>
        <time>2018-12-02T07:46:30.000Z</time>
      </trkpt>
      <trkpt lat="42.92216" lon="0.87682">
        <ele>939</ele>
        <time>2018-12-02T07:46:32.000Z</time>
      </trkpt>
      <trkpt lat="42.92216" lon="0.87679">
        <ele>940</ele>
        <time>2018-12-02T07:46:34.000Z</time>
      </trkpt>
      <trkpt lat="42.92215" lon="0.87677">
        <ele>940</ele>
        <time>2018-12-02T07:46:36.000Z</time>
      </trkpt>
      <trkpt lat="42.92214" lon="0.87674">
        <ele>941</ele>
        <time>2018-12-02T07:46:39.000Z</time>
      </trkpt>
      <trkpt lat="42.92214" lon="0.87672">
        <ele>941</ele>
        <time>2018-12-02T07:46:41.000Z</time>
      </trkpt>
      <trkpt lat="42.92213" lon="0.87668">
        <ele>942</ele>
        <time>2018-12-02T07:46:43.000Z</time>
      </trkpt>
      <trkpt lat="42.92212" lon="0.87666">
        <ele>942</ele>
        <time>2018-12-02T07:46:45.000Z</time>
      </trkpt>
      <trkpt lat="42.92211" lon="0.87664">
        <ele>942</ele>
        <time>2018-12-02T07:46:47.000Z</time>
      </trkpt>
      <trkpt lat="42.92209" lon="0.87662">
        <ele>942</ele>
        <time>2018-12-02T07:46:49.000Z</time>
      </trkpt>
      <trkpt lat="42.92208" lon="0.87659">
        <ele>942</ele>
        <time>2018-12-02T07:46:51.000Z</time>
      </trkpt>
      <trkpt lat="42.92206" lon="0.87658">
        <ele>942</ele>
        <time>2018-12-02T07:46:53.000Z</time>
      </trkpt>
      <trkpt lat="42.92204" lon="0.87657">
        <ele>942</ele>
        <time>2018-12-02T07:46:55.000Z</time>
      </trkpt>
      <trkpt lat="42.92203" lon="0.87656">
        <ele>942</ele>
        <time>2018-12-02T07:46:57.000Z</time>
      </trkpt>
      <trkpt lat="42.92201" lon="0.87654">
        <ele>942</ele>
        <time>2018-12-02T07:46:59.000Z</time>
      </trkpt>
      <trkpt lat="42.922" lon="0.87652">
        <ele>942</ele>
        <time>2018-12-02T07:47:01.000Z</time>
      </trkpt>
      <trkpt lat="42.92199" lon="0.87651">
        <ele>942</ele>
        <time>2018-12-02T07:47:03.000Z</time>
      </trkpt>
      <trkpt lat="42.92198" lon="0.87649">
        <ele>942</ele>
        <time>2018-12-02T07:47:05.000Z</time>
      </trkpt>
      <trkpt lat="42.92197" lon="0.87647">
        <ele>942</ele>
        <time>2018-12-02T07:47:07.000Z</time>
      </trkpt>
      <trkpt lat="42.92195" lon="0.87646">
        <ele>942</ele>
        <time>2018-12-02T07:47:09.000Z</time>
      </trkpt>
      <trkpt lat="42.92194" lon="0.87645">
        <ele>942</ele>
        <time>2018-12-02T07:47:11.000Z</time>
      </trkpt>
      <trkpt lat="42.92194" lon="0.87643">
        <ele>942</ele>
        <time>2018-12-02T07:47:13.000Z</time>
      </trkpt>
      <trkpt lat="42.92193" lon="0.8764">
        <ele>942</ele>
        <time>2018-12-02T07:47:15.000Z</time>
      </trkpt>
      <trkpt lat="42.92191" lon="0.87636">
        <ele>943</ele>
        <time>2018-12-02T07:47:18.000Z</time>
      </trkpt>
      <trkpt lat="42.92189" lon="0.87635">
        <ele>943</ele>
        <time>2018-12-02T07:47:20.000Z</time>
      </trkpt>
      <trkpt lat="42.92188" lon="0.87633">
        <ele>943</ele>
        <time>2018-12-02T07:47:22.000Z</time>
      </trkpt>
      <trkpt lat="42.92186" lon="0.87631">
        <ele>943</ele>
        <time>2018-12-02T07:47:25.000Z</time>
      </trkpt>
      <trkpt lat="42.92185" lon="0.87629">
        <ele>943</ele>
        <time>2018-12-02T07:47:28.000Z</time>
      </trkpt>
      <trkpt lat="42.92184" lon="0.87628">
        <ele>943</ele>
        <time>2018-12-02T07:47:30.000Z</time>
      </trkpt>
      <trkpt lat="42.92184" lon="0.87626">
        <ele>943</ele>
        <time>2018-12-02T07:47:32.000Z</time>
      </trkpt>
      <trkpt lat="42.92183" lon="0.87625">
        <ele>943</ele>
        <time>2018-12-02T07:47:34.000Z</time>
      </trkpt>
      <trkpt lat="42.92182" lon="0.87624">
        <ele>943</ele>
        <time>2018-12-02T07:47:36.000Z</time>
      </trkpt>
      <trkpt lat="42.9218" lon="0.87623">
        <ele>943</ele>
        <time>2018-12-02T07:47:38.000Z</time>
      </trkpt>
      <trkpt lat="42.9218" lon="0.87622">
        <ele>943</ele>
        <time>2018-12-02T07:47:40.000Z</time>
      </trkpt>
      <trkpt lat="42.92179" lon="0.87621">
        <ele>943</ele>
        <time>2018-12-02T07:47:42.000Z</time>
      </trkpt>
      <trkpt lat="42.92178" lon="0.8762">
        <ele>943</ele>
        <time>2018-12-02T07:47:44.000Z</time>
      </trkpt>
      <trkpt lat="42.92178" lon="0.87619">
        <ele>943</ele>
        <time>2018-12-02T07:47:46.000Z</time>
      </trkpt>
      <trkpt lat="42.92176" lon="0.87616">
        <ele>944</ele>
        <time>2018-12-02T07:47:48.000Z</time>
      </trkpt>
      <trkpt lat="42.92175" lon="0.87616">
        <ele>943</ele>
        <time>2018-12-02T07:47:50.000Z</time>
      </trkpt>
      <trkpt lat="42.92172" lon="0.87614">
        <ele>943</ele>
        <time>2018-12-02T07:47:53.000Z</time>
      </trkpt>
      <trkpt lat="42.92171" lon="0.87613">
        <ele>942</ele>
        <time>2018-12-02T07:47:55.000Z</time>
      </trkpt>
      <trkpt lat="42.9217" lon="0.87612">
        <ele>942</ele>
        <time>2018-12-02T07:47:57.000Z</time>
      </trkpt>
      <trkpt lat="42.92169" lon="0.87611">
        <ele>942</ele>
        <time>2018-12-02T07:47:59.000Z</time>
      </trkpt>
      <trkpt lat="42.92168" lon="0.87609">
        <ele>942</ele>
        <time>2018-12-02T07:48:01.000Z</time>
      </trkpt>
      <trkpt lat="42.92167" lon="0.87607">
        <ele>942</ele>
        <time>2018-12-02T07:48:03.000Z</time>
      </trkpt>
      <trkpt lat="42.92166" lon="0.87604">
        <ele>942</ele>
        <time>2018-12-02T07:48:05.000Z</time>
      </trkpt>
      <trkpt lat="42.92165" lon="0.87599">
        <ele>943</ele>
        <time>2018-12-02T07:48:08.000Z</time>
      </trkpt>
      <trkpt lat="42.92165" lon="0.87596">
        <ele>944</ele>
        <time>2018-12-02T07:48:10.000Z</time>
      </trkpt>
      <trkpt lat="42.92164" lon="0.87594">
        <ele>944</ele>
        <time>2018-12-02T07:48:12.000Z</time>
      </trkpt>
      <trkpt lat="42.92164" lon="0.87591">
        <ele>945</ele>
        <time>2018-12-02T07:48:14.000Z</time>
      </trkpt>
      <trkpt lat="42.92164" lon="0.87588">
        <ele>946</ele>
        <time>2018-12-02T07:48:16.000Z</time>
      </trkpt>
      <trkpt lat="42.92163" lon="0.87587">
        <ele>946</ele>
        <time>2018-12-02T07:48:18.000Z</time>
      </trkpt>
      <trkpt lat="42.92162" lon="0.87585">
        <ele>946</ele>
        <time>2018-12-02T07:48:20.000Z</time>
      </trkpt>
      <trkpt lat="42.92161" lon="0.87583">
        <ele>946</ele>
        <time>2018-12-02T07:48:22.000Z</time>
      </trkpt>
      <trkpt lat="42.92161" lon="0.87581">
        <ele>947</ele>
        <time>2018-12-02T07:48:24.000Z</time>
      </trkpt>
      <trkpt lat="42.9216" lon="0.87579">
        <ele>947</ele>
        <time>2018-12-02T07:48:26.000Z</time>
      </trkpt>
      <trkpt lat="42.9216" lon="0.87576">
        <ele>947</ele>
        <time>2018-12-02T07:48:28.000Z</time>
      </trkpt>
      <trkpt lat="42.92159" lon="0.87573">
        <ele>948</ele>
        <time>2018-12-02T07:48:30.000Z</time>
      </trkpt>
      <trkpt lat="42.92158" lon="0.87571">
        <ele>948</ele>
        <time>2018-12-02T07:48:32.000Z</time>
      </trkpt>
      <trkpt lat="42.92157" lon="0.87567">
        <ele>949</ele>
        <time>2018-12-02T07:48:36.000Z</time>
      </trkpt>
      <trkpt lat="42.92156" lon="0.87564">
        <ele>949</ele>
        <time>2018-12-02T07:48:38.000Z</time>
      </trkpt>
      <trkpt lat="42.92155" lon="0.87561">
        <ele>949</ele>
        <time>2018-12-02T07:48:40.000Z</time>
      </trkpt>
      <trkpt lat="42.92154" lon="0.8756">
        <ele>949</ele>
        <time>2018-12-02T07:48:42.000Z</time>
      </trkpt>
      <trkpt lat="42.92152" lon="0.87556">
        <ele>949</ele>
        <time>2018-12-02T07:48:45.000Z</time>
      </trkpt>
      <trkpt lat="42.92151" lon="0.87553">
        <ele>949</ele>
        <time>2018-12-02T07:48:47.000Z</time>
      </trkpt>
      <trkpt lat="42.9215" lon="0.87551">
        <ele>949</ele>
        <time>2018-12-02T07:48:49.000Z</time>
      </trkpt>
      <trkpt lat="42.92149" lon="0.87549">
        <ele>949</ele>
        <time>2018-12-02T07:48:51.000Z</time>
      </trkpt>
      <trkpt lat="42.92149" lon="0.87546">
        <ele>949</ele>
        <time>2018-12-02T07:48:55.000Z</time>
      </trkpt>
      <trkpt lat="42.92148" lon="0.87544">
        <ele>948</ele>
        <time>2018-12-02T07:48:57.000Z</time>
      </trkpt>
      <trkpt lat="42.92147" lon="0.87542">
        <ele>948</ele>
        <time>2018-12-02T07:48:59.000Z</time>
      </trkpt>
      <trkpt lat="42.92147" lon="0.87539">
        <ele>948</ele>
        <time>2018-12-02T07:49:01.000Z</time>
      </trkpt>
      <trkpt lat="42.92146" lon="0.87537">
        <ele>948</ele>
        <time>2018-12-02T07:49:03.000Z</time>
      </trkpt>
      <trkpt lat="42.92146" lon="0.87532">
        <ele>948</ele>
        <time>2018-12-02T07:49:05.000Z</time>
      </trkpt>
      <trkpt lat="42.92145" lon="0.87529">
        <ele>948</ele>
        <time>2018-12-02T07:49:08.000Z</time>
      </trkpt>
      <trkpt lat="42.92146" lon="0.87526">
        <ele>949</ele>
        <time>2018-12-02T07:49:10.000Z</time>
      </trkpt>
      <trkpt lat="42.92145" lon="0.87524">
        <ele>949</ele>
        <time>2018-12-02T07:49:12.000Z</time>
      </trkpt>
      <trkpt lat="42.92146" lon="0.87522">
        <ele>949</ele>
        <time>2018-12-02T07:49:14.000Z</time>
      </trkpt>
      <trkpt lat="42.92147" lon="0.87518">
        <ele>950</ele>
        <time>2018-12-02T07:49:16.000Z</time>
      </trkpt>
      <trkpt lat="42.92148" lon="0.87517">
        <ele>950</ele>
        <time>2018-12-02T07:49:19.000Z</time>
      </trkpt>
      <trkpt lat="42.92149" lon="0.87515">
        <ele>951</ele>
        <time>2018-12-02T07:49:22.000Z</time>
      </trkpt>
      <trkpt lat="42.9215" lon="0.87514">
        <ele>951</ele>
        <time>2018-12-02T07:49:25.000Z</time>
      </trkpt>
      <trkpt lat="42.92151" lon="0.87511">
        <ele>952</ele>
        <time>2018-12-02T07:49:27.000Z</time>
      </trkpt>
      <trkpt lat="42.92152" lon="0.87509">
        <ele>953</ele>
        <time>2018-12-02T07:49:30.000Z</time>
      </trkpt>
      <trkpt lat="42.92153" lon="0.87508">
        <ele>953</ele>
        <time>2018-12-02T07:49:32.000Z</time>
      </trkpt>
      <trkpt lat="42.92154" lon="0.87506">
        <ele>954</ele>
        <time>2018-12-02T07:49:34.000Z</time>
      </trkpt>
      <trkpt lat="42.92155" lon="0.87505">
        <ele>954</ele>
        <time>2018-12-02T07:49:36.000Z</time>
      </trkpt>
      <trkpt lat="42.92155" lon="0.87504">
        <ele>955</ele>
        <time>2018-12-02T07:49:38.000Z</time>
      </trkpt>
      <trkpt lat="42.92157" lon="0.87503">
        <ele>955</ele>
        <time>2018-12-02T07:49:41.000Z</time>
      </trkpt>
      <trkpt lat="42.92158" lon="0.87502">
        <ele>956</ele>
        <time>2018-12-02T07:49:43.000Z</time>
      </trkpt>
      <trkpt lat="42.92158" lon="0.87501">
        <ele>956</ele>
        <time>2018-12-02T07:49:45.000Z</time>
      </trkpt>
      <trkpt lat="42.92159" lon="0.87499">
        <ele>957</ele>
        <time>2018-12-02T07:49:47.000Z</time>
      </trkpt>
      <trkpt lat="42.9216" lon="0.87499">
        <ele>957</ele>
        <time>2018-12-02T07:49:49.000Z</time>
      </trkpt>
      <trkpt lat="42.92162" lon="0.87498">
        <ele>958</ele>
        <time>2018-12-02T07:49:51.000Z</time>
      </trkpt>
      <trkpt lat="42.92163" lon="0.87497">
        <ele>959</ele>
        <time>2018-12-02T07:49:54.000Z</time>
      </trkpt>
      <trkpt lat="42.92165" lon="0.87497">
        <ele>959</ele>
        <time>2018-12-02T07:49:56.000Z</time>
      </trkpt>
      <trkpt lat="42.92167" lon="0.87494">
        <ele>961</ele>
        <time>2018-12-02T07:49:58.000Z</time>
      </trkpt>
      <trkpt lat="42.92168" lon="0.87493">
        <ele>961</ele>
        <time>2018-12-02T07:50:00.000Z</time>
      </trkpt>
      <trkpt lat="42.9217" lon="0.87491">
        <ele>962</ele>
        <time>2018-12-02T07:50:03.000Z</time>
      </trkpt>
      <trkpt lat="42.92171" lon="0.87491">
        <ele>963</ele>
        <time>2018-12-02T07:50:07.000Z</time>
      </trkpt>
      <trkpt lat="42.92174" lon="0.87488">
        <ele>964</ele>
        <time>2018-12-02T07:50:10.000Z</time>
      </trkpt>
      <trkpt lat="42.92175" lon="0.87487">
        <ele>965</ele>
        <time>2018-12-02T07:50:13.000Z</time>
      </trkpt>
      <trkpt lat="42.92176" lon="0.87486">
        <ele>965</ele>
        <time>2018-12-02T07:50:15.000Z</time>
      </trkpt>
      <trkpt lat="42.92177" lon="0.87485">
        <ele>965</ele>
        <time>2018-12-02T07:50:17.000Z</time>
      </trkpt>
      <trkpt lat="42.92178" lon="0.87484">
        <ele>966</ele>
        <time>2018-12-02T07:50:19.000Z</time>
      </trkpt>
      <trkpt lat="42.92179" lon="0.87483">
        <ele>967</ele>
        <time>2018-12-02T07:50:21.000Z</time>
      </trkpt>
      <trkpt lat="42.9218" lon="0.8748">
        <ele>967</ele>
        <time>2018-12-02T07:50:24.000Z</time>
      </trkpt>
      <trkpt lat="42.92181" lon="0.87478">
        <ele>968</ele>
        <time>2018-12-02T07:50:27.000Z</time>
      </trkpt>
      <trkpt lat="42.92182" lon="0.87475">
        <ele>969</ele>
        <time>2018-12-02T07:50:30.000Z</time>
      </trkpt>
      <trkpt lat="42.92184" lon="0.87472">
        <ele>970</ele>
        <time>2018-12-02T07:50:33.000Z</time>
      </trkpt>
      <trkpt lat="42.92185" lon="0.8747">
        <ele>970</ele>
        <time>2018-12-02T07:50:35.000Z</time>
      </trkpt>
      <trkpt lat="42.92187" lon="0.87468">
        <ele>970</ele>
        <time>2018-12-02T07:50:38.000Z</time>
      </trkpt>
      <trkpt lat="42.92188" lon="0.87466">
        <ele>970</ele>
        <time>2018-12-02T07:50:40.000Z</time>
      </trkpt>
      <trkpt lat="42.92189" lon="0.87465">
        <ele>970</ele>
        <time>2018-12-02T07:50:42.000Z</time>
      </trkpt>
      <trkpt lat="42.92191" lon="0.87462">
        <ele>971</ele>
        <time>2018-12-02T07:50:45.000Z</time>
      </trkpt>
      <trkpt lat="42.92192" lon="0.8746">
        <ele>971</ele>
        <time>2018-12-02T07:50:47.000Z</time>
      </trkpt>
      <trkpt lat="42.92193" lon="0.87459">
        <ele>971</ele>
        <time>2018-12-02T07:50:49.000Z</time>
      </trkpt>
      <trkpt lat="42.92194" lon="0.87457">
        <ele>971</ele>
        <time>2018-12-02T07:50:51.000Z</time>
      </trkpt>
      <trkpt lat="42.92196" lon="0.87458">
        <ele>972</ele>
        <time>2018-12-02T07:50:53.000Z</time>
      </trkpt>
      <trkpt lat="42.92197" lon="0.87457">
        <ele>972</ele>
        <time>2018-12-02T07:50:55.000Z</time>
      </trkpt>
      <trkpt lat="42.92199" lon="0.87454">
        <ele>973</ele>
        <time>2018-12-02T07:50:58.000Z</time>
      </trkpt>
      <trkpt lat="42.922" lon="0.87454">
        <ele>973</ele>
        <time>2018-12-02T07:51:00.000Z</time>
      </trkpt>
      <trkpt lat="42.92202" lon="0.87453">
        <ele>973</ele>
        <time>2018-12-02T07:51:03.000Z</time>
      </trkpt>
      <trkpt lat="42.92203" lon="0.87452">
        <ele>974</ele>
        <time>2018-12-02T07:51:05.000Z</time>
      </trkpt>
      <trkpt lat="42.92204" lon="0.87449">
        <ele>973</ele>
        <time>2018-12-02T07:51:07.000Z</time>
      </trkpt>
      <trkpt lat="42.92205" lon="0.87447">
        <ele>974</ele>
        <time>2018-12-02T07:51:09.000Z</time>
      </trkpt>
      <trkpt lat="42.92206" lon="0.87446">
        <ele>974</ele>
        <time>2018-12-02T07:51:11.000Z</time>
      </trkpt>
      <trkpt lat="42.92208" lon="0.87442">
        <ele>974</ele>
        <time>2018-12-02T07:51:14.000Z</time>
      </trkpt>
      <trkpt lat="42.92209" lon="0.8744">
        <ele>974</ele>
        <time>2018-12-02T07:51:17.000Z</time>
      </trkpt>
      <trkpt lat="42.9221" lon="0.87438">
        <ele>974</ele>
        <time>2018-12-02T07:51:19.000Z</time>
      </trkpt>
      <trkpt lat="42.92212" lon="0.87437">
        <ele>975</ele>
        <time>2018-12-02T07:51:22.000Z</time>
      </trkpt>
      <trkpt lat="42.92213" lon="0.87435">
        <ele>975</ele>
        <time>2018-12-02T07:51:24.000Z</time>
      </trkpt>
      <trkpt lat="42.92215" lon="0.87434">
        <ele>975</ele>
        <time>2018-12-02T07:51:26.000Z</time>
      </trkpt>
      <trkpt lat="42.92217" lon="0.87431">
        <ele>976</ele>
        <time>2018-12-02T07:51:29.000Z</time>
      </trkpt>
      <trkpt lat="42.92218" lon="0.8743">
        <ele>976</ele>
        <time>2018-12-02T07:51:31.000Z</time>
      </trkpt>
      <trkpt lat="42.92219" lon="0.87428">
        <ele>976</ele>
        <time>2018-12-02T07:51:33.000Z</time>
      </trkpt>
      <trkpt lat="42.92219" lon="0.87426">
        <ele>976</ele>
        <time>2018-12-02T07:51:35.000Z</time>
      </trkpt>
      <trkpt lat="42.9222" lon="0.87424">
        <ele>975</ele>
        <time>2018-12-02T07:51:37.000Z</time>
      </trkpt>
      <trkpt lat="42.9222" lon="0.87422">
        <ele>975</ele>
        <time>2018-12-02T07:51:39.000Z</time>
      </trkpt>
      <trkpt lat="42.92221" lon="0.87419">
        <ele>975</ele>
        <time>2018-12-02T07:51:42.000Z</time>
      </trkpt>
      <trkpt lat="42.92222" lon="0.87417">
        <ele>975</ele>
        <time>2018-12-02T07:51:44.000Z</time>
      </trkpt>
      <trkpt lat="42.92223" lon="0.87414">
        <ele>975</ele>
        <time>2018-12-02T07:51:46.000Z</time>
      </trkpt>
      <trkpt lat="42.92225" lon="0.87413">
        <ele>975</ele>
        <time>2018-12-02T07:51:48.000Z</time>
      </trkpt>
      <trkpt lat="42.92226" lon="0.87412">
        <ele>976</ele>
        <time>2018-12-02T07:51:50.000Z</time>
      </trkpt>
      <trkpt lat="42.92227" lon="0.87409">
        <ele>976</ele>
        <time>2018-12-02T07:51:52.000Z</time>
      </trkpt>
      <trkpt lat="42.92228" lon="0.87408">
        <ele>976</ele>
        <time>2018-12-02T07:51:55.000Z</time>
      </trkpt>
      <trkpt lat="42.9223" lon="0.87407">
        <ele>976</ele>
        <time>2018-12-02T07:51:57.000Z</time>
      </trkpt>
      <trkpt lat="42.92231" lon="0.87406">
        <ele>977</ele>
        <time>2018-12-02T07:52:00.000Z</time>
      </trkpt>
      <trkpt lat="42.92232" lon="0.87405">
        <ele>977</ele>
        <time>2018-12-02T07:52:02.000Z</time>
      </trkpt>
      <trkpt lat="42.92234" lon="0.87403">
        <ele>977</ele>
        <time>2018-12-02T07:52:04.000Z</time>
      </trkpt>
      <trkpt lat="42.92235" lon="0.87402">
        <ele>978</ele>
        <time>2018-12-02T07:52:07.000Z</time>
      </trkpt>
      <trkpt lat="42.92236" lon="0.87401">
        <ele>978</ele>
        <time>2018-12-02T07:52:09.000Z</time>
      </trkpt>
      <trkpt lat="42.92238" lon="0.87399">
        <ele>978</ele>
        <time>2018-12-02T07:52:11.000Z</time>
      </trkpt>
      <trkpt lat="42.92239" lon="0.87398">
        <ele>978</ele>
        <time>2018-12-02T07:52:13.000Z</time>
      </trkpt>
      <trkpt lat="42.9224" lon="0.87397">
        <ele>979</ele>
        <time>2018-12-02T07:52:15.000Z</time>
      </trkpt>
      <trkpt lat="42.92242" lon="0.87395">
        <ele>979</ele>
        <time>2018-12-02T07:52:17.000Z</time>
      </trkpt>
      <trkpt lat="42.92245" lon="0.87394">
        <ele>980</ele>
        <time>2018-12-02T07:52:21.000Z</time>
      </trkpt>
      <trkpt lat="42.92246" lon="0.87393">
        <ele>981</ele>
        <time>2018-12-02T07:52:23.000Z</time>
      </trkpt>
      <trkpt lat="42.92247" lon="0.87392">
        <ele>981</ele>
        <time>2018-12-02T07:52:25.000Z</time>
      </trkpt>
      <trkpt lat="42.92248" lon="0.87391">
        <ele>981</ele>
        <time>2018-12-02T07:52:27.000Z</time>
      </trkpt>
      <trkpt lat="42.92249" lon="0.87389">
        <ele>981</ele>
        <time>2018-12-02T07:52:29.000Z</time>
      </trkpt>
      <trkpt lat="42.92249" lon="0.87388">
        <ele>981</ele>
        <time>2018-12-02T07:52:31.000Z</time>
      </trkpt>
      <trkpt lat="42.9225" lon="0.87387">
        <ele>981</ele>
        <time>2018-12-02T07:52:33.000Z</time>
      </trkpt>
      <trkpt lat="42.92251" lon="0.87383">
        <ele>980</ele>
        <time>2018-12-02T07:52:36.000Z</time>
      </trkpt>
      <trkpt lat="42.92252" lon="0.87381">
        <ele>980</ele>
        <time>2018-12-02T07:52:38.000Z</time>
      </trkpt>
      <trkpt lat="42.92254" lon="0.87379">
        <ele>980</ele>
        <time>2018-12-02T07:52:40.000Z</time>
      </trkpt>
      <trkpt lat="42.92255" lon="0.87378">
        <ele>981</ele>
        <time>2018-12-02T07:52:43.000Z</time>
      </trkpt>
      <trkpt lat="42.92256" lon="0.87376">
        <ele>981</ele>
        <time>2018-12-02T07:52:45.000Z</time>
      </trkpt>
      <trkpt lat="42.92258" lon="0.87374">
        <ele>981</ele>
        <time>2018-12-02T07:52:47.000Z</time>
      </trkpt>
      <trkpt lat="42.92258" lon="0.87372">
        <ele>981</ele>
        <time>2018-12-02T07:52:49.000Z</time>
      </trkpt>
      <trkpt lat="42.9226" lon="0.87371">
        <ele>981</ele>
        <time>2018-12-02T07:52:51.000Z</time>
      </trkpt>
      <trkpt lat="42.92261" lon="0.8737">
        <ele>981</ele>
        <time>2018-12-02T07:52:53.000Z</time>
      </trkpt>
      <trkpt lat="42.92262" lon="0.87368">
        <ele>981</ele>
        <time>2018-12-02T07:52:55.000Z</time>
      </trkpt>
      <trkpt lat="42.92263" lon="0.87366">
        <ele>981</ele>
        <time>2018-12-02T07:52:57.000Z</time>
      </trkpt>
      <trkpt lat="42.92264" lon="0.87363">
        <ele>980</ele>
        <time>2018-12-02T07:52:59.000Z</time>
      </trkpt>
      <trkpt lat="42.92266" lon="0.8736">
        <ele>980</ele>
        <time>2018-12-02T07:53:02.000Z</time>
      </trkpt>
      <trkpt lat="42.92267" lon="0.87358">
        <ele>980</ele>
        <time>2018-12-02T07:53:04.000Z</time>
      </trkpt>
      <trkpt lat="42.92268" lon="0.87356">
        <ele>980</ele>
        <time>2018-12-02T07:53:07.000Z</time>
      </trkpt>
      <trkpt lat="42.92269" lon="0.87353">
        <ele>980</ele>
        <time>2018-12-02T07:53:09.000Z</time>
      </trkpt>
      <trkpt lat="42.9227" lon="0.87351">
        <ele>980</ele>
        <time>2018-12-02T07:53:11.000Z</time>
      </trkpt>
      <trkpt lat="42.92271" lon="0.8735">
        <ele>980</ele>
        <time>2018-12-02T07:53:13.000Z</time>
      </trkpt>
      <trkpt lat="42.92272" lon="0.87348">
        <ele>980</ele>
        <time>2018-12-02T07:53:15.000Z</time>
      </trkpt>
      <trkpt lat="42.92274" lon="0.87346">
        <ele>980</ele>
        <time>2018-12-02T07:53:17.000Z</time>
      </trkpt>
      <trkpt lat="42.92275" lon="0.87344">
        <ele>980</ele>
        <time>2018-12-02T07:53:19.000Z</time>
      </trkpt>
      <trkpt lat="42.92276" lon="0.87342">
        <ele>980</ele>
        <time>2018-12-02T07:53:21.000Z</time>
      </trkpt>
      <trkpt lat="42.92277" lon="0.8734">
        <ele>980</ele>
        <time>2018-12-02T07:53:23.000Z</time>
      </trkpt>
      <trkpt lat="42.92277" lon="0.87338">
        <ele>979</ele>
        <time>2018-12-02T07:53:25.000Z</time>
      </trkpt>
      <trkpt lat="42.92278" lon="0.87336">
        <ele>979</ele>
        <time>2018-12-02T07:53:27.000Z</time>
      </trkpt>
      <trkpt lat="42.92279" lon="0.87335">
        <ele>979</ele>
        <time>2018-12-02T07:53:29.000Z</time>
      </trkpt>
      <trkpt lat="42.9228" lon="0.87333">
        <ele>979</ele>
        <time>2018-12-02T07:53:31.000Z</time>
      </trkpt>
      <trkpt lat="42.92281" lon="0.87332">
        <ele>979</ele>
        <time>2018-12-02T07:53:33.000Z</time>
      </trkpt>
      <trkpt lat="42.92283" lon="0.87331">
        <ele>980</ele>
        <time>2018-12-02T07:53:35.000Z</time>
      </trkpt>
      <trkpt lat="42.92284" lon="0.87329">
        <ele>980</ele>
        <time>2018-12-02T07:53:37.000Z</time>
      </trkpt>
      <trkpt lat="42.92285" lon="0.87327">
        <ele>980</ele>
        <time>2018-12-02T07:53:39.000Z</time>
      </trkpt>
      <trkpt lat="42.92286" lon="0.87324">
        <ele>980</ele>
        <time>2018-12-02T07:53:41.000Z</time>
      </trkpt>
      <trkpt lat="42.92287" lon="0.87322">
        <ele>980</ele>
        <time>2018-12-02T07:53:43.000Z</time>
      </trkpt>
      <trkpt lat="42.92288" lon="0.87319">
        <ele>979</ele>
        <time>2018-12-02T07:53:45.000Z</time>
      </trkpt>
      <trkpt lat="42.92289" lon="0.87316">
        <ele>979</ele>
        <time>2018-12-02T07:53:47.000Z</time>
      </trkpt>
      <trkpt lat="42.9229" lon="0.87314">
        <ele>979</ele>
        <time>2018-12-02T07:53:49.000Z</time>
      </trkpt>
      <trkpt lat="42.9229" lon="0.87311">
        <ele>979</ele>
        <time>2018-12-02T07:53:51.000Z</time>
      </trkpt>
      <trkpt lat="42.92291" lon="0.87309">
        <ele>978</ele>
        <time>2018-12-02T07:53:53.000Z</time>
      </trkpt>
      <trkpt lat="42.92292" lon="0.87306">
        <ele>978</ele>
        <time>2018-12-02T07:53:55.000Z</time>
      </trkpt>
      <trkpt lat="42.92293" lon="0.87304">
        <ele>978</ele>
        <time>2018-12-02T07:53:57.000Z</time>
      </trkpt>
      <trkpt lat="42.92293" lon="0.873">
        <ele>978</ele>
        <time>2018-12-02T07:53:59.000Z</time>
      </trkpt>
      <trkpt lat="42.92294" lon="0.87298">
        <ele>979</ele>
        <time>2018-12-02T07:54:01.000Z</time>
      </trkpt>
      <trkpt lat="42.92295" lon="0.87296">
        <ele>979</ele>
        <time>2018-12-02T07:54:03.000Z</time>
      </trkpt>
      <trkpt lat="42.92296" lon="0.87294">
        <ele>979</ele>
        <time>2018-12-02T07:54:05.000Z</time>
      </trkpt>
      <trkpt lat="42.92297" lon="0.87292">
        <ele>980</ele>
        <time>2018-12-02T07:54:07.000Z</time>
      </trkpt>
      <trkpt lat="42.92298" lon="0.87289">
        <ele>980</ele>
        <time>2018-12-02T07:54:09.000Z</time>
      </trkpt>
      <trkpt lat="42.92299" lon="0.87288">
        <ele>980</ele>
        <time>2018-12-02T07:54:11.000Z</time>
      </trkpt>
      <trkpt lat="42.92301" lon="0.87285">
        <ele>981</ele>
        <time>2018-12-02T07:54:13.000Z</time>
      </trkpt>
      <trkpt lat="42.92302" lon="0.87284">
        <ele>981</ele>
        <time>2018-12-02T07:54:15.000Z</time>
      </trkpt>
      <trkpt lat="42.92304" lon="0.87281">
        <ele>982</ele>
        <time>2018-12-02T07:54:17.000Z</time>
      </trkpt>
      <trkpt lat="42.92305" lon="0.87279">
        <ele>982</ele>
        <time>2018-12-02T07:54:19.000Z</time>
      </trkpt>
      <trkpt lat="42.92307" lon="0.87277">
        <ele>983</ele>
        <time>2018-12-02T07:54:21.000Z</time>
      </trkpt>
      <trkpt lat="42.92308" lon="0.87276">
        <ele>983</ele>
        <time>2018-12-02T07:54:23.000Z</time>
      </trkpt>
      <trkpt lat="42.92309" lon="0.87273">
        <ele>984</ele>
        <time>2018-12-02T07:54:25.000Z</time>
      </trkpt>
      <trkpt lat="42.92311" lon="0.87272">
        <ele>984</ele>
        <time>2018-12-02T07:54:27.000Z</time>
      </trkpt>
      <trkpt lat="42.92312" lon="0.87271">
        <ele>984</ele>
        <time>2018-12-02T07:54:29.000Z</time>
      </trkpt>
      <trkpt lat="42.92313" lon="0.87269">
        <ele>984</ele>
        <time>2018-12-02T07:54:31.000Z</time>
      </trkpt>
      <trkpt lat="42.92314" lon="0.87268">
        <ele>985</ele>
        <time>2018-12-02T07:54:33.000Z</time>
      </trkpt>
      <trkpt lat="42.92316" lon="0.87267">
        <ele>985</ele>
        <time>2018-12-02T07:54:35.000Z</time>
      </trkpt>
      <trkpt lat="42.92317" lon="0.87265">
        <ele>985</ele>
        <time>2018-12-02T07:54:37.000Z</time>
      </trkpt>
      <trkpt lat="42.92318" lon="0.87264">
        <ele>985</ele>
        <time>2018-12-02T07:54:39.000Z</time>
      </trkpt>
      <trkpt lat="42.92319" lon="0.87262">
        <ele>985</ele>
        <time>2018-12-02T07:54:41.000Z</time>
      </trkpt>
      <trkpt lat="42.9232" lon="0.87261">
        <ele>985</ele>
        <time>2018-12-02T07:54:43.000Z</time>
      </trkpt>
      <trkpt lat="42.92321" lon="0.8726">
        <ele>986</ele>
        <time>2018-12-02T07:54:45.000Z</time>
      </trkpt>
      <trkpt lat="42.92322" lon="0.8726">
        <ele>986</ele>
        <time>2018-12-02T07:54:47.000Z</time>
      </trkpt>
      <trkpt lat="42.92324" lon="0.87259">
        <ele>986</ele>
        <time>2018-12-02T07:54:49.000Z</time>
      </trkpt>
      <trkpt lat="42.92325" lon="0.87258">
        <ele>987</ele>
        <time>2018-12-02T07:54:51.000Z</time>
      </trkpt>
      <trkpt lat="42.92327" lon="0.87258">
        <ele>987</ele>
        <time>2018-12-02T07:54:53.000Z</time>
      </trkpt>
      <trkpt lat="42.92328" lon="0.87256">
        <ele>988</ele>
        <time>2018-12-02T07:54:55.000Z</time>
      </trkpt>
      <trkpt lat="42.92329" lon="0.87255">
        <ele>988</ele>
        <time>2018-12-02T07:54:57.000Z</time>
      </trkpt>
      <trkpt lat="42.9233" lon="0.87254">
        <ele>988</ele>
        <time>2018-12-02T07:54:59.000Z</time>
      </trkpt>
      <trkpt lat="42.92331" lon="0.87252">
        <ele>988</ele>
        <time>2018-12-02T07:55:01.000Z</time>
      </trkpt>
      <trkpt lat="42.92332" lon="0.87251">
        <ele>988</ele>
        <time>2018-12-02T07:55:03.000Z</time>
      </trkpt>
      <trkpt lat="42.92334" lon="0.8725">
        <ele>989</ele>
        <time>2018-12-02T07:55:05.000Z</time>
      </trkpt>
      <trkpt lat="42.92334" lon="0.87249">
        <ele>989</ele>
        <time>2018-12-02T07:55:07.000Z</time>
      </trkpt>
      <trkpt lat="42.92334" lon="0.87248">
        <ele>988</ele>
        <time>2018-12-02T07:55:09.000Z</time>
      </trkpt>
      <trkpt lat="42.92334" lon="0.87249">
        <ele>989</ele>
        <time>2018-12-02T07:55:11.000Z</time>
      </trkpt>
      <trkpt lat="42.92335" lon="0.87247">
        <ele>989</ele>
        <time>2018-12-02T07:55:13.000Z</time>
      </trkpt>
      <trkpt lat="42.92335" lon="0.87246">
        <ele>988</ele>
        <time>2018-12-02T07:55:15.000Z</time>
      </trkpt>
      <trkpt lat="42.92336" lon="0.87246">
        <ele>989</ele>
        <time>2018-12-02T07:55:17.000Z</time>
      </trkpt>
      <trkpt lat="42.92336" lon="0.87245">
        <ele>989</ele>
        <time>2018-12-02T07:55:19.000Z</time>
      </trkpt>
      <trkpt lat="42.92337" lon="0.87244">
        <ele>989</ele>
        <time>2018-12-02T07:55:21.000Z</time>
      </trkpt>
      <trkpt lat="42.92338" lon="0.87243">
        <ele>989</ele>
        <time>2018-12-02T07:55:23.000Z</time>
      </trkpt>
      <trkpt lat="42.92339" lon="0.87242">
        <ele>989</ele>
        <time>2018-12-02T07:55:26.000Z</time>
      </trkpt>
      <trkpt lat="42.9234" lon="0.8724">
        <ele>989</ele>
        <time>2018-12-02T07:55:29.000Z</time>
      </trkpt>
      <trkpt lat="42.92341" lon="0.87237">
        <ele>989</ele>
        <time>2018-12-02T07:55:31.000Z</time>
      </trkpt>
      <trkpt lat="42.92341" lon="0.87235">
        <ele>988</ele>
        <time>2018-12-02T07:55:33.000Z</time>
      </trkpt>
      <trkpt lat="42.92341" lon="0.87234">
        <ele>988</ele>
        <time>2018-12-02T07:55:35.000Z</time>
      </trkpt>
      <trkpt lat="42.92343" lon="0.87232">
        <ele>989</ele>
        <time>2018-12-02T07:55:38.000Z</time>
      </trkpt>
      <trkpt lat="42.92344" lon="0.8723">
        <ele>989</ele>
        <time>2018-12-02T07:55:41.000Z</time>
      </trkpt>
      <trkpt lat="42.92345" lon="0.87226">
        <ele>989</ele>
        <time>2018-12-02T07:55:43.000Z</time>
      </trkpt>
      <trkpt lat="42.92345" lon="0.87223">
        <ele>988</ele>
        <time>2018-12-02T07:55:45.000Z</time>
      </trkpt>
      <trkpt lat="42.92346" lon="0.87222">
        <ele>989</ele>
        <time>2018-12-02T07:55:47.000Z</time>
      </trkpt>
      <trkpt lat="42.92346" lon="0.87221">
        <ele>989</ele>
        <time>2018-12-02T07:55:49.000Z</time>
      </trkpt>
      <trkpt lat="42.92346" lon="0.8722">
        <ele>989</ele>
        <time>2018-12-02T07:55:51.000Z</time>
      </trkpt>
      <trkpt lat="42.92346" lon="0.8722">
        <ele>989</ele>
        <time>2018-12-02T07:55:53.000Z</time>
      </trkpt>
      <trkpt lat="42.92347" lon="0.8722">
        <ele>990</ele>
        <time>2018-12-02T07:55:56.000Z</time>
      </trkpt>
      <trkpt lat="42.92347" lon="0.8722">
        <ele>990</ele>
        <time>2018-12-02T07:55:58.000Z</time>
      </trkpt>
      <trkpt lat="42.92347" lon="0.87219">
        <ele>990</ele>
        <time>2018-12-02T07:56:00.000Z</time>
      </trkpt>
      <trkpt lat="42.92348" lon="0.8722">
        <ele>990</ele>
        <time>2018-12-02T07:56:02.000Z</time>
      </trkpt>
      <trkpt lat="42.92347" lon="0.87219">
        <ele>990</ele>
        <time>2018-12-02T07:56:04.000Z</time>
      </trkpt>
      <trkpt lat="42.92347" lon="0.87217">
        <ele>990</ele>
        <time>2018-12-02T07:56:06.000Z</time>
      </trkpt>
      <trkpt lat="42.92345" lon="0.87215">
        <ele>990</ele>
        <time>2018-12-02T07:56:09.000Z</time>
      </trkpt>
      <trkpt lat="42.92345" lon="0.87214">
        <ele>991</ele>
        <time>2018-12-02T07:56:11.000Z</time>
      </trkpt>
      <trkpt lat="42.92345" lon="0.87213">
        <ele>991</ele>
        <time>2018-12-02T07:56:13.000Z</time>
      </trkpt>
      <trkpt lat="42.92344" lon="0.87211">
        <ele>991</ele>
        <time>2018-12-02T07:56:15.000Z</time>
      </trkpt>
      <trkpt lat="42.92343" lon="0.87211">
        <ele>991</ele>
        <time>2018-12-02T07:56:17.000Z</time>
      </trkpt>
      <trkpt lat="42.92342" lon="0.8721">
        <ele>991</ele>
        <time>2018-12-02T07:56:19.000Z</time>
      </trkpt>
      <trkpt lat="42.92342" lon="0.87209">
        <ele>991</ele>
        <time>2018-12-02T07:56:21.000Z</time>
      </trkpt>
      <trkpt lat="42.92341" lon="0.87208">
        <ele>990</ele>
        <time>2018-12-02T07:56:23.000Z</time>
      </trkpt>
      <trkpt lat="42.9234" lon="0.87209">
        <ele>990</ele>
        <time>2018-12-02T07:56:25.000Z</time>
      </trkpt>
      <trkpt lat="42.92339" lon="0.87208">
        <ele>990</ele>
        <time>2018-12-02T07:56:27.000Z</time>
      </trkpt>
      <trkpt lat="42.92338" lon="0.87206">
        <ele>990</ele>
        <time>2018-12-02T07:56:29.000Z</time>
      </trkpt>
      <trkpt lat="42.92337" lon="0.87205">
        <ele>990</ele>
        <time>2018-12-02T07:56:31.000Z</time>
      </trkpt>
      <trkpt lat="42.92337" lon="0.87205">
        <ele>990</ele>
        <time>2018-12-02T07:56:33.000Z</time>
      </trkpt>
      <trkpt lat="42.92336" lon="0.87204">
        <ele>990</ele>
        <time>2018-12-02T07:56:35.000Z</time>
      </trkpt>
      <trkpt lat="42.92334" lon="0.87203">
        <ele>990</ele>
        <time>2018-12-02T07:56:37.000Z</time>
      </trkpt>
      <trkpt lat="42.92333" lon="0.87201">
        <ele>990</ele>
        <time>2018-12-02T07:56:39.000Z</time>
      </trkpt>
      <trkpt lat="42.92332" lon="0.872">
        <ele>990</ele>
        <time>2018-12-02T07:56:41.000Z</time>
      </trkpt>
      <trkpt lat="42.92331" lon="0.87199">
        <ele>990</ele>
        <time>2018-12-02T07:56:43.000Z</time>
      </trkpt>
      <trkpt lat="42.9233" lon="0.87199">
        <ele>989</ele>
        <time>2018-12-02T07:56:46.000Z</time>
      </trkpt>
      <trkpt lat="42.9233" lon="0.87195">
        <ele>990</ele>
        <time>2018-12-02T07:56:49.000Z</time>
      </trkpt>
      <trkpt lat="42.92329" lon="0.87193">
        <ele>991</ele>
        <time>2018-12-02T07:56:52.000Z</time>
      </trkpt>
      <trkpt lat="42.92327" lon="0.87191">
        <ele>991</ele>
        <time>2018-12-02T07:56:55.000Z</time>
      </trkpt>
      <trkpt lat="42.92326" lon="0.87189">
        <ele>991</ele>
        <time>2018-12-02T07:56:57.000Z</time>
      </trkpt>
      <trkpt lat="42.92323" lon="0.87187">
        <ele>991</ele>
        <time>2018-12-02T07:56:59.000Z</time>
      </trkpt>
      <trkpt lat="42.92322" lon="0.87185">
        <ele>990</ele>
        <time>2018-12-02T07:57:02.000Z</time>
      </trkpt>
      <trkpt lat="42.92319" lon="0.87183">
        <ele>990</ele>
        <time>2018-12-02T07:57:04.000Z</time>
      </trkpt>
      <trkpt lat="42.92317" lon="0.8718">
        <ele>990</ele>
        <time>2018-12-02T07:57:06.000Z</time>
      </trkpt>
      <trkpt lat="42.92315" lon="0.87178">
        <ele>990</ele>
        <time>2018-12-02T07:57:09.000Z</time>
      </trkpt>
      <trkpt lat="42.92314" lon="0.87177">
        <ele>990</ele>
        <time>2018-12-02T07:57:11.000Z</time>
      </trkpt>
      <trkpt lat="42.92312" lon="0.87177">
        <ele>989</ele>
        <time>2018-12-02T07:57:13.000Z</time>
      </trkpt>
      <trkpt lat="42.92311" lon="0.87175">
        <ele>989</ele>
        <time>2018-12-02T07:57:15.000Z</time>
      </trkpt>
      <trkpt lat="42.9231" lon="0.87176">
        <ele>989</ele>
        <time>2018-12-02T07:57:18.000Z</time>
      </trkpt>
      <trkpt lat="42.92309" lon="0.87175">
        <ele>989</ele>
        <time>2018-12-02T07:57:20.000Z</time>
      </trkpt>
      <trkpt lat="42.92306" lon="0.87175">
        <ele>988</ele>
        <time>2018-12-02T07:57:22.000Z</time>
      </trkpt>
      <trkpt lat="42.92304" lon="0.87174">
        <ele>987</ele>
        <time>2018-12-02T07:57:26.000Z</time>
      </trkpt>
      <trkpt lat="42.92302" lon="0.87172">
        <ele>987</ele>
        <time>2018-12-02T07:57:28.000Z</time>
      </trkpt>
      <trkpt lat="42.923" lon="0.87171">
        <ele>987</ele>
        <time>2018-12-02T07:57:31.000Z</time>
      </trkpt>
      <trkpt lat="42.92299" lon="0.87169">
        <ele>987</ele>
        <time>2018-12-02T07:57:33.000Z</time>
      </trkpt>
      <trkpt lat="42.92298" lon="0.87168">
        <ele>987</ele>
        <time>2018-12-02T07:57:36.000Z</time>
      </trkpt>
      <trkpt lat="42.92297" lon="0.87167">
        <ele>987</ele>
        <time>2018-12-02T07:57:38.000Z</time>
      </trkpt>
      <trkpt lat="42.92296" lon="0.87165">
        <ele>987</ele>
        <time>2018-12-02T07:57:40.000Z</time>
      </trkpt>
      <trkpt lat="42.92294" lon="0.87161">
        <ele>988</ele>
        <time>2018-12-02T07:57:43.000Z</time>
      </trkpt>
      <trkpt lat="42.92293" lon="0.87159">
        <ele>988</ele>
        <time>2018-12-02T07:57:45.000Z</time>
      </trkpt>
      <trkpt lat="42.92291" lon="0.87158">
        <ele>988</ele>
        <time>2018-12-02T07:57:48.000Z</time>
      </trkpt>
      <trkpt lat="42.9229" lon="0.87156">
        <ele>988</ele>
        <time>2018-12-02T07:57:50.000Z</time>
      </trkpt>
      <trkpt lat="42.92289" lon="0.87155">
        <ele>988</ele>
        <time>2018-12-02T07:57:52.000Z</time>
      </trkpt>
      <trkpt lat="42.92288" lon="0.87154">
        <ele>988</ele>
        <time>2018-12-02T07:57:54.000Z</time>
      </trkpt>
      <trkpt lat="42.92287" lon="0.87152">
        <ele>988</ele>
        <time>2018-12-02T07:57:56.000Z</time>
      </trkpt>
      <trkpt lat="42.92287" lon="0.8715">
        <ele>988</ele>
        <time>2018-12-02T07:57:58.000Z</time>
      </trkpt>
      <trkpt lat="42.92286" lon="0.87148">
        <ele>989</ele>
        <time>2018-12-02T07:58:00.000Z</time>
      </trkpt>
      <trkpt lat="42.92285" lon="0.87146">
        <ele>989</ele>
        <time>2018-12-02T07:58:02.000Z</time>
      </trkpt>
      <trkpt lat="42.92283" lon="0.87144">
        <ele>989</ele>
        <time>2018-12-02T07:58:04.000Z</time>
      </trkpt>
      <trkpt lat="42.92281" lon="0.87142">
        <ele>988</ele>
        <time>2018-12-02T07:58:06.000Z</time>
      </trkpt>
      <trkpt lat="42.92279" lon="0.87141">
        <ele>988</ele>
        <time>2018-12-02T07:58:09.000Z</time>
      </trkpt>
      <trkpt lat="42.92277" lon="0.87141">
        <ele>988</ele>
        <time>2018-12-02T07:58:11.000Z</time>
      </trkpt>
      <trkpt lat="42.92276" lon="0.87138">
        <ele>988</ele>
        <time>2018-12-02T07:58:13.000Z</time>
      </trkpt>
      <trkpt lat="42.92275" lon="0.87137">
        <ele>988</ele>
        <time>2018-12-02T07:58:15.000Z</time>
      </trkpt>
      <trkpt lat="42.92273" lon="0.87135">
        <ele>988</ele>
        <time>2018-12-02T07:58:17.000Z</time>
      </trkpt>
      <trkpt lat="42.92271" lon="0.87133">
        <ele>988</ele>
        <time>2018-12-02T07:58:19.000Z</time>
      </trkpt>
      <trkpt lat="42.9227" lon="0.87133">
        <ele>988</ele>
        <time>2018-12-02T07:58:21.000Z</time>
      </trkpt>
      <trkpt lat="42.92268" lon="0.87131">
        <ele>988</ele>
        <time>2018-12-02T07:58:23.000Z</time>
      </trkpt>
      <trkpt lat="42.92266" lon="0.8713">
        <ele>988</ele>
        <time>2018-12-02T07:58:25.000Z</time>
      </trkpt>
      <trkpt lat="42.92265" lon="0.87129">
        <ele>988</ele>
        <time>2018-12-02T07:58:27.000Z</time>
      </trkpt>
      <trkpt lat="42.92263" lon="0.87127">
        <ele>988</ele>
        <time>2018-12-02T07:58:29.000Z</time>
      </trkpt>
      <trkpt lat="42.92262" lon="0.87126">
        <ele>988</ele>
        <time>2018-12-02T07:58:31.000Z</time>
      </trkpt>
      <trkpt lat="42.9226" lon="0.87125">
        <ele>988</ele>
        <time>2018-12-02T07:58:33.000Z</time>
      </trkpt>
      <trkpt lat="42.92259" lon="0.87124">
        <ele>988</ele>
        <time>2018-12-02T07:58:35.000Z</time>
      </trkpt>
      <trkpt lat="42.92258" lon="0.87123">
        <ele>988</ele>
        <time>2018-12-02T07:58:37.000Z</time>
      </trkpt>
      <trkpt lat="42.92256" lon="0.87122">
        <ele>988</ele>
        <time>2018-12-02T07:58:39.000Z</time>
      </trkpt>
      <trkpt lat="42.92255" lon="0.87119">
        <ele>988</ele>
        <time>2018-12-02T07:58:41.000Z</time>
      </trkpt>
      <trkpt lat="42.92254" lon="0.87118">
        <ele>988</ele>
        <time>2018-12-02T07:58:43.000Z</time>
      </trkpt>
      <trkpt lat="42.92252" lon="0.87117">
        <ele>988</ele>
        <time>2018-12-02T07:58:45.000Z</time>
      </trkpt>
      <trkpt lat="42.9225" lon="0.87115">
        <ele>987</ele>
        <time>2018-12-02T07:58:47.000Z</time>
      </trkpt>
      <trkpt lat="42.92249" lon="0.87114">
        <ele>987</ele>
        <time>2018-12-02T07:58:49.000Z</time>
      </trkpt>
      <trkpt lat="42.92247" lon="0.87112">
        <ele>988</ele>
        <time>2018-12-02T07:58:51.000Z</time>
      </trkpt>
      <trkpt lat="42.92246" lon="0.8711">
        <ele>988</ele>
        <time>2018-12-02T07:58:53.000Z</time>
      </trkpt>
      <trkpt lat="42.92244" lon="0.87109">
        <ele>988</ele>
        <time>2018-12-02T07:58:55.000Z</time>
      </trkpt>
      <trkpt lat="42.92242" lon="0.87108">
        <ele>987</ele>
        <time>2018-12-02T07:58:57.000Z</time>
      </trkpt>
      <trkpt lat="42.92241" lon="0.87106">
        <ele>987</ele>
        <time>2018-12-02T07:58:59.000Z</time>
      </trkpt>
      <trkpt lat="42.92241" lon="0.87104">
        <ele>988</ele>
        <time>2018-12-02T07:59:01.000Z</time>
      </trkpt>
      <trkpt lat="42.9224" lon="0.87101">
        <ele>989</ele>
        <time>2018-12-02T07:59:03.000Z</time>
      </trkpt>
      <trkpt lat="42.92239" lon="0.87099">
        <ele>989</ele>
        <time>2018-12-02T07:59:05.000Z</time>
      </trkpt>
      <trkpt lat="42.92238" lon="0.87097">
        <ele>989</ele>
        <time>2018-12-02T07:59:07.000Z</time>
      </trkpt>
      <trkpt lat="42.92237" lon="0.87095">
        <ele>990</ele>
        <time>2018-12-02T07:59:09.000Z</time>
      </trkpt>
      <trkpt lat="42.92237" lon="0.87093">
        <ele>991</ele>
        <time>2018-12-02T07:59:11.000Z</time>
      </trkpt>
      <trkpt lat="42.92236" lon="0.87091">
        <ele>991</ele>
        <time>2018-12-02T07:59:13.000Z</time>
      </trkpt>
      <trkpt lat="42.92235" lon="0.87089">
        <ele>992</ele>
        <time>2018-12-02T07:59:15.000Z</time>
      </trkpt>
      <trkpt lat="42.92234" lon="0.87086">
        <ele>992</ele>
        <time>2018-12-02T07:59:17.000Z</time>
      </trkpt>
      <trkpt lat="42.92234" lon="0.87084">
        <ele>993</ele>
        <time>2018-12-02T07:59:19.000Z</time>
      </trkpt>
      <trkpt lat="42.92233" lon="0.87082">
        <ele>993</ele>
        <time>2018-12-02T07:59:21.000Z</time>
      </trkpt>
      <trkpt lat="42.92232" lon="0.87079">
        <ele>994</ele>
        <time>2018-12-02T07:59:23.000Z</time>
      </trkpt>
      <trkpt lat="42.92232" lon="0.87076">
        <ele>995</ele>
        <time>2018-12-02T07:59:25.000Z</time>
      </trkpt>
      <trkpt lat="42.92231" lon="0.87073">
        <ele>996</ele>
        <time>2018-12-02T07:59:27.000Z</time>
      </trkpt>
      <trkpt lat="42.92231" lon="0.87071">
        <ele>996</ele>
        <time>2018-12-02T07:59:29.000Z</time>
      </trkpt>
      <trkpt lat="42.9223" lon="0.87069">
        <ele>997</ele>
        <time>2018-12-02T07:59:31.000Z</time>
      </trkpt>
      <trkpt lat="42.92229" lon="0.87066">
        <ele>998</ele>
        <time>2018-12-02T07:59:33.000Z</time>
      </trkpt>
      <trkpt lat="42.92229" lon="0.87063">
        <ele>999</ele>
        <time>2018-12-02T07:59:35.000Z</time>
      </trkpt>
      <trkpt lat="42.92229" lon="0.8706">
        <ele>1000</ele>
        <time>2018-12-02T07:59:37.000Z</time>
      </trkpt>
      <trkpt lat="42.92229" lon="0.87058">
        <ele>1001</ele>
        <time>2018-12-02T07:59:39.000Z</time>
      </trkpt>
      <trkpt lat="42.9223" lon="0.87057">
        <ele>1002</ele>
        <time>2018-12-02T07:59:41.000Z</time>
      </trkpt>
      <trkpt lat="42.9223" lon="0.87054">
        <ele>1002</ele>
        <time>2018-12-02T07:59:43.000Z</time>
      </trkpt>
      <trkpt lat="42.92231" lon="0.87051">
        <ele>1002</ele>
        <time>2018-12-02T07:59:45.000Z</time>
      </trkpt>
      <trkpt lat="42.92231" lon="0.87049">
        <ele>1002</ele>
        <time>2018-12-02T07:59:47.000Z</time>
      </trkpt>
      <trkpt lat="42.92232" lon="0.87046">
        <ele>1002</ele>
        <time>2018-12-02T07:59:49.000Z</time>
      </trkpt>
      <trkpt lat="42.92232" lon="0.87044">
        <ele>1002</ele>
        <time>2018-12-02T07:59:51.000Z</time>
      </trkpt>
      <trkpt lat="42.92232" lon="0.87042">
        <ele>1002</ele>
        <time>2018-12-02T07:59:53.000Z</time>
      </trkpt>
      <trkpt lat="42.92232" lon="0.87039">
        <ele>1002</ele>
        <time>2018-12-02T07:59:55.000Z</time>
      </trkpt>
      <trkpt lat="42.92232" lon="0.87036">
        <ele>1002</ele>
        <time>2018-12-02T07:59:57.000Z</time>
      </trkpt>
      <trkpt lat="42.92233" lon="0.87033">
        <ele>1002</ele>
        <time>2018-12-02T07:59:59.000Z</time>
      </trkpt>
      <trkpt lat="42.92233" lon="0.8703">
        <ele>1002</ele>
        <time>2018-12-02T08:00:01.000Z</time>
      </trkpt>
      <trkpt lat="42.92233" lon="0.87027">
        <ele>1002</ele>
        <time>2018-12-02T08:00:03.000Z</time>
      </trkpt>
      <trkpt lat="42.92234" lon="0.87024">
        <ele>1002</ele>
        <time>2018-12-02T08:00:05.000Z</time>
      </trkpt>
      <trkpt lat="42.92234" lon="0.87022">
        <ele>1003</ele>
        <time>2018-12-02T08:00:07.000Z</time>
      </trkpt>
      <trkpt lat="42.92234" lon="0.87019">
        <ele>1003</ele>
        <time>2018-12-02T08:00:09.000Z</time>
      </trkpt>
      <trkpt lat="42.92235" lon="0.87017">
        <ele>1003</ele>
        <time>2018-12-02T08:00:11.000Z</time>
      </trkpt>
      <trkpt lat="42.92235" lon="0.87015">
        <ele>1004</ele>
        <time>2018-12-02T08:00:13.000Z</time>
      </trkpt>
      <trkpt lat="42.92236" lon="0.87013">
        <ele>1004</ele>
        <time>2018-12-02T08:00:15.000Z</time>
      </trkpt>
      <trkpt lat="42.92237" lon="0.8701">
        <ele>1005</ele>
        <time>2018-12-02T08:00:17.000Z</time>
      </trkpt>
      <trkpt lat="42.92238" lon="0.87008">
        <ele>1005</ele>
        <time>2018-12-02T08:00:19.000Z</time>
      </trkpt>
      <trkpt lat="42.92238" lon="0.87006">
        <ele>1006</ele>
        <time>2018-12-02T08:00:21.000Z</time>
      </trkpt>
      <trkpt lat="42.92239" lon="0.87004">
        <ele>1006</ele>
        <time>2018-12-02T08:00:23.000Z</time>
      </trkpt>
      <trkpt lat="42.92239" lon="0.87003">
        <ele>1006</ele>
        <time>2018-12-02T08:00:25.000Z</time>
      </trkpt>
      <trkpt lat="42.9224" lon="0.87">
        <ele>1007</ele>
        <time>2018-12-02T08:00:27.000Z</time>
      </trkpt>
      <trkpt lat="42.9224" lon="0.86997">
        <ele>1007</ele>
        <time>2018-12-02T08:00:30.000Z</time>
      </trkpt>
      <trkpt lat="42.92241" lon="0.86995">
        <ele>1008</ele>
        <time>2018-12-02T08:00:32.000Z</time>
      </trkpt>
      <trkpt lat="42.92242" lon="0.86994">
        <ele>1008</ele>
        <time>2018-12-02T08:00:34.000Z</time>
      </trkpt>
      <trkpt lat="42.92242" lon="0.86991">
        <ele>1008</ele>
        <time>2018-12-02T08:00:36.000Z</time>
      </trkpt>
      <trkpt lat="42.92243" lon="0.86989">
        <ele>1009</ele>
        <time>2018-12-02T08:00:38.000Z</time>
      </trkpt>
      <trkpt lat="42.92243" lon="0.86986">
        <ele>1009</ele>
        <time>2018-12-02T08:00:40.000Z</time>
      </trkpt>
      <trkpt lat="42.92244" lon="0.86983">
        <ele>1010</ele>
        <time>2018-12-02T08:00:42.000Z</time>
      </trkpt>
      <trkpt lat="42.92245" lon="0.86981">
        <ele>1010</ele>
        <time>2018-12-02T08:00:44.000Z</time>
      </trkpt>
      <trkpt lat="42.92245" lon="0.86978">
        <ele>1011</ele>
        <time>2018-12-02T08:00:46.000Z</time>
      </trkpt>
      <trkpt lat="42.92246" lon="0.86975">
        <ele>1011</ele>
        <time>2018-12-02T08:00:48.000Z</time>
      </trkpt>
      <trkpt lat="42.92247" lon="0.86973">
        <ele>1012</ele>
        <time>2018-12-02T08:00:50.000Z</time>
      </trkpt>
      <trkpt lat="42.92248" lon="0.86969">
        <ele>1011</ele>
        <time>2018-12-02T08:00:53.000Z</time>
      </trkpt>
      <trkpt lat="42.92249" lon="0.86966">
        <ele>1011</ele>
        <time>2018-12-02T08:00:55.000Z</time>
      </trkpt>
      <trkpt lat="42.9225" lon="0.86963">
        <ele>1011</ele>
        <time>2018-12-02T08:00:57.000Z</time>
      </trkpt>
      <trkpt lat="42.92251" lon="0.8696">
        <ele>1011</ele>
        <time>2018-12-02T08:00:59.000Z</time>
      </trkpt>
      <trkpt lat="42.92252" lon="0.86956">
        <ele>1010</ele>
        <time>2018-12-02T08:01:02.000Z</time>
      </trkpt>
      <trkpt lat="42.92253" lon="0.86953">
        <ele>1010</ele>
        <time>2018-12-02T08:01:05.000Z</time>
      </trkpt>
      <trkpt lat="42.92254" lon="0.8695">
        <ele>1010</ele>
        <time>2018-12-02T08:01:07.000Z</time>
      </trkpt>
      <trkpt lat="42.92255" lon="0.86948">
        <ele>1010</ele>
        <time>2018-12-02T08:01:09.000Z</time>
      </trkpt>
      <trkpt lat="42.92256" lon="0.86945">
        <ele>1010</ele>
        <time>2018-12-02T08:01:11.000Z</time>
      </trkpt>
      <trkpt lat="42.92257" lon="0.86943">
        <ele>1010</ele>
        <time>2018-12-02T08:01:13.000Z</time>
      </trkpt>
      <trkpt lat="42.92258" lon="0.86941">
        <ele>1010</ele>
        <time>2018-12-02T08:01:15.000Z</time>
      </trkpt>
      <trkpt lat="42.92259" lon="0.86939">
        <ele>1010</ele>
        <time>2018-12-02T08:01:17.000Z</time>
      </trkpt>
      <trkpt lat="42.9226" lon="0.86937">
        <ele>1010</ele>
        <time>2018-12-02T08:01:19.000Z</time>
      </trkpt>
      <trkpt lat="42.92261" lon="0.86935">
        <ele>1010</ele>
        <time>2018-12-02T08:01:21.000Z</time>
      </trkpt>
      <trkpt lat="42.92263" lon="0.86933">
        <ele>1011</ele>
        <time>2018-12-02T08:01:23.000Z</time>
      </trkpt>
      <trkpt lat="42.92265" lon="0.86929">
        <ele>1011</ele>
        <time>2018-12-02T08:01:26.000Z</time>
      </trkpt>
      <trkpt lat="42.92266" lon="0.86926">
        <ele>1010</ele>
        <time>2018-12-02T08:01:28.000Z</time>
      </trkpt>
      <trkpt lat="42.92267" lon="0.86921">
        <ele>1010</ele>
        <time>2018-12-02T08:01:32.000Z</time>
      </trkpt>
      <trkpt lat="42.92268" lon="0.86917">
        <ele>1010</ele>
        <time>2018-12-02T08:01:35.000Z</time>
      </trkpt>
      <trkpt lat="42.92269" lon="0.86916">
        <ele>1010</ele>
        <time>2018-12-02T08:01:38.000Z</time>
      </trkpt>
      <trkpt lat="42.9227" lon="0.86914">
        <ele>1010</ele>
        <time>2018-12-02T08:01:40.000Z</time>
      </trkpt>
      <trkpt lat="42.92271" lon="0.86912">
        <ele>1010</ele>
        <time>2018-12-02T08:01:42.000Z</time>
      </trkpt>
      <trkpt lat="42.92272" lon="0.86909">
        <ele>1010</ele>
        <time>2018-12-02T08:01:44.000Z</time>
      </trkpt>
      <trkpt lat="42.92273" lon="0.86907">
        <ele>1010</ele>
        <time>2018-12-02T08:01:46.000Z</time>
      </trkpt>
      <trkpt lat="42.92274" lon="0.86904">
        <ele>1010</ele>
        <time>2018-12-02T08:01:49.000Z</time>
      </trkpt>
      <trkpt lat="42.92275" lon="0.86901">
        <ele>1010</ele>
        <time>2018-12-02T08:01:51.000Z</time>
      </trkpt>
      <trkpt lat="42.92277" lon="0.86897">
        <ele>1010</ele>
        <time>2018-12-02T08:01:54.000Z</time>
      </trkpt>
      <trkpt lat="42.92278" lon="0.86893">
        <ele>1011</ele>
        <time>2018-12-02T08:01:56.000Z</time>
      </trkpt>
      <trkpt lat="42.92279" lon="0.86892">
        <ele>1011</ele>
        <time>2018-12-02T08:01:59.000Z</time>
      </trkpt>
      <trkpt lat="42.92282" lon="0.8689">
        <ele>1012</ele>
        <time>2018-12-02T08:02:02.000Z</time>
      </trkpt>
      <trkpt lat="42.92284" lon="0.86886">
        <ele>1012</ele>
        <time>2018-12-02T08:02:04.000Z</time>
      </trkpt>
      <trkpt lat="42.92285" lon="0.86884">
        <ele>1013</ele>
        <time>2018-12-02T08:02:07.000Z</time>
      </trkpt>
      <trkpt lat="42.92286" lon="0.86881">
        <ele>1012</ele>
        <time>2018-12-02T08:02:09.000Z</time>
      </trkpt>
      <trkpt lat="42.92287" lon="0.86877">
        <ele>1012</ele>
        <time>2018-12-02T08:02:12.000Z</time>
      </trkpt>
      <trkpt lat="42.92288" lon="0.86876">
        <ele>1012</ele>
        <time>2018-12-02T08:02:14.000Z</time>
      </trkpt>
      <trkpt lat="42.92289" lon="0.86874">
        <ele>1012</ele>
        <time>2018-12-02T08:02:16.000Z</time>
      </trkpt>
      <trkpt lat="42.9229" lon="0.86872">
        <ele>1012</ele>
        <time>2018-12-02T08:02:18.000Z</time>
      </trkpt>
      <trkpt lat="42.92291" lon="0.8687">
        <ele>1012</ele>
        <time>2018-12-02T08:02:20.000Z</time>
      </trkpt>
      <trkpt lat="42.92292" lon="0.86868">
        <ele>1013</ele>
        <time>2018-12-02T08:02:22.000Z</time>
      </trkpt>
      <trkpt lat="42.92293" lon="0.86867">
        <ele>1013</ele>
        <time>2018-12-02T08:02:24.000Z</time>
      </trkpt>
      <trkpt lat="42.92294" lon="0.86864">
        <ele>1013</ele>
        <time>2018-12-02T08:02:26.000Z</time>
      </trkpt>
      <trkpt lat="42.92296" lon="0.8686">
        <ele>1013</ele>
        <time>2018-12-02T08:02:29.000Z</time>
      </trkpt>
      <trkpt lat="42.92297" lon="0.86858">
        <ele>1013</ele>
        <time>2018-12-02T08:02:32.000Z</time>
      </trkpt>
      <trkpt lat="42.92299" lon="0.86854">
        <ele>1013</ele>
        <time>2018-12-02T08:02:34.000Z</time>
      </trkpt>
      <trkpt lat="42.923" lon="0.86852">
        <ele>1013</ele>
        <time>2018-12-02T08:02:37.000Z</time>
      </trkpt>
      <trkpt lat="42.92301" lon="0.8685">
        <ele>1013</ele>
        <time>2018-12-02T08:02:39.000Z</time>
      </trkpt>
      <trkpt lat="42.92302" lon="0.86849">
        <ele>1013</ele>
        <time>2018-12-02T08:02:41.000Z</time>
      </trkpt>
      <trkpt lat="42.92303" lon="0.86847">
        <ele>1013</ele>
        <time>2018-12-02T08:02:43.000Z</time>
      </trkpt>
      <trkpt lat="42.92305" lon="0.86846">
        <ele>1013</ele>
        <time>2018-12-02T08:02:45.000Z</time>
      </trkpt>
      <trkpt lat="42.92306" lon="0.86844">
        <ele>1014</ele>
        <time>2018-12-02T08:02:47.000Z</time>
      </trkpt>
      <trkpt lat="42.92306" lon="0.86843">
        <ele>1014</ele>
        <time>2018-12-02T08:02:49.000Z</time>
      </trkpt>
      <trkpt lat="42.92307" lon="0.86842">
        <ele>1014</ele>
        <time>2018-12-02T08:02:51.000Z</time>
      </trkpt>
      <trkpt lat="42.92308" lon="0.86837">
        <ele>1013</ele>
        <time>2018-12-02T08:02:54.000Z</time>
      </trkpt>
      <trkpt lat="42.92309" lon="0.86835">
        <ele>1013</ele>
        <time>2018-12-02T08:02:56.000Z</time>
      </trkpt>
      <trkpt lat="42.9231" lon="0.86833">
        <ele>1013</ele>
        <time>2018-12-02T08:02:59.000Z</time>
      </trkpt>
      <trkpt lat="42.92312" lon="0.8683">
        <ele>1013</ele>
        <time>2018-12-02T08:03:02.000Z</time>
      </trkpt>
      <trkpt lat="42.92315" lon="0.86828">
        <ele>1014</ele>
        <time>2018-12-02T08:03:04.000Z</time>
      </trkpt>
      <trkpt lat="42.92316" lon="0.86826">
        <ele>1014</ele>
        <time>2018-12-02T08:03:07.000Z</time>
      </trkpt>
      <trkpt lat="42.92318" lon="0.86824">
        <ele>1015</ele>
        <time>2018-12-02T08:03:10.000Z</time>
      </trkpt>
      <trkpt lat="42.92318" lon="0.86823">
        <ele>1015</ele>
        <time>2018-12-02T08:03:12.000Z</time>
      </trkpt>
      <trkpt lat="42.9232" lon="0.86823">
        <ele>1015</ele>
        <time>2018-12-02T08:03:14.000Z</time>
      </trkpt>
      <trkpt lat="42.92321" lon="0.86822">
        <ele>1016</ele>
        <time>2018-12-02T08:03:16.000Z</time>
      </trkpt>
      <trkpt lat="42.92322" lon="0.86822">
        <ele>1016</ele>
        <time>2018-12-02T08:03:18.000Z</time>
      </trkpt>
      <trkpt lat="42.92324" lon="0.86821">
        <ele>1017</ele>
        <time>2018-12-02T08:03:20.000Z</time>
      </trkpt>
      <trkpt lat="42.92326" lon="0.8682">
        <ele>1018</ele>
        <time>2018-12-02T08:03:22.000Z</time>
      </trkpt>
      <trkpt lat="42.92327" lon="0.86818">
        <ele>1018</ele>
        <time>2018-12-02T08:03:24.000Z</time>
      </trkpt>
      <trkpt lat="42.92328" lon="0.86816">
        <ele>1018</ele>
        <time>2018-12-02T08:03:26.000Z</time>
      </trkpt>
      <trkpt lat="42.9233" lon="0.86815">
        <ele>1018</ele>
        <time>2018-12-02T08:03:28.000Z</time>
      </trkpt>
      <trkpt lat="42.92331" lon="0.86813">
        <ele>1019</ele>
        <time>2018-12-02T08:03:31.000Z</time>
      </trkpt>
      <trkpt lat="42.92332" lon="0.86811">
        <ele>1019</ele>
        <time>2018-12-02T08:03:34.000Z</time>
      </trkpt>
      <trkpt lat="42.92334" lon="0.8681">
        <ele>1019</ele>
        <time>2018-12-02T08:03:37.000Z</time>
      </trkpt>
      <trkpt lat="42.92335" lon="0.86809">
        <ele>1020</ele>
        <time>2018-12-02T08:03:39.000Z</time>
      </trkpt>
      <trkpt lat="42.92336" lon="0.86807">
        <ele>1020</ele>
        <time>2018-12-02T08:03:41.000Z</time>
      </trkpt>
      <trkpt lat="42.92338" lon="0.86805">
        <ele>1020</ele>
        <time>2018-12-02T08:03:43.000Z</time>
      </trkpt>
      <trkpt lat="42.92339" lon="0.86803">
        <ele>1020</ele>
        <time>2018-12-02T08:03:45.000Z</time>
      </trkpt>
      <trkpt lat="42.9234" lon="0.86803">
        <ele>1021</ele>
        <time>2018-12-02T08:03:47.000Z</time>
      </trkpt>
      <trkpt lat="42.92341" lon="0.86802">
        <ele>1021</ele>
        <time>2018-12-02T08:03:49.000Z</time>
      </trkpt>
      <trkpt lat="42.92343" lon="0.86801">
        <ele>1021</ele>
        <time>2018-12-02T08:03:51.000Z</time>
      </trkpt>
      <trkpt lat="42.92344" lon="0.86801">
        <ele>1022</ele>
        <time>2018-12-02T08:03:54.000Z</time>
      </trkpt>
      <trkpt lat="42.92344" lon="0.86801">
        <ele>1022</ele>
        <time>2018-12-02T08:03:56.000Z</time>
      </trkpt>
      <trkpt lat="42.92345" lon="0.868">
        <ele>1022</ele>
        <time>2018-12-02T08:03:58.000Z</time>
      </trkpt>
      <trkpt lat="42.92349" lon="0.86798">
        <ele>1023</ele>
        <time>2018-12-02T08:04:01.000Z</time>
      </trkpt>
      <trkpt lat="42.92351" lon="0.86799">
        <ele>1024</ele>
        <time>2018-12-02T08:04:03.000Z</time>
      </trkpt>
      <trkpt lat="42.92354" lon="0.86799">
        <ele>1025</ele>
        <time>2018-12-02T08:04:06.000Z</time>
      </trkpt>
      <trkpt lat="42.92357" lon="0.86797">
        <ele>1025</ele>
        <time>2018-12-02T08:04:08.000Z</time>
      </trkpt>
      <trkpt lat="42.92359" lon="0.86796">
        <ele>1026</ele>
        <time>2018-12-02T08:04:10.000Z</time>
      </trkpt>
      <trkpt lat="42.92363" lon="0.86794">
        <ele>1026</ele>
        <time>2018-12-02T08:04:12.000Z</time>
      </trkpt>
      <trkpt lat="42.92365" lon="0.86792">
        <ele>1027</ele>
        <time>2018-12-02T08:04:15.000Z</time>
      </trkpt>
      <trkpt lat="42.92367" lon="0.86791">
        <ele>1027</ele>
        <time>2018-12-02T08:04:18.000Z</time>
      </trkpt>
      <trkpt lat="42.9237" lon="0.8679">
        <ele>1028</ele>
        <time>2018-12-02T08:04:20.000Z</time>
      </trkpt>
      <trkpt lat="42.92372" lon="0.86788">
        <ele>1028</ele>
        <time>2018-12-02T08:04:22.000Z</time>
      </trkpt>
      <trkpt lat="42.92375" lon="0.86786">
        <ele>1029</ele>
        <time>2018-12-02T08:04:24.000Z</time>
      </trkpt>
      <trkpt lat="42.92377" lon="0.86786">
        <ele>1029</ele>
        <time>2018-12-02T08:04:27.000Z</time>
      </trkpt>
      <trkpt lat="42.92379" lon="0.86786">
        <ele>1030</ele>
        <time>2018-12-02T08:04:29.000Z</time>
      </trkpt>
      <trkpt lat="42.9238" lon="0.86784">
        <ele>1030</ele>
        <time>2018-12-02T08:04:31.000Z</time>
      </trkpt>
      <trkpt lat="42.92381" lon="0.86784">
        <ele>1030</ele>
        <time>2018-12-02T08:04:33.000Z</time>
      </trkpt>
      <trkpt lat="42.92381" lon="0.86784">
        <ele>1030</ele>
        <time>2018-12-02T08:04:35.000Z</time>
      </trkpt>
      <trkpt lat="42.92383" lon="0.86782">
        <ele>1030</ele>
        <time>2018-12-02T08:04:37.000Z</time>
      </trkpt>
      <trkpt lat="42.92387" lon="0.86779">
        <ele>1031</ele>
        <time>2018-12-02T08:04:39.000Z</time>
      </trkpt>
      <trkpt lat="42.92388" lon="0.86779">
        <ele>1031</ele>
        <time>2018-12-02T08:04:42.000Z</time>
      </trkpt>
      <trkpt lat="42.9239" lon="0.86777">
        <ele>1032</ele>
        <time>2018-12-02T08:04:44.000Z</time>
      </trkpt>
      <trkpt lat="42.92393" lon="0.86776">
        <ele>1032</ele>
        <time>2018-12-02T08:04:46.000Z</time>
      </trkpt>
      <trkpt lat="42.92395" lon="0.86774">
        <ele>1032</ele>
        <time>2018-12-02T08:04:48.000Z</time>
      </trkpt>
      <trkpt lat="42.92396" lon="0.86774">
        <ele>1032</ele>
        <time>2018-12-02T08:04:50.000Z</time>
      </trkpt>
      <trkpt lat="42.92398" lon="0.86771">
        <ele>1032</ele>
        <time>2018-12-02T08:04:52.000Z</time>
      </trkpt>
      <trkpt lat="42.92399" lon="0.8677">
        <ele>1032</ele>
        <time>2018-12-02T08:04:54.000Z</time>
      </trkpt>
      <trkpt lat="42.92401" lon="0.86768">
        <ele>1032</ele>
        <time>2018-12-02T08:04:56.000Z</time>
      </trkpt>
      <trkpt lat="42.92404" lon="0.86768">
        <ele>1033</ele>
        <time>2018-12-02T08:04:59.000Z</time>
      </trkpt>
      <trkpt lat="42.92405" lon="0.86766">
        <ele>1033</ele>
        <time>2018-12-02T08:05:01.000Z</time>
      </trkpt>
      <trkpt lat="42.92406" lon="0.86765">
        <ele>1033</ele>
        <time>2018-12-02T08:05:03.000Z</time>
      </trkpt>
      <trkpt lat="42.92408" lon="0.86765">
        <ele>1033</ele>
        <time>2018-12-02T08:05:05.000Z</time>
      </trkpt>
      <trkpt lat="42.92409" lon="0.86765">
        <ele>1033</ele>
        <time>2018-12-02T08:05:07.000Z</time>
      </trkpt>
      <trkpt lat="42.9241" lon="0.86764">
        <ele>1034</ele>
        <time>2018-12-02T08:05:09.000Z</time>
      </trkpt>
      <trkpt lat="42.92411" lon="0.86762">
        <ele>1034</ele>
        <time>2018-12-02T08:05:11.000Z</time>
      </trkpt>
      <trkpt lat="42.92413" lon="0.86762">
        <ele>1034</ele>
        <time>2018-12-02T08:05:13.000Z</time>
      </trkpt>
      <trkpt lat="42.92414" lon="0.86761">
        <ele>1034</ele>
        <time>2018-12-02T08:05:15.000Z</time>
      </trkpt>
      <trkpt lat="42.92416" lon="0.86761">
        <ele>1035</ele>
        <time>2018-12-02T08:05:17.000Z</time>
      </trkpt>
      <trkpt lat="42.92417" lon="0.86761">
        <ele>1035</ele>
        <time>2018-12-02T08:05:19.000Z</time>
      </trkpt>
      <trkpt lat="42.92419" lon="0.86762">
        <ele>1036</ele>
        <time>2018-12-02T08:05:21.000Z</time>
      </trkpt>
      <trkpt lat="42.9242" lon="0.86764">
        <ele>1037</ele>
        <time>2018-12-02T08:05:23.000Z</time>
      </trkpt>
      <trkpt lat="42.92422" lon="0.86765">
        <ele>1038</ele>
        <time>2018-12-02T08:05:26.000Z</time>
      </trkpt>
      <trkpt lat="42.92424" lon="0.86766">
        <ele>1039</ele>
        <time>2018-12-02T08:05:28.000Z</time>
      </trkpt>
      <trkpt lat="42.92426" lon="0.86766">
        <ele>1040</ele>
        <time>2018-12-02T08:05:31.000Z</time>
      </trkpt>
      <trkpt lat="42.92429" lon="0.86765">
        <ele>1040</ele>
        <time>2018-12-02T08:05:33.000Z</time>
      </trkpt>
      <trkpt lat="42.92433" lon="0.8676">
        <ele>1040</ele>
        <time>2018-12-02T08:05:36.000Z</time>
      </trkpt>
      <trkpt lat="42.92434" lon="0.86758">
        <ele>1039</ele>
        <time>2018-12-02T08:05:39.000Z</time>
      </trkpt>
      <trkpt lat="42.92436" lon="0.86756">
        <ele>1039</ele>
        <time>2018-12-02T08:05:41.000Z</time>
      </trkpt>
      <trkpt lat="42.92437" lon="0.86755">
        <ele>1039</ele>
        <time>2018-12-02T08:05:43.000Z</time>
      </trkpt>
      <trkpt lat="42.92438" lon="0.86753">
        <ele>1039</ele>
        <time>2018-12-02T08:05:45.000Z</time>
      </trkpt>
      <trkpt lat="42.92439" lon="0.8675">
        <ele>1038</ele>
        <time>2018-12-02T08:05:47.000Z</time>
      </trkpt>
      <trkpt lat="42.92439" lon="0.86748">
        <ele>1037</ele>
        <time>2018-12-02T08:05:49.000Z</time>
      </trkpt>
      <trkpt lat="42.92439" lon="0.86748">
        <ele>1037</ele>
        <time>2018-12-02T08:05:51.000Z</time>
      </trkpt>
      <trkpt lat="42.9244" lon="0.86747">
        <ele>1037</ele>
        <time>2018-12-02T08:05:53.000Z</time>
      </trkpt>
      <trkpt lat="42.9244" lon="0.86745">
        <ele>1037</ele>
        <time>2018-12-02T08:05:55.000Z</time>
      </trkpt>
      <trkpt lat="42.92442" lon="0.86743">
        <ele>1036</ele>
        <time>2018-12-02T08:05:57.000Z</time>
      </trkpt>
      <trkpt lat="42.92443" lon="0.86743">
        <ele>1037</ele>
        <time>2018-12-02T08:05:59.000Z</time>
      </trkpt>
      <trkpt lat="42.92445" lon="0.86742">
        <ele>1037</ele>
        <time>2018-12-02T08:06:01.000Z</time>
      </trkpt>
      <trkpt lat="42.92446" lon="0.86742">
        <ele>1037</ele>
        <time>2018-12-02T08:06:03.000Z</time>
      </trkpt>
      <trkpt lat="42.92448" lon="0.86742">
        <ele>1038</ele>
        <time>2018-12-02T08:06:05.000Z</time>
      </trkpt>
      <trkpt lat="42.92449" lon="0.86741">
        <ele>1038</ele>
        <time>2018-12-02T08:06:08.000Z</time>
      </trkpt>
      <trkpt lat="42.9245" lon="0.86741">
        <ele>1038</ele>
        <time>2018-12-02T08:06:10.000Z</time>
      </trkpt>
      <trkpt lat="42.92452" lon="0.8674">
        <ele>1038</ele>
        <time>2018-12-02T08:06:12.000Z</time>
      </trkpt>
      <trkpt lat="42.92454" lon="0.8674">
        <ele>1039</ele>
        <time>2018-12-02T08:06:14.000Z</time>
      </trkpt>
      <trkpt lat="42.92455" lon="0.8674">
        <ele>1040</ele>
        <time>2018-12-02T08:06:16.000Z</time>
      </trkpt>
      <trkpt lat="42.92456" lon="0.8674">
        <ele>1040</ele>
        <time>2018-12-02T08:06:18.000Z</time>
      </trkpt>
      <trkpt lat="42.92457" lon="0.86739">
        <ele>1040</ele>
        <time>2018-12-02T08:06:20.000Z</time>
      </trkpt>
      <trkpt lat="42.92458" lon="0.86737">
        <ele>1040</ele>
        <time>2018-12-02T08:06:22.000Z</time>
      </trkpt>
      <trkpt lat="42.92458" lon="0.86736">
        <ele>1039</ele>
        <time>2018-12-02T08:06:25.000Z</time>
      </trkpt>
      <trkpt lat="42.92459" lon="0.86734">
        <ele>1039</ele>
        <time>2018-12-02T08:06:27.000Z</time>
      </trkpt>
      <trkpt lat="42.9246" lon="0.86732">
        <ele>1039</ele>
        <time>2018-12-02T08:06:29.000Z</time>
      </trkpt>
      <trkpt lat="42.92461" lon="0.86731">
        <ele>1039</ele>
        <time>2018-12-02T08:06:31.000Z</time>
      </trkpt>
      <trkpt lat="42.92463" lon="0.86728">
        <ele>1038</ele>
        <time>2018-12-02T08:06:34.000Z</time>
      </trkpt>
      <trkpt lat="42.92463" lon="0.86727">
        <ele>1038</ele>
        <time>2018-12-02T08:06:36.000Z</time>
      </trkpt>
      <trkpt lat="42.92464" lon="0.86726">
        <ele>1038</ele>
        <time>2018-12-02T08:06:38.000Z</time>
      </trkpt>
      <trkpt lat="42.92465" lon="0.86726">
        <ele>1038</ele>
        <time>2018-12-02T08:06:40.000Z</time>
      </trkpt>
      <trkpt lat="42.92466" lon="0.86725">
        <ele>1038</ele>
        <time>2018-12-02T08:06:42.000Z</time>
      </trkpt>
      <trkpt lat="42.92466" lon="0.86724">
        <ele>1038</ele>
        <time>2018-12-02T08:06:44.000Z</time>
      </trkpt>
      <trkpt lat="42.92467" lon="0.86723">
        <ele>1038</ele>
        <time>2018-12-02T08:06:46.000Z</time>
      </trkpt>
      <trkpt lat="42.92468" lon="0.86723">
        <ele>1038</ele>
        <time>2018-12-02T08:06:48.000Z</time>
      </trkpt>
      <trkpt lat="42.92469" lon="0.86723">
        <ele>1039</ele>
        <time>2018-12-02T08:06:50.000Z</time>
      </trkpt>
      <trkpt lat="42.92471" lon="0.86723">
        <ele>1039</ele>
        <time>2018-12-02T08:06:52.000Z</time>
      </trkpt>
      <trkpt lat="42.92472" lon="0.86722">
        <ele>1039</ele>
        <time>2018-12-02T08:06:54.000Z</time>
      </trkpt>
      <trkpt lat="42.92473" lon="0.86721">
        <ele>1040</ele>
        <time>2018-12-02T08:06:56.000Z</time>
      </trkpt>
      <trkpt lat="42.92475" lon="0.8672">
        <ele>1040</ele>
        <time>2018-12-02T08:06:58.000Z</time>
      </trkpt>
      <trkpt lat="42.92477" lon="0.8672">
        <ele>1041</ele>
        <time>2018-12-02T08:07:00.000Z</time>
      </trkpt>
      <trkpt lat="42.92478" lon="0.86719">
        <ele>1041</ele>
        <time>2018-12-02T08:07:02.000Z</time>
      </trkpt>
      <trkpt lat="42.9248" lon="0.86719">
        <ele>1042</ele>
        <time>2018-12-02T08:07:04.000Z</time>
      </trkpt>
      <trkpt lat="42.92482" lon="0.8672">
        <ele>1042</ele>
        <time>2018-12-02T08:07:06.000Z</time>
      </trkpt>
      <trkpt lat="42.92484" lon="0.8672">
        <ele>1043</ele>
        <time>2018-12-02T08:07:08.000Z</time>
      </trkpt>
      <trkpt lat="42.92486" lon="0.86721">
        <ele>1044</ele>
        <time>2018-12-02T08:07:10.000Z</time>
      </trkpt>
      <trkpt lat="42.92488" lon="0.86722">
        <ele>1045</ele>
        <time>2018-12-02T08:07:12.000Z</time>
      </trkpt>
      <trkpt lat="42.92489" lon="0.86722">
        <ele>1045</ele>
        <time>2018-12-02T08:07:14.000Z</time>
      </trkpt>
      <trkpt lat="42.92491" lon="0.86723">
        <ele>1046</ele>
        <time>2018-12-02T08:07:16.000Z</time>
      </trkpt>
      <trkpt lat="42.92492" lon="0.86723">
        <ele>1046</ele>
        <time>2018-12-02T08:07:18.000Z</time>
      </trkpt>
      <trkpt lat="42.92493" lon="0.86724">
        <ele>1046</ele>
        <time>2018-12-02T08:07:20.000Z</time>
      </trkpt>
      <trkpt lat="42.92493" lon="0.86724">
        <ele>1047</ele>
        <time>2018-12-02T08:07:22.000Z</time>
      </trkpt>
      <trkpt lat="42.92494" lon="0.86725">
        <ele>1048</ele>
        <time>2018-12-02T08:07:24.000Z</time>
      </trkpt>
      <trkpt lat="42.92496" lon="0.86727">
        <ele>1049</ele>
        <time>2018-12-02T08:07:26.000Z</time>
      </trkpt>
      <trkpt lat="42.92496" lon="0.86728">
        <ele>1049</ele>
        <time>2018-12-02T08:07:28.000Z</time>
      </trkpt>
      <trkpt lat="42.92497" lon="0.86729">
        <ele>1050</ele>
        <time>2018-12-02T08:07:30.000Z</time>
      </trkpt>
      <trkpt lat="42.92498" lon="0.86729">
        <ele>1050</ele>
        <time>2018-12-02T08:07:32.000Z</time>
      </trkpt>
      <trkpt lat="42.92499" lon="0.86729">
        <ele>1051</ele>
        <time>2018-12-02T08:07:35.000Z</time>
      </trkpt>
      <trkpt lat="42.92501" lon="0.86729">
        <ele>1051</ele>
        <time>2018-12-02T08:07:38.000Z</time>
      </trkpt>
      <trkpt lat="42.92502" lon="0.8673">
        <ele>1052</ele>
        <time>2018-12-02T08:07:40.000Z</time>
      </trkpt>
      <trkpt lat="42.92503" lon="0.8673">
        <ele>1052</ele>
        <time>2018-12-02T08:07:42.000Z</time>
      </trkpt>
      <trkpt lat="42.92504" lon="0.86731">
        <ele>1052</ele>
        <time>2018-12-02T08:07:44.000Z</time>
      </trkpt>
      <trkpt lat="42.92505" lon="0.86732">
        <ele>1053</ele>
        <time>2018-12-02T08:07:46.000Z</time>
      </trkpt>
      <trkpt lat="42.92506" lon="0.86732">
        <ele>1054</ele>
        <time>2018-12-02T08:07:48.000Z</time>
      </trkpt>
      <trkpt lat="42.92507" lon="0.86733">
        <ele>1054</ele>
        <time>2018-12-02T08:07:50.000Z</time>
      </trkpt>
      <trkpt lat="42.92508" lon="0.86733">
        <ele>1055</ele>
        <time>2018-12-02T08:07:52.000Z</time>
      </trkpt>
      <trkpt lat="42.92509" lon="0.86733">
        <ele>1055</ele>
        <time>2018-12-02T08:07:54.000Z</time>
      </trkpt>
      <trkpt lat="42.9251" lon="0.86732">
        <ele>1055</ele>
        <time>2018-12-02T08:07:56.000Z</time>
      </trkpt>
      <trkpt lat="42.92512" lon="0.86733">
        <ele>1056</ele>
        <time>2018-12-02T08:07:58.000Z</time>
      </trkpt>
      <trkpt lat="42.92513" lon="0.86734">
        <ele>1057</ele>
        <time>2018-12-02T08:08:00.000Z</time>
      </trkpt>
      <trkpt lat="42.92514" lon="0.86734">
        <ele>1057</ele>
        <time>2018-12-02T08:08:02.000Z</time>
      </trkpt>
      <trkpt lat="42.92515" lon="0.86733">
        <ele>1057</ele>
        <time>2018-12-02T08:08:04.000Z</time>
      </trkpt>
      <trkpt lat="42.92516" lon="0.86733">
        <ele>1057</ele>
        <time>2018-12-02T08:08:06.000Z</time>
      </trkpt>
      <trkpt lat="42.92516" lon="0.86733">
        <ele>1057</ele>
        <time>2018-12-02T08:08:08.000Z</time>
      </trkpt>
      <trkpt lat="42.92518" lon="0.86732">
        <ele>1058</ele>
        <time>2018-12-02T08:08:10.000Z</time>
      </trkpt>
      <trkpt lat="42.92518" lon="0.86732">
        <ele>1058</ele>
        <time>2018-12-02T08:08:12.000Z</time>
      </trkpt>
      <trkpt lat="42.92521" lon="0.86733">
        <ele>1059</ele>
        <time>2018-12-02T08:08:15.000Z</time>
      </trkpt>
      <trkpt lat="42.92522" lon="0.86732">
        <ele>1060</ele>
        <time>2018-12-02T08:08:18.000Z</time>
      </trkpt>
      <trkpt lat="42.92524" lon="0.86734">
        <ele>1061</ele>
        <time>2018-12-02T08:08:21.000Z</time>
      </trkpt>
      <trkpt lat="42.92526" lon="0.86734">
        <ele>1062</ele>
        <time>2018-12-02T08:08:24.000Z</time>
      </trkpt>
      <trkpt lat="42.92527" lon="0.86732">
        <ele>1061</ele>
        <time>2018-12-02T08:08:28.000Z</time>
      </trkpt>
      <trkpt lat="42.92528" lon="0.86731">
        <ele>1062</ele>
        <time>2018-12-02T08:08:31.000Z</time>
      </trkpt>
      <trkpt lat="42.92529" lon="0.86729">
        <ele>1062</ele>
        <time>2018-12-02T08:08:33.000Z</time>
      </trkpt>
      <trkpt lat="42.9253" lon="0.86727">
        <ele>1062</ele>
        <time>2018-12-02T08:08:36.000Z</time>
      </trkpt>
      <trkpt lat="42.92531" lon="0.86727">
        <ele>1062</ele>
        <time>2018-12-02T08:08:38.000Z</time>
      </trkpt>
      <trkpt lat="42.92532" lon="0.86726">
        <ele>1062</ele>
        <time>2018-12-02T08:08:40.000Z</time>
      </trkpt>
      <trkpt lat="42.92532" lon="0.86723">
        <ele>1061</ele>
        <time>2018-12-02T08:08:42.000Z</time>
      </trkpt>
      <trkpt lat="42.92532" lon="0.86722">
        <ele>1062</ele>
        <time>2018-12-02T08:08:44.000Z</time>
      </trkpt>
      <trkpt lat="42.92533" lon="0.86721">
        <ele>1062</ele>
        <time>2018-12-02T08:08:46.000Z</time>
      </trkpt>
      <trkpt lat="42.92533" lon="0.8672">
        <ele>1062</ele>
        <time>2018-12-02T08:08:48.000Z</time>
      </trkpt>
      <trkpt lat="42.92534" lon="0.86719">
        <ele>1062</ele>
        <time>2018-12-02T08:08:50.000Z</time>
      </trkpt>
      <trkpt lat="42.92534" lon="0.86718">
        <ele>1062</ele>
        <time>2018-12-02T08:08:52.000Z</time>
      </trkpt>
      <trkpt lat="42.92535" lon="0.86718">
        <ele>1062</ele>
        <time>2018-12-02T08:08:54.000Z</time>
      </trkpt>
      <trkpt lat="42.92536" lon="0.86717">
        <ele>1062</ele>
        <time>2018-12-02T08:08:56.000Z</time>
      </trkpt>
      <trkpt lat="42.92536" lon="0.86717">
        <ele>1063</ele>
        <time>2018-12-02T08:08:58.000Z</time>
      </trkpt>
      <trkpt lat="42.92537" lon="0.86718">
        <ele>1063</ele>
        <time>2018-12-02T08:09:00.000Z</time>
      </trkpt>
      <trkpt lat="42.92538" lon="0.86716">
        <ele>1063</ele>
        <time>2018-12-02T08:09:02.000Z</time>
      </trkpt>
      <trkpt lat="42.92539" lon="0.86715">
        <ele>1064</ele>
        <time>2018-12-02T08:09:04.000Z</time>
      </trkpt>
      <trkpt lat="42.9254" lon="0.86714">
        <ele>1064</ele>
        <time>2018-12-02T08:09:06.000Z</time>
      </trkpt>
      <trkpt lat="42.9254" lon="0.86712">
        <ele>1064</ele>
        <time>2018-12-02T08:09:08.000Z</time>
      </trkpt>
      <trkpt lat="42.92541" lon="0.86711">
        <ele>1064</ele>
        <time>2018-12-02T08:09:10.000Z</time>
      </trkpt>
      <trkpt lat="42.92542" lon="0.8671">
        <ele>1064</ele>
        <time>2018-12-02T08:09:12.000Z</time>
      </trkpt>
      <trkpt lat="42.92543" lon="0.8671">
        <ele>1065</ele>
        <time>2018-12-02T08:09:14.000Z</time>
      </trkpt>
      <trkpt lat="42.92543" lon="0.86711">
        <ele>1065</ele>
        <time>2018-12-02T08:09:16.000Z</time>
      </trkpt>
      <trkpt lat="42.92544" lon="0.8671">
        <ele>1065</ele>
        <time>2018-12-02T08:09:18.000Z</time>
      </trkpt>
      <trkpt lat="42.92544" lon="0.86709">
        <ele>1065</ele>
        <time>2018-12-02T08:09:20.000Z</time>
      </trkpt>
      <trkpt lat="42.92545" lon="0.86708">
        <ele>1066</ele>
        <time>2018-12-02T08:09:22.000Z</time>
      </trkpt>
      <trkpt lat="42.92545" lon="0.86706">
        <ele>1065</ele>
        <time>2018-12-02T08:09:24.000Z</time>
      </trkpt>
      <trkpt lat="42.92546" lon="0.86704">
        <ele>1066</ele>
        <time>2018-12-02T08:09:26.000Z</time>
      </trkpt>
      <trkpt lat="42.92547" lon="0.86702">
        <ele>1066</ele>
        <time>2018-12-02T08:09:28.000Z</time>
      </trkpt>
      <trkpt lat="42.92548" lon="0.86701">
        <ele>1066</ele>
        <time>2018-12-02T08:09:30.000Z</time>
      </trkpt>
      <trkpt lat="42.92548" lon="0.867">
        <ele>1066</ele>
        <time>2018-12-02T08:09:33.000Z</time>
      </trkpt>
      <trkpt lat="42.92548" lon="0.867">
        <ele>1066</ele>
        <time>2018-12-02T08:09:36.000Z</time>
      </trkpt>
      <trkpt lat="42.92547" lon="0.86699">
        <ele>1066</ele>
        <time>2018-12-02T08:09:38.000Z</time>
      </trkpt>
      <trkpt lat="42.92547" lon="0.867">
        <ele>1066</ele>
        <time>2018-12-02T08:09:41.000Z</time>
      </trkpt>
      <trkpt lat="42.92547" lon="0.86699">
        <ele>1066</ele>
        <time>2018-12-02T08:09:43.000Z</time>
      </trkpt>
      <trkpt lat="42.92546" lon="0.86699">
        <ele>1065</ele>
        <time>2018-12-02T08:09:45.000Z</time>
      </trkpt>
      <trkpt lat="42.92545" lon="0.86697">
        <ele>1065</ele>
        <time>2018-12-02T08:09:47.000Z</time>
      </trkpt>
      <trkpt lat="42.92545" lon="0.86696">
        <ele>1065</ele>
        <time>2018-12-02T08:09:50.000Z</time>
      </trkpt>
      <trkpt lat="42.92544" lon="0.86696">
        <ele>1064</ele>
        <time>2018-12-02T08:09:53.000Z</time>
      </trkpt>
      <trkpt lat="42.92544" lon="0.86696">
        <ele>1064</ele>
        <time>2018-12-02T08:09:55.000Z</time>
      </trkpt>
      <trkpt lat="42.92545" lon="0.86698">
        <ele>1065</ele>
        <time>2018-12-02T08:09:57.000Z</time>
      </trkpt>
      <trkpt lat="42.92545" lon="0.86697">
        <ele>1065</ele>
        <time>2018-12-02T08:09:59.000Z</time>
      </trkpt>
      <trkpt lat="42.92546" lon="0.86696">
        <ele>1065</ele>
        <time>2018-12-02T08:10:01.000Z</time>
      </trkpt>
      <trkpt lat="42.92546" lon="0.86696">
        <ele>1065</ele>
        <time>2018-12-02T08:10:03.000Z</time>
      </trkpt>
      <trkpt lat="42.92547" lon="0.86696">
        <ele>1065</ele>
        <time>2018-12-02T08:10:05.000Z</time>
      </trkpt>
      <trkpt lat="42.92547" lon="0.86696">
        <ele>1066</ele>
        <time>2018-12-02T08:10:07.000Z</time>
      </trkpt>
      <trkpt lat="42.92549" lon="0.86698">
        <ele>1066</ele>
        <time>2018-12-02T08:10:10.000Z</time>
      </trkpt>
      <trkpt lat="42.9255" lon="0.86698">
        <ele>1067</ele>
        <time>2018-12-02T08:10:12.000Z</time>
      </trkpt>
      <trkpt lat="42.9255" lon="0.86699">
        <ele>1067</ele>
        <time>2018-12-02T08:10:15.000Z</time>
      </trkpt>
      <trkpt lat="42.92548" lon="0.86699">
        <ele>1066</ele>
        <time>2018-12-02T08:10:17.000Z</time>
      </trkpt>
      <trkpt lat="42.92547" lon="0.867">
        <ele>1066</ele>
        <time>2018-12-02T08:10:21.000Z</time>
      </trkpt>
      <trkpt lat="42.92547" lon="0.86702">
        <ele>1066</ele>
        <time>2018-12-02T08:10:25.000Z</time>
      </trkpt>
      <trkpt lat="42.92547" lon="0.86703">
        <ele>1066</ele>
        <time>2018-12-02T08:10:27.000Z</time>
      </trkpt>
      <trkpt lat="42.92547" lon="0.86705">
        <ele>1066</ele>
        <time>2018-12-02T08:10:31.000Z</time>
      </trkpt>
      <trkpt lat="42.92549" lon="0.86704">
        <ele>1067</ele>
        <time>2018-12-02T08:10:34.000Z</time>
      </trkpt>
      <trkpt lat="42.92549" lon="0.86705">
        <ele>1067</ele>
        <time>2018-12-02T08:10:36.000Z</time>
      </trkpt>
      <trkpt lat="42.92549" lon="0.86706">
        <ele>1067</ele>
        <time>2018-12-02T08:10:38.000Z</time>
      </trkpt>
      <trkpt lat="42.92549" lon="0.86706">
        <ele>1067</ele>
        <time>2018-12-02T08:10:40.000Z</time>
      </trkpt>
      <trkpt lat="42.92548" lon="0.86706">
        <ele>1067</ele>
        <time>2018-12-02T08:10:42.000Z</time>
      </trkpt>
      <trkpt lat="42.92548" lon="0.86706">
        <ele>1067</ele>
        <time>2018-12-02T08:10:45.000Z</time>
      </trkpt>
      <trkpt lat="42.92547" lon="0.86705">
        <ele>1066</ele>
        <time>2018-12-02T08:10:47.000Z</time>
      </trkpt>
      <trkpt lat="42.92548" lon="0.86704">
        <ele>1067</ele>
        <time>2018-12-02T08:10:50.000Z</time>
      </trkpt>
      <trkpt lat="42.9255" lon="0.86704">
        <ele>1067</ele>
        <time>2018-12-02T08:10:53.000Z</time>
      </trkpt>
      <trkpt lat="42.92551" lon="0.86705">
        <ele>1068</ele>
        <time>2018-12-02T08:10:56.000Z</time>
      </trkpt>
      <trkpt lat="42.92551" lon="0.86705">
        <ele>1068</ele>
        <time>2018-12-02T08:10:58.000Z</time>
      </trkpt>
      <trkpt lat="42.92552" lon="0.86702">
        <ele>1068</ele>
        <time>2018-12-02T08:11:02.000Z</time>
      </trkpt>
      <trkpt lat="42.92552" lon="0.86702">
        <ele>1068</ele>
        <time>2018-12-02T08:11:04.000Z</time>
      </trkpt>
      <trkpt lat="42.92553" lon="0.86701">
        <ele>1068</ele>
        <time>2018-12-02T08:11:07.000Z</time>
      </trkpt>
      <trkpt lat="42.92552" lon="0.86699">
        <ele>1068</ele>
        <time>2018-12-02T08:11:10.000Z</time>
      </trkpt>
      <trkpt lat="42.92552" lon="0.86699">
        <ele>1068</ele>
        <time>2018-12-02T08:11:12.000Z</time>
      </trkpt>
      <trkpt lat="42.92552" lon="0.86698">
        <ele>1068</ele>
        <time>2018-12-02T08:11:14.000Z</time>
      </trkpt>
      <trkpt lat="42.92551" lon="0.86699">
        <ele>1068</ele>
        <time>2018-12-02T08:11:16.000Z</time>
      </trkpt>
      <trkpt lat="42.92551" lon="0.86702">
        <ele>1068</ele>
        <time>2018-12-02T08:11:18.000Z</time>
      </trkpt>
      <trkpt lat="42.9255" lon="0.86703">
        <ele>1068</ele>
        <time>2018-12-02T08:11:20.000Z</time>
      </trkpt>
      <trkpt lat="42.9255" lon="0.86702">
        <ele>1067</ele>
        <time>2018-12-02T08:11:22.000Z</time>
      </trkpt>
      <trkpt lat="42.9255" lon="0.86701">
        <ele>1067</ele>
        <time>2018-12-02T08:11:24.000Z</time>
      </trkpt>
      <trkpt lat="42.92549" lon="0.86702">
        <ele>1067</ele>
        <time>2018-12-02T08:11:26.000Z</time>
      </trkpt>
      <trkpt lat="42.92549" lon="0.86703">
        <ele>1067</ele>
        <time>2018-12-02T08:11:28.000Z</time>
      </trkpt>
      <trkpt lat="42.92549" lon="0.86703">
        <ele>1067</ele>
        <time>2018-12-02T08:11:30.000Z</time>
      </trkpt>
      <trkpt lat="42.92548" lon="0.86703">
        <ele>1067</ele>
        <time>2018-12-02T08:11:32.000Z</time>
      </trkpt>
      <trkpt lat="42.92548" lon="0.86702">
        <ele>1066</ele>
        <time>2018-12-02T08:11:34.000Z</time>
      </trkpt>
      <trkpt lat="42.92548" lon="0.86703">
        <ele>1066</ele>
        <time>2018-12-02T08:11:36.000Z</time>
      </trkpt>
      <trkpt lat="42.92548" lon="0.86704">
        <ele>1066</ele>
        <time>2018-12-02T08:11:38.000Z</time>
      </trkpt>
      <trkpt lat="42.92548" lon="0.86705">
        <ele>1067</ele>
        <time>2018-12-02T08:11:40.000Z</time>
      </trkpt>
      <trkpt lat="42.92548" lon="0.86705">
        <ele>1066</ele>
        <time>2018-12-02T08:11:42.000Z</time>
      </trkpt>
      <trkpt lat="42.92547" lon="0.86705">
        <ele>1066</ele>
        <time>2018-12-02T08:11:44.000Z</time>
      </trkpt>
      <trkpt lat="42.92547" lon="0.86705">
        <ele>1066</ele>
        <time>2018-12-02T08:11:46.000Z</time>
      </trkpt>
      <trkpt lat="42.92547" lon="0.86706">
        <ele>1066</ele>
        <time>2018-12-02T08:11:48.000Z</time>
      </trkpt>
      <trkpt lat="42.92546" lon="0.86708">
        <ele>1066</ele>
        <time>2018-12-02T08:11:51.000Z</time>
      </trkpt>
      <trkpt lat="42.92546" lon="0.86711">
        <ele>1066</ele>
        <time>2018-12-02T08:11:54.000Z</time>
      </trkpt>
      <trkpt lat="42.92546" lon="0.86711">
        <ele>1066</ele>
        <time>2018-12-02T08:11:57.000Z</time>
      </trkpt>
      <trkpt lat="42.92547" lon="0.86711">
        <ele>1067</ele>
        <time>2018-12-02T08:11:59.000Z</time>
      </trkpt>
      <trkpt lat="42.92546" lon="0.86711">
        <ele>1066</ele>
        <time>2018-12-02T08:12:01.000Z</time>
      </trkpt>
      <trkpt lat="42.92546" lon="0.86711">
        <ele>1066</ele>
        <time>2018-12-02T08:12:03.000Z</time>
      </trkpt>
      <trkpt lat="42.92547" lon="0.86709">
        <ele>1067</ele>
        <time>2018-12-02T08:12:05.000Z</time>
      </trkpt>
      <trkpt lat="42.92547" lon="0.86708">
        <ele>1067</ele>
        <time>2018-12-02T08:12:07.000Z</time>
      </trkpt>
      <trkpt lat="42.92547" lon="0.86707">
        <ele>1067</ele>
        <time>2018-12-02T08:12:09.000Z</time>
      </trkpt>
      <trkpt lat="42.92547" lon="0.86707">
        <ele>1066</ele>
        <time>2018-12-02T08:12:11.000Z</time>
      </trkpt>
      <trkpt lat="42.92547" lon="0.86707">
        <ele>1066</ele>
        <time>2018-12-02T08:12:14.000Z</time>
      </trkpt>
      <trkpt lat="42.92546" lon="0.86705">
        <ele>1066</ele>
        <time>2018-12-02T08:12:16.000Z</time>
      </trkpt>
      <trkpt lat="42.92546" lon="0.86704">
        <ele>1066</ele>
        <time>2018-12-02T08:12:18.000Z</time>
      </trkpt>
      <trkpt lat="42.92546" lon="0.86703">
        <ele>1066</ele>
        <time>2018-12-02T08:12:20.000Z</time>
      </trkpt>
      <trkpt lat="42.92547" lon="0.86702">
        <ele>1066</ele>
        <time>2018-12-02T08:12:23.000Z</time>
      </trkpt>
      <trkpt lat="42.92546" lon="0.86701">
        <ele>1065</ele>
        <time>2018-12-02T08:12:25.000Z</time>
      </trkpt>
      <trkpt lat="42.92546" lon="0.86698">
        <ele>1065</ele>
        <time>2018-12-02T08:12:28.000Z</time>
      </trkpt>
      <trkpt lat="42.92546" lon="0.86697">
        <ele>1065</ele>
        <time>2018-12-02T08:12:30.000Z</time>
      </trkpt>
      <trkpt lat="42.92547" lon="0.86696">
        <ele>1065</ele>
        <time>2018-12-02T08:12:33.000Z</time>
      </trkpt>
      <trkpt lat="42.92547" lon="0.86697">
        <ele>1065</ele>
        <time>2018-12-02T08:12:35.000Z</time>
      </trkpt>
      <trkpt lat="42.92545" lon="0.86696">
        <ele>1065</ele>
        <time>2018-12-02T08:12:39.000Z</time>
      </trkpt>
      <trkpt lat="42.92546" lon="0.86694">
        <ele>1065</ele>
        <time>2018-12-02T08:12:42.000Z</time>
      </trkpt>
      <trkpt lat="42.92546" lon="0.86695">
        <ele>1065</ele>
        <time>2018-12-02T08:12:44.000Z</time>
      </trkpt>
      <trkpt lat="42.92547" lon="0.86695">
        <ele>1065</ele>
        <time>2018-12-02T08:12:46.000Z</time>
      </trkpt>
      <trkpt lat="42.92547" lon="0.86695">
        <ele>1065</ele>
        <time>2018-12-02T08:12:48.000Z</time>
      </trkpt>
      <trkpt lat="42.92546" lon="0.86693">
        <ele>1065</ele>
        <time>2018-12-02T08:12:52.000Z</time>
      </trkpt>
      <trkpt lat="42.92546" lon="0.86692">
        <ele>1065</ele>
        <time>2018-12-02T08:12:54.000Z</time>
      </trkpt>
      <trkpt lat="42.92545" lon="0.86691">
        <ele>1064</ele>
        <time>2018-12-02T08:12:57.000Z</time>
      </trkpt>
      <trkpt lat="42.92545" lon="0.86691">
        <ele>1064</ele>
        <time>2018-12-02T08:12:59.000Z</time>
      </trkpt>
      <trkpt lat="42.92546" lon="0.8669">
        <ele>1064</ele>
        <time>2018-12-02T08:13:02.000Z</time>
      </trkpt>
      <trkpt lat="42.92547" lon="0.86691">
        <ele>1065</ele>
        <time>2018-12-02T08:13:04.000Z</time>
      </trkpt>
      <trkpt lat="42.92547" lon="0.86692">
        <ele>1065</ele>
        <time>2018-12-02T08:13:07.000Z</time>
      </trkpt>
      <trkpt lat="42.92547" lon="0.86692">
        <ele>1065</ele>
        <time>2018-12-02T08:13:09.000Z</time>
      </trkpt>
      <trkpt lat="42.92547" lon="0.86695">
        <ele>1065</ele>
        <time>2018-12-02T08:13:11.000Z</time>
      </trkpt>
      <trkpt lat="42.92549" lon="0.86697">
        <ele>1066</ele>
        <time>2018-12-02T08:13:13.000Z</time>
      </trkpt>
      <trkpt lat="42.9255" lon="0.86699">
        <ele>1067</ele>
        <time>2018-12-02T08:13:15.000Z</time>
      </trkpt>
      <trkpt lat="42.9255" lon="0.86699">
        <ele>1067</ele>
        <time>2018-12-02T08:13:17.000Z</time>
      </trkpt>
      <trkpt lat="42.92549" lon="0.867">
        <ele>1067</ele>
        <time>2018-12-02T08:13:19.000Z</time>
      </trkpt>
      <trkpt lat="42.92548" lon="0.86701">
        <ele>1066</ele>
        <time>2018-12-02T08:13:21.000Z</time>
      </trkpt>
      <trkpt lat="42.92548" lon="0.86702">
        <ele>1066</ele>
        <time>2018-12-02T08:13:24.000Z</time>
      </trkpt>
      <trkpt lat="42.92547" lon="0.86702">
        <ele>1066</ele>
        <time>2018-12-02T08:13:26.000Z</time>
      </trkpt>
      <trkpt lat="42.92547" lon="0.86701">
        <ele>1066</ele>
        <time>2018-12-02T08:13:28.000Z</time>
      </trkpt>
      <trkpt lat="42.92548" lon="0.867">
        <ele>1066</ele>
        <time>2018-12-02T08:13:30.000Z</time>
      </trkpt>
      <trkpt lat="42.92548" lon="0.867">
        <ele>1066</ele>
        <time>2018-12-02T08:13:32.000Z</time>
      </trkpt>
      <trkpt lat="42.92548" lon="0.867">
        <ele>1066</ele>
        <time>2018-12-02T08:13:34.000Z</time>
      </trkpt>
      <trkpt lat="42.92548" lon="0.86701">
        <ele>1066</ele>
        <time>2018-12-02T08:13:36.000Z</time>
      </trkpt>
      <trkpt lat="42.92548" lon="0.86701">
        <ele>1066</ele>
        <time>2018-12-02T08:13:38.000Z</time>
      </trkpt>
      <trkpt lat="42.92549" lon="0.867">
        <ele>1066</ele>
        <time>2018-12-02T08:13:41.000Z</time>
      </trkpt>
      <trkpt lat="42.92549" lon="0.86698">
        <ele>1067</ele>
        <time>2018-12-02T08:13:43.000Z</time>
      </trkpt>
      <trkpt lat="42.92549" lon="0.86699">
        <ele>1067</ele>
        <time>2018-12-02T08:13:45.000Z</time>
      </trkpt>
      <trkpt lat="42.92549" lon="0.867">
        <ele>1067</ele>
        <time>2018-12-02T08:13:47.000Z</time>
      </trkpt>
      <trkpt lat="42.92548" lon="0.86701">
        <ele>1066</ele>
        <time>2018-12-02T08:13:49.000Z</time>
      </trkpt>
      <trkpt lat="42.92547" lon="0.86701">
        <ele>1066</ele>
        <time>2018-12-02T08:13:52.000Z</time>
      </trkpt>
      <trkpt lat="42.92546" lon="0.86701">
        <ele>1066</ele>
        <time>2018-12-02T08:13:55.000Z</time>
      </trkpt>
      <trkpt lat="42.92546" lon="0.867">
        <ele>1065</ele>
        <time>2018-12-02T08:13:58.000Z</time>
      </trkpt>
      <trkpt lat="42.92546" lon="0.867">
        <ele>1065</ele>
        <time>2018-12-02T08:14:00.000Z</time>
      </trkpt>
      <trkpt lat="42.92546" lon="0.86699">
        <ele>1065</ele>
        <time>2018-12-02T08:14:03.000Z</time>
      </trkpt>
      <trkpt lat="42.92547" lon="0.86697">
        <ele>1065</ele>
        <time>2018-12-02T08:14:05.000Z</time>
      </trkpt>
      <trkpt lat="42.92548" lon="0.86696">
        <ele>1066</ele>
        <time>2018-12-02T08:14:07.000Z</time>
      </trkpt>
      <trkpt lat="42.92549" lon="0.86695">
        <ele>1066</ele>
        <time>2018-12-02T08:14:09.000Z</time>
      </trkpt>
      <trkpt lat="42.92549" lon="0.86695">
        <ele>1066</ele>
        <time>2018-12-02T08:14:12.000Z</time>
      </trkpt>
      <trkpt lat="42.9255" lon="0.86696">
        <ele>1067</ele>
        <time>2018-12-02T08:14:14.000Z</time>
      </trkpt>
      <trkpt lat="42.92551" lon="0.86696">
        <ele>1067</ele>
        <time>2018-12-02T08:14:16.000Z</time>
      </trkpt>
      <trkpt lat="42.92551" lon="0.86696">
        <ele>1067</ele>
        <time>2018-12-02T08:14:18.000Z</time>
      </trkpt>
      <trkpt lat="42.9255" lon="0.86696">
        <ele>1067</ele>
        <time>2018-12-02T08:14:20.000Z</time>
      </trkpt>
      <trkpt lat="42.9255" lon="0.86694">
        <ele>1067</ele>
        <time>2018-12-02T08:14:22.000Z</time>
      </trkpt>
      <trkpt lat="42.9255" lon="0.86694">
        <ele>1066</ele>
        <time>2018-12-02T08:14:24.000Z</time>
      </trkpt>
      <trkpt lat="42.92549" lon="0.86696">
        <ele>1066</ele>
        <time>2018-12-02T08:14:26.000Z</time>
      </trkpt>
      <trkpt lat="42.92548" lon="0.86694">
        <ele>1066</ele>
        <time>2018-12-02T08:14:29.000Z</time>
      </trkpt>
      <trkpt lat="42.92548" lon="0.86693">
        <ele>1066</ele>
        <time>2018-12-02T08:14:31.000Z</time>
      </trkpt>
      <trkpt lat="42.92547" lon="0.86694">
        <ele>1066</ele>
        <time>2018-12-02T08:14:33.000Z</time>
      </trkpt>
      <trkpt lat="42.92547" lon="0.86694">
        <ele>1065</ele>
        <time>2018-12-02T08:14:36.000Z</time>
      </trkpt>
      <trkpt lat="42.92547" lon="0.86694">
        <ele>1065</ele>
        <time>2018-12-02T08:14:38.000Z</time>
      </trkpt>
      <trkpt lat="42.92547" lon="0.86693">
        <ele>1065</ele>
        <time>2018-12-02T08:14:40.000Z</time>
      </trkpt>
      <trkpt lat="42.92546" lon="0.86693">
        <ele>1065</ele>
        <time>2018-12-02T08:14:43.000Z</time>
      </trkpt>
      <trkpt lat="42.92546" lon="0.86694">
        <ele>1065</ele>
        <time>2018-12-02T08:14:45.000Z</time>
      </trkpt>
      <trkpt lat="42.92546" lon="0.86693">
        <ele>1065</ele>
        <time>2018-12-02T08:14:48.000Z</time>
      </trkpt>
      <trkpt lat="42.92546" lon="0.86692">
        <ele>1065</ele>
        <time>2018-12-02T08:14:50.000Z</time>
      </trkpt>
      <trkpt lat="42.92546" lon="0.86693">
        <ele>1065</ele>
        <time>2018-12-02T08:14:53.000Z</time>
      </trkpt>
      <trkpt lat="42.92547" lon="0.86694">
        <ele>1065</ele>
        <time>2018-12-02T08:14:55.000Z</time>
      </trkpt>
      <trkpt lat="42.92547" lon="0.86694">
        <ele>1065</ele>
        <time>2018-12-02T08:14:57.000Z</time>
      </trkpt>
      <trkpt lat="42.92547" lon="0.86697">
        <ele>1066</ele>
        <time>2018-12-02T08:15:00.000Z</time>
      </trkpt>
      <trkpt lat="42.92546" lon="0.86699">
        <ele>1065</ele>
        <time>2018-12-02T08:15:02.000Z</time>
      </trkpt>
      <trkpt lat="42.92547" lon="0.86698">
        <ele>1066</ele>
        <time>2018-12-02T08:15:05.000Z</time>
      </trkpt>
      <trkpt lat="42.92548" lon="0.86698">
        <ele>1066</ele>
        <time>2018-12-02T08:15:08.000Z</time>
      </trkpt>
      <trkpt lat="42.92549" lon="0.86699">
        <ele>1067</ele>
        <time>2018-12-02T08:15:11.000Z</time>
      </trkpt>
      <trkpt lat="42.92551" lon="0.86697">
        <ele>1067</ele>
        <time>2018-12-02T08:15:14.000Z</time>
      </trkpt>
      <trkpt lat="42.92552" lon="0.86696">
        <ele>1068</ele>
        <time>2018-12-02T08:15:16.000Z</time>
      </trkpt>
      <trkpt lat="42.92553" lon="0.86693">
        <ele>1068</ele>
        <time>2018-12-02T08:15:19.000Z</time>
      </trkpt>
      <trkpt lat="42.92554" lon="0.86693">
        <ele>1068</ele>
        <time>2018-12-02T08:15:21.000Z</time>
      </trkpt>
      <trkpt lat="42.92554" lon="0.86693">
        <ele>1068</ele>
        <time>2018-12-02T08:15:23.000Z</time>
      </trkpt>
      <trkpt lat="42.92554" lon="0.86692">
        <ele>1068</ele>
        <time>2018-12-02T08:15:25.000Z</time>
      </trkpt>
      <trkpt lat="42.92554" lon="0.86691">
        <ele>1068</ele>
        <time>2018-12-02T08:15:27.000Z</time>
      </trkpt>
      <trkpt lat="42.92553" lon="0.86691">
        <ele>1068</ele>
        <time>2018-12-02T08:15:29.000Z</time>
      </trkpt>
      <trkpt lat="42.92554" lon="0.8669">
        <ele>1068</ele>
        <time>2018-12-02T08:15:31.000Z</time>
      </trkpt>
      <trkpt lat="42.92554" lon="0.86689">
        <ele>1068</ele>
        <time>2018-12-02T08:15:33.000Z</time>
      </trkpt>
      <trkpt lat="42.92555" lon="0.86688">
        <ele>1068</ele>
        <time>2018-12-02T08:15:35.000Z</time>
      </trkpt>
      <trkpt lat="42.92555" lon="0.86688">
        <ele>1068</ele>
        <time>2018-12-02T08:15:38.000Z</time>
      </trkpt>
      <trkpt lat="42.92556" lon="0.86687">
        <ele>1069</ele>
        <time>2018-12-02T08:15:40.000Z</time>
      </trkpt>
      <trkpt lat="42.92556" lon="0.86685">
        <ele>1068</ele>
        <time>2018-12-02T08:15:42.000Z</time>
      </trkpt>
      <trkpt lat="42.92556" lon="0.86684">
        <ele>1068</ele>
        <time>2018-12-02T08:15:44.000Z</time>
      </trkpt>
      <trkpt lat="42.92556" lon="0.86683">
        <ele>1068</ele>
        <time>2018-12-02T08:15:46.000Z</time>
      </trkpt>
      <trkpt lat="42.92556" lon="0.86682">
        <ele>1068</ele>
        <time>2018-12-02T08:15:49.000Z</time>
      </trkpt>
      <trkpt lat="42.92557" lon="0.86681">
        <ele>1069</ele>
        <time>2018-12-02T08:15:51.000Z</time>
      </trkpt>
      <trkpt lat="42.92557" lon="0.86678">
        <ele>1069</ele>
        <time>2018-12-02T08:15:53.000Z</time>
      </trkpt>
      <trkpt lat="42.92557" lon="0.86678">
        <ele>1069</ele>
        <time>2018-12-02T08:15:55.000Z</time>
      </trkpt>
      <trkpt lat="42.92557" lon="0.86677">
        <ele>1069</ele>
        <time>2018-12-02T08:15:58.000Z</time>
      </trkpt>
      <trkpt lat="42.92557" lon="0.86675">
        <ele>1069</ele>
        <time>2018-12-02T08:16:00.000Z</time>
      </trkpt>
      <trkpt lat="42.92559" lon="0.86674">
        <ele>1070</ele>
        <time>2018-12-02T08:16:03.000Z</time>
      </trkpt>
      <trkpt lat="42.9256" lon="0.86673">
        <ele>1071</ele>
        <time>2018-12-02T08:16:05.000Z</time>
      </trkpt>
      <trkpt lat="42.92561" lon="0.86671">
        <ele>1071</ele>
        <time>2018-12-02T08:16:08.000Z</time>
      </trkpt>
      <trkpt lat="42.92564" lon="0.86668">
        <ele>1072</ele>
        <time>2018-12-02T08:16:11.000Z</time>
      </trkpt>
      <trkpt lat="42.92564" lon="0.86667">
        <ele>1073</ele>
        <time>2018-12-02T08:16:14.000Z</time>
      </trkpt>
      <trkpt lat="42.92566" lon="0.86665">
        <ele>1073</ele>
        <time>2018-12-02T08:16:17.000Z</time>
      </trkpt>
      <trkpt lat="42.92566" lon="0.86664">
        <ele>1073</ele>
        <time>2018-12-02T08:16:20.000Z</time>
      </trkpt>
      <trkpt lat="42.92567" lon="0.86662">
        <ele>1074</ele>
        <time>2018-12-02T08:16:23.000Z</time>
      </trkpt>
      <trkpt lat="42.92567" lon="0.86661">
        <ele>1074</ele>
        <time>2018-12-02T08:16:26.000Z</time>
      </trkpt>
      <trkpt lat="42.92566" lon="0.86659">
        <ele>1073</ele>
        <time>2018-12-02T08:16:29.000Z</time>
      </trkpt>
      <trkpt lat="42.92568" lon="0.8666">
        <ele>1074</ele>
        <time>2018-12-02T08:16:32.000Z</time>
      </trkpt>
      <trkpt lat="42.92569" lon="0.86661">
        <ele>1075</ele>
        <time>2018-12-02T08:16:36.000Z</time>
      </trkpt>
      <trkpt lat="42.9257" lon="0.86661">
        <ele>1075</ele>
        <time>2018-12-02T08:16:39.000Z</time>
      </trkpt>
      <trkpt lat="42.92571" lon="0.86661">
        <ele>1076</ele>
        <time>2018-12-02T08:16:41.000Z</time>
      </trkpt>
      <trkpt lat="42.92572" lon="0.86661">
        <ele>1076</ele>
        <time>2018-12-02T08:16:44.000Z</time>
      </trkpt>
      <trkpt lat="42.92572" lon="0.86664">
        <ele>1076</ele>
        <time>2018-12-02T08:16:46.000Z</time>
      </trkpt>
      <trkpt lat="42.92572" lon="0.86667">
        <ele>1076</ele>
        <time>2018-12-02T08:16:50.000Z</time>
      </trkpt>
      <trkpt lat="42.92573" lon="0.86669">
        <ele>1077</ele>
        <time>2018-12-02T08:16:52.000Z</time>
      </trkpt>
      <trkpt lat="42.92574" lon="0.86671">
        <ele>1077</ele>
        <time>2018-12-02T08:16:55.000Z</time>
      </trkpt>
      <trkpt lat="42.92574" lon="0.8667">
        <ele>1077</ele>
        <time>2018-12-02T08:16:58.000Z</time>
      </trkpt>
      <trkpt lat="42.92575" lon="0.86671">
        <ele>1078</ele>
        <time>2018-12-02T08:17:00.000Z</time>
      </trkpt>
      <trkpt lat="42.92576" lon="0.86673">
        <ele>1078</ele>
        <time>2018-12-02T08:17:03.000Z</time>
      </trkpt>
      <trkpt lat="42.92577" lon="0.86675">
        <ele>1079</ele>
        <time>2018-12-02T08:17:06.000Z</time>
      </trkpt>
      <trkpt lat="42.92578" lon="0.86674">
        <ele>1079</ele>
        <time>2018-12-02T08:17:09.000Z</time>
      </trkpt>
      <trkpt lat="42.92579" lon="0.86675">
        <ele>1080</ele>
        <time>2018-12-02T08:17:11.000Z</time>
      </trkpt>
      <trkpt lat="42.92581" lon="0.86675">
        <ele>1081</ele>
        <time>2018-12-02T08:17:14.000Z</time>
      </trkpt>
      <trkpt lat="42.92582" lon="0.86675">
        <ele>1081</ele>
        <time>2018-12-02T08:17:18.000Z</time>
      </trkpt>
      <trkpt lat="42.92583" lon="0.86674">
        <ele>1082</ele>
        <time>2018-12-02T08:17:20.000Z</time>
      </trkpt>
      <trkpt lat="42.92585" lon="0.86676">
        <ele>1083</ele>
        <time>2018-12-02T08:17:22.000Z</time>
      </trkpt>
      <trkpt lat="42.92586" lon="0.86678">
        <ele>1083</ele>
        <time>2018-12-02T08:17:24.000Z</time>
      </trkpt>
      <trkpt lat="42.92587" lon="0.8668">
        <ele>1084</ele>
        <time>2018-12-02T08:17:27.000Z</time>
      </trkpt>
      <trkpt lat="42.92589" lon="0.8668">
        <ele>1085</ele>
        <time>2018-12-02T08:17:30.000Z</time>
      </trkpt>
      <trkpt lat="42.9259" lon="0.8668">
        <ele>1085</ele>
        <time>2018-12-02T08:17:32.000Z</time>
      </trkpt>
      <trkpt lat="42.92592" lon="0.86679">
        <ele>1086</ele>
        <time>2018-12-02T08:17:35.000Z</time>
      </trkpt>
      <trkpt lat="42.92594" lon="0.86678">
        <ele>1087</ele>
        <time>2018-12-02T08:17:37.000Z</time>
      </trkpt>
      <trkpt lat="42.92595" lon="0.86677">
        <ele>1087</ele>
        <time>2018-12-02T08:17:40.000Z</time>
      </trkpt>
      <trkpt lat="42.92596" lon="0.86677">
        <ele>1088</ele>
        <time>2018-12-02T08:17:43.000Z</time>
      </trkpt>
      <trkpt lat="42.92598" lon="0.86676">
        <ele>1088</ele>
        <time>2018-12-02T08:17:46.000Z</time>
      </trkpt>
      <trkpt lat="42.92599" lon="0.86676">
        <ele>1089</ele>
        <time>2018-12-02T08:17:49.000Z</time>
      </trkpt>
      <trkpt lat="42.92601" lon="0.86675">
        <ele>1089</ele>
        <time>2018-12-02T08:17:52.000Z</time>
      </trkpt>
      <trkpt lat="42.92601" lon="0.86675">
        <ele>1090</ele>
        <time>2018-12-02T08:17:54.000Z</time>
      </trkpt>
      <trkpt lat="42.92602" lon="0.86674">
        <ele>1090</ele>
        <time>2018-12-02T08:17:56.000Z</time>
      </trkpt>
      <trkpt lat="42.92601" lon="0.86672">
        <ele>1090</ele>
        <time>2018-12-02T08:17:59.000Z</time>
      </trkpt>
      <trkpt lat="42.92601" lon="0.86671">
        <ele>1089</ele>
        <time>2018-12-02T08:18:02.000Z</time>
      </trkpt>
      <trkpt lat="42.926" lon="0.86672">
        <ele>1089</ele>
        <time>2018-12-02T08:18:04.000Z</time>
      </trkpt>
      <trkpt lat="42.92599" lon="0.86671">
        <ele>1089</ele>
        <time>2018-12-02T08:18:06.000Z</time>
      </trkpt>
      <trkpt lat="42.92599" lon="0.86668">
        <ele>1089</ele>
        <time>2018-12-02T08:18:09.000Z</time>
      </trkpt>
      <trkpt lat="42.92599" lon="0.86668">
        <ele>1089</ele>
        <time>2018-12-02T08:18:12.000Z</time>
      </trkpt>
      <trkpt lat="42.92599" lon="0.86667">
        <ele>1089</ele>
        <time>2018-12-02T08:18:14.000Z</time>
      </trkpt>
      <trkpt lat="42.92599" lon="0.86668">
        <ele>1089</ele>
        <time>2018-12-02T08:18:16.000Z</time>
      </trkpt>
      <trkpt lat="42.92599" lon="0.86667">
        <ele>1089</ele>
        <time>2018-12-02T08:18:18.000Z</time>
      </trkpt>
      <trkpt lat="42.926" lon="0.86666">
        <ele>1089</ele>
        <time>2018-12-02T08:18:20.000Z</time>
      </trkpt>
      <trkpt lat="42.926" lon="0.86665">
        <ele>1089</ele>
        <time>2018-12-02T08:18:22.000Z</time>
      </trkpt>
      <trkpt lat="42.926" lon="0.86664">
        <ele>1089</ele>
        <time>2018-12-02T08:18:25.000Z</time>
      </trkpt>
      <trkpt lat="42.926" lon="0.86664">
        <ele>1089</ele>
        <time>2018-12-02T08:18:28.000Z</time>
      </trkpt>
      <trkpt lat="42.926" lon="0.86663">
        <ele>1089</ele>
        <time>2018-12-02T08:18:30.000Z</time>
      </trkpt>
      <trkpt lat="42.926" lon="0.86663">
        <ele>1089</ele>
        <time>2018-12-02T08:18:32.000Z</time>
      </trkpt>
      <trkpt lat="42.926" lon="0.86662">
        <ele>1089</ele>
        <time>2018-12-02T08:18:34.000Z</time>
      </trkpt>
      <trkpt lat="42.926" lon="0.86657">
        <ele>1089</ele>
        <time>2018-12-02T08:18:38.000Z</time>
      </trkpt>
      <trkpt lat="42.926" lon="0.86655">
        <ele>1089</ele>
        <time>2018-12-02T08:18:40.000Z</time>
      </trkpt>
      <trkpt lat="42.926" lon="0.86654">
        <ele>1089</ele>
        <time>2018-12-02T08:18:43.000Z</time>
      </trkpt>
      <trkpt lat="42.926" lon="0.86652">
        <ele>1089</ele>
        <time>2018-12-02T08:18:45.000Z</time>
      </trkpt>
      <trkpt lat="42.92601" lon="0.86651">
        <ele>1089</ele>
        <time>2018-12-02T08:18:48.000Z</time>
      </trkpt>
      <trkpt lat="42.92601" lon="0.86647">
        <ele>1089</ele>
        <time>2018-12-02T08:18:51.000Z</time>
      </trkpt>
      <trkpt lat="42.92601" lon="0.86645">
        <ele>1089</ele>
        <time>2018-12-02T08:18:54.000Z</time>
      </trkpt>
      <trkpt lat="42.92601" lon="0.8664">
        <ele>1089</ele>
        <time>2018-12-02T08:18:57.000Z</time>
      </trkpt>
      <trkpt lat="42.92601" lon="0.86639">
        <ele>1089</ele>
        <time>2018-12-02T08:19:00.000Z</time>
      </trkpt>
      <trkpt lat="42.92601" lon="0.86637">
        <ele>1090</ele>
        <time>2018-12-02T08:19:02.000Z</time>
      </trkpt>
      <trkpt lat="42.92601" lon="0.86635">
        <ele>1090</ele>
        <time>2018-12-02T08:19:06.000Z</time>
      </trkpt>
      <trkpt lat="42.92601" lon="0.86632">
        <ele>1091</ele>
        <time>2018-12-02T08:19:08.000Z</time>
      </trkpt>
      <trkpt lat="42.92601" lon="0.86631">
        <ele>1091</ele>
        <time>2018-12-02T08:19:10.000Z</time>
      </trkpt>
      <trkpt lat="42.926" lon="0.8663">
        <ele>1091</ele>
        <time>2018-12-02T08:19:13.000Z</time>
      </trkpt>
      <trkpt lat="42.926" lon="0.86629">
        <ele>1091</ele>
        <time>2018-12-02T08:19:16.000Z</time>
      </trkpt>
      <trkpt lat="42.926" lon="0.86626">
        <ele>1092</ele>
        <time>2018-12-02T08:19:19.000Z</time>
      </trkpt>
      <trkpt lat="42.92601" lon="0.86624">
        <ele>1093</ele>
        <time>2018-12-02T08:19:21.000Z</time>
      </trkpt>
      <trkpt lat="42.92601" lon="0.86622">
        <ele>1094</ele>
        <time>2018-12-02T08:19:24.000Z</time>
      </trkpt>
      <trkpt lat="42.92601" lon="0.86618">
        <ele>1095</ele>
        <time>2018-12-02T08:19:26.000Z</time>
      </trkpt>
      <trkpt lat="42.92601" lon="0.86616">
        <ele>1095</ele>
        <time>2018-12-02T08:19:28.000Z</time>
      </trkpt>
      <trkpt lat="42.92601" lon="0.86612">
        <ele>1096</ele>
        <time>2018-12-02T08:19:30.000Z</time>
      </trkpt>
      <trkpt lat="42.92601" lon="0.86609">
        <ele>1097</ele>
        <time>2018-12-02T08:19:34.000Z</time>
      </trkpt>
      <trkpt lat="42.92601" lon="0.86606">
        <ele>1098</ele>
        <time>2018-12-02T08:19:37.000Z</time>
      </trkpt>
      <trkpt lat="42.926" lon="0.86603">
        <ele>1098</ele>
        <time>2018-12-02T08:19:39.000Z</time>
      </trkpt>
      <trkpt lat="42.926" lon="0.866">
        <ele>1099</ele>
        <time>2018-12-02T08:19:42.000Z</time>
      </trkpt>
      <trkpt lat="42.92599" lon="0.86598">
        <ele>1099</ele>
        <time>2018-12-02T08:19:45.000Z</time>
      </trkpt>
      <trkpt lat="42.926" lon="0.86596">
        <ele>1100</ele>
        <time>2018-12-02T08:19:49.000Z</time>
      </trkpt>
      <trkpt lat="42.926" lon="0.86596">
        <ele>1100</ele>
        <time>2018-12-02T08:19:51.000Z</time>
      </trkpt>
      <trkpt lat="42.926" lon="0.86597">
        <ele>1100</ele>
        <time>2018-12-02T08:19:54.000Z</time>
      </trkpt>
      <trkpt lat="42.926" lon="0.86595">
        <ele>1100</ele>
        <time>2018-12-02T08:19:56.000Z</time>
      </trkpt>
      <trkpt lat="42.926" lon="0.86596">
        <ele>1100</ele>
        <time>2018-12-02T08:19:59.000Z</time>
      </trkpt>
      <trkpt lat="42.926" lon="0.86598">
        <ele>1099</ele>
        <time>2018-12-02T08:20:02.000Z</time>
      </trkpt>
      <trkpt lat="42.92599" lon="0.86597">
        <ele>1099</ele>
        <time>2018-12-02T08:20:04.000Z</time>
      </trkpt>
      <trkpt lat="42.92599" lon="0.86597">
        <ele>1099</ele>
        <time>2018-12-02T08:20:08.000Z</time>
      </trkpt>
      <trkpt lat="42.92599" lon="0.86597">
        <ele>1099</ele>
        <time>2018-12-02T08:20:10.000Z</time>
      </trkpt>
      <trkpt lat="42.92599" lon="0.86597">
        <ele>1099</ele>
        <time>2018-12-02T08:20:12.000Z</time>
      </trkpt>
      <trkpt lat="42.92599" lon="0.86596">
        <ele>1099</ele>
        <time>2018-12-02T08:20:14.000Z</time>
      </trkpt>
      <trkpt lat="42.92598" lon="0.86594">
        <ele>1100</ele>
        <time>2018-12-02T08:20:16.000Z</time>
      </trkpt>
      <trkpt lat="42.92598" lon="0.86593">
        <ele>1100</ele>
        <time>2018-12-02T08:20:19.000Z</time>
      </trkpt>
      <trkpt lat="42.92597" lon="0.8659">
        <ele>1101</ele>
        <time>2018-12-02T08:20:21.000Z</time>
      </trkpt>
      <trkpt lat="42.92597" lon="0.86587">
        <ele>1101</ele>
        <time>2018-12-02T08:20:24.000Z</time>
      </trkpt>
      <trkpt lat="42.92596" lon="0.86583">
        <ele>1102</ele>
        <time>2018-12-02T08:20:27.000Z</time>
      </trkpt>
      <trkpt lat="42.92595" lon="0.86578">
        <ele>1103</ele>
        <time>2018-12-02T08:20:30.000Z</time>
      </trkpt>
      <trkpt lat="42.92595" lon="0.86574">
        <ele>1104</ele>
        <time>2018-12-02T08:20:33.000Z</time>
      </trkpt>
      <trkpt lat="42.92594" lon="0.86571">
        <ele>1104</ele>
        <time>2018-12-02T08:20:35.000Z</time>
      </trkpt>
      <trkpt lat="42.92592" lon="0.86564">
        <ele>1106</ele>
        <time>2018-12-02T08:20:39.000Z</time>
      </trkpt>
      <trkpt lat="42.92592" lon="0.8656">
        <ele>1106</ele>
        <time>2018-12-02T08:20:42.000Z</time>
      </trkpt>
      <trkpt lat="42.92591" lon="0.86557">
        <ele>1107</ele>
        <time>2018-12-02T08:20:44.000Z</time>
      </trkpt>
      <trkpt lat="42.92592" lon="0.86556">
        <ele>1108</ele>
        <time>2018-12-02T08:20:46.000Z</time>
      </trkpt>
      <trkpt lat="42.92592" lon="0.86552">
        <ele>1109</ele>
        <time>2018-12-02T08:20:48.000Z</time>
      </trkpt>
      <trkpt lat="42.92591" lon="0.8655">
        <ele>1110</ele>
        <time>2018-12-02T08:20:51.000Z</time>
      </trkpt>
      <trkpt lat="42.92591" lon="0.86546">
        <ele>1111</ele>
        <time>2018-12-02T08:20:53.000Z</time>
      </trkpt>
      <trkpt lat="42.9259" lon="0.86544">
        <ele>1111</ele>
        <time>2018-12-02T08:20:55.000Z</time>
      </trkpt>
      <trkpt lat="42.9259" lon="0.86542">
        <ele>1112</ele>
        <time>2018-12-02T08:20:58.000Z</time>
      </trkpt>
      <trkpt lat="42.92589" lon="0.86541">
        <ele>1112</ele>
        <time>2018-12-02T08:21:01.000Z</time>
      </trkpt>
      <trkpt lat="42.92589" lon="0.86539">
        <ele>1113</ele>
        <time>2018-12-02T08:21:03.000Z</time>
      </trkpt>
      <trkpt lat="42.92587" lon="0.86536">
        <ele>1113</ele>
        <time>2018-12-02T08:21:05.000Z</time>
      </trkpt>
      <trkpt lat="42.92586" lon="0.86535">
        <ele>1113</ele>
        <time>2018-12-02T08:21:07.000Z</time>
      </trkpt>
      <trkpt lat="42.92585" lon="0.86534">
        <ele>1113</ele>
        <time>2018-12-02T08:21:10.000Z</time>
      </trkpt>
      <trkpt lat="42.92584" lon="0.86533">
        <ele>1113</ele>
        <time>2018-12-02T08:21:12.000Z</time>
      </trkpt>
      <trkpt lat="42.92584" lon="0.86531">
        <ele>1114</ele>
        <time>2018-12-02T08:21:14.000Z</time>
      </trkpt>
      <trkpt lat="42.92583" lon="0.86528">
        <ele>1114</ele>
        <time>2018-12-02T08:21:16.000Z</time>
      </trkpt>
      <trkpt lat="42.92582" lon="0.86526">
        <ele>1115</ele>
        <time>2018-12-02T08:21:18.000Z</time>
      </trkpt>
      <trkpt lat="42.92582" lon="0.86525">
        <ele>1115</ele>
        <time>2018-12-02T08:21:21.000Z</time>
      </trkpt>
      <trkpt lat="42.92581" lon="0.86523">
        <ele>1116</ele>
        <time>2018-12-02T08:21:23.000Z</time>
      </trkpt>
      <trkpt lat="42.92581" lon="0.86522">
        <ele>1116</ele>
        <time>2018-12-02T08:21:26.000Z</time>
      </trkpt>
      <trkpt lat="42.92579" lon="0.8652">
        <ele>1116</ele>
        <time>2018-12-02T08:21:29.000Z</time>
      </trkpt>
      <trkpt lat="42.92578" lon="0.8652">
        <ele>1116</ele>
        <time>2018-12-02T08:21:32.000Z</time>
      </trkpt>
      <trkpt lat="42.92578" lon="0.86519">
        <ele>1116</ele>
        <time>2018-12-02T08:21:34.000Z</time>
      </trkpt>
      <trkpt lat="42.92576" lon="0.86517">
        <ele>1116</ele>
        <time>2018-12-02T08:21:37.000Z</time>
      </trkpt>
      <trkpt lat="42.92575" lon="0.86517">
        <ele>1115</ele>
        <time>2018-12-02T08:21:40.000Z</time>
      </trkpt>
      <trkpt lat="42.92574" lon="0.86517">
        <ele>1115</ele>
        <time>2018-12-02T08:21:43.000Z</time>
      </trkpt>
      <trkpt lat="42.92573" lon="0.86517">
        <ele>1115</ele>
        <time>2018-12-02T08:21:45.000Z</time>
      </trkpt>
      <trkpt lat="42.92572" lon="0.86516">
        <ele>1114</ele>
        <time>2018-12-02T08:21:48.000Z</time>
      </trkpt>
      <trkpt lat="42.92572" lon="0.86515">
        <ele>1114</ele>
        <time>2018-12-02T08:21:50.000Z</time>
      </trkpt>
      <trkpt lat="42.92572" lon="0.86514">
        <ele>1115</ele>
        <time>2018-12-02T08:21:52.000Z</time>
      </trkpt>
      <trkpt lat="42.9257" lon="0.86513">
        <ele>1115</ele>
        <time>2018-12-02T08:21:55.000Z</time>
      </trkpt>
      <trkpt lat="42.9257" lon="0.86513">
        <ele>1114</ele>
        <time>2018-12-02T08:21:58.000Z</time>
      </trkpt>
      <trkpt lat="42.92568" lon="0.86513">
        <ele>1114</ele>
        <time>2018-12-02T08:22:00.000Z</time>
      </trkpt>
      <trkpt lat="42.92567" lon="0.86513">
        <ele>1113</ele>
        <time>2018-12-02T08:22:02.000Z</time>
      </trkpt>
      <trkpt lat="42.92565" lon="0.86512">
        <ele>1113</ele>
        <time>2018-12-02T08:22:04.000Z</time>
      </trkpt>
      <trkpt lat="42.92563" lon="0.86512">
        <ele>1112</ele>
        <time>2018-12-02T08:22:06.000Z</time>
      </trkpt>
      <trkpt lat="42.92561" lon="0.8651">
        <ele>1112</ele>
        <time>2018-12-02T08:22:08.000Z</time>
      </trkpt>
      <trkpt lat="42.92559" lon="0.86508">
        <ele>1111</ele>
        <time>2018-12-02T08:22:10.000Z</time>
      </trkpt>
      <trkpt lat="42.92557" lon="0.86507">
        <ele>1111</ele>
        <time>2018-12-02T08:22:12.000Z</time>
      </trkpt>
      <trkpt lat="42.92555" lon="0.86504">
        <ele>1111</ele>
        <time>2018-12-02T08:22:14.000Z</time>
      </trkpt>
      <trkpt lat="42.92553" lon="0.86503">
        <ele>1111</ele>
        <time>2018-12-02T08:22:16.000Z</time>
      </trkpt>
      <trkpt lat="42.92552" lon="0.86501">
        <ele>1111</ele>
        <time>2018-12-02T08:22:18.000Z</time>
      </trkpt>
      <trkpt lat="42.9255" lon="0.865">
        <ele>1111</ele>
        <time>2018-12-02T08:22:20.000Z</time>
      </trkpt>
      <trkpt lat="42.92549" lon="0.86498">
        <ele>1111</ele>
        <time>2018-12-02T08:22:22.000Z</time>
      </trkpt>
      <trkpt lat="42.92547" lon="0.86496">
        <ele>1111</ele>
        <time>2018-12-02T08:22:24.000Z</time>
      </trkpt>
      <trkpt lat="42.92545" lon="0.86495">
        <ele>1111</ele>
        <time>2018-12-02T08:22:26.000Z</time>
      </trkpt>
      <trkpt lat="42.92544" lon="0.86493">
        <ele>1111</ele>
        <time>2018-12-02T08:22:28.000Z</time>
      </trkpt>
      <trkpt lat="42.92542" lon="0.86492">
        <ele>1110</ele>
        <time>2018-12-02T08:22:30.000Z</time>
      </trkpt>
      <trkpt lat="42.92541" lon="0.8649">
        <ele>1110</ele>
        <time>2018-12-02T08:22:32.000Z</time>
      </trkpt>
      <trkpt lat="42.9254" lon="0.86488">
        <ele>1111</ele>
        <time>2018-12-02T08:22:34.000Z</time>
      </trkpt>
      <trkpt lat="42.92539" lon="0.86486">
        <ele>1111</ele>
        <time>2018-12-02T08:22:36.000Z</time>
      </trkpt>
      <trkpt lat="42.92538" lon="0.86485">
        <ele>1111</ele>
        <time>2018-12-02T08:22:38.000Z</time>
      </trkpt>
      <trkpt lat="42.92537" lon="0.86483">
        <ele>1112</ele>
        <time>2018-12-02T08:22:40.000Z</time>
      </trkpt>
      <trkpt lat="42.92537" lon="0.86482">
        <ele>1112</ele>
        <time>2018-12-02T08:22:42.000Z</time>
      </trkpt>
      <trkpt lat="42.92536" lon="0.86481">
        <ele>1112</ele>
        <time>2018-12-02T08:22:44.000Z</time>
      </trkpt>
      <trkpt lat="42.92536" lon="0.86481">
        <ele>1112</ele>
        <time>2018-12-02T08:22:46.000Z</time>
      </trkpt>
      <trkpt lat="42.92535" lon="0.86481">
        <ele>1111</ele>
        <time>2018-12-02T08:22:48.000Z</time>
      </trkpt>
      <trkpt lat="42.92536" lon="0.86481">
        <ele>1112</ele>
        <time>2018-12-02T08:22:50.000Z</time>
      </trkpt>
      <trkpt lat="42.92536" lon="0.86481">
        <ele>1111</ele>
        <time>2018-12-02T08:22:52.000Z</time>
      </trkpt>
      <trkpt lat="42.92536" lon="0.86482">
        <ele>1111</ele>
        <time>2018-12-02T08:22:54.000Z</time>
      </trkpt>
      <trkpt lat="42.92535" lon="0.86482">
        <ele>1111</ele>
        <time>2018-12-02T08:22:56.000Z</time>
      </trkpt>
      <trkpt lat="42.92535" lon="0.86482">
        <ele>1111</ele>
        <time>2018-12-02T08:22:58.000Z</time>
      </trkpt>
      <trkpt lat="42.92535" lon="0.86482">
        <ele>1111</ele>
        <time>2018-12-02T08:23:00.000Z</time>
      </trkpt>
      <trkpt lat="42.92535" lon="0.86483">
        <ele>1111</ele>
        <time>2018-12-02T08:23:02.000Z</time>
      </trkpt>
      <trkpt lat="42.92535" lon="0.86483">
        <ele>1110</ele>
        <time>2018-12-02T08:23:04.000Z</time>
      </trkpt>
      <trkpt lat="42.92535" lon="0.86484">
        <ele>1110</ele>
        <time>2018-12-02T08:23:06.000Z</time>
      </trkpt>
      <trkpt lat="42.92534" lon="0.86484">
        <ele>1110</ele>
        <time>2018-12-02T08:23:08.000Z</time>
      </trkpt>
      <trkpt lat="42.92534" lon="0.86484">
        <ele>1110</ele>
        <time>2018-12-02T08:23:10.000Z</time>
      </trkpt>
      <trkpt lat="42.92534" lon="0.86484">
        <ele>1110</ele>
        <time>2018-12-02T08:23:12.000Z</time>
      </trkpt>
      <trkpt lat="42.92533" lon="0.86483">
        <ele>1110</ele>
        <time>2018-12-02T08:23:14.000Z</time>
      </trkpt>
      <trkpt lat="42.92533" lon="0.86481">
        <ele>1110</ele>
        <time>2018-12-02T08:23:16.000Z</time>
      </trkpt>
      <trkpt lat="42.92533" lon="0.86479">
        <ele>1111</ele>
        <time>2018-12-02T08:23:18.000Z</time>
      </trkpt>
      <trkpt lat="42.92532" lon="0.86477">
        <ele>1111</ele>
        <time>2018-12-02T08:23:20.000Z</time>
      </trkpt>
      <trkpt lat="42.92531" lon="0.86473">
        <ele>1113</ele>
        <time>2018-12-02T08:23:22.000Z</time>
      </trkpt>
      <trkpt lat="42.9253" lon="0.86472">
        <ele>1113</ele>
        <time>2018-12-02T08:23:24.000Z</time>
      </trkpt>
      <trkpt lat="42.92529" lon="0.8647">
        <ele>1113</ele>
        <time>2018-12-02T08:23:26.000Z</time>
      </trkpt>
      <trkpt lat="42.92529" lon="0.86467">
        <ele>1114</ele>
        <time>2018-12-02T08:23:28.000Z</time>
      </trkpt>
      <trkpt lat="42.92529" lon="0.86465">
        <ele>1115</ele>
        <time>2018-12-02T08:23:30.000Z</time>
      </trkpt>
      <trkpt lat="42.92529" lon="0.86463">
        <ele>1116</ele>
        <time>2018-12-02T08:23:32.000Z</time>
      </trkpt>
      <trkpt lat="42.92528" lon="0.86461">
        <ele>1116</ele>
        <time>2018-12-02T08:23:34.000Z</time>
      </trkpt>
      <trkpt lat="42.92527" lon="0.86459">
        <ele>1116</ele>
        <time>2018-12-02T08:23:36.000Z</time>
      </trkpt>
      <trkpt lat="42.92526" lon="0.86458">
        <ele>1117</ele>
        <time>2018-12-02T08:23:38.000Z</time>
      </trkpt>
      <trkpt lat="42.92526" lon="0.86456">
        <ele>1117</ele>
        <time>2018-12-02T08:23:40.000Z</time>
      </trkpt>
      <trkpt lat="42.92524" lon="0.86456">
        <ele>1116</ele>
        <time>2018-12-02T08:23:42.000Z</time>
      </trkpt>
      <trkpt lat="42.92523" lon="0.86454">
        <ele>1117</ele>
        <time>2018-12-02T08:23:44.000Z</time>
      </trkpt>
      <trkpt lat="42.92522" lon="0.86452">
        <ele>1117</ele>
        <time>2018-12-02T08:23:46.000Z</time>
      </trkpt>
      <trkpt lat="42.9252" lon="0.86451">
        <ele>1116</ele>
        <time>2018-12-02T08:23:48.000Z</time>
      </trkpt>
      <trkpt lat="42.92519" lon="0.86449">
        <ele>1117</ele>
        <time>2018-12-02T08:23:50.000Z</time>
      </trkpt>
      <trkpt lat="42.92518" lon="0.86447">
        <ele>1117</ele>
        <time>2018-12-02T08:23:52.000Z</time>
      </trkpt>
      <trkpt lat="42.92517" lon="0.86445">
        <ele>1117</ele>
        <time>2018-12-02T08:23:54.000Z</time>
      </trkpt>
      <trkpt lat="42.92515" lon="0.86444">
        <ele>1117</ele>
        <time>2018-12-02T08:23:56.000Z</time>
      </trkpt>
      <trkpt lat="42.92514" lon="0.86443">
        <ele>1117</ele>
        <time>2018-12-02T08:23:58.000Z</time>
      </trkpt>
      <trkpt lat="42.92513" lon="0.86442">
        <ele>1117</ele>
        <time>2018-12-02T08:24:00.000Z</time>
      </trkpt>
      <trkpt lat="42.92512" lon="0.86441">
        <ele>1117</ele>
        <time>2018-12-02T08:24:02.000Z</time>
      </trkpt>
      <trkpt lat="42.9251" lon="0.86439">
        <ele>1117</ele>
        <time>2018-12-02T08:24:04.000Z</time>
      </trkpt>
      <trkpt lat="42.92509" lon="0.86437">
        <ele>1117</ele>
        <time>2018-12-02T08:24:06.000Z</time>
      </trkpt>
      <trkpt lat="42.92507" lon="0.86437">
        <ele>1116</ele>
        <time>2018-12-02T08:24:08.000Z</time>
      </trkpt>
      <trkpt lat="42.92505" lon="0.86436">
        <ele>1116</ele>
        <time>2018-12-02T08:24:10.000Z</time>
      </trkpt>
      <trkpt lat="42.92503" lon="0.86436">
        <ele>1115</ele>
        <time>2018-12-02T08:24:12.000Z</time>
      </trkpt>
      <trkpt lat="42.925" lon="0.86435">
        <ele>1114</ele>
        <time>2018-12-02T08:24:14.000Z</time>
      </trkpt>
      <trkpt lat="42.92499" lon="0.86434">
        <ele>1114</ele>
        <time>2018-12-02T08:24:16.000Z</time>
      </trkpt>
      <trkpt lat="42.92497" lon="0.86434">
        <ele>1114</ele>
        <time>2018-12-02T08:24:18.000Z</time>
      </trkpt>
      <trkpt lat="42.92495" lon="0.86433">
        <ele>1113</ele>
        <time>2018-12-02T08:24:20.000Z</time>
      </trkpt>
      <trkpt lat="42.92494" lon="0.86432">
        <ele>1113</ele>
        <time>2018-12-02T08:24:22.000Z</time>
      </trkpt>
      <trkpt lat="42.92493" lon="0.86431">
        <ele>1113</ele>
        <time>2018-12-02T08:24:24.000Z</time>
      </trkpt>
      <trkpt lat="42.92492" lon="0.86431">
        <ele>1113</ele>
        <time>2018-12-02T08:24:26.000Z</time>
      </trkpt>
      <trkpt lat="42.92491" lon="0.8643">
        <ele>1113</ele>
        <time>2018-12-02T08:24:28.000Z</time>
      </trkpt>
      <trkpt lat="42.92489" lon="0.8643">
        <ele>1113</ele>
        <time>2018-12-02T08:24:30.000Z</time>
      </trkpt>
      <trkpt lat="42.92488" lon="0.86429">
        <ele>1113</ele>
        <time>2018-12-02T08:24:32.000Z</time>
      </trkpt>
      <trkpt lat="42.92487" lon="0.86429">
        <ele>1112</ele>
        <time>2018-12-02T08:24:34.000Z</time>
      </trkpt>
      <trkpt lat="42.92485" lon="0.86429">
        <ele>1111</ele>
        <time>2018-12-02T08:24:36.000Z</time>
      </trkpt>
      <trkpt lat="42.92483" lon="0.86429">
        <ele>1111</ele>
        <time>2018-12-02T08:24:38.000Z</time>
      </trkpt>
      <trkpt lat="42.92481" lon="0.86429">
        <ele>1110</ele>
        <time>2018-12-02T08:24:40.000Z</time>
      </trkpt>
      <trkpt lat="42.92479" lon="0.86429">
        <ele>1109</ele>
        <time>2018-12-02T08:24:42.000Z</time>
      </trkpt>
      <trkpt lat="42.92477" lon="0.86428">
        <ele>1109</ele>
        <time>2018-12-02T08:24:44.000Z</time>
      </trkpt>
      <trkpt lat="42.92475" lon="0.86426">
        <ele>1109</ele>
        <time>2018-12-02T08:24:46.000Z</time>
      </trkpt>
      <trkpt lat="42.92473" lon="0.86425">
        <ele>1109</ele>
        <time>2018-12-02T08:24:48.000Z</time>
      </trkpt>
      <trkpt lat="42.92471" lon="0.86424">
        <ele>1108</ele>
        <time>2018-12-02T08:24:50.000Z</time>
      </trkpt>
      <trkpt lat="42.9247" lon="0.86423">
        <ele>1108</ele>
        <time>2018-12-02T08:24:52.000Z</time>
      </trkpt>
      <trkpt lat="42.92468" lon="0.86422">
        <ele>1108</ele>
        <time>2018-12-02T08:24:54.000Z</time>
      </trkpt>
      <trkpt lat="42.92467" lon="0.86421">
        <ele>1108</ele>
        <time>2018-12-02T08:24:56.000Z</time>
      </trkpt>
      <trkpt lat="42.92466" lon="0.86419">
        <ele>1108</ele>
        <time>2018-12-02T08:24:58.000Z</time>
      </trkpt>
      <trkpt lat="42.92465" lon="0.86417">
        <ele>1109</ele>
        <time>2018-12-02T08:25:00.000Z</time>
      </trkpt>
      <trkpt lat="42.92463" lon="0.86416">
        <ele>1109</ele>
        <time>2018-12-02T08:25:02.000Z</time>
      </trkpt>
      <trkpt lat="42.92462" lon="0.86414">
        <ele>1109</ele>
        <time>2018-12-02T08:25:04.000Z</time>
      </trkpt>
      <trkpt lat="42.92461" lon="0.86413">
        <ele>1109</ele>
        <time>2018-12-02T08:25:06.000Z</time>
      </trkpt>
      <trkpt lat="42.9246" lon="0.86413">
        <ele>1109</ele>
        <time>2018-12-02T08:25:08.000Z</time>
      </trkpt>
      <trkpt lat="42.92459" lon="0.86411">
        <ele>1109</ele>
        <time>2018-12-02T08:25:10.000Z</time>
      </trkpt>
      <trkpt lat="42.92458" lon="0.86409">
        <ele>1109</ele>
        <time>2018-12-02T08:25:12.000Z</time>
      </trkpt>
      <trkpt lat="42.92457" lon="0.86407">
        <ele>1110</ele>
        <time>2018-12-02T08:25:14.000Z</time>
      </trkpt>
      <trkpt lat="42.92456" lon="0.86405">
        <ele>1110</ele>
        <time>2018-12-02T08:25:16.000Z</time>
      </trkpt>
      <trkpt lat="42.92455" lon="0.86403">
        <ele>1111</ele>
        <time>2018-12-02T08:25:18.000Z</time>
      </trkpt>
      <trkpt lat="42.92454" lon="0.86402">
        <ele>1111</ele>
        <time>2018-12-02T08:25:20.000Z</time>
      </trkpt>
      <trkpt lat="42.92453" lon="0.86401">
        <ele>1111</ele>
        <time>2018-12-02T08:25:22.000Z</time>
      </trkpt>
      <trkpt lat="42.92453" lon="0.864">
        <ele>1111</ele>
        <time>2018-12-02T08:25:24.000Z</time>
      </trkpt>
      <trkpt lat="42.92452" lon="0.86399">
        <ele>1111</ele>
        <time>2018-12-02T08:25:26.000Z</time>
      </trkpt>
      <trkpt lat="42.92451" lon="0.86398">
        <ele>1112</ele>
        <time>2018-12-02T08:25:28.000Z</time>
      </trkpt>
      <trkpt lat="42.92451" lon="0.86396">
        <ele>1112</ele>
        <time>2018-12-02T08:25:30.000Z</time>
      </trkpt>
      <trkpt lat="42.92451" lon="0.86394">
        <ele>1113</ele>
        <time>2018-12-02T08:25:32.000Z</time>
      </trkpt>
      <trkpt lat="42.9245" lon="0.86392">
        <ele>1113</ele>
        <time>2018-12-02T08:25:34.000Z</time>
      </trkpt>
      <trkpt lat="42.9245" lon="0.86391">
        <ele>1114</ele>
        <time>2018-12-02T08:25:36.000Z</time>
      </trkpt>
      <trkpt lat="42.9245" lon="0.86389">
        <ele>1115</ele>
        <time>2018-12-02T08:25:38.000Z</time>
      </trkpt>
      <trkpt lat="42.92449" lon="0.86386">
        <ele>1115</ele>
        <time>2018-12-02T08:25:40.000Z</time>
      </trkpt>
      <trkpt lat="42.92449" lon="0.86384">
        <ele>1116</ele>
        <time>2018-12-02T08:25:42.000Z</time>
      </trkpt>
      <trkpt lat="42.92448" lon="0.86383">
        <ele>1116</ele>
        <time>2018-12-02T08:25:44.000Z</time>
      </trkpt>
      <trkpt lat="42.92448" lon="0.86381">
        <ele>1117</ele>
        <time>2018-12-02T08:25:46.000Z</time>
      </trkpt>
      <trkpt lat="42.92447" lon="0.8638">
        <ele>1117</ele>
        <time>2018-12-02T08:25:48.000Z</time>
      </trkpt>
      <trkpt lat="42.92446" lon="0.86379">
        <ele>1117</ele>
        <time>2018-12-02T08:25:50.000Z</time>
      </trkpt>
      <trkpt lat="42.92446" lon="0.86377">
        <ele>1118</ele>
        <time>2018-12-02T08:25:52.000Z</time>
      </trkpt>
      <trkpt lat="42.92445" lon="0.86376">
        <ele>1118</ele>
        <time>2018-12-02T08:25:54.000Z</time>
      </trkpt>
      <trkpt lat="42.92445" lon="0.86374">
        <ele>1119</ele>
        <time>2018-12-02T08:25:56.000Z</time>
      </trkpt>
      <trkpt lat="42.92444" lon="0.86372">
        <ele>1119</ele>
        <time>2018-12-02T08:25:58.000Z</time>
      </trkpt>
      <trkpt lat="42.92444" lon="0.8637">
        <ele>1120</ele>
        <time>2018-12-02T08:26:00.000Z</time>
      </trkpt>
      <trkpt lat="42.92443" lon="0.86368">
        <ele>1120</ele>
        <time>2018-12-02T08:26:02.000Z</time>
      </trkpt>
      <trkpt lat="42.92443" lon="0.86367">
        <ele>1121</ele>
        <time>2018-12-02T08:26:04.000Z</time>
      </trkpt>
      <trkpt lat="42.92443" lon="0.86365">
        <ele>1121</ele>
        <time>2018-12-02T08:26:06.000Z</time>
      </trkpt>
      <trkpt lat="42.92442" lon="0.86363">
        <ele>1122</ele>
        <time>2018-12-02T08:26:08.000Z</time>
      </trkpt>
      <trkpt lat="42.92442" lon="0.86361">
        <ele>1123</ele>
        <time>2018-12-02T08:26:10.000Z</time>
      </trkpt>
      <trkpt lat="42.92441" lon="0.86358">
        <ele>1123</ele>
        <time>2018-12-02T08:26:12.000Z</time>
      </trkpt>
      <trkpt lat="42.92441" lon="0.86357">
        <ele>1124</ele>
        <time>2018-12-02T08:26:14.000Z</time>
      </trkpt>
      <trkpt lat="42.9244" lon="0.86355">
        <ele>1124</ele>
        <time>2018-12-02T08:26:16.000Z</time>
      </trkpt>
      <trkpt lat="42.9244" lon="0.86353">
        <ele>1125</ele>
        <time>2018-12-02T08:26:18.000Z</time>
      </trkpt>
      <trkpt lat="42.92439" lon="0.86351">
        <ele>1125</ele>
        <time>2018-12-02T08:26:20.000Z</time>
      </trkpt>
      <trkpt lat="42.92439" lon="0.8635">
        <ele>1126</ele>
        <time>2018-12-02T08:26:22.000Z</time>
      </trkpt>
      <trkpt lat="42.92438" lon="0.86348">
        <ele>1126</ele>
        <time>2018-12-02T08:26:24.000Z</time>
      </trkpt>
      <trkpt lat="42.92437" lon="0.86346">
        <ele>1126</ele>
        <time>2018-12-02T08:26:26.000Z</time>
      </trkpt>
      <trkpt lat="42.92436" lon="0.86343">
        <ele>1127</ele>
        <time>2018-12-02T08:26:28.000Z</time>
      </trkpt>
      <trkpt lat="42.92435" lon="0.8634">
        <ele>1128</ele>
        <time>2018-12-02T08:26:30.000Z</time>
      </trkpt>
      <trkpt lat="42.92434" lon="0.86337">
        <ele>1129</ele>
        <time>2018-12-02T08:26:32.000Z</time>
      </trkpt>
      <trkpt lat="42.92434" lon="0.86334">
        <ele>1130</ele>
        <time>2018-12-02T08:26:34.000Z</time>
      </trkpt>
      <trkpt lat="42.92433" lon="0.86331">
        <ele>1131</ele>
        <time>2018-12-02T08:26:36.000Z</time>
      </trkpt>
      <trkpt lat="42.92432" lon="0.86328">
        <ele>1132</ele>
        <time>2018-12-02T08:26:38.000Z</time>
      </trkpt>
      <trkpt lat="42.92431" lon="0.86326">
        <ele>1132</ele>
        <time>2018-12-02T08:26:40.000Z</time>
      </trkpt>
      <trkpt lat="42.92429" lon="0.86324">
        <ele>1132</ele>
        <time>2018-12-02T08:26:42.000Z</time>
      </trkpt>
      <trkpt lat="42.92428" lon="0.86321">
        <ele>1133</ele>
        <time>2018-12-02T08:26:44.000Z</time>
      </trkpt>
      <trkpt lat="42.92427" lon="0.8632">
        <ele>1133</ele>
        <time>2018-12-02T08:26:46.000Z</time>
      </trkpt>
      <trkpt lat="42.92426" lon="0.86318">
        <ele>1133</ele>
        <time>2018-12-02T08:26:48.000Z</time>
      </trkpt>
      <trkpt lat="42.92425" lon="0.86315">
        <ele>1134</ele>
        <time>2018-12-02T08:26:50.000Z</time>
      </trkpt>
      <trkpt lat="42.92424" lon="0.86313">
        <ele>1134</ele>
        <time>2018-12-02T08:26:52.000Z</time>
      </trkpt>
      <trkpt lat="42.92423" lon="0.86311">
        <ele>1135</ele>
        <time>2018-12-02T08:26:54.000Z</time>
      </trkpt>
      <trkpt lat="42.92422" lon="0.86309">
        <ele>1136</ele>
        <time>2018-12-02T08:26:57.000Z</time>
      </trkpt>
      <trkpt lat="42.9242" lon="0.86307">
        <ele>1137</ele>
        <time>2018-12-02T08:26:59.000Z</time>
      </trkpt>
      <trkpt lat="42.92419" lon="0.86306">
        <ele>1137</ele>
        <time>2018-12-02T08:27:01.000Z</time>
      </trkpt>
      <trkpt lat="42.92417" lon="0.86305">
        <ele>1137</ele>
        <time>2018-12-02T08:27:03.000Z</time>
      </trkpt>
      <trkpt lat="42.92415" lon="0.86306">
        <ele>1137</ele>
        <time>2018-12-02T08:27:05.000Z</time>
      </trkpt>
      <trkpt lat="42.92413" lon="0.86306">
        <ele>1137</ele>
        <time>2018-12-02T08:27:07.000Z</time>
      </trkpt>
      <trkpt lat="42.9241" lon="0.86307">
        <ele>1137</ele>
        <time>2018-12-02T08:27:09.000Z</time>
      </trkpt>
      <trkpt lat="42.92408" lon="0.86308">
        <ele>1137</ele>
        <time>2018-12-02T08:27:11.000Z</time>
      </trkpt>
      <trkpt lat="42.92407" lon="0.86308">
        <ele>1137</ele>
        <time>2018-12-02T08:27:13.000Z</time>
      </trkpt>
      <trkpt lat="42.92405" lon="0.86308">
        <ele>1137</ele>
        <time>2018-12-02T08:27:15.000Z</time>
      </trkpt>
      <trkpt lat="42.92403" lon="0.86308">
        <ele>1136</ele>
        <time>2018-12-02T08:27:17.000Z</time>
      </trkpt>
      <trkpt lat="42.92402" lon="0.86308">
        <ele>1137</ele>
        <time>2018-12-02T08:27:19.000Z</time>
      </trkpt>
      <trkpt lat="42.92402" lon="0.86307">
        <ele>1137</ele>
        <time>2018-12-02T08:27:21.000Z</time>
      </trkpt>
      <trkpt lat="42.92402" lon="0.86307">
        <ele>1137</ele>
        <time>2018-12-02T08:27:23.000Z</time>
      </trkpt>
      <trkpt lat="42.92401" lon="0.86306">
        <ele>1137</ele>
        <time>2018-12-02T08:27:25.000Z</time>
      </trkpt>
      <trkpt lat="42.92401" lon="0.86307">
        <ele>1137</ele>
        <time>2018-12-02T08:27:27.000Z</time>
      </trkpt>
      <trkpt lat="42.924" lon="0.86307">
        <ele>1137</ele>
        <time>2018-12-02T08:27:29.000Z</time>
      </trkpt>
      <trkpt lat="42.92398" lon="0.86308">
        <ele>1137</ele>
        <time>2018-12-02T08:27:31.000Z</time>
      </trkpt>
      <trkpt lat="42.92396" lon="0.86308">
        <ele>1136</ele>
        <time>2018-12-02T08:27:33.000Z</time>
      </trkpt>
      <trkpt lat="42.92393" lon="0.86309">
        <ele>1136</ele>
        <time>2018-12-02T08:27:35.000Z</time>
      </trkpt>
      <trkpt lat="42.9239" lon="0.8631">
        <ele>1136</ele>
        <time>2018-12-02T08:27:37.000Z</time>
      </trkpt>
      <trkpt lat="42.92388" lon="0.86311">
        <ele>1135</ele>
        <time>2018-12-02T08:27:39.000Z</time>
      </trkpt>
      <trkpt lat="42.92387" lon="0.86312">
        <ele>1135</ele>
        <time>2018-12-02T08:27:41.000Z</time>
      </trkpt>
      <trkpt lat="42.92385" lon="0.86312">
        <ele>1135</ele>
        <time>2018-12-02T08:27:43.000Z</time>
      </trkpt>
      <trkpt lat="42.92383" lon="0.86313">
        <ele>1135</ele>
        <time>2018-12-02T08:27:45.000Z</time>
      </trkpt>
      <trkpt lat="42.92382" lon="0.86313">
        <ele>1135</ele>
        <time>2018-12-02T08:27:47.000Z</time>
      </trkpt>
      <trkpt lat="42.9238" lon="0.86313">
        <ele>1135</ele>
        <time>2018-12-02T08:27:49.000Z</time>
      </trkpt>
      <trkpt lat="42.92379" lon="0.86313">
        <ele>1135</ele>
        <time>2018-12-02T08:27:51.000Z</time>
      </trkpt>
      <trkpt lat="42.92378" lon="0.86313">
        <ele>1135</ele>
        <time>2018-12-02T08:27:53.000Z</time>
      </trkpt>
      <trkpt lat="42.92376" lon="0.86312">
        <ele>1135</ele>
        <time>2018-12-02T08:27:55.000Z</time>
      </trkpt>
      <trkpt lat="42.92375" lon="0.86311">
        <ele>1136</ele>
        <time>2018-12-02T08:27:57.000Z</time>
      </trkpt>
      <trkpt lat="42.92374" lon="0.86311">
        <ele>1136</ele>
        <time>2018-12-02T08:27:59.000Z</time>
      </trkpt>
      <trkpt lat="42.92374" lon="0.86311">
        <ele>1136</ele>
        <time>2018-12-02T08:28:01.000Z</time>
      </trkpt>
      <trkpt lat="42.92372" lon="0.86311">
        <ele>1136</ele>
        <time>2018-12-02T08:28:03.000Z</time>
      </trkpt>
      <trkpt lat="42.92371" lon="0.86311">
        <ele>1136</ele>
        <time>2018-12-02T08:28:05.000Z</time>
      </trkpt>
      <trkpt lat="42.92369" lon="0.86311">
        <ele>1136</ele>
        <time>2018-12-02T08:28:07.000Z</time>
      </trkpt>
      <trkpt lat="42.92368" lon="0.8631">
        <ele>1136</ele>
        <time>2018-12-02T08:28:09.000Z</time>
      </trkpt>
      <trkpt lat="42.92366" lon="0.8631">
        <ele>1136</ele>
        <time>2018-12-02T08:28:11.000Z</time>
      </trkpt>
      <trkpt lat="42.92365" lon="0.86309">
        <ele>1136</ele>
        <time>2018-12-02T08:28:13.000Z</time>
      </trkpt>
      <trkpt lat="42.92363" lon="0.8631">
        <ele>1136</ele>
        <time>2018-12-02T08:28:15.000Z</time>
      </trkpt>
      <trkpt lat="42.92362" lon="0.8631">
        <ele>1136</ele>
        <time>2018-12-02T08:28:17.000Z</time>
      </trkpt>
      <trkpt lat="42.9236" lon="0.86309">
        <ele>1137</ele>
        <time>2018-12-02T08:28:19.000Z</time>
      </trkpt>
      <trkpt lat="42.92358" lon="0.8631">
        <ele>1136</ele>
        <time>2018-12-02T08:28:21.000Z</time>
      </trkpt>
      <trkpt lat="42.92357" lon="0.8631">
        <ele>1136</ele>
        <time>2018-12-02T08:28:23.000Z</time>
      </trkpt>
      <trkpt lat="42.92355" lon="0.8631">
        <ele>1136</ele>
        <time>2018-12-02T08:28:25.000Z</time>
      </trkpt>
      <trkpt lat="42.92354" lon="0.8631">
        <ele>1136</ele>
        <time>2018-12-02T08:28:27.000Z</time>
      </trkpt>
      <trkpt lat="42.92352" lon="0.8631">
        <ele>1136</ele>
        <time>2018-12-02T08:28:29.000Z</time>
      </trkpt>
      <trkpt lat="42.92351" lon="0.8631">
        <ele>1136</ele>
        <time>2018-12-02T08:28:31.000Z</time>
      </trkpt>
      <trkpt lat="42.9235" lon="0.8631">
        <ele>1136</ele>
        <time>2018-12-02T08:28:33.000Z</time>
      </trkpt>
      <trkpt lat="42.92349" lon="0.8631">
        <ele>1136</ele>
        <time>2018-12-02T08:28:35.000Z</time>
      </trkpt>
      <trkpt lat="42.92348" lon="0.8631">
        <ele>1136</ele>
        <time>2018-12-02T08:28:37.000Z</time>
      </trkpt>
      <trkpt lat="42.92347" lon="0.8631">
        <ele>1136</ele>
        <time>2018-12-02T08:28:39.000Z</time>
      </trkpt>
      <trkpt lat="42.92345" lon="0.8631">
        <ele>1136</ele>
        <time>2018-12-02T08:28:41.000Z</time>
      </trkpt>
      <trkpt lat="42.92344" lon="0.8631">
        <ele>1137</ele>
        <time>2018-12-02T08:28:43.000Z</time>
      </trkpt>
      <trkpt lat="42.92342" lon="0.8631">
        <ele>1136</ele>
        <time>2018-12-02T08:28:45.000Z</time>
      </trkpt>
      <trkpt lat="42.92341" lon="0.86309">
        <ele>1137</ele>
        <time>2018-12-02T08:28:47.000Z</time>
      </trkpt>
      <trkpt lat="42.9234" lon="0.86309">
        <ele>1137</ele>
        <time>2018-12-02T08:28:49.000Z</time>
      </trkpt>
      <trkpt lat="42.92339" lon="0.86309">
        <ele>1137</ele>
        <time>2018-12-02T08:28:51.000Z</time>
      </trkpt>
      <trkpt lat="42.92337" lon="0.86309">
        <ele>1137</ele>
        <time>2018-12-02T08:28:53.000Z</time>
      </trkpt>
      <trkpt lat="42.92336" lon="0.86308">
        <ele>1137</ele>
        <time>2018-12-02T08:28:55.000Z</time>
      </trkpt>
      <trkpt lat="42.92334" lon="0.86308">
        <ele>1137</ele>
        <time>2018-12-02T08:28:57.000Z</time>
      </trkpt>
      <trkpt lat="42.92333" lon="0.86308">
        <ele>1137</ele>
        <time>2018-12-02T08:28:59.000Z</time>
      </trkpt>
      <trkpt lat="42.92331" lon="0.86309">
        <ele>1137</ele>
        <time>2018-12-02T08:29:01.000Z</time>
      </trkpt>
      <trkpt lat="42.9233" lon="0.86309">
        <ele>1137</ele>
        <time>2018-12-02T08:29:03.000Z</time>
      </trkpt>
      <trkpt lat="42.92329" lon="0.86309">
        <ele>1137</ele>
        <time>2018-12-02T08:29:05.000Z</time>
      </trkpt>
      <trkpt lat="42.92327" lon="0.86309">
        <ele>1137</ele>
        <time>2018-12-02T08:29:07.000Z</time>
      </trkpt>
      <trkpt lat="42.92326" lon="0.86308">
        <ele>1138</ele>
        <time>2018-12-02T08:29:09.000Z</time>
      </trkpt>
      <trkpt lat="42.92325" lon="0.86308">
        <ele>1138</ele>
        <time>2018-12-02T08:29:11.000Z</time>
      </trkpt>
      <trkpt lat="42.92323" lon="0.86308">
        <ele>1138</ele>
        <time>2018-12-02T08:29:13.000Z</time>
      </trkpt>
      <trkpt lat="42.92322" lon="0.86309">
        <ele>1137</ele>
        <time>2018-12-02T08:29:15.000Z</time>
      </trkpt>
      <trkpt lat="42.9232" lon="0.86309">
        <ele>1137</ele>
        <time>2018-12-02T08:29:17.000Z</time>
      </trkpt>
      <trkpt lat="42.92318" lon="0.86311">
        <ele>1137</ele>
        <time>2018-12-02T08:29:19.000Z</time>
      </trkpt>
      <trkpt lat="42.92317" lon="0.86311">
        <ele>1136</ele>
        <time>2018-12-02T08:29:21.000Z</time>
      </trkpt>
      <trkpt lat="42.92316" lon="0.86311">
        <ele>1136</ele>
        <time>2018-12-02T08:29:23.000Z</time>
      </trkpt>
      <trkpt lat="42.92314" lon="0.86311">
        <ele>1136</ele>
        <time>2018-12-02T08:29:25.000Z</time>
      </trkpt>
      <trkpt lat="42.92313" lon="0.86311">
        <ele>1137</ele>
        <time>2018-12-02T08:29:27.000Z</time>
      </trkpt>
      <trkpt lat="42.92312" lon="0.8631">
        <ele>1137</ele>
        <time>2018-12-02T08:29:29.000Z</time>
      </trkpt>
      <trkpt lat="42.9231" lon="0.86309">
        <ele>1138</ele>
        <time>2018-12-02T08:29:31.000Z</time>
      </trkpt>
      <trkpt lat="42.92308" lon="0.86309">
        <ele>1138</ele>
        <time>2018-12-02T08:29:33.000Z</time>
      </trkpt>
      <trkpt lat="42.92307" lon="0.86309">
        <ele>1138</ele>
        <time>2018-12-02T08:29:35.000Z</time>
      </trkpt>
      <trkpt lat="42.92306" lon="0.86308">
        <ele>1138</ele>
        <time>2018-12-02T08:29:37.000Z</time>
      </trkpt>
      <trkpt lat="42.92305" lon="0.86307">
        <ele>1138</ele>
        <time>2018-12-02T08:29:39.000Z</time>
      </trkpt>
      <trkpt lat="42.92303" lon="0.86307">
        <ele>1139</ele>
        <time>2018-12-02T08:29:41.000Z</time>
      </trkpt>
      <trkpt lat="42.92302" lon="0.86305">
        <ele>1139</ele>
        <time>2018-12-02T08:29:43.000Z</time>
      </trkpt>
      <trkpt lat="42.92301" lon="0.86305">
        <ele>1139</ele>
        <time>2018-12-02T08:29:45.000Z</time>
      </trkpt>
      <trkpt lat="42.92299" lon="0.86304">
        <ele>1140</ele>
        <time>2018-12-02T08:29:47.000Z</time>
      </trkpt>
      <trkpt lat="42.92298" lon="0.86303">
        <ele>1140</ele>
        <time>2018-12-02T08:29:49.000Z</time>
      </trkpt>
      <trkpt lat="42.92296" lon="0.86302">
        <ele>1141</ele>
        <time>2018-12-02T08:29:51.000Z</time>
      </trkpt>
      <trkpt lat="42.92295" lon="0.86299">
        <ele>1142</ele>
        <time>2018-12-02T08:29:53.000Z</time>
      </trkpt>
      <trkpt lat="42.92294" lon="0.86298">
        <ele>1142</ele>
        <time>2018-12-02T08:29:55.000Z</time>
      </trkpt>
      <trkpt lat="42.92293" lon="0.86297">
        <ele>1143</ele>
        <time>2018-12-02T08:29:57.000Z</time>
      </trkpt>
      <trkpt lat="42.92292" lon="0.86296">
        <ele>1143</ele>
        <time>2018-12-02T08:29:59.000Z</time>
      </trkpt>
      <trkpt lat="42.92291" lon="0.86294">
        <ele>1144</ele>
        <time>2018-12-02T08:30:01.000Z</time>
      </trkpt>
      <trkpt lat="42.9229" lon="0.86293">
        <ele>1144</ele>
        <time>2018-12-02T08:30:03.000Z</time>
      </trkpt>
      <trkpt lat="42.92289" lon="0.86292">
        <ele>1145</ele>
        <time>2018-12-02T08:30:05.000Z</time>
      </trkpt>
      <trkpt lat="42.92289" lon="0.8629">
        <ele>1145</ele>
        <time>2018-12-02T08:30:07.000Z</time>
      </trkpt>
      <trkpt lat="42.92288" lon="0.86288">
        <ele>1146</ele>
        <time>2018-12-02T08:30:09.000Z</time>
      </trkpt>
      <trkpt lat="42.92287" lon="0.86287">
        <ele>1147</ele>
        <time>2018-12-02T08:30:11.000Z</time>
      </trkpt>
      <trkpt lat="42.92286" lon="0.86286">
        <ele>1147</ele>
        <time>2018-12-02T08:30:13.000Z</time>
      </trkpt>
      <trkpt lat="42.92286" lon="0.86285">
        <ele>1147</ele>
        <time>2018-12-02T08:30:15.000Z</time>
      </trkpt>
      <trkpt lat="42.92285" lon="0.86284">
        <ele>1148</ele>
        <time>2018-12-02T08:30:17.000Z</time>
      </trkpt>
      <trkpt lat="42.92285" lon="0.86283">
        <ele>1148</ele>
        <time>2018-12-02T08:30:19.000Z</time>
      </trkpt>
      <trkpt lat="42.92284" lon="0.86282">
        <ele>1148</ele>
        <time>2018-12-02T08:30:21.000Z</time>
      </trkpt>
      <trkpt lat="42.92283" lon="0.86281">
        <ele>1149</ele>
        <time>2018-12-02T08:30:23.000Z</time>
      </trkpt>
      <trkpt lat="42.92282" lon="0.86281">
        <ele>1149</ele>
        <time>2018-12-02T08:30:25.000Z</time>
      </trkpt>
      <trkpt lat="42.92281" lon="0.86281">
        <ele>1149</ele>
        <time>2018-12-02T08:30:27.000Z</time>
      </trkpt>
      <trkpt lat="42.9228" lon="0.8628">
        <ele>1149</ele>
        <time>2018-12-02T08:30:29.000Z</time>
      </trkpt>
      <trkpt lat="42.9228" lon="0.8628">
        <ele>1149</ele>
        <time>2018-12-02T08:30:31.000Z</time>
      </trkpt>
      <trkpt lat="42.92279" lon="0.86279">
        <ele>1150</ele>
        <time>2018-12-02T08:30:33.000Z</time>
      </trkpt>
      <trkpt lat="42.92278" lon="0.86278">
        <ele>1150</ele>
        <time>2018-12-02T08:30:35.000Z</time>
      </trkpt>
      <trkpt lat="42.92277" lon="0.86278">
        <ele>1150</ele>
        <time>2018-12-02T08:30:37.000Z</time>
      </trkpt>
      <trkpt lat="42.92276" lon="0.86277">
        <ele>1150</ele>
        <time>2018-12-02T08:30:39.000Z</time>
      </trkpt>
      <trkpt lat="42.92276" lon="0.86278">
        <ele>1150</ele>
        <time>2018-12-02T08:30:41.000Z</time>
      </trkpt>
      <trkpt lat="42.92276" lon="0.86278">
        <ele>1150</ele>
        <time>2018-12-02T08:30:43.000Z</time>
      </trkpt>
      <trkpt lat="42.92276" lon="0.86277">
        <ele>1150</ele>
        <time>2018-12-02T08:30:45.000Z</time>
      </trkpt>
      <trkpt lat="42.92276" lon="0.86277">
        <ele>1150</ele>
        <time>2018-12-02T08:30:47.000Z</time>
      </trkpt>
      <trkpt lat="42.92276" lon="0.86277">
        <ele>1150</ele>
        <time>2018-12-02T08:30:49.000Z</time>
      </trkpt>
      <trkpt lat="42.92275" lon="0.86277">
        <ele>1151</ele>
        <time>2018-12-02T08:30:51.000Z</time>
      </trkpt>
      <trkpt lat="42.92275" lon="0.86276">
        <ele>1151</ele>
        <time>2018-12-02T08:30:53.000Z</time>
      </trkpt>
      <trkpt lat="42.92276" lon="0.86277">
        <ele>1151</ele>
        <time>2018-12-02T08:30:55.000Z</time>
      </trkpt>
      <trkpt lat="42.92276" lon="0.86276">
        <ele>1151</ele>
        <time>2018-12-02T08:30:57.000Z</time>
      </trkpt>
      <trkpt lat="42.92276" lon="0.86276">
        <ele>1151</ele>
        <time>2018-12-02T08:30:59.000Z</time>
      </trkpt>
      <trkpt lat="42.92276" lon="0.86276">
        <ele>1151</ele>
        <time>2018-12-02T08:31:01.000Z</time>
      </trkpt>
      <trkpt lat="42.92276" lon="0.86275">
        <ele>1151</ele>
        <time>2018-12-02T08:31:03.000Z</time>
      </trkpt>
      <trkpt lat="42.92276" lon="0.86275">
        <ele>1151</ele>
        <time>2018-12-02T08:31:05.000Z</time>
      </trkpt>
      <trkpt lat="42.92276" lon="0.86275">
        <ele>1151</ele>
        <time>2018-12-02T08:31:07.000Z</time>
      </trkpt>
      <trkpt lat="42.92276" lon="0.86275">
        <ele>1151</ele>
        <time>2018-12-02T08:31:09.000Z</time>
      </trkpt>
      <trkpt lat="42.92276" lon="0.86275">
        <ele>1151</ele>
        <time>2018-12-02T08:31:11.000Z</time>
      </trkpt>
      <trkpt lat="42.92276" lon="0.86275">
        <ele>1151</ele>
        <time>2018-12-02T08:31:13.000Z</time>
      </trkpt>
      <trkpt lat="42.92276" lon="0.86275">
        <ele>1151</ele>
        <time>2018-12-02T08:31:15.000Z</time>
      </trkpt>
      <trkpt lat="42.92277" lon="0.86276">
        <ele>1151</ele>
        <time>2018-12-02T08:31:17.000Z</time>
      </trkpt>
      <trkpt lat="42.92277" lon="0.86276">
        <ele>1151</ele>
        <time>2018-12-02T08:31:19.000Z</time>
      </trkpt>
      <trkpt lat="42.92277" lon="0.86276">
        <ele>1151</ele>
        <time>2018-12-02T08:31:21.000Z</time>
      </trkpt>
      <trkpt lat="42.92277" lon="0.86276">
        <ele>1151</ele>
        <time>2018-12-02T08:31:23.000Z</time>
      </trkpt>
      <trkpt lat="42.92277" lon="0.86275">
        <ele>1151</ele>
        <time>2018-12-02T08:31:25.000Z</time>
      </trkpt>
      <trkpt lat="42.92276" lon="0.86274">
        <ele>1151</ele>
        <time>2018-12-02T08:31:27.000Z</time>
      </trkpt>
      <trkpt lat="42.92275" lon="0.86273">
        <ele>1152</ele>
        <time>2018-12-02T08:31:29.000Z</time>
      </trkpt>
      <trkpt lat="42.92274" lon="0.86273">
        <ele>1152</ele>
        <time>2018-12-02T08:31:31.000Z</time>
      </trkpt>
      <trkpt lat="42.92273" lon="0.86272">
        <ele>1152</ele>
        <time>2018-12-02T08:31:33.000Z</time>
      </trkpt>
      <trkpt lat="42.92273" lon="0.8627">
        <ele>1153</ele>
        <time>2018-12-02T08:31:35.000Z</time>
      </trkpt>
      <trkpt lat="42.92272" lon="0.86269">
        <ele>1154</ele>
        <time>2018-12-02T08:31:37.000Z</time>
      </trkpt>
      <trkpt lat="42.92271" lon="0.86268">
        <ele>1154</ele>
        <time>2018-12-02T08:31:39.000Z</time>
      </trkpt>
      <trkpt lat="42.92269" lon="0.86267">
        <ele>1154</ele>
        <time>2018-12-02T08:31:41.000Z</time>
      </trkpt>
      <trkpt lat="42.92268" lon="0.86266">
        <ele>1155</ele>
        <time>2018-12-02T08:31:43.000Z</time>
      </trkpt>
      <trkpt lat="42.92267" lon="0.86264">
        <ele>1155</ele>
        <time>2018-12-02T08:31:45.000Z</time>
      </trkpt>
      <trkpt lat="42.92266" lon="0.86263">
        <ele>1156</ele>
        <time>2018-12-02T08:31:47.000Z</time>
      </trkpt>
      <trkpt lat="42.92267" lon="0.86261">
        <ele>1156</ele>
        <time>2018-12-02T08:31:49.000Z</time>
      </trkpt>
      <trkpt lat="42.92267" lon="0.8626">
        <ele>1157</ele>
        <time>2018-12-02T08:31:51.000Z</time>
      </trkpt>
      <trkpt lat="42.92266" lon="0.8626">
        <ele>1157</ele>
        <time>2018-12-02T08:31:53.000Z</time>
      </trkpt>
      <trkpt lat="42.92267" lon="0.86259">
        <ele>1157</ele>
        <time>2018-12-02T08:31:55.000Z</time>
      </trkpt>
      <trkpt lat="42.92267" lon="0.86258">
        <ele>1157</ele>
        <time>2018-12-02T08:31:57.000Z</time>
      </trkpt>
      <trkpt lat="42.92267" lon="0.86258">
        <ele>1158</ele>
        <time>2018-12-02T08:31:59.000Z</time>
      </trkpt>
      <trkpt lat="42.92267" lon="0.86258">
        <ele>1158</ele>
        <time>2018-12-02T08:32:01.000Z</time>
      </trkpt>
      <trkpt lat="42.92267" lon="0.86257">
        <ele>1158</ele>
        <time>2018-12-02T08:32:03.000Z</time>
      </trkpt>
      <trkpt lat="42.92267" lon="0.86257">
        <ele>1158</ele>
        <time>2018-12-02T08:32:05.000Z</time>
      </trkpt>
      <trkpt lat="42.92267" lon="0.86256">
        <ele>1158</ele>
        <time>2018-12-02T08:32:07.000Z</time>
      </trkpt>
      <trkpt lat="42.92267" lon="0.86256">
        <ele>1159</ele>
        <time>2018-12-02T08:32:09.000Z</time>
      </trkpt>
      <trkpt lat="42.92267" lon="0.86254">
        <ele>1159</ele>
        <time>2018-12-02T08:32:11.000Z</time>
      </trkpt>
      <trkpt lat="42.92266" lon="0.86253">
        <ele>1160</ele>
        <time>2018-12-02T08:32:13.000Z</time>
      </trkpt>
      <trkpt lat="42.92266" lon="0.86251">
        <ele>1160</ele>
        <time>2018-12-02T08:32:15.000Z</time>
      </trkpt>
      <trkpt lat="42.92265" lon="0.8625">
        <ele>1161</ele>
        <time>2018-12-02T08:32:17.000Z</time>
      </trkpt>
      <trkpt lat="42.92264" lon="0.86249">
        <ele>1161</ele>
        <time>2018-12-02T08:32:19.000Z</time>
      </trkpt>
      <trkpt lat="42.92264" lon="0.86247">
        <ele>1162</ele>
        <time>2018-12-02T08:32:21.000Z</time>
      </trkpt>
      <trkpt lat="42.92263" lon="0.86246">
        <ele>1162</ele>
        <time>2018-12-02T08:32:23.000Z</time>
      </trkpt>
      <trkpt lat="42.92262" lon="0.86245">
        <ele>1162</ele>
        <time>2018-12-02T08:32:25.000Z</time>
      </trkpt>
      <trkpt lat="42.92261" lon="0.86245">
        <ele>1163</ele>
        <time>2018-12-02T08:32:27.000Z</time>
      </trkpt>
      <trkpt lat="42.9226" lon="0.86245">
        <ele>1163</ele>
        <time>2018-12-02T08:32:29.000Z</time>
      </trkpt>
      <trkpt lat="42.92258" lon="0.86244">
        <ele>1163</ele>
        <time>2018-12-02T08:32:31.000Z</time>
      </trkpt>
      <trkpt lat="42.92257" lon="0.86243">
        <ele>1164</ele>
        <time>2018-12-02T08:32:33.000Z</time>
      </trkpt>
      <trkpt lat="42.92256" lon="0.86243">
        <ele>1163</ele>
        <time>2018-12-02T08:32:35.000Z</time>
      </trkpt>
      <trkpt lat="42.92254" lon="0.86242">
        <ele>1163</ele>
        <time>2018-12-02T08:32:37.000Z</time>
      </trkpt>
      <trkpt lat="42.92253" lon="0.86242">
        <ele>1163</ele>
        <time>2018-12-02T08:32:39.000Z</time>
      </trkpt>
      <trkpt lat="42.92253" lon="0.86241">
        <ele>1163</ele>
        <time>2018-12-02T08:32:41.000Z</time>
      </trkpt>
      <trkpt lat="42.92252" lon="0.8624">
        <ele>1163</ele>
        <time>2018-12-02T08:32:43.000Z</time>
      </trkpt>
      <trkpt lat="42.92251" lon="0.8624">
        <ele>1163</ele>
        <time>2018-12-02T08:32:45.000Z</time>
      </trkpt>
      <trkpt lat="42.92249" lon="0.86239">
        <ele>1163</ele>
        <time>2018-12-02T08:32:47.000Z</time>
      </trkpt>
      <trkpt lat="42.92248" lon="0.86239">
        <ele>1163</ele>
        <time>2018-12-02T08:32:49.000Z</time>
      </trkpt>
      <trkpt lat="42.92246" lon="0.86239">
        <ele>1163</ele>
        <time>2018-12-02T08:32:51.000Z</time>
      </trkpt>
      <trkpt lat="42.92245" lon="0.86237">
        <ele>1163</ele>
        <time>2018-12-02T08:32:53.000Z</time>
      </trkpt>
      <trkpt lat="42.92244" lon="0.86238">
        <ele>1162</ele>
        <time>2018-12-02T08:32:55.000Z</time>
      </trkpt>
      <trkpt lat="42.92243" lon="0.86238">
        <ele>1162</ele>
        <time>2018-12-02T08:32:57.000Z</time>
      </trkpt>
      <trkpt lat="42.92243" lon="0.86237">
        <ele>1162</ele>
        <time>2018-12-02T08:32:59.000Z</time>
      </trkpt>
      <trkpt lat="42.92242" lon="0.86236">
        <ele>1162</ele>
        <time>2018-12-02T08:33:01.000Z</time>
      </trkpt>
      <trkpt lat="42.92241" lon="0.86236">
        <ele>1163</ele>
        <time>2018-12-02T08:33:03.000Z</time>
      </trkpt>
      <trkpt lat="42.9224" lon="0.86235">
        <ele>1163</ele>
        <time>2018-12-02T08:33:05.000Z</time>
      </trkpt>
      <trkpt lat="42.92239" lon="0.86235">
        <ele>1163</ele>
        <time>2018-12-02T08:33:07.000Z</time>
      </trkpt>
      <trkpt lat="42.92238" lon="0.86234">
        <ele>1163</ele>
        <time>2018-12-02T08:33:09.000Z</time>
      </trkpt>
      <trkpt lat="42.92237" lon="0.86232">
        <ele>1163</ele>
        <time>2018-12-02T08:33:11.000Z</time>
      </trkpt>
      <trkpt lat="42.92236" lon="0.86231">
        <ele>1163</ele>
        <time>2018-12-02T08:33:13.000Z</time>
      </trkpt>
      <trkpt lat="42.92235" lon="0.8623">
        <ele>1163</ele>
        <time>2018-12-02T08:33:15.000Z</time>
      </trkpt>
      <trkpt lat="42.92234" lon="0.86229">
        <ele>1163</ele>
        <time>2018-12-02T08:33:17.000Z</time>
      </trkpt>
      <trkpt lat="42.92232" lon="0.86227">
        <ele>1164</ele>
        <time>2018-12-02T08:33:19.000Z</time>
      </trkpt>
      <trkpt lat="42.92232" lon="0.86225">
        <ele>1164</ele>
        <time>2018-12-02T08:33:21.000Z</time>
      </trkpt>
      <trkpt lat="42.92231" lon="0.86224">
        <ele>1165</ele>
        <time>2018-12-02T08:33:23.000Z</time>
      </trkpt>
      <trkpt lat="42.92231" lon="0.86223">
        <ele>1165</ele>
        <time>2018-12-02T08:33:25.000Z</time>
      </trkpt>
      <trkpt lat="42.9223" lon="0.86222">
        <ele>1165</ele>
        <time>2018-12-02T08:33:27.000Z</time>
      </trkpt>
      <trkpt lat="42.92229" lon="0.86221">
        <ele>1165</ele>
        <time>2018-12-02T08:33:29.000Z</time>
      </trkpt>
      <trkpt lat="42.92228" lon="0.8622">
        <ele>1164</ele>
        <time>2018-12-02T08:33:31.000Z</time>
      </trkpt>
      <trkpt lat="42.92227" lon="0.86219">
        <ele>1164</ele>
        <time>2018-12-02T08:33:33.000Z</time>
      </trkpt>
      <trkpt lat="42.92226" lon="0.86219">
        <ele>1164</ele>
        <time>2018-12-02T08:33:35.000Z</time>
      </trkpt>
      <trkpt lat="42.92225" lon="0.86218">
        <ele>1163</ele>
        <time>2018-12-02T08:33:37.000Z</time>
      </trkpt>
      <trkpt lat="42.92224" lon="0.86217">
        <ele>1163</ele>
        <time>2018-12-02T08:33:39.000Z</time>
      </trkpt>
      <trkpt lat="42.92224" lon="0.86217">
        <ele>1163</ele>
        <time>2018-12-02T08:33:41.000Z</time>
      </trkpt>
      <trkpt lat="42.92223" lon="0.86216">
        <ele>1163</ele>
        <time>2018-12-02T08:33:43.000Z</time>
      </trkpt>
      <trkpt lat="42.92222" lon="0.86215">
        <ele>1163</ele>
        <time>2018-12-02T08:33:45.000Z</time>
      </trkpt>
      <trkpt lat="42.92222" lon="0.86215">
        <ele>1163</ele>
        <time>2018-12-02T08:33:47.000Z</time>
      </trkpt>
      <trkpt lat="42.92221" lon="0.86215">
        <ele>1162</ele>
        <time>2018-12-02T08:33:49.000Z</time>
      </trkpt>
      <trkpt lat="42.92221" lon="0.86214">
        <ele>1162</ele>
        <time>2018-12-02T08:33:51.000Z</time>
      </trkpt>
      <trkpt lat="42.9222" lon="0.86211">
        <ele>1162</ele>
        <time>2018-12-02T08:33:53.000Z</time>
      </trkpt>
      <trkpt lat="42.9222" lon="0.86209">
        <ele>1162</ele>
        <time>2018-12-02T08:33:55.000Z</time>
      </trkpt>
      <trkpt lat="42.92219" lon="0.86207">
        <ele>1162</ele>
        <time>2018-12-02T08:33:57.000Z</time>
      </trkpt>
      <trkpt lat="42.92219" lon="0.86205">
        <ele>1162</ele>
        <time>2018-12-02T08:33:59.000Z</time>
      </trkpt>
      <trkpt lat="42.92218" lon="0.86204">
        <ele>1161</ele>
        <time>2018-12-02T08:34:01.000Z</time>
      </trkpt>
      <trkpt lat="42.92217" lon="0.86203">
        <ele>1161</ele>
        <time>2018-12-02T08:34:03.000Z</time>
      </trkpt>
      <trkpt lat="42.92217" lon="0.86202">
        <ele>1161</ele>
        <time>2018-12-02T08:34:05.000Z</time>
      </trkpt>
      <trkpt lat="42.92217" lon="0.86201">
        <ele>1161</ele>
        <time>2018-12-02T08:34:07.000Z</time>
      </trkpt>
      <trkpt lat="42.92216" lon="0.86201">
        <ele>1161</ele>
        <time>2018-12-02T08:34:09.000Z</time>
      </trkpt>
      <trkpt lat="42.92216" lon="0.86201">
        <ele>1161</ele>
        <time>2018-12-02T08:34:11.000Z</time>
      </trkpt>
      <trkpt lat="42.92216" lon="0.86199">
        <ele>1161</ele>
        <time>2018-12-02T08:34:13.000Z</time>
      </trkpt>
      <trkpt lat="42.92216" lon="0.86199">
        <ele>1161</ele>
        <time>2018-12-02T08:34:15.000Z</time>
      </trkpt>
      <trkpt lat="42.92215" lon="0.86198">
        <ele>1160</ele>
        <time>2018-12-02T08:34:17.000Z</time>
      </trkpt>
      <trkpt lat="42.92214" lon="0.86197">
        <ele>1160</ele>
        <time>2018-12-02T08:34:19.000Z</time>
      </trkpt>
      <trkpt lat="42.92213" lon="0.86195">
        <ele>1160</ele>
        <time>2018-12-02T08:34:21.000Z</time>
      </trkpt>
      <trkpt lat="42.92213" lon="0.86193">
        <ele>1160</ele>
        <time>2018-12-02T08:34:23.000Z</time>
      </trkpt>
      <trkpt lat="42.92212" lon="0.86192">
        <ele>1160</ele>
        <time>2018-12-02T08:34:25.000Z</time>
      </trkpt>
      <trkpt lat="42.92213" lon="0.8619">
        <ele>1160</ele>
        <time>2018-12-02T08:34:27.000Z</time>
      </trkpt>
      <trkpt lat="42.92213" lon="0.86189">
        <ele>1160</ele>
        <time>2018-12-02T08:34:29.000Z</time>
      </trkpt>
      <trkpt lat="42.92213" lon="0.86189">
        <ele>1160</ele>
        <time>2018-12-02T08:34:31.000Z</time>
      </trkpt>
      <trkpt lat="42.92213" lon="0.86189">
        <ele>1160</ele>
        <time>2018-12-02T08:34:33.000Z</time>
      </trkpt>
      <trkpt lat="42.92213" lon="0.86189">
        <ele>1160</ele>
        <time>2018-12-02T08:34:35.000Z</time>
      </trkpt>
      <trkpt lat="42.92213" lon="0.86189">
        <ele>1160</ele>
        <time>2018-12-02T08:34:37.000Z</time>
      </trkpt>
      <trkpt lat="42.92213" lon="0.86189">
        <ele>1160</ele>
        <time>2018-12-02T08:34:39.000Z</time>
      </trkpt>
      <trkpt lat="42.92213" lon="0.86189">
        <ele>1160</ele>
        <time>2018-12-02T08:34:41.000Z</time>
      </trkpt>
      <trkpt lat="42.92212" lon="0.86189">
        <ele>1160</ele>
        <time>2018-12-02T08:34:43.000Z</time>
      </trkpt>
      <trkpt lat="42.92212" lon="0.86188">
        <ele>1160</ele>
        <time>2018-12-02T08:34:45.000Z</time>
      </trkpt>
      <trkpt lat="42.92212" lon="0.86187">
        <ele>1159</ele>
        <time>2018-12-02T08:34:47.000Z</time>
      </trkpt>
      <trkpt lat="42.92212" lon="0.86186">
        <ele>1159</ele>
        <time>2018-12-02T08:34:49.000Z</time>
      </trkpt>
      <trkpt lat="42.92211" lon="0.86186">
        <ele>1159</ele>
        <time>2018-12-02T08:34:51.000Z</time>
      </trkpt>
      <trkpt lat="42.92211" lon="0.86185">
        <ele>1159</ele>
        <time>2018-12-02T08:34:53.000Z</time>
      </trkpt>
      <trkpt lat="42.9221" lon="0.86185">
        <ele>1159</ele>
        <time>2018-12-02T08:34:55.000Z</time>
      </trkpt>
      <trkpt lat="42.9221" lon="0.86185">
        <ele>1159</ele>
        <time>2018-12-02T08:34:57.000Z</time>
      </trkpt>
      <trkpt lat="42.9221" lon="0.86186">
        <ele>1159</ele>
        <time>2018-12-02T08:34:59.000Z</time>
      </trkpt>
      <trkpt lat="42.92211" lon="0.86186">
        <ele>1159</ele>
        <time>2018-12-02T08:35:01.000Z</time>
      </trkpt>
      <trkpt lat="42.92211" lon="0.86186">
        <ele>1159</ele>
        <time>2018-12-02T08:35:03.000Z</time>
      </trkpt>
      <trkpt lat="42.92211" lon="0.86187">
        <ele>1159</ele>
        <time>2018-12-02T08:35:05.000Z</time>
      </trkpt>
      <trkpt lat="42.92211" lon="0.86188">
        <ele>1159</ele>
        <time>2018-12-02T08:35:07.000Z</time>
      </trkpt>
      <trkpt lat="42.92211" lon="0.86187">
        <ele>1159</ele>
        <time>2018-12-02T08:35:09.000Z</time>
      </trkpt>
      <trkpt lat="42.92211" lon="0.86187">
        <ele>1159</ele>
        <time>2018-12-02T08:35:11.000Z</time>
      </trkpt>
      <trkpt lat="42.92211" lon="0.86187">
        <ele>1159</ele>
        <time>2018-12-02T08:35:13.000Z</time>
      </trkpt>
      <trkpt lat="42.92211" lon="0.86187">
        <ele>1159</ele>
        <time>2018-12-02T08:35:15.000Z</time>
      </trkpt>
      <trkpt lat="42.92211" lon="0.86187">
        <ele>1159</ele>
        <time>2018-12-02T08:35:17.000Z</time>
      </trkpt>
      <trkpt lat="42.92211" lon="0.86187">
        <ele>1159</ele>
        <time>2018-12-02T08:35:19.000Z</time>
      </trkpt>
      <trkpt lat="42.9221" lon="0.86187">
        <ele>1159</ele>
        <time>2018-12-02T08:35:21.000Z</time>
      </trkpt>
      <trkpt lat="42.9221" lon="0.86187">
        <ele>1159</ele>
        <time>2018-12-02T08:35:23.000Z</time>
      </trkpt>
      <trkpt lat="42.92211" lon="0.86187">
        <ele>1159</ele>
        <time>2018-12-02T08:35:25.000Z</time>
      </trkpt>
      <trkpt lat="42.92212" lon="0.86187">
        <ele>1159</ele>
        <time>2018-12-02T08:35:27.000Z</time>
      </trkpt>
      <trkpt lat="42.92212" lon="0.86187">
        <ele>1159</ele>
        <time>2018-12-02T08:35:29.000Z</time>
      </trkpt>
      <trkpt lat="42.92211" lon="0.86188">
        <ele>1159</ele>
        <time>2018-12-02T08:35:31.000Z</time>
      </trkpt>
      <trkpt lat="42.92212" lon="0.86188">
        <ele>1159</ele>
        <time>2018-12-02T08:35:33.000Z</time>
      </trkpt>
      <trkpt lat="42.92211" lon="0.86188">
        <ele>1159</ele>
        <time>2018-12-02T08:35:35.000Z</time>
      </trkpt>
      <trkpt lat="42.92211" lon="0.86187">
        <ele>1159</ele>
        <time>2018-12-02T08:35:37.000Z</time>
      </trkpt>
      <trkpt lat="42.92211" lon="0.86185">
        <ele>1159</ele>
        <time>2018-12-02T08:35:39.000Z</time>
      </trkpt>
      <trkpt lat="42.92212" lon="0.86183">
        <ele>1159</ele>
        <time>2018-12-02T08:35:41.000Z</time>
      </trkpt>
      <trkpt lat="42.92212" lon="0.86182">
        <ele>1159</ele>
        <time>2018-12-02T08:35:43.000Z</time>
      </trkpt>
      <trkpt lat="42.92212" lon="0.8618">
        <ele>1159</ele>
        <time>2018-12-02T08:35:45.000Z</time>
      </trkpt>
      <trkpt lat="42.92211" lon="0.8618">
        <ele>1159</ele>
        <time>2018-12-02T08:35:47.000Z</time>
      </trkpt>
      <trkpt lat="42.92211" lon="0.86181">
        <ele>1159</ele>
        <time>2018-12-02T08:35:49.000Z</time>
      </trkpt>
      <trkpt lat="42.92211" lon="0.86182">
        <ele>1159</ele>
        <time>2018-12-02T08:35:51.000Z</time>
      </trkpt>
      <trkpt lat="42.92211" lon="0.86181">
        <ele>1159</ele>
        <time>2018-12-02T08:35:53.000Z</time>
      </trkpt>
      <trkpt lat="42.92211" lon="0.86181">
        <ele>1159</ele>
        <time>2018-12-02T08:35:55.000Z</time>
      </trkpt>
      <trkpt lat="42.92211" lon="0.86181">
        <ele>1159</ele>
        <time>2018-12-02T08:35:57.000Z</time>
      </trkpt>
      <trkpt lat="42.9221" lon="0.86181">
        <ele>1159</ele>
        <time>2018-12-02T08:35:59.000Z</time>
      </trkpt>
      <trkpt lat="42.9221" lon="0.8618">
        <ele>1159</ele>
        <time>2018-12-02T08:36:01.000Z</time>
      </trkpt>
      <trkpt lat="42.92211" lon="0.86179">
        <ele>1159</ele>
        <time>2018-12-02T08:36:03.000Z</time>
      </trkpt>
      <trkpt lat="42.92211" lon="0.86178">
        <ele>1159</ele>
        <time>2018-12-02T08:36:05.000Z</time>
      </trkpt>
      <trkpt lat="42.92211" lon="0.86177">
        <ele>1159</ele>
        <time>2018-12-02T08:36:07.000Z</time>
      </trkpt>
      <trkpt lat="42.92212" lon="0.86176">
        <ele>1159</ele>
        <time>2018-12-02T08:36:09.000Z</time>
      </trkpt>
      <trkpt lat="42.92212" lon="0.86175">
        <ele>1160</ele>
        <time>2018-12-02T08:36:11.000Z</time>
      </trkpt>
      <trkpt lat="42.92211" lon="0.86174">
        <ele>1160</ele>
        <time>2018-12-02T08:36:13.000Z</time>
      </trkpt>
      <trkpt lat="42.92211" lon="0.86172">
        <ele>1160</ele>
        <time>2018-12-02T08:36:15.000Z</time>
      </trkpt>
      <trkpt lat="42.92211" lon="0.86171">
        <ele>1160</ele>
        <time>2018-12-02T08:36:17.000Z</time>
      </trkpt>
      <trkpt lat="42.92211" lon="0.86169">
        <ele>1160</ele>
        <time>2018-12-02T08:36:19.000Z</time>
      </trkpt>
      <trkpt lat="42.9221" lon="0.86166">
        <ele>1161</ele>
        <time>2018-12-02T08:36:21.000Z</time>
      </trkpt>
      <trkpt lat="42.9221" lon="0.86165">
        <ele>1161</ele>
        <time>2018-12-02T08:36:23.000Z</time>
      </trkpt>
      <trkpt lat="42.92209" lon="0.86163">
        <ele>1161</ele>
        <time>2018-12-02T08:36:25.000Z</time>
      </trkpt>
      <trkpt lat="42.92209" lon="0.86163">
        <ele>1161</ele>
        <time>2018-12-02T08:36:27.000Z</time>
      </trkpt>
      <trkpt lat="42.92209" lon="0.8616">
        <ele>1161</ele>
        <time>2018-12-02T08:36:29.000Z</time>
      </trkpt>
      <trkpt lat="42.92209" lon="0.86158">
        <ele>1162</ele>
        <time>2018-12-02T08:36:31.000Z</time>
      </trkpt>
      <trkpt lat="42.9221" lon="0.86156">
        <ele>1163</ele>
        <time>2018-12-02T08:36:33.000Z</time>
      </trkpt>
      <trkpt lat="42.9221" lon="0.86154">
        <ele>1163</ele>
        <time>2018-12-02T08:36:35.000Z</time>
      </trkpt>
      <trkpt lat="42.92209" lon="0.86151">
        <ele>1163</ele>
        <time>2018-12-02T08:36:37.000Z</time>
      </trkpt>
      <trkpt lat="42.92209" lon="0.86149">
        <ele>1164</ele>
        <time>2018-12-02T08:36:39.000Z</time>
      </trkpt>
      <trkpt lat="42.92209" lon="0.86148">
        <ele>1164</ele>
        <time>2018-12-02T08:36:41.000Z</time>
      </trkpt>
      <trkpt lat="42.92208" lon="0.86146">
        <ele>1164</ele>
        <time>2018-12-02T08:36:43.000Z</time>
      </trkpt>
      <trkpt lat="42.92209" lon="0.86145">
        <ele>1165</ele>
        <time>2018-12-02T08:36:45.000Z</time>
      </trkpt>
      <trkpt lat="42.92209" lon="0.86143">
        <ele>1165</ele>
        <time>2018-12-02T08:36:47.000Z</time>
      </trkpt>
      <trkpt lat="42.92209" lon="0.86141">
        <ele>1166</ele>
        <time>2018-12-02T08:36:49.000Z</time>
      </trkpt>
      <trkpt lat="42.92209" lon="0.86139">
        <ele>1166</ele>
        <time>2018-12-02T08:36:51.000Z</time>
      </trkpt>
      <trkpt lat="42.92209" lon="0.86137">
        <ele>1166</ele>
        <time>2018-12-02T08:36:53.000Z</time>
      </trkpt>
      <trkpt lat="42.92209" lon="0.86135">
        <ele>1166</ele>
        <time>2018-12-02T08:36:55.000Z</time>
      </trkpt>
      <trkpt lat="42.92209" lon="0.86135">
        <ele>1166</ele>
        <time>2018-12-02T08:36:57.000Z</time>
      </trkpt>
      <trkpt lat="42.9221" lon="0.86134">
        <ele>1166</ele>
        <time>2018-12-02T08:36:59.000Z</time>
      </trkpt>
      <trkpt lat="42.9221" lon="0.86132">
        <ele>1166</ele>
        <time>2018-12-02T08:37:01.000Z</time>
      </trkpt>
      <trkpt lat="42.9221" lon="0.86132">
        <ele>1166</ele>
        <time>2018-12-02T08:37:03.000Z</time>
      </trkpt>
      <trkpt lat="42.9221" lon="0.86131">
        <ele>1166</ele>
        <time>2018-12-02T08:37:05.000Z</time>
      </trkpt>
      <trkpt lat="42.9221" lon="0.8613">
        <ele>1166</ele>
        <time>2018-12-02T08:37:07.000Z</time>
      </trkpt>
      <trkpt lat="42.9221" lon="0.8613">
        <ele>1166</ele>
        <time>2018-12-02T08:37:09.000Z</time>
      </trkpt>
      <trkpt lat="42.9221" lon="0.8613">
        <ele>1166</ele>
        <time>2018-12-02T08:37:11.000Z</time>
      </trkpt>
      <trkpt lat="42.9221" lon="0.8613">
        <ele>1166</ele>
        <time>2018-12-02T08:37:13.000Z</time>
      </trkpt>
      <trkpt lat="42.9221" lon="0.8613">
        <ele>1166</ele>
        <time>2018-12-02T08:37:15.000Z</time>
      </trkpt>
      <trkpt lat="42.9221" lon="0.86131">
        <ele>1166</ele>
        <time>2018-12-02T08:37:17.000Z</time>
      </trkpt>
      <trkpt lat="42.9221" lon="0.86131">
        <ele>1166</ele>
        <time>2018-12-02T08:37:19.000Z</time>
      </trkpt>
      <trkpt lat="42.92209" lon="0.86131">
        <ele>1166</ele>
        <time>2018-12-02T08:37:21.000Z</time>
      </trkpt>
      <trkpt lat="42.92209" lon="0.86131">
        <ele>1166</ele>
        <time>2018-12-02T08:37:23.000Z</time>
      </trkpt>
      <trkpt lat="42.92208" lon="0.86132">
        <ele>1165</ele>
        <time>2018-12-02T08:37:25.000Z</time>
      </trkpt>
      <trkpt lat="42.92208" lon="0.86132">
        <ele>1165</ele>
        <time>2018-12-02T08:37:27.000Z</time>
      </trkpt>
      <trkpt lat="42.92208" lon="0.86132">
        <ele>1165</ele>
        <time>2018-12-02T08:37:29.000Z</time>
      </trkpt>
      <trkpt lat="42.92208" lon="0.86133">
        <ele>1165</ele>
        <time>2018-12-02T08:37:31.000Z</time>
      </trkpt>
      <trkpt lat="42.92208" lon="0.86132">
        <ele>1165</ele>
        <time>2018-12-02T08:37:33.000Z</time>
      </trkpt>
      <trkpt lat="42.92209" lon="0.86132">
        <ele>1166</ele>
        <time>2018-12-02T08:37:35.000Z</time>
      </trkpt>
      <trkpt lat="42.9221" lon="0.86131">
        <ele>1166</ele>
        <time>2018-12-02T08:37:37.000Z</time>
      </trkpt>
      <trkpt lat="42.9221" lon="0.86131">
        <ele>1166</ele>
        <time>2018-12-02T08:37:39.000Z</time>
      </trkpt>
      <trkpt lat="42.9221" lon="0.86131">
        <ele>1166</ele>
        <time>2018-12-02T08:37:41.000Z</time>
      </trkpt>
      <trkpt lat="42.92211" lon="0.86131">
        <ele>1167</ele>
        <time>2018-12-02T08:37:43.000Z</time>
      </trkpt>
      <trkpt lat="42.92211" lon="0.8613">
        <ele>1167</ele>
        <time>2018-12-02T08:37:45.000Z</time>
      </trkpt>
      <trkpt lat="42.9221" lon="0.8613">
        <ele>1166</ele>
        <time>2018-12-02T08:37:47.000Z</time>
      </trkpt>
      <trkpt lat="42.9221" lon="0.8613">
        <ele>1166</ele>
        <time>2018-12-02T08:37:49.000Z</time>
      </trkpt>
      <trkpt lat="42.9221" lon="0.8613">
        <ele>1166</ele>
        <time>2018-12-02T08:37:51.000Z</time>
      </trkpt>
      <trkpt lat="42.92209" lon="0.86131">
        <ele>1166</ele>
        <time>2018-12-02T08:37:53.000Z</time>
      </trkpt>
      <trkpt lat="42.92209" lon="0.86131">
        <ele>1166</ele>
        <time>2018-12-02T08:37:55.000Z</time>
      </trkpt>
      <trkpt lat="42.92209" lon="0.86132">
        <ele>1166</ele>
        <time>2018-12-02T08:37:57.000Z</time>
      </trkpt>
      <trkpt lat="42.92208" lon="0.86132">
        <ele>1165</ele>
        <time>2018-12-02T08:37:59.000Z</time>
      </trkpt>
      <trkpt lat="42.92208" lon="0.86132">
        <ele>1165</ele>
        <time>2018-12-02T08:38:01.000Z</time>
      </trkpt>
      <trkpt lat="42.92207" lon="0.86131">
        <ele>1165</ele>
        <time>2018-12-02T08:38:03.000Z</time>
      </trkpt>
      <trkpt lat="42.92208" lon="0.86132">
        <ele>1165</ele>
        <time>2018-12-02T08:38:05.000Z</time>
      </trkpt>
      <trkpt lat="42.92208" lon="0.86132">
        <ele>1165</ele>
        <time>2018-12-02T08:38:07.000Z</time>
      </trkpt>
      <trkpt lat="42.92208" lon="0.86131">
        <ele>1165</ele>
        <time>2018-12-02T08:38:09.000Z</time>
      </trkpt>
      <trkpt lat="42.92208" lon="0.86131">
        <ele>1165</ele>
        <time>2018-12-02T08:38:11.000Z</time>
      </trkpt>
      <trkpt lat="42.92208" lon="0.86131">
        <ele>1165</ele>
        <time>2018-12-02T08:38:13.000Z</time>
      </trkpt>
      <trkpt lat="42.92208" lon="0.8613">
        <ele>1165</ele>
        <time>2018-12-02T08:38:15.000Z</time>
      </trkpt>
      <trkpt lat="42.92208" lon="0.8613">
        <ele>1165</ele>
        <time>2018-12-02T08:38:17.000Z</time>
      </trkpt>
      <trkpt lat="42.92208" lon="0.86129">
        <ele>1165</ele>
        <time>2018-12-02T08:38:19.000Z</time>
      </trkpt>
      <trkpt lat="42.92208" lon="0.86129">
        <ele>1165</ele>
        <time>2018-12-02T08:38:21.000Z</time>
      </trkpt>
      <trkpt lat="42.92209" lon="0.86129">
        <ele>1165</ele>
        <time>2018-12-02T08:38:23.000Z</time>
      </trkpt>
      <trkpt lat="42.92209" lon="0.86129">
        <ele>1166</ele>
        <time>2018-12-02T08:38:25.000Z</time>
      </trkpt>
      <trkpt lat="42.92209" lon="0.86129">
        <ele>1166</ele>
        <time>2018-12-02T08:38:27.000Z</time>
      </trkpt>
      <trkpt lat="42.92208" lon="0.8613">
        <ele>1165</ele>
        <time>2018-12-02T08:38:29.000Z</time>
      </trkpt>
      <trkpt lat="42.92208" lon="0.8613">
        <ele>1165</ele>
        <time>2018-12-02T08:38:31.000Z</time>
      </trkpt>
      <trkpt lat="42.92208" lon="0.8613">
        <ele>1165</ele>
        <time>2018-12-02T08:38:33.000Z</time>
      </trkpt>
      <trkpt lat="42.92208" lon="0.8613">
        <ele>1165</ele>
        <time>2018-12-02T08:38:35.000Z</time>
      </trkpt>
      <trkpt lat="42.92208" lon="0.86129">
        <ele>1165</ele>
        <time>2018-12-02T08:38:37.000Z</time>
      </trkpt>
      <trkpt lat="42.92208" lon="0.86129">
        <ele>1165</ele>
        <time>2018-12-02T08:38:39.000Z</time>
      </trkpt>
      <trkpt lat="42.92208" lon="0.86128">
        <ele>1165</ele>
        <time>2018-12-02T08:38:41.000Z</time>
      </trkpt>
      <trkpt lat="42.92207" lon="0.86128">
        <ele>1165</ele>
        <time>2018-12-02T08:38:43.000Z</time>
      </trkpt>
      <trkpt lat="42.92207" lon="0.86128">
        <ele>1165</ele>
        <time>2018-12-02T08:38:45.000Z</time>
      </trkpt>
      <trkpt lat="42.92207" lon="0.86127">
        <ele>1165</ele>
        <time>2018-12-02T08:38:47.000Z</time>
      </trkpt>
      <trkpt lat="42.92207" lon="0.86126">
        <ele>1165</ele>
        <time>2018-12-02T08:38:49.000Z</time>
      </trkpt>
      <trkpt lat="42.92207" lon="0.86124">
        <ele>1164</ele>
        <time>2018-12-02T08:38:51.000Z</time>
      </trkpt>
      <trkpt lat="42.92207" lon="0.86122">
        <ele>1165</ele>
        <time>2018-12-02T08:38:53.000Z</time>
      </trkpt>
      <trkpt lat="42.92208" lon="0.8612">
        <ele>1165</ele>
        <time>2018-12-02T08:38:55.000Z</time>
      </trkpt>
      <trkpt lat="42.92208" lon="0.86119">
        <ele>1165</ele>
        <time>2018-12-02T08:38:57.000Z</time>
      </trkpt>
      <trkpt lat="42.92209" lon="0.86117">
        <ele>1166</ele>
        <time>2018-12-02T08:38:59.000Z</time>
      </trkpt>
      <trkpt lat="42.92211" lon="0.86116">
        <ele>1166</ele>
        <time>2018-12-02T08:39:01.000Z</time>
      </trkpt>
      <trkpt lat="42.92211" lon="0.86115">
        <ele>1166</ele>
        <time>2018-12-02T08:39:03.000Z</time>
      </trkpt>
      <trkpt lat="42.92212" lon="0.86113">
        <ele>1167</ele>
        <time>2018-12-02T08:39:05.000Z</time>
      </trkpt>
      <trkpt lat="42.92212" lon="0.86112">
        <ele>1167</ele>
        <time>2018-12-02T08:39:07.000Z</time>
      </trkpt>
      <trkpt lat="42.92212" lon="0.8611">
        <ele>1167</ele>
        <time>2018-12-02T08:39:09.000Z</time>
      </trkpt>
      <trkpt lat="42.92212" lon="0.86108">
        <ele>1166</ele>
        <time>2018-12-02T08:39:11.000Z</time>
      </trkpt>
      <trkpt lat="42.92211" lon="0.86107">
        <ele>1166</ele>
        <time>2018-12-02T08:39:13.000Z</time>
      </trkpt>
      <trkpt lat="42.92211" lon="0.86106">
        <ele>1166</ele>
        <time>2018-12-02T08:39:15.000Z</time>
      </trkpt>
      <trkpt lat="42.92212" lon="0.86104">
        <ele>1166</ele>
        <time>2018-12-02T08:39:17.000Z</time>
      </trkpt>
      <trkpt lat="42.92212" lon="0.86104">
        <ele>1167</ele>
        <time>2018-12-02T08:39:19.000Z</time>
      </trkpt>
      <trkpt lat="42.92212" lon="0.86104">
        <ele>1167</ele>
        <time>2018-12-02T08:39:21.000Z</time>
      </trkpt>
      <trkpt lat="42.92212" lon="0.86103">
        <ele>1167</ele>
        <time>2018-12-02T08:39:23.000Z</time>
      </trkpt>
      <trkpt lat="42.92212" lon="0.86103">
        <ele>1167</ele>
        <time>2018-12-02T08:39:25.000Z</time>
      </trkpt>
      <trkpt lat="42.92213" lon="0.86103">
        <ele>1167</ele>
        <time>2018-12-02T08:39:27.000Z</time>
      </trkpt>
      <trkpt lat="42.92213" lon="0.86104">
        <ele>1167</ele>
        <time>2018-12-02T08:39:29.000Z</time>
      </trkpt>
      <trkpt lat="42.92213" lon="0.86104">
        <ele>1167</ele>
        <time>2018-12-02T08:39:31.000Z</time>
      </trkpt>
      <trkpt lat="42.92214" lon="0.86105">
        <ele>1167</ele>
        <time>2018-12-02T08:39:33.000Z</time>
      </trkpt>
      <trkpt lat="42.92214" lon="0.86105">
        <ele>1167</ele>
        <time>2018-12-02T08:39:35.000Z</time>
      </trkpt>
      <trkpt lat="42.92214" lon="0.86106">
        <ele>1168</ele>
        <time>2018-12-02T08:39:37.000Z</time>
      </trkpt>
      <trkpt lat="42.92214" lon="0.86105">
        <ele>1168</ele>
        <time>2018-12-02T08:39:39.000Z</time>
      </trkpt>
      <trkpt lat="42.92214" lon="0.86106">
        <ele>1168</ele>
        <time>2018-12-02T08:39:41.000Z</time>
      </trkpt>
      <trkpt lat="42.92214" lon="0.86106">
        <ele>1168</ele>
        <time>2018-12-02T08:39:43.000Z</time>
      </trkpt>
      <trkpt lat="42.92214" lon="0.86105">
        <ele>1168</ele>
        <time>2018-12-02T08:39:45.000Z</time>
      </trkpt>
      <trkpt lat="42.92214" lon="0.86104">
        <ele>1167</ele>
        <time>2018-12-02T08:39:47.000Z</time>
      </trkpt>
      <trkpt lat="42.92214" lon="0.86104">
        <ele>1168</ele>
        <time>2018-12-02T08:39:49.000Z</time>
      </trkpt>
      <trkpt lat="42.92215" lon="0.86104">
        <ele>1168</ele>
        <time>2018-12-02T08:39:51.000Z</time>
      </trkpt>
      <trkpt lat="42.92214" lon="0.86105">
        <ele>1168</ele>
        <time>2018-12-02T08:39:53.000Z</time>
      </trkpt>
      <trkpt lat="42.92215" lon="0.86105">
        <ele>1168</ele>
        <time>2018-12-02T08:39:55.000Z</time>
      </trkpt>
      <trkpt lat="42.92215" lon="0.86105">
        <ele>1168</ele>
        <time>2018-12-02T08:39:57.000Z</time>
      </trkpt>
      <trkpt lat="42.92215" lon="0.86105">
        <ele>1168</ele>
        <time>2018-12-02T08:39:59.000Z</time>
      </trkpt>
      <trkpt lat="42.92215" lon="0.86105">
        <ele>1168</ele>
        <time>2018-12-02T08:40:01.000Z</time>
      </trkpt>
      <trkpt lat="42.92214" lon="0.86105">
        <ele>1168</ele>
        <time>2018-12-02T08:40:03.000Z</time>
      </trkpt>
      <trkpt lat="42.92213" lon="0.86107">
        <ele>1167</ele>
        <time>2018-12-02T08:40:05.000Z</time>
      </trkpt>
      <trkpt lat="42.92213" lon="0.86107">
        <ele>1167</ele>
        <time>2018-12-02T08:40:07.000Z</time>
      </trkpt>
      <trkpt lat="42.92213" lon="0.86108">
        <ele>1167</ele>
        <time>2018-12-02T08:40:09.000Z</time>
      </trkpt>
      <trkpt lat="42.92213" lon="0.86107">
        <ele>1167</ele>
        <time>2018-12-02T08:40:11.000Z</time>
      </trkpt>
      <trkpt lat="42.92214" lon="0.86107">
        <ele>1167</ele>
        <time>2018-12-02T08:40:13.000Z</time>
      </trkpt>
      <trkpt lat="42.92214" lon="0.86107">
        <ele>1167</ele>
        <time>2018-12-02T08:40:15.000Z</time>
      </trkpt>
      <trkpt lat="42.92214" lon="0.86106">
        <ele>1167</ele>
        <time>2018-12-02T08:40:17.000Z</time>
      </trkpt>
      <trkpt lat="42.92214" lon="0.86105">
        <ele>1168</ele>
        <time>2018-12-02T08:40:19.000Z</time>
      </trkpt>
      <trkpt lat="42.92214" lon="0.86105">
        <ele>1168</ele>
        <time>2018-12-02T08:40:21.000Z</time>
      </trkpt>
      <trkpt lat="42.92214" lon="0.86104">
        <ele>1168</ele>
        <time>2018-12-02T08:40:23.000Z</time>
      </trkpt>
      <trkpt lat="42.92214" lon="0.86104">
        <ele>1168</ele>
        <time>2018-12-02T08:40:25.000Z</time>
      </trkpt>
      <trkpt lat="42.92214" lon="0.86104">
        <ele>1167</ele>
        <time>2018-12-02T08:40:27.000Z</time>
      </trkpt>
      <trkpt lat="42.92214" lon="0.86104">
        <ele>1167</ele>
        <time>2018-12-02T08:40:29.000Z</time>
      </trkpt>
      <trkpt lat="42.92214" lon="0.86104">
        <ele>1167</ele>
        <time>2018-12-02T08:40:31.000Z</time>
      </trkpt>
      <trkpt lat="42.92213" lon="0.86104">
        <ele>1167</ele>
        <time>2018-12-02T08:40:33.000Z</time>
      </trkpt>
      <trkpt lat="42.92213" lon="0.86105">
        <ele>1167</ele>
        <time>2018-12-02T08:40:35.000Z</time>
      </trkpt>
      <trkpt lat="42.92213" lon="0.86105">
        <ele>1167</ele>
        <time>2018-12-02T08:40:37.000Z</time>
      </trkpt>
      <trkpt lat="42.92212" lon="0.86105">
        <ele>1167</ele>
        <time>2018-12-02T08:40:39.000Z</time>
      </trkpt>
      <trkpt lat="42.92212" lon="0.86106">
        <ele>1167</ele>
        <time>2018-12-02T08:40:41.000Z</time>
      </trkpt>
      <trkpt lat="42.92212" lon="0.86106">
        <ele>1167</ele>
        <time>2018-12-02T08:40:43.000Z</time>
      </trkpt>
      <trkpt lat="42.92212" lon="0.86107">
        <ele>1166</ele>
        <time>2018-12-02T08:40:45.000Z</time>
      </trkpt>
      <trkpt lat="42.92211" lon="0.86107">
        <ele>1166</ele>
        <time>2018-12-02T08:40:47.000Z</time>
      </trkpt>
      <trkpt lat="42.92211" lon="0.86108">
        <ele>1166</ele>
        <time>2018-12-02T08:40:49.000Z</time>
      </trkpt>
      <trkpt lat="42.92211" lon="0.86108">
        <ele>1166</ele>
        <time>2018-12-02T08:40:51.000Z</time>
      </trkpt>
      <trkpt lat="42.92211" lon="0.86108">
        <ele>1166</ele>
        <time>2018-12-02T08:40:53.000Z</time>
      </trkpt>
      <trkpt lat="42.92211" lon="0.86108">
        <ele>1166</ele>
        <time>2018-12-02T08:40:55.000Z</time>
      </trkpt>
      <trkpt lat="42.92211" lon="0.86107">
        <ele>1166</ele>
        <time>2018-12-02T08:40:57.000Z</time>
      </trkpt>
      <trkpt lat="42.92211" lon="0.86107">
        <ele>1166</ele>
        <time>2018-12-02T08:40:59.000Z</time>
      </trkpt>
      <trkpt lat="42.92211" lon="0.86107">
        <ele>1166</ele>
        <time>2018-12-02T08:41:01.000Z</time>
      </trkpt>
      <trkpt lat="42.9221" lon="0.86107">
        <ele>1166</ele>
        <time>2018-12-02T08:41:03.000Z</time>
      </trkpt>
      <trkpt lat="42.9221" lon="0.86108">
        <ele>1166</ele>
        <time>2018-12-02T08:41:05.000Z</time>
      </trkpt>
      <trkpt lat="42.9221" lon="0.8611">
        <ele>1165</ele>
        <time>2018-12-02T08:41:07.000Z</time>
      </trkpt>
      <trkpt lat="42.9221" lon="0.86109">
        <ele>1166</ele>
        <time>2018-12-02T08:41:09.000Z</time>
      </trkpt>
      <trkpt lat="42.9221" lon="0.86108">
        <ele>1166</ele>
        <time>2018-12-02T08:41:11.000Z</time>
      </trkpt>
      <trkpt lat="42.9221" lon="0.86109">
        <ele>1166</ele>
        <time>2018-12-02T08:41:13.000Z</time>
      </trkpt>
      <trkpt lat="42.92211" lon="0.86108">
        <ele>1166</ele>
        <time>2018-12-02T08:41:15.000Z</time>
      </trkpt>
      <trkpt lat="42.92211" lon="0.86108">
        <ele>1166</ele>
        <time>2018-12-02T08:41:17.000Z</time>
      </trkpt>
      <trkpt lat="42.92211" lon="0.86108">
        <ele>1166</ele>
        <time>2018-12-02T08:41:19.000Z</time>
      </trkpt>
      <trkpt lat="42.92211" lon="0.86108">
        <ele>1166</ele>
        <time>2018-12-02T08:41:21.000Z</time>
      </trkpt>
      <trkpt lat="42.92211" lon="0.86109">
        <ele>1166</ele>
        <time>2018-12-02T08:41:23.000Z</time>
      </trkpt>
      <trkpt lat="42.92211" lon="0.86109">
        <ele>1166</ele>
        <time>2018-12-02T08:41:25.000Z</time>
      </trkpt>
      <trkpt lat="42.92211" lon="0.8611">
        <ele>1166</ele>
        <time>2018-12-02T08:41:27.000Z</time>
      </trkpt>
      <trkpt lat="42.92211" lon="0.8611">
        <ele>1166</ele>
        <time>2018-12-02T08:41:29.000Z</time>
      </trkpt>
      <trkpt lat="42.92211" lon="0.8611">
        <ele>1166</ele>
        <time>2018-12-02T08:41:31.000Z</time>
      </trkpt>
      <trkpt lat="42.92211" lon="0.8611">
        <ele>1166</ele>
        <time>2018-12-02T08:41:33.000Z</time>
      </trkpt>
      <trkpt lat="42.92211" lon="0.86111">
        <ele>1166</ele>
        <time>2018-12-02T08:41:35.000Z</time>
      </trkpt>
      <trkpt lat="42.9221" lon="0.86111">
        <ele>1166</ele>
        <time>2018-12-02T08:41:37.000Z</time>
      </trkpt>
      <trkpt lat="42.9221" lon="0.86111">
        <ele>1166</ele>
        <time>2018-12-02T08:41:39.000Z</time>
      </trkpt>
      <trkpt lat="42.9221" lon="0.86112">
        <ele>1166</ele>
        <time>2018-12-02T08:41:41.000Z</time>
      </trkpt>
      <trkpt lat="42.9221" lon="0.86112">
        <ele>1166</ele>
        <time>2018-12-02T08:41:43.000Z</time>
      </trkpt>
      <trkpt lat="42.9221" lon="0.86111">
        <ele>1166</ele>
        <time>2018-12-02T08:41:45.000Z</time>
      </trkpt>
      <trkpt lat="42.9221" lon="0.8611">
        <ele>1166</ele>
        <time>2018-12-02T08:41:47.000Z</time>
      </trkpt>
      <trkpt lat="42.9221" lon="0.86111">
        <ele>1166</ele>
        <time>2018-12-02T08:41:49.000Z</time>
      </trkpt>
      <trkpt lat="42.9221" lon="0.8611">
        <ele>1166</ele>
        <time>2018-12-02T08:41:51.000Z</time>
      </trkpt>
      <trkpt lat="42.92211" lon="0.86109">
        <ele>1166</ele>
        <time>2018-12-02T08:41:53.000Z</time>
      </trkpt>
      <trkpt lat="42.92211" lon="0.86108">
        <ele>1166</ele>
        <time>2018-12-02T08:41:55.000Z</time>
      </trkpt>
      <trkpt lat="42.92211" lon="0.86107">
        <ele>1166</ele>
        <time>2018-12-02T08:41:57.000Z</time>
      </trkpt>
      <trkpt lat="42.92211" lon="0.86107">
        <ele>1166</ele>
        <time>2018-12-02T08:41:59.000Z</time>
      </trkpt>
      <trkpt lat="42.92211" lon="0.86107">
        <ele>1166</ele>
        <time>2018-12-02T08:42:01.000Z</time>
      </trkpt>
      <trkpt lat="42.92211" lon="0.86107">
        <ele>1166</ele>
        <time>2018-12-02T08:42:03.000Z</time>
      </trkpt>
      <trkpt lat="42.92211" lon="0.86108">
        <ele>1166</ele>
        <time>2018-12-02T08:42:05.000Z</time>
      </trkpt>
      <trkpt lat="42.9221" lon="0.86109">
        <ele>1166</ele>
        <time>2018-12-02T08:42:07.000Z</time>
      </trkpt>
      <trkpt lat="42.9221" lon="0.8611">
        <ele>1166</ele>
        <time>2018-12-02T08:42:09.000Z</time>
      </trkpt>
      <trkpt lat="42.9221" lon="0.8611">
        <ele>1166</ele>
        <time>2018-12-02T08:42:11.000Z</time>
      </trkpt>
      <trkpt lat="42.9221" lon="0.86111">
        <ele>1166</ele>
        <time>2018-12-02T08:42:13.000Z</time>
      </trkpt>
      <trkpt lat="42.9221" lon="0.86111">
        <ele>1166</ele>
        <time>2018-12-02T08:42:15.000Z</time>
      </trkpt>
      <trkpt lat="42.92211" lon="0.86111">
        <ele>1166</ele>
        <time>2018-12-02T08:42:17.000Z</time>
      </trkpt>
      <trkpt lat="42.9221" lon="0.86111">
        <ele>1166</ele>
        <time>2018-12-02T08:42:19.000Z</time>
      </trkpt>
      <trkpt lat="42.9221" lon="0.86112">
        <ele>1166</ele>
        <time>2018-12-02T08:42:21.000Z</time>
      </trkpt>
      <trkpt lat="42.92211" lon="0.86112">
        <ele>1166</ele>
        <time>2018-12-02T08:42:23.000Z</time>
      </trkpt>
      <trkpt lat="42.92211" lon="0.86111">
        <ele>1166</ele>
        <time>2018-12-02T08:42:25.000Z</time>
      </trkpt>
      <trkpt lat="42.92211" lon="0.86111">
        <ele>1166</ele>
        <time>2018-12-02T08:42:27.000Z</time>
      </trkpt>
      <trkpt lat="42.92211" lon="0.86111">
        <ele>1166</ele>
        <time>2018-12-02T08:42:29.000Z</time>
      </trkpt>
      <trkpt lat="42.92211" lon="0.86111">
        <ele>1166</ele>
        <time>2018-12-02T08:42:31.000Z</time>
      </trkpt>
      <trkpt lat="42.92211" lon="0.86111">
        <ele>1166</ele>
        <time>2018-12-02T08:42:33.000Z</time>
      </trkpt>
      <trkpt lat="42.92211" lon="0.8611">
        <ele>1166</ele>
        <time>2018-12-02T08:42:35.000Z</time>
      </trkpt>
      <trkpt lat="42.92212" lon="0.8611">
        <ele>1166</ele>
        <time>2018-12-02T08:42:37.000Z</time>
      </trkpt>
      <trkpt lat="42.92212" lon="0.8611">
        <ele>1167</ele>
        <time>2018-12-02T08:42:39.000Z</time>
      </trkpt>
      <trkpt lat="42.92212" lon="0.86109">
        <ele>1167</ele>
        <time>2018-12-02T08:42:41.000Z</time>
      </trkpt>
      <trkpt lat="42.92212" lon="0.86109">
        <ele>1167</ele>
        <time>2018-12-02T08:42:43.000Z</time>
      </trkpt>
      <trkpt lat="42.92212" lon="0.86108">
        <ele>1167</ele>
        <time>2018-12-02T08:42:45.000Z</time>
      </trkpt>
      <trkpt lat="42.92212" lon="0.86108">
        <ele>1167</ele>
        <time>2018-12-02T08:42:47.000Z</time>
      </trkpt>
      <trkpt lat="42.92213" lon="0.86106">
        <ele>1167</ele>
        <time>2018-12-02T08:42:49.000Z</time>
      </trkpt>
      <trkpt lat="42.92212" lon="0.86105">
        <ele>1167</ele>
        <time>2018-12-02T08:42:51.000Z</time>
      </trkpt>
      <trkpt lat="42.92213" lon="0.86104">
        <ele>1167</ele>
        <time>2018-12-02T08:42:53.000Z</time>
      </trkpt>
      <trkpt lat="42.92213" lon="0.86103">
        <ele>1167</ele>
        <time>2018-12-02T08:42:55.000Z</time>
      </trkpt>
      <trkpt lat="42.92213" lon="0.86103">
        <ele>1167</ele>
        <time>2018-12-02T08:42:57.000Z</time>
      </trkpt>
      <trkpt lat="42.92214" lon="0.86103">
        <ele>1167</ele>
        <time>2018-12-02T08:42:59.000Z</time>
      </trkpt>
      <trkpt lat="42.92214" lon="0.86103">
        <ele>1168</ele>
        <time>2018-12-02T08:43:01.000Z</time>
      </trkpt>
      <trkpt lat="42.92215" lon="0.86101">
        <ele>1168</ele>
        <time>2018-12-02T08:43:03.000Z</time>
      </trkpt>
      <trkpt lat="42.92216" lon="0.86101">
        <ele>1168</ele>
        <time>2018-12-02T08:43:05.000Z</time>
      </trkpt>
      <trkpt lat="42.92216" lon="0.86101">
        <ele>1168</ele>
        <time>2018-12-02T08:43:07.000Z</time>
      </trkpt>
      <trkpt lat="42.92216" lon="0.86101">
        <ele>1168</ele>
        <time>2018-12-02T08:43:09.000Z</time>
      </trkpt>
      <trkpt lat="42.92216" lon="0.86102">
        <ele>1169</ele>
        <time>2018-12-02T08:43:11.000Z</time>
      </trkpt>
      <trkpt lat="42.92216" lon="0.86103">
        <ele>1169</ele>
        <time>2018-12-02T08:43:13.000Z</time>
      </trkpt>
      <trkpt lat="42.92216" lon="0.86104">
        <ele>1169</ele>
        <time>2018-12-02T08:43:15.000Z</time>
      </trkpt>
      <trkpt lat="42.92215" lon="0.86104">
        <ele>1168</ele>
        <time>2018-12-02T08:43:17.000Z</time>
      </trkpt>
      <trkpt lat="42.92215" lon="0.86105">
        <ele>1168</ele>
        <time>2018-12-02T08:43:19.000Z</time>
      </trkpt>
      <trkpt lat="42.92215" lon="0.86105">
        <ele>1168</ele>
        <time>2018-12-02T08:43:21.000Z</time>
      </trkpt>
      <trkpt lat="42.92215" lon="0.86105">
        <ele>1168</ele>
        <time>2018-12-02T08:43:23.000Z</time>
      </trkpt>
      <trkpt lat="42.92215" lon="0.86105">
        <ele>1168</ele>
        <time>2018-12-02T08:43:25.000Z</time>
      </trkpt>
      <trkpt lat="42.92215" lon="0.86104">
        <ele>1168</ele>
        <time>2018-12-02T08:43:27.000Z</time>
      </trkpt>
      <trkpt lat="42.92215" lon="0.86104">
        <ele>1168</ele>
        <time>2018-12-02T08:43:29.000Z</time>
      </trkpt>
      <trkpt lat="42.92215" lon="0.86104">
        <ele>1168</ele>
        <time>2018-12-02T08:43:31.000Z</time>
      </trkpt>
      <trkpt lat="42.92215" lon="0.86103">
        <ele>1168</ele>
        <time>2018-12-02T08:43:33.000Z</time>
      </trkpt>
      <trkpt lat="42.92215" lon="0.86103">
        <ele>1168</ele>
        <time>2018-12-02T08:43:35.000Z</time>
      </trkpt>
      <trkpt lat="42.92215" lon="0.86103">
        <ele>1168</ele>
        <time>2018-12-02T08:43:37.000Z</time>
      </trkpt>
      <trkpt lat="42.92215" lon="0.86103">
        <ele>1168</ele>
        <time>2018-12-02T08:43:39.000Z</time>
      </trkpt>
      <trkpt lat="42.92216" lon="0.86103">
        <ele>1168</ele>
        <time>2018-12-02T08:43:41.000Z</time>
      </trkpt>
      <trkpt lat="42.92215" lon="0.86102">
        <ele>1168</ele>
        <time>2018-12-02T08:43:43.000Z</time>
      </trkpt>
      <trkpt lat="42.92215" lon="0.86102">
        <ele>1168</ele>
        <time>2018-12-02T08:43:45.000Z</time>
      </trkpt>
      <trkpt lat="42.92215" lon="0.86102">
        <ele>1168</ele>
        <time>2018-12-02T08:43:47.000Z</time>
      </trkpt>
      <trkpt lat="42.92215" lon="0.86101">
        <ele>1168</ele>
        <time>2018-12-02T08:43:49.000Z</time>
      </trkpt>
      <trkpt lat="42.92215" lon="0.861">
        <ele>1168</ele>
        <time>2018-12-02T08:43:51.000Z</time>
      </trkpt>
      <trkpt lat="42.92215" lon="0.861">
        <ele>1168</ele>
        <time>2018-12-02T08:43:53.000Z</time>
      </trkpt>
      <trkpt lat="42.92215" lon="0.861">
        <ele>1168</ele>
        <time>2018-12-02T08:43:55.000Z</time>
      </trkpt>
      <trkpt lat="42.92215" lon="0.861">
        <ele>1168</ele>
        <time>2018-12-02T08:43:57.000Z</time>
      </trkpt>
      <trkpt lat="42.92215" lon="0.861">
        <ele>1168</ele>
        <time>2018-12-02T08:43:59.000Z</time>
      </trkpt>
      <trkpt lat="42.92216" lon="0.86099">
        <ele>1168</ele>
        <time>2018-12-02T08:44:01.000Z</time>
      </trkpt>
      <trkpt lat="42.92216" lon="0.86098">
        <ele>1168</ele>
        <time>2018-12-02T08:44:03.000Z</time>
      </trkpt>
      <trkpt lat="42.92216" lon="0.86099">
        <ele>1168</ele>
        <time>2018-12-02T08:44:05.000Z</time>
      </trkpt>
      <trkpt lat="42.92216" lon="0.86099">
        <ele>1168</ele>
        <time>2018-12-02T08:44:07.000Z</time>
      </trkpt>
      <trkpt lat="42.92217" lon="0.86099">
        <ele>1169</ele>
        <time>2018-12-02T08:44:09.000Z</time>
      </trkpt>
      <trkpt lat="42.92217" lon="0.86099">
        <ele>1169</ele>
        <time>2018-12-02T08:44:11.000Z</time>
      </trkpt>
      <trkpt lat="42.92218" lon="0.86098">
        <ele>1169</ele>
        <time>2018-12-02T08:44:13.000Z</time>
      </trkpt>
      <trkpt lat="42.92219" lon="0.86097">
        <ele>1170</ele>
        <time>2018-12-02T08:44:15.000Z</time>
      </trkpt>
      <trkpt lat="42.92221" lon="0.86095">
        <ele>1171</ele>
        <time>2018-12-02T08:44:17.000Z</time>
      </trkpt>
      <trkpt lat="42.92222" lon="0.86093">
        <ele>1172</ele>
        <time>2018-12-02T08:44:19.000Z</time>
      </trkpt>
      <trkpt lat="42.92223" lon="0.86091">
        <ele>1173</ele>
        <time>2018-12-02T08:44:21.000Z</time>
      </trkpt>
      <trkpt lat="42.92223" lon="0.86089">
        <ele>1174</ele>
        <time>2018-12-02T08:44:23.000Z</time>
      </trkpt>
      <trkpt lat="42.92225" lon="0.86087">
        <ele>1175</ele>
        <time>2018-12-02T08:44:25.000Z</time>
      </trkpt>
      <trkpt lat="42.92225" lon="0.86085">
        <ele>1175</ele>
        <time>2018-12-02T08:44:27.000Z</time>
      </trkpt>
      <trkpt lat="42.92226" lon="0.86082">
        <ele>1176</ele>
        <time>2018-12-02T08:44:29.000Z</time>
      </trkpt>
      <trkpt lat="42.92227" lon="0.8608">
        <ele>1177</ele>
        <time>2018-12-02T08:44:31.000Z</time>
      </trkpt>
      <trkpt lat="42.92227" lon="0.86078">
        <ele>1177</ele>
        <time>2018-12-02T08:44:33.000Z</time>
      </trkpt>
      <trkpt lat="42.92228" lon="0.86076">
        <ele>1177</ele>
        <time>2018-12-02T08:44:35.000Z</time>
      </trkpt>
      <trkpt lat="42.92229" lon="0.86074">
        <ele>1179</ele>
        <time>2018-12-02T08:44:37.000Z</time>
      </trkpt>
      <trkpt lat="42.9223" lon="0.86072">
        <ele>1179</ele>
        <time>2018-12-02T08:44:39.000Z</time>
      </trkpt>
      <trkpt lat="42.9223" lon="0.86071">
        <ele>1179</ele>
        <time>2018-12-02T08:44:41.000Z</time>
      </trkpt>
      <trkpt lat="42.92231" lon="0.86069">
        <ele>1180</ele>
        <time>2018-12-02T08:44:43.000Z</time>
      </trkpt>
      <trkpt lat="42.92232" lon="0.86066">
        <ele>1181</ele>
        <time>2018-12-02T08:44:45.000Z</time>
      </trkpt>
      <trkpt lat="42.92233" lon="0.86063">
        <ele>1182</ele>
        <time>2018-12-02T08:44:47.000Z</time>
      </trkpt>
      <trkpt lat="42.92234" lon="0.86061">
        <ele>1183</ele>
        <time>2018-12-02T08:44:49.000Z</time>
      </trkpt>
      <trkpt lat="42.92235" lon="0.86058">
        <ele>1184</ele>
        <time>2018-12-02T08:44:51.000Z</time>
      </trkpt>
      <trkpt lat="42.92236" lon="0.86055">
        <ele>1184</ele>
        <time>2018-12-02T08:44:53.000Z</time>
      </trkpt>
      <trkpt lat="42.92237" lon="0.86053">
        <ele>1185</ele>
        <time>2018-12-02T08:44:55.000Z</time>
      </trkpt>
      <trkpt lat="42.92237" lon="0.8605">
        <ele>1185</ele>
        <time>2018-12-02T08:44:57.000Z</time>
      </trkpt>
      <trkpt lat="42.92238" lon="0.86049">
        <ele>1185</ele>
        <time>2018-12-02T08:44:59.000Z</time>
      </trkpt>
      <trkpt lat="42.92239" lon="0.86048">
        <ele>1186</ele>
        <time>2018-12-02T08:45:01.000Z</time>
      </trkpt>
      <trkpt lat="42.92239" lon="0.86046">
        <ele>1186</ele>
        <time>2018-12-02T08:45:03.000Z</time>
      </trkpt>
      <trkpt lat="42.92239" lon="0.86044">
        <ele>1186</ele>
        <time>2018-12-02T08:45:05.000Z</time>
      </trkpt>
      <trkpt lat="42.92239" lon="0.86042">
        <ele>1186</ele>
        <time>2018-12-02T08:45:07.000Z</time>
      </trkpt>
      <trkpt lat="42.9224" lon="0.8604">
        <ele>1186</ele>
        <time>2018-12-02T08:45:09.000Z</time>
      </trkpt>
      <trkpt lat="42.92241" lon="0.86036">
        <ele>1187</ele>
        <time>2018-12-02T08:45:11.000Z</time>
      </trkpt>
      <trkpt lat="42.92243" lon="0.86032">
        <ele>1188</ele>
        <time>2018-12-02T08:45:15.000Z</time>
      </trkpt>
      <trkpt lat="42.92244" lon="0.86028">
        <ele>1189</ele>
        <time>2018-12-02T08:45:17.000Z</time>
      </trkpt>
      <trkpt lat="42.92245" lon="0.86024">
        <ele>1190</ele>
        <time>2018-12-02T08:45:19.000Z</time>
      </trkpt>
      <trkpt lat="42.92246" lon="0.86023">
        <ele>1190</ele>
        <time>2018-12-02T08:45:21.000Z</time>
      </trkpt>
      <trkpt lat="42.92247" lon="0.86019">
        <ele>1191</ele>
        <time>2018-12-02T08:45:23.000Z</time>
      </trkpt>
      <trkpt lat="42.92246" lon="0.86013">
        <ele>1190</ele>
        <time>2018-12-02T08:45:25.000Z</time>
      </trkpt>
      <trkpt lat="42.92246" lon="0.86009">
        <ele>1191</ele>
        <time>2018-12-02T08:45:27.000Z</time>
      </trkpt>
      <trkpt lat="42.92246" lon="0.86006">
        <ele>1190</ele>
        <time>2018-12-02T08:45:29.000Z</time>
      </trkpt>
      <trkpt lat="42.92245" lon="0.86004">
        <ele>1190</ele>
        <time>2018-12-02T08:45:31.000Z</time>
      </trkpt>
      <trkpt lat="42.92244" lon="0.85999">
        <ele>1189</ele>
        <time>2018-12-02T08:45:34.000Z</time>
      </trkpt>
      <trkpt lat="42.92244" lon="0.85997">
        <ele>1189</ele>
        <time>2018-12-02T08:45:36.000Z</time>
      </trkpt>
      <trkpt lat="42.92244" lon="0.85994">
        <ele>1189</ele>
        <time>2018-12-02T08:45:38.000Z</time>
      </trkpt>
      <trkpt lat="42.92243" lon="0.85992">
        <ele>1189</ele>
        <time>2018-12-02T08:45:40.000Z</time>
      </trkpt>
      <trkpt lat="42.92243" lon="0.8599">
        <ele>1188</ele>
        <time>2018-12-02T08:45:42.000Z</time>
      </trkpt>
      <trkpt lat="42.92242" lon="0.85987">
        <ele>1188</ele>
        <time>2018-12-02T08:45:44.000Z</time>
      </trkpt>
      <trkpt lat="42.92241" lon="0.85985">
        <ele>1188</ele>
        <time>2018-12-02T08:45:46.000Z</time>
      </trkpt>
      <trkpt lat="42.9224" lon="0.85983">
        <ele>1187</ele>
        <time>2018-12-02T08:45:48.000Z</time>
      </trkpt>
      <trkpt lat="42.9224" lon="0.85982">
        <ele>1187</ele>
        <time>2018-12-02T08:45:50.000Z</time>
      </trkpt>
      <trkpt lat="42.92241" lon="0.85981">
        <ele>1187</ele>
        <time>2018-12-02T08:45:52.000Z</time>
      </trkpt>
      <trkpt lat="42.92241" lon="0.85981">
        <ele>1187</ele>
        <time>2018-12-02T08:45:54.000Z</time>
      </trkpt>
      <trkpt lat="42.92241" lon="0.85981">
        <ele>1187</ele>
        <time>2018-12-02T08:45:56.000Z</time>
      </trkpt>
      <trkpt lat="42.92239" lon="0.85979">
        <ele>1186</ele>
        <time>2018-12-02T08:45:59.000Z</time>
      </trkpt>
      <trkpt lat="42.92239" lon="0.85977">
        <ele>1186</ele>
        <time>2018-12-02T08:46:01.000Z</time>
      </trkpt>
      <trkpt lat="42.92238" lon="0.85976">
        <ele>1185</ele>
        <time>2018-12-02T08:46:03.000Z</time>
      </trkpt>
      <trkpt lat="42.92237" lon="0.85973">
        <ele>1185</ele>
        <time>2018-12-02T08:46:05.000Z</time>
      </trkpt>
      <trkpt lat="42.92236" lon="0.85969">
        <ele>1186</ele>
        <time>2018-12-02T08:46:07.000Z</time>
      </trkpt>
      <trkpt lat="42.92236" lon="0.85965">
        <ele>1187</ele>
        <time>2018-12-02T08:46:09.000Z</time>
      </trkpt>
      <trkpt lat="42.92235" lon="0.85962">
        <ele>1188</ele>
        <time>2018-12-02T08:46:11.000Z</time>
      </trkpt>
      <trkpt lat="42.92235" lon="0.85959">
        <ele>1188</ele>
        <time>2018-12-02T08:46:13.000Z</time>
      </trkpt>
      <trkpt lat="42.92233" lon="0.85957">
        <ele>1188</ele>
        <time>2018-12-02T08:46:15.000Z</time>
      </trkpt>
      <trkpt lat="42.92233" lon="0.85954">
        <ele>1188</ele>
        <time>2018-12-02T08:46:17.000Z</time>
      </trkpt>
      <trkpt lat="42.92231" lon="0.85953">
        <ele>1188</ele>
        <time>2018-12-02T08:46:19.000Z</time>
      </trkpt>
      <trkpt lat="42.9223" lon="0.8595">
        <ele>1188</ele>
        <time>2018-12-02T08:46:21.000Z</time>
      </trkpt>
      <trkpt lat="42.92229" lon="0.85949">
        <ele>1188</ele>
        <time>2018-12-02T08:46:23.000Z</time>
      </trkpt>
      <trkpt lat="42.92227" lon="0.85948">
        <ele>1187</ele>
        <time>2018-12-02T08:46:25.000Z</time>
      </trkpt>
      <trkpt lat="42.92225" lon="0.85946">
        <ele>1186</ele>
        <time>2018-12-02T08:46:27.000Z</time>
      </trkpt>
      <trkpt lat="42.92223" lon="0.85943">
        <ele>1186</ele>
        <time>2018-12-02T08:46:30.000Z</time>
      </trkpt>
      <trkpt lat="42.92222" lon="0.85941">
        <ele>1186</ele>
        <time>2018-12-02T08:46:33.000Z</time>
      </trkpt>
      <trkpt lat="42.92221" lon="0.85938">
        <ele>1187</ele>
        <time>2018-12-02T08:46:35.000Z</time>
      </trkpt>
      <trkpt lat="42.92219" lon="0.85934">
        <ele>1187</ele>
        <time>2018-12-02T08:46:38.000Z</time>
      </trkpt>
      <trkpt lat="42.92217" lon="0.85933">
        <ele>1186</ele>
        <time>2018-12-02T08:46:41.000Z</time>
      </trkpt>
      <trkpt lat="42.92215" lon="0.85931">
        <ele>1185</ele>
        <time>2018-12-02T08:46:43.000Z</time>
      </trkpt>
      <trkpt lat="42.92214" lon="0.85929">
        <ele>1185</ele>
        <time>2018-12-02T08:46:45.000Z</time>
      </trkpt>
      <trkpt lat="42.92212" lon="0.85927">
        <ele>1185</ele>
        <time>2018-12-02T08:46:48.000Z</time>
      </trkpt>
      <trkpt lat="42.92211" lon="0.85925">
        <ele>1184</ele>
        <time>2018-12-02T08:46:51.000Z</time>
      </trkpt>
      <trkpt lat="42.92209" lon="0.85923">
        <ele>1184</ele>
        <time>2018-12-02T08:46:53.000Z</time>
      </trkpt>
      <trkpt lat="42.92208" lon="0.85921">
        <ele>1184</ele>
        <time>2018-12-02T08:46:56.000Z</time>
      </trkpt>
      <trkpt lat="42.92207" lon="0.85918">
        <ele>1184</ele>
        <time>2018-12-02T08:46:59.000Z</time>
      </trkpt>
      <trkpt lat="42.92206" lon="0.85916">
        <ele>1184</ele>
        <time>2018-12-02T08:47:01.000Z</time>
      </trkpt>
      <trkpt lat="42.92206" lon="0.85913">
        <ele>1185</ele>
        <time>2018-12-02T08:47:03.000Z</time>
      </trkpt>
      <trkpt lat="42.92205" lon="0.8591">
        <ele>1185</ele>
        <time>2018-12-02T08:47:05.000Z</time>
      </trkpt>
      <trkpt lat="42.92205" lon="0.85908">
        <ele>1185</ele>
        <time>2018-12-02T08:47:07.000Z</time>
      </trkpt>
      <trkpt lat="42.92203" lon="0.85904">
        <ele>1186</ele>
        <time>2018-12-02T08:47:10.000Z</time>
      </trkpt>
      <trkpt lat="42.92202" lon="0.85901">
        <ele>1186</ele>
        <time>2018-12-02T08:47:13.000Z</time>
      </trkpt>
      <trkpt lat="42.92201" lon="0.85897">
        <ele>1186</ele>
        <time>2018-12-02T08:47:16.000Z</time>
      </trkpt>
      <trkpt lat="42.92199" lon="0.85895">
        <ele>1186</ele>
        <time>2018-12-02T08:47:19.000Z</time>
      </trkpt>
      <trkpt lat="42.92199" lon="0.85892">
        <ele>1186</ele>
        <time>2018-12-02T08:47:21.000Z</time>
      </trkpt>
      <trkpt lat="42.92197" lon="0.85889">
        <ele>1186</ele>
        <time>2018-12-02T08:47:23.000Z</time>
      </trkpt>
      <trkpt lat="42.92195" lon="0.85887">
        <ele>1186</ele>
        <time>2018-12-02T08:47:26.000Z</time>
      </trkpt>
      <trkpt lat="42.92194" lon="0.85884">
        <ele>1186</ele>
        <time>2018-12-02T08:47:29.000Z</time>
      </trkpt>
      <trkpt lat="42.92192" lon="0.85882">
        <ele>1185</ele>
        <time>2018-12-02T08:47:31.000Z</time>
      </trkpt>
      <trkpt lat="42.92191" lon="0.8588">
        <ele>1185</ele>
        <time>2018-12-02T08:47:34.000Z</time>
      </trkpt>
      <trkpt lat="42.92188" lon="0.85876">
        <ele>1185</ele>
        <time>2018-12-02T08:47:37.000Z</time>
      </trkpt>
      <trkpt lat="42.92186" lon="0.85872">
        <ele>1185</ele>
        <time>2018-12-02T08:47:40.000Z</time>
      </trkpt>
      <trkpt lat="42.92184" lon="0.85869">
        <ele>1185</ele>
        <time>2018-12-02T08:47:43.000Z</time>
      </trkpt>
      <trkpt lat="42.92182" lon="0.85864">
        <ele>1185</ele>
        <time>2018-12-02T08:47:45.000Z</time>
      </trkpt>
      <trkpt lat="42.9218" lon="0.85861">
        <ele>1186</ele>
        <time>2018-12-02T08:47:48.000Z</time>
      </trkpt>
      <trkpt lat="42.92179" lon="0.85856">
        <ele>1186</ele>
        <time>2018-12-02T08:47:52.000Z</time>
      </trkpt>
      <trkpt lat="42.92177" lon="0.85851">
        <ele>1187</ele>
        <time>2018-12-02T08:47:55.000Z</time>
      </trkpt>
      <trkpt lat="42.92176" lon="0.85847">
        <ele>1187</ele>
        <time>2018-12-02T08:47:58.000Z</time>
      </trkpt>
      <trkpt lat="42.92175" lon="0.85844">
        <ele>1188</ele>
        <time>2018-12-02T08:48:01.000Z</time>
      </trkpt>
      <trkpt lat="42.92174" lon="0.85842">
        <ele>1188</ele>
        <time>2018-12-02T08:48:03.000Z</time>
      </trkpt>
      <trkpt lat="42.92172" lon="0.85837">
        <ele>1189</ele>
        <time>2018-12-02T08:48:06.000Z</time>
      </trkpt>
      <trkpt lat="42.92171" lon="0.85835">
        <ele>1188</ele>
        <time>2018-12-02T08:48:09.000Z</time>
      </trkpt>
      <trkpt lat="42.9217" lon="0.85831">
        <ele>1189</ele>
        <time>2018-12-02T08:48:11.000Z</time>
      </trkpt>
      <trkpt lat="42.9217" lon="0.85829">
        <ele>1190</ele>
        <time>2018-12-02T08:48:13.000Z</time>
      </trkpt>
      <trkpt lat="42.92169" lon="0.85826">
        <ele>1190</ele>
        <time>2018-12-02T08:48:16.000Z</time>
      </trkpt>
      <trkpt lat="42.92169" lon="0.85822">
        <ele>1191</ele>
        <time>2018-12-02T08:48:19.000Z</time>
      </trkpt>
      <trkpt lat="42.92169" lon="0.85821">
        <ele>1191</ele>
        <time>2018-12-02T08:48:21.000Z</time>
      </trkpt>
      <trkpt lat="42.92169" lon="0.85818">
        <ele>1192</ele>
        <time>2018-12-02T08:48:24.000Z</time>
      </trkpt>
      <trkpt lat="42.92169" lon="0.85814">
        <ele>1194</ele>
        <time>2018-12-02T08:48:27.000Z</time>
      </trkpt>
      <trkpt lat="42.92169" lon="0.85812">
        <ele>1194</ele>
        <time>2018-12-02T08:48:29.000Z</time>
      </trkpt>
      <trkpt lat="42.9217" lon="0.85808">
        <ele>1196</ele>
        <time>2018-12-02T08:48:32.000Z</time>
      </trkpt>
      <trkpt lat="42.92171" lon="0.85804">
        <ele>1197</ele>
        <time>2018-12-02T08:48:36.000Z</time>
      </trkpt>
      <trkpt lat="42.92172" lon="0.85799">
        <ele>1198</ele>
        <time>2018-12-02T08:48:38.000Z</time>
      </trkpt>
      <trkpt lat="42.92172" lon="0.85794">
        <ele>1199</ele>
        <time>2018-12-02T08:48:41.000Z</time>
      </trkpt>
      <trkpt lat="42.92173" lon="0.8579">
        <ele>1199</ele>
        <time>2018-12-02T08:48:43.000Z</time>
      </trkpt>
      <trkpt lat="42.92173" lon="0.85786">
        <ele>1200</ele>
        <time>2018-12-02T08:48:47.000Z</time>
      </trkpt>
      <trkpt lat="42.92173" lon="0.85782">
        <ele>1200</ele>
        <time>2018-12-02T08:48:49.000Z</time>
      </trkpt>
      <trkpt lat="42.92173" lon="0.85778">
        <ele>1200</ele>
        <time>2018-12-02T08:48:52.000Z</time>
      </trkpt>
      <trkpt lat="42.92174" lon="0.85773">
        <ele>1200</ele>
        <time>2018-12-02T08:48:55.000Z</time>
      </trkpt>
      <trkpt lat="42.92174" lon="0.85769">
        <ele>1201</ele>
        <time>2018-12-02T08:48:58.000Z</time>
      </trkpt>
      <trkpt lat="42.92174" lon="0.85766">
        <ele>1201</ele>
        <time>2018-12-02T08:49:00.000Z</time>
      </trkpt>
      <trkpt lat="42.92175" lon="0.85763">
        <ele>1202</ele>
        <time>2018-12-02T08:49:02.000Z</time>
      </trkpt>
      <trkpt lat="42.92176" lon="0.85759">
        <ele>1202</ele>
        <time>2018-12-02T08:49:05.000Z</time>
      </trkpt>
      <trkpt lat="42.92176" lon="0.85757">
        <ele>1203</ele>
        <time>2018-12-02T08:49:08.000Z</time>
      </trkpt>
      <trkpt lat="42.92177" lon="0.85756">
        <ele>1203</ele>
        <time>2018-12-02T08:49:10.000Z</time>
      </trkpt>
      <trkpt lat="42.92177" lon="0.85755">
        <ele>1203</ele>
        <time>2018-12-02T08:49:12.000Z</time>
      </trkpt>
      <trkpt lat="42.92177" lon="0.85753">
        <ele>1203</ele>
        <time>2018-12-02T08:49:15.000Z</time>
      </trkpt>
      <trkpt lat="42.92177" lon="0.85752">
        <ele>1203</ele>
        <time>2018-12-02T08:49:18.000Z</time>
      </trkpt>
      <trkpt lat="42.92177" lon="0.85752">
        <ele>1203</ele>
        <time>2018-12-02T08:49:20.000Z</time>
      </trkpt>
      <trkpt lat="42.92177" lon="0.85753">
        <ele>1203</ele>
        <time>2018-12-02T08:49:22.000Z</time>
      </trkpt>
      <trkpt lat="42.92176" lon="0.85755">
        <ele>1203</ele>
        <time>2018-12-02T08:49:24.000Z</time>
      </trkpt>
      <trkpt lat="42.92178" lon="0.85751">
        <ele>1203</ele>
        <time>2018-12-02T08:49:27.000Z</time>
      </trkpt>
      <trkpt lat="42.92178" lon="0.85747">
        <ele>1204</ele>
        <time>2018-12-02T08:49:30.000Z</time>
      </trkpt>
      <trkpt lat="42.92177" lon="0.85745">
        <ele>1204</ele>
        <time>2018-12-02T08:49:32.000Z</time>
      </trkpt>
      <trkpt lat="42.92177" lon="0.85742">
        <ele>1204</ele>
        <time>2018-12-02T08:49:34.000Z</time>
      </trkpt>
      <trkpt lat="42.92176" lon="0.8574">
        <ele>1203</ele>
        <time>2018-12-02T08:49:36.000Z</time>
      </trkpt>
      <trkpt lat="42.92176" lon="0.85738">
        <ele>1203</ele>
        <time>2018-12-02T08:49:38.000Z</time>
      </trkpt>
      <trkpt lat="42.92176" lon="0.85734">
        <ele>1203</ele>
        <time>2018-12-02T08:49:41.000Z</time>
      </trkpt>
      <trkpt lat="42.92175" lon="0.85731">
        <ele>1203</ele>
        <time>2018-12-02T08:49:43.000Z</time>
      </trkpt>
      <trkpt lat="42.92175" lon="0.85727">
        <ele>1203</ele>
        <time>2018-12-02T08:49:46.000Z</time>
      </trkpt>
      <trkpt lat="42.92175" lon="0.85725">
        <ele>1203</ele>
        <time>2018-12-02T08:49:48.000Z</time>
      </trkpt>
      <trkpt lat="42.92175" lon="0.85721">
        <ele>1203</ele>
        <time>2018-12-02T08:49:51.000Z</time>
      </trkpt>
      <trkpt lat="42.92175" lon="0.85718">
        <ele>1203</ele>
        <time>2018-12-02T08:49:53.000Z</time>
      </trkpt>
      <trkpt lat="42.92175" lon="0.85714">
        <ele>1203</ele>
        <time>2018-12-02T08:49:56.000Z</time>
      </trkpt>
      <trkpt lat="42.92175" lon="0.85712">
        <ele>1203</ele>
        <time>2018-12-02T08:49:59.000Z</time>
      </trkpt>
      <trkpt lat="42.92174" lon="0.8571">
        <ele>1202</ele>
        <time>2018-12-02T08:50:01.000Z</time>
      </trkpt>
      <trkpt lat="42.92174" lon="0.85706">
        <ele>1202</ele>
        <time>2018-12-02T08:50:04.000Z</time>
      </trkpt>
      <trkpt lat="42.92174" lon="0.85702">
        <ele>1202</ele>
        <time>2018-12-02T08:50:06.000Z</time>
      </trkpt>
      <trkpt lat="42.92174" lon="0.85699">
        <ele>1202</ele>
        <time>2018-12-02T08:50:08.000Z</time>
      </trkpt>
      <trkpt lat="42.92174" lon="0.85695">
        <ele>1202</ele>
        <time>2018-12-02T08:50:10.000Z</time>
      </trkpt>
      <trkpt lat="42.92174" lon="0.85693">
        <ele>1201</ele>
        <time>2018-12-02T08:50:12.000Z</time>
      </trkpt>
      <trkpt lat="42.92174" lon="0.8569">
        <ele>1201</ele>
        <time>2018-12-02T08:50:14.000Z</time>
      </trkpt>
      <trkpt lat="42.92174" lon="0.85685">
        <ele>1201</ele>
        <time>2018-12-02T08:50:17.000Z</time>
      </trkpt>
      <trkpt lat="42.92175" lon="0.85682">
        <ele>1201</ele>
        <time>2018-12-02T08:50:19.000Z</time>
      </trkpt>
      <trkpt lat="42.92175" lon="0.85679">
        <ele>1201</ele>
        <time>2018-12-02T08:50:21.000Z</time>
      </trkpt>
      <trkpt lat="42.92176" lon="0.85675">
        <ele>1201</ele>
        <time>2018-12-02T08:50:23.000Z</time>
      </trkpt>
      <trkpt lat="42.92177" lon="0.8567">
        <ele>1201</ele>
        <time>2018-12-02T08:50:26.000Z</time>
      </trkpt>
      <trkpt lat="42.92178" lon="0.85666">
        <ele>1202</ele>
        <time>2018-12-02T08:50:28.000Z</time>
      </trkpt>
      <trkpt lat="42.92178" lon="0.85663">
        <ele>1201</ele>
        <time>2018-12-02T08:50:30.000Z</time>
      </trkpt>
      <trkpt lat="42.92178" lon="0.8566">
        <ele>1201</ele>
        <time>2018-12-02T08:50:32.000Z</time>
      </trkpt>
      <trkpt lat="42.92178" lon="0.85657">
        <ele>1201</ele>
        <time>2018-12-02T08:50:34.000Z</time>
      </trkpt>
      <trkpt lat="42.92179" lon="0.85653">
        <ele>1201</ele>
        <time>2018-12-02T08:50:37.000Z</time>
      </trkpt>
      <trkpt lat="42.92179" lon="0.85649">
        <ele>1201</ele>
        <time>2018-12-02T08:50:40.000Z</time>
      </trkpt>
      <trkpt lat="42.92179" lon="0.85646">
        <ele>1201</ele>
        <time>2018-12-02T08:50:42.000Z</time>
      </trkpt>
      <trkpt lat="42.92179" lon="0.85644">
        <ele>1201</ele>
        <time>2018-12-02T08:50:45.000Z</time>
      </trkpt>
      <trkpt lat="42.92179" lon="0.85641">
        <ele>1201</ele>
        <time>2018-12-02T08:50:47.000Z</time>
      </trkpt>
      <trkpt lat="42.92179" lon="0.85641">
        <ele>1201</ele>
        <time>2018-12-02T08:50:49.000Z</time>
      </trkpt>
      <trkpt lat="42.92179" lon="0.85641">
        <ele>1201</ele>
        <time>2018-12-02T08:50:51.000Z</time>
      </trkpt>
      <trkpt lat="42.92179" lon="0.85641">
        <ele>1201</ele>
        <time>2018-12-02T08:50:53.000Z</time>
      </trkpt>
      <trkpt lat="42.92178" lon="0.85641">
        <ele>1201</ele>
        <time>2018-12-02T08:50:55.000Z</time>
      </trkpt>
      <trkpt lat="42.92178" lon="0.85641">
        <ele>1200</ele>
        <time>2018-12-02T08:50:57.000Z</time>
      </trkpt>
      <trkpt lat="42.92178" lon="0.8564">
        <ele>1200</ele>
        <time>2018-12-02T08:50:59.000Z</time>
      </trkpt>
      <trkpt lat="42.92178" lon="0.85638">
        <ele>1201</ele>
        <time>2018-12-02T08:51:01.000Z</time>
      </trkpt>
      <trkpt lat="42.92179" lon="0.85637">
        <ele>1201</ele>
        <time>2018-12-02T08:51:03.000Z</time>
      </trkpt>
      <trkpt lat="42.9218" lon="0.85634">
        <ele>1201</ele>
        <time>2018-12-02T08:51:05.000Z</time>
      </trkpt>
      <trkpt lat="42.9218" lon="0.85631">
        <ele>1201</ele>
        <time>2018-12-02T08:51:07.000Z</time>
      </trkpt>
      <trkpt lat="42.9218" lon="0.85629">
        <ele>1202</ele>
        <time>2018-12-02T08:51:09.000Z</time>
      </trkpt>
      <trkpt lat="42.92181" lon="0.85627">
        <ele>1202</ele>
        <time>2018-12-02T08:51:12.000Z</time>
      </trkpt>
      <trkpt lat="42.92181" lon="0.85623">
        <ele>1203</ele>
        <time>2018-12-02T08:51:14.000Z</time>
      </trkpt>
      <trkpt lat="42.92181" lon="0.85621">
        <ele>1203</ele>
        <time>2018-12-02T08:51:16.000Z</time>
      </trkpt>
      <trkpt lat="42.92182" lon="0.85618">
        <ele>1203</ele>
        <time>2018-12-02T08:51:18.000Z</time>
      </trkpt>
      <trkpt lat="42.92182" lon="0.85614">
        <ele>1203</ele>
        <time>2018-12-02T08:51:21.000Z</time>
      </trkpt>
      <trkpt lat="42.92182" lon="0.85611">
        <ele>1203</ele>
        <time>2018-12-02T08:51:23.000Z</time>
      </trkpt>
      <trkpt lat="42.92182" lon="0.85609">
        <ele>1203</ele>
        <time>2018-12-02T08:51:25.000Z</time>
      </trkpt>
      <trkpt lat="42.92182" lon="0.85605">
        <ele>1203</ele>
        <time>2018-12-02T08:51:28.000Z</time>
      </trkpt>
      <trkpt lat="42.92182" lon="0.85602">
        <ele>1203</ele>
        <time>2018-12-02T08:51:30.000Z</time>
      </trkpt>
      <trkpt lat="42.92182" lon="0.85598">
        <ele>1204</ele>
        <time>2018-12-02T08:51:32.000Z</time>
      </trkpt>
      <trkpt lat="42.92182" lon="0.85595">
        <ele>1204</ele>
        <time>2018-12-02T08:51:34.000Z</time>
      </trkpt>
      <trkpt lat="42.92182" lon="0.85592">
        <ele>1204</ele>
        <time>2018-12-02T08:51:36.000Z</time>
      </trkpt>
      <trkpt lat="42.92181" lon="0.85588">
        <ele>1203</ele>
        <time>2018-12-02T08:51:38.000Z</time>
      </trkpt>
      <trkpt lat="42.92181" lon="0.85585">
        <ele>1203</ele>
        <time>2018-12-02T08:51:40.000Z</time>
      </trkpt>
      <trkpt lat="42.92181" lon="0.85583">
        <ele>1203</ele>
        <time>2018-12-02T08:51:42.000Z</time>
      </trkpt>
      <trkpt lat="42.92181" lon="0.85581">
        <ele>1203</ele>
        <time>2018-12-02T08:51:44.000Z</time>
      </trkpt>
      <trkpt lat="42.92181" lon="0.85578">
        <ele>1203</ele>
        <time>2018-12-02T08:51:46.000Z</time>
      </trkpt>
      <trkpt lat="42.92181" lon="0.85576">
        <ele>1204</ele>
        <time>2018-12-02T08:51:48.000Z</time>
      </trkpt>
      <trkpt lat="42.92182" lon="0.85573">
        <ele>1204</ele>
        <time>2018-12-02T08:51:50.000Z</time>
      </trkpt>
      <trkpt lat="42.92182" lon="0.85571">
        <ele>1204</ele>
        <time>2018-12-02T08:51:52.000Z</time>
      </trkpt>
      <trkpt lat="42.92181" lon="0.85566">
        <ele>1204</ele>
        <time>2018-12-02T08:51:55.000Z</time>
      </trkpt>
      <trkpt lat="42.92181" lon="0.85563">
        <ele>1204</ele>
        <time>2018-12-02T08:51:57.000Z</time>
      </trkpt>
      <trkpt lat="42.9218" lon="0.8556">
        <ele>1203</ele>
        <time>2018-12-02T08:51:59.000Z</time>
      </trkpt>
      <trkpt lat="42.9218" lon="0.85557">
        <ele>1203</ele>
        <time>2018-12-02T08:52:01.000Z</time>
      </trkpt>
      <trkpt lat="42.92179" lon="0.85554">
        <ele>1203</ele>
        <time>2018-12-02T08:52:03.000Z</time>
      </trkpt>
      <trkpt lat="42.92179" lon="0.85551">
        <ele>1203</ele>
        <time>2018-12-02T08:52:05.000Z</time>
      </trkpt>
      <trkpt lat="42.92178" lon="0.85548">
        <ele>1203</ele>
        <time>2018-12-02T08:52:07.000Z</time>
      </trkpt>
      <trkpt lat="42.92178" lon="0.85545">
        <ele>1204</ele>
        <time>2018-12-02T08:52:09.000Z</time>
      </trkpt>
      <trkpt lat="42.92177" lon="0.85541">
        <ele>1203</ele>
        <time>2018-12-02T08:52:12.000Z</time>
      </trkpt>
      <trkpt lat="42.92176" lon="0.85539">
        <ele>1203</ele>
        <time>2018-12-02T08:52:14.000Z</time>
      </trkpt>
      <trkpt lat="42.92176" lon="0.85538">
        <ele>1203</ele>
        <time>2018-12-02T08:52:16.000Z</time>
      </trkpt>
      <trkpt lat="42.92175" lon="0.85536">
        <ele>1203</ele>
        <time>2018-12-02T08:52:18.000Z</time>
      </trkpt>
      <trkpt lat="42.92174" lon="0.85535">
        <ele>1202</ele>
        <time>2018-12-02T08:52:20.000Z</time>
      </trkpt>
      <trkpt lat="42.92174" lon="0.85533">
        <ele>1203</ele>
        <time>2018-12-02T08:52:22.000Z</time>
      </trkpt>
      <trkpt lat="42.92173" lon="0.85529">
        <ele>1202</ele>
        <time>2018-12-02T08:52:25.000Z</time>
      </trkpt>
      <trkpt lat="42.92172" lon="0.85528">
        <ele>1202</ele>
        <time>2018-12-02T08:52:27.000Z</time>
      </trkpt>
      <trkpt lat="42.92171" lon="0.85526">
        <ele>1202</ele>
        <time>2018-12-02T08:52:29.000Z</time>
      </trkpt>
      <trkpt lat="42.9217" lon="0.85524">
        <ele>1201</ele>
        <time>2018-12-02T08:52:31.000Z</time>
      </trkpt>
      <trkpt lat="42.9217" lon="0.85522">
        <ele>1201</ele>
        <time>2018-12-02T08:52:33.000Z</time>
      </trkpt>
      <trkpt lat="42.92168" lon="0.8552">
        <ele>1201</ele>
        <time>2018-12-02T08:52:35.000Z</time>
      </trkpt>
      <trkpt lat="42.92166" lon="0.85517">
        <ele>1200</ele>
        <time>2018-12-02T08:52:37.000Z</time>
      </trkpt>
      <trkpt lat="42.92165" lon="0.85516">
        <ele>1199</ele>
        <time>2018-12-02T08:52:39.000Z</time>
      </trkpt>
      <trkpt lat="42.92164" lon="0.85514">
        <ele>1199</ele>
        <time>2018-12-02T08:52:41.000Z</time>
      </trkpt>
      <trkpt lat="42.92163" lon="0.85511">
        <ele>1199</ele>
        <time>2018-12-02T08:52:44.000Z</time>
      </trkpt>
      <trkpt lat="42.92163" lon="0.85509">
        <ele>1199</ele>
        <time>2018-12-02T08:52:46.000Z</time>
      </trkpt>
      <trkpt lat="42.92162" lon="0.85508">
        <ele>1199</ele>
        <time>2018-12-02T08:52:48.000Z</time>
      </trkpt>
      <trkpt lat="42.92163" lon="0.85506">
        <ele>1199</ele>
        <time>2018-12-02T08:52:50.000Z</time>
      </trkpt>
      <trkpt lat="42.92162" lon="0.85502">
        <ele>1199</ele>
        <time>2018-12-02T08:52:53.000Z</time>
      </trkpt>
      <trkpt lat="42.92161" lon="0.85499">
        <ele>1199</ele>
        <time>2018-12-02T08:52:55.000Z</time>
      </trkpt>
      <trkpt lat="42.9216" lon="0.85497">
        <ele>1199</ele>
        <time>2018-12-02T08:52:57.000Z</time>
      </trkpt>
      <trkpt lat="42.9216" lon="0.85494">
        <ele>1199</ele>
        <time>2018-12-02T08:52:59.000Z</time>
      </trkpt>
      <trkpt lat="42.92159" lon="0.8549">
        <ele>1199</ele>
        <time>2018-12-02T08:53:02.000Z</time>
      </trkpt>
      <trkpt lat="42.92159" lon="0.85487">
        <ele>1199</ele>
        <time>2018-12-02T08:53:04.000Z</time>
      </trkpt>
      <trkpt lat="42.92158" lon="0.85484">
        <ele>1199</ele>
        <time>2018-12-02T08:53:06.000Z</time>
      </trkpt>
      <trkpt lat="42.92158" lon="0.85483">
        <ele>1199</ele>
        <time>2018-12-02T08:53:08.000Z</time>
      </trkpt>
      <trkpt lat="42.92158" lon="0.85481">
        <ele>1200</ele>
        <time>2018-12-02T08:53:10.000Z</time>
      </trkpt>
      <trkpt lat="42.92158" lon="0.85478">
        <ele>1200</ele>
        <time>2018-12-02T08:53:12.000Z</time>
      </trkpt>
      <trkpt lat="42.92159" lon="0.85475">
        <ele>1200</ele>
        <time>2018-12-02T08:53:14.000Z</time>
      </trkpt>
      <trkpt lat="42.92159" lon="0.85471">
        <ele>1201</ele>
        <time>2018-12-02T08:53:17.000Z</time>
      </trkpt>
      <trkpt lat="42.92159" lon="0.85467">
        <ele>1202</ele>
        <time>2018-12-02T08:53:20.000Z</time>
      </trkpt>
      <trkpt lat="42.92159" lon="0.85464">
        <ele>1202</ele>
        <time>2018-12-02T08:53:22.000Z</time>
      </trkpt>
      <trkpt lat="42.92159" lon="0.85461">
        <ele>1203</ele>
        <time>2018-12-02T08:53:24.000Z</time>
      </trkpt>
      <trkpt lat="42.92159" lon="0.85457">
        <ele>1203</ele>
        <time>2018-12-02T08:53:26.000Z</time>
      </trkpt>
      <trkpt lat="42.92159" lon="0.85454">
        <ele>1203</ele>
        <time>2018-12-02T08:53:28.000Z</time>
      </trkpt>
      <trkpt lat="42.92159" lon="0.85451">
        <ele>1203</ele>
        <time>2018-12-02T08:53:30.000Z</time>
      </trkpt>
      <trkpt lat="42.92159" lon="0.85448">
        <ele>1204</ele>
        <time>2018-12-02T08:53:33.000Z</time>
      </trkpt>
      <trkpt lat="42.92159" lon="0.85443">
        <ele>1204</ele>
        <time>2018-12-02T08:53:35.000Z</time>
      </trkpt>
      <trkpt lat="42.92159" lon="0.8544">
        <ele>1204</ele>
        <time>2018-12-02T08:53:37.000Z</time>
      </trkpt>
      <trkpt lat="42.92159" lon="0.85438">
        <ele>1204</ele>
        <time>2018-12-02T08:53:39.000Z</time>
      </trkpt>
      <trkpt lat="42.92159" lon="0.85436">
        <ele>1204</ele>
        <time>2018-12-02T08:53:41.000Z</time>
      </trkpt>
      <trkpt lat="42.92158" lon="0.85433">
        <ele>1204</ele>
        <time>2018-12-02T08:53:43.000Z</time>
      </trkpt>
      <trkpt lat="42.92158" lon="0.85431">
        <ele>1205</ele>
        <time>2018-12-02T08:53:45.000Z</time>
      </trkpt>
      <trkpt lat="42.92158" lon="0.85428">
        <ele>1205</ele>
        <time>2018-12-02T08:53:47.000Z</time>
      </trkpt>
      <trkpt lat="42.92158" lon="0.85425">
        <ele>1205</ele>
        <time>2018-12-02T08:53:50.000Z</time>
      </trkpt>
      <trkpt lat="42.92158" lon="0.85421">
        <ele>1205</ele>
        <time>2018-12-02T08:53:52.000Z</time>
      </trkpt>
      <trkpt lat="42.92158" lon="0.85418">
        <ele>1205</ele>
        <time>2018-12-02T08:53:54.000Z</time>
      </trkpt>
      <trkpt lat="42.92158" lon="0.85415">
        <ele>1206</ele>
        <time>2018-12-02T08:53:57.000Z</time>
      </trkpt>
      <trkpt lat="42.92158" lon="0.85412">
        <ele>1206</ele>
        <time>2018-12-02T08:53:59.000Z</time>
      </trkpt>
      <trkpt lat="42.92158" lon="0.85408">
        <ele>1206</ele>
        <time>2018-12-02T08:54:02.000Z</time>
      </trkpt>
      <trkpt lat="42.92159" lon="0.85407">
        <ele>1206</ele>
        <time>2018-12-02T08:54:04.000Z</time>
      </trkpt>
      <trkpt lat="42.92159" lon="0.85406">
        <ele>1207</ele>
        <time>2018-12-02T08:54:07.000Z</time>
      </trkpt>
      <trkpt lat="42.92159" lon="0.85405">
        <ele>1207</ele>
        <time>2018-12-02T08:54:09.000Z</time>
      </trkpt>
      <trkpt lat="42.92159" lon="0.85405">
        <ele>1207</ele>
        <time>2018-12-02T08:54:11.000Z</time>
      </trkpt>
      <trkpt lat="42.9216" lon="0.85405">
        <ele>1207</ele>
        <time>2018-12-02T08:54:13.000Z</time>
      </trkpt>
      <trkpt lat="42.92161" lon="0.85406">
        <ele>1207</ele>
        <time>2018-12-02T08:54:17.000Z</time>
      </trkpt>
      <trkpt lat="42.92161" lon="0.85406">
        <ele>1208</ele>
        <time>2018-12-02T08:54:19.000Z</time>
      </trkpt>
      <trkpt lat="42.92162" lon="0.85405">
        <ele>1208</ele>
        <time>2018-12-02T08:54:21.000Z</time>
      </trkpt>
      <trkpt lat="42.92161" lon="0.85404">
        <ele>1208</ele>
        <time>2018-12-02T08:54:23.000Z</time>
      </trkpt>
      <trkpt lat="42.92162" lon="0.85402">
        <ele>1208</ele>
        <time>2018-12-02T08:54:26.000Z</time>
      </trkpt>
      <trkpt lat="42.92162" lon="0.854">
        <ele>1208</ele>
        <time>2018-12-02T08:54:28.000Z</time>
      </trkpt>
      <trkpt lat="42.92162" lon="0.85397">
        <ele>1209</ele>
        <time>2018-12-02T08:54:32.000Z</time>
      </trkpt>
      <trkpt lat="42.92163" lon="0.85394">
        <ele>1209</ele>
        <time>2018-12-02T08:54:34.000Z</time>
      </trkpt>
      <trkpt lat="42.92163" lon="0.85392">
        <ele>1210</ele>
        <time>2018-12-02T08:54:36.000Z</time>
      </trkpt>
      <trkpt lat="42.92164" lon="0.85389">
        <ele>1210</ele>
        <time>2018-12-02T08:54:40.000Z</time>
      </trkpt>
      <trkpt lat="42.92164" lon="0.85388">
        <ele>1210</ele>
        <time>2018-12-02T08:54:42.000Z</time>
      </trkpt>
      <trkpt lat="42.92165" lon="0.85386">
        <ele>1211</ele>
        <time>2018-12-02T08:54:44.000Z</time>
      </trkpt>
      <trkpt lat="42.92166" lon="0.85384">
        <ele>1211</ele>
        <time>2018-12-02T08:54:47.000Z</time>
      </trkpt>
      <trkpt lat="42.92165" lon="0.85379">
        <ele>1211</ele>
        <time>2018-12-02T08:54:50.000Z</time>
      </trkpt>
      <trkpt lat="42.92166" lon="0.85376">
        <ele>1211</ele>
        <time>2018-12-02T08:54:53.000Z</time>
      </trkpt>
      <trkpt lat="42.92166" lon="0.85372">
        <ele>1211</ele>
        <time>2018-12-02T08:54:55.000Z</time>
      </trkpt>
      <trkpt lat="42.92167" lon="0.85367">
        <ele>1212</ele>
        <time>2018-12-02T08:54:58.000Z</time>
      </trkpt>
      <trkpt lat="42.92167" lon="0.85362">
        <ele>1212</ele>
        <time>2018-12-02T08:55:01.000Z</time>
      </trkpt>
      <trkpt lat="42.92167" lon="0.85359">
        <ele>1212</ele>
        <time>2018-12-02T08:55:03.000Z</time>
      </trkpt>
      <trkpt lat="42.92168" lon="0.85356">
        <ele>1212</ele>
        <time>2018-12-02T08:55:05.000Z</time>
      </trkpt>
      <trkpt lat="42.92168" lon="0.85353">
        <ele>1212</ele>
        <time>2018-12-02T08:55:07.000Z</time>
      </trkpt>
      <trkpt lat="42.92169" lon="0.85351">
        <ele>1212</ele>
        <time>2018-12-02T08:55:09.000Z</time>
      </trkpt>
      <trkpt lat="42.9217" lon="0.85348">
        <ele>1213</ele>
        <time>2018-12-02T08:55:12.000Z</time>
      </trkpt>
      <trkpt lat="42.92171" lon="0.85345">
        <ele>1213</ele>
        <time>2018-12-02T08:55:14.000Z</time>
      </trkpt>
      <trkpt lat="42.92172" lon="0.85342">
        <ele>1214</ele>
        <time>2018-12-02T08:55:17.000Z</time>
      </trkpt>
      <trkpt lat="42.92173" lon="0.85338">
        <ele>1214</ele>
        <time>2018-12-02T08:55:19.000Z</time>
      </trkpt>
      <trkpt lat="42.92174" lon="0.85334">
        <ele>1214</ele>
        <time>2018-12-02T08:55:22.000Z</time>
      </trkpt>
      <trkpt lat="42.92175" lon="0.85332">
        <ele>1215</ele>
        <time>2018-12-02T08:55:25.000Z</time>
      </trkpt>
      <trkpt lat="42.92175" lon="0.85331">
        <ele>1215</ele>
        <time>2018-12-02T08:55:27.000Z</time>
      </trkpt>
      <trkpt lat="42.92176" lon="0.85328">
        <ele>1215</ele>
        <time>2018-12-02T08:55:29.000Z</time>
      </trkpt>
      <trkpt lat="42.92177" lon="0.85326">
        <ele>1216</ele>
        <time>2018-12-02T08:55:32.000Z</time>
      </trkpt>
      <trkpt lat="42.92177" lon="0.85324">
        <ele>1216</ele>
        <time>2018-12-02T08:55:34.000Z</time>
      </trkpt>
      <trkpt lat="42.92178" lon="0.85323">
        <ele>1216</ele>
        <time>2018-12-02T08:55:36.000Z</time>
      </trkpt>
      <trkpt lat="42.92179" lon="0.85321">
        <ele>1216</ele>
        <time>2018-12-02T08:55:38.000Z</time>
      </trkpt>
      <trkpt lat="42.92179" lon="0.8532">
        <ele>1217</ele>
        <time>2018-12-02T08:55:40.000Z</time>
      </trkpt>
      <trkpt lat="42.9218" lon="0.85318">
        <ele>1217</ele>
        <time>2018-12-02T08:55:43.000Z</time>
      </trkpt>
      <trkpt lat="42.92181" lon="0.85317">
        <ele>1218</ele>
        <time>2018-12-02T08:55:45.000Z</time>
      </trkpt>
      <trkpt lat="42.92181" lon="0.85316">
        <ele>1218</ele>
        <time>2018-12-02T08:55:47.000Z</time>
      </trkpt>
      <trkpt lat="42.92181" lon="0.85314">
        <ele>1218</ele>
        <time>2018-12-02T08:55:49.000Z</time>
      </trkpt>
      <trkpt lat="42.92182" lon="0.85312">
        <ele>1218</ele>
        <time>2018-12-02T08:55:51.000Z</time>
      </trkpt>
      <trkpt lat="42.92183" lon="0.8531">
        <ele>1218</ele>
        <time>2018-12-02T08:55:54.000Z</time>
      </trkpt>
      <trkpt lat="42.92183" lon="0.85309">
        <ele>1218</ele>
        <time>2018-12-02T08:55:56.000Z</time>
      </trkpt>
      <trkpt lat="42.92184" lon="0.85307">
        <ele>1218</ele>
        <time>2018-12-02T08:55:58.000Z</time>
      </trkpt>
      <trkpt lat="42.92184" lon="0.85306">
        <ele>1218</ele>
        <time>2018-12-02T08:56:01.000Z</time>
      </trkpt>
      <trkpt lat="42.92183" lon="0.85304">
        <ele>1218</ele>
        <time>2018-12-02T08:56:04.000Z</time>
      </trkpt>
      <trkpt lat="42.92183" lon="0.85301">
        <ele>1218</ele>
        <time>2018-12-02T08:56:06.000Z</time>
      </trkpt>
      <trkpt lat="42.92183" lon="0.853">
        <ele>1218</ele>
        <time>2018-12-02T08:56:08.000Z</time>
      </trkpt>
      <trkpt lat="42.92183" lon="0.85298">
        <ele>1218</ele>
        <time>2018-12-02T08:56:10.000Z</time>
      </trkpt>
      <trkpt lat="42.92183" lon="0.85296">
        <ele>1218</ele>
        <time>2018-12-02T08:56:12.000Z</time>
      </trkpt>
      <trkpt lat="42.92183" lon="0.85294">
        <ele>1218</ele>
        <time>2018-12-02T08:56:14.000Z</time>
      </trkpt>
      <trkpt lat="42.92183" lon="0.85292">
        <ele>1219</ele>
        <time>2018-12-02T08:56:16.000Z</time>
      </trkpt>
      <trkpt lat="42.92184" lon="0.85288">
        <ele>1219</ele>
        <time>2018-12-02T08:56:18.000Z</time>
      </trkpt>
      <trkpt lat="42.92185" lon="0.85286">
        <ele>1219</ele>
        <time>2018-12-02T08:56:20.000Z</time>
      </trkpt>
      <trkpt lat="42.92185" lon="0.85283">
        <ele>1219</ele>
        <time>2018-12-02T08:56:22.000Z</time>
      </trkpt>
      <trkpt lat="42.92185" lon="0.85281">
        <ele>1220</ele>
        <time>2018-12-02T08:56:24.000Z</time>
      </trkpt>
      <trkpt lat="42.92186" lon="0.85277">
        <ele>1220</ele>
        <time>2018-12-02T08:56:26.000Z</time>
      </trkpt>
      <trkpt lat="42.92187" lon="0.85274">
        <ele>1221</ele>
        <time>2018-12-02T08:56:29.000Z</time>
      </trkpt>
      <trkpt lat="42.92187" lon="0.85272">
        <ele>1221</ele>
        <time>2018-12-02T08:56:31.000Z</time>
      </trkpt>
      <trkpt lat="42.92188" lon="0.85267">
        <ele>1221</ele>
        <time>2018-12-02T08:56:33.000Z</time>
      </trkpt>
      <trkpt lat="42.92189" lon="0.85265">
        <ele>1222</ele>
        <time>2018-12-02T08:56:36.000Z</time>
      </trkpt>
      <trkpt lat="42.9219" lon="0.85263">
        <ele>1222</ele>
        <time>2018-12-02T08:56:38.000Z</time>
      </trkpt>
      <trkpt lat="42.9219" lon="0.85261">
        <ele>1222</ele>
        <time>2018-12-02T08:56:40.000Z</time>
      </trkpt>
      <trkpt lat="42.92191" lon="0.85257">
        <ele>1223</ele>
        <time>2018-12-02T08:56:42.000Z</time>
      </trkpt>
      <trkpt lat="42.92191" lon="0.85254">
        <ele>1223</ele>
        <time>2018-12-02T08:56:45.000Z</time>
      </trkpt>
      <trkpt lat="42.92192" lon="0.85252">
        <ele>1223</ele>
        <time>2018-12-02T08:56:47.000Z</time>
      </trkpt>
      <trkpt lat="42.92192" lon="0.85249">
        <ele>1223</ele>
        <time>2018-12-02T08:56:50.000Z</time>
      </trkpt>
      <trkpt lat="42.92192" lon="0.85248">
        <ele>1224</ele>
        <time>2018-12-02T08:56:52.000Z</time>
      </trkpt>
      <trkpt lat="42.92194" lon="0.85246">
        <ele>1224</ele>
        <time>2018-12-02T08:56:54.000Z</time>
      </trkpt>
      <trkpt lat="42.92194" lon="0.85245">
        <ele>1225</ele>
        <time>2018-12-02T08:56:56.000Z</time>
      </trkpt>
      <trkpt lat="42.92195" lon="0.85243">
        <ele>1225</ele>
        <time>2018-12-02T08:56:58.000Z</time>
      </trkpt>
      <trkpt lat="42.92196" lon="0.85239">
        <ele>1225</ele>
        <time>2018-12-02T08:57:01.000Z</time>
      </trkpt>
      <trkpt lat="42.92196" lon="0.85236">
        <ele>1225</ele>
        <time>2018-12-02T08:57:03.000Z</time>
      </trkpt>
      <trkpt lat="42.92196" lon="0.85232">
        <ele>1225</ele>
        <time>2018-12-02T08:57:05.000Z</time>
      </trkpt>
      <trkpt lat="42.92197" lon="0.85229">
        <ele>1225</ele>
        <time>2018-12-02T08:57:09.000Z</time>
      </trkpt>
      <trkpt lat="42.92197" lon="0.85225">
        <ele>1225</ele>
        <time>2018-12-02T08:57:11.000Z</time>
      </trkpt>
      <trkpt lat="42.92198" lon="0.85223">
        <ele>1225</ele>
        <time>2018-12-02T08:57:14.000Z</time>
      </trkpt>
      <trkpt lat="42.92198" lon="0.8522">
        <ele>1226</ele>
        <time>2018-12-02T08:57:16.000Z</time>
      </trkpt>
      <trkpt lat="42.92198" lon="0.85218">
        <ele>1226</ele>
        <time>2018-12-02T08:57:18.000Z</time>
      </trkpt>
      <trkpt lat="42.92199" lon="0.85218">
        <ele>1226</ele>
        <time>2018-12-02T08:57:20.000Z</time>
      </trkpt>
      <trkpt lat="42.92198" lon="0.85215">
        <ele>1226</ele>
        <time>2018-12-02T08:57:22.000Z</time>
      </trkpt>
      <trkpt lat="42.92198" lon="0.85212">
        <ele>1227</ele>
        <time>2018-12-02T08:57:24.000Z</time>
      </trkpt>
      <trkpt lat="42.92198" lon="0.85209">
        <ele>1227</ele>
        <time>2018-12-02T08:57:26.000Z</time>
      </trkpt>
      <trkpt lat="42.92198" lon="0.85206">
        <ele>1227</ele>
        <time>2018-12-02T08:57:28.000Z</time>
      </trkpt>
      <trkpt lat="42.92196" lon="0.85203">
        <ele>1227</ele>
        <time>2018-12-02T08:57:30.000Z</time>
      </trkpt>
      <trkpt lat="42.92195" lon="0.852">
        <ele>1227</ele>
        <time>2018-12-02T08:57:32.000Z</time>
      </trkpt>
      <trkpt lat="42.92194" lon="0.85198">
        <ele>1227</ele>
        <time>2018-12-02T08:57:34.000Z</time>
      </trkpt>
      <trkpt lat="42.92192" lon="0.85196">
        <ele>1226</ele>
        <time>2018-12-02T08:57:36.000Z</time>
      </trkpt>
      <trkpt lat="42.9219" lon="0.85194">
        <ele>1225</ele>
        <time>2018-12-02T08:57:38.000Z</time>
      </trkpt>
      <trkpt lat="42.92189" lon="0.85193">
        <ele>1225</ele>
        <time>2018-12-02T08:57:40.000Z</time>
      </trkpt>
      <trkpt lat="42.92188" lon="0.85192">
        <ele>1225</ele>
        <time>2018-12-02T08:57:42.000Z</time>
      </trkpt>
      <trkpt lat="42.92187" lon="0.8519">
        <ele>1225</ele>
        <time>2018-12-02T08:57:44.000Z</time>
      </trkpt>
      <trkpt lat="42.92186" lon="0.85189">
        <ele>1224</ele>
        <time>2018-12-02T08:57:46.000Z</time>
      </trkpt>
      <trkpt lat="42.92184" lon="0.85187">
        <ele>1224</ele>
        <time>2018-12-02T08:57:48.000Z</time>
      </trkpt>
      <trkpt lat="42.92183" lon="0.85186">
        <ele>1223</ele>
        <time>2018-12-02T08:57:50.000Z</time>
      </trkpt>
      <trkpt lat="42.92181" lon="0.85185">
        <ele>1223</ele>
        <time>2018-12-02T08:57:52.000Z</time>
      </trkpt>
      <trkpt lat="42.92179" lon="0.85183">
        <ele>1222</ele>
        <time>2018-12-02T08:57:54.000Z</time>
      </trkpt>
      <trkpt lat="42.92178" lon="0.85183">
        <ele>1222</ele>
        <time>2018-12-02T08:57:56.000Z</time>
      </trkpt>
      <trkpt lat="42.92177" lon="0.85182">
        <ele>1222</ele>
        <time>2018-12-02T08:57:58.000Z</time>
      </trkpt>
      <trkpt lat="42.92176" lon="0.85179">
        <ele>1221</ele>
        <time>2018-12-02T08:58:00.000Z</time>
      </trkpt>
      <trkpt lat="42.92174" lon="0.85178">
        <ele>1221</ele>
        <time>2018-12-02T08:58:02.000Z</time>
      </trkpt>
      <trkpt lat="42.92173" lon="0.85175">
        <ele>1221</ele>
        <time>2018-12-02T08:58:04.000Z</time>
      </trkpt>
      <trkpt lat="42.92173" lon="0.85173">
        <ele>1221</ele>
        <time>2018-12-02T08:58:06.000Z</time>
      </trkpt>
      <trkpt lat="42.92172" lon="0.85172">
        <ele>1220</ele>
        <time>2018-12-02T08:58:08.000Z</time>
      </trkpt>
      <trkpt lat="42.92171" lon="0.8517">
        <ele>1220</ele>
        <time>2018-12-02T08:58:10.000Z</time>
      </trkpt>
      <trkpt lat="42.9217" lon="0.85169">
        <ele>1220</ele>
        <time>2018-12-02T08:58:12.000Z</time>
      </trkpt>
      <trkpt lat="42.92169" lon="0.85166">
        <ele>1219</ele>
        <time>2018-12-02T08:58:14.000Z</time>
      </trkpt>
      <trkpt lat="42.92167" lon="0.85165">
        <ele>1219</ele>
        <time>2018-12-02T08:58:16.000Z</time>
      </trkpt>
      <trkpt lat="42.92167" lon="0.85162">
        <ele>1219</ele>
        <time>2018-12-02T08:58:18.000Z</time>
      </trkpt>
      <trkpt lat="42.92166" lon="0.8516">
        <ele>1219</ele>
        <time>2018-12-02T08:58:20.000Z</time>
      </trkpt>
      <trkpt lat="42.92164" lon="0.85157">
        <ele>1218</ele>
        <time>2018-12-02T08:58:22.000Z</time>
      </trkpt>
      <trkpt lat="42.92164" lon="0.85154">
        <ele>1218</ele>
        <time>2018-12-02T08:58:24.000Z</time>
      </trkpt>
      <trkpt lat="42.92164" lon="0.85151">
        <ele>1218</ele>
        <time>2018-12-02T08:58:26.000Z</time>
      </trkpt>
      <trkpt lat="42.92163" lon="0.85149">
        <ele>1218</ele>
        <time>2018-12-02T08:58:28.000Z</time>
      </trkpt>
      <trkpt lat="42.92162" lon="0.85146">
        <ele>1218</ele>
        <time>2018-12-02T08:58:30.000Z</time>
      </trkpt>
      <trkpt lat="42.92162" lon="0.85143">
        <ele>1218</ele>
        <time>2018-12-02T08:58:32.000Z</time>
      </trkpt>
      <trkpt lat="42.92161" lon="0.85141">
        <ele>1218</ele>
        <time>2018-12-02T08:58:34.000Z</time>
      </trkpt>
      <trkpt lat="42.92162" lon="0.85138">
        <ele>1219</ele>
        <time>2018-12-02T08:58:36.000Z</time>
      </trkpt>
      <trkpt lat="42.92162" lon="0.85136">
        <ele>1220</ele>
        <time>2018-12-02T08:58:38.000Z</time>
      </trkpt>
      <trkpt lat="42.92162" lon="0.85132">
        <ele>1220</ele>
        <time>2018-12-02T08:58:40.000Z</time>
      </trkpt>
      <trkpt lat="42.92162" lon="0.85129">
        <ele>1221</ele>
        <time>2018-12-02T08:58:42.000Z</time>
      </trkpt>
      <trkpt lat="42.92162" lon="0.85126">
        <ele>1222</ele>
        <time>2018-12-02T08:58:44.000Z</time>
      </trkpt>
      <trkpt lat="42.92162" lon="0.85123">
        <ele>1222</ele>
        <time>2018-12-02T08:58:46.000Z</time>
      </trkpt>
      <trkpt lat="42.92162" lon="0.85121">
        <ele>1222</ele>
        <time>2018-12-02T08:58:48.000Z</time>
      </trkpt>
      <trkpt lat="42.92161" lon="0.85118">
        <ele>1222</ele>
        <time>2018-12-02T08:58:50.000Z</time>
      </trkpt>
      <trkpt lat="42.92161" lon="0.85116">
        <ele>1223</ele>
        <time>2018-12-02T08:58:52.000Z</time>
      </trkpt>
      <trkpt lat="42.92161" lon="0.85114">
        <ele>1223</ele>
        <time>2018-12-02T08:58:54.000Z</time>
      </trkpt>
      <trkpt lat="42.9216" lon="0.85112">
        <ele>1223</ele>
        <time>2018-12-02T08:58:56.000Z</time>
      </trkpt>
      <trkpt lat="42.9216" lon="0.85109">
        <ele>1223</ele>
        <time>2018-12-02T08:58:58.000Z</time>
      </trkpt>
      <trkpt lat="42.9216" lon="0.85105">
        <ele>1224</ele>
        <time>2018-12-02T08:59:00.000Z</time>
      </trkpt>
      <trkpt lat="42.92161" lon="0.85102">
        <ele>1224</ele>
        <time>2018-12-02T08:59:02.000Z</time>
      </trkpt>
      <trkpt lat="42.92161" lon="0.85099">
        <ele>1225</ele>
        <time>2018-12-02T08:59:04.000Z</time>
      </trkpt>
      <trkpt lat="42.92161" lon="0.85096">
        <ele>1225</ele>
        <time>2018-12-02T08:59:06.000Z</time>
      </trkpt>
      <trkpt lat="42.92162" lon="0.85093">
        <ele>1226</ele>
        <time>2018-12-02T08:59:08.000Z</time>
      </trkpt>
      <trkpt lat="42.92162" lon="0.8509">
        <ele>1226</ele>
        <time>2018-12-02T08:59:10.000Z</time>
      </trkpt>
      <trkpt lat="42.92163" lon="0.85087">
        <ele>1227</ele>
        <time>2018-12-02T08:59:12.000Z</time>
      </trkpt>
      <trkpt lat="42.92163" lon="0.85084">
        <ele>1227</ele>
        <time>2018-12-02T08:59:14.000Z</time>
      </trkpt>
      <trkpt lat="42.92162" lon="0.85081">
        <ele>1227</ele>
        <time>2018-12-02T08:59:16.000Z</time>
      </trkpt>
      <trkpt lat="42.92161" lon="0.85079">
        <ele>1227</ele>
        <time>2018-12-02T08:59:18.000Z</time>
      </trkpt>
      <trkpt lat="42.92161" lon="0.85076">
        <ele>1227</ele>
        <time>2018-12-02T08:59:20.000Z</time>
      </trkpt>
      <trkpt lat="42.92161" lon="0.85075">
        <ele>1228</ele>
        <time>2018-12-02T08:59:22.000Z</time>
      </trkpt>
      <trkpt lat="42.92161" lon="0.85073">
        <ele>1228</ele>
        <time>2018-12-02T08:59:24.000Z</time>
      </trkpt>
      <trkpt lat="42.9216" lon="0.85071">
        <ele>1228</ele>
        <time>2018-12-02T08:59:26.000Z</time>
      </trkpt>
      <trkpt lat="42.9216" lon="0.85068">
        <ele>1228</ele>
        <time>2018-12-02T08:59:28.000Z</time>
      </trkpt>
      <trkpt lat="42.92159" lon="0.85066">
        <ele>1228</ele>
        <time>2018-12-02T08:59:30.000Z</time>
      </trkpt>
      <trkpt lat="42.92159" lon="0.85063">
        <ele>1228</ele>
        <time>2018-12-02T08:59:32.000Z</time>
      </trkpt>
      <trkpt lat="42.92158" lon="0.8506">
        <ele>1228</ele>
        <time>2018-12-02T08:59:34.000Z</time>
      </trkpt>
      <trkpt lat="42.92158" lon="0.85058">
        <ele>1228</ele>
        <time>2018-12-02T08:59:36.000Z</time>
      </trkpt>
      <trkpt lat="42.92157" lon="0.85055">
        <ele>1228</ele>
        <time>2018-12-02T08:59:38.000Z</time>
      </trkpt>
      <trkpt lat="42.92157" lon="0.85053">
        <ele>1229</ele>
        <time>2018-12-02T08:59:40.000Z</time>
      </trkpt>
      <trkpt lat="42.92157" lon="0.8505">
        <ele>1229</ele>
        <time>2018-12-02T08:59:42.000Z</time>
      </trkpt>
      <trkpt lat="42.92157" lon="0.85048">
        <ele>1229</ele>
        <time>2018-12-02T08:59:44.000Z</time>
      </trkpt>
      <trkpt lat="42.92157" lon="0.85044">
        <ele>1230</ele>
        <time>2018-12-02T08:59:46.000Z</time>
      </trkpt>
      <trkpt lat="42.92157" lon="0.85042">
        <ele>1230</ele>
        <time>2018-12-02T08:59:48.000Z</time>
      </trkpt>
      <trkpt lat="42.92157" lon="0.8504">
        <ele>1231</ele>
        <time>2018-12-02T08:59:50.000Z</time>
      </trkpt>
      <trkpt lat="42.92157" lon="0.85037">
        <ele>1231</ele>
        <time>2018-12-02T08:59:52.000Z</time>
      </trkpt>
      <trkpt lat="42.92157" lon="0.85035">
        <ele>1231</ele>
        <time>2018-12-02T08:59:54.000Z</time>
      </trkpt>
      <trkpt lat="42.92157" lon="0.85033">
        <ele>1232</ele>
        <time>2018-12-02T08:59:56.000Z</time>
      </trkpt>
      <trkpt lat="42.92157" lon="0.85032">
        <ele>1232</ele>
        <time>2018-12-02T08:59:58.000Z</time>
      </trkpt>
      <trkpt lat="42.92157" lon="0.85028">
        <ele>1232</ele>
        <time>2018-12-02T09:00:00.000Z</time>
      </trkpt>
      <trkpt lat="42.92156" lon="0.85026">
        <ele>1232</ele>
        <time>2018-12-02T09:00:02.000Z</time>
      </trkpt>
      <trkpt lat="42.92156" lon="0.85022">
        <ele>1233</ele>
        <time>2018-12-02T09:00:04.000Z</time>
      </trkpt>
      <trkpt lat="42.92156" lon="0.85019">
        <ele>1233</ele>
        <time>2018-12-02T09:00:06.000Z</time>
      </trkpt>
      <trkpt lat="42.92155" lon="0.85016">
        <ele>1233</ele>
        <time>2018-12-02T09:00:08.000Z</time>
      </trkpt>
      <trkpt lat="42.92155" lon="0.85013">
        <ele>1233</ele>
        <time>2018-12-02T09:00:10.000Z</time>
      </trkpt>
      <trkpt lat="42.92155" lon="0.8501">
        <ele>1234</ele>
        <time>2018-12-02T09:00:12.000Z</time>
      </trkpt>
      <trkpt lat="42.92155" lon="0.85006">
        <ele>1234</ele>
        <time>2018-12-02T09:00:14.000Z</time>
      </trkpt>
      <trkpt lat="42.92155" lon="0.85002">
        <ele>1235</ele>
        <time>2018-12-02T09:00:16.000Z</time>
      </trkpt>
      <trkpt lat="42.92155" lon="0.84995">
        <ele>1236</ele>
        <time>2018-12-02T09:00:19.000Z</time>
      </trkpt>
      <trkpt lat="42.92155" lon="0.8499">
        <ele>1236</ele>
        <time>2018-12-02T09:00:22.000Z</time>
      </trkpt>
      <trkpt lat="42.92154" lon="0.84987">
        <ele>1236</ele>
        <time>2018-12-02T09:00:24.000Z</time>
      </trkpt>
      <trkpt lat="42.92154" lon="0.84984">
        <ele>1236</ele>
        <time>2018-12-02T09:00:26.000Z</time>
      </trkpt>
      <trkpt lat="42.92153" lon="0.84981">
        <ele>1237</ele>
        <time>2018-12-02T09:00:28.000Z</time>
      </trkpt>
      <trkpt lat="42.92152" lon="0.84979">
        <ele>1237</ele>
        <time>2018-12-02T09:00:30.000Z</time>
      </trkpt>
      <trkpt lat="42.92152" lon="0.84977">
        <ele>1237</ele>
        <time>2018-12-02T09:00:32.000Z</time>
      </trkpt>
      <trkpt lat="42.92151" lon="0.84974">
        <ele>1237</ele>
        <time>2018-12-02T09:00:34.000Z</time>
      </trkpt>
      <trkpt lat="42.92151" lon="0.84972">
        <ele>1237</ele>
        <time>2018-12-02T09:00:36.000Z</time>
      </trkpt>
      <trkpt lat="42.9215" lon="0.8497">
        <ele>1237</ele>
        <time>2018-12-02T09:00:38.000Z</time>
      </trkpt>
      <trkpt lat="42.9215" lon="0.84967">
        <ele>1238</ele>
        <time>2018-12-02T09:00:40.000Z</time>
      </trkpt>
      <trkpt lat="42.92149" lon="0.84965">
        <ele>1238</ele>
        <time>2018-12-02T09:00:42.000Z</time>
      </trkpt>
      <trkpt lat="42.92149" lon="0.84963">
        <ele>1239</ele>
        <time>2018-12-02T09:00:44.000Z</time>
      </trkpt>
      <trkpt lat="42.92148" lon="0.84961">
        <ele>1239</ele>
        <time>2018-12-02T09:00:46.000Z</time>
      </trkpt>
      <trkpt lat="42.92148" lon="0.84959">
        <ele>1239</ele>
        <time>2018-12-02T09:00:48.000Z</time>
      </trkpt>
      <trkpt lat="42.92148" lon="0.84956">
        <ele>1240</ele>
        <time>2018-12-02T09:00:50.000Z</time>
      </trkpt>
      <trkpt lat="42.92147" lon="0.84953">
        <ele>1241</ele>
        <time>2018-12-02T09:00:52.000Z</time>
      </trkpt>
      <trkpt lat="42.92147" lon="0.84951">
        <ele>1242</ele>
        <time>2018-12-02T09:00:54.000Z</time>
      </trkpt>
      <trkpt lat="42.92147" lon="0.84949">
        <ele>1242</ele>
        <time>2018-12-02T09:00:56.000Z</time>
      </trkpt>
      <trkpt lat="42.92147" lon="0.84946">
        <ele>1243</ele>
        <time>2018-12-02T09:00:58.000Z</time>
      </trkpt>
      <trkpt lat="42.92147" lon="0.84943">
        <ele>1243</ele>
        <time>2018-12-02T09:01:00.000Z</time>
      </trkpt>
      <trkpt lat="42.92147" lon="0.84941">
        <ele>1244</ele>
        <time>2018-12-02T09:01:02.000Z</time>
      </trkpt>
      <trkpt lat="42.92148" lon="0.84938">
        <ele>1244</ele>
        <time>2018-12-02T09:01:04.000Z</time>
      </trkpt>
      <trkpt lat="42.92149" lon="0.84935">
        <ele>1245</ele>
        <time>2018-12-02T09:01:06.000Z</time>
      </trkpt>
      <trkpt lat="42.92149" lon="0.84933">
        <ele>1245</ele>
        <time>2018-12-02T09:01:08.000Z</time>
      </trkpt>
      <trkpt lat="42.9215" lon="0.8493">
        <ele>1246</ele>
        <time>2018-12-02T09:01:10.000Z</time>
      </trkpt>
      <trkpt lat="42.92151" lon="0.84928">
        <ele>1246</ele>
        <time>2018-12-02T09:01:12.000Z</time>
      </trkpt>
      <trkpt lat="42.92151" lon="0.84926">
        <ele>1246</ele>
        <time>2018-12-02T09:01:14.000Z</time>
      </trkpt>
      <trkpt lat="42.92152" lon="0.84923">
        <ele>1247</ele>
        <time>2018-12-02T09:01:16.000Z</time>
      </trkpt>
      <trkpt lat="42.92153" lon="0.84921">
        <ele>1247</ele>
        <time>2018-12-02T09:01:18.000Z</time>
      </trkpt>
      <trkpt lat="42.92153" lon="0.84919">
        <ele>1247</ele>
        <time>2018-12-02T09:01:20.000Z</time>
      </trkpt>
      <trkpt lat="42.92153" lon="0.84917">
        <ele>1248</ele>
        <time>2018-12-02T09:01:22.000Z</time>
      </trkpt>
      <trkpt lat="42.92153" lon="0.84916">
        <ele>1248</ele>
        <time>2018-12-02T09:01:24.000Z</time>
      </trkpt>
      <trkpt lat="42.92154" lon="0.84914">
        <ele>1248</ele>
        <time>2018-12-02T09:01:26.000Z</time>
      </trkpt>
      <trkpt lat="42.92154" lon="0.84912">
        <ele>1248</ele>
        <time>2018-12-02T09:01:28.000Z</time>
      </trkpt>
      <trkpt lat="42.92154" lon="0.84911">
        <ele>1249</ele>
        <time>2018-12-02T09:01:30.000Z</time>
      </trkpt>
      <trkpt lat="42.92154" lon="0.84911">
        <ele>1249</ele>
        <time>2018-12-02T09:01:32.000Z</time>
      </trkpt>
      <trkpt lat="42.92155" lon="0.8491">
        <ele>1249</ele>
        <time>2018-12-02T09:01:34.000Z</time>
      </trkpt>
      <trkpt lat="42.92155" lon="0.84909">
        <ele>1249</ele>
        <time>2018-12-02T09:01:36.000Z</time>
      </trkpt>
      <trkpt lat="42.92154" lon="0.84907">
        <ele>1249</ele>
        <time>2018-12-02T09:01:38.000Z</time>
      </trkpt>
      <trkpt lat="42.92154" lon="0.84906">
        <ele>1249</ele>
        <time>2018-12-02T09:01:40.000Z</time>
      </trkpt>
      <trkpt lat="42.92154" lon="0.84905">
        <ele>1249</ele>
        <time>2018-12-02T09:01:42.000Z</time>
      </trkpt>
      <trkpt lat="42.92154" lon="0.84903">
        <ele>1250</ele>
        <time>2018-12-02T09:01:44.000Z</time>
      </trkpt>
      <trkpt lat="42.92154" lon="0.84902">
        <ele>1250</ele>
        <time>2018-12-02T09:01:46.000Z</time>
      </trkpt>
      <trkpt lat="42.92154" lon="0.84901">
        <ele>1250</ele>
        <time>2018-12-02T09:01:48.000Z</time>
      </trkpt>
      <trkpt lat="42.92154" lon="0.84901">
        <ele>1250</ele>
        <time>2018-12-02T09:01:50.000Z</time>
      </trkpt>
      <trkpt lat="42.92154" lon="0.849">
        <ele>1250</ele>
        <time>2018-12-02T09:01:52.000Z</time>
      </trkpt>
      <trkpt lat="42.92154" lon="0.84898">
        <ele>1250</ele>
        <time>2018-12-02T09:01:54.000Z</time>
      </trkpt>
      <trkpt lat="42.92153" lon="0.84898">
        <ele>1250</ele>
        <time>2018-12-02T09:01:56.000Z</time>
      </trkpt>
      <trkpt lat="42.92154" lon="0.84895">
        <ele>1250</ele>
        <time>2018-12-02T09:01:58.000Z</time>
      </trkpt>
      <trkpt lat="42.92154" lon="0.84893">
        <ele>1251</ele>
        <time>2018-12-02T09:02:00.000Z</time>
      </trkpt>
      <trkpt lat="42.92153" lon="0.84892">
        <ele>1251</ele>
        <time>2018-12-02T09:02:02.000Z</time>
      </trkpt>
      <trkpt lat="42.92153" lon="0.8489">
        <ele>1251</ele>
        <time>2018-12-02T09:02:04.000Z</time>
      </trkpt>
      <trkpt lat="42.92153" lon="0.84888">
        <ele>1251</ele>
        <time>2018-12-02T09:02:06.000Z</time>
      </trkpt>
      <trkpt lat="42.92153" lon="0.84887">
        <ele>1251</ele>
        <time>2018-12-02T09:02:08.000Z</time>
      </trkpt>
      <trkpt lat="42.92153" lon="0.84886">
        <ele>1252</ele>
        <time>2018-12-02T09:02:10.000Z</time>
      </trkpt>
      <trkpt lat="42.92153" lon="0.84885">
        <ele>1252</ele>
        <time>2018-12-02T09:02:12.000Z</time>
      </trkpt>
      <trkpt lat="42.92152" lon="0.84883">
        <ele>1252</ele>
        <time>2018-12-02T09:02:14.000Z</time>
      </trkpt>
      <trkpt lat="42.92152" lon="0.84881">
        <ele>1253</ele>
        <time>2018-12-02T09:02:16.000Z</time>
      </trkpt>
      <trkpt lat="42.92151" lon="0.8488">
        <ele>1253</ele>
        <time>2018-12-02T09:02:18.000Z</time>
      </trkpt>
      <trkpt lat="42.92151" lon="0.84879">
        <ele>1253</ele>
        <time>2018-12-02T09:02:20.000Z</time>
      </trkpt>
      <trkpt lat="42.92151" lon="0.84877">
        <ele>1253</ele>
        <time>2018-12-02T09:02:22.000Z</time>
      </trkpt>
      <trkpt lat="42.9215" lon="0.84875">
        <ele>1254</ele>
        <time>2018-12-02T09:02:24.000Z</time>
      </trkpt>
      <trkpt lat="42.92149" lon="0.84873">
        <ele>1254</ele>
        <time>2018-12-02T09:02:26.000Z</time>
      </trkpt>
      <trkpt lat="42.92149" lon="0.8487">
        <ele>1255</ele>
        <time>2018-12-02T09:02:28.000Z</time>
      </trkpt>
      <trkpt lat="42.92149" lon="0.84868">
        <ele>1255</ele>
        <time>2018-12-02T09:02:30.000Z</time>
      </trkpt>
      <trkpt lat="42.92149" lon="0.84866">
        <ele>1255</ele>
        <time>2018-12-02T09:02:32.000Z</time>
      </trkpt>
      <trkpt lat="42.92149" lon="0.84864">
        <ele>1256</ele>
        <time>2018-12-02T09:02:34.000Z</time>
      </trkpt>
      <trkpt lat="42.92149" lon="0.84862">
        <ele>1256</ele>
        <time>2018-12-02T09:02:36.000Z</time>
      </trkpt>
      <trkpt lat="42.9215" lon="0.84861">
        <ele>1256</ele>
        <time>2018-12-02T09:02:38.000Z</time>
      </trkpt>
      <trkpt lat="42.9215" lon="0.8486">
        <ele>1257</ele>
        <time>2018-12-02T09:02:40.000Z</time>
      </trkpt>
      <trkpt lat="42.9215" lon="0.84858">
        <ele>1257</ele>
        <time>2018-12-02T09:02:42.000Z</time>
      </trkpt>
      <trkpt lat="42.9215" lon="0.84855">
        <ele>1257</ele>
        <time>2018-12-02T09:02:44.000Z</time>
      </trkpt>
      <trkpt lat="42.9215" lon="0.84853">
        <ele>1257</ele>
        <time>2018-12-02T09:02:46.000Z</time>
      </trkpt>
      <trkpt lat="42.9215" lon="0.84852">
        <ele>1257</ele>
        <time>2018-12-02T09:02:48.000Z</time>
      </trkpt>
      <trkpt lat="42.9215" lon="0.84852">
        <ele>1257</ele>
        <time>2018-12-02T09:02:50.000Z</time>
      </trkpt>
      <trkpt lat="42.9215" lon="0.84851">
        <ele>1258</ele>
        <time>2018-12-02T09:02:52.000Z</time>
      </trkpt>
      <trkpt lat="42.9215" lon="0.84851">
        <ele>1258</ele>
        <time>2018-12-02T09:02:54.000Z</time>
      </trkpt>
      <trkpt lat="42.92149" lon="0.8485">
        <ele>1258</ele>
        <time>2018-12-02T09:02:56.000Z</time>
      </trkpt>
      <trkpt lat="42.92148" lon="0.84848">
        <ele>1258</ele>
        <time>2018-12-02T09:02:58.000Z</time>
      </trkpt>
      <trkpt lat="42.92148" lon="0.84847">
        <ele>1258</ele>
        <time>2018-12-02T09:03:00.000Z</time>
      </trkpt>
      <trkpt lat="42.92147" lon="0.84845">
        <ele>1258</ele>
        <time>2018-12-02T09:03:02.000Z</time>
      </trkpt>
      <trkpt lat="42.92146" lon="0.84843">
        <ele>1258</ele>
        <time>2018-12-02T09:03:04.000Z</time>
      </trkpt>
      <trkpt lat="42.92144" lon="0.84842">
        <ele>1258</ele>
        <time>2018-12-02T09:03:06.000Z</time>
      </trkpt>
      <trkpt lat="42.92143" lon="0.84842">
        <ele>1258</ele>
        <time>2018-12-02T09:03:08.000Z</time>
      </trkpt>
      <trkpt lat="42.92142" lon="0.84841">
        <ele>1258</ele>
        <time>2018-12-02T09:03:10.000Z</time>
      </trkpt>
      <trkpt lat="42.92141" lon="0.84841">
        <ele>1258</ele>
        <time>2018-12-02T09:03:12.000Z</time>
      </trkpt>
      <trkpt lat="42.9214" lon="0.8484">
        <ele>1258</ele>
        <time>2018-12-02T09:03:14.000Z</time>
      </trkpt>
      <trkpt lat="42.92138" lon="0.84838">
        <ele>1258</ele>
        <time>2018-12-02T09:03:16.000Z</time>
      </trkpt>
      <trkpt lat="42.92137" lon="0.84836">
        <ele>1258</ele>
        <time>2018-12-02T09:03:18.000Z</time>
      </trkpt>
      <trkpt lat="42.92135" lon="0.84835">
        <ele>1258</ele>
        <time>2018-12-02T09:03:20.000Z</time>
      </trkpt>
      <trkpt lat="42.92134" lon="0.84833">
        <ele>1258</ele>
        <time>2018-12-02T09:03:22.000Z</time>
      </trkpt>
      <trkpt lat="42.92132" lon="0.84831">
        <ele>1258</ele>
        <time>2018-12-02T09:03:24.000Z</time>
      </trkpt>
      <trkpt lat="42.9213" lon="0.84831">
        <ele>1258</ele>
        <time>2018-12-02T09:03:26.000Z</time>
      </trkpt>
      <trkpt lat="42.92129" lon="0.84829">
        <ele>1258</ele>
        <time>2018-12-02T09:03:28.000Z</time>
      </trkpt>
      <trkpt lat="42.92128" lon="0.84828">
        <ele>1258</ele>
        <time>2018-12-02T09:03:30.000Z</time>
      </trkpt>
      <trkpt lat="42.92126" lon="0.84827">
        <ele>1259</ele>
        <time>2018-12-02T09:03:32.000Z</time>
      </trkpt>
      <trkpt lat="42.92125" lon="0.84825">
        <ele>1259</ele>
        <time>2018-12-02T09:03:34.000Z</time>
      </trkpt>
      <trkpt lat="42.92123" lon="0.84823">
        <ele>1259</ele>
        <time>2018-12-02T09:03:36.000Z</time>
      </trkpt>
      <trkpt lat="42.92122" lon="0.84821">
        <ele>1259</ele>
        <time>2018-12-02T09:03:38.000Z</time>
      </trkpt>
      <trkpt lat="42.9212" lon="0.8482">
        <ele>1259</ele>
        <time>2018-12-02T09:03:40.000Z</time>
      </trkpt>
      <trkpt lat="42.92119" lon="0.84818">
        <ele>1259</ele>
        <time>2018-12-02T09:03:42.000Z</time>
      </trkpt>
      <trkpt lat="42.92117" lon="0.84815">
        <ele>1259</ele>
        <time>2018-12-02T09:03:44.000Z</time>
      </trkpt>
      <trkpt lat="42.92116" lon="0.84812">
        <ele>1259</ele>
        <time>2018-12-02T09:03:46.000Z</time>
      </trkpt>
      <trkpt lat="42.92115" lon="0.8481">
        <ele>1260</ele>
        <time>2018-12-02T09:03:48.000Z</time>
      </trkpt>
      <trkpt lat="42.92114" lon="0.84808">
        <ele>1260</ele>
        <time>2018-12-02T09:03:50.000Z</time>
      </trkpt>
      <trkpt lat="42.92113" lon="0.84806">
        <ele>1260</ele>
        <time>2018-12-02T09:03:52.000Z</time>
      </trkpt>
      <trkpt lat="42.92112" lon="0.84804">
        <ele>1260</ele>
        <time>2018-12-02T09:03:54.000Z</time>
      </trkpt>
      <trkpt lat="42.9211" lon="0.84802">
        <ele>1260</ele>
        <time>2018-12-02T09:03:56.000Z</time>
      </trkpt>
      <trkpt lat="42.92109" lon="0.848">
        <ele>1260</ele>
        <time>2018-12-02T09:03:58.000Z</time>
      </trkpt>
      <trkpt lat="42.92108" lon="0.84798">
        <ele>1260</ele>
        <time>2018-12-02T09:04:00.000Z</time>
      </trkpt>
      <trkpt lat="42.92106" lon="0.84796">
        <ele>1260</ele>
        <time>2018-12-02T09:04:02.000Z</time>
      </trkpt>
      <trkpt lat="42.92105" lon="0.84795">
        <ele>1260</ele>
        <time>2018-12-02T09:04:05.000Z</time>
      </trkpt>
      <trkpt lat="42.92104" lon="0.84794">
        <ele>1260</ele>
        <time>2018-12-02T09:04:07.000Z</time>
      </trkpt>
      <trkpt lat="42.92102" lon="0.84793">
        <ele>1260</ele>
        <time>2018-12-02T09:04:09.000Z</time>
      </trkpt>
      <trkpt lat="42.92101" lon="0.84792">
        <ele>1260</ele>
        <time>2018-12-02T09:04:11.000Z</time>
      </trkpt>
      <trkpt lat="42.921" lon="0.8479">
        <ele>1260</ele>
        <time>2018-12-02T09:04:13.000Z</time>
      </trkpt>
      <trkpt lat="42.92098" lon="0.84788">
        <ele>1261</ele>
        <time>2018-12-02T09:04:15.000Z</time>
      </trkpt>
      <trkpt lat="42.92096" lon="0.84787">
        <ele>1261</ele>
        <time>2018-12-02T09:04:18.000Z</time>
      </trkpt>
      <trkpt lat="42.92095" lon="0.84786">
        <ele>1261</ele>
        <time>2018-12-02T09:04:20.000Z</time>
      </trkpt>
      <trkpt lat="42.92094" lon="0.84784">
        <ele>1261</ele>
        <time>2018-12-02T09:04:22.000Z</time>
      </trkpt>
      <trkpt lat="42.92093" lon="0.84783">
        <ele>1261</ele>
        <time>2018-12-02T09:04:24.000Z</time>
      </trkpt>
      <trkpt lat="42.92091" lon="0.8478">
        <ele>1261</ele>
        <time>2018-12-02T09:04:26.000Z</time>
      </trkpt>
      <trkpt lat="42.9209" lon="0.84779">
        <ele>1261</ele>
        <time>2018-12-02T09:04:29.000Z</time>
      </trkpt>
      <trkpt lat="42.92087" lon="0.84777">
        <ele>1262</ele>
        <time>2018-12-02T09:04:32.000Z</time>
      </trkpt>
      <trkpt lat="42.92085" lon="0.84776">
        <ele>1262</ele>
        <time>2018-12-02T09:04:35.000Z</time>
      </trkpt>
      <trkpt lat="42.92083" lon="0.84773">
        <ele>1263</ele>
        <time>2018-12-02T09:04:38.000Z</time>
      </trkpt>
      <trkpt lat="42.9208" lon="0.84771">
        <ele>1264</ele>
        <time>2018-12-02T09:04:40.000Z</time>
      </trkpt>
      <trkpt lat="42.92079" lon="0.8477">
        <ele>1264</ele>
        <time>2018-12-02T09:04:43.000Z</time>
      </trkpt>
      <trkpt lat="42.92078" lon="0.84768">
        <ele>1264</ele>
        <time>2018-12-02T09:04:45.000Z</time>
      </trkpt>
      <trkpt lat="42.92077" lon="0.84767">
        <ele>1265</ele>
        <time>2018-12-02T09:04:47.000Z</time>
      </trkpt>
      <trkpt lat="42.92075" lon="0.84766">
        <ele>1265</ele>
        <time>2018-12-02T09:04:49.000Z</time>
      </trkpt>
      <trkpt lat="42.92074" lon="0.84765">
        <ele>1265</ele>
        <time>2018-12-02T09:04:51.000Z</time>
      </trkpt>
      <trkpt lat="42.92073" lon="0.84765">
        <ele>1266</ele>
        <time>2018-12-02T09:04:53.000Z</time>
      </trkpt>
      <trkpt lat="42.92072" lon="0.84763">
        <ele>1266</ele>
        <time>2018-12-02T09:04:55.000Z</time>
      </trkpt>
      <trkpt lat="42.9207" lon="0.84763">
        <ele>1266</ele>
        <time>2018-12-02T09:04:57.000Z</time>
      </trkpt>
      <trkpt lat="42.92068" lon="0.8476">
        <ele>1267</ele>
        <time>2018-12-02T09:05:00.000Z</time>
      </trkpt>
      <trkpt lat="42.92068" lon="0.84758">
        <ele>1267</ele>
        <time>2018-12-02T09:05:03.000Z</time>
      </trkpt>
      <trkpt lat="42.92067" lon="0.84758">
        <ele>1267</ele>
        <time>2018-12-02T09:05:05.000Z</time>
      </trkpt>
      <trkpt lat="42.92066" lon="0.84757">
        <ele>1268</ele>
        <time>2018-12-02T09:05:07.000Z</time>
      </trkpt>
      <trkpt lat="42.92064" lon="0.84756">
        <ele>1268</ele>
        <time>2018-12-02T09:05:09.000Z</time>
      </trkpt>
      <trkpt lat="42.92063" lon="0.84755">
        <ele>1268</ele>
        <time>2018-12-02T09:05:11.000Z</time>
      </trkpt>
      <trkpt lat="42.92062" lon="0.84754">
        <ele>1269</ele>
        <time>2018-12-02T09:05:14.000Z</time>
      </trkpt>
      <trkpt lat="42.92061" lon="0.84753">
        <ele>1269</ele>
        <time>2018-12-02T09:05:17.000Z</time>
      </trkpt>
      <trkpt lat="42.9206" lon="0.84753">
        <ele>1269</ele>
        <time>2018-12-02T09:05:19.000Z</time>
      </trkpt>
      <trkpt lat="42.92059" lon="0.84752">
        <ele>1269</ele>
        <time>2018-12-02T09:05:21.000Z</time>
      </trkpt>
      <trkpt lat="42.92057" lon="0.84752">
        <ele>1270</ele>
        <time>2018-12-02T09:05:24.000Z</time>
      </trkpt>
      <trkpt lat="42.92056" lon="0.84752">
        <ele>1270</ele>
        <time>2018-12-02T09:05:28.000Z</time>
      </trkpt>
      <trkpt lat="42.92056" lon="0.84751">
        <ele>1270</ele>
        <time>2018-12-02T09:05:30.000Z</time>
      </trkpt>
      <trkpt lat="42.92055" lon="0.8475">
        <ele>1270</ele>
        <time>2018-12-02T09:05:33.000Z</time>
      </trkpt>
      <trkpt lat="42.92054" lon="0.84749">
        <ele>1271</ele>
        <time>2018-12-02T09:05:35.000Z</time>
      </trkpt>
      <trkpt lat="42.92053" lon="0.84747">
        <ele>1271</ele>
        <time>2018-12-02T09:05:38.000Z</time>
      </trkpt>
      <trkpt lat="42.92051" lon="0.84745">
        <ele>1272</ele>
        <time>2018-12-02T09:05:40.000Z</time>
      </trkpt>
      <trkpt lat="42.9205" lon="0.84744">
        <ele>1272</ele>
        <time>2018-12-02T09:05:44.000Z</time>
      </trkpt>
      <trkpt lat="42.92048" lon="0.84743">
        <ele>1272</ele>
        <time>2018-12-02T09:05:46.000Z</time>
      </trkpt>
      <trkpt lat="42.92046" lon="0.84742">
        <ele>1273</ele>
        <time>2018-12-02T09:05:48.000Z</time>
      </trkpt>
      <trkpt lat="42.92045" lon="0.84742">
        <ele>1273</ele>
        <time>2018-12-02T09:05:50.000Z</time>
      </trkpt>
      <trkpt lat="42.92043" lon="0.84741">
        <ele>1274</ele>
        <time>2018-12-02T09:05:52.000Z</time>
      </trkpt>
      <trkpt lat="42.92041" lon="0.8474">
        <ele>1274</ele>
        <time>2018-12-02T09:05:54.000Z</time>
      </trkpt>
      <trkpt lat="42.9204" lon="0.84739">
        <ele>1274</ele>
        <time>2018-12-02T09:05:56.000Z</time>
      </trkpt>
      <trkpt lat="42.92039" lon="0.84738">
        <ele>1275</ele>
        <time>2018-12-02T09:05:58.000Z</time>
      </trkpt>
      <trkpt lat="42.92037" lon="0.84737">
        <ele>1275</ele>
        <time>2018-12-02T09:06:00.000Z</time>
      </trkpt>
      <trkpt lat="42.92036" lon="0.84735">
        <ele>1275</ele>
        <time>2018-12-02T09:06:02.000Z</time>
      </trkpt>
      <trkpt lat="42.92035" lon="0.84734">
        <ele>1276</ele>
        <time>2018-12-02T09:06:04.000Z</time>
      </trkpt>
      <trkpt lat="42.92034" lon="0.84733">
        <ele>1276</ele>
        <time>2018-12-02T09:06:06.000Z</time>
      </trkpt>
      <trkpt lat="42.92033" lon="0.84732">
        <ele>1276</ele>
        <time>2018-12-02T09:06:08.000Z</time>
      </trkpt>
      <trkpt lat="42.92033" lon="0.8473">
        <ele>1277</ele>
        <time>2018-12-02T09:06:10.000Z</time>
      </trkpt>
      <trkpt lat="42.92032" lon="0.84728">
        <ele>1277</ele>
        <time>2018-12-02T09:06:12.000Z</time>
      </trkpt>
      <trkpt lat="42.92032" lon="0.84727">
        <ele>1277</ele>
        <time>2018-12-02T09:06:14.000Z</time>
      </trkpt>
      <trkpt lat="42.92031" lon="0.84725">
        <ele>1277</ele>
        <time>2018-12-02T09:06:16.000Z</time>
      </trkpt>
      <trkpt lat="42.92031" lon="0.84723">
        <ele>1278</ele>
        <time>2018-12-02T09:06:18.000Z</time>
      </trkpt>
      <trkpt lat="42.92031" lon="0.84721">
        <ele>1278</ele>
        <time>2018-12-02T09:06:20.000Z</time>
      </trkpt>
      <trkpt lat="42.92031" lon="0.84719">
        <ele>1278</ele>
        <time>2018-12-02T09:06:22.000Z</time>
      </trkpt>
      <trkpt lat="42.92032" lon="0.84718">
        <ele>1278</ele>
        <time>2018-12-02T09:06:24.000Z</time>
      </trkpt>
      <trkpt lat="42.92031" lon="0.84715">
        <ele>1279</ele>
        <time>2018-12-02T09:06:27.000Z</time>
      </trkpt>
      <trkpt lat="42.92031" lon="0.84713">
        <ele>1279</ele>
        <time>2018-12-02T09:06:29.000Z</time>
      </trkpt>
      <trkpt lat="42.92031" lon="0.84711">
        <ele>1279</ele>
        <time>2018-12-02T09:06:31.000Z</time>
      </trkpt>
      <trkpt lat="42.92031" lon="0.84709">
        <ele>1279</ele>
        <time>2018-12-02T09:06:33.000Z</time>
      </trkpt>
      <trkpt lat="42.92031" lon="0.84706">
        <ele>1280</ele>
        <time>2018-12-02T09:06:35.000Z</time>
      </trkpt>
      <trkpt lat="42.92032" lon="0.84704">
        <ele>1280</ele>
        <time>2018-12-02T09:06:38.000Z</time>
      </trkpt>
      <trkpt lat="42.92033" lon="0.84701">
        <ele>1280</ele>
        <time>2018-12-02T09:06:40.000Z</time>
      </trkpt>
      <trkpt lat="42.92034" lon="0.84699">
        <ele>1280</ele>
        <time>2018-12-02T09:06:42.000Z</time>
      </trkpt>
      <trkpt lat="42.92034" lon="0.84697">
        <ele>1281</ele>
        <time>2018-12-02T09:06:45.000Z</time>
      </trkpt>
      <trkpt lat="42.92034" lon="0.84694">
        <ele>1281</ele>
        <time>2018-12-02T09:06:47.000Z</time>
      </trkpt>
      <trkpt lat="42.92035" lon="0.84692">
        <ele>1281</ele>
        <time>2018-12-02T09:06:50.000Z</time>
      </trkpt>
      <trkpt lat="42.92036" lon="0.84689">
        <ele>1281</ele>
        <time>2018-12-02T09:06:52.000Z</time>
      </trkpt>
      <trkpt lat="42.92037" lon="0.84688">
        <ele>1281</ele>
        <time>2018-12-02T09:06:55.000Z</time>
      </trkpt>
      <trkpt lat="42.92038" lon="0.84685">
        <ele>1281</ele>
        <time>2018-12-02T09:06:57.000Z</time>
      </trkpt>
      <trkpt lat="42.92038" lon="0.84684">
        <ele>1282</ele>
        <time>2018-12-02T09:07:00.000Z</time>
      </trkpt>
      <trkpt lat="42.92039" lon="0.84682">
        <ele>1282</ele>
        <time>2018-12-02T09:07:02.000Z</time>
      </trkpt>
      <trkpt lat="42.92039" lon="0.84678">
        <ele>1282</ele>
        <time>2018-12-02T09:07:05.000Z</time>
      </trkpt>
      <trkpt lat="42.9204" lon="0.84676">
        <ele>1282</ele>
        <time>2018-12-02T09:07:07.000Z</time>
      </trkpt>
      <trkpt lat="42.92041" lon="0.84673">
        <ele>1282</ele>
        <time>2018-12-02T09:07:09.000Z</time>
      </trkpt>
      <trkpt lat="42.92042" lon="0.8467">
        <ele>1283</ele>
        <time>2018-12-02T09:07:12.000Z</time>
      </trkpt>
      <trkpt lat="42.92043" lon="0.84668">
        <ele>1283</ele>
        <time>2018-12-02T09:07:14.000Z</time>
      </trkpt>
      <trkpt lat="42.92044" lon="0.84666">
        <ele>1283</ele>
        <time>2018-12-02T09:07:16.000Z</time>
      </trkpt>
      <trkpt lat="42.92046" lon="0.84664">
        <ele>1283</ele>
        <time>2018-12-02T09:07:19.000Z</time>
      </trkpt>
      <trkpt lat="42.92047" lon="0.84663">
        <ele>1283</ele>
        <time>2018-12-02T09:07:21.000Z</time>
      </trkpt>
      <trkpt lat="42.92049" lon="0.84662">
        <ele>1283</ele>
        <time>2018-12-02T09:07:23.000Z</time>
      </trkpt>
      <trkpt lat="42.9205" lon="0.84659">
        <ele>1284</ele>
        <time>2018-12-02T09:07:25.000Z</time>
      </trkpt>
      <trkpt lat="42.92051" lon="0.84658">
        <ele>1284</ele>
        <time>2018-12-02T09:07:27.000Z</time>
      </trkpt>
      <trkpt lat="42.92053" lon="0.84657">
        <ele>1284</ele>
        <time>2018-12-02T09:07:31.000Z</time>
      </trkpt>
      <trkpt lat="42.92055" lon="0.84655">
        <ele>1284</ele>
        <time>2018-12-02T09:07:33.000Z</time>
      </trkpt>
      <trkpt lat="42.92056" lon="0.84654">
        <ele>1284</ele>
        <time>2018-12-02T09:07:36.000Z</time>
      </trkpt>
      <trkpt lat="42.92058" lon="0.84653">
        <ele>1284</ele>
        <time>2018-12-02T09:07:39.000Z</time>
      </trkpt>
      <trkpt lat="42.92062" lon="0.84653">
        <ele>1283</ele>
        <time>2018-12-02T09:07:43.000Z</time>
      </trkpt>
      <trkpt lat="42.92064" lon="0.84653">
        <ele>1283</ele>
        <time>2018-12-02T09:07:46.000Z</time>
      </trkpt>
      <trkpt lat="42.92066" lon="0.84653">
        <ele>1283</ele>
        <time>2018-12-02T09:07:48.000Z</time>
      </trkpt>
      <trkpt lat="42.92067" lon="0.84652">
        <ele>1283</ele>
        <time>2018-12-02T09:07:50.000Z</time>
      </trkpt>
      <trkpt lat="42.92069" lon="0.84652">
        <ele>1283</ele>
        <time>2018-12-02T09:07:52.000Z</time>
      </trkpt>
      <trkpt lat="42.9207" lon="0.8465">
        <ele>1283</ele>
        <time>2018-12-02T09:07:54.000Z</time>
      </trkpt>
      <trkpt lat="42.92072" lon="0.84649">
        <ele>1283</ele>
        <time>2018-12-02T09:07:58.000Z</time>
      </trkpt>
      <trkpt lat="42.92075" lon="0.84649">
        <ele>1282</ele>
        <time>2018-12-02T09:08:01.000Z</time>
      </trkpt>
      <trkpt lat="42.92076" lon="0.84649">
        <ele>1282</ele>
        <time>2018-12-02T09:08:03.000Z</time>
      </trkpt>
      <trkpt lat="42.92077" lon="0.8465">
        <ele>1282</ele>
        <time>2018-12-02T09:08:05.000Z</time>
      </trkpt>
      <trkpt lat="42.92079" lon="0.84649">
        <ele>1282</ele>
        <time>2018-12-02T09:08:07.000Z</time>
      </trkpt>
      <trkpt lat="42.92081" lon="0.8465">
        <ele>1281</ele>
        <time>2018-12-02T09:08:10.000Z</time>
      </trkpt>
      <trkpt lat="42.92081" lon="0.84648">
        <ele>1282</ele>
        <time>2018-12-02T09:08:12.000Z</time>
      </trkpt>
      <trkpt lat="42.92082" lon="0.84647">
        <ele>1282</ele>
        <time>2018-12-02T09:08:14.000Z</time>
      </trkpt>
      <trkpt lat="42.92084" lon="0.84646">
        <ele>1282</ele>
        <time>2018-12-02T09:08:16.000Z</time>
      </trkpt>
      <trkpt lat="42.92085" lon="0.84647">
        <ele>1281</ele>
        <time>2018-12-02T09:08:18.000Z</time>
      </trkpt>
      <trkpt lat="42.92086" lon="0.84646">
        <ele>1281</ele>
        <time>2018-12-02T09:08:21.000Z</time>
      </trkpt>
      <trkpt lat="42.92088" lon="0.84646">
        <ele>1281</ele>
        <time>2018-12-02T09:08:23.000Z</time>
      </trkpt>
      <trkpt lat="42.92088" lon="0.84645">
        <ele>1281</ele>
        <time>2018-12-02T09:08:25.000Z</time>
      </trkpt>
      <trkpt lat="42.92089" lon="0.84644">
        <ele>1281</ele>
        <time>2018-12-02T09:08:27.000Z</time>
      </trkpt>
      <trkpt lat="42.92091" lon="0.84643">
        <ele>1281</ele>
        <time>2018-12-02T09:08:29.000Z</time>
      </trkpt>
      <trkpt lat="42.92092" lon="0.84644">
        <ele>1281</ele>
        <time>2018-12-02T09:08:31.000Z</time>
      </trkpt>
      <trkpt lat="42.92095" lon="0.84643">
        <ele>1282</ele>
        <time>2018-12-02T09:08:34.000Z</time>
      </trkpt>
      <trkpt lat="42.92097" lon="0.84643">
        <ele>1282</ele>
        <time>2018-12-02T09:08:37.000Z</time>
      </trkpt>
      <trkpt lat="42.92098" lon="0.84643">
        <ele>1282</ele>
        <time>2018-12-02T09:08:39.000Z</time>
      </trkpt>
      <trkpt lat="42.921" lon="0.84644">
        <ele>1283</ele>
        <time>2018-12-02T09:08:42.000Z</time>
      </trkpt>
      <trkpt lat="42.92102" lon="0.84643">
        <ele>1283</ele>
        <time>2018-12-02T09:08:45.000Z</time>
      </trkpt>
      <trkpt lat="42.92103" lon="0.84643">
        <ele>1283</ele>
        <time>2018-12-02T09:08:47.000Z</time>
      </trkpt>
      <trkpt lat="42.92105" lon="0.84643">
        <ele>1284</ele>
        <time>2018-12-02T09:08:50.000Z</time>
      </trkpt>
      <trkpt lat="42.92106" lon="0.84642">
        <ele>1284</ele>
        <time>2018-12-02T09:08:52.000Z</time>
      </trkpt>
      <trkpt lat="42.92107" lon="0.84641">
        <ele>1285</ele>
        <time>2018-12-02T09:08:54.000Z</time>
      </trkpt>
      <trkpt lat="42.92108" lon="0.8464">
        <ele>1285</ele>
        <time>2018-12-02T09:08:56.000Z</time>
      </trkpt>
      <trkpt lat="42.92108" lon="0.8464">
        <ele>1285</ele>
        <time>2018-12-02T09:08:58.000Z</time>
      </trkpt>
      <trkpt lat="42.92109" lon="0.8464">
        <ele>1285</ele>
        <time>2018-12-02T09:09:00.000Z</time>
      </trkpt>
      <trkpt lat="42.92109" lon="0.84638">
        <ele>1286</ele>
        <time>2018-12-02T09:09:02.000Z</time>
      </trkpt>
      <trkpt lat="42.9211" lon="0.84637">
        <ele>1286</ele>
        <time>2018-12-02T09:09:04.000Z</time>
      </trkpt>
      <trkpt lat="42.92111" lon="0.84637">
        <ele>1287</ele>
        <time>2018-12-02T09:09:06.000Z</time>
      </trkpt>
      <trkpt lat="42.92112" lon="0.84637">
        <ele>1287</ele>
        <time>2018-12-02T09:09:08.000Z</time>
      </trkpt>
      <trkpt lat="42.92114" lon="0.84636">
        <ele>1288</ele>
        <time>2018-12-02T09:09:10.000Z</time>
      </trkpt>
      <trkpt lat="42.92115" lon="0.84636">
        <ele>1288</ele>
        <time>2018-12-02T09:09:12.000Z</time>
      </trkpt>
      <trkpt lat="42.92116" lon="0.84635">
        <ele>1289</ele>
        <time>2018-12-02T09:09:14.000Z</time>
      </trkpt>
      <trkpt lat="42.92118" lon="0.84634">
        <ele>1289</ele>
        <time>2018-12-02T09:09:16.000Z</time>
      </trkpt>
      <trkpt lat="42.92119" lon="0.84633">
        <ele>1290</ele>
        <time>2018-12-02T09:09:18.000Z</time>
      </trkpt>
      <trkpt lat="42.9212" lon="0.84632">
        <ele>1290</ele>
        <time>2018-12-02T09:09:20.000Z</time>
      </trkpt>
      <trkpt lat="42.92121" lon="0.84632">
        <ele>1291</ele>
        <time>2018-12-02T09:09:22.000Z</time>
      </trkpt>
      <trkpt lat="42.92121" lon="0.84632">
        <ele>1291</ele>
        <time>2018-12-02T09:09:24.000Z</time>
      </trkpt>
      <trkpt lat="42.92122" lon="0.84631">
        <ele>1291</ele>
        <time>2018-12-02T09:09:26.000Z</time>
      </trkpt>
      <trkpt lat="42.92123" lon="0.84631">
        <ele>1292</ele>
        <time>2018-12-02T09:09:28.000Z</time>
      </trkpt>
      <trkpt lat="42.92125" lon="0.84629">
        <ele>1293</ele>
        <time>2018-12-02T09:09:31.000Z</time>
      </trkpt>
      <trkpt lat="42.92126" lon="0.84628">
        <ele>1293</ele>
        <time>2018-12-02T09:09:33.000Z</time>
      </trkpt>
      <trkpt lat="42.92127" lon="0.84627">
        <ele>1294</ele>
        <time>2018-12-02T09:09:35.000Z</time>
      </trkpt>
      <trkpt lat="42.92128" lon="0.84626">
        <ele>1294</ele>
        <time>2018-12-02T09:09:38.000Z</time>
      </trkpt>
      <trkpt lat="42.92129" lon="0.84626">
        <ele>1295</ele>
        <time>2018-12-02T09:09:40.000Z</time>
      </trkpt>
      <trkpt lat="42.92131" lon="0.84625">
        <ele>1295</ele>
        <time>2018-12-02T09:09:42.000Z</time>
      </trkpt>
      <trkpt lat="42.92132" lon="0.84625">
        <ele>1296</ele>
        <time>2018-12-02T09:09:44.000Z</time>
      </trkpt>
      <trkpt lat="42.92134" lon="0.84624">
        <ele>1296</ele>
        <time>2018-12-02T09:09:46.000Z</time>
      </trkpt>
      <trkpt lat="42.92136" lon="0.84624">
        <ele>1297</ele>
        <time>2018-12-02T09:09:48.000Z</time>
      </trkpt>
      <trkpt lat="42.92137" lon="0.84623">
        <ele>1297</ele>
        <time>2018-12-02T09:09:50.000Z</time>
      </trkpt>
      <trkpt lat="42.92139" lon="0.84623">
        <ele>1298</ele>
        <time>2018-12-02T09:09:52.000Z</time>
      </trkpt>
      <trkpt lat="42.92141" lon="0.84623">
        <ele>1298</ele>
        <time>2018-12-02T09:09:54.000Z</time>
      </trkpt>
      <trkpt lat="42.92142" lon="0.84623">
        <ele>1298</ele>
        <time>2018-12-02T09:09:56.000Z</time>
      </trkpt>
      <trkpt lat="42.92144" lon="0.84624">
        <ele>1298</ele>
        <time>2018-12-02T09:09:59.000Z</time>
      </trkpt>
      <trkpt lat="42.92145" lon="0.84624">
        <ele>1299</ele>
        <time>2018-12-02T09:10:01.000Z</time>
      </trkpt>
      <trkpt lat="42.92146" lon="0.84623">
        <ele>1299</ele>
        <time>2018-12-02T09:10:03.000Z</time>
      </trkpt>
      <trkpt lat="42.92148" lon="0.84623">
        <ele>1300</ele>
        <time>2018-12-02T09:10:06.000Z</time>
      </trkpt>
      <trkpt lat="42.9215" lon="0.84623">
        <ele>1300</ele>
        <time>2018-12-02T09:10:08.000Z</time>
      </trkpt>
      <trkpt lat="42.92151" lon="0.84623">
        <ele>1300</ele>
        <time>2018-12-02T09:10:11.000Z</time>
      </trkpt>
      <trkpt lat="42.92152" lon="0.84624">
        <ele>1300</ele>
        <time>2018-12-02T09:10:14.000Z</time>
      </trkpt>
      <trkpt lat="42.92153" lon="0.84624">
        <ele>1300</ele>
        <time>2018-12-02T09:10:16.000Z</time>
      </trkpt>
      <trkpt lat="42.92154" lon="0.84624">
        <ele>1300</ele>
        <time>2018-12-02T09:10:19.000Z</time>
      </trkpt>
      <trkpt lat="42.92156" lon="0.84624">
        <ele>1301</ele>
        <time>2018-12-02T09:10:21.000Z</time>
      </trkpt>
      <trkpt lat="42.92157" lon="0.84623">
        <ele>1301</ele>
        <time>2018-12-02T09:10:23.000Z</time>
      </trkpt>
      <trkpt lat="42.92157" lon="0.84624">
        <ele>1301</ele>
        <time>2018-12-02T09:10:25.000Z</time>
      </trkpt>
      <trkpt lat="42.92158" lon="0.84625">
        <ele>1301</ele>
        <time>2018-12-02T09:10:27.000Z</time>
      </trkpt>
      <trkpt lat="42.92159" lon="0.84625">
        <ele>1301</ele>
        <time>2018-12-02T09:10:30.000Z</time>
      </trkpt>
      <trkpt lat="42.92161" lon="0.84627">
        <ele>1301</ele>
        <time>2018-12-02T09:10:33.000Z</time>
      </trkpt>
      <trkpt lat="42.92162" lon="0.84627">
        <ele>1301</ele>
        <time>2018-12-02T09:10:35.000Z</time>
      </trkpt>
      <trkpt lat="42.92163" lon="0.84627">
        <ele>1300</ele>
        <time>2018-12-02T09:10:37.000Z</time>
      </trkpt>
      <trkpt lat="42.92164" lon="0.84628">
        <ele>1300</ele>
        <time>2018-12-02T09:10:39.000Z</time>
      </trkpt>
      <trkpt lat="42.92164" lon="0.84629">
        <ele>1300</ele>
        <time>2018-12-02T09:10:41.000Z</time>
      </trkpt>
      <trkpt lat="42.92166" lon="0.84631">
        <ele>1300</ele>
        <time>2018-12-02T09:10:45.000Z</time>
      </trkpt>
      <trkpt lat="42.92168" lon="0.84632">
        <ele>1299</ele>
        <time>2018-12-02T09:10:47.000Z</time>
      </trkpt>
      <trkpt lat="42.92168" lon="0.84633">
        <ele>1299</ele>
        <time>2018-12-02T09:10:49.000Z</time>
      </trkpt>
      <trkpt lat="42.9217" lon="0.84634">
        <ele>1299</ele>
        <time>2018-12-02T09:10:51.000Z</time>
      </trkpt>
      <trkpt lat="42.92171" lon="0.84635">
        <ele>1299</ele>
        <time>2018-12-02T09:10:53.000Z</time>
      </trkpt>
      <trkpt lat="42.92173" lon="0.84636">
        <ele>1299</ele>
        <time>2018-12-02T09:10:56.000Z</time>
      </trkpt>
      <trkpt lat="42.92175" lon="0.84637">
        <ele>1299</ele>
        <time>2018-12-02T09:10:59.000Z</time>
      </trkpt>
      <trkpt lat="42.92176" lon="0.84638">
        <ele>1299</ele>
        <time>2018-12-02T09:11:01.000Z</time>
      </trkpt>
      <trkpt lat="42.92177" lon="0.8464">
        <ele>1299</ele>
        <time>2018-12-02T09:11:03.000Z</time>
      </trkpt>
      <trkpt lat="42.92178" lon="0.84642">
        <ele>1299</ele>
        <time>2018-12-02T09:11:05.000Z</time>
      </trkpt>
      <trkpt lat="42.92179" lon="0.84644">
        <ele>1299</ele>
        <time>2018-12-02T09:11:07.000Z</time>
      </trkpt>
      <trkpt lat="42.92181" lon="0.84647">
        <ele>1299</ele>
        <time>2018-12-02T09:11:10.000Z</time>
      </trkpt>
      <trkpt lat="42.92182" lon="0.84649">
        <ele>1298</ele>
        <time>2018-12-02T09:11:12.000Z</time>
      </trkpt>
      <trkpt lat="42.92183" lon="0.8465">
        <ele>1298</ele>
        <time>2018-12-02T09:11:14.000Z</time>
      </trkpt>
      <trkpt lat="42.92183" lon="0.8465">
        <ele>1298</ele>
        <time>2018-12-02T09:11:16.000Z</time>
      </trkpt>
      <trkpt lat="42.92183" lon="0.84651">
        <ele>1298</ele>
        <time>2018-12-02T09:11:18.000Z</time>
      </trkpt>
      <trkpt lat="42.92183" lon="0.84651">
        <ele>1298</ele>
        <time>2018-12-02T09:11:20.000Z</time>
      </trkpt>
      <trkpt lat="42.92183" lon="0.84651">
        <ele>1298</ele>
        <time>2018-12-02T09:11:22.000Z</time>
      </trkpt>
      <trkpt lat="42.92183" lon="0.84652">
        <ele>1298</ele>
        <time>2018-12-02T09:11:24.000Z</time>
      </trkpt>
      <trkpt lat="42.92183" lon="0.84652">
        <ele>1298</ele>
        <time>2018-12-02T09:11:26.000Z</time>
      </trkpt>
      <trkpt lat="42.92183" lon="0.84652">
        <ele>1298</ele>
        <time>2018-12-02T09:11:28.000Z</time>
      </trkpt>
      <trkpt lat="42.92183" lon="0.84652">
        <ele>1298</ele>
        <time>2018-12-02T09:11:30.000Z</time>
      </trkpt>
      <trkpt lat="42.92183" lon="0.84652">
        <ele>1298</ele>
        <time>2018-12-02T09:11:32.000Z</time>
      </trkpt>
      <trkpt lat="42.92184" lon="0.84652">
        <ele>1298</ele>
        <time>2018-12-02T09:11:34.000Z</time>
      </trkpt>
      <trkpt lat="42.92183" lon="0.84652">
        <ele>1298</ele>
        <time>2018-12-02T09:11:36.000Z</time>
      </trkpt>
      <trkpt lat="42.92183" lon="0.84653">
        <ele>1298</ele>
        <time>2018-12-02T09:11:38.000Z</time>
      </trkpt>
      <trkpt lat="42.92183" lon="0.84653">
        <ele>1298</ele>
        <time>2018-12-02T09:11:40.000Z</time>
      </trkpt>
      <trkpt lat="42.92183" lon="0.84653">
        <ele>1298</ele>
        <time>2018-12-02T09:11:42.000Z</time>
      </trkpt>
      <trkpt lat="42.92183" lon="0.84653">
        <ele>1298</ele>
        <time>2018-12-02T09:11:44.000Z</time>
      </trkpt>
      <trkpt lat="42.92182" lon="0.84653">
        <ele>1297</ele>
        <time>2018-12-02T09:11:46.000Z</time>
      </trkpt>
      <trkpt lat="42.92182" lon="0.84653">
        <ele>1297</ele>
        <time>2018-12-02T09:11:48.000Z</time>
      </trkpt>
      <trkpt lat="42.92182" lon="0.84653">
        <ele>1297</ele>
        <time>2018-12-02T09:11:50.000Z</time>
      </trkpt>
      <trkpt lat="42.92182" lon="0.84654">
        <ele>1297</ele>
        <time>2018-12-02T09:11:52.000Z</time>
      </trkpt>
      <trkpt lat="42.92182" lon="0.84654">
        <ele>1297</ele>
        <time>2018-12-02T09:11:54.000Z</time>
      </trkpt>
      <trkpt lat="42.92182" lon="0.84654">
        <ele>1297</ele>
        <time>2018-12-02T09:11:56.000Z</time>
      </trkpt>
      <trkpt lat="42.92181" lon="0.84654">
        <ele>1297</ele>
        <time>2018-12-02T09:11:58.000Z</time>
      </trkpt>
      <trkpt lat="42.92181" lon="0.84654">
        <ele>1297</ele>
        <time>2018-12-02T09:12:00.000Z</time>
      </trkpt>
      <trkpt lat="42.92181" lon="0.84654">
        <ele>1297</ele>
        <time>2018-12-02T09:12:02.000Z</time>
      </trkpt>
      <trkpt lat="42.92181" lon="0.84654">
        <ele>1297</ele>
        <time>2018-12-02T09:12:04.000Z</time>
      </trkpt>
      <trkpt lat="42.92181" lon="0.84654">
        <ele>1297</ele>
        <time>2018-12-02T09:12:06.000Z</time>
      </trkpt>
      <trkpt lat="42.92181" lon="0.84654">
        <ele>1297</ele>
        <time>2018-12-02T09:12:08.000Z</time>
      </trkpt>
      <trkpt lat="42.92181" lon="0.84654">
        <ele>1297</ele>
        <time>2018-12-02T09:12:10.000Z</time>
      </trkpt>
      <trkpt lat="42.92181" lon="0.84654">
        <ele>1297</ele>
        <time>2018-12-02T09:12:12.000Z</time>
      </trkpt>
      <trkpt lat="42.92181" lon="0.84654">
        <ele>1297</ele>
        <time>2018-12-02T09:12:14.000Z</time>
      </trkpt>
      <trkpt lat="42.92181" lon="0.84653">
        <ele>1297</ele>
        <time>2018-12-02T09:12:16.000Z</time>
      </trkpt>
      <trkpt lat="42.92181" lon="0.84653">
        <ele>1297</ele>
        <time>2018-12-02T09:12:18.000Z</time>
      </trkpt>
      <trkpt lat="42.92181" lon="0.84653">
        <ele>1297</ele>
        <time>2018-12-02T09:12:20.000Z</time>
      </trkpt>
      <trkpt lat="42.92181" lon="0.84653">
        <ele>1297</ele>
        <time>2018-12-02T09:12:22.000Z</time>
      </trkpt>
      <trkpt lat="42.92181" lon="0.84652">
        <ele>1298</ele>
        <time>2018-12-02T09:12:24.000Z</time>
      </trkpt>
      <trkpt lat="42.92182" lon="0.84651">
        <ele>1298</ele>
        <time>2018-12-02T09:12:27.000Z</time>
      </trkpt>
      <trkpt lat="42.92182" lon="0.84651">
        <ele>1298</ele>
        <time>2018-12-02T09:12:29.000Z</time>
      </trkpt>
      <trkpt lat="42.92182" lon="0.84651">
        <ele>1298</ele>
        <time>2018-12-02T09:12:31.000Z</time>
      </trkpt>
      <trkpt lat="42.92183" lon="0.84651">
        <ele>1298</ele>
        <time>2018-12-02T09:12:33.000Z</time>
      </trkpt>
      <trkpt lat="42.92182" lon="0.84651">
        <ele>1298</ele>
        <time>2018-12-02T09:12:35.000Z</time>
      </trkpt>
      <trkpt lat="42.92183" lon="0.84651">
        <ele>1298</ele>
        <time>2018-12-02T09:12:37.000Z</time>
      </trkpt>
      <trkpt lat="42.92182" lon="0.84652">
        <ele>1298</ele>
        <time>2018-12-02T09:12:39.000Z</time>
      </trkpt>
      <trkpt lat="42.92182" lon="0.84652">
        <ele>1298</ele>
        <time>2018-12-02T09:12:41.000Z</time>
      </trkpt>
      <trkpt lat="42.92183" lon="0.84653">
        <ele>1298</ele>
        <time>2018-12-02T09:12:43.000Z</time>
      </trkpt>
      <trkpt lat="42.92183" lon="0.84653">
        <ele>1298</ele>
        <time>2018-12-02T09:12:45.000Z</time>
      </trkpt>
      <trkpt lat="42.92183" lon="0.84654">
        <ele>1297</ele>
        <time>2018-12-02T09:12:47.000Z</time>
      </trkpt>
      <trkpt lat="42.92182" lon="0.84654">
        <ele>1297</ele>
        <time>2018-12-02T09:12:49.000Z</time>
      </trkpt>
      <trkpt lat="42.92182" lon="0.84654">
        <ele>1297</ele>
        <time>2018-12-02T09:12:51.000Z</time>
      </trkpt>
      <trkpt lat="42.92182" lon="0.84654">
        <ele>1297</ele>
        <time>2018-12-02T09:12:53.000Z</time>
      </trkpt>
      <trkpt lat="42.92182" lon="0.84654">
        <ele>1297</ele>
        <time>2018-12-02T09:12:55.000Z</time>
      </trkpt>
      <trkpt lat="42.92182" lon="0.84655">
        <ele>1297</ele>
        <time>2018-12-02T09:12:57.000Z</time>
      </trkpt>
      <trkpt lat="42.92182" lon="0.84654">
        <ele>1297</ele>
        <time>2018-12-02T09:12:59.000Z</time>
      </trkpt>
      <trkpt lat="42.92182" lon="0.84655">
        <ele>1297</ele>
        <time>2018-12-02T09:13:01.000Z</time>
      </trkpt>
      <trkpt lat="42.92182" lon="0.84655">
        <ele>1297</ele>
        <time>2018-12-02T09:13:03.000Z</time>
      </trkpt>
      <trkpt lat="42.92182" lon="0.84655">
        <ele>1297</ele>
        <time>2018-12-02T09:13:05.000Z</time>
      </trkpt>
      <trkpt lat="42.92182" lon="0.84655">
        <ele>1297</ele>
        <time>2018-12-02T09:13:07.000Z</time>
      </trkpt>
      <trkpt lat="42.92182" lon="0.84655">
        <ele>1297</ele>
        <time>2018-12-02T09:13:09.000Z</time>
      </trkpt>
      <trkpt lat="42.92182" lon="0.84654">
        <ele>1297</ele>
        <time>2018-12-02T09:13:11.000Z</time>
      </trkpt>
      <trkpt lat="42.92182" lon="0.84654">
        <ele>1297</ele>
        <time>2018-12-02T09:13:13.000Z</time>
      </trkpt>
      <trkpt lat="42.92182" lon="0.84654">
        <ele>1297</ele>
        <time>2018-12-02T09:13:15.000Z</time>
      </trkpt>
      <trkpt lat="42.92182" lon="0.84654">
        <ele>1297</ele>
        <time>2018-12-02T09:13:17.000Z</time>
      </trkpt>
      <trkpt lat="42.92182" lon="0.84654">
        <ele>1297</ele>
        <time>2018-12-02T09:13:19.000Z</time>
      </trkpt>
      <trkpt lat="42.92182" lon="0.84654">
        <ele>1297</ele>
        <time>2018-12-02T09:13:21.000Z</time>
      </trkpt>
      <trkpt lat="42.92182" lon="0.84654">
        <ele>1297</ele>
        <time>2018-12-02T09:13:23.000Z</time>
      </trkpt>
      <trkpt lat="42.92182" lon="0.84654">
        <ele>1297</ele>
        <time>2018-12-02T09:13:25.000Z</time>
      </trkpt>
      <trkpt lat="42.92182" lon="0.84654">
        <ele>1297</ele>
        <time>2018-12-02T09:13:27.000Z</time>
      </trkpt>
      <trkpt lat="42.92182" lon="0.84654">
        <ele>1297</ele>
        <time>2018-12-02T09:13:29.000Z</time>
      </trkpt>
      <trkpt lat="42.92182" lon="0.84654">
        <ele>1297</ele>
        <time>2018-12-02T09:13:31.000Z</time>
      </trkpt>
      <trkpt lat="42.92182" lon="0.84654">
        <ele>1297</ele>
        <time>2018-12-02T09:13:33.000Z</time>
      </trkpt>
      <trkpt lat="42.92183" lon="0.84654">
        <ele>1297</ele>
        <time>2018-12-02T09:13:35.000Z</time>
      </trkpt>
      <trkpt lat="42.92182" lon="0.84654">
        <ele>1297</ele>
        <time>2018-12-02T09:13:37.000Z</time>
      </trkpt>
      <trkpt lat="42.92182" lon="0.84654">
        <ele>1297</ele>
        <time>2018-12-02T09:13:39.000Z</time>
      </trkpt>
      <trkpt lat="42.92182" lon="0.84654">
        <ele>1297</ele>
        <time>2018-12-02T09:13:41.000Z</time>
      </trkpt>
      <trkpt lat="42.92182" lon="0.84655">
        <ele>1297</ele>
        <time>2018-12-02T09:13:43.000Z</time>
      </trkpt>
      <trkpt lat="42.92182" lon="0.84655">
        <ele>1297</ele>
        <time>2018-12-02T09:13:45.000Z</time>
      </trkpt>
      <trkpt lat="42.92182" lon="0.84654">
        <ele>1297</ele>
        <time>2018-12-02T09:13:47.000Z</time>
      </trkpt>
      <trkpt lat="42.92182" lon="0.84654">
        <ele>1297</ele>
        <time>2018-12-02T09:13:49.000Z</time>
      </trkpt>
      <trkpt lat="42.92182" lon="0.84654">
        <ele>1297</ele>
        <time>2018-12-02T09:13:51.000Z</time>
      </trkpt>
      <trkpt lat="42.92182" lon="0.84654">
        <ele>1297</ele>
        <time>2018-12-02T09:13:53.000Z</time>
      </trkpt>
      <trkpt lat="42.92182" lon="0.84654">
        <ele>1297</ele>
        <time>2018-12-02T09:13:55.000Z</time>
      </trkpt>
      <trkpt lat="42.92182" lon="0.84653">
        <ele>1297</ele>
        <time>2018-12-02T09:13:57.000Z</time>
      </trkpt>
      <trkpt lat="42.92182" lon="0.84653">
        <ele>1297</ele>
        <time>2018-12-02T09:13:59.000Z</time>
      </trkpt>
      <trkpt lat="42.92182" lon="0.84653">
        <ele>1297</ele>
        <time>2018-12-02T09:14:01.000Z</time>
      </trkpt>
      <trkpt lat="42.92182" lon="0.84653">
        <ele>1297</ele>
        <time>2018-12-02T09:14:03.000Z</time>
      </trkpt>
      <trkpt lat="42.92182" lon="0.84653">
        <ele>1297</ele>
        <time>2018-12-02T09:14:05.000Z</time>
      </trkpt>
      <trkpt lat="42.92181" lon="0.84653">
        <ele>1297</ele>
        <time>2018-12-02T09:14:07.000Z</time>
      </trkpt>
      <trkpt lat="42.92182" lon="0.84653">
        <ele>1297</ele>
        <time>2018-12-02T09:14:09.000Z</time>
      </trkpt>
      <trkpt lat="42.92182" lon="0.84652">
        <ele>1297</ele>
        <time>2018-12-02T09:14:11.000Z</time>
      </trkpt>
      <trkpt lat="42.92181" lon="0.84652">
        <ele>1297</ele>
        <time>2018-12-02T09:14:13.000Z</time>
      </trkpt>
      <trkpt lat="42.92181" lon="0.84652">
        <ele>1298</ele>
        <time>2018-12-02T09:14:15.000Z</time>
      </trkpt>
      <trkpt lat="42.92181" lon="0.84651">
        <ele>1298</ele>
        <time>2018-12-02T09:14:17.000Z</time>
      </trkpt>
      <trkpt lat="42.92181" lon="0.84651">
        <ele>1298</ele>
        <time>2018-12-02T09:14:19.000Z</time>
      </trkpt>
      <trkpt lat="42.92181" lon="0.84651">
        <ele>1297</ele>
        <time>2018-12-02T09:14:21.000Z</time>
      </trkpt>
      <trkpt lat="42.92181" lon="0.84651">
        <ele>1297</ele>
        <time>2018-12-02T09:14:23.000Z</time>
      </trkpt>
      <trkpt lat="42.92181" lon="0.84651">
        <ele>1297</ele>
        <time>2018-12-02T09:14:26.000Z</time>
      </trkpt>
      <trkpt lat="42.92181" lon="0.84651">
        <ele>1298</ele>
        <time>2018-12-02T09:14:28.000Z</time>
      </trkpt>
      <trkpt lat="42.92181" lon="0.84651">
        <ele>1298</ele>
        <time>2018-12-02T09:14:30.000Z</time>
      </trkpt>
      <trkpt lat="42.92181" lon="0.84651">
        <ele>1298</ele>
        <time>2018-12-02T09:14:32.000Z</time>
      </trkpt>
      <trkpt lat="42.92181" lon="0.84651">
        <ele>1298</ele>
        <time>2018-12-02T09:14:34.000Z</time>
      </trkpt>
      <trkpt lat="42.9218" lon="0.8465">
        <ele>1298</ele>
        <time>2018-12-02T09:14:36.000Z</time>
      </trkpt>
      <trkpt lat="42.9218" lon="0.8465">
        <ele>1298</ele>
        <time>2018-12-02T09:14:38.000Z</time>
      </trkpt>
      <trkpt lat="42.92181" lon="0.84649">
        <ele>1298</ele>
        <time>2018-12-02T09:14:40.000Z</time>
      </trkpt>
      <trkpt lat="42.92181" lon="0.84649">
        <ele>1298</ele>
        <time>2018-12-02T09:14:42.000Z</time>
      </trkpt>
      <trkpt lat="42.9218" lon="0.84649">
        <ele>1298</ele>
        <time>2018-12-02T09:14:44.000Z</time>
      </trkpt>
      <trkpt lat="42.9218" lon="0.84649">
        <ele>1298</ele>
        <time>2018-12-02T09:14:46.000Z</time>
      </trkpt>
      <trkpt lat="42.92181" lon="0.84649">
        <ele>1298</ele>
        <time>2018-12-02T09:14:48.000Z</time>
      </trkpt>
      <trkpt lat="42.92181" lon="0.84649">
        <ele>1298</ele>
        <time>2018-12-02T09:14:50.000Z</time>
      </trkpt>
      <trkpt lat="42.92182" lon="0.8465">
        <ele>1298</ele>
        <time>2018-12-02T09:14:52.000Z</time>
      </trkpt>
      <trkpt lat="42.92184" lon="0.84653">
        <ele>1298</ele>
        <time>2018-12-02T09:14:55.000Z</time>
      </trkpt>
      <trkpt lat="42.92185" lon="0.84656">
        <ele>1298</ele>
        <time>2018-12-02T09:14:57.000Z</time>
      </trkpt>
      <trkpt lat="42.92187" lon="0.84659">
        <ele>1298</ele>
        <time>2018-12-02T09:14:59.000Z</time>
      </trkpt>
      <trkpt lat="42.92188" lon="0.84661">
        <ele>1298</ele>
        <time>2018-12-02T09:15:01.000Z</time>
      </trkpt>
      <trkpt lat="42.9219" lon="0.84663">
        <ele>1298</ele>
        <time>2018-12-02T09:15:03.000Z</time>
      </trkpt>
      <trkpt lat="42.92191" lon="0.84665">
        <ele>1298</ele>
        <time>2018-12-02T09:15:05.000Z</time>
      </trkpt>
      <trkpt lat="42.92192" lon="0.84667">
        <ele>1297</ele>
        <time>2018-12-02T09:15:07.000Z</time>
      </trkpt>
      <trkpt lat="42.92193" lon="0.8467">
        <ele>1297</ele>
        <time>2018-12-02T09:15:09.000Z</time>
      </trkpt>
      <trkpt lat="42.92194" lon="0.84672">
        <ele>1297</ele>
        <time>2018-12-02T09:15:11.000Z</time>
      </trkpt>
      <trkpt lat="42.92196" lon="0.84674">
        <ele>1297</ele>
        <time>2018-12-02T09:15:13.000Z</time>
      </trkpt>
      <trkpt lat="42.92197" lon="0.84675">
        <ele>1297</ele>
        <time>2018-12-02T09:15:15.000Z</time>
      </trkpt>
      <trkpt lat="42.92198" lon="0.84677">
        <ele>1297</ele>
        <time>2018-12-02T09:15:17.000Z</time>
      </trkpt>
      <trkpt lat="42.92199" lon="0.84678">
        <ele>1297</ele>
        <time>2018-12-02T09:15:19.000Z</time>
      </trkpt>
      <trkpt lat="42.92201" lon="0.84679">
        <ele>1297</ele>
        <time>2018-12-02T09:15:21.000Z</time>
      </trkpt>
      <trkpt lat="42.92202" lon="0.8468">
        <ele>1298</ele>
        <time>2018-12-02T09:15:23.000Z</time>
      </trkpt>
      <trkpt lat="42.92203" lon="0.84681">
        <ele>1298</ele>
        <time>2018-12-02T09:15:25.000Z</time>
      </trkpt>
      <trkpt lat="42.92206" lon="0.84682">
        <ele>1299</ele>
        <time>2018-12-02T09:15:28.000Z</time>
      </trkpt>
      <trkpt lat="42.92207" lon="0.84683">
        <ele>1299</ele>
        <time>2018-12-02T09:15:30.000Z</time>
      </trkpt>
      <trkpt lat="42.92209" lon="0.84683">
        <ele>1300</ele>
        <time>2018-12-02T09:15:32.000Z</time>
      </trkpt>
      <trkpt lat="42.9221" lon="0.84682">
        <ele>1300</ele>
        <time>2018-12-02T09:15:34.000Z</time>
      </trkpt>
      <trkpt lat="42.92212" lon="0.84683">
        <ele>1301</ele>
        <time>2018-12-02T09:15:36.000Z</time>
      </trkpt>
      <trkpt lat="42.92214" lon="0.84683">
        <ele>1301</ele>
        <time>2018-12-02T09:15:38.000Z</time>
      </trkpt>
      <trkpt lat="42.92216" lon="0.84684">
        <ele>1302</ele>
        <time>2018-12-02T09:15:41.000Z</time>
      </trkpt>
      <trkpt lat="42.92218" lon="0.84685">
        <ele>1303</ele>
        <time>2018-12-02T09:15:43.000Z</time>
      </trkpt>
      <trkpt lat="42.9222" lon="0.84685">
        <ele>1303</ele>
        <time>2018-12-02T09:15:45.000Z</time>
      </trkpt>
      <trkpt lat="42.92222" lon="0.84686">
        <ele>1303</ele>
        <time>2018-12-02T09:15:47.000Z</time>
      </trkpt>
      <trkpt lat="42.92224" lon="0.84686">
        <ele>1304</ele>
        <time>2018-12-02T09:15:49.000Z</time>
      </trkpt>
      <trkpt lat="42.92226" lon="0.84686">
        <ele>1304</ele>
        <time>2018-12-02T09:15:51.000Z</time>
      </trkpt>
      <trkpt lat="42.92228" lon="0.84687">
        <ele>1305</ele>
        <time>2018-12-02T09:15:53.000Z</time>
      </trkpt>
      <trkpt lat="42.92231" lon="0.84687">
        <ele>1305</ele>
        <time>2018-12-02T09:15:56.000Z</time>
      </trkpt>
      <trkpt lat="42.92233" lon="0.84688">
        <ele>1306</ele>
        <time>2018-12-02T09:15:58.000Z</time>
      </trkpt>
      <trkpt lat="42.92236" lon="0.84688">
        <ele>1306</ele>
        <time>2018-12-02T09:16:01.000Z</time>
      </trkpt>
      <trkpt lat="42.92238" lon="0.84688">
        <ele>1307</ele>
        <time>2018-12-02T09:16:03.000Z</time>
      </trkpt>
      <trkpt lat="42.9224" lon="0.8469">
        <ele>1307</ele>
        <time>2018-12-02T09:16:05.000Z</time>
      </trkpt>
      <trkpt lat="42.92242" lon="0.8469">
        <ele>1307</ele>
        <time>2018-12-02T09:16:07.000Z</time>
      </trkpt>
      <trkpt lat="42.92244" lon="0.84691">
        <ele>1308</ele>
        <time>2018-12-02T09:16:09.000Z</time>
      </trkpt>
      <trkpt lat="42.92245" lon="0.84692">
        <ele>1308</ele>
        <time>2018-12-02T09:16:11.000Z</time>
      </trkpt>
      <trkpt lat="42.92246" lon="0.84693">
        <ele>1308</ele>
        <time>2018-12-02T09:16:13.000Z</time>
      </trkpt>
      <trkpt lat="42.92248" lon="0.84694">
        <ele>1308</ele>
        <time>2018-12-02T09:16:15.000Z</time>
      </trkpt>
      <trkpt lat="42.9225" lon="0.84694">
        <ele>1309</ele>
        <time>2018-12-02T09:16:17.000Z</time>
      </trkpt>
      <trkpt lat="42.92251" lon="0.84694">
        <ele>1309</ele>
        <time>2018-12-02T09:16:19.000Z</time>
      </trkpt>
      <trkpt lat="42.92253" lon="0.84695">
        <ele>1309</ele>
        <time>2018-12-02T09:16:21.000Z</time>
      </trkpt>
      <trkpt lat="42.92255" lon="0.84696">
        <ele>1310</ele>
        <time>2018-12-02T09:16:23.000Z</time>
      </trkpt>
      <trkpt lat="42.92257" lon="0.84697">
        <ele>1310</ele>
        <time>2018-12-02T09:16:26.000Z</time>
      </trkpt>
      <trkpt lat="42.9226" lon="0.84698">
        <ele>1311</ele>
        <time>2018-12-02T09:16:28.000Z</time>
      </trkpt>
      <trkpt lat="42.92261" lon="0.847">
        <ele>1311</ele>
        <time>2018-12-02T09:16:30.000Z</time>
      </trkpt>
      <trkpt lat="42.92263" lon="0.84701">
        <ele>1312</ele>
        <time>2018-12-02T09:16:32.000Z</time>
      </trkpt>
      <trkpt lat="42.92265" lon="0.84703">
        <ele>1312</ele>
        <time>2018-12-02T09:16:34.000Z</time>
      </trkpt>
      <trkpt lat="42.92266" lon="0.84705">
        <ele>1312</ele>
        <time>2018-12-02T09:16:36.000Z</time>
      </trkpt>
      <trkpt lat="42.92267" lon="0.84708">
        <ele>1312</ele>
        <time>2018-12-02T09:16:38.000Z</time>
      </trkpt>
      <trkpt lat="42.92268" lon="0.8471">
        <ele>1312</ele>
        <time>2018-12-02T09:16:40.000Z</time>
      </trkpt>
      <trkpt lat="42.92269" lon="0.84714">
        <ele>1312</ele>
        <time>2018-12-02T09:16:42.000Z</time>
      </trkpt>
      <trkpt lat="42.92269" lon="0.84716">
        <ele>1312</ele>
        <time>2018-12-02T09:16:44.000Z</time>
      </trkpt>
      <trkpt lat="42.9227" lon="0.84719">
        <ele>1312</ele>
        <time>2018-12-02T09:16:46.000Z</time>
      </trkpt>
      <trkpt lat="42.92271" lon="0.84723">
        <ele>1312</ele>
        <time>2018-12-02T09:16:48.000Z</time>
      </trkpt>
      <trkpt lat="42.92272" lon="0.84725">
        <ele>1312</ele>
        <time>2018-12-02T09:16:50.000Z</time>
      </trkpt>
      <trkpt lat="42.92272" lon="0.84728">
        <ele>1311</ele>
        <time>2018-12-02T09:16:52.000Z</time>
      </trkpt>
      <trkpt lat="42.92273" lon="0.84731">
        <ele>1311</ele>
        <time>2018-12-02T09:16:54.000Z</time>
      </trkpt>
      <trkpt lat="42.92273" lon="0.84733">
        <ele>1312</ele>
        <time>2018-12-02T09:16:56.000Z</time>
      </trkpt>
      <trkpt lat="42.92275" lon="0.84735">
        <ele>1312</ele>
        <time>2018-12-02T09:16:58.000Z</time>
      </trkpt>
      <trkpt lat="42.92275" lon="0.84737">
        <ele>1312</ele>
        <time>2018-12-02T09:17:00.000Z</time>
      </trkpt>
      <trkpt lat="42.92276" lon="0.84741">
        <ele>1312</ele>
        <time>2018-12-02T09:17:03.000Z</time>
      </trkpt>
      <trkpt lat="42.92277" lon="0.84743">
        <ele>1312</ele>
        <time>2018-12-02T09:17:05.000Z</time>
      </trkpt>
      <trkpt lat="42.92277" lon="0.84745">
        <ele>1312</ele>
        <time>2018-12-02T09:17:07.000Z</time>
      </trkpt>
      <trkpt lat="42.92278" lon="0.84747">
        <ele>1312</ele>
        <time>2018-12-02T09:17:09.000Z</time>
      </trkpt>
      <trkpt lat="42.92278" lon="0.8475">
        <ele>1312</ele>
        <time>2018-12-02T09:17:11.000Z</time>
      </trkpt>
      <trkpt lat="42.92279" lon="0.84752">
        <ele>1312</ele>
        <time>2018-12-02T09:17:13.000Z</time>
      </trkpt>
      <trkpt lat="42.9228" lon="0.84754">
        <ele>1312</ele>
        <time>2018-12-02T09:17:15.000Z</time>
      </trkpt>
      <trkpt lat="42.92281" lon="0.84756">
        <ele>1312</ele>
        <time>2018-12-02T09:17:17.000Z</time>
      </trkpt>
      <trkpt lat="42.92283" lon="0.84758">
        <ele>1313</ele>
        <time>2018-12-02T09:17:19.000Z</time>
      </trkpt>
      <trkpt lat="42.92284" lon="0.8476">
        <ele>1313</ele>
        <time>2018-12-02T09:17:21.000Z</time>
      </trkpt>
      <trkpt lat="42.92286" lon="0.84763">
        <ele>1313</ele>
        <time>2018-12-02T09:17:23.000Z</time>
      </trkpt>
      <trkpt lat="42.92288" lon="0.84765">
        <ele>1314</ele>
        <time>2018-12-02T09:17:25.000Z</time>
      </trkpt>
      <trkpt lat="42.92289" lon="0.84767">
        <ele>1314</ele>
        <time>2018-12-02T09:17:27.000Z</time>
      </trkpt>
      <trkpt lat="42.92291" lon="0.84769">
        <ele>1315</ele>
        <time>2018-12-02T09:17:29.000Z</time>
      </trkpt>
      <trkpt lat="42.92292" lon="0.84771">
        <ele>1315</ele>
        <time>2018-12-02T09:17:31.000Z</time>
      </trkpt>
      <trkpt lat="42.92293" lon="0.84774">
        <ele>1315</ele>
        <time>2018-12-02T09:17:33.000Z</time>
      </trkpt>
      <trkpt lat="42.92295" lon="0.84776">
        <ele>1315</ele>
        <time>2018-12-02T09:17:35.000Z</time>
      </trkpt>
      <trkpt lat="42.92296" lon="0.84778">
        <ele>1316</ele>
        <time>2018-12-02T09:17:37.000Z</time>
      </trkpt>
      <trkpt lat="42.92297" lon="0.8478">
        <ele>1316</ele>
        <time>2018-12-02T09:17:39.000Z</time>
      </trkpt>
      <trkpt lat="42.92299" lon="0.84782">
        <ele>1316</ele>
        <time>2018-12-02T09:17:41.000Z</time>
      </trkpt>
      <trkpt lat="42.923" lon="0.84783">
        <ele>1317</ele>
        <time>2018-12-02T09:17:43.000Z</time>
      </trkpt>
      <trkpt lat="42.92302" lon="0.84787">
        <ele>1317</ele>
        <time>2018-12-02T09:17:46.000Z</time>
      </trkpt>
      <trkpt lat="42.92304" lon="0.84789">
        <ele>1317</ele>
        <time>2018-12-02T09:17:48.000Z</time>
      </trkpt>
      <trkpt lat="42.92305" lon="0.84791">
        <ele>1318</ele>
        <time>2018-12-02T09:17:50.000Z</time>
      </trkpt>
      <trkpt lat="42.92305" lon="0.84794">
        <ele>1318</ele>
        <time>2018-12-02T09:17:52.000Z</time>
      </trkpt>
      <trkpt lat="42.92306" lon="0.84797">
        <ele>1318</ele>
        <time>2018-12-02T09:17:54.000Z</time>
      </trkpt>
      <trkpt lat="42.92307" lon="0.84799">
        <ele>1318</ele>
        <time>2018-12-02T09:17:56.000Z</time>
      </trkpt>
      <trkpt lat="42.92309" lon="0.84802">
        <ele>1318</ele>
        <time>2018-12-02T09:17:59.000Z</time>
      </trkpt>
      <trkpt lat="42.9231" lon="0.84805">
        <ele>1318</ele>
        <time>2018-12-02T09:18:01.000Z</time>
      </trkpt>
      <trkpt lat="42.92312" lon="0.84807">
        <ele>1319</ele>
        <time>2018-12-02T09:18:03.000Z</time>
      </trkpt>
      <trkpt lat="42.92312" lon="0.8481">
        <ele>1319</ele>
        <time>2018-12-02T09:18:05.000Z</time>
      </trkpt>
      <trkpt lat="42.92313" lon="0.84812">
        <ele>1319</ele>
        <time>2018-12-02T09:18:07.000Z</time>
      </trkpt>
      <trkpt lat="42.92313" lon="0.84814">
        <ele>1318</ele>
        <time>2018-12-02T09:18:09.000Z</time>
      </trkpt>
      <trkpt lat="42.92314" lon="0.84817">
        <ele>1318</ele>
        <time>2018-12-02T09:18:11.000Z</time>
      </trkpt>
      <trkpt lat="42.92315" lon="0.8482">
        <ele>1319</ele>
        <time>2018-12-02T09:18:13.000Z</time>
      </trkpt>
      <trkpt lat="42.92315" lon="0.84823">
        <ele>1319</ele>
        <time>2018-12-02T09:18:15.000Z</time>
      </trkpt>
      <trkpt lat="42.92316" lon="0.84826">
        <ele>1319</ele>
        <time>2018-12-02T09:18:17.000Z</time>
      </trkpt>
      <trkpt lat="42.92317" lon="0.84829">
        <ele>1319</ele>
        <time>2018-12-02T09:18:19.000Z</time>
      </trkpt>
      <trkpt lat="42.92318" lon="0.84832">
        <ele>1319</ele>
        <time>2018-12-02T09:18:21.000Z</time>
      </trkpt>
      <trkpt lat="42.92318" lon="0.84834">
        <ele>1319</ele>
        <time>2018-12-02T09:18:23.000Z</time>
      </trkpt>
      <trkpt lat="42.9232" lon="0.84837">
        <ele>1319</ele>
        <time>2018-12-02T09:18:26.000Z</time>
      </trkpt>
      <trkpt lat="42.9232" lon="0.8484">
        <ele>1319</ele>
        <time>2018-12-02T09:18:28.000Z</time>
      </trkpt>
      <trkpt lat="42.92321" lon="0.84842">
        <ele>1319</ele>
        <time>2018-12-02T09:18:30.000Z</time>
      </trkpt>
      <trkpt lat="42.92322" lon="0.84844">
        <ele>1319</ele>
        <time>2018-12-02T09:18:32.000Z</time>
      </trkpt>
      <trkpt lat="42.92323" lon="0.84846">
        <ele>1319</ele>
        <time>2018-12-02T09:18:34.000Z</time>
      </trkpt>
      <trkpt lat="42.92323" lon="0.84849">
        <ele>1319</ele>
        <time>2018-12-02T09:18:36.000Z</time>
      </trkpt>
      <trkpt lat="42.92324" lon="0.84851">
        <ele>1319</ele>
        <time>2018-12-02T09:18:38.000Z</time>
      </trkpt>
      <trkpt lat="42.92325" lon="0.84853">
        <ele>1319</ele>
        <time>2018-12-02T09:18:40.000Z</time>
      </trkpt>
      <trkpt lat="42.92325" lon="0.84856">
        <ele>1319</ele>
        <time>2018-12-02T09:18:42.000Z</time>
      </trkpt>
      <trkpt lat="42.92326" lon="0.84858">
        <ele>1319</ele>
        <time>2018-12-02T09:18:44.000Z</time>
      </trkpt>
      <trkpt lat="42.92327" lon="0.8486">
        <ele>1320</ele>
        <time>2018-12-02T09:18:46.000Z</time>
      </trkpt>
      <trkpt lat="42.92328" lon="0.84862">
        <ele>1320</ele>
        <time>2018-12-02T09:18:48.000Z</time>
      </trkpt>
      <trkpt lat="42.92329" lon="0.84865">
        <ele>1320</ele>
        <time>2018-12-02T09:18:50.000Z</time>
      </trkpt>
      <trkpt lat="42.9233" lon="0.84867">
        <ele>1320</ele>
        <time>2018-12-02T09:18:52.000Z</time>
      </trkpt>
      <trkpt lat="42.92331" lon="0.84869">
        <ele>1320</ele>
        <time>2018-12-02T09:18:54.000Z</time>
      </trkpt>
      <trkpt lat="42.92332" lon="0.84872">
        <ele>1320</ele>
        <time>2018-12-02T09:18:56.000Z</time>
      </trkpt>
      <trkpt lat="42.92333" lon="0.84875">
        <ele>1320</ele>
        <time>2018-12-02T09:18:58.000Z</time>
      </trkpt>
      <trkpt lat="42.92334" lon="0.84878">
        <ele>1321</ele>
        <time>2018-12-02T09:19:00.000Z</time>
      </trkpt>
      <trkpt lat="42.92335" lon="0.8488">
        <ele>1321</ele>
        <time>2018-12-02T09:19:02.000Z</time>
      </trkpt>
      <trkpt lat="42.92335" lon="0.84883">
        <ele>1321</ele>
        <time>2018-12-02T09:19:04.000Z</time>
      </trkpt>
      <trkpt lat="42.92336" lon="0.84885">
        <ele>1321</ele>
        <time>2018-12-02T09:19:06.000Z</time>
      </trkpt>
      <trkpt lat="42.92337" lon="0.84888">
        <ele>1321</ele>
        <time>2018-12-02T09:19:08.000Z</time>
      </trkpt>
      <trkpt lat="42.92337" lon="0.8489">
        <ele>1321</ele>
        <time>2018-12-02T09:19:10.000Z</time>
      </trkpt>
      <trkpt lat="42.92338" lon="0.84893">
        <ele>1321</ele>
        <time>2018-12-02T09:19:12.000Z</time>
      </trkpt>
      <trkpt lat="42.92339" lon="0.84895">
        <ele>1321</ele>
        <time>2018-12-02T09:19:14.000Z</time>
      </trkpt>
      <trkpt lat="42.92339" lon="0.84897">
        <ele>1321</ele>
        <time>2018-12-02T09:19:16.000Z</time>
      </trkpt>
      <trkpt lat="42.92341" lon="0.84901">
        <ele>1321</ele>
        <time>2018-12-02T09:19:19.000Z</time>
      </trkpt>
      <trkpt lat="42.92341" lon="0.84904">
        <ele>1321</ele>
        <time>2018-12-02T09:19:21.000Z</time>
      </trkpt>
      <trkpt lat="42.92342" lon="0.84906">
        <ele>1321</ele>
        <time>2018-12-02T09:19:23.000Z</time>
      </trkpt>
      <trkpt lat="42.92342" lon="0.84908">
        <ele>1321</ele>
        <time>2018-12-02T09:19:25.000Z</time>
      </trkpt>
      <trkpt lat="42.92342" lon="0.84909">
        <ele>1321</ele>
        <time>2018-12-02T09:19:27.000Z</time>
      </trkpt>
      <trkpt lat="42.92343" lon="0.84912">
        <ele>1321</ele>
        <time>2018-12-02T09:19:29.000Z</time>
      </trkpt>
      <trkpt lat="42.92343" lon="0.84915">
        <ele>1321</ele>
        <time>2018-12-02T09:19:32.000Z</time>
      </trkpt>
      <trkpt lat="42.92343" lon="0.84917">
        <ele>1320</ele>
        <time>2018-12-02T09:19:34.000Z</time>
      </trkpt>
      <trkpt lat="42.92345" lon="0.84919">
        <ele>1321</ele>
        <time>2018-12-02T09:19:36.000Z</time>
      </trkpt>
      <trkpt lat="42.92345" lon="0.84922">
        <ele>1321</ele>
        <time>2018-12-02T09:19:38.000Z</time>
      </trkpt>
      <trkpt lat="42.92346" lon="0.84924">
        <ele>1321</ele>
        <time>2018-12-02T09:19:40.000Z</time>
      </trkpt>
      <trkpt lat="42.92346" lon="0.84927">
        <ele>1320</ele>
        <time>2018-12-02T09:19:42.000Z</time>
      </trkpt>
      <trkpt lat="42.92346" lon="0.8493">
        <ele>1320</ele>
        <time>2018-12-02T09:19:44.000Z</time>
      </trkpt>
      <trkpt lat="42.92345" lon="0.84933">
        <ele>1320</ele>
        <time>2018-12-02T09:19:46.000Z</time>
      </trkpt>
      <trkpt lat="42.92345" lon="0.84935">
        <ele>1319</ele>
        <time>2018-12-02T09:19:48.000Z</time>
      </trkpt>
      <trkpt lat="42.92346" lon="0.84937">
        <ele>1319</ele>
        <time>2018-12-02T09:19:50.000Z</time>
      </trkpt>
      <trkpt lat="42.92345" lon="0.84939">
        <ele>1319</ele>
        <time>2018-12-02T09:19:52.000Z</time>
      </trkpt>
      <trkpt lat="42.92344" lon="0.84941">
        <ele>1318</ele>
        <time>2018-12-02T09:19:54.000Z</time>
      </trkpt>
      <trkpt lat="42.92343" lon="0.84944">
        <ele>1318</ele>
        <time>2018-12-02T09:19:56.000Z</time>
      </trkpt>
      <trkpt lat="42.92343" lon="0.84946">
        <ele>1317</ele>
        <time>2018-12-02T09:19:58.000Z</time>
      </trkpt>
      <trkpt lat="42.92342" lon="0.84948">
        <ele>1317</ele>
        <time>2018-12-02T09:20:00.000Z</time>
      </trkpt>
      <trkpt lat="42.92342" lon="0.8495">
        <ele>1317</ele>
        <time>2018-12-02T09:20:02.000Z</time>
      </trkpt>
      <trkpt lat="42.92342" lon="0.8495">
        <ele>1317</ele>
        <time>2018-12-02T09:20:04.000Z</time>
      </trkpt>
      <trkpt lat="42.92341" lon="0.84951">
        <ele>1316</ele>
        <time>2018-12-02T09:20:06.000Z</time>
      </trkpt>
      <trkpt lat="42.9234" lon="0.8495">
        <ele>1316</ele>
        <time>2018-12-02T09:20:08.000Z</time>
      </trkpt>
      <trkpt lat="42.9234" lon="0.84951">
        <ele>1316</ele>
        <time>2018-12-02T09:20:10.000Z</time>
      </trkpt>
      <trkpt lat="42.92339" lon="0.8495">
        <ele>1316</ele>
        <time>2018-12-02T09:20:12.000Z</time>
      </trkpt>
      <trkpt lat="42.92339" lon="0.8495">
        <ele>1316</ele>
        <time>2018-12-02T09:20:14.000Z</time>
      </trkpt>
      <trkpt lat="42.92339" lon="0.8495">
        <ele>1316</ele>
        <time>2018-12-02T09:20:16.000Z</time>
      </trkpt>
      <trkpt lat="42.92339" lon="0.84952">
        <ele>1316</ele>
        <time>2018-12-02T09:20:18.000Z</time>
      </trkpt>
      <trkpt lat="42.9234" lon="0.84953">
        <ele>1316</ele>
        <time>2018-12-02T09:20:20.000Z</time>
      </trkpt>
      <trkpt lat="42.9234" lon="0.84954">
        <ele>1316</ele>
        <time>2018-12-02T09:20:22.000Z</time>
      </trkpt>
      <trkpt lat="42.9234" lon="0.84954">
        <ele>1316</ele>
        <time>2018-12-02T09:20:24.000Z</time>
      </trkpt>
      <trkpt lat="42.9234" lon="0.84954">
        <ele>1316</ele>
        <time>2018-12-02T09:20:26.000Z</time>
      </trkpt>
      <trkpt lat="42.92341" lon="0.84954">
        <ele>1316</ele>
        <time>2018-12-02T09:20:28.000Z</time>
      </trkpt>
      <trkpt lat="42.92342" lon="0.84954">
        <ele>1316</ele>
        <time>2018-12-02T09:20:30.000Z</time>
      </trkpt>
      <trkpt lat="42.92342" lon="0.84954">
        <ele>1316</ele>
        <time>2018-12-02T09:20:32.000Z</time>
      </trkpt>
      <trkpt lat="42.92342" lon="0.84954">
        <ele>1316</ele>
        <time>2018-12-02T09:20:34.000Z</time>
      </trkpt>
      <trkpt lat="42.92341" lon="0.84955">
        <ele>1316</ele>
        <time>2018-12-02T09:20:36.000Z</time>
      </trkpt>
      <trkpt lat="42.92343" lon="0.84955">
        <ele>1316</ele>
        <time>2018-12-02T09:20:38.000Z</time>
      </trkpt>
      <trkpt lat="42.92342" lon="0.84955">
        <ele>1316</ele>
        <time>2018-12-02T09:20:40.000Z</time>
      </trkpt>
      <trkpt lat="42.92343" lon="0.84955">
        <ele>1316</ele>
        <time>2018-12-02T09:20:42.000Z</time>
      </trkpt>
      <trkpt lat="42.92342" lon="0.84955">
        <ele>1316</ele>
        <time>2018-12-02T09:20:44.000Z</time>
      </trkpt>
      <trkpt lat="42.92342" lon="0.84955">
        <ele>1316</ele>
        <time>2018-12-02T09:20:46.000Z</time>
      </trkpt>
      <trkpt lat="42.92341" lon="0.84955">
        <ele>1316</ele>
        <time>2018-12-02T09:20:48.000Z</time>
      </trkpt>
      <trkpt lat="42.9234" lon="0.84956">
        <ele>1315</ele>
        <time>2018-12-02T09:20:50.000Z</time>
      </trkpt>
      <trkpt lat="42.92339" lon="0.84955">
        <ele>1315</ele>
        <time>2018-12-02T09:20:52.000Z</time>
      </trkpt>
      <trkpt lat="42.92338" lon="0.84954">
        <ele>1315</ele>
        <time>2018-12-02T09:20:54.000Z</time>
      </trkpt>
      <trkpt lat="42.92338" lon="0.84954">
        <ele>1315</ele>
        <time>2018-12-02T09:20:56.000Z</time>
      </trkpt>
      <trkpt lat="42.92337" lon="0.84954">
        <ele>1315</ele>
        <time>2018-12-02T09:20:58.000Z</time>
      </trkpt>
      <trkpt lat="42.92336" lon="0.84954">
        <ele>1314</ele>
        <time>2018-12-02T09:21:00.000Z</time>
      </trkpt>
      <trkpt lat="42.92336" lon="0.84953">
        <ele>1314</ele>
        <time>2018-12-02T09:21:02.000Z</time>
      </trkpt>
      <trkpt lat="42.92336" lon="0.84952">
        <ele>1314</ele>
        <time>2018-12-02T09:21:04.000Z</time>
      </trkpt>
      <trkpt lat="42.92335" lon="0.84951">
        <ele>1314</ele>
        <time>2018-12-02T09:21:06.000Z</time>
      </trkpt>
      <trkpt lat="42.92335" lon="0.84949">
        <ele>1314</ele>
        <time>2018-12-02T09:21:08.000Z</time>
      </trkpt>
      <trkpt lat="42.92335" lon="0.84948">
        <ele>1314</ele>
        <time>2018-12-02T09:21:10.000Z</time>
      </trkpt>
      <trkpt lat="42.92334" lon="0.84947">
        <ele>1314</ele>
        <time>2018-12-02T09:21:12.000Z</time>
      </trkpt>
      <trkpt lat="42.92334" lon="0.84945">
        <ele>1314</ele>
        <time>2018-12-02T09:21:14.000Z</time>
      </trkpt>
      <trkpt lat="42.92335" lon="0.84942">
        <ele>1315</ele>
        <time>2018-12-02T09:21:16.000Z</time>
      </trkpt>
      <trkpt lat="42.92335" lon="0.84939">
        <ele>1315</ele>
        <time>2018-12-02T09:21:18.000Z</time>
      </trkpt>
      <trkpt lat="42.92335" lon="0.84938">
        <ele>1315</ele>
        <time>2018-12-02T09:21:20.000Z</time>
      </trkpt>
      <trkpt lat="42.92336" lon="0.84935">
        <ele>1316</ele>
        <time>2018-12-02T09:21:22.000Z</time>
      </trkpt>
      <trkpt lat="42.92336" lon="0.84932">
        <ele>1316</ele>
        <time>2018-12-02T09:21:24.000Z</time>
      </trkpt>
      <trkpt lat="42.92336" lon="0.84929">
        <ele>1316</ele>
        <time>2018-12-02T09:21:26.000Z</time>
      </trkpt>
      <trkpt lat="42.92336" lon="0.84927">
        <ele>1317</ele>
        <time>2018-12-02T09:21:28.000Z</time>
      </trkpt>
      <trkpt lat="42.92337" lon="0.84925">
        <ele>1317</ele>
        <time>2018-12-02T09:21:30.000Z</time>
      </trkpt>
      <trkpt lat="42.92337" lon="0.84923">
        <ele>1317</ele>
        <time>2018-12-02T09:21:32.000Z</time>
      </trkpt>
      <trkpt lat="42.92337" lon="0.84921">
        <ele>1318</ele>
        <time>2018-12-02T09:21:34.000Z</time>
      </trkpt>
      <trkpt lat="42.92337" lon="0.84919">
        <ele>1318</ele>
        <time>2018-12-02T09:21:36.000Z</time>
      </trkpt>
      <trkpt lat="42.92337" lon="0.84917">
        <ele>1318</ele>
        <time>2018-12-02T09:21:38.000Z</time>
      </trkpt>
      <trkpt lat="42.92336" lon="0.84915">
        <ele>1318</ele>
        <time>2018-12-02T09:21:40.000Z</time>
      </trkpt>
      <trkpt lat="42.92336" lon="0.84912">
        <ele>1318</ele>
        <time>2018-12-02T09:21:42.000Z</time>
      </trkpt>
      <trkpt lat="42.92335" lon="0.8491">
        <ele>1318</ele>
        <time>2018-12-02T09:21:44.000Z</time>
      </trkpt>
      <trkpt lat="42.92335" lon="0.84908">
        <ele>1318</ele>
        <time>2018-12-02T09:21:46.000Z</time>
      </trkpt>
      <trkpt lat="42.92335" lon="0.84908">
        <ele>1318</ele>
        <time>2018-12-02T09:21:48.000Z</time>
      </trkpt>
      <trkpt lat="42.92335" lon="0.84906">
        <ele>1318</ele>
        <time>2018-12-02T09:21:50.000Z</time>
      </trkpt>
      <trkpt lat="42.92335" lon="0.84906">
        <ele>1318</ele>
        <time>2018-12-02T09:21:52.000Z</time>
      </trkpt>
      <trkpt lat="42.92335" lon="0.84904">
        <ele>1318</ele>
        <time>2018-12-02T09:21:54.000Z</time>
      </trkpt>
      <trkpt lat="42.92334" lon="0.84902">
        <ele>1318</ele>
        <time>2018-12-02T09:21:56.000Z</time>
      </trkpt>
      <trkpt lat="42.92334" lon="0.84901">
        <ele>1318</ele>
        <time>2018-12-02T09:21:58.000Z</time>
      </trkpt>
      <trkpt lat="42.92334" lon="0.849">
        <ele>1318</ele>
        <time>2018-12-02T09:22:00.000Z</time>
      </trkpt>
      <trkpt lat="42.92334" lon="0.84899">
        <ele>1318</ele>
        <time>2018-12-02T09:22:02.000Z</time>
      </trkpt>
      <trkpt lat="42.92334" lon="0.84896">
        <ele>1319</ele>
        <time>2018-12-02T09:22:04.000Z</time>
      </trkpt>
      <trkpt lat="42.92333" lon="0.84894">
        <ele>1318</ele>
        <time>2018-12-02T09:22:06.000Z</time>
      </trkpt>
      <trkpt lat="42.92332" lon="0.84892">
        <ele>1318</ele>
        <time>2018-12-02T09:22:08.000Z</time>
      </trkpt>
      <trkpt lat="42.92331" lon="0.84889">
        <ele>1318</ele>
        <time>2018-12-02T09:22:10.000Z</time>
      </trkpt>
      <trkpt lat="42.9233" lon="0.84887">
        <ele>1318</ele>
        <time>2018-12-02T09:22:12.000Z</time>
      </trkpt>
      <trkpt lat="42.92329" lon="0.84885">
        <ele>1318</ele>
        <time>2018-12-02T09:22:14.000Z</time>
      </trkpt>
      <trkpt lat="42.92328" lon="0.84882">
        <ele>1318</ele>
        <time>2018-12-02T09:22:16.000Z</time>
      </trkpt>
      <trkpt lat="42.92327" lon="0.84879">
        <ele>1318</ele>
        <time>2018-12-02T09:22:18.000Z</time>
      </trkpt>
      <trkpt lat="42.92326" lon="0.84876">
        <ele>1318</ele>
        <time>2018-12-02T09:22:20.000Z</time>
      </trkpt>
      <trkpt lat="42.92325" lon="0.84873">
        <ele>1318</ele>
        <time>2018-12-02T09:22:22.000Z</time>
      </trkpt>
      <trkpt lat="42.92325" lon="0.84871">
        <ele>1318</ele>
        <time>2018-12-02T09:22:24.000Z</time>
      </trkpt>
      <trkpt lat="42.92324" lon="0.84869">
        <ele>1318</ele>
        <time>2018-12-02T09:22:26.000Z</time>
      </trkpt>
      <trkpt lat="42.92324" lon="0.84867">
        <ele>1318</ele>
        <time>2018-12-02T09:22:28.000Z</time>
      </trkpt>
      <trkpt lat="42.92323" lon="0.84865">
        <ele>1318</ele>
        <time>2018-12-02T09:22:30.000Z</time>
      </trkpt>
      <trkpt lat="42.92321" lon="0.84862">
        <ele>1317</ele>
        <time>2018-12-02T09:22:32.000Z</time>
      </trkpt>
      <trkpt lat="42.9232" lon="0.84859">
        <ele>1317</ele>
        <time>2018-12-02T09:22:35.000Z</time>
      </trkpt>
      <trkpt lat="42.92319" lon="0.84857">
        <ele>1317</ele>
        <time>2018-12-02T09:22:37.000Z</time>
      </trkpt>
      <trkpt lat="42.92318" lon="0.84854">
        <ele>1317</ele>
        <time>2018-12-02T09:22:39.000Z</time>
      </trkpt>
      <trkpt lat="42.92317" lon="0.84852">
        <ele>1317</ele>
        <time>2018-12-02T09:22:41.000Z</time>
      </trkpt>
      <trkpt lat="42.92316" lon="0.84849">
        <ele>1317</ele>
        <time>2018-12-02T09:22:43.000Z</time>
      </trkpt>
      <trkpt lat="42.92316" lon="0.84847">
        <ele>1317</ele>
        <time>2018-12-02T09:22:45.000Z</time>
      </trkpt>
      <trkpt lat="42.92314" lon="0.84845">
        <ele>1316</ele>
        <time>2018-12-02T09:22:47.000Z</time>
      </trkpt>
      <trkpt lat="42.92314" lon="0.84842">
        <ele>1316</ele>
        <time>2018-12-02T09:22:49.000Z</time>
      </trkpt>
      <trkpt lat="42.92313" lon="0.8484">
        <ele>1316</ele>
        <time>2018-12-02T09:22:51.000Z</time>
      </trkpt>
      <trkpt lat="42.92312" lon="0.84836">
        <ele>1316</ele>
        <time>2018-12-02T09:22:54.000Z</time>
      </trkpt>
      <trkpt lat="42.92311" lon="0.84833">
        <ele>1316</ele>
        <time>2018-12-02T09:22:56.000Z</time>
      </trkpt>
      <trkpt lat="42.9231" lon="0.84831">
        <ele>1316</ele>
        <time>2018-12-02T09:22:58.000Z</time>
      </trkpt>
      <trkpt lat="42.92309" lon="0.8483">
        <ele>1316</ele>
        <time>2018-12-02T09:23:00.000Z</time>
      </trkpt>
      <trkpt lat="42.92309" lon="0.84828">
        <ele>1316</ele>
        <time>2018-12-02T09:23:02.000Z</time>
      </trkpt>
      <trkpt lat="42.92308" lon="0.84826">
        <ele>1316</ele>
        <time>2018-12-02T09:23:04.000Z</time>
      </trkpt>
      <trkpt lat="42.92308" lon="0.84824">
        <ele>1316</ele>
        <time>2018-12-02T09:23:06.000Z</time>
      </trkpt>
      <trkpt lat="42.92307" lon="0.84822">
        <ele>1316</ele>
        <time>2018-12-02T09:23:08.000Z</time>
      </trkpt>
      <trkpt lat="42.92307" lon="0.84819">
        <ele>1316</ele>
        <time>2018-12-02T09:23:10.000Z</time>
      </trkpt>
      <trkpt lat="42.92307" lon="0.84817">
        <ele>1316</ele>
        <time>2018-12-02T09:23:12.000Z</time>
      </trkpt>
      <trkpt lat="42.92308" lon="0.84815">
        <ele>1316</ele>
        <time>2018-12-02T09:23:14.000Z</time>
      </trkpt>
      <trkpt lat="42.92307" lon="0.84812">
        <ele>1317</ele>
        <time>2018-12-02T09:23:16.000Z</time>
      </trkpt>
      <trkpt lat="42.92307" lon="0.8481">
        <ele>1317</ele>
        <time>2018-12-02T09:23:18.000Z</time>
      </trkpt>
      <trkpt lat="42.92306" lon="0.84807">
        <ele>1317</ele>
        <time>2018-12-02T09:23:20.000Z</time>
      </trkpt>
      <trkpt lat="42.92306" lon="0.84804">
        <ele>1317</ele>
        <time>2018-12-02T09:23:22.000Z</time>
      </trkpt>
      <trkpt lat="42.92305" lon="0.84802">
        <ele>1317</ele>
        <time>2018-12-02T09:23:24.000Z</time>
      </trkpt>
      <trkpt lat="42.92305" lon="0.84799">
        <ele>1317</ele>
        <time>2018-12-02T09:23:26.000Z</time>
      </trkpt>
      <trkpt lat="42.92304" lon="0.84798">
        <ele>1317</ele>
        <time>2018-12-02T09:23:28.000Z</time>
      </trkpt>
      <trkpt lat="42.92303" lon="0.84798">
        <ele>1316</ele>
        <time>2018-12-02T09:23:30.000Z</time>
      </trkpt>
      <trkpt lat="42.92303" lon="0.84797">
        <ele>1316</ele>
        <time>2018-12-02T09:23:32.000Z</time>
      </trkpt>
      <trkpt lat="42.92304" lon="0.84797">
        <ele>1317</ele>
        <time>2018-12-02T09:23:34.000Z</time>
      </trkpt>
      <trkpt lat="42.92304" lon="0.84797">
        <ele>1317</ele>
        <time>2018-12-02T09:23:36.000Z</time>
      </trkpt>
      <trkpt lat="42.92304" lon="0.84797">
        <ele>1317</ele>
        <time>2018-12-02T09:23:38.000Z</time>
      </trkpt>
      <trkpt lat="42.92304" lon="0.84797">
        <ele>1317</ele>
        <time>2018-12-02T09:23:40.000Z</time>
      </trkpt>
      <trkpt lat="42.92304" lon="0.84797">
        <ele>1317</ele>
        <time>2018-12-02T09:23:42.000Z</time>
      </trkpt>
      <trkpt lat="42.92305" lon="0.84797">
        <ele>1317</ele>
        <time>2018-12-02T09:23:44.000Z</time>
      </trkpt>
      <trkpt lat="42.92305" lon="0.84797">
        <ele>1317</ele>
        <time>2018-12-02T09:23:46.000Z</time>
      </trkpt>
      <trkpt lat="42.92305" lon="0.84797">
        <ele>1317</ele>
        <time>2018-12-02T09:23:48.000Z</time>
      </trkpt>
      <trkpt lat="42.92305" lon="0.84796">
        <ele>1317</ele>
        <time>2018-12-02T09:23:50.000Z</time>
      </trkpt>
      <trkpt lat="42.92305" lon="0.84796">
        <ele>1317</ele>
        <time>2018-12-02T09:23:52.000Z</time>
      </trkpt>
      <trkpt lat="42.92304" lon="0.84795">
        <ele>1317</ele>
        <time>2018-12-02T09:23:54.000Z</time>
      </trkpt>
      <trkpt lat="42.92304" lon="0.84795">
        <ele>1317</ele>
        <time>2018-12-02T09:23:56.000Z</time>
      </trkpt>
      <trkpt lat="42.92304" lon="0.84794">
        <ele>1317</ele>
        <time>2018-12-02T09:23:58.000Z</time>
      </trkpt>
      <trkpt lat="42.92304" lon="0.84794">
        <ele>1317</ele>
        <time>2018-12-02T09:24:00.000Z</time>
      </trkpt>
      <trkpt lat="42.92304" lon="0.84793">
        <ele>1317</ele>
        <time>2018-12-02T09:24:02.000Z</time>
      </trkpt>
      <trkpt lat="42.92303" lon="0.84793">
        <ele>1317</ele>
        <time>2018-12-02T09:24:04.000Z</time>
      </trkpt>
      <trkpt lat="42.92303" lon="0.84792">
        <ele>1317</ele>
        <time>2018-12-02T09:24:06.000Z</time>
      </trkpt>
      <trkpt lat="42.92302" lon="0.84792">
        <ele>1317</ele>
        <time>2018-12-02T09:24:08.000Z</time>
      </trkpt>
      <trkpt lat="42.92302" lon="0.84791">
        <ele>1317</ele>
        <time>2018-12-02T09:24:10.000Z</time>
      </trkpt>
      <trkpt lat="42.92301" lon="0.84791">
        <ele>1316</ele>
        <time>2018-12-02T09:24:12.000Z</time>
      </trkpt>
      <trkpt lat="42.923" lon="0.8479">
        <ele>1316</ele>
        <time>2018-12-02T09:24:14.000Z</time>
      </trkpt>
      <trkpt lat="42.92299" lon="0.84788">
        <ele>1316</ele>
        <time>2018-12-02T09:24:16.000Z</time>
      </trkpt>
      <trkpt lat="42.92299" lon="0.84787">
        <ele>1316</ele>
        <time>2018-12-02T09:24:18.000Z</time>
      </trkpt>
      <trkpt lat="42.92297" lon="0.84784">
        <ele>1316</ele>
        <time>2018-12-02T09:24:20.000Z</time>
      </trkpt>
      <trkpt lat="42.92296" lon="0.84782">
        <ele>1315</ele>
        <time>2018-12-02T09:24:22.000Z</time>
      </trkpt>
      <trkpt lat="42.92295" lon="0.84779">
        <ele>1315</ele>
        <time>2018-12-02T09:24:24.000Z</time>
      </trkpt>
      <trkpt lat="42.92294" lon="0.84778">
        <ele>1315</ele>
        <time>2018-12-02T09:24:26.000Z</time>
      </trkpt>
      <trkpt lat="42.92293" lon="0.84777">
        <ele>1315</ele>
        <time>2018-12-02T09:24:28.000Z</time>
      </trkpt>
      <trkpt lat="42.92291" lon="0.84776">
        <ele>1314</ele>
        <time>2018-12-02T09:24:30.000Z</time>
      </trkpt>
      <trkpt lat="42.9229" lon="0.84776">
        <ele>1314</ele>
        <time>2018-12-02T09:24:32.000Z</time>
      </trkpt>
      <trkpt lat="42.9229" lon="0.84777">
        <ele>1313</ele>
        <time>2018-12-02T09:24:34.000Z</time>
      </trkpt>
      <trkpt lat="42.9229" lon="0.84778">
        <ele>1313</ele>
        <time>2018-12-02T09:24:36.000Z</time>
      </trkpt>
      <trkpt lat="42.9229" lon="0.84778">
        <ele>1313</ele>
        <time>2018-12-02T09:24:38.000Z</time>
      </trkpt>
      <trkpt lat="42.9229" lon="0.84778">
        <ele>1314</ele>
        <time>2018-12-02T09:24:40.000Z</time>
      </trkpt>
      <trkpt lat="42.92291" lon="0.84778">
        <ele>1314</ele>
        <time>2018-12-02T09:24:42.000Z</time>
      </trkpt>
      <trkpt lat="42.92291" lon="0.84778">
        <ele>1314</ele>
        <time>2018-12-02T09:24:44.000Z</time>
      </trkpt>
      <trkpt lat="42.92291" lon="0.84779">
        <ele>1314</ele>
        <time>2018-12-02T09:24:46.000Z</time>
      </trkpt>
      <trkpt lat="42.92291" lon="0.84779">
        <ele>1314</ele>
        <time>2018-12-02T09:24:48.000Z</time>
      </trkpt>
      <trkpt lat="42.92292" lon="0.84779">
        <ele>1314</ele>
        <time>2018-12-02T09:24:50.000Z</time>
      </trkpt>
      <trkpt lat="42.92292" lon="0.84779">
        <ele>1314</ele>
        <time>2018-12-02T09:24:52.000Z</time>
      </trkpt>
      <trkpt lat="42.92294" lon="0.84779">
        <ele>1315</ele>
        <time>2018-12-02T09:24:54.000Z</time>
      </trkpt>
      <trkpt lat="42.92296" lon="0.8478">
        <ele>1315</ele>
        <time>2018-12-02T09:24:57.000Z</time>
      </trkpt>
      <trkpt lat="42.92298" lon="0.84778">
        <ele>1316</ele>
        <time>2018-12-02T09:24:59.000Z</time>
      </trkpt>
      <trkpt lat="42.92298" lon="0.84777">
        <ele>1317</ele>
        <time>2018-12-02T09:25:01.000Z</time>
      </trkpt>
      <trkpt lat="42.92299" lon="0.84775">
        <ele>1317</ele>
        <time>2018-12-02T09:25:03.000Z</time>
      </trkpt>
      <trkpt lat="42.92299" lon="0.84774">
        <ele>1317</ele>
        <time>2018-12-02T09:25:05.000Z</time>
      </trkpt>
      <trkpt lat="42.923" lon="0.84773">
        <ele>1317</ele>
        <time>2018-12-02T09:25:07.000Z</time>
      </trkpt>
      <trkpt lat="42.92299" lon="0.84771">
        <ele>1317</ele>
        <time>2018-12-02T09:25:09.000Z</time>
      </trkpt>
      <trkpt lat="42.92299" lon="0.8477">
        <ele>1317</ele>
        <time>2018-12-02T09:25:11.000Z</time>
      </trkpt>
      <trkpt lat="42.92299" lon="0.84768">
        <ele>1318</ele>
        <time>2018-12-02T09:25:13.000Z</time>
      </trkpt>
      <trkpt lat="42.92299" lon="0.84766">
        <ele>1318</ele>
        <time>2018-12-02T09:25:15.000Z</time>
      </trkpt>
      <trkpt lat="42.92299" lon="0.84764">
        <ele>1318</ele>
        <time>2018-12-02T09:25:17.000Z</time>
      </trkpt>
      <trkpt lat="42.92299" lon="0.84762">
        <ele>1318</ele>
        <time>2018-12-02T09:25:19.000Z</time>
      </trkpt>
      <trkpt lat="42.92299" lon="0.84761">
        <ele>1318</ele>
        <time>2018-12-02T09:25:21.000Z</time>
      </trkpt>
      <trkpt lat="42.923" lon="0.84759">
        <ele>1319</ele>
        <time>2018-12-02T09:25:23.000Z</time>
      </trkpt>
      <trkpt lat="42.923" lon="0.84758">
        <ele>1319</ele>
        <time>2018-12-02T09:25:25.000Z</time>
      </trkpt>
      <trkpt lat="42.92301" lon="0.84756">
        <ele>1319</ele>
        <time>2018-12-02T09:25:27.000Z</time>
      </trkpt>
      <trkpt lat="42.92301" lon="0.84755">
        <ele>1319</ele>
        <time>2018-12-02T09:25:29.000Z</time>
      </trkpt>
      <trkpt lat="42.92301" lon="0.84753">
        <ele>1319</ele>
        <time>2018-12-02T09:25:32.000Z</time>
      </trkpt>
      <trkpt lat="42.92302" lon="0.84751">
        <ele>1320</ele>
        <time>2018-12-02T09:25:34.000Z</time>
      </trkpt>
      <trkpt lat="42.92302" lon="0.84749">
        <ele>1320</ele>
        <time>2018-12-02T09:25:36.000Z</time>
      </trkpt>
      <trkpt lat="42.92302" lon="0.84747">
        <ele>1320</ele>
        <time>2018-12-02T09:25:38.000Z</time>
      </trkpt>
      <trkpt lat="42.92303" lon="0.84746">
        <ele>1320</ele>
        <time>2018-12-02T09:25:40.000Z</time>
      </trkpt>
      <trkpt lat="42.92303" lon="0.84744">
        <ele>1321</ele>
        <time>2018-12-02T09:25:42.000Z</time>
      </trkpt>
      <trkpt lat="42.92304" lon="0.84743">
        <ele>1321</ele>
        <time>2018-12-02T09:25:44.000Z</time>
      </trkpt>
      <trkpt lat="42.92304" lon="0.84741">
        <ele>1321</ele>
        <time>2018-12-02T09:25:46.000Z</time>
      </trkpt>
      <trkpt lat="42.92304" lon="0.84739">
        <ele>1321</ele>
        <time>2018-12-02T09:25:48.000Z</time>
      </trkpt>
      <trkpt lat="42.92305" lon="0.84738">
        <ele>1322</ele>
        <time>2018-12-02T09:25:50.000Z</time>
      </trkpt>
      <trkpt lat="42.92305" lon="0.84736">
        <ele>1322</ele>
        <time>2018-12-02T09:25:52.000Z</time>
      </trkpt>
      <trkpt lat="42.92306" lon="0.84734">
        <ele>1322</ele>
        <time>2018-12-02T09:25:54.000Z</time>
      </trkpt>
      <trkpt lat="42.92306" lon="0.84733">
        <ele>1322</ele>
        <time>2018-12-02T09:25:56.000Z</time>
      </trkpt>
      <trkpt lat="42.92307" lon="0.84732">
        <ele>1322</ele>
        <time>2018-12-02T09:25:58.000Z</time>
      </trkpt>
      <trkpt lat="42.92307" lon="0.8473">
        <ele>1323</ele>
        <time>2018-12-02T09:26:00.000Z</time>
      </trkpt>
      <trkpt lat="42.92308" lon="0.84728">
        <ele>1323</ele>
        <time>2018-12-02T09:26:02.000Z</time>
      </trkpt>
      <trkpt lat="42.92308" lon="0.84727">
        <ele>1323</ele>
        <time>2018-12-02T09:26:04.000Z</time>
      </trkpt>
      <trkpt lat="42.92308" lon="0.84725">
        <ele>1323</ele>
        <time>2018-12-02T09:26:06.000Z</time>
      </trkpt>
      <trkpt lat="42.92309" lon="0.84724">
        <ele>1324</ele>
        <time>2018-12-02T09:26:08.000Z</time>
      </trkpt>
      <trkpt lat="42.92308" lon="0.84723">
        <ele>1324</ele>
        <time>2018-12-02T09:26:10.000Z</time>
      </trkpt>
      <trkpt lat="42.92309" lon="0.84722">
        <ele>1324</ele>
        <time>2018-12-02T09:26:12.000Z</time>
      </trkpt>
      <trkpt lat="42.92309" lon="0.8472">
        <ele>1324</ele>
        <time>2018-12-02T09:26:14.000Z</time>
      </trkpt>
      <trkpt lat="42.92309" lon="0.84718">
        <ele>1324</ele>
        <time>2018-12-02T09:26:16.000Z</time>
      </trkpt>
      <trkpt lat="42.9231" lon="0.84717">
        <ele>1325</ele>
        <time>2018-12-02T09:26:18.000Z</time>
      </trkpt>
      <trkpt lat="42.9231" lon="0.84716">
        <ele>1325</ele>
        <time>2018-12-02T09:26:20.000Z</time>
      </trkpt>
      <trkpt lat="42.92311" lon="0.84715">
        <ele>1325</ele>
        <time>2018-12-02T09:26:22.000Z</time>
      </trkpt>
      <trkpt lat="42.92312" lon="0.84714">
        <ele>1326</ele>
        <time>2018-12-02T09:26:24.000Z</time>
      </trkpt>
      <trkpt lat="42.92313" lon="0.84713">
        <ele>1326</ele>
        <time>2018-12-02T09:26:26.000Z</time>
      </trkpt>
      <trkpt lat="42.92314" lon="0.84712">
        <ele>1327</ele>
        <time>2018-12-02T09:26:28.000Z</time>
      </trkpt>
      <trkpt lat="42.92315" lon="0.84711">
        <ele>1327</ele>
        <time>2018-12-02T09:26:30.000Z</time>
      </trkpt>
      <trkpt lat="42.92315" lon="0.8471">
        <ele>1327</ele>
        <time>2018-12-02T09:26:32.000Z</time>
      </trkpt>
      <trkpt lat="42.92316" lon="0.8471">
        <ele>1328</ele>
        <time>2018-12-02T09:26:34.000Z</time>
      </trkpt>
      <trkpt lat="42.92317" lon="0.84708">
        <ele>1328</ele>
        <time>2018-12-02T09:26:37.000Z</time>
      </trkpt>
      <trkpt lat="42.92319" lon="0.84707">
        <ele>1329</ele>
        <time>2018-12-02T09:26:39.000Z</time>
      </trkpt>
      <trkpt lat="42.9232" lon="0.84707">
        <ele>1329</ele>
        <time>2018-12-02T09:26:41.000Z</time>
      </trkpt>
      <trkpt lat="42.92321" lon="0.84706">
        <ele>1330</ele>
        <time>2018-12-02T09:26:43.000Z</time>
      </trkpt>
      <trkpt lat="42.92323" lon="0.84706">
        <ele>1330</ele>
        <time>2018-12-02T09:26:45.000Z</time>
      </trkpt>
      <trkpt lat="42.92325" lon="0.84706">
        <ele>1331</ele>
        <time>2018-12-02T09:26:47.000Z</time>
      </trkpt>
      <trkpt lat="42.92326" lon="0.84706">
        <ele>1331</ele>
        <time>2018-12-02T09:26:49.000Z</time>
      </trkpt>
      <trkpt lat="42.92328" lon="0.84706">
        <ele>1332</ele>
        <time>2018-12-02T09:26:51.000Z</time>
      </trkpt>
      <trkpt lat="42.92329" lon="0.84706">
        <ele>1332</ele>
        <time>2018-12-02T09:26:53.000Z</time>
      </trkpt>
      <trkpt lat="42.92331" lon="0.84706">
        <ele>1333</ele>
        <time>2018-12-02T09:26:55.000Z</time>
      </trkpt>
      <trkpt lat="42.92332" lon="0.84707">
        <ele>1333</ele>
        <time>2018-12-02T09:26:57.000Z</time>
      </trkpt>
      <trkpt lat="42.92333" lon="0.84707">
        <ele>1333</ele>
        <time>2018-12-02T09:26:59.000Z</time>
      </trkpt>
      <trkpt lat="42.92333" lon="0.84707">
        <ele>1333</ele>
        <time>2018-12-02T09:27:01.000Z</time>
      </trkpt>
      <trkpt lat="42.92332" lon="0.84708">
        <ele>1333</ele>
        <time>2018-12-02T09:27:03.000Z</time>
      </trkpt>
      <trkpt lat="42.92333" lon="0.84708">
        <ele>1333</ele>
        <time>2018-12-02T09:27:05.000Z</time>
      </trkpt>
      <trkpt lat="42.92333" lon="0.84709">
        <ele>1333</ele>
        <time>2018-12-02T09:27:07.000Z</time>
      </trkpt>
      <trkpt lat="42.92334" lon="0.84709">
        <ele>1334</ele>
        <time>2018-12-02T09:27:09.000Z</time>
      </trkpt>
      <trkpt lat="42.92335" lon="0.8471">
        <ele>1334</ele>
        <time>2018-12-02T09:27:11.000Z</time>
      </trkpt>
      <trkpt lat="42.92335" lon="0.8471">
        <ele>1334</ele>
        <time>2018-12-02T09:27:13.000Z</time>
      </trkpt>
      <trkpt lat="42.92335" lon="0.84711">
        <ele>1334</ele>
        <time>2018-12-02T09:27:15.000Z</time>
      </trkpt>
      <trkpt lat="42.92335" lon="0.84711">
        <ele>1334</ele>
        <time>2018-12-02T09:27:17.000Z</time>
      </trkpt>
      <trkpt lat="42.92335" lon="0.84711">
        <ele>1334</ele>
        <time>2018-12-02T09:27:19.000Z</time>
      </trkpt>
      <trkpt lat="42.92335" lon="0.84711">
        <ele>1334</ele>
        <time>2018-12-02T09:27:21.000Z</time>
      </trkpt>
      <trkpt lat="42.92335" lon="0.8471">
        <ele>1334</ele>
        <time>2018-12-02T09:27:23.000Z</time>
      </trkpt>
      <trkpt lat="42.92336" lon="0.8471">
        <ele>1334</ele>
        <time>2018-12-02T09:27:25.000Z</time>
      </trkpt>
      <trkpt lat="42.92336" lon="0.8471">
        <ele>1334</ele>
        <time>2018-12-02T09:27:27.000Z</time>
      </trkpt>
      <trkpt lat="42.92337" lon="0.84711">
        <ele>1334</ele>
        <time>2018-12-02T09:27:29.000Z</time>
      </trkpt>
      <trkpt lat="42.92337" lon="0.84711">
        <ele>1334</ele>
        <time>2018-12-02T09:27:31.000Z</time>
      </trkpt>
      <trkpt lat="42.92337" lon="0.84711">
        <ele>1334</ele>
        <time>2018-12-02T09:27:33.000Z</time>
      </trkpt>
      <trkpt lat="42.92338" lon="0.84712">
        <ele>1334</ele>
        <time>2018-12-02T09:27:35.000Z</time>
      </trkpt>
      <trkpt lat="42.92338" lon="0.84712">
        <ele>1335</ele>
        <time>2018-12-02T09:27:37.000Z</time>
      </trkpt>
      <trkpt lat="42.92339" lon="0.84713">
        <ele>1335</ele>
        <time>2018-12-02T09:27:39.000Z</time>
      </trkpt>
      <trkpt lat="42.92339" lon="0.84713">
        <ele>1335</ele>
        <time>2018-12-02T09:27:41.000Z</time>
      </trkpt>
      <trkpt lat="42.92338" lon="0.84714">
        <ele>1334</ele>
        <time>2018-12-02T09:27:43.000Z</time>
      </trkpt>
      <trkpt lat="42.92339" lon="0.84715">
        <ele>1334</ele>
        <time>2018-12-02T09:27:45.000Z</time>
      </trkpt>
      <trkpt lat="42.92339" lon="0.84716">
        <ele>1334</ele>
        <time>2018-12-02T09:27:47.000Z</time>
      </trkpt>
      <trkpt lat="42.92339" lon="0.84716">
        <ele>1334</ele>
        <time>2018-12-02T09:27:49.000Z</time>
      </trkpt>
      <trkpt lat="42.92339" lon="0.84718">
        <ele>1334</ele>
        <time>2018-12-02T09:27:51.000Z</time>
      </trkpt>
      <trkpt lat="42.9234" lon="0.84719">
        <ele>1334</ele>
        <time>2018-12-02T09:27:53.000Z</time>
      </trkpt>
      <trkpt lat="42.9234" lon="0.84719">
        <ele>1334</ele>
        <time>2018-12-02T09:27:55.000Z</time>
      </trkpt>
      <trkpt lat="42.92341" lon="0.84721">
        <ele>1334</ele>
        <time>2018-12-02T09:27:57.000Z</time>
      </trkpt>
      <trkpt lat="42.92342" lon="0.84724">
        <ele>1334</ele>
        <time>2018-12-02T09:27:59.000Z</time>
      </trkpt>
      <trkpt lat="42.92341" lon="0.84723">
        <ele>1334</ele>
        <time>2018-12-02T09:28:01.000Z</time>
      </trkpt>
      <trkpt lat="42.92343" lon="0.8472">
        <ele>1335</ele>
        <time>2018-12-02T09:28:03.000Z</time>
      </trkpt>
      <trkpt lat="42.92343" lon="0.84716">
        <ele>1336</ele>
        <time>2018-12-02T09:28:05.000Z</time>
      </trkpt>
      <trkpt lat="42.92344" lon="0.84714">
        <ele>1336</ele>
        <time>2018-12-02T09:28:07.000Z</time>
      </trkpt>
      <trkpt lat="42.92344" lon="0.84713">
        <ele>1336</ele>
        <time>2018-12-02T09:28:09.000Z</time>
      </trkpt>
      <trkpt lat="42.92346" lon="0.84713">
        <ele>1337</ele>
        <time>2018-12-02T09:28:11.000Z</time>
      </trkpt>
      <trkpt lat="42.92348" lon="0.84714">
        <ele>1338</ele>
        <time>2018-12-02T09:28:13.000Z</time>
      </trkpt>
      <trkpt lat="42.92348" lon="0.84712">
        <ele>1338</ele>
        <time>2018-12-02T09:28:15.000Z</time>
      </trkpt>
      <trkpt lat="42.92349" lon="0.84711">
        <ele>1338</ele>
        <time>2018-12-02T09:28:17.000Z</time>
      </trkpt>
      <trkpt lat="42.92349" lon="0.8471">
        <ele>1339</ele>
        <time>2018-12-02T09:28:19.000Z</time>
      </trkpt>
      <trkpt lat="42.92349" lon="0.8471">
        <ele>1339</ele>
        <time>2018-12-02T09:28:21.000Z</time>
      </trkpt>
      <trkpt lat="42.9235" lon="0.8471">
        <ele>1339</ele>
        <time>2018-12-02T09:28:23.000Z</time>
      </trkpt>
      <trkpt lat="42.9235" lon="0.84711">
        <ele>1339</ele>
        <time>2018-12-02T09:28:25.000Z</time>
      </trkpt>
      <trkpt lat="42.92351" lon="0.84711">
        <ele>1339</ele>
        <time>2018-12-02T09:28:27.000Z</time>
      </trkpt>
      <trkpt lat="42.92352" lon="0.84711">
        <ele>1340</ele>
        <time>2018-12-02T09:28:29.000Z</time>
      </trkpt>
      <trkpt lat="42.92353" lon="0.84712">
        <ele>1340</ele>
        <time>2018-12-02T09:28:31.000Z</time>
      </trkpt>
      <trkpt lat="42.92354" lon="0.84713">
        <ele>1340</ele>
        <time>2018-12-02T09:28:33.000Z</time>
      </trkpt>
      <trkpt lat="42.92354" lon="0.84713">
        <ele>1340</ele>
        <time>2018-12-02T09:28:35.000Z</time>
      </trkpt>
      <trkpt lat="42.92355" lon="0.84714">
        <ele>1341</ele>
        <time>2018-12-02T09:28:37.000Z</time>
      </trkpt>
      <trkpt lat="42.92357" lon="0.84716">
        <ele>1341</ele>
        <time>2018-12-02T09:28:39.000Z</time>
      </trkpt>
      <trkpt lat="42.92358" lon="0.84717">
        <ele>1341</ele>
        <time>2018-12-02T09:28:41.000Z</time>
      </trkpt>
      <trkpt lat="42.92359" lon="0.84719">
        <ele>1341</ele>
        <time>2018-12-02T09:28:43.000Z</time>
      </trkpt>
      <trkpt lat="42.92359" lon="0.84719">
        <ele>1342</ele>
        <time>2018-12-02T09:28:45.000Z</time>
      </trkpt>
      <trkpt lat="42.9236" lon="0.8472">
        <ele>1342</ele>
        <time>2018-12-02T09:28:47.000Z</time>
      </trkpt>
      <trkpt lat="42.92361" lon="0.8472">
        <ele>1342</ele>
        <time>2018-12-02T09:28:49.000Z</time>
      </trkpt>
      <trkpt lat="42.92362" lon="0.8472">
        <ele>1343</ele>
        <time>2018-12-02T09:28:51.000Z</time>
      </trkpt>
      <trkpt lat="42.92363" lon="0.84721">
        <ele>1343</ele>
        <time>2018-12-02T09:28:53.000Z</time>
      </trkpt>
      <trkpt lat="42.92364" lon="0.84723">
        <ele>1343</ele>
        <time>2018-12-02T09:28:55.000Z</time>
      </trkpt>
      <trkpt lat="42.92365" lon="0.84725">
        <ele>1343</ele>
        <time>2018-12-02T09:28:58.000Z</time>
      </trkpt>
      <trkpt lat="42.92366" lon="0.84726">
        <ele>1344</ele>
        <time>2018-12-02T09:29:00.000Z</time>
      </trkpt>
      <trkpt lat="42.92367" lon="0.84728">
        <ele>1344</ele>
        <time>2018-12-02T09:29:02.000Z</time>
      </trkpt>
      <trkpt lat="42.92368" lon="0.8473">
        <ele>1344</ele>
        <time>2018-12-02T09:29:04.000Z</time>
      </trkpt>
      <trkpt lat="42.9237" lon="0.84731">
        <ele>1345</ele>
        <time>2018-12-02T09:29:06.000Z</time>
      </trkpt>
      <trkpt lat="42.92371" lon="0.84733">
        <ele>1345</ele>
        <time>2018-12-02T09:29:08.000Z</time>
      </trkpt>
      <trkpt lat="42.92372" lon="0.84734">
        <ele>1346</ele>
        <time>2018-12-02T09:29:10.000Z</time>
      </trkpt>
      <trkpt lat="42.92373" lon="0.84736">
        <ele>1346</ele>
        <time>2018-12-02T09:29:12.000Z</time>
      </trkpt>
      <trkpt lat="42.92373" lon="0.84737">
        <ele>1346</ele>
        <time>2018-12-02T09:29:14.000Z</time>
      </trkpt>
      <trkpt lat="42.92373" lon="0.84737">
        <ele>1346</ele>
        <time>2018-12-02T09:29:16.000Z</time>
      </trkpt>
      <trkpt lat="42.92373" lon="0.84739">
        <ele>1346</ele>
        <time>2018-12-02T09:29:18.000Z</time>
      </trkpt>
      <trkpt lat="42.92374" lon="0.8474">
        <ele>1346</ele>
        <time>2018-12-02T09:29:20.000Z</time>
      </trkpt>
      <trkpt lat="42.92374" lon="0.84742">
        <ele>1346</ele>
        <time>2018-12-02T09:29:22.000Z</time>
      </trkpt>
      <trkpt lat="42.92375" lon="0.84744">
        <ele>1346</ele>
        <time>2018-12-02T09:29:24.000Z</time>
      </trkpt>
      <trkpt lat="42.92377" lon="0.84746">
        <ele>1347</ele>
        <time>2018-12-02T09:29:26.000Z</time>
      </trkpt>
      <trkpt lat="42.92378" lon="0.84748">
        <ele>1347</ele>
        <time>2018-12-02T09:29:28.000Z</time>
      </trkpt>
      <trkpt lat="42.92378" lon="0.8475">
        <ele>1347</ele>
        <time>2018-12-02T09:29:30.000Z</time>
      </trkpt>
      <trkpt lat="42.92379" lon="0.84751">
        <ele>1348</ele>
        <time>2018-12-02T09:29:32.000Z</time>
      </trkpt>
      <trkpt lat="42.9238" lon="0.84752">
        <ele>1348</ele>
        <time>2018-12-02T09:29:34.000Z</time>
      </trkpt>
      <trkpt lat="42.92381" lon="0.84753">
        <ele>1348</ele>
        <time>2018-12-02T09:29:36.000Z</time>
      </trkpt>
      <trkpt lat="42.92381" lon="0.84754">
        <ele>1348</ele>
        <time>2018-12-02T09:29:38.000Z</time>
      </trkpt>
      <trkpt lat="42.92382" lon="0.84754">
        <ele>1348</ele>
        <time>2018-12-02T09:29:40.000Z</time>
      </trkpt>
      <trkpt lat="42.92383" lon="0.84754">
        <ele>1349</ele>
        <time>2018-12-02T09:29:42.000Z</time>
      </trkpt>
      <trkpt lat="42.92383" lon="0.84755">
        <ele>1349</ele>
        <time>2018-12-02T09:29:44.000Z</time>
      </trkpt>
      <trkpt lat="42.92383" lon="0.84756">
        <ele>1349</ele>
        <time>2018-12-02T09:29:46.000Z</time>
      </trkpt>
      <trkpt lat="42.92383" lon="0.84758">
        <ele>1349</ele>
        <time>2018-12-02T09:29:48.000Z</time>
      </trkpt>
      <trkpt lat="42.92384" lon="0.8476">
        <ele>1349</ele>
        <time>2018-12-02T09:29:50.000Z</time>
      </trkpt>
      <trkpt lat="42.92383" lon="0.84761">
        <ele>1348</ele>
        <time>2018-12-02T09:29:52.000Z</time>
      </trkpt>
      <trkpt lat="42.92383" lon="0.84762">
        <ele>1348</ele>
        <time>2018-12-02T09:29:54.000Z</time>
      </trkpt>
      <trkpt lat="42.92383" lon="0.84763">
        <ele>1348</ele>
        <time>2018-12-02T09:29:56.000Z</time>
      </trkpt>
      <trkpt lat="42.92384" lon="0.84765">
        <ele>1349</ele>
        <time>2018-12-02T09:29:58.000Z</time>
      </trkpt>
      <trkpt lat="42.92385" lon="0.84766">
        <ele>1349</ele>
        <time>2018-12-02T09:30:00.000Z</time>
      </trkpt>
      <trkpt lat="42.92385" lon="0.84768">
        <ele>1349</ele>
        <time>2018-12-02T09:30:02.000Z</time>
      </trkpt>
      <trkpt lat="42.92386" lon="0.84771">
        <ele>1349</ele>
        <time>2018-12-02T09:30:04.000Z</time>
      </trkpt>
      <trkpt lat="42.92387" lon="0.84772">
        <ele>1349</ele>
        <time>2018-12-02T09:30:06.000Z</time>
      </trkpt>
      <trkpt lat="42.92387" lon="0.84773">
        <ele>1349</ele>
        <time>2018-12-02T09:30:08.000Z</time>
      </trkpt>
      <trkpt lat="42.92389" lon="0.84777">
        <ele>1350</ele>
        <time>2018-12-02T09:30:11.000Z</time>
      </trkpt>
      <trkpt lat="42.9239" lon="0.84778">
        <ele>1350</ele>
        <time>2018-12-02T09:30:13.000Z</time>
      </trkpt>
      <trkpt lat="42.9239" lon="0.8478">
        <ele>1350</ele>
        <time>2018-12-02T09:30:15.000Z</time>
      </trkpt>
      <trkpt lat="42.92391" lon="0.84781">
        <ele>1350</ele>
        <time>2018-12-02T09:30:17.000Z</time>
      </trkpt>
      <trkpt lat="42.92391" lon="0.84783">
        <ele>1351</ele>
        <time>2018-12-02T09:30:19.000Z</time>
      </trkpt>
      <trkpt lat="42.92392" lon="0.84785">
        <ele>1351</ele>
        <time>2018-12-02T09:30:21.000Z</time>
      </trkpt>
      <trkpt lat="42.92392" lon="0.84787">
        <ele>1351</ele>
        <time>2018-12-02T09:30:23.000Z</time>
      </trkpt>
      <trkpt lat="42.92392" lon="0.84789">
        <ele>1350</ele>
        <time>2018-12-02T09:30:25.000Z</time>
      </trkpt>
      <trkpt lat="42.92392" lon="0.8479">
        <ele>1350</ele>
        <time>2018-12-02T09:30:27.000Z</time>
      </trkpt>
      <trkpt lat="42.92393" lon="0.84792">
        <ele>1351</ele>
        <time>2018-12-02T09:30:29.000Z</time>
      </trkpt>
      <trkpt lat="42.92394" lon="0.84795">
        <ele>1351</ele>
        <time>2018-12-02T09:30:31.000Z</time>
      </trkpt>
      <trkpt lat="42.92394" lon="0.84798">
        <ele>1351</ele>
        <time>2018-12-02T09:30:33.000Z</time>
      </trkpt>
      <trkpt lat="42.92394" lon="0.84801">
        <ele>1350</ele>
        <time>2018-12-02T09:30:35.000Z</time>
      </trkpt>
      <trkpt lat="42.92394" lon="0.84803">
        <ele>1350</ele>
        <time>2018-12-02T09:30:37.000Z</time>
      </trkpt>
      <trkpt lat="42.92394" lon="0.84805">
        <ele>1350</ele>
        <time>2018-12-02T09:30:39.000Z</time>
      </trkpt>
      <trkpt lat="42.92395" lon="0.84808">
        <ele>1350</ele>
        <time>2018-12-02T09:30:41.000Z</time>
      </trkpt>
      <trkpt lat="42.92395" lon="0.8481">
        <ele>1350</ele>
        <time>2018-12-02T09:30:43.000Z</time>
      </trkpt>
      <trkpt lat="42.92394" lon="0.84813">
        <ele>1350</ele>
        <time>2018-12-02T09:30:45.000Z</time>
      </trkpt>
      <trkpt lat="42.92394" lon="0.84815">
        <ele>1349</ele>
        <time>2018-12-02T09:30:47.000Z</time>
      </trkpt>
      <trkpt lat="42.92394" lon="0.84817">
        <ele>1349</ele>
        <time>2018-12-02T09:30:49.000Z</time>
      </trkpt>
      <trkpt lat="42.92394" lon="0.8482">
        <ele>1349</ele>
        <time>2018-12-02T09:30:51.000Z</time>
      </trkpt>
      <trkpt lat="42.92394" lon="0.84822">
        <ele>1349</ele>
        <time>2018-12-02T09:30:53.000Z</time>
      </trkpt>
      <trkpt lat="42.92394" lon="0.84825">
        <ele>1349</ele>
        <time>2018-12-02T09:30:55.000Z</time>
      </trkpt>
      <trkpt lat="42.92394" lon="0.84828">
        <ele>1348</ele>
        <time>2018-12-02T09:30:57.000Z</time>
      </trkpt>
      <trkpt lat="42.92395" lon="0.8483">
        <ele>1348</ele>
        <time>2018-12-02T09:30:59.000Z</time>
      </trkpt>
      <trkpt lat="42.92395" lon="0.84833">
        <ele>1348</ele>
        <time>2018-12-02T09:31:01.000Z</time>
      </trkpt>
      <trkpt lat="42.92396" lon="0.84836">
        <ele>1348</ele>
        <time>2018-12-02T09:31:03.000Z</time>
      </trkpt>
      <trkpt lat="42.92396" lon="0.84839">
        <ele>1348</ele>
        <time>2018-12-02T09:31:05.000Z</time>
      </trkpt>
      <trkpt lat="42.92396" lon="0.84842">
        <ele>1348</ele>
        <time>2018-12-02T09:31:07.000Z</time>
      </trkpt>
      <trkpt lat="42.92397" lon="0.84844">
        <ele>1348</ele>
        <time>2018-12-02T09:31:09.000Z</time>
      </trkpt>
      <trkpt lat="42.92398" lon="0.84847">
        <ele>1348</ele>
        <time>2018-12-02T09:31:11.000Z</time>
      </trkpt>
      <trkpt lat="42.92398" lon="0.8485">
        <ele>1347</ele>
        <time>2018-12-02T09:31:13.000Z</time>
      </trkpt>
      <trkpt lat="42.92398" lon="0.84853">
        <ele>1347</ele>
        <time>2018-12-02T09:31:15.000Z</time>
      </trkpt>
      <trkpt lat="42.92399" lon="0.84855">
        <ele>1347</ele>
        <time>2018-12-02T09:31:17.000Z</time>
      </trkpt>
      <trkpt lat="42.924" lon="0.84858">
        <ele>1347</ele>
        <time>2018-12-02T09:31:19.000Z</time>
      </trkpt>
      <trkpt lat="42.924" lon="0.8486">
        <ele>1347</ele>
        <time>2018-12-02T09:31:21.000Z</time>
      </trkpt>
      <trkpt lat="42.92401" lon="0.84862">
        <ele>1347</ele>
        <time>2018-12-02T09:31:23.000Z</time>
      </trkpt>
      <trkpt lat="42.92402" lon="0.84864">
        <ele>1348</ele>
        <time>2018-12-02T09:31:25.000Z</time>
      </trkpt>
      <trkpt lat="42.92403" lon="0.84866">
        <ele>1348</ele>
        <time>2018-12-02T09:31:27.000Z</time>
      </trkpt>
      <trkpt lat="42.92405" lon="0.84869">
        <ele>1348</ele>
        <time>2018-12-02T09:31:29.000Z</time>
      </trkpt>
      <trkpt lat="42.92406" lon="0.84872">
        <ele>1348</ele>
        <time>2018-12-02T09:31:31.000Z</time>
      </trkpt>
      <trkpt lat="42.92406" lon="0.84874">
        <ele>1349</ele>
        <time>2018-12-02T09:31:33.000Z</time>
      </trkpt>
      <trkpt lat="42.92407" lon="0.84875">
        <ele>1349</ele>
        <time>2018-12-02T09:31:35.000Z</time>
      </trkpt>
      <trkpt lat="42.92408" lon="0.84877">
        <ele>1349</ele>
        <time>2018-12-02T09:31:37.000Z</time>
      </trkpt>
      <trkpt lat="42.92409" lon="0.84879">
        <ele>1349</ele>
        <time>2018-12-02T09:31:39.000Z</time>
      </trkpt>
      <trkpt lat="42.9241" lon="0.84881">
        <ele>1349</ele>
        <time>2018-12-02T09:31:41.000Z</time>
      </trkpt>
      <trkpt lat="42.92411" lon="0.84882">
        <ele>1350</ele>
        <time>2018-12-02T09:31:43.000Z</time>
      </trkpt>
      <trkpt lat="42.92411" lon="0.84884">
        <ele>1350</ele>
        <time>2018-12-02T09:31:45.000Z</time>
      </trkpt>
      <trkpt lat="42.92413" lon="0.84886">
        <ele>1350</ele>
        <time>2018-12-02T09:31:47.000Z</time>
      </trkpt>
      <trkpt lat="42.92414" lon="0.84887">
        <ele>1350</ele>
        <time>2018-12-02T09:31:49.000Z</time>
      </trkpt>
      <trkpt lat="42.92415" lon="0.84889">
        <ele>1351</ele>
        <time>2018-12-02T09:31:51.000Z</time>
      </trkpt>
      <trkpt lat="42.92416" lon="0.8489">
        <ele>1351</ele>
        <time>2018-12-02T09:31:53.000Z</time>
      </trkpt>
      <trkpt lat="42.92418" lon="0.84893">
        <ele>1351</ele>
        <time>2018-12-02T09:31:55.000Z</time>
      </trkpt>
      <trkpt lat="42.92419" lon="0.84894">
        <ele>1352</ele>
        <time>2018-12-02T09:31:57.000Z</time>
      </trkpt>
      <trkpt lat="42.92421" lon="0.84896">
        <ele>1352</ele>
        <time>2018-12-02T09:31:59.000Z</time>
      </trkpt>
      <trkpt lat="42.92422" lon="0.84897">
        <ele>1352</ele>
        <time>2018-12-02T09:32:01.000Z</time>
      </trkpt>
      <trkpt lat="42.92422" lon="0.84898">
        <ele>1352</ele>
        <time>2018-12-02T09:32:03.000Z</time>
      </trkpt>
      <trkpt lat="42.92423" lon="0.849">
        <ele>1352</ele>
        <time>2018-12-02T09:32:05.000Z</time>
      </trkpt>
      <trkpt lat="42.92424" lon="0.84901">
        <ele>1353</ele>
        <time>2018-12-02T09:32:07.000Z</time>
      </trkpt>
      <trkpt lat="42.92425" lon="0.84903">
        <ele>1352</ele>
        <time>2018-12-02T09:32:09.000Z</time>
      </trkpt>
      <trkpt lat="42.92426" lon="0.84904">
        <ele>1352</ele>
        <time>2018-12-02T09:32:11.000Z</time>
      </trkpt>
      <trkpt lat="42.92427" lon="0.84904">
        <ele>1352</ele>
        <time>2018-12-02T09:32:13.000Z</time>
      </trkpt>
      <trkpt lat="42.92429" lon="0.84904">
        <ele>1353</ele>
        <time>2018-12-02T09:32:15.000Z</time>
      </trkpt>
      <trkpt lat="42.92429" lon="0.84905">
        <ele>1353</ele>
        <time>2018-12-02T09:32:17.000Z</time>
      </trkpt>
      <trkpt lat="42.9243" lon="0.84905">
        <ele>1353</ele>
        <time>2018-12-02T09:32:19.000Z</time>
      </trkpt>
      <trkpt lat="42.92431" lon="0.84905">
        <ele>1353</ele>
        <time>2018-12-02T09:32:21.000Z</time>
      </trkpt>
      <trkpt lat="42.92431" lon="0.84903">
        <ele>1353</ele>
        <time>2018-12-02T09:32:23.000Z</time>
      </trkpt>
      <trkpt lat="42.92431" lon="0.84902">
        <ele>1353</ele>
        <time>2018-12-02T09:32:26.000Z</time>
      </trkpt>
      <trkpt lat="42.92431" lon="0.84901">
        <ele>1353</ele>
        <time>2018-12-02T09:32:28.000Z</time>
      </trkpt>
      <trkpt lat="42.92431" lon="0.84899">
        <ele>1354</ele>
        <time>2018-12-02T09:32:30.000Z</time>
      </trkpt>
      <trkpt lat="42.92431" lon="0.84897">
        <ele>1354</ele>
        <time>2018-12-02T09:32:33.000Z</time>
      </trkpt>
      <trkpt lat="42.92431" lon="0.84895">
        <ele>1354</ele>
        <time>2018-12-02T09:32:35.000Z</time>
      </trkpt>
      <trkpt lat="42.92431" lon="0.84893">
        <ele>1355</ele>
        <time>2018-12-02T09:32:37.000Z</time>
      </trkpt>
      <trkpt lat="42.92431" lon="0.84891">
        <ele>1355</ele>
        <time>2018-12-02T09:32:39.000Z</time>
      </trkpt>
      <trkpt lat="42.92431" lon="0.8489">
        <ele>1355</ele>
        <time>2018-12-02T09:32:41.000Z</time>
      </trkpt>
      <trkpt lat="42.92431" lon="0.84889">
        <ele>1356</ele>
        <time>2018-12-02T09:32:43.000Z</time>
      </trkpt>
      <trkpt lat="42.92431" lon="0.84888">
        <ele>1356</ele>
        <time>2018-12-02T09:32:45.000Z</time>
      </trkpt>
      <trkpt lat="42.92431" lon="0.84887">
        <ele>1356</ele>
        <time>2018-12-02T09:32:47.000Z</time>
      </trkpt>
      <trkpt lat="42.92432" lon="0.84886">
        <ele>1356</ele>
        <time>2018-12-02T09:32:49.000Z</time>
      </trkpt>
      <trkpt lat="42.92433" lon="0.84885">
        <ele>1356</ele>
        <time>2018-12-02T09:32:51.000Z</time>
      </trkpt>
      <trkpt lat="42.92433" lon="0.84883">
        <ele>1357</ele>
        <time>2018-12-02T09:32:53.000Z</time>
      </trkpt>
      <trkpt lat="42.92433" lon="0.84882">
        <ele>1357</ele>
        <time>2018-12-02T09:32:55.000Z</time>
      </trkpt>
      <trkpt lat="42.92433" lon="0.8488">
        <ele>1357</ele>
        <time>2018-12-02T09:32:57.000Z</time>
      </trkpt>
      <trkpt lat="42.92434" lon="0.84879">
        <ele>1357</ele>
        <time>2018-12-02T09:32:59.000Z</time>
      </trkpt>
      <trkpt lat="42.92434" lon="0.84878">
        <ele>1357</ele>
        <time>2018-12-02T09:33:01.000Z</time>
      </trkpt>
      <trkpt lat="42.92435" lon="0.84877">
        <ele>1358</ele>
        <time>2018-12-02T09:33:03.000Z</time>
      </trkpt>
      <trkpt lat="42.92435" lon="0.84876">
        <ele>1358</ele>
        <time>2018-12-02T09:33:05.000Z</time>
      </trkpt>
      <trkpt lat="42.92436" lon="0.84875">
        <ele>1358</ele>
        <time>2018-12-02T09:33:07.000Z</time>
      </trkpt>
      <trkpt lat="42.92436" lon="0.84874">
        <ele>1358</ele>
        <time>2018-12-02T09:33:09.000Z</time>
      </trkpt>
      <trkpt lat="42.92436" lon="0.84872">
        <ele>1358</ele>
        <time>2018-12-02T09:33:11.000Z</time>
      </trkpt>
      <trkpt lat="42.92436" lon="0.84871">
        <ele>1359</ele>
        <time>2018-12-02T09:33:13.000Z</time>
      </trkpt>
      <trkpt lat="42.92437" lon="0.8487">
        <ele>1359</ele>
        <time>2018-12-02T09:33:15.000Z</time>
      </trkpt>
      <trkpt lat="42.92437" lon="0.84869">
        <ele>1359</ele>
        <time>2018-12-02T09:33:17.000Z</time>
      </trkpt>
      <trkpt lat="42.92437" lon="0.84868">
        <ele>1359</ele>
        <time>2018-12-02T09:33:19.000Z</time>
      </trkpt>
      <trkpt lat="42.92437" lon="0.84867">
        <ele>1359</ele>
        <time>2018-12-02T09:33:21.000Z</time>
      </trkpt>
      <trkpt lat="42.92437" lon="0.84866">
        <ele>1359</ele>
        <time>2018-12-02T09:33:23.000Z</time>
      </trkpt>
      <trkpt lat="42.92436" lon="0.84864">
        <ele>1359</ele>
        <time>2018-12-02T09:33:25.000Z</time>
      </trkpt>
      <trkpt lat="42.92437" lon="0.84863">
        <ele>1359</ele>
        <time>2018-12-02T09:33:27.000Z</time>
      </trkpt>
      <trkpt lat="42.92437" lon="0.84862">
        <ele>1360</ele>
        <time>2018-12-02T09:33:29.000Z</time>
      </trkpt>
      <trkpt lat="42.92437" lon="0.8486">
        <ele>1360</ele>
        <time>2018-12-02T09:33:31.000Z</time>
      </trkpt>
      <trkpt lat="42.92437" lon="0.84859">
        <ele>1360</ele>
        <time>2018-12-02T09:33:33.000Z</time>
      </trkpt>
      <trkpt lat="42.92438" lon="0.84858">
        <ele>1360</ele>
        <time>2018-12-02T09:33:35.000Z</time>
      </trkpt>
      <trkpt lat="42.92438" lon="0.84858">
        <ele>1360</ele>
        <time>2018-12-02T09:33:37.000Z</time>
      </trkpt>
      <trkpt lat="42.92439" lon="0.84857">
        <ele>1361</ele>
        <time>2018-12-02T09:33:39.000Z</time>
      </trkpt>
      <trkpt lat="42.92439" lon="0.84855">
        <ele>1361</ele>
        <time>2018-12-02T09:33:41.000Z</time>
      </trkpt>
      <trkpt lat="42.9244" lon="0.84854">
        <ele>1361</ele>
        <time>2018-12-02T09:33:43.000Z</time>
      </trkpt>
      <trkpt lat="42.9244" lon="0.84853">
        <ele>1361</ele>
        <time>2018-12-02T09:33:45.000Z</time>
      </trkpt>
      <trkpt lat="42.92439" lon="0.84852">
        <ele>1361</ele>
        <time>2018-12-02T09:33:47.000Z</time>
      </trkpt>
      <trkpt lat="42.9244" lon="0.8485">
        <ele>1361</ele>
        <time>2018-12-02T09:33:50.000Z</time>
      </trkpt>
      <trkpt lat="42.9244" lon="0.84849">
        <ele>1362</ele>
        <time>2018-12-02T09:33:52.000Z</time>
      </trkpt>
      <trkpt lat="42.9244" lon="0.84848">
        <ele>1362</ele>
        <time>2018-12-02T09:33:54.000Z</time>
      </trkpt>
      <trkpt lat="42.92441" lon="0.84847">
        <ele>1362</ele>
        <time>2018-12-02T09:33:56.000Z</time>
      </trkpt>
      <trkpt lat="42.92441" lon="0.84846">
        <ele>1362</ele>
        <time>2018-12-02T09:33:58.000Z</time>
      </trkpt>
      <trkpt lat="42.92441" lon="0.84845">
        <ele>1362</ele>
        <time>2018-12-02T09:34:00.000Z</time>
      </trkpt>
      <trkpt lat="42.92442" lon="0.84844">
        <ele>1363</ele>
        <time>2018-12-02T09:34:02.000Z</time>
      </trkpt>
      <trkpt lat="42.92443" lon="0.84842">
        <ele>1363</ele>
        <time>2018-12-02T09:34:04.000Z</time>
      </trkpt>
      <trkpt lat="42.92443" lon="0.84841">
        <ele>1363</ele>
        <time>2018-12-02T09:34:06.000Z</time>
      </trkpt>
      <trkpt lat="42.92444" lon="0.84839">
        <ele>1363</ele>
        <time>2018-12-02T09:34:08.000Z</time>
      </trkpt>
      <trkpt lat="42.92443" lon="0.84838">
        <ele>1363</ele>
        <time>2018-12-02T09:34:10.000Z</time>
      </trkpt>
      <trkpt lat="42.92444" lon="0.84837">
        <ele>1364</ele>
        <time>2018-12-02T09:34:12.000Z</time>
      </trkpt>
      <trkpt lat="42.92444" lon="0.84835">
        <ele>1364</ele>
        <time>2018-12-02T09:34:14.000Z</time>
      </trkpt>
      <trkpt lat="42.92443" lon="0.84833">
        <ele>1364</ele>
        <time>2018-12-02T09:34:16.000Z</time>
      </trkpt>
      <trkpt lat="42.92444" lon="0.84832">
        <ele>1364</ele>
        <time>2018-12-02T09:34:18.000Z</time>
      </trkpt>
      <trkpt lat="42.92444" lon="0.84831">
        <ele>1364</ele>
        <time>2018-12-02T09:34:20.000Z</time>
      </trkpt>
      <trkpt lat="42.92445" lon="0.84829">
        <ele>1364</ele>
        <time>2018-12-02T09:34:22.000Z</time>
      </trkpt>
      <trkpt lat="42.92445" lon="0.84828">
        <ele>1365</ele>
        <time>2018-12-02T09:34:24.000Z</time>
      </trkpt>
      <trkpt lat="42.92445" lon="0.84826">
        <ele>1365</ele>
        <time>2018-12-02T09:34:26.000Z</time>
      </trkpt>
      <trkpt lat="42.92446" lon="0.84825">
        <ele>1365</ele>
        <time>2018-12-02T09:34:28.000Z</time>
      </trkpt>
      <trkpt lat="42.92446" lon="0.84824">
        <ele>1366</ele>
        <time>2018-12-02T09:34:30.000Z</time>
      </trkpt>
      <trkpt lat="42.92447" lon="0.84822">
        <ele>1367</ele>
        <time>2018-12-02T09:34:32.000Z</time>
      </trkpt>
      <trkpt lat="42.92447" lon="0.8482">
        <ele>1367</ele>
        <time>2018-12-02T09:34:34.000Z</time>
      </trkpt>
      <trkpt lat="42.92448" lon="0.84819">
        <ele>1367</ele>
        <time>2018-12-02T09:34:36.000Z</time>
      </trkpt>
      <trkpt lat="42.92448" lon="0.84817">
        <ele>1368</ele>
        <time>2018-12-02T09:34:38.000Z</time>
      </trkpt>
      <trkpt lat="42.92448" lon="0.84816">
        <ele>1368</ele>
        <time>2018-12-02T09:34:40.000Z</time>
      </trkpt>
      <trkpt lat="42.92448" lon="0.84815">
        <ele>1368</ele>
        <time>2018-12-02T09:34:42.000Z</time>
      </trkpt>
      <trkpt lat="42.92447" lon="0.84813">
        <ele>1369</ele>
        <time>2018-12-02T09:34:44.000Z</time>
      </trkpt>
      <trkpt lat="42.92447" lon="0.84811">
        <ele>1369</ele>
        <time>2018-12-02T09:34:46.000Z</time>
      </trkpt>
      <trkpt lat="42.92447" lon="0.8481">
        <ele>1369</ele>
        <time>2018-12-02T09:34:48.000Z</time>
      </trkpt>
      <trkpt lat="42.92448" lon="0.84808">
        <ele>1370</ele>
        <time>2018-12-02T09:34:50.000Z</time>
      </trkpt>
      <trkpt lat="42.92448" lon="0.84807">
        <ele>1370</ele>
        <time>2018-12-02T09:34:52.000Z</time>
      </trkpt>
      <trkpt lat="42.92448" lon="0.84805">
        <ele>1370</ele>
        <time>2018-12-02T09:34:54.000Z</time>
      </trkpt>
      <trkpt lat="42.92447" lon="0.84803">
        <ele>1370</ele>
        <time>2018-12-02T09:34:56.000Z</time>
      </trkpt>
      <trkpt lat="42.92448" lon="0.84801">
        <ele>1370</ele>
        <time>2018-12-02T09:34:58.000Z</time>
      </trkpt>
      <trkpt lat="42.92448" lon="0.84799">
        <ele>1371</ele>
        <time>2018-12-02T09:35:00.000Z</time>
      </trkpt>
      <trkpt lat="42.92448" lon="0.84797">
        <ele>1371</ele>
        <time>2018-12-02T09:35:02.000Z</time>
      </trkpt>
      <trkpt lat="42.92448" lon="0.84795">
        <ele>1371</ele>
        <time>2018-12-02T09:35:04.000Z</time>
      </trkpt>
      <trkpt lat="42.92448" lon="0.84793">
        <ele>1371</ele>
        <time>2018-12-02T09:35:06.000Z</time>
      </trkpt>
      <trkpt lat="42.92448" lon="0.84792">
        <ele>1371</ele>
        <time>2018-12-02T09:35:08.000Z</time>
      </trkpt>
      <trkpt lat="42.92448" lon="0.84789">
        <ele>1371</ele>
        <time>2018-12-02T09:35:10.000Z</time>
      </trkpt>
      <trkpt lat="42.92447" lon="0.84787">
        <ele>1371</ele>
        <time>2018-12-02T09:35:12.000Z</time>
      </trkpt>
      <trkpt lat="42.92447" lon="0.84786">
        <ele>1371</ele>
        <time>2018-12-02T09:35:14.000Z</time>
      </trkpt>
      <trkpt lat="42.92447" lon="0.84784">
        <ele>1371</ele>
        <time>2018-12-02T09:35:16.000Z</time>
      </trkpt>
      <trkpt lat="42.92447" lon="0.84782">
        <ele>1371</ele>
        <time>2018-12-02T09:35:18.000Z</time>
      </trkpt>
      <trkpt lat="42.92447" lon="0.8478">
        <ele>1371</ele>
        <time>2018-12-02T09:35:20.000Z</time>
      </trkpt>
      <trkpt lat="42.92447" lon="0.8478">
        <ele>1371</ele>
        <time>2018-12-02T09:35:22.000Z</time>
      </trkpt>
      <trkpt lat="42.92447" lon="0.84779">
        <ele>1372</ele>
        <time>2018-12-02T09:35:25.000Z</time>
      </trkpt>
      <trkpt lat="42.92448" lon="0.84779">
        <ele>1372</ele>
        <time>2018-12-02T09:35:27.000Z</time>
      </trkpt>
      <trkpt lat="42.92447" lon="0.84778">
        <ele>1372</ele>
        <time>2018-12-02T09:35:29.000Z</time>
      </trkpt>
      <trkpt lat="42.92447" lon="0.84778">
        <ele>1372</ele>
        <time>2018-12-02T09:35:31.000Z</time>
      </trkpt>
      <trkpt lat="42.92447" lon="0.84777">
        <ele>1371</ele>
        <time>2018-12-02T09:35:34.000Z</time>
      </trkpt>
      <trkpt lat="42.92447" lon="0.84777">
        <ele>1371</ele>
        <time>2018-12-02T09:35:36.000Z</time>
      </trkpt>
      <trkpt lat="42.92447" lon="0.84777">
        <ele>1372</ele>
        <time>2018-12-02T09:35:38.000Z</time>
      </trkpt>
      <trkpt lat="42.92447" lon="0.84777">
        <ele>1371</ele>
        <time>2018-12-02T09:35:40.000Z</time>
      </trkpt>
      <trkpt lat="42.92447" lon="0.84777">
        <ele>1371</ele>
        <time>2018-12-02T09:35:42.000Z</time>
      </trkpt>
      <trkpt lat="42.92447" lon="0.84776">
        <ele>1372</ele>
        <time>2018-12-02T09:35:44.000Z</time>
      </trkpt>
      <trkpt lat="42.92447" lon="0.84775">
        <ele>1372</ele>
        <time>2018-12-02T09:35:46.000Z</time>
      </trkpt>
      <trkpt lat="42.92447" lon="0.84774">
        <ele>1372</ele>
        <time>2018-12-02T09:35:48.000Z</time>
      </trkpt>
      <trkpt lat="42.92447" lon="0.84774">
        <ele>1372</ele>
        <time>2018-12-02T09:35:50.000Z</time>
      </trkpt>
      <trkpt lat="42.92447" lon="0.84773">
        <ele>1372</ele>
        <time>2018-12-02T09:35:52.000Z</time>
      </trkpt>
      <trkpt lat="42.92447" lon="0.84773">
        <ele>1372</ele>
        <time>2018-12-02T09:35:54.000Z</time>
      </trkpt>
      <trkpt lat="42.92446" lon="0.84773">
        <ele>1371</ele>
        <time>2018-12-02T09:35:56.000Z</time>
      </trkpt>
      <trkpt lat="42.92445" lon="0.84773">
        <ele>1371</ele>
        <time>2018-12-02T09:35:58.000Z</time>
      </trkpt>
      <trkpt lat="42.92444" lon="0.84773">
        <ele>1371</ele>
        <time>2018-12-02T09:36:00.000Z</time>
      </trkpt>
      <trkpt lat="42.92443" lon="0.84773">
        <ele>1370</ele>
        <time>2018-12-02T09:36:02.000Z</time>
      </trkpt>
      <trkpt lat="42.92443" lon="0.84772">
        <ele>1370</ele>
        <time>2018-12-02T09:36:04.000Z</time>
      </trkpt>
      <trkpt lat="42.92443" lon="0.84772">
        <ele>1370</ele>
        <time>2018-12-02T09:36:06.000Z</time>
      </trkpt>
      <trkpt lat="42.92443" lon="0.84771">
        <ele>1370</ele>
        <time>2018-12-02T09:36:08.000Z</time>
      </trkpt>
      <trkpt lat="42.92444" lon="0.84771">
        <ele>1371</ele>
        <time>2018-12-02T09:36:10.000Z</time>
      </trkpt>
      <trkpt lat="42.92445" lon="0.8477">
        <ele>1371</ele>
        <time>2018-12-02T09:36:12.000Z</time>
      </trkpt>
      <trkpt lat="42.92446" lon="0.84769">
        <ele>1371</ele>
        <time>2018-12-02T09:36:14.000Z</time>
      </trkpt>
      <trkpt lat="42.92446" lon="0.84768">
        <ele>1372</ele>
        <time>2018-12-02T09:36:16.000Z</time>
      </trkpt>
      <trkpt lat="42.92446" lon="0.84767">
        <ele>1372</ele>
        <time>2018-12-02T09:36:18.000Z</time>
      </trkpt>
      <trkpt lat="42.92447" lon="0.84767">
        <ele>1372</ele>
        <time>2018-12-02T09:36:20.000Z</time>
      </trkpt>
      <trkpt lat="42.92447" lon="0.84767">
        <ele>1372</ele>
        <time>2018-12-02T09:36:22.000Z</time>
      </trkpt>
      <trkpt lat="42.92448" lon="0.84767">
        <ele>1372</ele>
        <time>2018-12-02T09:36:24.000Z</time>
      </trkpt>
      <trkpt lat="42.92449" lon="0.84767">
        <ele>1373</ele>
        <time>2018-12-02T09:36:26.000Z</time>
      </trkpt>
      <trkpt lat="42.92449" lon="0.84767">
        <ele>1373</ele>
        <time>2018-12-02T09:36:28.000Z</time>
      </trkpt>
      <trkpt lat="42.9245" lon="0.84766">
        <ele>1373</ele>
        <time>2018-12-02T09:36:30.000Z</time>
      </trkpt>
      <trkpt lat="42.92452" lon="0.84766">
        <ele>1374</ele>
        <time>2018-12-02T09:36:32.000Z</time>
      </trkpt>
      <trkpt lat="42.92454" lon="0.84766">
        <ele>1374</ele>
        <time>2018-12-02T09:36:34.000Z</time>
      </trkpt>
      <trkpt lat="42.92455" lon="0.84767">
        <ele>1375</ele>
        <time>2018-12-02T09:36:36.000Z</time>
      </trkpt>
      <trkpt lat="42.92456" lon="0.84767">
        <ele>1375</ele>
        <time>2018-12-02T09:36:38.000Z</time>
      </trkpt>
      <trkpt lat="42.92457" lon="0.84768">
        <ele>1375</ele>
        <time>2018-12-02T09:36:40.000Z</time>
      </trkpt>
      <trkpt lat="42.92456" lon="0.84769">
        <ele>1375</ele>
        <time>2018-12-02T09:36:42.000Z</time>
      </trkpt>
      <trkpt lat="42.92456" lon="0.84769">
        <ele>1375</ele>
        <time>2018-12-02T09:36:44.000Z</time>
      </trkpt>
      <trkpt lat="42.92456" lon="0.84769">
        <ele>1375</ele>
        <time>2018-12-02T09:36:46.000Z</time>
      </trkpt>
      <trkpt lat="42.92455" lon="0.84769">
        <ele>1375</ele>
        <time>2018-12-02T09:36:48.000Z</time>
      </trkpt>
      <trkpt lat="42.92454" lon="0.84769">
        <ele>1374</ele>
        <time>2018-12-02T09:36:50.000Z</time>
      </trkpt>
      <trkpt lat="42.92454" lon="0.84769">
        <ele>1374</ele>
        <time>2018-12-02T09:36:52.000Z</time>
      </trkpt>
      <trkpt lat="42.92454" lon="0.84769">
        <ele>1374</ele>
        <time>2018-12-02T09:36:54.000Z</time>
      </trkpt>
      <trkpt lat="42.92453" lon="0.84768">
        <ele>1374</ele>
        <time>2018-12-02T09:36:56.000Z</time>
      </trkpt>
      <trkpt lat="42.92453" lon="0.84768">
        <ele>1374</ele>
        <time>2018-12-02T09:36:58.000Z</time>
      </trkpt>
      <trkpt lat="42.92451" lon="0.84769">
        <ele>1373</ele>
        <time>2018-12-02T09:37:00.000Z</time>
      </trkpt>
      <trkpt lat="42.9245" lon="0.8477">
        <ele>1373</ele>
        <time>2018-12-02T09:37:02.000Z</time>
      </trkpt>
      <trkpt lat="42.92449" lon="0.84771">
        <ele>1372</ele>
        <time>2018-12-02T09:37:04.000Z</time>
      </trkpt>
      <trkpt lat="42.92449" lon="0.84771">
        <ele>1372</ele>
        <time>2018-12-02T09:37:06.000Z</time>
      </trkpt>
      <trkpt lat="42.92448" lon="0.84771">
        <ele>1372</ele>
        <time>2018-12-02T09:37:08.000Z</time>
      </trkpt>
      <trkpt lat="42.92448" lon="0.84771">
        <ele>1372</ele>
        <time>2018-12-02T09:37:10.000Z</time>
      </trkpt>
      <trkpt lat="42.92448" lon="0.84772">
        <ele>1372</ele>
        <time>2018-12-02T09:37:12.000Z</time>
      </trkpt>
      <trkpt lat="42.92447" lon="0.84773">
        <ele>1372</ele>
        <time>2018-12-02T09:37:14.000Z</time>
      </trkpt>
      <trkpt lat="42.92447" lon="0.84774">
        <ele>1372</ele>
        <time>2018-12-02T09:37:16.000Z</time>
      </trkpt>
      <trkpt lat="42.92446" lon="0.84774">
        <ele>1371</ele>
        <time>2018-12-02T09:37:18.000Z</time>
      </trkpt>
      <trkpt lat="42.92446" lon="0.84774">
        <ele>1371</ele>
        <time>2018-12-02T09:37:20.000Z</time>
      </trkpt>
      <trkpt lat="42.92445" lon="0.84774">
        <ele>1371</ele>
        <time>2018-12-02T09:37:22.000Z</time>
      </trkpt>
      <trkpt lat="42.92444" lon="0.84774">
        <ele>1371</ele>
        <time>2018-12-02T09:37:24.000Z</time>
      </trkpt>
      <trkpt lat="42.92444" lon="0.84774">
        <ele>1371</ele>
        <time>2018-12-02T09:37:26.000Z</time>
      </trkpt>
      <trkpt lat="42.92445" lon="0.84774">
        <ele>1371</ele>
        <time>2018-12-02T09:37:28.000Z</time>
      </trkpt>
      <trkpt lat="42.92446" lon="0.84774">
        <ele>1371</ele>
        <time>2018-12-02T09:37:30.000Z</time>
      </trkpt>
      <trkpt lat="42.92447" lon="0.84774">
        <ele>1372</ele>
        <time>2018-12-02T09:37:32.000Z</time>
      </trkpt>
      <trkpt lat="42.92448" lon="0.84774">
        <ele>1372</ele>
        <time>2018-12-02T09:37:34.000Z</time>
      </trkpt>
      <trkpt lat="42.92448" lon="0.84775">
        <ele>1372</ele>
        <time>2018-12-02T09:37:36.000Z</time>
      </trkpt>
      <trkpt lat="42.92448" lon="0.84775">
        <ele>1372</ele>
        <time>2018-12-02T09:37:38.000Z</time>
      </trkpt>
      <trkpt lat="42.92449" lon="0.84775">
        <ele>1372</ele>
        <time>2018-12-02T09:37:40.000Z</time>
      </trkpt>
      <trkpt lat="42.92449" lon="0.84775">
        <ele>1372</ele>
        <time>2018-12-02T09:37:42.000Z</time>
      </trkpt>
      <trkpt lat="42.92449" lon="0.84775">
        <ele>1372</ele>
        <time>2018-12-02T09:37:44.000Z</time>
      </trkpt>
      <trkpt lat="42.92449" lon="0.84774">
        <ele>1372</ele>
        <time>2018-12-02T09:37:46.000Z</time>
      </trkpt>
      <trkpt lat="42.9245" lon="0.84774">
        <ele>1372</ele>
        <time>2018-12-02T09:37:48.000Z</time>
      </trkpt>
      <trkpt lat="42.9245" lon="0.84773">
        <ele>1373</ele>
        <time>2018-12-02T09:37:50.000Z</time>
      </trkpt>
      <trkpt lat="42.92451" lon="0.84774">
        <ele>1373</ele>
        <time>2018-12-02T09:37:52.000Z</time>
      </trkpt>
      <trkpt lat="42.92451" lon="0.84773">
        <ele>1373</ele>
        <time>2018-12-02T09:37:54.000Z</time>
      </trkpt>
      <trkpt lat="42.92451" lon="0.84773">
        <ele>1373</ele>
        <time>2018-12-02T09:37:56.000Z</time>
      </trkpt>
      <trkpt lat="42.92451" lon="0.84774">
        <ele>1373</ele>
        <time>2018-12-02T09:37:58.000Z</time>
      </trkpt>
      <trkpt lat="42.92451" lon="0.84774">
        <ele>1373</ele>
        <time>2018-12-02T09:38:00.000Z</time>
      </trkpt>
      <trkpt lat="42.92451" lon="0.84774">
        <ele>1373</ele>
        <time>2018-12-02T09:38:02.000Z</time>
      </trkpt>
      <trkpt lat="42.92451" lon="0.84773">
        <ele>1373</ele>
        <time>2018-12-02T09:38:04.000Z</time>
      </trkpt>
      <trkpt lat="42.92451" lon="0.84772">
        <ele>1373</ele>
        <time>2018-12-02T09:38:06.000Z</time>
      </trkpt>
      <trkpt lat="42.92451" lon="0.84772">
        <ele>1373</ele>
        <time>2018-12-02T09:38:08.000Z</time>
      </trkpt>
      <trkpt lat="42.92451" lon="0.84772">
        <ele>1373</ele>
        <time>2018-12-02T09:38:10.000Z</time>
      </trkpt>
      <trkpt lat="42.92451" lon="0.84772">
        <ele>1373</ele>
        <time>2018-12-02T09:38:12.000Z</time>
      </trkpt>
      <trkpt lat="42.92451" lon="0.84772">
        <ele>1373</ele>
        <time>2018-12-02T09:38:14.000Z</time>
      </trkpt>
      <trkpt lat="42.92452" lon="0.84772">
        <ele>1373</ele>
        <time>2018-12-02T09:38:16.000Z</time>
      </trkpt>
      <trkpt lat="42.92452" lon="0.84772">
        <ele>1374</ele>
        <time>2018-12-02T09:38:18.000Z</time>
      </trkpt>
      <trkpt lat="42.92453" lon="0.84771">
        <ele>1374</ele>
        <time>2018-12-02T09:38:20.000Z</time>
      </trkpt>
      <trkpt lat="42.92453" lon="0.84771">
        <ele>1374</ele>
        <time>2018-12-02T09:38:22.000Z</time>
      </trkpt>
      <trkpt lat="42.92453" lon="0.8477">
        <ele>1374</ele>
        <time>2018-12-02T09:38:24.000Z</time>
      </trkpt>
      <trkpt lat="42.92453" lon="0.8477">
        <ele>1374</ele>
        <time>2018-12-02T09:38:26.000Z</time>
      </trkpt>
      <trkpt lat="42.92454" lon="0.8477">
        <ele>1374</ele>
        <time>2018-12-02T09:38:28.000Z</time>
      </trkpt>
      <trkpt lat="42.92454" lon="0.8477">
        <ele>1374</ele>
        <time>2018-12-02T09:38:30.000Z</time>
      </trkpt>
      <trkpt lat="42.92455" lon="0.84769">
        <ele>1374</ele>
        <time>2018-12-02T09:38:32.000Z</time>
      </trkpt>
      <trkpt lat="42.92455" lon="0.84768">
        <ele>1375</ele>
        <time>2018-12-02T09:38:34.000Z</time>
      </trkpt>
      <trkpt lat="42.92455" lon="0.84769">
        <ele>1375</ele>
        <time>2018-12-02T09:38:36.000Z</time>
      </trkpt>
      <trkpt lat="42.92456" lon="0.84768">
        <ele>1375</ele>
        <time>2018-12-02T09:38:38.000Z</time>
      </trkpt>
      <trkpt lat="42.92456" lon="0.84768">
        <ele>1375</ele>
        <time>2018-12-02T09:38:40.000Z</time>
      </trkpt>
      <trkpt lat="42.92456" lon="0.84769">
        <ele>1375</ele>
        <time>2018-12-02T09:38:42.000Z</time>
      </trkpt>
      <trkpt lat="42.92456" lon="0.84769">
        <ele>1375</ele>
        <time>2018-12-02T09:38:44.000Z</time>
      </trkpt>
      <trkpt lat="42.92456" lon="0.84769">
        <ele>1375</ele>
        <time>2018-12-02T09:38:46.000Z</time>
      </trkpt>
      <trkpt lat="42.92457" lon="0.8477">
        <ele>1375</ele>
        <time>2018-12-02T09:38:48.000Z</time>
      </trkpt>
      <trkpt lat="42.92457" lon="0.8477">
        <ele>1375</ele>
        <time>2018-12-02T09:38:50.000Z</time>
      </trkpt>
      <trkpt lat="42.92458" lon="0.8477">
        <ele>1376</ele>
        <time>2018-12-02T09:38:52.000Z</time>
      </trkpt>
      <trkpt lat="42.92458" lon="0.8477">
        <ele>1376</ele>
        <time>2018-12-02T09:38:54.000Z</time>
      </trkpt>
      <trkpt lat="42.92459" lon="0.8477">
        <ele>1376</ele>
        <time>2018-12-02T09:38:56.000Z</time>
      </trkpt>
      <trkpt lat="42.9246" lon="0.8477">
        <ele>1376</ele>
        <time>2018-12-02T09:38:58.000Z</time>
      </trkpt>
      <trkpt lat="42.9246" lon="0.84769">
        <ele>1376</ele>
        <time>2018-12-02T09:39:00.000Z</time>
      </trkpt>
      <trkpt lat="42.9246" lon="0.8477">
        <ele>1376</ele>
        <time>2018-12-02T09:39:02.000Z</time>
      </trkpt>
      <trkpt lat="42.92461" lon="0.84769">
        <ele>1377</ele>
        <time>2018-12-02T09:39:04.000Z</time>
      </trkpt>
      <trkpt lat="42.92461" lon="0.84769">
        <ele>1377</ele>
        <time>2018-12-02T09:39:06.000Z</time>
      </trkpt>
      <trkpt lat="42.92462" lon="0.8477">
        <ele>1377</ele>
        <time>2018-12-02T09:39:08.000Z</time>
      </trkpt>
      <trkpt lat="42.92462" lon="0.8477">
        <ele>1377</ele>
        <time>2018-12-02T09:39:10.000Z</time>
      </trkpt>
      <trkpt lat="42.92463" lon="0.84769">
        <ele>1377</ele>
        <time>2018-12-02T09:39:12.000Z</time>
      </trkpt>
      <trkpt lat="42.92463" lon="0.8477">
        <ele>1377</ele>
        <time>2018-12-02T09:39:14.000Z</time>
      </trkpt>
      <trkpt lat="42.92463" lon="0.8477">
        <ele>1377</ele>
        <time>2018-12-02T09:39:16.000Z</time>
      </trkpt>
      <trkpt lat="42.92464" lon="0.8477">
        <ele>1378</ele>
        <time>2018-12-02T09:39:18.000Z</time>
      </trkpt>
      <trkpt lat="42.92464" lon="0.8477">
        <ele>1378</ele>
        <time>2018-12-02T09:39:20.000Z</time>
      </trkpt>
      <trkpt lat="42.92464" lon="0.8477">
        <ele>1378</ele>
        <time>2018-12-02T09:39:22.000Z</time>
      </trkpt>
      <trkpt lat="42.92466" lon="0.84769">
        <ele>1378</ele>
        <time>2018-12-02T09:39:24.000Z</time>
      </trkpt>
      <trkpt lat="42.92466" lon="0.84769">
        <ele>1378</ele>
        <time>2018-12-02T09:39:26.000Z</time>
      </trkpt>
      <trkpt lat="42.92466" lon="0.84768">
        <ele>1379</ele>
        <time>2018-12-02T09:39:28.000Z</time>
      </trkpt>
      <trkpt lat="42.92466" lon="0.84766">
        <ele>1379</ele>
        <time>2018-12-02T09:39:30.000Z</time>
      </trkpt>
      <trkpt lat="42.92467" lon="0.84765">
        <ele>1379</ele>
        <time>2018-12-02T09:39:32.000Z</time>
      </trkpt>
      <trkpt lat="42.92467" lon="0.84764">
        <ele>1379</ele>
        <time>2018-12-02T09:39:34.000Z</time>
      </trkpt>
      <trkpt lat="42.92467" lon="0.84763">
        <ele>1379</ele>
        <time>2018-12-02T09:39:36.000Z</time>
      </trkpt>
      <trkpt lat="42.92467" lon="0.84761">
        <ele>1380</ele>
        <time>2018-12-02T09:39:38.000Z</time>
      </trkpt>
      <trkpt lat="42.92468" lon="0.84761">
        <ele>1380</ele>
        <time>2018-12-02T09:39:40.000Z</time>
      </trkpt>
      <trkpt lat="42.92468" lon="0.8476">
        <ele>1380</ele>
        <time>2018-12-02T09:39:42.000Z</time>
      </trkpt>
      <trkpt lat="42.92469" lon="0.8476">
        <ele>1380</ele>
        <time>2018-12-02T09:39:44.000Z</time>
      </trkpt>
      <trkpt lat="42.92468" lon="0.8476">
        <ele>1380</ele>
        <time>2018-12-02T09:39:46.000Z</time>
      </trkpt>
      <trkpt lat="42.92469" lon="0.84759">
        <ele>1381</ele>
        <time>2018-12-02T09:39:48.000Z</time>
      </trkpt>
      <trkpt lat="42.9247" lon="0.84758">
        <ele>1381</ele>
        <time>2018-12-02T09:39:50.000Z</time>
      </trkpt>
      <trkpt lat="42.92471" lon="0.84758">
        <ele>1382</ele>
        <time>2018-12-02T09:39:52.000Z</time>
      </trkpt>
      <trkpt lat="42.92472" lon="0.84758">
        <ele>1382</ele>
        <time>2018-12-02T09:39:54.000Z</time>
      </trkpt>
      <trkpt lat="42.92473" lon="0.84758">
        <ele>1383</ele>
        <time>2018-12-02T09:39:56.000Z</time>
      </trkpt>
      <trkpt lat="42.92473" lon="0.84757">
        <ele>1383</ele>
        <time>2018-12-02T09:39:58.000Z</time>
      </trkpt>
      <trkpt lat="42.92473" lon="0.84757">
        <ele>1383</ele>
        <time>2018-12-02T09:40:00.000Z</time>
      </trkpt>
      <trkpt lat="42.92474" lon="0.84757">
        <ele>1383</ele>
        <time>2018-12-02T09:40:02.000Z</time>
      </trkpt>
      <trkpt lat="42.92473" lon="0.84757">
        <ele>1383</ele>
        <time>2018-12-02T09:40:04.000Z</time>
      </trkpt>
      <trkpt lat="42.92473" lon="0.84757">
        <ele>1383</ele>
        <time>2018-12-02T09:40:06.000Z</time>
      </trkpt>
      <trkpt lat="42.92473" lon="0.84757">
        <ele>1383</ele>
        <time>2018-12-02T09:40:08.000Z</time>
      </trkpt>
      <trkpt lat="42.92473" lon="0.84757">
        <ele>1383</ele>
        <time>2018-12-02T09:40:10.000Z</time>
      </trkpt>
      <trkpt lat="42.92473" lon="0.84757">
        <ele>1383</ele>
        <time>2018-12-02T09:40:12.000Z</time>
      </trkpt>
      <trkpt lat="42.92474" lon="0.84757">
        <ele>1383</ele>
        <time>2018-12-02T09:40:14.000Z</time>
      </trkpt>
      <trkpt lat="42.92474" lon="0.84757">
        <ele>1383</ele>
        <time>2018-12-02T09:40:16.000Z</time>
      </trkpt>
      <trkpt lat="42.92474" lon="0.84757">
        <ele>1383</ele>
        <time>2018-12-02T09:40:18.000Z</time>
      </trkpt>
      <trkpt lat="42.92475" lon="0.84757">
        <ele>1383</ele>
        <time>2018-12-02T09:40:20.000Z</time>
      </trkpt>
      <trkpt lat="42.92475" lon="0.84757">
        <ele>1384</ele>
        <time>2018-12-02T09:40:22.000Z</time>
      </trkpt>
      <trkpt lat="42.92476" lon="0.84757">
        <ele>1384</ele>
        <time>2018-12-02T09:40:24.000Z</time>
      </trkpt>
      <trkpt lat="42.92477" lon="0.84758">
        <ele>1384</ele>
        <time>2018-12-02T09:40:26.000Z</time>
      </trkpt>
      <trkpt lat="42.92477" lon="0.84758">
        <ele>1384</ele>
        <time>2018-12-02T09:40:28.000Z</time>
      </trkpt>
      <trkpt lat="42.92477" lon="0.84758">
        <ele>1384</ele>
        <time>2018-12-02T09:40:30.000Z</time>
      </trkpt>
      <trkpt lat="42.92477" lon="0.84757">
        <ele>1385</ele>
        <time>2018-12-02T09:40:32.000Z</time>
      </trkpt>
      <trkpt lat="42.92478" lon="0.84756">
        <ele>1385</ele>
        <time>2018-12-02T09:40:34.000Z</time>
      </trkpt>
      <trkpt lat="42.92479" lon="0.84755">
        <ele>1385</ele>
        <time>2018-12-02T09:40:36.000Z</time>
      </trkpt>
      <trkpt lat="42.9248" lon="0.84755">
        <ele>1386</ele>
        <time>2018-12-02T09:40:38.000Z</time>
      </trkpt>
      <trkpt lat="42.92481" lon="0.84754">
        <ele>1387</ele>
        <time>2018-12-02T09:40:40.000Z</time>
      </trkpt>
      <trkpt lat="42.92482" lon="0.84754">
        <ele>1387</ele>
        <time>2018-12-02T09:40:42.000Z</time>
      </trkpt>
      <trkpt lat="42.92483" lon="0.84753">
        <ele>1387</ele>
        <time>2018-12-02T09:40:44.000Z</time>
      </trkpt>
      <trkpt lat="42.92484" lon="0.84752">
        <ele>1388</ele>
        <time>2018-12-02T09:40:46.000Z</time>
      </trkpt>
      <trkpt lat="42.92484" lon="0.84752">
        <ele>1388</ele>
        <time>2018-12-02T09:40:48.000Z</time>
      </trkpt>
      <trkpt lat="42.92484" lon="0.84752">
        <ele>1388</ele>
        <time>2018-12-02T09:40:50.000Z</time>
      </trkpt>
      <trkpt lat="42.92484" lon="0.8475">
        <ele>1388</ele>
        <time>2018-12-02T09:40:52.000Z</time>
      </trkpt>
      <trkpt lat="42.92485" lon="0.8475">
        <ele>1389</ele>
        <time>2018-12-02T09:40:54.000Z</time>
      </trkpt>
      <trkpt lat="42.92486" lon="0.84751">
        <ele>1389</ele>
        <time>2018-12-02T09:40:56.000Z</time>
      </trkpt>
      <trkpt lat="42.92487" lon="0.84751">
        <ele>1389</ele>
        <time>2018-12-02T09:40:58.000Z</time>
      </trkpt>
      <trkpt lat="42.92488" lon="0.84752">
        <ele>1390</ele>
        <time>2018-12-02T09:41:00.000Z</time>
      </trkpt>
      <trkpt lat="42.92489" lon="0.84752">
        <ele>1390</ele>
        <time>2018-12-02T09:41:02.000Z</time>
      </trkpt>
      <trkpt lat="42.92489" lon="0.84752">
        <ele>1391</ele>
        <time>2018-12-02T09:41:04.000Z</time>
      </trkpt>
      <trkpt lat="42.92491" lon="0.8475">
        <ele>1392</ele>
        <time>2018-12-02T09:41:06.000Z</time>
      </trkpt>
      <trkpt lat="42.92493" lon="0.8475">
        <ele>1392</ele>
        <time>2018-12-02T09:41:08.000Z</time>
      </trkpt>
      <trkpt lat="42.92495" lon="0.8475">
        <ele>1393</ele>
        <time>2018-12-02T09:41:10.000Z</time>
      </trkpt>
      <trkpt lat="42.92496" lon="0.84749">
        <ele>1394</ele>
        <time>2018-12-02T09:41:12.000Z</time>
      </trkpt>
      <trkpt lat="42.92497" lon="0.84749">
        <ele>1394</ele>
        <time>2018-12-02T09:41:14.000Z</time>
      </trkpt>
      <trkpt lat="42.92497" lon="0.84749">
        <ele>1394</ele>
        <time>2018-12-02T09:41:16.000Z</time>
      </trkpt>
      <trkpt lat="42.92498" lon="0.8475">
        <ele>1395</ele>
        <time>2018-12-02T09:41:18.000Z</time>
      </trkpt>
      <trkpt lat="42.92499" lon="0.8475">
        <ele>1395</ele>
        <time>2018-12-02T09:41:20.000Z</time>
      </trkpt>
      <trkpt lat="42.925" lon="0.8475">
        <ele>1395</ele>
        <time>2018-12-02T09:41:22.000Z</time>
      </trkpt>
      <trkpt lat="42.92501" lon="0.8475">
        <ele>1396</ele>
        <time>2018-12-02T09:41:24.000Z</time>
      </trkpt>
      <trkpt lat="42.92501" lon="0.8475">
        <ele>1396</ele>
        <time>2018-12-02T09:41:26.000Z</time>
      </trkpt>
      <trkpt lat="42.92501" lon="0.84751">
        <ele>1395</ele>
        <time>2018-12-02T09:41:28.000Z</time>
      </trkpt>
      <trkpt lat="42.92501" lon="0.84751">
        <ele>1395</ele>
        <time>2018-12-02T09:41:30.000Z</time>
      </trkpt>
      <trkpt lat="42.92501" lon="0.84752">
        <ele>1395</ele>
        <time>2018-12-02T09:41:32.000Z</time>
      </trkpt>
      <trkpt lat="42.92501" lon="0.84752">
        <ele>1395</ele>
        <time>2018-12-02T09:41:34.000Z</time>
      </trkpt>
      <trkpt lat="42.92501" lon="0.84751">
        <ele>1395</ele>
        <time>2018-12-02T09:41:36.000Z</time>
      </trkpt>
      <trkpt lat="42.92501" lon="0.84751">
        <ele>1396</ele>
        <time>2018-12-02T09:41:38.000Z</time>
      </trkpt>
      <trkpt lat="42.92502" lon="0.84751">
        <ele>1396</ele>
        <time>2018-12-02T09:41:40.000Z</time>
      </trkpt>
      <trkpt lat="42.92503" lon="0.84751">
        <ele>1396</ele>
        <time>2018-12-02T09:41:42.000Z</time>
      </trkpt>
      <trkpt lat="42.92503" lon="0.84752">
        <ele>1397</ele>
        <time>2018-12-02T09:41:44.000Z</time>
      </trkpt>
      <trkpt lat="42.92505" lon="0.84752">
        <ele>1397</ele>
        <time>2018-12-02T09:41:46.000Z</time>
      </trkpt>
      <trkpt lat="42.92506" lon="0.84751">
        <ele>1398</ele>
        <time>2018-12-02T09:41:48.000Z</time>
      </trkpt>
      <trkpt lat="42.92506" lon="0.8475">
        <ele>1398</ele>
        <time>2018-12-02T09:41:50.000Z</time>
      </trkpt>
      <trkpt lat="42.92507" lon="0.84749">
        <ele>1398</ele>
        <time>2018-12-02T09:41:52.000Z</time>
      </trkpt>
      <trkpt lat="42.92508" lon="0.84749">
        <ele>1398</ele>
        <time>2018-12-02T09:41:54.000Z</time>
      </trkpt>
      <trkpt lat="42.92508" lon="0.84748">
        <ele>1398</ele>
        <time>2018-12-02T09:41:56.000Z</time>
      </trkpt>
      <trkpt lat="42.92509" lon="0.84747">
        <ele>1398</ele>
        <time>2018-12-02T09:41:58.000Z</time>
      </trkpt>
      <trkpt lat="42.92509" lon="0.84746">
        <ele>1398</ele>
        <time>2018-12-02T09:42:00.000Z</time>
      </trkpt>
      <trkpt lat="42.9251" lon="0.84746">
        <ele>1398</ele>
        <time>2018-12-02T09:42:02.000Z</time>
      </trkpt>
      <trkpt lat="42.9251" lon="0.84745">
        <ele>1399</ele>
        <time>2018-12-02T09:42:04.000Z</time>
      </trkpt>
      <trkpt lat="42.9251" lon="0.84744">
        <ele>1399</ele>
        <time>2018-12-02T09:42:06.000Z</time>
      </trkpt>
      <trkpt lat="42.92511" lon="0.84743">
        <ele>1399</ele>
        <time>2018-12-02T09:42:08.000Z</time>
      </trkpt>
      <trkpt lat="42.92511" lon="0.84743">
        <ele>1399</ele>
        <time>2018-12-02T09:42:10.000Z</time>
      </trkpt>
      <trkpt lat="42.92512" lon="0.84742">
        <ele>1399</ele>
        <time>2018-12-02T09:42:12.000Z</time>
      </trkpt>
      <trkpt lat="42.92513" lon="0.84741">
        <ele>1399</ele>
        <time>2018-12-02T09:42:14.000Z</time>
      </trkpt>
      <trkpt lat="42.92514" lon="0.84739">
        <ele>1399</ele>
        <time>2018-12-02T09:42:17.000Z</time>
      </trkpt>
      <trkpt lat="42.92514" lon="0.84737">
        <ele>1399</ele>
        <time>2018-12-02T09:42:19.000Z</time>
      </trkpt>
      <trkpt lat="42.92515" lon="0.84736">
        <ele>1399</ele>
        <time>2018-12-02T09:42:21.000Z</time>
      </trkpt>
      <trkpt lat="42.92515" lon="0.84734">
        <ele>1399</ele>
        <time>2018-12-02T09:42:23.000Z</time>
      </trkpt>
      <trkpt lat="42.92515" lon="0.84733">
        <ele>1399</ele>
        <time>2018-12-02T09:42:25.000Z</time>
      </trkpt>
      <trkpt lat="42.92516" lon="0.84733">
        <ele>1399</ele>
        <time>2018-12-02T09:42:27.000Z</time>
      </trkpt>
      <trkpt lat="42.92516" lon="0.84732">
        <ele>1399</ele>
        <time>2018-12-02T09:42:29.000Z</time>
      </trkpt>
      <trkpt lat="42.92516" lon="0.84731">
        <ele>1399</ele>
        <time>2018-12-02T09:42:32.000Z</time>
      </trkpt>
      <trkpt lat="42.92516" lon="0.8473">
        <ele>1400</ele>
        <time>2018-12-02T09:42:34.000Z</time>
      </trkpt>
      <trkpt lat="42.92516" lon="0.8473">
        <ele>1400</ele>
        <time>2018-12-02T09:42:36.000Z</time>
      </trkpt>
      <trkpt lat="42.92517" lon="0.84729">
        <ele>1400</ele>
        <time>2018-12-02T09:42:38.000Z</time>
      </trkpt>
      <trkpt lat="42.92517" lon="0.84727">
        <ele>1400</ele>
        <time>2018-12-02T09:42:40.000Z</time>
      </trkpt>
      <trkpt lat="42.92517" lon="0.84726">
        <ele>1401</ele>
        <time>2018-12-02T09:42:42.000Z</time>
      </trkpt>
      <trkpt lat="42.92518" lon="0.84725">
        <ele>1401</ele>
        <time>2018-12-02T09:42:44.000Z</time>
      </trkpt>
      <trkpt lat="42.92519" lon="0.84725">
        <ele>1401</ele>
        <time>2018-12-02T09:42:46.000Z</time>
      </trkpt>
      <trkpt lat="42.92519" lon="0.84723">
        <ele>1401</ele>
        <time>2018-12-02T09:42:48.000Z</time>
      </trkpt>
      <trkpt lat="42.92519" lon="0.84722">
        <ele>1402</ele>
        <time>2018-12-02T09:42:50.000Z</time>
      </trkpt>
      <trkpt lat="42.9252" lon="0.8472">
        <ele>1402</ele>
        <time>2018-12-02T09:42:52.000Z</time>
      </trkpt>
      <trkpt lat="42.92521" lon="0.84717">
        <ele>1402</ele>
        <time>2018-12-02T09:42:55.000Z</time>
      </trkpt>
      <trkpt lat="42.92521" lon="0.84715">
        <ele>1402</ele>
        <time>2018-12-02T09:42:57.000Z</time>
      </trkpt>
      <trkpt lat="42.92522" lon="0.84714">
        <ele>1403</ele>
        <time>2018-12-02T09:42:59.000Z</time>
      </trkpt>
      <trkpt lat="42.92522" lon="0.84713">
        <ele>1403</ele>
        <time>2018-12-02T09:43:01.000Z</time>
      </trkpt>
      <trkpt lat="42.92522" lon="0.84713">
        <ele>1403</ele>
        <time>2018-12-02T09:43:03.000Z</time>
      </trkpt>
      <trkpt lat="42.92522" lon="0.84712">
        <ele>1403</ele>
        <time>2018-12-02T09:43:05.000Z</time>
      </trkpt>
      <trkpt lat="42.92523" lon="0.84712">
        <ele>1403</ele>
        <time>2018-12-02T09:43:07.000Z</time>
      </trkpt>
      <trkpt lat="42.92524" lon="0.84712">
        <ele>1403</ele>
        <time>2018-12-02T09:43:09.000Z</time>
      </trkpt>
      <trkpt lat="42.92524" lon="0.84712">
        <ele>1403</ele>
        <time>2018-12-02T09:43:11.000Z</time>
      </trkpt>
      <trkpt lat="42.92525" lon="0.84712">
        <ele>1403</ele>
        <time>2018-12-02T09:43:13.000Z</time>
      </trkpt>
      <trkpt lat="42.92526" lon="0.84713">
        <ele>1402</ele>
        <time>2018-12-02T09:43:15.000Z</time>
      </trkpt>
      <trkpt lat="42.92527" lon="0.84713">
        <ele>1402</ele>
        <time>2018-12-02T09:43:17.000Z</time>
      </trkpt>
      <trkpt lat="42.92529" lon="0.84713">
        <ele>1402</ele>
        <time>2018-12-02T09:43:21.000Z</time>
      </trkpt>
      <trkpt lat="42.9253" lon="0.84713">
        <ele>1402</ele>
        <time>2018-12-02T09:43:23.000Z</time>
      </trkpt>
      <trkpt lat="42.92531" lon="0.84713">
        <ele>1402</ele>
        <time>2018-12-02T09:43:25.000Z</time>
      </trkpt>
      <trkpt lat="42.92531" lon="0.84713">
        <ele>1402</ele>
        <time>2018-12-02T09:43:27.000Z</time>
      </trkpt>
      <trkpt lat="42.92532" lon="0.84712">
        <ele>1402</ele>
        <time>2018-12-02T09:43:30.000Z</time>
      </trkpt>
      <trkpt lat="42.92533" lon="0.84712">
        <ele>1402</ele>
        <time>2018-12-02T09:43:33.000Z</time>
      </trkpt>
      <trkpt lat="42.92534" lon="0.84713">
        <ele>1402</ele>
        <time>2018-12-02T09:43:35.000Z</time>
      </trkpt>
      <trkpt lat="42.92534" lon="0.84714">
        <ele>1402</ele>
        <time>2018-12-02T09:43:37.000Z</time>
      </trkpt>
      <trkpt lat="42.92534" lon="0.84714">
        <ele>1402</ele>
        <time>2018-12-02T09:43:39.000Z</time>
      </trkpt>
      <trkpt lat="42.92535" lon="0.84714">
        <ele>1402</ele>
        <time>2018-12-02T09:43:42.000Z</time>
      </trkpt>
      <trkpt lat="42.92535" lon="0.84715">
        <ele>1402</ele>
        <time>2018-12-02T09:43:44.000Z</time>
      </trkpt>
      <trkpt lat="42.92536" lon="0.84715">
        <ele>1402</ele>
        <time>2018-12-02T09:43:46.000Z</time>
      </trkpt>
      <trkpt lat="42.92536" lon="0.84716">
        <ele>1402</ele>
        <time>2018-12-02T09:43:48.000Z</time>
      </trkpt>
      <trkpt lat="42.92536" lon="0.84715">
        <ele>1402</ele>
        <time>2018-12-02T09:43:50.000Z</time>
      </trkpt>
      <trkpt lat="42.92536" lon="0.84716">
        <ele>1402</ele>
        <time>2018-12-02T09:43:52.000Z</time>
      </trkpt>
      <trkpt lat="42.92536" lon="0.84716">
        <ele>1402</ele>
        <time>2018-12-02T09:43:54.000Z</time>
      </trkpt>
      <trkpt lat="42.92537" lon="0.84716">
        <ele>1402</ele>
        <time>2018-12-02T09:43:56.000Z</time>
      </trkpt>
      <trkpt lat="42.92537" lon="0.84717">
        <ele>1402</ele>
        <time>2018-12-02T09:43:58.000Z</time>
      </trkpt>
      <trkpt lat="42.92538" lon="0.84716">
        <ele>1402</ele>
        <time>2018-12-02T09:44:00.000Z</time>
      </trkpt>
      <trkpt lat="42.92538" lon="0.84716">
        <ele>1402</ele>
        <time>2018-12-02T09:44:02.000Z</time>
      </trkpt>
      <trkpt lat="42.92539" lon="0.84715">
        <ele>1402</ele>
        <time>2018-12-02T09:44:05.000Z</time>
      </trkpt>
      <trkpt lat="42.92538" lon="0.84714">
        <ele>1402</ele>
        <time>2018-12-02T09:44:07.000Z</time>
      </trkpt>
      <trkpt lat="42.92538" lon="0.84713">
        <ele>1402</ele>
        <time>2018-12-02T09:44:09.000Z</time>
      </trkpt>
      <trkpt lat="42.92539" lon="0.84713">
        <ele>1402</ele>
        <time>2018-12-02T09:44:12.000Z</time>
      </trkpt>
      <trkpt lat="42.92539" lon="0.84712">
        <ele>1402</ele>
        <time>2018-12-02T09:44:14.000Z</time>
      </trkpt>
      <trkpt lat="42.92539" lon="0.84711">
        <ele>1402</ele>
        <time>2018-12-02T09:44:16.000Z</time>
      </trkpt>
      <trkpt lat="42.92539" lon="0.84711">
        <ele>1402</ele>
        <time>2018-12-02T09:44:18.000Z</time>
      </trkpt>
      <trkpt lat="42.92541" lon="0.8471">
        <ele>1402</ele>
        <time>2018-12-02T09:44:21.000Z</time>
      </trkpt>
      <trkpt lat="42.92541" lon="0.84709">
        <ele>1402</ele>
        <time>2018-12-02T09:44:23.000Z</time>
      </trkpt>
      <trkpt lat="42.92541" lon="0.84709">
        <ele>1402</ele>
        <time>2018-12-02T09:44:25.000Z</time>
      </trkpt>
      <trkpt lat="42.92543" lon="0.84707">
        <ele>1403</ele>
        <time>2018-12-02T09:44:27.000Z</time>
      </trkpt>
      <trkpt lat="42.92543" lon="0.84706">
        <ele>1403</ele>
        <time>2018-12-02T09:44:29.000Z</time>
      </trkpt>
      <trkpt lat="42.92543" lon="0.84706">
        <ele>1403</ele>
        <time>2018-12-02T09:44:32.000Z</time>
      </trkpt>
      <trkpt lat="42.92543" lon="0.84706">
        <ele>1403</ele>
        <time>2018-12-02T09:44:34.000Z</time>
      </trkpt>
      <trkpt lat="42.92543" lon="0.84706">
        <ele>1403</ele>
        <time>2018-12-02T09:44:36.000Z</time>
      </trkpt>
      <trkpt lat="42.92543" lon="0.84706">
        <ele>1403</ele>
        <time>2018-12-02T09:44:38.000Z</time>
      </trkpt>
      <trkpt lat="42.92543" lon="0.84706">
        <ele>1403</ele>
        <time>2018-12-02T09:44:40.000Z</time>
      </trkpt>
      <trkpt lat="42.92543" lon="0.84706">
        <ele>1403</ele>
        <time>2018-12-02T09:44:42.000Z</time>
      </trkpt>
      <trkpt lat="42.92543" lon="0.84706">
        <ele>1403</ele>
        <time>2018-12-02T09:44:44.000Z</time>
      </trkpt>
      <trkpt lat="42.92543" lon="0.84706">
        <ele>1403</ele>
        <time>2018-12-02T09:44:46.000Z</time>
      </trkpt>
      <trkpt lat="42.92543" lon="0.84706">
        <ele>1403</ele>
        <time>2018-12-02T09:44:48.000Z</time>
      </trkpt>
      <trkpt lat="42.92542" lon="0.84707">
        <ele>1403</ele>
        <time>2018-12-02T09:44:50.000Z</time>
      </trkpt>
      <trkpt lat="42.92541" lon="0.84707">
        <ele>1403</ele>
        <time>2018-12-02T09:44:52.000Z</time>
      </trkpt>
      <trkpt lat="42.92541" lon="0.84707">
        <ele>1403</ele>
        <time>2018-12-02T09:44:54.000Z</time>
      </trkpt>
      <trkpt lat="42.92541" lon="0.84707">
        <ele>1403</ele>
        <time>2018-12-02T09:44:56.000Z</time>
      </trkpt>
      <trkpt lat="42.92541" lon="0.84706">
        <ele>1403</ele>
        <time>2018-12-02T09:44:58.000Z</time>
      </trkpt>
      <trkpt lat="42.9254" lon="0.84705">
        <ele>1403</ele>
        <time>2018-12-02T09:45:00.000Z</time>
      </trkpt>
      <trkpt lat="42.92541" lon="0.84703">
        <ele>1403</ele>
        <time>2018-12-02T09:45:02.000Z</time>
      </trkpt>
      <trkpt lat="42.92541" lon="0.84702">
        <ele>1403</ele>
        <time>2018-12-02T09:45:04.000Z</time>
      </trkpt>
      <trkpt lat="42.92542" lon="0.84701">
        <ele>1403</ele>
        <time>2018-12-02T09:45:06.000Z</time>
      </trkpt>
      <trkpt lat="42.92543" lon="0.84701">
        <ele>1403</ele>
        <time>2018-12-02T09:45:08.000Z</time>
      </trkpt>
      <trkpt lat="42.92543" lon="0.84701">
        <ele>1403</ele>
        <time>2018-12-02T09:45:10.000Z</time>
      </trkpt>
      <trkpt lat="42.92544" lon="0.847">
        <ele>1403</ele>
        <time>2018-12-02T09:45:12.000Z</time>
      </trkpt>
      <trkpt lat="42.92544" lon="0.847">
        <ele>1403</ele>
        <time>2018-12-02T09:45:14.000Z</time>
      </trkpt>
      <trkpt lat="42.92544" lon="0.847">
        <ele>1403</ele>
        <time>2018-12-02T09:45:16.000Z</time>
      </trkpt>
      <trkpt lat="42.92544" lon="0.84699">
        <ele>1403</ele>
        <time>2018-12-02T09:45:18.000Z</time>
      </trkpt>
      <trkpt lat="42.92545" lon="0.84699">
        <ele>1404</ele>
        <time>2018-12-02T09:45:20.000Z</time>
      </trkpt>
      <trkpt lat="42.92545" lon="0.84698">
        <ele>1404</ele>
        <time>2018-12-02T09:45:22.000Z</time>
      </trkpt>
      <trkpt lat="42.92545" lon="0.84696">
        <ele>1404</ele>
        <time>2018-12-02T09:45:24.000Z</time>
      </trkpt>
      <trkpt lat="42.92545" lon="0.84696">
        <ele>1404</ele>
        <time>2018-12-02T09:45:27.000Z</time>
      </trkpt>
      <trkpt lat="42.92545" lon="0.84695">
        <ele>1404</ele>
        <time>2018-12-02T09:45:29.000Z</time>
      </trkpt>
      <trkpt lat="42.92545" lon="0.84694">
        <ele>1404</ele>
        <time>2018-12-02T09:45:32.000Z</time>
      </trkpt>
      <trkpt lat="42.92545" lon="0.84692">
        <ele>1404</ele>
        <time>2018-12-02T09:45:34.000Z</time>
      </trkpt>
      <trkpt lat="42.92544" lon="0.84691">
        <ele>1404</ele>
        <time>2018-12-02T09:45:36.000Z</time>
      </trkpt>
      <trkpt lat="42.92544" lon="0.8469">
        <ele>1405</ele>
        <time>2018-12-02T09:45:38.000Z</time>
      </trkpt>
      <trkpt lat="42.92544" lon="0.84689">
        <ele>1405</ele>
        <time>2018-12-02T09:45:40.000Z</time>
      </trkpt>
      <trkpt lat="42.92544" lon="0.84688">
        <ele>1405</ele>
        <time>2018-12-02T09:45:43.000Z</time>
      </trkpt>
      <trkpt lat="42.92544" lon="0.84687">
        <ele>1405</ele>
        <time>2018-12-02T09:45:45.000Z</time>
      </trkpt>
      <trkpt lat="42.92544" lon="0.84686">
        <ele>1405</ele>
        <time>2018-12-02T09:45:47.000Z</time>
      </trkpt>
      <trkpt lat="42.92544" lon="0.84685">
        <ele>1405</ele>
        <time>2018-12-02T09:45:49.000Z</time>
      </trkpt>
      <trkpt lat="42.92544" lon="0.84684">
        <ele>1405</ele>
        <time>2018-12-02T09:45:51.000Z</time>
      </trkpt>
      <trkpt lat="42.92544" lon="0.84683">
        <ele>1405</ele>
        <time>2018-12-02T09:45:54.000Z</time>
      </trkpt>
      <trkpt lat="42.92545" lon="0.84682">
        <ele>1405</ele>
        <time>2018-12-02T09:45:56.000Z</time>
      </trkpt>
      <trkpt lat="42.92544" lon="0.84681">
        <ele>1406</ele>
        <time>2018-12-02T09:45:58.000Z</time>
      </trkpt>
      <trkpt lat="42.92544" lon="0.8468">
        <ele>1406</ele>
        <time>2018-12-02T09:46:00.000Z</time>
      </trkpt>
      <trkpt lat="42.92544" lon="0.84678">
        <ele>1406</ele>
        <time>2018-12-02T09:46:03.000Z</time>
      </trkpt>
      <trkpt lat="42.92545" lon="0.84677">
        <ele>1406</ele>
        <time>2018-12-02T09:46:06.000Z</time>
      </trkpt>
      <trkpt lat="42.92546" lon="0.84676">
        <ele>1406</ele>
        <time>2018-12-02T09:46:08.000Z</time>
      </trkpt>
      <trkpt lat="42.92547" lon="0.84677">
        <ele>1406</ele>
        <time>2018-12-02T09:46:10.000Z</time>
      </trkpt>
      <trkpt lat="42.92547" lon="0.84676">
        <ele>1407</ele>
        <time>2018-12-02T09:46:12.000Z</time>
      </trkpt>
      <trkpt lat="42.92547" lon="0.84675">
        <ele>1407</ele>
        <time>2018-12-02T09:46:15.000Z</time>
      </trkpt>
      <trkpt lat="42.92547" lon="0.84674">
        <ele>1407</ele>
        <time>2018-12-02T09:46:17.000Z</time>
      </trkpt>
      <trkpt lat="42.92547" lon="0.84674">
        <ele>1407</ele>
        <time>2018-12-02T09:46:19.000Z</time>
      </trkpt>
      <trkpt lat="42.92547" lon="0.84673">
        <ele>1407</ele>
        <time>2018-12-02T09:46:21.000Z</time>
      </trkpt>
      <trkpt lat="42.92547" lon="0.84672">
        <ele>1408</ele>
        <time>2018-12-02T09:46:23.000Z</time>
      </trkpt>
      <trkpt lat="42.92548" lon="0.84671">
        <ele>1408</ele>
        <time>2018-12-02T09:46:25.000Z</time>
      </trkpt>
      <trkpt lat="42.92548" lon="0.84671">
        <ele>1408</ele>
        <time>2018-12-02T09:46:27.000Z</time>
      </trkpt>
      <trkpt lat="42.92548" lon="0.84669">
        <ele>1408</ele>
        <time>2018-12-02T09:46:30.000Z</time>
      </trkpt>
      <trkpt lat="42.92548" lon="0.84668">
        <ele>1409</ele>
        <time>2018-12-02T09:46:32.000Z</time>
      </trkpt>
      <trkpt lat="42.92548" lon="0.84668">
        <ele>1409</ele>
        <time>2018-12-02T09:46:34.000Z</time>
      </trkpt>
      <trkpt lat="42.92548" lon="0.84666">
        <ele>1409</ele>
        <time>2018-12-02T09:46:36.000Z</time>
      </trkpt>
      <trkpt lat="42.92549" lon="0.84664">
        <ele>1410</ele>
        <time>2018-12-02T09:46:38.000Z</time>
      </trkpt>
      <trkpt lat="42.92549" lon="0.84663">
        <ele>1410</ele>
        <time>2018-12-02T09:46:40.000Z</time>
      </trkpt>
      <trkpt lat="42.9255" lon="0.84661">
        <ele>1411</ele>
        <time>2018-12-02T09:46:42.000Z</time>
      </trkpt>
      <trkpt lat="42.92551" lon="0.84658">
        <ele>1412</ele>
        <time>2018-12-02T09:46:46.000Z</time>
      </trkpt>
      <trkpt lat="42.92551" lon="0.84657">
        <ele>1412</ele>
        <time>2018-12-02T09:46:48.000Z</time>
      </trkpt>
      <trkpt lat="42.92551" lon="0.84654">
        <ele>1413</ele>
        <time>2018-12-02T09:46:50.000Z</time>
      </trkpt>
      <trkpt lat="42.92551" lon="0.84653">
        <ele>1413</ele>
        <time>2018-12-02T09:46:52.000Z</time>
      </trkpt>
      <trkpt lat="42.92551" lon="0.84651">
        <ele>1414</ele>
        <time>2018-12-02T09:46:54.000Z</time>
      </trkpt>
      <trkpt lat="42.92551" lon="0.8465">
        <ele>1414</ele>
        <time>2018-12-02T09:46:56.000Z</time>
      </trkpt>
      <trkpt lat="42.9255" lon="0.84648">
        <ele>1414</ele>
        <time>2018-12-02T09:46:58.000Z</time>
      </trkpt>
      <trkpt lat="42.92549" lon="0.84647">
        <ele>1414</ele>
        <time>2018-12-02T09:47:00.000Z</time>
      </trkpt>
      <trkpt lat="42.92549" lon="0.84646">
        <ele>1415</ele>
        <time>2018-12-02T09:47:02.000Z</time>
      </trkpt>
      <trkpt lat="42.92548" lon="0.84644">
        <ele>1415</ele>
        <time>2018-12-02T09:47:04.000Z</time>
      </trkpt>
      <trkpt lat="42.92547" lon="0.84642">
        <ele>1415</ele>
        <time>2018-12-02T09:47:07.000Z</time>
      </trkpt>
      <trkpt lat="42.92547" lon="0.8464">
        <ele>1416</ele>
        <time>2018-12-02T09:47:10.000Z</time>
      </trkpt>
      <trkpt lat="42.92546" lon="0.84638">
        <ele>1416</ele>
        <time>2018-12-02T09:47:12.000Z</time>
      </trkpt>
      <trkpt lat="42.92545" lon="0.84637">
        <ele>1416</ele>
        <time>2018-12-02T09:47:14.000Z</time>
      </trkpt>
      <trkpt lat="42.92545" lon="0.84636">
        <ele>1416</ele>
        <time>2018-12-02T09:47:16.000Z</time>
      </trkpt>
      <trkpt lat="42.92544" lon="0.84635">
        <ele>1417</ele>
        <time>2018-12-02T09:47:18.000Z</time>
      </trkpt>
      <trkpt lat="42.92543" lon="0.84634">
        <ele>1417</ele>
        <time>2018-12-02T09:47:20.000Z</time>
      </trkpt>
      <trkpt lat="42.92543" lon="0.84632">
        <ele>1417</ele>
        <time>2018-12-02T09:47:22.000Z</time>
      </trkpt>
      <trkpt lat="42.92542" lon="0.84631">
        <ele>1417</ele>
        <time>2018-12-02T09:47:24.000Z</time>
      </trkpt>
      <trkpt lat="42.92542" lon="0.84629">
        <ele>1417</ele>
        <time>2018-12-02T09:47:26.000Z</time>
      </trkpt>
      <trkpt lat="42.92542" lon="0.84628">
        <ele>1417</ele>
        <time>2018-12-02T09:47:28.000Z</time>
      </trkpt>
      <trkpt lat="42.92542" lon="0.84626">
        <ele>1417</ele>
        <time>2018-12-02T09:47:30.000Z</time>
      </trkpt>
      <trkpt lat="42.92542" lon="0.84624">
        <ele>1418</ele>
        <time>2018-12-02T09:47:32.000Z</time>
      </trkpt>
      <trkpt lat="42.92543" lon="0.84622">
        <ele>1418</ele>
        <time>2018-12-02T09:47:34.000Z</time>
      </trkpt>
      <trkpt lat="42.92542" lon="0.8462">
        <ele>1418</ele>
        <time>2018-12-02T09:47:36.000Z</time>
      </trkpt>
      <trkpt lat="42.92542" lon="0.84618">
        <ele>1419</ele>
        <time>2018-12-02T09:47:38.000Z</time>
      </trkpt>
      <trkpt lat="42.92542" lon="0.84615">
        <ele>1419</ele>
        <time>2018-12-02T09:47:40.000Z</time>
      </trkpt>
      <trkpt lat="42.92542" lon="0.84613">
        <ele>1419</ele>
        <time>2018-12-02T09:47:42.000Z</time>
      </trkpt>
      <trkpt lat="42.92541" lon="0.84611">
        <ele>1419</ele>
        <time>2018-12-02T09:47:44.000Z</time>
      </trkpt>
      <trkpt lat="42.92541" lon="0.84609">
        <ele>1420</ele>
        <time>2018-12-02T09:47:46.000Z</time>
      </trkpt>
      <trkpt lat="42.92541" lon="0.84607">
        <ele>1420</ele>
        <time>2018-12-02T09:47:48.000Z</time>
      </trkpt>
      <trkpt lat="42.92541" lon="0.84605">
        <ele>1420</ele>
        <time>2018-12-02T09:47:50.000Z</time>
      </trkpt>
      <trkpt lat="42.92541" lon="0.84603">
        <ele>1420</ele>
        <time>2018-12-02T09:47:52.000Z</time>
      </trkpt>
      <trkpt lat="42.92541" lon="0.84601">
        <ele>1421</ele>
        <time>2018-12-02T09:47:54.000Z</time>
      </trkpt>
      <trkpt lat="42.92541" lon="0.846">
        <ele>1421</ele>
        <time>2018-12-02T09:47:56.000Z</time>
      </trkpt>
      <trkpt lat="42.92542" lon="0.84598">
        <ele>1421</ele>
        <time>2018-12-02T09:47:58.000Z</time>
      </trkpt>
      <trkpt lat="42.92543" lon="0.84596">
        <ele>1422</ele>
        <time>2018-12-02T09:48:00.000Z</time>
      </trkpt>
      <trkpt lat="42.92544" lon="0.84594">
        <ele>1422</ele>
        <time>2018-12-02T09:48:02.000Z</time>
      </trkpt>
      <trkpt lat="42.92544" lon="0.84591">
        <ele>1422</ele>
        <time>2018-12-02T09:48:04.000Z</time>
      </trkpt>
      <trkpt lat="42.92545" lon="0.84589">
        <ele>1423</ele>
        <time>2018-12-02T09:48:06.000Z</time>
      </trkpt>
      <trkpt lat="42.92546" lon="0.84587">
        <ele>1423</ele>
        <time>2018-12-02T09:48:08.000Z</time>
      </trkpt>
      <trkpt lat="42.92547" lon="0.84585">
        <ele>1423</ele>
        <time>2018-12-02T09:48:10.000Z</time>
      </trkpt>
      <trkpt lat="42.92547" lon="0.84583">
        <ele>1424</ele>
        <time>2018-12-02T09:48:12.000Z</time>
      </trkpt>
      <trkpt lat="42.92548" lon="0.8458">
        <ele>1424</ele>
        <time>2018-12-02T09:48:15.000Z</time>
      </trkpt>
      <trkpt lat="42.92549" lon="0.84578">
        <ele>1425</ele>
        <time>2018-12-02T09:48:17.000Z</time>
      </trkpt>
      <trkpt lat="42.9255" lon="0.84576">
        <ele>1425</ele>
        <time>2018-12-02T09:48:19.000Z</time>
      </trkpt>
      <trkpt lat="42.92551" lon="0.84574">
        <ele>1425</ele>
        <time>2018-12-02T09:48:21.000Z</time>
      </trkpt>
      <trkpt lat="42.92552" lon="0.84573">
        <ele>1426</ele>
        <time>2018-12-02T09:48:23.000Z</time>
      </trkpt>
      <trkpt lat="42.92553" lon="0.84572">
        <ele>1426</ele>
        <time>2018-12-02T09:48:26.000Z</time>
      </trkpt>
      <trkpt lat="42.92553" lon="0.8457">
        <ele>1426</ele>
        <time>2018-12-02T09:48:28.000Z</time>
      </trkpt>
      <trkpt lat="42.92553" lon="0.84569">
        <ele>1426</ele>
        <time>2018-12-02T09:48:30.000Z</time>
      </trkpt>
      <trkpt lat="42.92554" lon="0.84566">
        <ele>1427</ele>
        <time>2018-12-02T09:48:32.000Z</time>
      </trkpt>
      <trkpt lat="42.92555" lon="0.84564">
        <ele>1427</ele>
        <time>2018-12-02T09:48:34.000Z</time>
      </trkpt>
      <trkpt lat="42.92555" lon="0.84562">
        <ele>1427</ele>
        <time>2018-12-02T09:48:36.000Z</time>
      </trkpt>
      <trkpt lat="42.92555" lon="0.8456">
        <ele>1428</ele>
        <time>2018-12-02T09:48:38.000Z</time>
      </trkpt>
      <trkpt lat="42.92556" lon="0.84558">
        <ele>1428</ele>
        <time>2018-12-02T09:48:40.000Z</time>
      </trkpt>
      <trkpt lat="42.92556" lon="0.84555">
        <ele>1428</ele>
        <time>2018-12-02T09:48:42.000Z</time>
      </trkpt>
      <trkpt lat="42.92557" lon="0.84553">
        <ele>1429</ele>
        <time>2018-12-02T09:48:44.000Z</time>
      </trkpt>
      <trkpt lat="42.92558" lon="0.84551">
        <ele>1429</ele>
        <time>2018-12-02T09:48:46.000Z</time>
      </trkpt>
      <trkpt lat="42.92558" lon="0.84549">
        <ele>1429</ele>
        <time>2018-12-02T09:48:48.000Z</time>
      </trkpt>
      <trkpt lat="42.92558" lon="0.84547">
        <ele>1429</ele>
        <time>2018-12-02T09:48:50.000Z</time>
      </trkpt>
      <trkpt lat="42.92558" lon="0.84544">
        <ele>1429</ele>
        <time>2018-12-02T09:48:53.000Z</time>
      </trkpt>
      <trkpt lat="42.92559" lon="0.84541">
        <ele>1429</ele>
        <time>2018-12-02T09:48:56.000Z</time>
      </trkpt>
      <trkpt lat="42.92559" lon="0.8454">
        <ele>1430</ele>
        <time>2018-12-02T09:48:58.000Z</time>
      </trkpt>
      <trkpt lat="42.92559" lon="0.84537">
        <ele>1430</ele>
        <time>2018-12-02T09:49:01.000Z</time>
      </trkpt>
      <trkpt lat="42.9256" lon="0.84534">
        <ele>1430</ele>
        <time>2018-12-02T09:49:03.000Z</time>
      </trkpt>
      <trkpt lat="42.92561" lon="0.84531">
        <ele>1430</ele>
        <time>2018-12-02T09:49:06.000Z</time>
      </trkpt>
      <trkpt lat="42.92561" lon="0.84529">
        <ele>1430</ele>
        <time>2018-12-02T09:49:08.000Z</time>
      </trkpt>
      <trkpt lat="42.92561" lon="0.84527">
        <ele>1431</ele>
        <time>2018-12-02T09:49:10.000Z</time>
      </trkpt>
      <trkpt lat="42.92562" lon="0.84526">
        <ele>1431</ele>
        <time>2018-12-02T09:49:12.000Z</time>
      </trkpt>
      <trkpt lat="42.92561" lon="0.84525">
        <ele>1431</ele>
        <time>2018-12-02T09:49:14.000Z</time>
      </trkpt>
      <trkpt lat="42.92561" lon="0.84523">
        <ele>1431</ele>
        <time>2018-12-02T09:49:17.000Z</time>
      </trkpt>
      <trkpt lat="42.92561" lon="0.84523">
        <ele>1431</ele>
        <time>2018-12-02T09:49:19.000Z</time>
      </trkpt>
      <trkpt lat="42.92561" lon="0.84521">
        <ele>1431</ele>
        <time>2018-12-02T09:49:21.000Z</time>
      </trkpt>
      <trkpt lat="42.92561" lon="0.84519">
        <ele>1431</ele>
        <time>2018-12-02T09:49:23.000Z</time>
      </trkpt>
      <trkpt lat="42.92561" lon="0.84515">
        <ele>1431</ele>
        <time>2018-12-02T09:49:26.000Z</time>
      </trkpt>
      <trkpt lat="42.92561" lon="0.84513">
        <ele>1431</ele>
        <time>2018-12-02T09:49:28.000Z</time>
      </trkpt>
      <trkpt lat="42.92561" lon="0.84511">
        <ele>1431</ele>
        <time>2018-12-02T09:49:30.000Z</time>
      </trkpt>
      <trkpt lat="42.92561" lon="0.84508">
        <ele>1432</ele>
        <time>2018-12-02T09:49:33.000Z</time>
      </trkpt>
      <trkpt lat="42.92561" lon="0.84506">
        <ele>1432</ele>
        <time>2018-12-02T09:49:35.000Z</time>
      </trkpt>
      <trkpt lat="42.9256" lon="0.84504">
        <ele>1432</ele>
        <time>2018-12-02T09:49:37.000Z</time>
      </trkpt>
      <trkpt lat="42.9256" lon="0.84503">
        <ele>1432</ele>
        <time>2018-12-02T09:49:39.000Z</time>
      </trkpt>
      <trkpt lat="42.92559" lon="0.84501">
        <ele>1432</ele>
        <time>2018-12-02T09:49:41.000Z</time>
      </trkpt>
      <trkpt lat="42.92559" lon="0.845">
        <ele>1432</ele>
        <time>2018-12-02T09:49:43.000Z</time>
      </trkpt>
      <trkpt lat="42.92558" lon="0.84499">
        <ele>1432</ele>
        <time>2018-12-02T09:49:45.000Z</time>
      </trkpt>
      <trkpt lat="42.92558" lon="0.84497">
        <ele>1432</ele>
        <time>2018-12-02T09:49:47.000Z</time>
      </trkpt>
      <trkpt lat="42.92557" lon="0.84496">
        <ele>1432</ele>
        <time>2018-12-02T09:49:49.000Z</time>
      </trkpt>
      <trkpt lat="42.92557" lon="0.84495">
        <ele>1432</ele>
        <time>2018-12-02T09:49:51.000Z</time>
      </trkpt>
      <trkpt lat="42.92557" lon="0.84494">
        <ele>1432</ele>
        <time>2018-12-02T09:49:53.000Z</time>
      </trkpt>
      <trkpt lat="42.92556" lon="0.84493">
        <ele>1432</ele>
        <time>2018-12-02T09:49:56.000Z</time>
      </trkpt>
      <trkpt lat="42.92556" lon="0.84492">
        <ele>1432</ele>
        <time>2018-12-02T09:49:58.000Z</time>
      </trkpt>
      <trkpt lat="42.92556" lon="0.8449">
        <ele>1432</ele>
        <time>2018-12-02T09:50:00.000Z</time>
      </trkpt>
      <trkpt lat="42.92556" lon="0.84488">
        <ele>1432</ele>
        <time>2018-12-02T09:50:02.000Z</time>
      </trkpt>
      <trkpt lat="42.92556" lon="0.84488">
        <ele>1432</ele>
        <time>2018-12-02T09:50:04.000Z</time>
      </trkpt>
      <trkpt lat="42.92556" lon="0.84488">
        <ele>1432</ele>
        <time>2018-12-02T09:50:06.000Z</time>
      </trkpt>
      <trkpt lat="42.92556" lon="0.84488">
        <ele>1432</ele>
        <time>2018-12-02T09:50:08.000Z</time>
      </trkpt>
      <trkpt lat="42.92556" lon="0.84488">
        <ele>1432</ele>
        <time>2018-12-02T09:50:10.000Z</time>
      </trkpt>
      <trkpt lat="42.92556" lon="0.84488">
        <ele>1432</ele>
        <time>2018-12-02T09:50:12.000Z</time>
      </trkpt>
      <trkpt lat="42.92556" lon="0.84488">
        <ele>1432</ele>
        <time>2018-12-02T09:50:14.000Z</time>
      </trkpt>
      <trkpt lat="42.92556" lon="0.84486">
        <ele>1432</ele>
        <time>2018-12-02T09:50:16.000Z</time>
      </trkpt>
      <trkpt lat="42.92557" lon="0.84484">
        <ele>1433</ele>
        <time>2018-12-02T09:50:18.000Z</time>
      </trkpt>
      <trkpt lat="42.92557" lon="0.84483">
        <ele>1433</ele>
        <time>2018-12-02T09:50:20.000Z</time>
      </trkpt>
      <trkpt lat="42.92557" lon="0.84483">
        <ele>1433</ele>
        <time>2018-12-02T09:50:22.000Z</time>
      </trkpt>
      <trkpt lat="42.92558" lon="0.84482">
        <ele>1433</ele>
        <time>2018-12-02T09:50:24.000Z</time>
      </trkpt>
      <trkpt lat="42.92558" lon="0.8448">
        <ele>1433</ele>
        <time>2018-12-02T09:50:26.000Z</time>
      </trkpt>
      <trkpt lat="42.92558" lon="0.84478">
        <ele>1433</ele>
        <time>2018-12-02T09:50:28.000Z</time>
      </trkpt>
      <trkpt lat="42.92559" lon="0.84476">
        <ele>1433</ele>
        <time>2018-12-02T09:50:30.000Z</time>
      </trkpt>
      <trkpt lat="42.92559" lon="0.84474">
        <ele>1433</ele>
        <time>2018-12-02T09:50:32.000Z</time>
      </trkpt>
      <trkpt lat="42.92559" lon="0.84474">
        <ele>1434</ele>
        <time>2018-12-02T09:50:34.000Z</time>
      </trkpt>
      <trkpt lat="42.9256" lon="0.84473">
        <ele>1434</ele>
        <time>2018-12-02T09:50:36.000Z</time>
      </trkpt>
      <trkpt lat="42.92559" lon="0.84473">
        <ele>1434</ele>
        <time>2018-12-02T09:50:38.000Z</time>
      </trkpt>
      <trkpt lat="42.92558" lon="0.84471">
        <ele>1434</ele>
        <time>2018-12-02T09:50:40.000Z</time>
      </trkpt>
      <trkpt lat="42.92558" lon="0.84469">
        <ele>1434</ele>
        <time>2018-12-02T09:50:42.000Z</time>
      </trkpt>
      <trkpt lat="42.92557" lon="0.84467">
        <ele>1434</ele>
        <time>2018-12-02T09:50:44.000Z</time>
      </trkpt>
      <trkpt lat="42.92557" lon="0.84465">
        <ele>1434</ele>
        <time>2018-12-02T09:50:46.000Z</time>
      </trkpt>
      <trkpt lat="42.92556" lon="0.84462">
        <ele>1434</ele>
        <time>2018-12-02T09:50:48.000Z</time>
      </trkpt>
      <trkpt lat="42.92556" lon="0.8446">
        <ele>1435</ele>
        <time>2018-12-02T09:50:50.000Z</time>
      </trkpt>
      <trkpt lat="42.92556" lon="0.84458">
        <ele>1435</ele>
        <time>2018-12-02T09:50:52.000Z</time>
      </trkpt>
      <trkpt lat="42.92555" lon="0.84456">
        <ele>1435</ele>
        <time>2018-12-02T09:50:54.000Z</time>
      </trkpt>
      <trkpt lat="42.92555" lon="0.84453">
        <ele>1435</ele>
        <time>2018-12-02T09:50:56.000Z</time>
      </trkpt>
      <trkpt lat="42.92555" lon="0.84451">
        <ele>1435</ele>
        <time>2018-12-02T09:50:58.000Z</time>
      </trkpt>
      <trkpt lat="42.92556" lon="0.84448">
        <ele>1436</ele>
        <time>2018-12-02T09:51:01.000Z</time>
      </trkpt>
      <trkpt lat="42.92556" lon="0.84445">
        <ele>1436</ele>
        <time>2018-12-02T09:51:03.000Z</time>
      </trkpt>
      <trkpt lat="42.92556" lon="0.84443">
        <ele>1436</ele>
        <time>2018-12-02T09:51:05.000Z</time>
      </trkpt>
      <trkpt lat="42.92556" lon="0.8444">
        <ele>1436</ele>
        <time>2018-12-02T09:51:07.000Z</time>
      </trkpt>
      <trkpt lat="42.92557" lon="0.84437">
        <ele>1436</ele>
        <time>2018-12-02T09:51:10.000Z</time>
      </trkpt>
      <trkpt lat="42.92557" lon="0.84434">
        <ele>1436</ele>
        <time>2018-12-02T09:51:12.000Z</time>
      </trkpt>
      <trkpt lat="42.92557" lon="0.84432">
        <ele>1436</ele>
        <time>2018-12-02T09:51:14.000Z</time>
      </trkpt>
      <trkpt lat="42.92558" lon="0.8443">
        <ele>1436</ele>
        <time>2018-12-02T09:51:16.000Z</time>
      </trkpt>
      <trkpt lat="42.92558" lon="0.84428">
        <ele>1435</ele>
        <time>2018-12-02T09:51:18.000Z</time>
      </trkpt>
      <trkpt lat="42.92559" lon="0.84426">
        <ele>1435</ele>
        <time>2018-12-02T09:51:20.000Z</time>
      </trkpt>
      <trkpt lat="42.92559" lon="0.84424">
        <ele>1435</ele>
        <time>2018-12-02T09:51:22.000Z</time>
      </trkpt>
      <trkpt lat="42.92558" lon="0.84422">
        <ele>1435</ele>
        <time>2018-12-02T09:51:24.000Z</time>
      </trkpt>
      <trkpt lat="42.92559" lon="0.84421">
        <ele>1435</ele>
        <time>2018-12-02T09:51:26.000Z</time>
      </trkpt>
      <trkpt lat="42.92559" lon="0.84419">
        <ele>1434</ele>
        <time>2018-12-02T09:51:28.000Z</time>
      </trkpt>
      <trkpt lat="42.92559" lon="0.84416">
        <ele>1434</ele>
        <time>2018-12-02T09:51:30.000Z</time>
      </trkpt>
      <trkpt lat="42.92559" lon="0.84414">
        <ele>1434</ele>
        <time>2018-12-02T09:51:32.000Z</time>
      </trkpt>
      <trkpt lat="42.92559" lon="0.84412">
        <ele>1434</ele>
        <time>2018-12-02T09:51:34.000Z</time>
      </trkpt>
      <trkpt lat="42.92559" lon="0.8441">
        <ele>1434</ele>
        <time>2018-12-02T09:51:36.000Z</time>
      </trkpt>
      <trkpt lat="42.92558" lon="0.84408">
        <ele>1434</ele>
        <time>2018-12-02T09:51:38.000Z</time>
      </trkpt>
      <trkpt lat="42.92557" lon="0.84406">
        <ele>1433</ele>
        <time>2018-12-02T09:51:40.000Z</time>
      </trkpt>
      <trkpt lat="42.92557" lon="0.84405">
        <ele>1433</ele>
        <time>2018-12-02T09:51:42.000Z</time>
      </trkpt>
      <trkpt lat="42.92555" lon="0.84404">
        <ele>1433</ele>
        <time>2018-12-02T09:51:44.000Z</time>
      </trkpt>
      <trkpt lat="42.92553" lon="0.84403">
        <ele>1433</ele>
        <time>2018-12-02T09:51:46.000Z</time>
      </trkpt>
      <trkpt lat="42.92552" lon="0.84402">
        <ele>1433</ele>
        <time>2018-12-02T09:51:48.000Z</time>
      </trkpt>
      <trkpt lat="42.92551" lon="0.84401">
        <ele>1433</ele>
        <time>2018-12-02T09:51:50.000Z</time>
      </trkpt>
      <trkpt lat="42.92549" lon="0.84399">
        <ele>1433</ele>
        <time>2018-12-02T09:51:52.000Z</time>
      </trkpt>
      <trkpt lat="42.92549" lon="0.84398">
        <ele>1433</ele>
        <time>2018-12-02T09:51:54.000Z</time>
      </trkpt>
      <trkpt lat="42.92548" lon="0.84397">
        <ele>1433</ele>
        <time>2018-12-02T09:51:56.000Z</time>
      </trkpt>
      <trkpt lat="42.92546" lon="0.84394">
        <ele>1433</ele>
        <time>2018-12-02T09:51:59.000Z</time>
      </trkpt>
      <trkpt lat="42.92545" lon="0.84392">
        <ele>1433</ele>
        <time>2018-12-02T09:52:01.000Z</time>
      </trkpt>
      <trkpt lat="42.92545" lon="0.84391">
        <ele>1433</ele>
        <time>2018-12-02T09:52:03.000Z</time>
      </trkpt>
      <trkpt lat="42.92545" lon="0.84391">
        <ele>1433</ele>
        <time>2018-12-02T09:52:05.000Z</time>
      </trkpt>
      <trkpt lat="42.92545" lon="0.8439">
        <ele>1433</ele>
        <time>2018-12-02T09:52:07.000Z</time>
      </trkpt>
      <trkpt lat="42.92544" lon="0.84389">
        <ele>1433</ele>
        <time>2018-12-02T09:52:09.000Z</time>
      </trkpt>
      <trkpt lat="42.92543" lon="0.84389">
        <ele>1433</ele>
        <time>2018-12-02T09:52:11.000Z</time>
      </trkpt>
      <trkpt lat="42.92542" lon="0.84388">
        <ele>1433</ele>
        <time>2018-12-02T09:52:13.000Z</time>
      </trkpt>
      <trkpt lat="42.92541" lon="0.84386">
        <ele>1433</ele>
        <time>2018-12-02T09:52:15.000Z</time>
      </trkpt>
      <trkpt lat="42.9254" lon="0.84386">
        <ele>1434</ele>
        <time>2018-12-02T09:52:17.000Z</time>
      </trkpt>
      <trkpt lat="42.9254" lon="0.84385">
        <ele>1434</ele>
        <time>2018-12-02T09:52:19.000Z</time>
      </trkpt>
      <trkpt lat="42.9254" lon="0.84386">
        <ele>1434</ele>
        <time>2018-12-02T09:52:21.000Z</time>
      </trkpt>
      <trkpt lat="42.92541" lon="0.84386">
        <ele>1434</ele>
        <time>2018-12-02T09:52:24.000Z</time>
      </trkpt>
      <trkpt lat="42.92541" lon="0.84385">
        <ele>1434</ele>
        <time>2018-12-02T09:52:26.000Z</time>
      </trkpt>
      <trkpt lat="42.92541" lon="0.84385">
        <ele>1434</ele>
        <time>2018-12-02T09:52:28.000Z</time>
      </trkpt>
      <trkpt lat="42.92541" lon="0.84385">
        <ele>1434</ele>
        <time>2018-12-02T09:52:30.000Z</time>
      </trkpt>
      <trkpt lat="42.92541" lon="0.84385">
        <ele>1434</ele>
        <time>2018-12-02T09:52:33.000Z</time>
      </trkpt>
      <trkpt lat="42.92541" lon="0.84385">
        <ele>1433</ele>
        <time>2018-12-02T09:52:35.000Z</time>
      </trkpt>
      <trkpt lat="42.92541" lon="0.84386">
        <ele>1433</ele>
        <time>2018-12-02T09:52:37.000Z</time>
      </trkpt>
      <trkpt lat="42.92541" lon="0.84386">
        <ele>1433</ele>
        <time>2018-12-02T09:52:39.000Z</time>
      </trkpt>
      <trkpt lat="42.92541" lon="0.84387">
        <ele>1433</ele>
        <time>2018-12-02T09:52:41.000Z</time>
      </trkpt>
      <trkpt lat="42.92541" lon="0.84387">
        <ele>1433</ele>
        <time>2018-12-02T09:52:43.000Z</time>
      </trkpt>
      <trkpt lat="42.92541" lon="0.84388">
        <ele>1433</ele>
        <time>2018-12-02T09:52:45.000Z</time>
      </trkpt>
      <trkpt lat="42.92541" lon="0.84388">
        <ele>1433</ele>
        <time>2018-12-02T09:52:47.000Z</time>
      </trkpt>
      <trkpt lat="42.9254" lon="0.84388">
        <ele>1433</ele>
        <time>2018-12-02T09:52:49.000Z</time>
      </trkpt>
      <trkpt lat="42.92541" lon="0.84388">
        <ele>1433</ele>
        <time>2018-12-02T09:52:51.000Z</time>
      </trkpt>
      <trkpt lat="42.92541" lon="0.84388">
        <ele>1433</ele>
        <time>2018-12-02T09:52:53.000Z</time>
      </trkpt>
      <trkpt lat="42.92541" lon="0.84389">
        <ele>1433</ele>
        <time>2018-12-02T09:52:55.000Z</time>
      </trkpt>
      <trkpt lat="42.92541" lon="0.84391">
        <ele>1433</ele>
        <time>2018-12-02T09:52:57.000Z</time>
      </trkpt>
      <trkpt lat="42.92541" lon="0.84392">
        <ele>1433</ele>
        <time>2018-12-02T09:52:59.000Z</time>
      </trkpt>
      <trkpt lat="42.92541" lon="0.84392">
        <ele>1433</ele>
        <time>2018-12-02T09:53:01.000Z</time>
      </trkpt>
      <trkpt lat="42.92542" lon="0.84391">
        <ele>1433</ele>
        <time>2018-12-02T09:53:03.000Z</time>
      </trkpt>
      <trkpt lat="42.92543" lon="0.84392">
        <ele>1433</ele>
        <time>2018-12-02T09:53:05.000Z</time>
      </trkpt>
      <trkpt lat="42.92542" lon="0.8439">
        <ele>1433</ele>
        <time>2018-12-02T09:53:08.000Z</time>
      </trkpt>
      <trkpt lat="42.92542" lon="0.8439">
        <ele>1433</ele>
        <time>2018-12-02T09:53:10.000Z</time>
      </trkpt>
      <trkpt lat="42.92542" lon="0.8439">
        <ele>1433</ele>
        <time>2018-12-02T09:53:12.000Z</time>
      </trkpt>
      <trkpt lat="42.92542" lon="0.8439">
        <ele>1433</ele>
        <time>2018-12-02T09:53:14.000Z</time>
      </trkpt>
      <trkpt lat="42.92541" lon="0.84389">
        <ele>1433</ele>
        <time>2018-12-02T09:53:17.000Z</time>
      </trkpt>
      <trkpt lat="42.92542" lon="0.84388">
        <ele>1433</ele>
        <time>2018-12-02T09:53:19.000Z</time>
      </trkpt>
      <trkpt lat="42.92541" lon="0.84387">
        <ele>1433</ele>
        <time>2018-12-02T09:53:23.000Z</time>
      </trkpt>
      <trkpt lat="42.92541" lon="0.84387">
        <ele>1433</ele>
        <time>2018-12-02T09:53:25.000Z</time>
      </trkpt>
      <trkpt lat="42.9254" lon="0.84387">
        <ele>1433</ele>
        <time>2018-12-02T09:53:27.000Z</time>
      </trkpt>
      <trkpt lat="42.92539" lon="0.84386">
        <ele>1434</ele>
        <time>2018-12-02T09:53:29.000Z</time>
      </trkpt>
      <trkpt lat="42.92539" lon="0.84385">
        <ele>1434</ele>
        <time>2018-12-02T09:53:31.000Z</time>
      </trkpt>
      <trkpt lat="42.92538" lon="0.84384">
        <ele>1434</ele>
        <time>2018-12-02T09:53:33.000Z</time>
      </trkpt>
      <trkpt lat="42.92537" lon="0.84382">
        <ele>1434</ele>
        <time>2018-12-02T09:53:36.000Z</time>
      </trkpt>
      <trkpt lat="42.92535" lon="0.84379">
        <ele>1435</ele>
        <time>2018-12-02T09:53:39.000Z</time>
      </trkpt>
      <trkpt lat="42.92535" lon="0.84376">
        <ele>1435</ele>
        <time>2018-12-02T09:53:41.000Z</time>
      </trkpt>
      <trkpt lat="42.92535" lon="0.84375">
        <ele>1435</ele>
        <time>2018-12-02T09:53:43.000Z</time>
      </trkpt>
      <trkpt lat="42.92534" lon="0.84372">
        <ele>1435</ele>
        <time>2018-12-02T09:53:46.000Z</time>
      </trkpt>
      <trkpt lat="42.92533" lon="0.84371">
        <ele>1436</ele>
        <time>2018-12-02T09:53:48.000Z</time>
      </trkpt>
      <trkpt lat="42.92532" lon="0.84369">
        <ele>1436</ele>
        <time>2018-12-02T09:53:50.000Z</time>
      </trkpt>
      <trkpt lat="42.92531" lon="0.84367">
        <ele>1436</ele>
        <time>2018-12-02T09:53:53.000Z</time>
      </trkpt>
      <trkpt lat="42.92531" lon="0.84366">
        <ele>1436</ele>
        <time>2018-12-02T09:53:55.000Z</time>
      </trkpt>
      <trkpt lat="42.9253" lon="0.84365">
        <ele>1436</ele>
        <time>2018-12-02T09:53:57.000Z</time>
      </trkpt>
      <trkpt lat="42.92529" lon="0.84365">
        <ele>1437</ele>
        <time>2018-12-02T09:53:59.000Z</time>
      </trkpt>
      <trkpt lat="42.92528" lon="0.84364">
        <ele>1437</ele>
        <time>2018-12-02T09:54:01.000Z</time>
      </trkpt>
      <trkpt lat="42.92527" lon="0.84363">
        <ele>1437</ele>
        <time>2018-12-02T09:54:03.000Z</time>
      </trkpt>
      <trkpt lat="42.92526" lon="0.84362">
        <ele>1437</ele>
        <time>2018-12-02T09:54:05.000Z</time>
      </trkpt>
      <trkpt lat="42.92526" lon="0.84362">
        <ele>1437</ele>
        <time>2018-12-02T09:54:07.000Z</time>
      </trkpt>
      <trkpt lat="42.92525" lon="0.84361">
        <ele>1437</ele>
        <time>2018-12-02T09:54:09.000Z</time>
      </trkpt>
      <trkpt lat="42.92525" lon="0.8436">
        <ele>1437</ele>
        <time>2018-12-02T09:54:11.000Z</time>
      </trkpt>
      <trkpt lat="42.92525" lon="0.84358">
        <ele>1438</ele>
        <time>2018-12-02T09:54:14.000Z</time>
      </trkpt>
      <trkpt lat="42.92525" lon="0.84356">
        <ele>1438</ele>
        <time>2018-12-02T09:54:16.000Z</time>
      </trkpt>
      <trkpt lat="42.92525" lon="0.84354">
        <ele>1438</ele>
        <time>2018-12-02T09:54:18.000Z</time>
      </trkpt>
      <trkpt lat="42.92524" lon="0.84352">
        <ele>1438</ele>
        <time>2018-12-02T09:54:20.000Z</time>
      </trkpt>
      <trkpt lat="42.92524" lon="0.84351">
        <ele>1438</ele>
        <time>2018-12-02T09:54:22.000Z</time>
      </trkpt>
      <trkpt lat="42.92523" lon="0.84351">
        <ele>1438</ele>
        <time>2018-12-02T09:54:24.000Z</time>
      </trkpt>
      <trkpt lat="42.92523" lon="0.84351">
        <ele>1438</ele>
        <time>2018-12-02T09:54:26.000Z</time>
      </trkpt>
      <trkpt lat="42.92523" lon="0.84351">
        <ele>1438</ele>
        <time>2018-12-02T09:54:28.000Z</time>
      </trkpt>
      <trkpt lat="42.92523" lon="0.84351">
        <ele>1438</ele>
        <time>2018-12-02T09:54:31.000Z</time>
      </trkpt>
      <trkpt lat="42.92522" lon="0.84351">
        <ele>1438</ele>
        <time>2018-12-02T09:54:33.000Z</time>
      </trkpt>
      <trkpt lat="42.92521" lon="0.84351">
        <ele>1438</ele>
        <time>2018-12-02T09:54:35.000Z</time>
      </trkpt>
      <trkpt lat="42.9252" lon="0.84352">
        <ele>1438</ele>
        <time>2018-12-02T09:54:37.000Z</time>
      </trkpt>
      <trkpt lat="42.9252" lon="0.84352">
        <ele>1438</ele>
        <time>2018-12-02T09:54:40.000Z</time>
      </trkpt>
      <trkpt lat="42.9252" lon="0.84352">
        <ele>1438</ele>
        <time>2018-12-02T09:54:42.000Z</time>
      </trkpt>
      <trkpt lat="42.92519" lon="0.84352">
        <ele>1439</ele>
        <time>2018-12-02T09:54:44.000Z</time>
      </trkpt>
      <trkpt lat="42.92519" lon="0.84352">
        <ele>1439</ele>
        <time>2018-12-02T09:54:46.000Z</time>
      </trkpt>
      <trkpt lat="42.92518" lon="0.84352">
        <ele>1439</ele>
        <time>2018-12-02T09:54:48.000Z</time>
      </trkpt>
      <trkpt lat="42.92518" lon="0.84352">
        <ele>1439</ele>
        <time>2018-12-02T09:54:50.000Z</time>
      </trkpt>
      <trkpt lat="42.92517" lon="0.84353">
        <ele>1439</ele>
        <time>2018-12-02T09:54:52.000Z</time>
      </trkpt>
      <trkpt lat="42.92516" lon="0.84353">
        <ele>1439</ele>
        <time>2018-12-02T09:54:54.000Z</time>
      </trkpt>
      <trkpt lat="42.92516" lon="0.84354">
        <ele>1439</ele>
        <time>2018-12-02T09:54:56.000Z</time>
      </trkpt>
      <trkpt lat="42.92515" lon="0.84355">
        <ele>1439</ele>
        <time>2018-12-02T09:54:58.000Z</time>
      </trkpt>
      <trkpt lat="42.92515" lon="0.84356">
        <ele>1439</ele>
        <time>2018-12-02T09:55:00.000Z</time>
      </trkpt>
      <trkpt lat="42.92515" lon="0.84356">
        <ele>1438</ele>
        <time>2018-12-02T09:55:02.000Z</time>
      </trkpt>
      <trkpt lat="42.92515" lon="0.84356">
        <ele>1438</ele>
        <time>2018-12-02T09:55:04.000Z</time>
      </trkpt>
      <trkpt lat="42.92515" lon="0.84357">
        <ele>1438</ele>
        <time>2018-12-02T09:55:06.000Z</time>
      </trkpt>
      <trkpt lat="42.92515" lon="0.84357">
        <ele>1438</ele>
        <time>2018-12-02T09:55:08.000Z</time>
      </trkpt>
      <trkpt lat="42.92515" lon="0.84358">
        <ele>1438</ele>
        <time>2018-12-02T09:55:10.000Z</time>
      </trkpt>
      <trkpt lat="42.92514" lon="0.84358">
        <ele>1438</ele>
        <time>2018-12-02T09:55:12.000Z</time>
      </trkpt>
      <trkpt lat="42.92513" lon="0.84359">
        <ele>1438</ele>
        <time>2018-12-02T09:55:15.000Z</time>
      </trkpt>
      <trkpt lat="42.92512" lon="0.8436">
        <ele>1438</ele>
        <time>2018-12-02T09:55:17.000Z</time>
      </trkpt>
      <trkpt lat="42.92511" lon="0.8436">
        <ele>1438</ele>
        <time>2018-12-02T09:55:19.000Z</time>
      </trkpt>
      <trkpt lat="42.9251" lon="0.8436">
        <ele>1439</ele>
        <time>2018-12-02T09:55:21.000Z</time>
      </trkpt>
      <trkpt lat="42.9251" lon="0.8436">
        <ele>1439</ele>
        <time>2018-12-02T09:55:23.000Z</time>
      </trkpt>
      <trkpt lat="42.92509" lon="0.84361">
        <ele>1439</ele>
        <time>2018-12-02T09:55:25.000Z</time>
      </trkpt>
      <trkpt lat="42.92508" lon="0.84362">
        <ele>1439</ele>
        <time>2018-12-02T09:55:27.000Z</time>
      </trkpt>
      <trkpt lat="42.92507" lon="0.84362">
        <ele>1439</ele>
        <time>2018-12-02T09:55:29.000Z</time>
      </trkpt>
      <trkpt lat="42.92506" lon="0.84363">
        <ele>1439</ele>
        <time>2018-12-02T09:55:31.000Z</time>
      </trkpt>
      <trkpt lat="42.92505" lon="0.84362">
        <ele>1439</ele>
        <time>2018-12-02T09:55:33.000Z</time>
      </trkpt>
      <trkpt lat="42.92504" lon="0.84362">
        <ele>1439</ele>
        <time>2018-12-02T09:55:35.000Z</time>
      </trkpt>
      <trkpt lat="42.92503" lon="0.84362">
        <ele>1439</ele>
        <time>2018-12-02T09:55:37.000Z</time>
      </trkpt>
      <trkpt lat="42.92502" lon="0.84361">
        <ele>1440</ele>
        <time>2018-12-02T09:55:39.000Z</time>
      </trkpt>
      <trkpt lat="42.92502" lon="0.84362">
        <ele>1440</ele>
        <time>2018-12-02T09:55:41.000Z</time>
      </trkpt>
      <trkpt lat="42.92501" lon="0.84362">
        <ele>1440</ele>
        <time>2018-12-02T09:55:43.000Z</time>
      </trkpt>
      <trkpt lat="42.92501" lon="0.84362">
        <ele>1440</ele>
        <time>2018-12-02T09:55:45.000Z</time>
      </trkpt>
      <trkpt lat="42.92501" lon="0.84362">
        <ele>1440</ele>
        <time>2018-12-02T09:55:47.000Z</time>
      </trkpt>
      <trkpt lat="42.925" lon="0.84362">
        <ele>1440</ele>
        <time>2018-12-02T09:55:49.000Z</time>
      </trkpt>
      <trkpt lat="42.92499" lon="0.84361">
        <ele>1440</ele>
        <time>2018-12-02T09:55:51.000Z</time>
      </trkpt>
      <trkpt lat="42.92498" lon="0.8436">
        <ele>1441</ele>
        <time>2018-12-02T09:55:53.000Z</time>
      </trkpt>
      <trkpt lat="42.92497" lon="0.84358">
        <ele>1441</ele>
        <time>2018-12-02T09:55:55.000Z</time>
      </trkpt>
      <trkpt lat="42.92497" lon="0.84357">
        <ele>1441</ele>
        <time>2018-12-02T09:55:57.000Z</time>
      </trkpt>
      <trkpt lat="42.92497" lon="0.84357">
        <ele>1441</ele>
        <time>2018-12-02T09:55:59.000Z</time>
      </trkpt>
      <trkpt lat="42.92497" lon="0.84356">
        <ele>1441</ele>
        <time>2018-12-02T09:56:02.000Z</time>
      </trkpt>
      <trkpt lat="42.92496" lon="0.84356">
        <ele>1441</ele>
        <time>2018-12-02T09:56:04.000Z</time>
      </trkpt>
      <trkpt lat="42.92496" lon="0.84355">
        <ele>1442</ele>
        <time>2018-12-02T09:56:06.000Z</time>
      </trkpt>
      <trkpt lat="42.92495" lon="0.84355">
        <ele>1442</ele>
        <time>2018-12-02T09:56:08.000Z</time>
      </trkpt>
      <trkpt lat="42.92494" lon="0.84356">
        <ele>1442</ele>
        <time>2018-12-02T09:56:10.000Z</time>
      </trkpt>
      <trkpt lat="42.92494" lon="0.84356">
        <ele>1442</ele>
        <time>2018-12-02T09:56:12.000Z</time>
      </trkpt>
      <trkpt lat="42.92493" lon="0.84356">
        <ele>1442</ele>
        <time>2018-12-02T09:56:14.000Z</time>
      </trkpt>
      <trkpt lat="42.92493" lon="0.84356">
        <ele>1442</ele>
        <time>2018-12-02T09:56:16.000Z</time>
      </trkpt>
      <trkpt lat="42.92493" lon="0.84355">
        <ele>1442</ele>
        <time>2018-12-02T09:56:18.000Z</time>
      </trkpt>
      <trkpt lat="42.92493" lon="0.84354">
        <ele>1442</ele>
        <time>2018-12-02T09:56:20.000Z</time>
      </trkpt>
      <trkpt lat="42.92493" lon="0.84353">
        <ele>1442</ele>
        <time>2018-12-02T09:56:22.000Z</time>
      </trkpt>
      <trkpt lat="42.92493" lon="0.84352">
        <ele>1443</ele>
        <time>2018-12-02T09:56:24.000Z</time>
      </trkpt>
      <trkpt lat="42.92493" lon="0.84351">
        <ele>1443</ele>
        <time>2018-12-02T09:56:26.000Z</time>
      </trkpt>
      <trkpt lat="42.92492" lon="0.84351">
        <ele>1443</ele>
        <time>2018-12-02T09:56:28.000Z</time>
      </trkpt>
      <trkpt lat="42.92491" lon="0.8435">
        <ele>1443</ele>
        <time>2018-12-02T09:56:30.000Z</time>
      </trkpt>
      <trkpt lat="42.9249" lon="0.8435">
        <ele>1443</ele>
        <time>2018-12-02T09:56:32.000Z</time>
      </trkpt>
      <trkpt lat="42.9249" lon="0.8435">
        <ele>1443</ele>
        <time>2018-12-02T09:56:34.000Z</time>
      </trkpt>
      <trkpt lat="42.9249" lon="0.8435">
        <ele>1443</ele>
        <time>2018-12-02T09:56:36.000Z</time>
      </trkpt>
      <trkpt lat="42.92489" lon="0.8435">
        <ele>1443</ele>
        <time>2018-12-02T09:56:38.000Z</time>
      </trkpt>
      <trkpt lat="42.92488" lon="0.8435">
        <ele>1444</ele>
        <time>2018-12-02T09:56:40.000Z</time>
      </trkpt>
      <trkpt lat="42.92488" lon="0.84348">
        <ele>1444</ele>
        <time>2018-12-02T09:56:42.000Z</time>
      </trkpt>
      <trkpt lat="42.92487" lon="0.84348">
        <ele>1444</ele>
        <time>2018-12-02T09:56:44.000Z</time>
      </trkpt>
      <trkpt lat="42.92486" lon="0.84347">
        <ele>1444</ele>
        <time>2018-12-02T09:56:46.000Z</time>
      </trkpt>
      <trkpt lat="42.92485" lon="0.84347">
        <ele>1445</ele>
        <time>2018-12-02T09:56:48.000Z</time>
      </trkpt>
      <trkpt lat="42.92485" lon="0.84345">
        <ele>1445</ele>
        <time>2018-12-02T09:56:50.000Z</time>
      </trkpt>
      <trkpt lat="42.92484" lon="0.84345">
        <ele>1445</ele>
        <time>2018-12-02T09:56:52.000Z</time>
      </trkpt>
      <trkpt lat="42.92484" lon="0.84345">
        <ele>1445</ele>
        <time>2018-12-02T09:56:55.000Z</time>
      </trkpt>
      <trkpt lat="42.92483" lon="0.84345">
        <ele>1445</ele>
        <time>2018-12-02T09:56:57.000Z</time>
      </trkpt>
      <trkpt lat="42.92483" lon="0.84344">
        <ele>1445</ele>
        <time>2018-12-02T09:56:59.000Z</time>
      </trkpt>
      <trkpt lat="42.92482" lon="0.84344">
        <ele>1446</ele>
        <time>2018-12-02T09:57:01.000Z</time>
      </trkpt>
      <trkpt lat="42.92481" lon="0.84344">
        <ele>1446</ele>
        <time>2018-12-02T09:57:03.000Z</time>
      </trkpt>
      <trkpt lat="42.92481" lon="0.84344">
        <ele>1446</ele>
        <time>2018-12-02T09:57:05.000Z</time>
      </trkpt>
      <trkpt lat="42.9248" lon="0.84344">
        <ele>1446</ele>
        <time>2018-12-02T09:57:07.000Z</time>
      </trkpt>
      <trkpt lat="42.9248" lon="0.84343">
        <ele>1446</ele>
        <time>2018-12-02T09:57:09.000Z</time>
      </trkpt>
      <trkpt lat="42.9248" lon="0.84342">
        <ele>1446</ele>
        <time>2018-12-02T09:57:11.000Z</time>
      </trkpt>
      <trkpt lat="42.92481" lon="0.84341">
        <ele>1446</ele>
        <time>2018-12-02T09:57:13.000Z</time>
      </trkpt>
      <trkpt lat="42.92481" lon="0.84341">
        <ele>1446</ele>
        <time>2018-12-02T09:57:15.000Z</time>
      </trkpt>
      <trkpt lat="42.92481" lon="0.8434">
        <ele>1446</ele>
        <time>2018-12-02T09:57:17.000Z</time>
      </trkpt>
      <trkpt lat="42.92481" lon="0.8434">
        <ele>1446</ele>
        <time>2018-12-02T09:57:19.000Z</time>
      </trkpt>
      <trkpt lat="42.92481" lon="0.84339">
        <ele>1446</ele>
        <time>2018-12-02T09:57:21.000Z</time>
      </trkpt>
      <trkpt lat="42.92481" lon="0.84338">
        <ele>1446</ele>
        <time>2018-12-02T09:57:23.000Z</time>
      </trkpt>
      <trkpt lat="42.9248" lon="0.84338">
        <ele>1446</ele>
        <time>2018-12-02T09:57:25.000Z</time>
      </trkpt>
      <trkpt lat="42.9248" lon="0.84336">
        <ele>1447</ele>
        <time>2018-12-02T09:57:27.000Z</time>
      </trkpt>
      <trkpt lat="42.9248" lon="0.84336">
        <ele>1447</ele>
        <time>2018-12-02T09:57:29.000Z</time>
      </trkpt>
      <trkpt lat="42.92479" lon="0.84335">
        <ele>1447</ele>
        <time>2018-12-02T09:57:31.000Z</time>
      </trkpt>
      <trkpt lat="42.92479" lon="0.84334">
        <ele>1447</ele>
        <time>2018-12-02T09:57:33.000Z</time>
      </trkpt>
      <trkpt lat="42.92479" lon="0.84334">
        <ele>1447</ele>
        <time>2018-12-02T09:57:35.000Z</time>
      </trkpt>
      <trkpt lat="42.92478" lon="0.84333">
        <ele>1447</ele>
        <time>2018-12-02T09:57:37.000Z</time>
      </trkpt>
      <trkpt lat="42.92477" lon="0.84333">
        <ele>1448</ele>
        <time>2018-12-02T09:57:39.000Z</time>
      </trkpt>
      <trkpt lat="42.92476" lon="0.84332">
        <ele>1448</ele>
        <time>2018-12-02T09:57:42.000Z</time>
      </trkpt>
      <trkpt lat="42.92476" lon="0.84331">
        <ele>1448</ele>
        <time>2018-12-02T09:57:44.000Z</time>
      </trkpt>
      <trkpt lat="42.92475" lon="0.84331">
        <ele>1448</ele>
        <time>2018-12-02T09:57:46.000Z</time>
      </trkpt>
      <trkpt lat="42.92475" lon="0.84331">
        <ele>1448</ele>
        <time>2018-12-02T09:57:48.000Z</time>
      </trkpt>
      <trkpt lat="42.92474" lon="0.84331">
        <ele>1448</ele>
        <time>2018-12-02T09:57:50.000Z</time>
      </trkpt>
      <trkpt lat="42.92474" lon="0.84331">
        <ele>1448</ele>
        <time>2018-12-02T09:57:52.000Z</time>
      </trkpt>
      <trkpt lat="42.92473" lon="0.84331">
        <ele>1449</ele>
        <time>2018-12-02T09:57:54.000Z</time>
      </trkpt>
      <trkpt lat="42.92472" lon="0.84332">
        <ele>1449</ele>
        <time>2018-12-02T09:57:56.000Z</time>
      </trkpt>
      <trkpt lat="42.92472" lon="0.84333">
        <ele>1449</ele>
        <time>2018-12-02T09:57:58.000Z</time>
      </trkpt>
      <trkpt lat="42.92472" lon="0.84334">
        <ele>1448</ele>
        <time>2018-12-02T09:58:00.000Z</time>
      </trkpt>
      <trkpt lat="42.92472" lon="0.84335">
        <ele>1448</ele>
        <time>2018-12-02T09:58:02.000Z</time>
      </trkpt>
      <trkpt lat="42.92471" lon="0.84337">
        <ele>1448</ele>
        <time>2018-12-02T09:58:04.000Z</time>
      </trkpt>
      <trkpt lat="42.92471" lon="0.84339">
        <ele>1448</ele>
        <time>2018-12-02T09:58:06.000Z</time>
      </trkpt>
      <trkpt lat="42.9247" lon="0.8434">
        <ele>1448</ele>
        <time>2018-12-02T09:58:08.000Z</time>
      </trkpt>
      <trkpt lat="42.9247" lon="0.84341">
        <ele>1448</ele>
        <time>2018-12-02T09:58:10.000Z</time>
      </trkpt>
      <trkpt lat="42.9247" lon="0.84342">
        <ele>1448</ele>
        <time>2018-12-02T09:58:12.000Z</time>
      </trkpt>
      <trkpt lat="42.92469" lon="0.84343">
        <ele>1448</ele>
        <time>2018-12-02T09:58:14.000Z</time>
      </trkpt>
      <trkpt lat="42.92468" lon="0.84344">
        <ele>1448</ele>
        <time>2018-12-02T09:58:16.000Z</time>
      </trkpt>
      <trkpt lat="42.92467" lon="0.84344">
        <ele>1448</ele>
        <time>2018-12-02T09:58:18.000Z</time>
      </trkpt>
      <trkpt lat="42.92466" lon="0.84345">
        <ele>1449</ele>
        <time>2018-12-02T09:58:20.000Z</time>
      </trkpt>
      <trkpt lat="42.92465" lon="0.84345">
        <ele>1449</ele>
        <time>2018-12-02T09:58:22.000Z</time>
      </trkpt>
      <trkpt lat="42.92464" lon="0.84346">
        <ele>1449</ele>
        <time>2018-12-02T09:58:24.000Z</time>
      </trkpt>
      <trkpt lat="42.92464" lon="0.84346">
        <ele>1449</ele>
        <time>2018-12-02T09:58:26.000Z</time>
      </trkpt>
      <trkpt lat="42.92463" lon="0.84345">
        <ele>1449</ele>
        <time>2018-12-02T09:58:28.000Z</time>
      </trkpt>
      <trkpt lat="42.92463" lon="0.84344">
        <ele>1449</ele>
        <time>2018-12-02T09:58:30.000Z</time>
      </trkpt>
      <trkpt lat="42.92463" lon="0.84344">
        <ele>1449</ele>
        <time>2018-12-02T09:58:32.000Z</time>
      </trkpt>
      <trkpt lat="42.92462" lon="0.84344">
        <ele>1449</ele>
        <time>2018-12-02T09:58:34.000Z</time>
      </trkpt>
      <trkpt lat="42.92462" lon="0.84344">
        <ele>1450</ele>
        <time>2018-12-02T09:58:36.000Z</time>
      </trkpt>
      <trkpt lat="42.92461" lon="0.84344">
        <ele>1450</ele>
        <time>2018-12-02T09:58:38.000Z</time>
      </trkpt>
      <trkpt lat="42.9246" lon="0.84345">
        <ele>1450</ele>
        <time>2018-12-02T09:58:41.000Z</time>
      </trkpt>
      <trkpt lat="42.92459" lon="0.84344">
        <ele>1450</ele>
        <time>2018-12-02T09:58:43.000Z</time>
      </trkpt>
      <trkpt lat="42.92459" lon="0.84344">
        <ele>1450</ele>
        <time>2018-12-02T09:58:45.000Z</time>
      </trkpt>
      <trkpt lat="42.92458" lon="0.84344">
        <ele>1450</ele>
        <time>2018-12-02T09:58:47.000Z</time>
      </trkpt>
      <trkpt lat="42.92458" lon="0.84344">
        <ele>1450</ele>
        <time>2018-12-02T09:58:49.000Z</time>
      </trkpt>
      <trkpt lat="42.92458" lon="0.84344">
        <ele>1450</ele>
        <time>2018-12-02T09:58:51.000Z</time>
      </trkpt>
      <trkpt lat="42.92457" lon="0.84344">
        <ele>1450</ele>
        <time>2018-12-02T09:58:53.000Z</time>
      </trkpt>
      <trkpt lat="42.92456" lon="0.84343">
        <ele>1450</ele>
        <time>2018-12-02T09:58:55.000Z</time>
      </trkpt>
      <trkpt lat="42.92456" lon="0.84342">
        <ele>1450</ele>
        <time>2018-12-02T09:58:57.000Z</time>
      </trkpt>
      <trkpt lat="42.92454" lon="0.84344">
        <ele>1450</ele>
        <time>2018-12-02T09:59:00.000Z</time>
      </trkpt>
      <trkpt lat="42.92454" lon="0.84344">
        <ele>1450</ele>
        <time>2018-12-02T09:59:02.000Z</time>
      </trkpt>
      <trkpt lat="42.92453" lon="0.84344">
        <ele>1450</ele>
        <time>2018-12-02T09:59:04.000Z</time>
      </trkpt>
      <trkpt lat="42.92453" lon="0.84344">
        <ele>1450</ele>
        <time>2018-12-02T09:59:06.000Z</time>
      </trkpt>
      <trkpt lat="42.92453" lon="0.84344">
        <ele>1450</ele>
        <time>2018-12-02T09:59:08.000Z</time>
      </trkpt>
      <trkpt lat="42.92452" lon="0.84344">
        <ele>1450</ele>
        <time>2018-12-02T09:59:10.000Z</time>
      </trkpt>
      <trkpt lat="42.92451" lon="0.84343">
        <ele>1451</ele>
        <time>2018-12-02T09:59:13.000Z</time>
      </trkpt>
      <trkpt lat="42.9245" lon="0.84342">
        <ele>1451</ele>
        <time>2018-12-02T09:59:15.000Z</time>
      </trkpt>
      <trkpt lat="42.9245" lon="0.84342">
        <ele>1451</ele>
        <time>2018-12-02T09:59:17.000Z</time>
      </trkpt>
      <trkpt lat="42.92449" lon="0.84342">
        <ele>1451</ele>
        <time>2018-12-02T09:59:19.000Z</time>
      </trkpt>
      <trkpt lat="42.92448" lon="0.84342">
        <ele>1451</ele>
        <time>2018-12-02T09:59:21.000Z</time>
      </trkpt>
      <trkpt lat="42.92447" lon="0.84341">
        <ele>1451</ele>
        <time>2018-12-02T09:59:23.000Z</time>
      </trkpt>
      <trkpt lat="42.92446" lon="0.8434">
        <ele>1452</ele>
        <time>2018-12-02T09:59:25.000Z</time>
      </trkpt>
      <trkpt lat="42.92445" lon="0.84339">
        <ele>1452</ele>
        <time>2018-12-02T09:59:27.000Z</time>
      </trkpt>
      <trkpt lat="42.92445" lon="0.84338">
        <ele>1452</ele>
        <time>2018-12-02T09:59:29.000Z</time>
      </trkpt>
      <trkpt lat="42.92444" lon="0.84338">
        <ele>1452</ele>
        <time>2018-12-02T09:59:31.000Z</time>
      </trkpt>
      <trkpt lat="42.92443" lon="0.84338">
        <ele>1452</ele>
        <time>2018-12-02T09:59:33.000Z</time>
      </trkpt>
      <trkpt lat="42.92442" lon="0.84337">
        <ele>1453</ele>
        <time>2018-12-02T09:59:35.000Z</time>
      </trkpt>
      <trkpt lat="42.92441" lon="0.84336">
        <ele>1453</ele>
        <time>2018-12-02T09:59:37.000Z</time>
      </trkpt>
      <trkpt lat="42.9244" lon="0.84335">
        <ele>1453</ele>
        <time>2018-12-02T09:59:39.000Z</time>
      </trkpt>
      <trkpt lat="42.92438" lon="0.84334">
        <ele>1454</ele>
        <time>2018-12-02T09:59:41.000Z</time>
      </trkpt>
      <trkpt lat="42.92437" lon="0.84332">
        <ele>1454</ele>
        <time>2018-12-02T09:59:43.000Z</time>
      </trkpt>
      <trkpt lat="42.92436" lon="0.8433">
        <ele>1455</ele>
        <time>2018-12-02T09:59:45.000Z</time>
      </trkpt>
      <trkpt lat="42.92434" lon="0.84329">
        <ele>1455</ele>
        <time>2018-12-02T09:59:47.000Z</time>
      </trkpt>
      <trkpt lat="42.92433" lon="0.84328">
        <ele>1455</ele>
        <time>2018-12-02T09:59:49.000Z</time>
      </trkpt>
      <trkpt lat="42.92432" lon="0.84328">
        <ele>1455</ele>
        <time>2018-12-02T09:59:51.000Z</time>
      </trkpt>
      <trkpt lat="42.92431" lon="0.84326">
        <ele>1456</ele>
        <time>2018-12-02T09:59:53.000Z</time>
      </trkpt>
      <trkpt lat="42.92429" lon="0.84325">
        <ele>1456</ele>
        <time>2018-12-02T09:59:55.000Z</time>
      </trkpt>
      <trkpt lat="42.92428" lon="0.84325">
        <ele>1456</ele>
        <time>2018-12-02T09:59:57.000Z</time>
      </trkpt>
      <trkpt lat="42.92426" lon="0.84324">
        <ele>1457</ele>
        <time>2018-12-02T09:59:59.000Z</time>
      </trkpt>
      <trkpt lat="42.92425" lon="0.84324">
        <ele>1457</ele>
        <time>2018-12-02T10:00:01.000Z</time>
      </trkpt>
      <trkpt lat="42.92423" lon="0.84323">
        <ele>1457</ele>
        <time>2018-12-02T10:00:03.000Z</time>
      </trkpt>
      <trkpt lat="42.92422" lon="0.84322">
        <ele>1457</ele>
        <time>2018-12-02T10:00:05.000Z</time>
      </trkpt>
      <trkpt lat="42.92421" lon="0.84321">
        <ele>1457</ele>
        <time>2018-12-02T10:00:07.000Z</time>
      </trkpt>
      <trkpt lat="42.9242" lon="0.84321">
        <ele>1457</ele>
        <time>2018-12-02T10:00:09.000Z</time>
      </trkpt>
      <trkpt lat="42.92418" lon="0.84322">
        <ele>1457</ele>
        <time>2018-12-02T10:00:11.000Z</time>
      </trkpt>
      <trkpt lat="42.92417" lon="0.84322">
        <ele>1457</ele>
        <time>2018-12-02T10:00:13.000Z</time>
      </trkpt>
      <trkpt lat="42.92416" lon="0.84321">
        <ele>1457</ele>
        <time>2018-12-02T10:00:15.000Z</time>
      </trkpt>
      <trkpt lat="42.92415" lon="0.84321">
        <ele>1457</ele>
        <time>2018-12-02T10:00:17.000Z</time>
      </trkpt>
      <trkpt lat="42.92414" lon="0.8432">
        <ele>1457</ele>
        <time>2018-12-02T10:00:19.000Z</time>
      </trkpt>
      <trkpt lat="42.92413" lon="0.84319">
        <ele>1457</ele>
        <time>2018-12-02T10:00:21.000Z</time>
      </trkpt>
      <trkpt lat="42.92412" lon="0.84319">
        <ele>1457</ele>
        <time>2018-12-02T10:00:23.000Z</time>
      </trkpt>
      <trkpt lat="42.92412" lon="0.84317">
        <ele>1457</ele>
        <time>2018-12-02T10:00:25.000Z</time>
      </trkpt>
      <trkpt lat="42.92411" lon="0.84316">
        <ele>1457</ele>
        <time>2018-12-02T10:00:27.000Z</time>
      </trkpt>
      <trkpt lat="42.92411" lon="0.84316">
        <ele>1457</ele>
        <time>2018-12-02T10:00:29.000Z</time>
      </trkpt>
      <trkpt lat="42.9241" lon="0.84315">
        <ele>1457</ele>
        <time>2018-12-02T10:00:31.000Z</time>
      </trkpt>
      <trkpt lat="42.92409" lon="0.84315">
        <ele>1457</ele>
        <time>2018-12-02T10:00:33.000Z</time>
      </trkpt>
      <trkpt lat="42.92409" lon="0.84314">
        <ele>1457</ele>
        <time>2018-12-02T10:00:35.000Z</time>
      </trkpt>
      <trkpt lat="42.92409" lon="0.84314">
        <ele>1457</ele>
        <time>2018-12-02T10:00:37.000Z</time>
      </trkpt>
      <trkpt lat="42.92409" lon="0.84313">
        <ele>1458</ele>
        <time>2018-12-02T10:00:39.000Z</time>
      </trkpt>
      <trkpt lat="42.92408" lon="0.84312">
        <ele>1458</ele>
        <time>2018-12-02T10:00:41.000Z</time>
      </trkpt>
      <trkpt lat="42.92408" lon="0.8431">
        <ele>1458</ele>
        <time>2018-12-02T10:00:44.000Z</time>
      </trkpt>
      <trkpt lat="42.92408" lon="0.84309">
        <ele>1458</ele>
        <time>2018-12-02T10:00:46.000Z</time>
      </trkpt>
      <trkpt lat="42.92407" lon="0.84308">
        <ele>1458</ele>
        <time>2018-12-02T10:00:48.000Z</time>
      </trkpt>
      <trkpt lat="42.92407" lon="0.84307">
        <ele>1459</ele>
        <time>2018-12-02T10:00:50.000Z</time>
      </trkpt>
      <trkpt lat="42.92406" lon="0.84306">
        <ele>1459</ele>
        <time>2018-12-02T10:00:52.000Z</time>
      </trkpt>
      <trkpt lat="42.92405" lon="0.84306">
        <ele>1459</ele>
        <time>2018-12-02T10:00:54.000Z</time>
      </trkpt>
      <trkpt lat="42.92405" lon="0.84305">
        <ele>1459</ele>
        <time>2018-12-02T10:00:57.000Z</time>
      </trkpt>
      <trkpt lat="42.92405" lon="0.84306">
        <ele>1459</ele>
        <time>2018-12-02T10:00:59.000Z</time>
      </trkpt>
      <trkpt lat="42.92404" lon="0.84305">
        <ele>1459</ele>
        <time>2018-12-02T10:01:01.000Z</time>
      </trkpt>
      <trkpt lat="42.92404" lon="0.84305">
        <ele>1459</ele>
        <time>2018-12-02T10:01:03.000Z</time>
      </trkpt>
      <trkpt lat="42.92403" lon="0.84304">
        <ele>1459</ele>
        <time>2018-12-02T10:01:05.000Z</time>
      </trkpt>
      <trkpt lat="42.92402" lon="0.84304">
        <ele>1459</ele>
        <time>2018-12-02T10:01:07.000Z</time>
      </trkpt>
      <trkpt lat="42.92401" lon="0.84304">
        <ele>1458</ele>
        <time>2018-12-02T10:01:09.000Z</time>
      </trkpt>
      <trkpt lat="42.92399" lon="0.84303">
        <ele>1458</ele>
        <time>2018-12-02T10:01:12.000Z</time>
      </trkpt>
      <trkpt lat="42.92397" lon="0.84303">
        <ele>1458</ele>
        <time>2018-12-02T10:01:15.000Z</time>
      </trkpt>
      <trkpt lat="42.92396" lon="0.84303">
        <ele>1458</ele>
        <time>2018-12-02T10:01:17.000Z</time>
      </trkpt>
      <trkpt lat="42.92394" lon="0.84303">
        <ele>1458</ele>
        <time>2018-12-02T10:01:19.000Z</time>
      </trkpt>
      <trkpt lat="42.92393" lon="0.84302">
        <ele>1458</ele>
        <time>2018-12-02T10:01:21.000Z</time>
      </trkpt>
      <trkpt lat="42.92392" lon="0.84302">
        <ele>1458</ele>
        <time>2018-12-02T10:01:23.000Z</time>
      </trkpt>
      <trkpt lat="42.92391" lon="0.84302">
        <ele>1458</ele>
        <time>2018-12-02T10:01:25.000Z</time>
      </trkpt>
      <trkpt lat="42.9239" lon="0.84302">
        <ele>1457</ele>
        <time>2018-12-02T10:01:27.000Z</time>
      </trkpt>
      <trkpt lat="42.92388" lon="0.84302">
        <ele>1457</ele>
        <time>2018-12-02T10:01:30.000Z</time>
      </trkpt>
      <trkpt lat="42.92387" lon="0.84302">
        <ele>1457</ele>
        <time>2018-12-02T10:01:32.000Z</time>
      </trkpt>
      <trkpt lat="42.92385" lon="0.84302">
        <ele>1457</ele>
        <time>2018-12-02T10:01:34.000Z</time>
      </trkpt>
      <trkpt lat="42.92384" lon="0.84302">
        <ele>1457</ele>
        <time>2018-12-02T10:01:36.000Z</time>
      </trkpt>
      <trkpt lat="42.92382" lon="0.84302">
        <ele>1457</ele>
        <time>2018-12-02T10:01:38.000Z</time>
      </trkpt>
      <trkpt lat="42.92381" lon="0.843">
        <ele>1457</ele>
        <time>2018-12-02T10:01:40.000Z</time>
      </trkpt>
      <trkpt lat="42.9238" lon="0.84299">
        <ele>1457</ele>
        <time>2018-12-02T10:01:42.000Z</time>
      </trkpt>
      <trkpt lat="42.92379" lon="0.84298">
        <ele>1457</ele>
        <time>2018-12-02T10:01:44.000Z</time>
      </trkpt>
      <trkpt lat="42.92378" lon="0.84297">
        <ele>1457</ele>
        <time>2018-12-02T10:01:46.000Z</time>
      </trkpt>
      <trkpt lat="42.92377" lon="0.84296">
        <ele>1457</ele>
        <time>2018-12-02T10:01:48.000Z</time>
      </trkpt>
      <trkpt lat="42.92376" lon="0.84296">
        <ele>1457</ele>
        <time>2018-12-02T10:01:50.000Z</time>
      </trkpt>
      <trkpt lat="42.92375" lon="0.84295">
        <ele>1457</ele>
        <time>2018-12-02T10:01:52.000Z</time>
      </trkpt>
      <trkpt lat="42.92373" lon="0.84294">
        <ele>1457</ele>
        <time>2018-12-02T10:01:54.000Z</time>
      </trkpt>
      <trkpt lat="42.92372" lon="0.84294">
        <ele>1456</ele>
        <time>2018-12-02T10:01:56.000Z</time>
      </trkpt>
      <trkpt lat="42.9237" lon="0.84294">
        <ele>1456</ele>
        <time>2018-12-02T10:01:58.000Z</time>
      </trkpt>
      <trkpt lat="42.92369" lon="0.84294">
        <ele>1456</ele>
        <time>2018-12-02T10:02:00.000Z</time>
      </trkpt>
      <trkpt lat="42.92368" lon="0.84293">
        <ele>1456</ele>
        <time>2018-12-02T10:02:02.000Z</time>
      </trkpt>
      <trkpt lat="42.92366" lon="0.84293">
        <ele>1456</ele>
        <time>2018-12-02T10:02:04.000Z</time>
      </trkpt>
      <trkpt lat="42.92365" lon="0.84293">
        <ele>1456</ele>
        <time>2018-12-02T10:02:06.000Z</time>
      </trkpt>
      <trkpt lat="42.92364" lon="0.84292">
        <ele>1456</ele>
        <time>2018-12-02T10:02:08.000Z</time>
      </trkpt>
      <trkpt lat="42.92362" lon="0.84292">
        <ele>1456</ele>
        <time>2018-12-02T10:02:10.000Z</time>
      </trkpt>
      <trkpt lat="42.92361" lon="0.84292">
        <ele>1455</ele>
        <time>2018-12-02T10:02:12.000Z</time>
      </trkpt>
      <trkpt lat="42.9236" lon="0.84292">
        <ele>1455</ele>
        <time>2018-12-02T10:02:14.000Z</time>
      </trkpt>
      <trkpt lat="42.92359" lon="0.84291">
        <ele>1455</ele>
        <time>2018-12-02T10:02:16.000Z</time>
      </trkpt>
      <trkpt lat="42.92358" lon="0.84291">
        <ele>1455</ele>
        <time>2018-12-02T10:02:18.000Z</time>
      </trkpt>
      <trkpt lat="42.92357" lon="0.8429">
        <ele>1455</ele>
        <time>2018-12-02T10:02:20.000Z</time>
      </trkpt>
      <trkpt lat="42.92355" lon="0.84289">
        <ele>1455</ele>
        <time>2018-12-02T10:02:22.000Z</time>
      </trkpt>
      <trkpt lat="42.92354" lon="0.84289">
        <ele>1455</ele>
        <time>2018-12-02T10:02:24.000Z</time>
      </trkpt>
      <trkpt lat="42.92354" lon="0.84288">
        <ele>1455</ele>
        <time>2018-12-02T10:02:26.000Z</time>
      </trkpt>
      <trkpt lat="42.92354" lon="0.84288">
        <ele>1455</ele>
        <time>2018-12-02T10:02:28.000Z</time>
      </trkpt>
      <trkpt lat="42.92354" lon="0.84288">
        <ele>1455</ele>
        <time>2018-12-02T10:02:30.000Z</time>
      </trkpt>
      <trkpt lat="42.92352" lon="0.84289">
        <ele>1455</ele>
        <time>2018-12-02T10:02:33.000Z</time>
      </trkpt>
      <trkpt lat="42.92351" lon="0.84288">
        <ele>1455</ele>
        <time>2018-12-02T10:02:35.000Z</time>
      </trkpt>
      <trkpt lat="42.9235" lon="0.84286">
        <ele>1455</ele>
        <time>2018-12-02T10:02:37.000Z</time>
      </trkpt>
      <trkpt lat="42.9235" lon="0.84282">
        <ele>1456</ele>
        <time>2018-12-02T10:02:40.000Z</time>
      </trkpt>
      <trkpt lat="42.92351" lon="0.84282">
        <ele>1456</ele>
        <time>2018-12-02T10:02:42.000Z</time>
      </trkpt>
      <trkpt lat="42.92351" lon="0.84283">
        <ele>1456</ele>
        <time>2018-12-02T10:02:44.000Z</time>
      </trkpt>
      <trkpt lat="42.92351" lon="0.84283">
        <ele>1456</ele>
        <time>2018-12-02T10:02:46.000Z</time>
      </trkpt>
      <trkpt lat="42.92351" lon="0.84283">
        <ele>1455</ele>
        <time>2018-12-02T10:02:48.000Z</time>
      </trkpt>
      <trkpt lat="42.9235" lon="0.84282">
        <ele>1456</ele>
        <time>2018-12-02T10:02:50.000Z</time>
      </trkpt>
      <trkpt lat="42.9235" lon="0.8428">
        <ele>1456</ele>
        <time>2018-12-02T10:02:52.000Z</time>
      </trkpt>
      <trkpt lat="42.9235" lon="0.84278">
        <ele>1456</ele>
        <time>2018-12-02T10:02:54.000Z</time>
      </trkpt>
      <trkpt lat="42.9235" lon="0.84278">
        <ele>1456</ele>
        <time>2018-12-02T10:02:56.000Z</time>
      </trkpt>
      <trkpt lat="42.9235" lon="0.84279">
        <ele>1456</ele>
        <time>2018-12-02T10:02:58.000Z</time>
      </trkpt>
      <trkpt lat="42.92351" lon="0.84281">
        <ele>1456</ele>
        <time>2018-12-02T10:03:00.000Z</time>
      </trkpt>
      <trkpt lat="42.92352" lon="0.84281">
        <ele>1456</ele>
        <time>2018-12-02T10:03:02.000Z</time>
      </trkpt>
      <trkpt lat="42.92352" lon="0.84281">
        <ele>1456</ele>
        <time>2018-12-02T10:03:04.000Z</time>
      </trkpt>
      <trkpt lat="42.92352" lon="0.84282">
        <ele>1456</ele>
        <time>2018-12-02T10:03:06.000Z</time>
      </trkpt>
      <trkpt lat="42.92353" lon="0.84282">
        <ele>1456</ele>
        <time>2018-12-02T10:03:08.000Z</time>
      </trkpt>
      <trkpt lat="42.92354" lon="0.84283">
        <ele>1456</ele>
        <time>2018-12-02T10:03:10.000Z</time>
      </trkpt>
      <trkpt lat="42.92355" lon="0.84283">
        <ele>1456</ele>
        <time>2018-12-02T10:03:12.000Z</time>
      </trkpt>
      <trkpt lat="42.92355" lon="0.84283">
        <ele>1456</ele>
        <time>2018-12-02T10:03:14.000Z</time>
      </trkpt>
      <trkpt lat="42.92355" lon="0.84282">
        <ele>1456</ele>
        <time>2018-12-02T10:03:16.000Z</time>
      </trkpt>
      <trkpt lat="42.92355" lon="0.84283">
        <ele>1456</ele>
        <time>2018-12-02T10:03:19.000Z</time>
      </trkpt>
      <trkpt lat="42.92355" lon="0.84283">
        <ele>1456</ele>
        <time>2018-12-02T10:03:21.000Z</time>
      </trkpt>
      <trkpt lat="42.92355" lon="0.84283">
        <ele>1456</ele>
        <time>2018-12-02T10:03:23.000Z</time>
      </trkpt>
      <trkpt lat="42.92355" lon="0.84284">
        <ele>1456</ele>
        <time>2018-12-02T10:03:25.000Z</time>
      </trkpt>
      <trkpt lat="42.92355" lon="0.84284">
        <ele>1456</ele>
        <time>2018-12-02T10:03:27.000Z</time>
      </trkpt>
      <trkpt lat="42.92355" lon="0.84284">
        <ele>1456</ele>
        <time>2018-12-02T10:03:29.000Z</time>
      </trkpt>
      <trkpt lat="42.92354" lon="0.84284">
        <ele>1456</ele>
        <time>2018-12-02T10:03:31.000Z</time>
      </trkpt>
      <trkpt lat="42.92354" lon="0.84284">
        <ele>1456</ele>
        <time>2018-12-02T10:03:33.000Z</time>
      </trkpt>
      <trkpt lat="42.92354" lon="0.84284">
        <ele>1456</ele>
        <time>2018-12-02T10:03:35.000Z</time>
      </trkpt>
      <trkpt lat="42.92353" lon="0.84285">
        <ele>1456</ele>
        <time>2018-12-02T10:03:37.000Z</time>
      </trkpt>
      <trkpt lat="42.92353" lon="0.84285">
        <ele>1456</ele>
        <time>2018-12-02T10:03:39.000Z</time>
      </trkpt>
      <trkpt lat="42.92353" lon="0.84285">
        <ele>1455</ele>
        <time>2018-12-02T10:03:41.000Z</time>
      </trkpt>
      <trkpt lat="42.92352" lon="0.84286">
        <ele>1455</ele>
        <time>2018-12-02T10:03:43.000Z</time>
      </trkpt>
      <trkpt lat="42.92352" lon="0.84286">
        <ele>1455</ele>
        <time>2018-12-02T10:03:45.000Z</time>
      </trkpt>
      <trkpt lat="42.92353" lon="0.84286">
        <ele>1455</ele>
        <time>2018-12-02T10:03:47.000Z</time>
      </trkpt>
      <trkpt lat="42.92352" lon="0.84286">
        <ele>1455</ele>
        <time>2018-12-02T10:03:49.000Z</time>
      </trkpt>
      <trkpt lat="42.92352" lon="0.84286">
        <ele>1455</ele>
        <time>2018-12-02T10:03:51.000Z</time>
      </trkpt>
      <trkpt lat="42.92352" lon="0.84286">
        <ele>1455</ele>
        <time>2018-12-02T10:03:53.000Z</time>
      </trkpt>
      <trkpt lat="42.92352" lon="0.84285">
        <ele>1455</ele>
        <time>2018-12-02T10:03:55.000Z</time>
      </trkpt>
      <trkpt lat="42.92352" lon="0.84285">
        <ele>1455</ele>
        <time>2018-12-02T10:03:57.000Z</time>
      </trkpt>
      <trkpt lat="42.92352" lon="0.84285">
        <ele>1455</ele>
        <time>2018-12-02T10:03:59.000Z</time>
      </trkpt>
      <trkpt lat="42.92352" lon="0.84285">
        <ele>1455</ele>
        <time>2018-12-02T10:04:01.000Z</time>
      </trkpt>
      <trkpt lat="42.92352" lon="0.84286">
        <ele>1455</ele>
        <time>2018-12-02T10:04:03.000Z</time>
      </trkpt>
      <trkpt lat="42.92352" lon="0.84286">
        <ele>1455</ele>
        <time>2018-12-02T10:04:05.000Z</time>
      </trkpt>
      <trkpt lat="42.92352" lon="0.84287">
        <ele>1455</ele>
        <time>2018-12-02T10:04:07.000Z</time>
      </trkpt>
      <trkpt lat="42.92352" lon="0.84286">
        <ele>1455</ele>
        <time>2018-12-02T10:04:09.000Z</time>
      </trkpt>
      <trkpt lat="42.92352" lon="0.84286">
        <ele>1455</ele>
        <time>2018-12-02T10:04:11.000Z</time>
      </trkpt>
      <trkpt lat="42.92352" lon="0.84287">
        <ele>1455</ele>
        <time>2018-12-02T10:04:13.000Z</time>
      </trkpt>
      <trkpt lat="42.92352" lon="0.84287">
        <ele>1455</ele>
        <time>2018-12-02T10:04:16.000Z</time>
      </trkpt>
      <trkpt lat="42.92352" lon="0.84287">
        <ele>1455</ele>
        <time>2018-12-02T10:04:18.000Z</time>
      </trkpt>
      <trkpt lat="42.92352" lon="0.84287">
        <ele>1455</ele>
        <time>2018-12-02T10:04:20.000Z</time>
      </trkpt>
      <trkpt lat="42.92352" lon="0.84287">
        <ele>1455</ele>
        <time>2018-12-02T10:04:22.000Z</time>
      </trkpt>
      <trkpt lat="42.92352" lon="0.84286">
        <ele>1455</ele>
        <time>2018-12-02T10:04:24.000Z</time>
      </trkpt>
      <trkpt lat="42.92352" lon="0.84286">
        <ele>1455</ele>
        <time>2018-12-02T10:04:26.000Z</time>
      </trkpt>
      <trkpt lat="42.92352" lon="0.84286">
        <ele>1455</ele>
        <time>2018-12-02T10:04:28.000Z</time>
      </trkpt>
      <trkpt lat="42.92352" lon="0.84286">
        <ele>1455</ele>
        <time>2018-12-02T10:04:30.000Z</time>
      </trkpt>
      <trkpt lat="42.92352" lon="0.84286">
        <ele>1455</ele>
        <time>2018-12-02T10:04:32.000Z</time>
      </trkpt>
      <trkpt lat="42.92353" lon="0.84286">
        <ele>1455</ele>
        <time>2018-12-02T10:04:34.000Z</time>
      </trkpt>
      <trkpt lat="42.92353" lon="0.84286">
        <ele>1455</ele>
        <time>2018-12-02T10:04:36.000Z</time>
      </trkpt>
      <trkpt lat="42.92353" lon="0.84286">
        <ele>1455</ele>
        <time>2018-12-02T10:04:38.000Z</time>
      </trkpt>
      <trkpt lat="42.92353" lon="0.84286">
        <ele>1455</ele>
        <time>2018-12-02T10:04:40.000Z</time>
      </trkpt>
      <trkpt lat="42.92353" lon="0.84285">
        <ele>1455</ele>
        <time>2018-12-02T10:04:42.000Z</time>
      </trkpt>
      <trkpt lat="42.92353" lon="0.84285">
        <ele>1455</ele>
        <time>2018-12-02T10:04:44.000Z</time>
      </trkpt>
      <trkpt lat="42.92353" lon="0.84285">
        <ele>1455</ele>
        <time>2018-12-02T10:04:46.000Z</time>
      </trkpt>
      <trkpt lat="42.92353" lon="0.84285">
        <ele>1455</ele>
        <time>2018-12-02T10:04:48.000Z</time>
      </trkpt>
      <trkpt lat="42.92353" lon="0.84285">
        <ele>1455</ele>
        <time>2018-12-02T10:04:50.000Z</time>
      </trkpt>
      <trkpt lat="42.92353" lon="0.84285">
        <ele>1455</ele>
        <time>2018-12-02T10:04:52.000Z</time>
      </trkpt>
      <trkpt lat="42.92353" lon="0.84285">
        <ele>1456</ele>
        <time>2018-12-02T10:04:54.000Z</time>
      </trkpt>
      <trkpt lat="42.92353" lon="0.84285">
        <ele>1456</ele>
        <time>2018-12-02T10:04:56.000Z</time>
      </trkpt>
      <trkpt lat="42.92353" lon="0.84284">
        <ele>1456</ele>
        <time>2018-12-02T10:04:58.000Z</time>
      </trkpt>
      <trkpt lat="42.92353" lon="0.84284">
        <ele>1456</ele>
        <time>2018-12-02T10:05:00.000Z</time>
      </trkpt>
      <trkpt lat="42.92353" lon="0.84285">
        <ele>1456</ele>
        <time>2018-12-02T10:05:02.000Z</time>
      </trkpt>
      <trkpt lat="42.92352" lon="0.84285">
        <ele>1455</ele>
        <time>2018-12-02T10:05:04.000Z</time>
      </trkpt>
      <trkpt lat="42.92352" lon="0.84285">
        <ele>1455</ele>
        <time>2018-12-02T10:05:06.000Z</time>
      </trkpt>
      <trkpt lat="42.92352" lon="0.84285">
        <ele>1455</ele>
        <time>2018-12-02T10:05:08.000Z</time>
      </trkpt>
      <trkpt lat="42.92352" lon="0.84285">
        <ele>1455</ele>
        <time>2018-12-02T10:05:10.000Z</time>
      </trkpt>
      <trkpt lat="42.92352" lon="0.84285">
        <ele>1455</ele>
        <time>2018-12-02T10:05:12.000Z</time>
      </trkpt>
      <trkpt lat="42.92352" lon="0.84284">
        <ele>1455</ele>
        <time>2018-12-02T10:05:14.000Z</time>
      </trkpt>
      <trkpt lat="42.92352" lon="0.84284">
        <ele>1456</ele>
        <time>2018-12-02T10:05:16.000Z</time>
      </trkpt>
      <trkpt lat="42.92352" lon="0.84284">
        <ele>1456</ele>
        <time>2018-12-02T10:05:18.000Z</time>
      </trkpt>
      <trkpt lat="42.92352" lon="0.84284">
        <ele>1456</ele>
        <time>2018-12-02T10:05:20.000Z</time>
      </trkpt>
      <trkpt lat="42.92352" lon="0.84284">
        <ele>1456</ele>
        <time>2018-12-02T10:05:22.000Z</time>
      </trkpt>
      <trkpt lat="42.92352" lon="0.84284">
        <ele>1456</ele>
        <time>2018-12-02T10:05:24.000Z</time>
      </trkpt>
      <trkpt lat="42.92352" lon="0.84284">
        <ele>1455</ele>
        <time>2018-12-02T10:05:26.000Z</time>
      </trkpt>
      <trkpt lat="42.92352" lon="0.84285">
        <ele>1455</ele>
        <time>2018-12-02T10:05:28.000Z</time>
      </trkpt>
      <trkpt lat="42.92352" lon="0.84285">
        <ele>1455</ele>
        <time>2018-12-02T10:05:30.000Z</time>
      </trkpt>
      <trkpt lat="42.92353" lon="0.84285">
        <ele>1455</ele>
        <time>2018-12-02T10:05:32.000Z</time>
      </trkpt>
      <trkpt lat="42.92353" lon="0.84285">
        <ele>1455</ele>
        <time>2018-12-02T10:05:34.000Z</time>
      </trkpt>
      <trkpt lat="42.92353" lon="0.84285">
        <ele>1455</ele>
        <time>2018-12-02T10:05:36.000Z</time>
      </trkpt>
      <trkpt lat="42.92353" lon="0.84285">
        <ele>1455</ele>
        <time>2018-12-02T10:05:38.000Z</time>
      </trkpt>
      <trkpt lat="42.92353" lon="0.84285">
        <ele>1455</ele>
        <time>2018-12-02T10:05:40.000Z</time>
      </trkpt>
      <trkpt lat="42.92353" lon="0.84285">
        <ele>1456</ele>
        <time>2018-12-02T10:05:42.000Z</time>
      </trkpt>
      <trkpt lat="42.92353" lon="0.84285">
        <ele>1456</ele>
        <time>2018-12-02T10:05:44.000Z</time>
      </trkpt>
      <trkpt lat="42.92353" lon="0.84285">
        <ele>1456</ele>
        <time>2018-12-02T10:05:46.000Z</time>
      </trkpt>
      <trkpt lat="42.92353" lon="0.84285">
        <ele>1455</ele>
        <time>2018-12-02T10:05:48.000Z</time>
      </trkpt>
      <trkpt lat="42.92353" lon="0.84285">
        <ele>1456</ele>
        <time>2018-12-02T10:05:50.000Z</time>
      </trkpt>
      <trkpt lat="42.92353" lon="0.84285">
        <ele>1455</ele>
        <time>2018-12-02T10:05:52.000Z</time>
      </trkpt>
      <trkpt lat="42.92353" lon="0.84285">
        <ele>1455</ele>
        <time>2018-12-02T10:05:54.000Z</time>
      </trkpt>
      <trkpt lat="42.92353" lon="0.84285">
        <ele>1455</ele>
        <time>2018-12-02T10:05:56.000Z</time>
      </trkpt>
      <trkpt lat="42.92353" lon="0.84286">
        <ele>1455</ele>
        <time>2018-12-02T10:05:58.000Z</time>
      </trkpt>
      <trkpt lat="42.92354" lon="0.84286">
        <ele>1455</ele>
        <time>2018-12-02T10:06:00.000Z</time>
      </trkpt>
      <trkpt lat="42.92354" lon="0.84286">
        <ele>1455</ele>
        <time>2018-12-02T10:06:02.000Z</time>
      </trkpt>
      <trkpt lat="42.92354" lon="0.84286">
        <ele>1455</ele>
        <time>2018-12-02T10:06:04.000Z</time>
      </trkpt>
      <trkpt lat="42.92354" lon="0.84285">
        <ele>1456</ele>
        <time>2018-12-02T10:06:06.000Z</time>
      </trkpt>
      <trkpt lat="42.92354" lon="0.84286">
        <ele>1456</ele>
        <time>2018-12-02T10:06:08.000Z</time>
      </trkpt>
      <trkpt lat="42.92354" lon="0.84286">
        <ele>1456</ele>
        <time>2018-12-02T10:06:10.000Z</time>
      </trkpt>
      <trkpt lat="42.92354" lon="0.84286">
        <ele>1456</ele>
        <time>2018-12-02T10:06:12.000Z</time>
      </trkpt>
      <trkpt lat="42.92354" lon="0.84286">
        <ele>1455</ele>
        <time>2018-12-02T10:06:14.000Z</time>
      </trkpt>
      <trkpt lat="42.92353" lon="0.84287">
        <ele>1455</ele>
        <time>2018-12-02T10:06:16.000Z</time>
      </trkpt>
      <trkpt lat="42.92352" lon="0.84286">
        <ele>1455</ele>
        <time>2018-12-02T10:06:18.000Z</time>
      </trkpt>
      <trkpt lat="42.92352" lon="0.84286">
        <ele>1455</ele>
        <time>2018-12-02T10:06:20.000Z</time>
      </trkpt>
      <trkpt lat="42.92352" lon="0.84285">
        <ele>1455</ele>
        <time>2018-12-02T10:06:22.000Z</time>
      </trkpt>
      <trkpt lat="42.92352" lon="0.84284">
        <ele>1456</ele>
        <time>2018-12-02T10:06:24.000Z</time>
      </trkpt>
      <trkpt lat="42.92352" lon="0.84284">
        <ele>1456</ele>
        <time>2018-12-02T10:06:26.000Z</time>
      </trkpt>
      <trkpt lat="42.92353" lon="0.84283">
        <ele>1456</ele>
        <time>2018-12-02T10:06:28.000Z</time>
      </trkpt>
      <trkpt lat="42.92353" lon="0.84283">
        <ele>1456</ele>
        <time>2018-12-02T10:06:30.000Z</time>
      </trkpt>
      <trkpt lat="42.92353" lon="0.84281">
        <ele>1456</ele>
        <time>2018-12-02T10:06:32.000Z</time>
      </trkpt>
      <trkpt lat="42.92353" lon="0.84281">
        <ele>1456</ele>
        <time>2018-12-02T10:06:34.000Z</time>
      </trkpt>
      <trkpt lat="42.92353" lon="0.84279">
        <ele>1456</ele>
        <time>2018-12-02T10:06:36.000Z</time>
      </trkpt>
      <trkpt lat="42.92354" lon="0.84278">
        <ele>1457</ele>
        <time>2018-12-02T10:06:38.000Z</time>
      </trkpt>
      <trkpt lat="42.92354" lon="0.84277">
        <ele>1457</ele>
        <time>2018-12-02T10:06:40.000Z</time>
      </trkpt>
      <trkpt lat="42.92354" lon="0.84276">
        <ele>1457</ele>
        <time>2018-12-02T10:06:42.000Z</time>
      </trkpt>
      <trkpt lat="42.92355" lon="0.84274">
        <ele>1457</ele>
        <time>2018-12-02T10:06:44.000Z</time>
      </trkpt>
      <trkpt lat="42.92355" lon="0.84273">
        <ele>1457</ele>
        <time>2018-12-02T10:06:46.000Z</time>
      </trkpt>
      <trkpt lat="42.92355" lon="0.84273">
        <ele>1458</ele>
        <time>2018-12-02T10:06:48.000Z</time>
      </trkpt>
      <trkpt lat="42.92356" lon="0.84272">
        <ele>1458</ele>
        <time>2018-12-02T10:06:50.000Z</time>
      </trkpt>
      <trkpt lat="42.92356" lon="0.84272">
        <ele>1458</ele>
        <time>2018-12-02T10:06:52.000Z</time>
      </trkpt>
      <trkpt lat="42.92358" lon="0.84272">
        <ele>1458</ele>
        <time>2018-12-02T10:06:54.000Z</time>
      </trkpt>
      <trkpt lat="42.9236" lon="0.84272">
        <ele>1458</ele>
        <time>2018-12-02T10:06:56.000Z</time>
      </trkpt>
      <trkpt lat="42.92361" lon="0.84271">
        <ele>1458</ele>
        <time>2018-12-02T10:06:58.000Z</time>
      </trkpt>
      <trkpt lat="42.92362" lon="0.84269">
        <ele>1459</ele>
        <time>2018-12-02T10:07:00.000Z</time>
      </trkpt>
      <trkpt lat="42.92365" lon="0.84272">
        <ele>1459</ele>
        <time>2018-12-02T10:07:02.000Z</time>
      </trkpt>
      <trkpt lat="42.92366" lon="0.84279">
        <ele>1458</ele>
        <time>2018-12-02T10:07:04.000Z</time>
      </trkpt>
      <trkpt lat="42.92369" lon="0.8429">
        <ele>1457</ele>
        <time>2018-12-02T10:07:06.000Z</time>
      </trkpt>
      <trkpt lat="42.92371" lon="0.84298">
        <ele>1456</ele>
        <time>2018-12-02T10:07:08.000Z</time>
      </trkpt>
      <trkpt lat="42.92372" lon="0.84306">
        <ele>1455</ele>
        <time>2018-12-02T10:07:10.000Z</time>
      </trkpt>
      <trkpt lat="42.92371" lon="0.84311">
        <ele>1454</ele>
        <time>2018-12-02T10:07:12.000Z</time>
      </trkpt>
      <trkpt lat="42.9237" lon="0.84313">
        <ele>1453</ele>
        <time>2018-12-02T10:07:14.000Z</time>
      </trkpt>
      <trkpt lat="42.92366" lon="0.84318">
        <ele>1451</ele>
        <time>2018-12-02T10:07:16.000Z</time>
      </trkpt>
      <trkpt lat="42.92365" lon="0.84321">
        <ele>1450</ele>
        <time>2018-12-02T10:07:18.000Z</time>
      </trkpt>
      <trkpt lat="42.92363" lon="0.84324">
        <ele>1450</ele>
        <time>2018-12-02T10:07:20.000Z</time>
      </trkpt>
      <trkpt lat="42.92361" lon="0.84325">
        <ele>1449</ele>
        <time>2018-12-02T10:07:22.000Z</time>
      </trkpt>
      <trkpt lat="42.92361" lon="0.84329">
        <ele>1448</ele>
        <time>2018-12-02T10:07:24.000Z</time>
      </trkpt>
      <trkpt lat="42.92361" lon="0.84329">
        <ele>1448</ele>
        <time>2018-12-02T10:07:26.000Z</time>
      </trkpt>
      <trkpt lat="42.92361" lon="0.84329">
        <ele>1448</ele>
        <time>2018-12-02T10:07:28.000Z</time>
      </trkpt>
      <trkpt lat="42.92361" lon="0.84327">
        <ele>1449</ele>
        <time>2018-12-02T10:07:30.000Z</time>
      </trkpt>
      <trkpt lat="42.92361" lon="0.84327">
        <ele>1449</ele>
        <time>2018-12-02T10:07:32.000Z</time>
      </trkpt>
      <trkpt lat="42.92358" lon="0.84328">
        <ele>1449</ele>
        <time>2018-12-02T10:07:34.000Z</time>
      </trkpt>
      <trkpt lat="42.92353" lon="0.84326">
        <ele>1449</ele>
        <time>2018-12-02T10:07:36.000Z</time>
      </trkpt>
      <trkpt lat="42.92348" lon="0.84325">
        <ele>1449</ele>
        <time>2018-12-02T10:07:38.000Z</time>
      </trkpt>
      <trkpt lat="42.92344" lon="0.84324">
        <ele>1449</ele>
        <time>2018-12-02T10:07:40.000Z</time>
      </trkpt>
      <trkpt lat="42.9234" lon="0.84324">
        <ele>1449</ele>
        <time>2018-12-02T10:07:42.000Z</time>
      </trkpt>
      <trkpt lat="42.9234" lon="0.84324">
        <ele>1449</ele>
        <time>2018-12-02T10:07:44.000Z</time>
      </trkpt>
      <trkpt lat="42.92341" lon="0.84324">
        <ele>1449</ele>
        <time>2018-12-02T10:07:46.000Z</time>
      </trkpt>
      <trkpt lat="42.92342" lon="0.84324">
        <ele>1449</ele>
        <time>2018-12-02T10:07:48.000Z</time>
      </trkpt>
      <trkpt lat="42.92343" lon="0.84324">
        <ele>1449</ele>
        <time>2018-12-02T10:07:50.000Z</time>
      </trkpt>
      <trkpt lat="42.92347" lon="0.84318">
        <ele>1450</ele>
        <time>2018-12-02T10:07:52.000Z</time>
      </trkpt>
      <trkpt lat="42.92347" lon="0.84316">
        <ele>1450</ele>
        <time>2018-12-02T10:07:54.000Z</time>
      </trkpt>
      <trkpt lat="42.92346" lon="0.84308">
        <ele>1451</ele>
        <time>2018-12-02T10:07:56.000Z</time>
      </trkpt>
      <trkpt lat="42.92345" lon="0.84302">
        <ele>1452</ele>
        <time>2018-12-02T10:07:58.000Z</time>
      </trkpt>
      <trkpt lat="42.92345" lon="0.84299">
        <ele>1453</ele>
        <time>2018-12-02T10:08:00.000Z</time>
      </trkpt>
      <trkpt lat="42.92345" lon="0.84296">
        <ele>1453</ele>
        <time>2018-12-02T10:08:02.000Z</time>
      </trkpt>
      <trkpt lat="42.92346" lon="0.84293">
        <ele>1453</ele>
        <time>2018-12-02T10:08:04.000Z</time>
      </trkpt>
      <trkpt lat="42.92346" lon="0.8429">
        <ele>1454</ele>
        <time>2018-12-02T10:08:06.000Z</time>
      </trkpt>
      <trkpt lat="42.92348" lon="0.84283">
        <ele>1455</ele>
        <time>2018-12-02T10:08:08.000Z</time>
      </trkpt>
      <trkpt lat="42.92349" lon="0.84275">
        <ele>1456</ele>
        <time>2018-12-02T10:08:10.000Z</time>
      </trkpt>
      <trkpt lat="42.92349" lon="0.84272">
        <ele>1457</ele>
        <time>2018-12-02T10:08:12.000Z</time>
      </trkpt>
      <trkpt lat="42.92352" lon="0.84269">
        <ele>1458</ele>
        <time>2018-12-02T10:08:14.000Z</time>
      </trkpt>
      <trkpt lat="42.92354" lon="0.84266">
        <ele>1458</ele>
        <time>2018-12-02T10:08:16.000Z</time>
      </trkpt>
      <trkpt lat="42.92355" lon="0.84266">
        <ele>1459</ele>
        <time>2018-12-02T10:08:18.000Z</time>
      </trkpt>
      <trkpt lat="42.92356" lon="0.84265">
        <ele>1459</ele>
        <time>2018-12-02T10:08:20.000Z</time>
      </trkpt>
      <trkpt lat="42.92356" lon="0.84269">
        <ele>1458</ele>
        <time>2018-12-02T10:08:22.000Z</time>
      </trkpt>
      <trkpt lat="42.92358" lon="0.84272">
        <ele>1458</ele>
        <time>2018-12-02T10:08:24.000Z</time>
      </trkpt>
      <trkpt lat="42.92358" lon="0.8427">
        <ele>1458</ele>
        <time>2018-12-02T10:08:26.000Z</time>
      </trkpt>
      <trkpt lat="42.92353" lon="0.84273">
        <ele>1457</ele>
        <time>2018-12-02T10:08:28.000Z</time>
      </trkpt>
      <trkpt lat="42.9235" lon="0.8428">
        <ele>1456</ele>
        <time>2018-12-02T10:08:30.000Z</time>
      </trkpt>
      <trkpt lat="42.92351" lon="0.84284">
        <ele>1455</ele>
        <time>2018-12-02T10:08:32.000Z</time>
      </trkpt>
      <trkpt lat="42.92352" lon="0.84283">
        <ele>1456</ele>
        <time>2018-12-02T10:08:34.000Z</time>
      </trkpt>
      <trkpt lat="42.92353" lon="0.84284">
        <ele>1456</ele>
        <time>2018-12-02T10:08:36.000Z</time>
      </trkpt>
      <trkpt lat="42.92353" lon="0.84284">
        <ele>1456</ele>
        <time>2018-12-02T10:08:38.000Z</time>
      </trkpt>
      <trkpt lat="42.92353" lon="0.84285">
        <ele>1456</ele>
        <time>2018-12-02T10:08:40.000Z</time>
      </trkpt>
      <trkpt lat="42.92354" lon="0.84285">
        <ele>1456</ele>
        <time>2018-12-02T10:08:42.000Z</time>
      </trkpt>
      <trkpt lat="42.92354" lon="0.84285">
        <ele>1456</ele>
        <time>2018-12-02T10:08:44.000Z</time>
      </trkpt>
      <trkpt lat="42.92354" lon="0.84286">
        <ele>1455</ele>
        <time>2018-12-02T10:08:46.000Z</time>
      </trkpt>
      <trkpt lat="42.92353" lon="0.84286">
        <ele>1455</ele>
        <time>2018-12-02T10:08:48.000Z</time>
      </trkpt>
      <trkpt lat="42.92353" lon="0.84287">
        <ele>1455</ele>
        <time>2018-12-02T10:08:50.000Z</time>
      </trkpt>
      <trkpt lat="42.92353" lon="0.84287">
        <ele>1455</ele>
        <time>2018-12-02T10:08:52.000Z</time>
      </trkpt>
      <trkpt lat="42.92353" lon="0.84287">
        <ele>1455</ele>
        <time>2018-12-02T10:08:54.000Z</time>
      </trkpt>
      <trkpt lat="42.92353" lon="0.84287">
        <ele>1455</ele>
        <time>2018-12-02T10:08:56.000Z</time>
      </trkpt>
      <trkpt lat="42.92352" lon="0.84288">
        <ele>1455</ele>
        <time>2018-12-02T10:08:58.000Z</time>
      </trkpt>
      <trkpt lat="42.92353" lon="0.84288">
        <ele>1455</ele>
        <time>2018-12-02T10:09:00.000Z</time>
      </trkpt>
      <trkpt lat="42.92352" lon="0.84288">
        <ele>1455</ele>
        <time>2018-12-02T10:09:02.000Z</time>
      </trkpt>
      <trkpt lat="42.92352" lon="0.84286">
        <ele>1455</ele>
        <time>2018-12-02T10:09:04.000Z</time>
      </trkpt>
      <trkpt lat="42.92352" lon="0.84284">
        <ele>1455</ele>
        <time>2018-12-02T10:09:06.000Z</time>
      </trkpt>
      <trkpt lat="42.92351" lon="0.84284">
        <ele>1455</ele>
        <time>2018-12-02T10:09:08.000Z</time>
      </trkpt>
      <trkpt lat="42.92351" lon="0.84283">
        <ele>1455</ele>
        <time>2018-12-02T10:09:10.000Z</time>
      </trkpt>
      <trkpt lat="42.92351" lon="0.84284">
        <ele>1455</ele>
        <time>2018-12-02T10:09:12.000Z</time>
      </trkpt>
      <trkpt lat="42.92351" lon="0.84284">
        <ele>1455</ele>
        <time>2018-12-02T10:09:14.000Z</time>
      </trkpt>
      <trkpt lat="42.92352" lon="0.84284">
        <ele>1455</ele>
        <time>2018-12-02T10:09:16.000Z</time>
      </trkpt>
      <trkpt lat="42.92352" lon="0.84284">
        <ele>1455</ele>
        <time>2018-12-02T10:09:18.000Z</time>
      </trkpt>
      <trkpt lat="42.92352" lon="0.84284">
        <ele>1455</ele>
        <time>2018-12-02T10:09:20.000Z</time>
      </trkpt>
      <trkpt lat="42.92352" lon="0.84284">
        <ele>1455</ele>
        <time>2018-12-02T10:09:22.000Z</time>
      </trkpt>
      <trkpt lat="42.92352" lon="0.84285">
        <ele>1455</ele>
        <time>2018-12-02T10:09:24.000Z</time>
      </trkpt>
      <trkpt lat="42.92352" lon="0.84285">
        <ele>1455</ele>
        <time>2018-12-02T10:09:26.000Z</time>
      </trkpt>
      <trkpt lat="42.92352" lon="0.84285">
        <ele>1455</ele>
        <time>2018-12-02T10:09:28.000Z</time>
      </trkpt>
      <trkpt lat="42.92352" lon="0.84285">
        <ele>1455</ele>
        <time>2018-12-02T10:09:30.000Z</time>
      </trkpt>
      <trkpt lat="42.92353" lon="0.84285">
        <ele>1456</ele>
        <time>2018-12-02T10:09:32.000Z</time>
      </trkpt>
      <trkpt lat="42.92353" lon="0.84285">
        <ele>1456</ele>
        <time>2018-12-02T10:09:34.000Z</time>
      </trkpt>
      <trkpt lat="42.92353" lon="0.84284">
        <ele>1456</ele>
        <time>2018-12-02T10:09:36.000Z</time>
      </trkpt>
      <trkpt lat="42.92353" lon="0.84284">
        <ele>1456</ele>
        <time>2018-12-02T10:09:38.000Z</time>
      </trkpt>
      <trkpt lat="42.92353" lon="0.84284">
        <ele>1456</ele>
        <time>2018-12-02T10:09:40.000Z</time>
      </trkpt>
      <trkpt lat="42.92353" lon="0.84284">
        <ele>1456</ele>
        <time>2018-12-02T10:09:42.000Z</time>
      </trkpt>
      <trkpt lat="42.92352" lon="0.84285">
        <ele>1455</ele>
        <time>2018-12-02T10:09:44.000Z</time>
      </trkpt>
      <trkpt lat="42.92352" lon="0.84285">
        <ele>1455</ele>
        <time>2018-12-02T10:09:46.000Z</time>
      </trkpt>
      <trkpt lat="42.92352" lon="0.84285">
        <ele>1455</ele>
        <time>2018-12-02T10:09:48.000Z</time>
      </trkpt>
      <trkpt lat="42.92352" lon="0.84285">
        <ele>1455</ele>
        <time>2018-12-02T10:09:50.000Z</time>
      </trkpt>
      <trkpt lat="42.92352" lon="0.84285">
        <ele>1455</ele>
        <time>2018-12-02T10:09:52.000Z</time>
      </trkpt>
      <trkpt lat="42.92352" lon="0.84285">
        <ele>1455</ele>
        <time>2018-12-02T10:09:54.000Z</time>
      </trkpt>
      <trkpt lat="42.92352" lon="0.84285">
        <ele>1455</ele>
        <time>2018-12-02T10:09:56.000Z</time>
      </trkpt>
      <trkpt lat="42.92352" lon="0.84285">
        <ele>1455</ele>
        <time>2018-12-02T10:09:58.000Z</time>
      </trkpt>
      <trkpt lat="42.92352" lon="0.84285">
        <ele>1455</ele>
        <time>2018-12-02T10:10:00.000Z</time>
      </trkpt>
      <trkpt lat="42.92352" lon="0.84285">
        <ele>1455</ele>
        <time>2018-12-02T10:10:02.000Z</time>
      </trkpt>
      <trkpt lat="42.92353" lon="0.84284">
        <ele>1456</ele>
        <time>2018-12-02T10:10:04.000Z</time>
      </trkpt>
      <trkpt lat="42.92353" lon="0.84285">
        <ele>1456</ele>
        <time>2018-12-02T10:10:06.000Z</time>
      </trkpt>
      <trkpt lat="42.92353" lon="0.84285">
        <ele>1456</ele>
        <time>2018-12-02T10:10:08.000Z</time>
      </trkpt>
      <trkpt lat="42.92354" lon="0.84284">
        <ele>1456</ele>
        <time>2018-12-02T10:10:10.000Z</time>
      </trkpt>
      <trkpt lat="42.92354" lon="0.84284">
        <ele>1456</ele>
        <time>2018-12-02T10:10:12.000Z</time>
      </trkpt>
      <trkpt lat="42.92354" lon="0.84284">
        <ele>1456</ele>
        <time>2018-12-02T10:10:14.000Z</time>
      </trkpt>
      <trkpt lat="42.92354" lon="0.84284">
        <ele>1456</ele>
        <time>2018-12-02T10:10:16.000Z</time>
      </trkpt>
      <trkpt lat="42.92354" lon="0.84284">
        <ele>1456</ele>
        <time>2018-12-02T10:10:18.000Z</time>
      </trkpt>
      <trkpt lat="42.92354" lon="0.84284">
        <ele>1456</ele>
        <time>2018-12-02T10:10:20.000Z</time>
      </trkpt>
      <trkpt lat="42.92354" lon="0.84283">
        <ele>1456</ele>
        <time>2018-12-02T10:10:22.000Z</time>
      </trkpt>
      <trkpt lat="42.92354" lon="0.84283">
        <ele>1456</ele>
        <time>2018-12-02T10:10:24.000Z</time>
      </trkpt>
      <trkpt lat="42.92355" lon="0.84283">
        <ele>1456</ele>
        <time>2018-12-02T10:10:26.000Z</time>
      </trkpt>
      <trkpt lat="42.92355" lon="0.84283">
        <ele>1456</ele>
        <time>2018-12-02T10:10:28.000Z</time>
      </trkpt>
      <trkpt lat="42.92355" lon="0.84283">
        <ele>1456</ele>
        <time>2018-12-02T10:10:30.000Z</time>
      </trkpt>
      <trkpt lat="42.92355" lon="0.84283">
        <ele>1456</ele>
        <time>2018-12-02T10:10:32.000Z</time>
      </trkpt>
      <trkpt lat="42.92355" lon="0.84283">
        <ele>1456</ele>
        <time>2018-12-02T10:10:34.000Z</time>
      </trkpt>
      <trkpt lat="42.92355" lon="0.84283">
        <ele>1456</ele>
        <time>2018-12-02T10:10:36.000Z</time>
      </trkpt>
      <trkpt lat="42.92355" lon="0.84284">
        <ele>1456</ele>
        <time>2018-12-02T10:10:38.000Z</time>
      </trkpt>
      <trkpt lat="42.92355" lon="0.84284">
        <ele>1456</ele>
        <time>2018-12-02T10:10:40.000Z</time>
      </trkpt>
      <trkpt lat="42.92354" lon="0.84284">
        <ele>1456</ele>
        <time>2018-12-02T10:10:42.000Z</time>
      </trkpt>
      <trkpt lat="42.92354" lon="0.84284">
        <ele>1456</ele>
        <time>2018-12-02T10:10:44.000Z</time>
      </trkpt>
      <trkpt lat="42.92354" lon="0.84285">
        <ele>1456</ele>
        <time>2018-12-02T10:10:46.000Z</time>
      </trkpt>
      <trkpt lat="42.92354" lon="0.84285">
        <ele>1456</ele>
        <time>2018-12-02T10:10:48.000Z</time>
      </trkpt>
      <trkpt lat="42.92354" lon="0.84285">
        <ele>1456</ele>
        <time>2018-12-02T10:10:50.000Z</time>
      </trkpt>
      <trkpt lat="42.92354" lon="0.84284">
        <ele>1456</ele>
        <time>2018-12-02T10:10:52.000Z</time>
      </trkpt>
      <trkpt lat="42.92354" lon="0.84285">
        <ele>1456</ele>
        <time>2018-12-02T10:10:54.000Z</time>
      </trkpt>
      <trkpt lat="42.92354" lon="0.84284">
        <ele>1456</ele>
        <time>2018-12-02T10:10:56.000Z</time>
      </trkpt>
      <trkpt lat="42.92354" lon="0.84284">
        <ele>1456</ele>
        <time>2018-12-02T10:10:58.000Z</time>
      </trkpt>
      <trkpt lat="42.92354" lon="0.84284">
        <ele>1456</ele>
        <time>2018-12-02T10:11:00.000Z</time>
      </trkpt>
      <trkpt lat="42.92354" lon="0.84284">
        <ele>1456</ele>
        <time>2018-12-02T10:11:02.000Z</time>
      </trkpt>
      <trkpt lat="42.92355" lon="0.84284">
        <ele>1456</ele>
        <time>2018-12-02T10:11:04.000Z</time>
      </trkpt>
      <trkpt lat="42.92355" lon="0.84284">
        <ele>1456</ele>
        <time>2018-12-02T10:11:06.000Z</time>
      </trkpt>
      <trkpt lat="42.92355" lon="0.84284">
        <ele>1456</ele>
        <time>2018-12-02T10:11:08.000Z</time>
      </trkpt>
      <trkpt lat="42.92355" lon="0.84284">
        <ele>1456</ele>
        <time>2018-12-02T10:11:10.000Z</time>
      </trkpt>
      <trkpt lat="42.92354" lon="0.84284">
        <ele>1456</ele>
        <time>2018-12-02T10:11:12.000Z</time>
      </trkpt>
      <trkpt lat="42.92354" lon="0.84284">
        <ele>1456</ele>
        <time>2018-12-02T10:11:14.000Z</time>
      </trkpt>
      <trkpt lat="42.92354" lon="0.84284">
        <ele>1456</ele>
        <time>2018-12-02T10:11:16.000Z</time>
      </trkpt>
      <trkpt lat="42.92354" lon="0.84285">
        <ele>1456</ele>
        <time>2018-12-02T10:11:18.000Z</time>
      </trkpt>
      <trkpt lat="42.92354" lon="0.84285">
        <ele>1456</ele>
        <time>2018-12-02T10:11:20.000Z</time>
      </trkpt>
      <trkpt lat="42.92354" lon="0.84285">
        <ele>1456</ele>
        <time>2018-12-02T10:11:22.000Z</time>
      </trkpt>
      <trkpt lat="42.92354" lon="0.84285">
        <ele>1456</ele>
        <time>2018-12-02T10:11:24.000Z</time>
      </trkpt>
      <trkpt lat="42.92354" lon="0.84286">
        <ele>1456</ele>
        <time>2018-12-02T10:11:26.000Z</time>
      </trkpt>
      <trkpt lat="42.92354" lon="0.84286">
        <ele>1456</ele>
        <time>2018-12-02T10:11:28.000Z</time>
      </trkpt>
      <trkpt lat="42.92354" lon="0.84286">
        <ele>1456</ele>
        <time>2018-12-02T10:11:30.000Z</time>
      </trkpt>
      <trkpt lat="42.92354" lon="0.84286">
        <ele>1456</ele>
        <time>2018-12-02T10:11:32.000Z</time>
      </trkpt>
      <trkpt lat="42.92354" lon="0.84286">
        <ele>1456</ele>
        <time>2018-12-02T10:11:34.000Z</time>
      </trkpt>
      <trkpt lat="42.92354" lon="0.84286">
        <ele>1456</ele>
        <time>2018-12-02T10:11:36.000Z</time>
      </trkpt>
      <trkpt lat="42.92354" lon="0.84286">
        <ele>1456</ele>
        <time>2018-12-02T10:11:38.000Z</time>
      </trkpt>
      <trkpt lat="42.92354" lon="0.84286">
        <ele>1455</ele>
        <time>2018-12-02T10:11:40.000Z</time>
      </trkpt>
      <trkpt lat="42.92354" lon="0.84286">
        <ele>1455</ele>
        <time>2018-12-02T10:11:42.000Z</time>
      </trkpt>
      <trkpt lat="42.92354" lon="0.84286">
        <ele>1455</ele>
        <time>2018-12-02T10:11:44.000Z</time>
      </trkpt>
      <trkpt lat="42.92354" lon="0.84286">
        <ele>1455</ele>
        <time>2018-12-02T10:11:46.000Z</time>
      </trkpt>
      <trkpt lat="42.92354" lon="0.84286">
        <ele>1455</ele>
        <time>2018-12-02T10:11:48.000Z</time>
      </trkpt>
      <trkpt lat="42.92354" lon="0.84286">
        <ele>1455</ele>
        <time>2018-12-02T10:11:50.000Z</time>
      </trkpt>
      <trkpt lat="42.92354" lon="0.84286">
        <ele>1455</ele>
        <time>2018-12-02T10:11:52.000Z</time>
      </trkpt>
      <trkpt lat="42.92354" lon="0.84286">
        <ele>1455</ele>
        <time>2018-12-02T10:11:54.000Z</time>
      </trkpt>
      <trkpt lat="42.92354" lon="0.84286">
        <ele>1455</ele>
        <time>2018-12-02T10:11:56.000Z</time>
      </trkpt>
      <trkpt lat="42.92354" lon="0.84286">
        <ele>1456</ele>
        <time>2018-12-02T10:11:58.000Z</time>
      </trkpt>
      <trkpt lat="42.92354" lon="0.84285">
        <ele>1456</ele>
        <time>2018-12-02T10:12:00.000Z</time>
      </trkpt>
      <trkpt lat="42.92354" lon="0.84285">
        <ele>1456</ele>
        <time>2018-12-02T10:12:02.000Z</time>
      </trkpt>
      <trkpt lat="42.92354" lon="0.84285">
        <ele>1456</ele>
        <time>2018-12-02T10:12:04.000Z</time>
      </trkpt>
      <trkpt lat="42.92354" lon="0.84286">
        <ele>1456</ele>
        <time>2018-12-02T10:12:06.000Z</time>
      </trkpt>
      <trkpt lat="42.92354" lon="0.84286">
        <ele>1455</ele>
        <time>2018-12-02T10:12:08.000Z</time>
      </trkpt>
      <trkpt lat="42.92354" lon="0.84286">
        <ele>1455</ele>
        <time>2018-12-02T10:12:10.000Z</time>
      </trkpt>
      <trkpt lat="42.92354" lon="0.84286">
        <ele>1455</ele>
        <time>2018-12-02T10:12:12.000Z</time>
      </trkpt>
      <trkpt lat="42.92354" lon="0.84286">
        <ele>1455</ele>
        <time>2018-12-02T10:12:14.000Z</time>
      </trkpt>
      <trkpt lat="42.92354" lon="0.84287">
        <ele>1455</ele>
        <time>2018-12-02T10:12:16.000Z</time>
      </trkpt>
      <trkpt lat="42.92354" lon="0.84287">
        <ele>1455</ele>
        <time>2018-12-02T10:12:18.000Z</time>
      </trkpt>
      <trkpt lat="42.92354" lon="0.84287">
        <ele>1455</ele>
        <time>2018-12-02T10:12:20.000Z</time>
      </trkpt>
      <trkpt lat="42.92354" lon="0.84287">
        <ele>1455</ele>
        <time>2018-12-02T10:12:22.000Z</time>
      </trkpt>
      <trkpt lat="42.92354" lon="0.84287">
        <ele>1455</ele>
        <time>2018-12-02T10:12:24.000Z</time>
      </trkpt>
      <trkpt lat="42.92354" lon="0.84287">
        <ele>1455</ele>
        <time>2018-12-02T10:12:26.000Z</time>
      </trkpt>
      <trkpt lat="42.92354" lon="0.84287">
        <ele>1455</ele>
        <time>2018-12-02T10:12:28.000Z</time>
      </trkpt>
      <trkpt lat="42.92355" lon="0.84287">
        <ele>1455</ele>
        <time>2018-12-02T10:12:30.000Z</time>
      </trkpt>
      <trkpt lat="42.92355" lon="0.84287">
        <ele>1455</ele>
        <time>2018-12-02T10:12:32.000Z</time>
      </trkpt>
      <trkpt lat="42.92355" lon="0.84287">
        <ele>1455</ele>
        <time>2018-12-02T10:12:34.000Z</time>
      </trkpt>
      <trkpt lat="42.92355" lon="0.84287">
        <ele>1456</ele>
        <time>2018-12-02T10:12:36.000Z</time>
      </trkpt>
      <trkpt lat="42.92355" lon="0.84286">
        <ele>1456</ele>
        <time>2018-12-02T10:12:38.000Z</time>
      </trkpt>
      <trkpt lat="42.92355" lon="0.84286">
        <ele>1456</ele>
        <time>2018-12-02T10:12:40.000Z</time>
      </trkpt>
      <trkpt lat="42.92356" lon="0.84285">
        <ele>1456</ele>
        <time>2018-12-02T10:12:42.000Z</time>
      </trkpt>
      <trkpt lat="42.92356" lon="0.84285">
        <ele>1456</ele>
        <time>2018-12-02T10:12:44.000Z</time>
      </trkpt>
      <trkpt lat="42.92356" lon="0.84285">
        <ele>1456</ele>
        <time>2018-12-02T10:12:46.000Z</time>
      </trkpt>
      <trkpt lat="42.92356" lon="0.84284">
        <ele>1456</ele>
        <time>2018-12-02T10:12:48.000Z</time>
      </trkpt>
      <trkpt lat="42.92356" lon="0.84284">
        <ele>1456</ele>
        <time>2018-12-02T10:12:50.000Z</time>
      </trkpt>
      <trkpt lat="42.92356" lon="0.84284">
        <ele>1456</ele>
        <time>2018-12-02T10:12:52.000Z</time>
      </trkpt>
      <trkpt lat="42.92356" lon="0.84284">
        <ele>1456</ele>
        <time>2018-12-02T10:12:54.000Z</time>
      </trkpt>
      <trkpt lat="42.92356" lon="0.84284">
        <ele>1456</ele>
        <time>2018-12-02T10:12:56.000Z</time>
      </trkpt>
      <trkpt lat="42.92356" lon="0.84283">
        <ele>1456</ele>
        <time>2018-12-02T10:12:58.000Z</time>
      </trkpt>
      <trkpt lat="42.92356" lon="0.84283">
        <ele>1456</ele>
        <time>2018-12-02T10:13:00.000Z</time>
      </trkpt>
      <trkpt lat="42.92356" lon="0.84283">
        <ele>1456</ele>
        <time>2018-12-02T10:13:02.000Z</time>
      </trkpt>
      <trkpt lat="42.92356" lon="0.84283">
        <ele>1456</ele>
        <time>2018-12-02T10:13:04.000Z</time>
      </trkpt>
      <trkpt lat="42.92356" lon="0.84282">
        <ele>1456</ele>
        <time>2018-12-02T10:13:06.000Z</time>
      </trkpt>
      <trkpt lat="42.92355" lon="0.84282">
        <ele>1456</ele>
        <time>2018-12-02T10:13:08.000Z</time>
      </trkpt>
      <trkpt lat="42.92355" lon="0.84281">
        <ele>1456</ele>
        <time>2018-12-02T10:13:10.000Z</time>
      </trkpt>
      <trkpt lat="42.92355" lon="0.8428">
        <ele>1456</ele>
        <time>2018-12-02T10:13:12.000Z</time>
      </trkpt>
      <trkpt lat="42.92355" lon="0.8428">
        <ele>1456</ele>
        <time>2018-12-02T10:13:14.000Z</time>
      </trkpt>
      <trkpt lat="42.92355" lon="0.84279">
        <ele>1457</ele>
        <time>2018-12-02T10:13:16.000Z</time>
      </trkpt>
      <trkpt lat="42.92355" lon="0.84279">
        <ele>1457</ele>
        <time>2018-12-02T10:13:18.000Z</time>
      </trkpt>
      <trkpt lat="42.92355" lon="0.84279">
        <ele>1457</ele>
        <time>2018-12-02T10:13:20.000Z</time>
      </trkpt>
      <trkpt lat="42.92355" lon="0.84278">
        <ele>1457</ele>
        <time>2018-12-02T10:13:22.000Z</time>
      </trkpt>
      <trkpt lat="42.92355" lon="0.84277">
        <ele>1457</ele>
        <time>2018-12-02T10:13:24.000Z</time>
      </trkpt>
      <trkpt lat="42.92355" lon="0.84276">
        <ele>1457</ele>
        <time>2018-12-02T10:13:26.000Z</time>
      </trkpt>
      <trkpt lat="42.92355" lon="0.84276">
        <ele>1457</ele>
        <time>2018-12-02T10:13:28.000Z</time>
      </trkpt>
      <trkpt lat="42.92355" lon="0.84275">
        <ele>1457</ele>
        <time>2018-12-02T10:13:30.000Z</time>
      </trkpt>
      <trkpt lat="42.92355" lon="0.84274">
        <ele>1457</ele>
        <time>2018-12-02T10:13:32.000Z</time>
      </trkpt>
      <trkpt lat="42.92355" lon="0.84275">
        <ele>1457</ele>
        <time>2018-12-02T10:13:34.000Z</time>
      </trkpt>
      <trkpt lat="42.92355" lon="0.84275">
        <ele>1457</ele>
        <time>2018-12-02T10:13:36.000Z</time>
      </trkpt>
      <trkpt lat="42.92355" lon="0.84275">
        <ele>1457</ele>
        <time>2018-12-02T10:13:38.000Z</time>
      </trkpt>
      <trkpt lat="42.92356" lon="0.84277">
        <ele>1457</ele>
        <time>2018-12-02T10:13:40.000Z</time>
      </trkpt>
      <trkpt lat="42.92356" lon="0.8428">
        <ele>1457</ele>
        <time>2018-12-02T10:13:42.000Z</time>
      </trkpt>
      <trkpt lat="42.92356" lon="0.84282">
        <ele>1456</ele>
        <time>2018-12-02T10:13:44.000Z</time>
      </trkpt>
      <trkpt lat="42.92356" lon="0.84282">
        <ele>1456</ele>
        <time>2018-12-02T10:13:47.000Z</time>
      </trkpt>
      <trkpt lat="42.92356" lon="0.84283">
        <ele>1456</ele>
        <time>2018-12-02T10:13:49.000Z</time>
      </trkpt>
      <trkpt lat="42.92355" lon="0.84284">
        <ele>1456</ele>
        <time>2018-12-02T10:13:51.000Z</time>
      </trkpt>
      <trkpt lat="42.92355" lon="0.84284">
        <ele>1456</ele>
        <time>2018-12-02T10:13:53.000Z</time>
      </trkpt>
      <trkpt lat="42.92355" lon="0.84285">
        <ele>1456</ele>
        <time>2018-12-02T10:13:55.000Z</time>
      </trkpt>
      <trkpt lat="42.92355" lon="0.84285">
        <ele>1456</ele>
        <time>2018-12-02T10:13:57.000Z</time>
      </trkpt>
      <trkpt lat="42.92356" lon="0.84285">
        <ele>1456</ele>
        <time>2018-12-02T10:13:59.000Z</time>
      </trkpt>
      <trkpt lat="42.92356" lon="0.84285">
        <ele>1456</ele>
        <time>2018-12-02T10:14:01.000Z</time>
      </trkpt>
      <trkpt lat="42.92356" lon="0.84285">
        <ele>1456</ele>
        <time>2018-12-02T10:14:03.000Z</time>
      </trkpt>
      <trkpt lat="42.92355" lon="0.84285">
        <ele>1456</ele>
        <time>2018-12-02T10:14:05.000Z</time>
      </trkpt>
      <trkpt lat="42.92355" lon="0.84285">
        <ele>1456</ele>
        <time>2018-12-02T10:14:07.000Z</time>
      </trkpt>
      <trkpt lat="42.92355" lon="0.84285">
        <ele>1456</ele>
        <time>2018-12-02T10:14:09.000Z</time>
      </trkpt>
      <trkpt lat="42.92356" lon="0.84285">
        <ele>1456</ele>
        <time>2018-12-02T10:14:11.000Z</time>
      </trkpt>
      <trkpt lat="42.92355" lon="0.84285">
        <ele>1456</ele>
        <time>2018-12-02T10:14:13.000Z</time>
      </trkpt>
      <trkpt lat="42.92356" lon="0.84285">
        <ele>1456</ele>
        <time>2018-12-02T10:14:15.000Z</time>
      </trkpt>
      <trkpt lat="42.92356" lon="0.84285">
        <ele>1456</ele>
        <time>2018-12-02T10:14:17.000Z</time>
      </trkpt>
      <trkpt lat="42.92356" lon="0.84285">
        <ele>1456</ele>
        <time>2018-12-02T10:14:19.000Z</time>
      </trkpt>
      <trkpt lat="42.92355" lon="0.84285">
        <ele>1456</ele>
        <time>2018-12-02T10:14:21.000Z</time>
      </trkpt>
      <trkpt lat="42.92355" lon="0.84285">
        <ele>1456</ele>
        <time>2018-12-02T10:14:23.000Z</time>
      </trkpt>
      <trkpt lat="42.92355" lon="0.84285">
        <ele>1456</ele>
        <time>2018-12-02T10:14:25.000Z</time>
      </trkpt>
      <trkpt lat="42.92355" lon="0.84285">
        <ele>1456</ele>
        <time>2018-12-02T10:14:27.000Z</time>
      </trkpt>
      <trkpt lat="42.92355" lon="0.84286">
        <ele>1456</ele>
        <time>2018-12-02T10:14:29.000Z</time>
      </trkpt>
      <trkpt lat="42.92355" lon="0.84286">
        <ele>1456</ele>
        <time>2018-12-02T10:14:31.000Z</time>
      </trkpt>
      <trkpt lat="42.92355" lon="0.84286">
        <ele>1456</ele>
        <time>2018-12-02T10:14:33.000Z</time>
      </trkpt>
      <trkpt lat="42.92355" lon="0.84286">
        <ele>1456</ele>
        <time>2018-12-02T10:14:35.000Z</time>
      </trkpt>
      <trkpt lat="42.92355" lon="0.84287">
        <ele>1455</ele>
        <time>2018-12-02T10:14:37.000Z</time>
      </trkpt>
      <trkpt lat="42.92355" lon="0.84287">
        <ele>1455</ele>
        <time>2018-12-02T10:14:39.000Z</time>
      </trkpt>
      <trkpt lat="42.92354" lon="0.84287">
        <ele>1455</ele>
        <time>2018-12-02T10:14:41.000Z</time>
      </trkpt>
      <trkpt lat="42.92354" lon="0.84287">
        <ele>1455</ele>
        <time>2018-12-02T10:14:43.000Z</time>
      </trkpt>
      <trkpt lat="42.92354" lon="0.84288">
        <ele>1455</ele>
        <time>2018-12-02T10:14:45.000Z</time>
      </trkpt>
      <trkpt lat="42.92354" lon="0.84288">
        <ele>1455</ele>
        <time>2018-12-02T10:14:47.000Z</time>
      </trkpt>
      <trkpt lat="42.92354" lon="0.84288">
        <ele>1455</ele>
        <time>2018-12-02T10:14:49.000Z</time>
      </trkpt>
      <trkpt lat="42.92355" lon="0.84287">
        <ele>1455</ele>
        <time>2018-12-02T10:14:51.000Z</time>
      </trkpt>
      <trkpt lat="42.92355" lon="0.84287">
        <ele>1455</ele>
        <time>2018-12-02T10:14:53.000Z</time>
      </trkpt>
      <trkpt lat="42.92355" lon="0.84287">
        <ele>1455</ele>
        <time>2018-12-02T10:14:55.000Z</time>
      </trkpt>
      <trkpt lat="42.92355" lon="0.84286">
        <ele>1455</ele>
        <time>2018-12-02T10:14:57.000Z</time>
      </trkpt>
      <trkpt lat="42.92355" lon="0.84286">
        <ele>1456</ele>
        <time>2018-12-02T10:14:59.000Z</time>
      </trkpt>
      <trkpt lat="42.92354" lon="0.84286">
        <ele>1455</ele>
        <time>2018-12-02T10:15:01.000Z</time>
      </trkpt>
      <trkpt lat="42.92354" lon="0.84287">
        <ele>1455</ele>
        <time>2018-12-02T10:15:03.000Z</time>
      </trkpt>
      <trkpt lat="42.92354" lon="0.84287">
        <ele>1455</ele>
        <time>2018-12-02T10:15:05.000Z</time>
      </trkpt>
      <trkpt lat="42.92354" lon="0.84287">
        <ele>1455</ele>
        <time>2018-12-02T10:15:07.000Z</time>
      </trkpt>
      <trkpt lat="42.92355" lon="0.84287">
        <ele>1455</ele>
        <time>2018-12-02T10:15:09.000Z</time>
      </trkpt>
      <trkpt lat="42.92355" lon="0.84287">
        <ele>1455</ele>
        <time>2018-12-02T10:15:11.000Z</time>
      </trkpt>
      <trkpt lat="42.92354" lon="0.84287">
        <ele>1455</ele>
        <time>2018-12-02T10:15:13.000Z</time>
      </trkpt>
      <trkpt lat="42.92355" lon="0.84287">
        <ele>1455</ele>
        <time>2018-12-02T10:15:16.000Z</time>
      </trkpt>
      <trkpt lat="42.92355" lon="0.84287">
        <ele>1455</ele>
        <time>2018-12-02T10:15:18.000Z</time>
      </trkpt>
      <trkpt lat="42.92355" lon="0.84286">
        <ele>1456</ele>
        <time>2018-12-02T10:15:20.000Z</time>
      </trkpt>
      <trkpt lat="42.92355" lon="0.84286">
        <ele>1456</ele>
        <time>2018-12-02T10:15:22.000Z</time>
      </trkpt>
      <trkpt lat="42.92355" lon="0.84286">
        <ele>1456</ele>
        <time>2018-12-02T10:15:24.000Z</time>
      </trkpt>
      <trkpt lat="42.92355" lon="0.84286">
        <ele>1456</ele>
        <time>2018-12-02T10:15:26.000Z</time>
      </trkpt>
      <trkpt lat="42.92355" lon="0.84287">
        <ele>1455</ele>
        <time>2018-12-02T10:15:28.000Z</time>
      </trkpt>
      <trkpt lat="42.92354" lon="0.84287">
        <ele>1455</ele>
        <time>2018-12-02T10:15:30.000Z</time>
      </trkpt>
      <trkpt lat="42.92354" lon="0.84288">
        <ele>1455</ele>
        <time>2018-12-02T10:15:32.000Z</time>
      </trkpt>
      <trkpt lat="42.92354" lon="0.84288">
        <ele>1455</ele>
        <time>2018-12-02T10:15:34.000Z</time>
      </trkpt>
      <trkpt lat="42.92355" lon="0.84288">
        <ele>1455</ele>
        <time>2018-12-02T10:15:36.000Z</time>
      </trkpt>
      <trkpt lat="42.92355" lon="0.84288">
        <ele>1455</ele>
        <time>2018-12-02T10:15:38.000Z</time>
      </trkpt>
      <trkpt lat="42.92354" lon="0.84288">
        <ele>1455</ele>
        <time>2018-12-02T10:15:40.000Z</time>
      </trkpt>
      <trkpt lat="42.92354" lon="0.84288">
        <ele>1455</ele>
        <time>2018-12-02T10:15:42.000Z</time>
      </trkpt>
      <trkpt lat="42.92354" lon="0.84288">
        <ele>1455</ele>
        <time>2018-12-02T10:15:44.000Z</time>
      </trkpt>
      <trkpt lat="42.92354" lon="0.84287">
        <ele>1455</ele>
        <time>2018-12-02T10:15:46.000Z</time>
      </trkpt>
      <trkpt lat="42.92354" lon="0.84287">
        <ele>1455</ele>
        <time>2018-12-02T10:15:48.000Z</time>
      </trkpt>
      <trkpt lat="42.92355" lon="0.84287">
        <ele>1455</ele>
        <time>2018-12-02T10:15:50.000Z</time>
      </trkpt>
      <trkpt lat="42.92355" lon="0.84287">
        <ele>1455</ele>
        <time>2018-12-02T10:15:52.000Z</time>
      </trkpt>
      <trkpt lat="42.92355" lon="0.84287">
        <ele>1455</ele>
        <time>2018-12-02T10:15:54.000Z</time>
      </trkpt>
      <trkpt lat="42.92355" lon="0.84287">
        <ele>1455</ele>
        <time>2018-12-02T10:15:56.000Z</time>
      </trkpt>
      <trkpt lat="42.92355" lon="0.84287">
        <ele>1455</ele>
        <time>2018-12-02T10:15:58.000Z</time>
      </trkpt>
      <trkpt lat="42.92355" lon="0.84287">
        <ele>1455</ele>
        <time>2018-12-02T10:16:00.000Z</time>
      </trkpt>
      <trkpt lat="42.92355" lon="0.84287">
        <ele>1455</ele>
        <time>2018-12-02T10:16:02.000Z</time>
      </trkpt>
      <trkpt lat="42.92355" lon="0.84287">
        <ele>1455</ele>
        <time>2018-12-02T10:16:04.000Z</time>
      </trkpt>
      <trkpt lat="42.92355" lon="0.84287">
        <ele>1455</ele>
        <time>2018-12-02T10:16:06.000Z</time>
      </trkpt>
      <trkpt lat="42.92355" lon="0.84287">
        <ele>1455</ele>
        <time>2018-12-02T10:16:08.000Z</time>
      </trkpt>
      <trkpt lat="42.92355" lon="0.84287">
        <ele>1455</ele>
        <time>2018-12-02T10:16:10.000Z</time>
      </trkpt>
      <trkpt lat="42.92355" lon="0.84287">
        <ele>1456</ele>
        <time>2018-12-02T10:16:12.000Z</time>
      </trkpt>
      <trkpt lat="42.92355" lon="0.84287">
        <ele>1456</ele>
        <time>2018-12-02T10:16:14.000Z</time>
      </trkpt>
      <trkpt lat="42.92355" lon="0.84287">
        <ele>1456</ele>
        <time>2018-12-02T10:16:16.000Z</time>
      </trkpt>
      <trkpt lat="42.92355" lon="0.84286">
        <ele>1456</ele>
        <time>2018-12-02T10:16:18.000Z</time>
      </trkpt>
      <trkpt lat="42.92355" lon="0.84286">
        <ele>1456</ele>
        <time>2018-12-02T10:16:20.000Z</time>
      </trkpt>
      <trkpt lat="42.92355" lon="0.84286">
        <ele>1456</ele>
        <time>2018-12-02T10:16:22.000Z</time>
      </trkpt>
      <trkpt lat="42.92355" lon="0.84286">
        <ele>1456</ele>
        <time>2018-12-02T10:16:24.000Z</time>
      </trkpt>
      <trkpt lat="42.92355" lon="0.84287">
        <ele>1455</ele>
        <time>2018-12-02T10:16:26.000Z</time>
      </trkpt>
      <trkpt lat="42.92355" lon="0.84286">
        <ele>1455</ele>
        <time>2018-12-02T10:16:28.000Z</time>
      </trkpt>
      <trkpt lat="42.92355" lon="0.84286">
        <ele>1455</ele>
        <time>2018-12-02T10:16:30.000Z</time>
      </trkpt>
      <trkpt lat="42.92354" lon="0.84286">
        <ele>1455</ele>
        <time>2018-12-02T10:16:32.000Z</time>
      </trkpt>
      <trkpt lat="42.92354" lon="0.84286">
        <ele>1455</ele>
        <time>2018-12-02T10:16:34.000Z</time>
      </trkpt>
      <trkpt lat="42.92354" lon="0.84286">
        <ele>1455</ele>
        <time>2018-12-02T10:16:36.000Z</time>
      </trkpt>
      <trkpt lat="42.92354" lon="0.84286">
        <ele>1455</ele>
        <time>2018-12-02T10:16:38.000Z</time>
      </trkpt>
      <trkpt lat="42.92354" lon="0.84286">
        <ele>1455</ele>
        <time>2018-12-02T10:16:40.000Z</time>
      </trkpt>
      <trkpt lat="42.92354" lon="0.84286">
        <ele>1455</ele>
        <time>2018-12-02T10:16:42.000Z</time>
      </trkpt>
      <trkpt lat="42.92354" lon="0.84286">
        <ele>1455</ele>
        <time>2018-12-02T10:16:44.000Z</time>
      </trkpt>
      <trkpt lat="42.92354" lon="0.84287">
        <ele>1455</ele>
        <time>2018-12-02T10:16:46.000Z</time>
      </trkpt>
      <trkpt lat="42.92354" lon="0.84287">
        <ele>1455</ele>
        <time>2018-12-02T10:16:48.000Z</time>
      </trkpt>
      <trkpt lat="42.92354" lon="0.84287">
        <ele>1455</ele>
        <time>2018-12-02T10:16:50.000Z</time>
      </trkpt>
      <trkpt lat="42.92354" lon="0.84287">
        <ele>1455</ele>
        <time>2018-12-02T10:16:52.000Z</time>
      </trkpt>
      <trkpt lat="42.92354" lon="0.84287">
        <ele>1455</ele>
        <time>2018-12-02T10:16:54.000Z</time>
      </trkpt>
      <trkpt lat="42.92354" lon="0.84287">
        <ele>1455</ele>
        <time>2018-12-02T10:16:56.000Z</time>
      </trkpt>
      <trkpt lat="42.92354" lon="0.84287">
        <ele>1455</ele>
        <time>2018-12-02T10:16:58.000Z</time>
      </trkpt>
      <trkpt lat="42.92354" lon="0.84287">
        <ele>1455</ele>
        <time>2018-12-02T10:17:00.000Z</time>
      </trkpt>
      <trkpt lat="42.92354" lon="0.84287">
        <ele>1455</ele>
        <time>2018-12-02T10:17:02.000Z</time>
      </trkpt>
      <trkpt lat="42.92354" lon="0.84287">
        <ele>1455</ele>
        <time>2018-12-02T10:17:04.000Z</time>
      </trkpt>
      <trkpt lat="42.92354" lon="0.84287">
        <ele>1455</ele>
        <time>2018-12-02T10:17:06.000Z</time>
      </trkpt>
      <trkpt lat="42.92354" lon="0.84287">
        <ele>1455</ele>
        <time>2018-12-02T10:17:08.000Z</time>
      </trkpt>
      <trkpt lat="42.92354" lon="0.84287">
        <ele>1455</ele>
        <time>2018-12-02T10:17:10.000Z</time>
      </trkpt>
      <trkpt lat="42.92354" lon="0.84287">
        <ele>1455</ele>
        <time>2018-12-02T10:17:12.000Z</time>
      </trkpt>
      <trkpt lat="42.92354" lon="0.84287">
        <ele>1455</ele>
        <time>2018-12-02T10:17:14.000Z</time>
      </trkpt>
      <trkpt lat="42.92354" lon="0.84287">
        <ele>1455</ele>
        <time>2018-12-02T10:17:16.000Z</time>
      </trkpt>
      <trkpt lat="42.92354" lon="0.84287">
        <ele>1455</ele>
        <time>2018-12-02T10:17:18.000Z</time>
      </trkpt>
      <trkpt lat="42.92354" lon="0.84287">
        <ele>1455</ele>
        <time>2018-12-02T10:17:20.000Z</time>
      </trkpt>
      <trkpt lat="42.92354" lon="0.84287">
        <ele>1455</ele>
        <time>2018-12-02T10:17:22.000Z</time>
      </trkpt>
      <trkpt lat="42.92354" lon="0.84287">
        <ele>1455</ele>
        <time>2018-12-02T10:17:24.000Z</time>
      </trkpt>
      <trkpt lat="42.92354" lon="0.84287">
        <ele>1455</ele>
        <time>2018-12-02T10:17:26.000Z</time>
      </trkpt>
      <trkpt lat="42.92354" lon="0.84286">
        <ele>1455</ele>
        <time>2018-12-02T10:17:28.000Z</time>
      </trkpt>
      <trkpt lat="42.92355" lon="0.84287">
        <ele>1455</ele>
        <time>2018-12-02T10:17:30.000Z</time>
      </trkpt>
      <trkpt lat="42.92354" lon="0.84287">
        <ele>1455</ele>
        <time>2018-12-02T10:17:32.000Z</time>
      </trkpt>
      <trkpt lat="42.92355" lon="0.84287">
        <ele>1455</ele>
        <time>2018-12-02T10:17:34.000Z</time>
      </trkpt>
      <trkpt lat="42.92355" lon="0.84287">
        <ele>1455</ele>
        <time>2018-12-02T10:17:36.000Z</time>
      </trkpt>
      <trkpt lat="42.92355" lon="0.84287">
        <ele>1455</ele>
        <time>2018-12-02T10:17:38.000Z</time>
      </trkpt>
      <trkpt lat="42.92355" lon="0.84286">
        <ele>1455</ele>
        <time>2018-12-02T10:17:40.000Z</time>
      </trkpt>
      <trkpt lat="42.92355" lon="0.84286">
        <ele>1456</ele>
        <time>2018-12-02T10:17:42.000Z</time>
      </trkpt>
      <trkpt lat="42.92355" lon="0.84286">
        <ele>1456</ele>
        <time>2018-12-02T10:17:44.000Z</time>
      </trkpt>
      <trkpt lat="42.92355" lon="0.84286">
        <ele>1456</ele>
        <time>2018-12-02T10:17:46.000Z</time>
      </trkpt>
      <trkpt lat="42.92355" lon="0.84286">
        <ele>1456</ele>
        <time>2018-12-02T10:17:48.000Z</time>
      </trkpt>
      <trkpt lat="42.92355" lon="0.84286">
        <ele>1456</ele>
        <time>2018-12-02T10:17:50.000Z</time>
      </trkpt>
      <trkpt lat="42.92355" lon="0.84286">
        <ele>1456</ele>
        <time>2018-12-02T10:17:52.000Z</time>
      </trkpt>
      <trkpt lat="42.92355" lon="0.84286">
        <ele>1456</ele>
        <time>2018-12-02T10:17:54.000Z</time>
      </trkpt>
      <trkpt lat="42.92355" lon="0.84286">
        <ele>1456</ele>
        <time>2018-12-02T10:17:56.000Z</time>
      </trkpt>
      <trkpt lat="42.92355" lon="0.84286">
        <ele>1456</ele>
        <time>2018-12-02T10:17:58.000Z</time>
      </trkpt>
      <trkpt lat="42.92355" lon="0.84286">
        <ele>1456</ele>
        <time>2018-12-02T10:18:00.000Z</time>
      </trkpt>
      <trkpt lat="42.92355" lon="0.84286">
        <ele>1456</ele>
        <time>2018-12-02T10:18:03.000Z</time>
      </trkpt>
      <trkpt lat="42.92354" lon="0.84286">
        <ele>1455</ele>
        <time>2018-12-02T10:18:05.000Z</time>
      </trkpt>
      <trkpt lat="42.92354" lon="0.84287">
        <ele>1455</ele>
        <time>2018-12-02T10:18:07.000Z</time>
      </trkpt>
      <trkpt lat="42.92354" lon="0.84287">
        <ele>1455</ele>
        <time>2018-12-02T10:18:09.000Z</time>
      </trkpt>
      <trkpt lat="42.92354" lon="0.84286">
        <ele>1455</ele>
        <time>2018-12-02T10:18:11.000Z</time>
      </trkpt>
      <trkpt lat="42.92355" lon="0.84286">
        <ele>1455</ele>
        <time>2018-12-02T10:18:13.000Z</time>
      </trkpt>
      <trkpt lat="42.92355" lon="0.84286">
        <ele>1456</ele>
        <time>2018-12-02T10:18:15.000Z</time>
      </trkpt>
      <trkpt lat="42.92355" lon="0.84287">
        <ele>1455</ele>
        <time>2018-12-02T10:18:17.000Z</time>
      </trkpt>
      <trkpt lat="42.92355" lon="0.84287">
        <ele>1455</ele>
        <time>2018-12-02T10:18:19.000Z</time>
      </trkpt>
      <trkpt lat="42.92355" lon="0.84287">
        <ele>1455</ele>
        <time>2018-12-02T10:18:21.000Z</time>
      </trkpt>
      <trkpt lat="42.92355" lon="0.84287">
        <ele>1455</ele>
        <time>2018-12-02T10:18:23.000Z</time>
      </trkpt>
      <trkpt lat="42.92355" lon="0.84286">
        <ele>1455</ele>
        <time>2018-12-02T10:18:25.000Z</time>
      </trkpt>
      <trkpt lat="42.92355" lon="0.84286">
        <ele>1456</ele>
        <time>2018-12-02T10:18:27.000Z</time>
      </trkpt>
      <trkpt lat="42.92355" lon="0.84286">
        <ele>1455</ele>
        <time>2018-12-02T10:18:29.000Z</time>
      </trkpt>
      <trkpt lat="42.92354" lon="0.84288">
        <ele>1455</ele>
        <time>2018-12-02T10:18:31.000Z</time>
      </trkpt>
      <trkpt lat="42.92354" lon="0.84287">
        <ele>1455</ele>
        <time>2018-12-02T10:18:33.000Z</time>
      </trkpt>
      <trkpt lat="42.92354" lon="0.84287">
        <ele>1455</ele>
        <time>2018-12-02T10:18:35.000Z</time>
      </trkpt>
      <trkpt lat="42.92354" lon="0.84289">
        <ele>1455</ele>
        <time>2018-12-02T10:18:37.000Z</time>
      </trkpt>
      <trkpt lat="42.92354" lon="0.8429">
        <ele>1455</ele>
        <time>2018-12-02T10:18:39.000Z</time>
      </trkpt>
      <trkpt lat="42.92354" lon="0.8429">
        <ele>1455</ele>
        <time>2018-12-02T10:18:41.000Z</time>
      </trkpt>
      <trkpt lat="42.92353" lon="0.8429">
        <ele>1455</ele>
        <time>2018-12-02T10:18:43.000Z</time>
      </trkpt>
      <trkpt lat="42.92354" lon="0.84289">
        <ele>1455</ele>
        <time>2018-12-02T10:18:45.000Z</time>
      </trkpt>
      <trkpt lat="42.92354" lon="0.84289">
        <ele>1455</ele>
        <time>2018-12-02T10:18:47.000Z</time>
      </trkpt>
      <trkpt lat="42.92354" lon="0.84289">
        <ele>1455</ele>
        <time>2018-12-02T10:18:49.000Z</time>
      </trkpt>
      <trkpt lat="42.92354" lon="0.84289">
        <ele>1455</ele>
        <time>2018-12-02T10:18:51.000Z</time>
      </trkpt>
      <trkpt lat="42.92354" lon="0.84289">
        <ele>1455</ele>
        <time>2018-12-02T10:18:53.000Z</time>
      </trkpt>
      <trkpt lat="42.92354" lon="0.8429">
        <ele>1455</ele>
        <time>2018-12-02T10:18:55.000Z</time>
      </trkpt>
      <trkpt lat="42.92354" lon="0.8429">
        <ele>1455</ele>
        <time>2018-12-02T10:18:57.000Z</time>
      </trkpt>
      <trkpt lat="42.92354" lon="0.8429">
        <ele>1455</ele>
        <time>2018-12-02T10:18:59.000Z</time>
      </trkpt>
      <trkpt lat="42.92354" lon="0.8429">
        <ele>1455</ele>
        <time>2018-12-02T10:19:01.000Z</time>
      </trkpt>
      <trkpt lat="42.92354" lon="0.8429">
        <ele>1455</ele>
        <time>2018-12-02T10:19:03.000Z</time>
      </trkpt>
      <trkpt lat="42.92354" lon="0.8429">
        <ele>1455</ele>
        <time>2018-12-02T10:19:05.000Z</time>
      </trkpt>
      <trkpt lat="42.92354" lon="0.8429">
        <ele>1455</ele>
        <time>2018-12-02T10:19:07.000Z</time>
      </trkpt>
      <trkpt lat="42.92354" lon="0.8429">
        <ele>1455</ele>
        <time>2018-12-02T10:19:09.000Z</time>
      </trkpt>
      <trkpt lat="42.92354" lon="0.8429">
        <ele>1455</ele>
        <time>2018-12-02T10:19:11.000Z</time>
      </trkpt>
      <trkpt lat="42.92354" lon="0.8429">
        <ele>1455</ele>
        <time>2018-12-02T10:19:13.000Z</time>
      </trkpt>
      <trkpt lat="42.92354" lon="0.8429">
        <ele>1455</ele>
        <time>2018-12-02T10:19:15.000Z</time>
      </trkpt>
      <trkpt lat="42.92354" lon="0.8429">
        <ele>1455</ele>
        <time>2018-12-02T10:19:17.000Z</time>
      </trkpt>
      <trkpt lat="42.92354" lon="0.84289">
        <ele>1455</ele>
        <time>2018-12-02T10:19:19.000Z</time>
      </trkpt>
      <trkpt lat="42.92354" lon="0.84289">
        <ele>1455</ele>
        <time>2018-12-02T10:19:21.000Z</time>
      </trkpt>
      <trkpt lat="42.92354" lon="0.84289">
        <ele>1455</ele>
        <time>2018-12-02T10:19:23.000Z</time>
      </trkpt>
      <trkpt lat="42.92354" lon="0.84289">
        <ele>1455</ele>
        <time>2018-12-02T10:19:25.000Z</time>
      </trkpt>
      <trkpt lat="42.92354" lon="0.84289">
        <ele>1455</ele>
        <time>2018-12-02T10:19:27.000Z</time>
      </trkpt>
      <trkpt lat="42.92354" lon="0.84289">
        <ele>1455</ele>
        <time>2018-12-02T10:19:29.000Z</time>
      </trkpt>
      <trkpt lat="42.92354" lon="0.84289">
        <ele>1455</ele>
        <time>2018-12-02T10:19:31.000Z</time>
      </trkpt>
      <trkpt lat="42.92354" lon="0.84289">
        <ele>1455</ele>
        <time>2018-12-02T10:19:33.000Z</time>
      </trkpt>
      <trkpt lat="42.92354" lon="0.84289">
        <ele>1455</ele>
        <time>2018-12-02T10:19:35.000Z</time>
      </trkpt>
      <trkpt lat="42.92355" lon="0.8429">
        <ele>1455</ele>
        <time>2018-12-02T10:19:37.000Z</time>
      </trkpt>
      <trkpt lat="42.92355" lon="0.8429">
        <ele>1455</ele>
        <time>2018-12-02T10:19:39.000Z</time>
      </trkpt>
      <trkpt lat="42.92354" lon="0.8429">
        <ele>1455</ele>
        <time>2018-12-02T10:19:41.000Z</time>
      </trkpt>
      <trkpt lat="42.92354" lon="0.84289">
        <ele>1455</ele>
        <time>2018-12-02T10:19:43.000Z</time>
      </trkpt>
      <trkpt lat="42.92354" lon="0.8429">
        <ele>1455</ele>
        <time>2018-12-02T10:19:45.000Z</time>
      </trkpt>
      <trkpt lat="42.92354" lon="0.8429">
        <ele>1455</ele>
        <time>2018-12-02T10:19:47.000Z</time>
      </trkpt>
      <trkpt lat="42.92354" lon="0.8429">
        <ele>1455</ele>
        <time>2018-12-02T10:19:49.000Z</time>
      </trkpt>
      <trkpt lat="42.92354" lon="0.8429">
        <ele>1455</ele>
        <time>2018-12-02T10:19:51.000Z</time>
      </trkpt>
      <trkpt lat="42.92354" lon="0.8429">
        <ele>1455</ele>
        <time>2018-12-02T10:19:53.000Z</time>
      </trkpt>
      <trkpt lat="42.92354" lon="0.8429">
        <ele>1455</ele>
        <time>2018-12-02T10:19:55.000Z</time>
      </trkpt>
      <trkpt lat="42.92354" lon="0.84291">
        <ele>1455</ele>
        <time>2018-12-02T10:19:57.000Z</time>
      </trkpt>
      <trkpt lat="42.92354" lon="0.84291">
        <ele>1455</ele>
        <time>2018-12-02T10:19:59.000Z</time>
      </trkpt>
      <trkpt lat="42.92354" lon="0.84291">
        <ele>1455</ele>
        <time>2018-12-02T10:20:01.000Z</time>
      </trkpt>
      <trkpt lat="42.92353" lon="0.84291">
        <ele>1455</ele>
        <time>2018-12-02T10:20:03.000Z</time>
      </trkpt>
      <trkpt lat="42.92353" lon="0.84292">
        <ele>1455</ele>
        <time>2018-12-02T10:20:05.000Z</time>
      </trkpt>
      <trkpt lat="42.92353" lon="0.84292">
        <ele>1454</ele>
        <time>2018-12-02T10:20:07.000Z</time>
      </trkpt>
      <trkpt lat="42.92353" lon="0.84293">
        <ele>1454</ele>
        <time>2018-12-02T10:20:09.000Z</time>
      </trkpt>
      <trkpt lat="42.92353" lon="0.84293">
        <ele>1454</ele>
        <time>2018-12-02T10:20:11.000Z</time>
      </trkpt>
      <trkpt lat="42.92353" lon="0.84293">
        <ele>1454</ele>
        <time>2018-12-02T10:20:13.000Z</time>
      </trkpt>
      <trkpt lat="42.92353" lon="0.84293">
        <ele>1454</ele>
        <time>2018-12-02T10:20:15.000Z</time>
      </trkpt>
      <trkpt lat="42.92353" lon="0.84293">
        <ele>1454</ele>
        <time>2018-12-02T10:20:17.000Z</time>
      </trkpt>
      <trkpt lat="42.92353" lon="0.84293">
        <ele>1454</ele>
        <time>2018-12-02T10:20:19.000Z</time>
      </trkpt>
      <trkpt lat="42.92353" lon="0.84293">
        <ele>1454</ele>
        <time>2018-12-02T10:20:21.000Z</time>
      </trkpt>
      <trkpt lat="42.92353" lon="0.84293">
        <ele>1454</ele>
        <time>2018-12-02T10:20:23.000Z</time>
      </trkpt>
      <trkpt lat="42.92353" lon="0.84293">
        <ele>1454</ele>
        <time>2018-12-02T10:20:25.000Z</time>
      </trkpt>
      <trkpt lat="42.92353" lon="0.84293">
        <ele>1454</ele>
        <time>2018-12-02T10:20:27.000Z</time>
      </trkpt>
      <trkpt lat="42.92354" lon="0.84293">
        <ele>1454</ele>
        <time>2018-12-02T10:20:29.000Z</time>
      </trkpt>
      <trkpt lat="42.92354" lon="0.84294">
        <ele>1454</ele>
        <time>2018-12-02T10:20:31.000Z</time>
      </trkpt>
      <trkpt lat="42.92354" lon="0.84294">
        <ele>1454</ele>
        <time>2018-12-02T10:20:33.000Z</time>
      </trkpt>
      <trkpt lat="42.92354" lon="0.84294">
        <ele>1454</ele>
        <time>2018-12-02T10:20:35.000Z</time>
      </trkpt>
      <trkpt lat="42.92354" lon="0.84294">
        <ele>1454</ele>
        <time>2018-12-02T10:20:37.000Z</time>
      </trkpt>
      <trkpt lat="42.92354" lon="0.84294">
        <ele>1454</ele>
        <time>2018-12-02T10:20:39.000Z</time>
      </trkpt>
      <trkpt lat="42.92353" lon="0.84294">
        <ele>1454</ele>
        <time>2018-12-02T10:20:41.000Z</time>
      </trkpt>
      <trkpt lat="42.92353" lon="0.84294">
        <ele>1454</ele>
        <time>2018-12-02T10:20:43.000Z</time>
      </trkpt>
      <trkpt lat="42.92353" lon="0.84294">
        <ele>1454</ele>
        <time>2018-12-02T10:20:45.000Z</time>
      </trkpt>
      <trkpt lat="42.92354" lon="0.84294">
        <ele>1454</ele>
        <time>2018-12-02T10:20:47.000Z</time>
      </trkpt>
      <trkpt lat="42.92354" lon="0.84294">
        <ele>1454</ele>
        <time>2018-12-02T10:20:49.000Z</time>
      </trkpt>
      <trkpt lat="42.92354" lon="0.84294">
        <ele>1454</ele>
        <time>2018-12-02T10:20:51.000Z</time>
      </trkpt>
      <trkpt lat="42.92354" lon="0.84294">
        <ele>1454</ele>
        <time>2018-12-02T10:20:53.000Z</time>
      </trkpt>
      <trkpt lat="42.92354" lon="0.84293">
        <ele>1454</ele>
        <time>2018-12-02T10:20:55.000Z</time>
      </trkpt>
      <trkpt lat="42.92354" lon="0.84293">
        <ele>1454</ele>
        <time>2018-12-02T10:20:57.000Z</time>
      </trkpt>
      <trkpt lat="42.92354" lon="0.84292">
        <ele>1455</ele>
        <time>2018-12-02T10:20:59.000Z</time>
      </trkpt>
      <trkpt lat="42.92354" lon="0.84292">
        <ele>1455</ele>
        <time>2018-12-02T10:21:01.000Z</time>
      </trkpt>
      <trkpt lat="42.92353" lon="0.84292">
        <ele>1455</ele>
        <time>2018-12-02T10:21:03.000Z</time>
      </trkpt>
      <trkpt lat="42.92353" lon="0.84291">
        <ele>1455</ele>
        <time>2018-12-02T10:21:05.000Z</time>
      </trkpt>
      <trkpt lat="42.92353" lon="0.84291">
        <ele>1455</ele>
        <time>2018-12-02T10:21:07.000Z</time>
      </trkpt>
      <trkpt lat="42.92353" lon="0.84291">
        <ele>1455</ele>
        <time>2018-12-02T10:21:09.000Z</time>
      </trkpt>
      <trkpt lat="42.92353" lon="0.84291">
        <ele>1455</ele>
        <time>2018-12-02T10:21:11.000Z</time>
      </trkpt>
      <trkpt lat="42.92353" lon="0.84291">
        <ele>1455</ele>
        <time>2018-12-02T10:21:13.000Z</time>
      </trkpt>
      <trkpt lat="42.92353" lon="0.84291">
        <ele>1455</ele>
        <time>2018-12-02T10:21:15.000Z</time>
      </trkpt>
      <trkpt lat="42.92354" lon="0.84291">
        <ele>1455</ele>
        <time>2018-12-02T10:21:17.000Z</time>
      </trkpt>
      <trkpt lat="42.92354" lon="0.84291">
        <ele>1455</ele>
        <time>2018-12-02T10:21:19.000Z</time>
      </trkpt>
      <trkpt lat="42.92354" lon="0.84291">
        <ele>1455</ele>
        <time>2018-12-02T10:21:21.000Z</time>
      </trkpt>
      <trkpt lat="42.92354" lon="0.84291">
        <ele>1455</ele>
        <time>2018-12-02T10:21:23.000Z</time>
      </trkpt>
      <trkpt lat="42.92354" lon="0.8429">
        <ele>1455</ele>
        <time>2018-12-02T10:21:25.000Z</time>
      </trkpt>
      <trkpt lat="42.92354" lon="0.84289">
        <ele>1455</ele>
        <time>2018-12-02T10:21:27.000Z</time>
      </trkpt>
      <trkpt lat="42.92354" lon="0.84289">
        <ele>1455</ele>
        <time>2018-12-02T10:21:29.000Z</time>
      </trkpt>
      <trkpt lat="42.92354" lon="0.84289">
        <ele>1455</ele>
        <time>2018-12-02T10:21:31.000Z</time>
      </trkpt>
      <trkpt lat="42.92354" lon="0.84289">
        <ele>1455</ele>
        <time>2018-12-02T10:21:33.000Z</time>
      </trkpt>
      <trkpt lat="42.92353" lon="0.84289">
        <ele>1455</ele>
        <time>2018-12-02T10:21:35.000Z</time>
      </trkpt>
      <trkpt lat="42.92353" lon="0.8429">
        <ele>1455</ele>
        <time>2018-12-02T10:21:37.000Z</time>
      </trkpt>
      <trkpt lat="42.92353" lon="0.8429">
        <ele>1455</ele>
        <time>2018-12-02T10:21:39.000Z</time>
      </trkpt>
      <trkpt lat="42.92353" lon="0.8429">
        <ele>1455</ele>
        <time>2018-12-02T10:21:41.000Z</time>
      </trkpt>
      <trkpt lat="42.92353" lon="0.8429">
        <ele>1455</ele>
        <time>2018-12-02T10:21:43.000Z</time>
      </trkpt>
      <trkpt lat="42.92353" lon="0.8429">
        <ele>1455</ele>
        <time>2018-12-02T10:21:45.000Z</time>
      </trkpt>
      <trkpt lat="42.92353" lon="0.8429">
        <ele>1455</ele>
        <time>2018-12-02T10:21:47.000Z</time>
      </trkpt>
      <trkpt lat="42.92353" lon="0.8429">
        <ele>1455</ele>
        <time>2018-12-02T10:21:49.000Z</time>
      </trkpt>
      <trkpt lat="42.92353" lon="0.8429">
        <ele>1455</ele>
        <time>2018-12-02T10:21:51.000Z</time>
      </trkpt>
      <trkpt lat="42.92353" lon="0.8429">
        <ele>1455</ele>
        <time>2018-12-02T10:21:53.000Z</time>
      </trkpt>
      <trkpt lat="42.92353" lon="0.8429">
        <ele>1455</ele>
        <time>2018-12-02T10:21:55.000Z</time>
      </trkpt>
      <trkpt lat="42.92353" lon="0.84291">
        <ele>1455</ele>
        <time>2018-12-02T10:21:57.000Z</time>
      </trkpt>
      <trkpt lat="42.92353" lon="0.84291">
        <ele>1455</ele>
        <time>2018-12-02T10:21:59.000Z</time>
      </trkpt>
      <trkpt lat="42.92352" lon="0.8429">
        <ele>1455</ele>
        <time>2018-12-02T10:22:01.000Z</time>
      </trkpt>
      <trkpt lat="42.92352" lon="0.8429">
        <ele>1455</ele>
        <time>2018-12-02T10:22:03.000Z</time>
      </trkpt>
      <trkpt lat="42.92352" lon="0.8429">
        <ele>1455</ele>
        <time>2018-12-02T10:22:05.000Z</time>
      </trkpt>
      <trkpt lat="42.92352" lon="0.8429">
        <ele>1455</ele>
        <time>2018-12-02T10:22:07.000Z</time>
      </trkpt>
      <trkpt lat="42.92352" lon="0.8429">
        <ele>1455</ele>
        <time>2018-12-02T10:22:09.000Z</time>
      </trkpt>
      <trkpt lat="42.92352" lon="0.8429">
        <ele>1455</ele>
        <time>2018-12-02T10:22:12.000Z</time>
      </trkpt>
      <trkpt lat="42.92352" lon="0.8429">
        <ele>1455</ele>
        <time>2018-12-02T10:22:14.000Z</time>
      </trkpt>
      <trkpt lat="42.92352" lon="0.8429">
        <ele>1455</ele>
        <time>2018-12-02T10:22:16.000Z</time>
      </trkpt>
      <trkpt lat="42.92352" lon="0.8429">
        <ele>1455</ele>
        <time>2018-12-02T10:22:18.000Z</time>
      </trkpt>
      <trkpt lat="42.92352" lon="0.8429">
        <ele>1455</ele>
        <time>2018-12-02T10:22:20.000Z</time>
      </trkpt>
      <trkpt lat="42.92352" lon="0.8429">
        <ele>1455</ele>
        <time>2018-12-02T10:22:22.000Z</time>
      </trkpt>
      <trkpt lat="42.92352" lon="0.8429">
        <ele>1455</ele>
        <time>2018-12-02T10:22:24.000Z</time>
      </trkpt>
      <trkpt lat="42.92352" lon="0.8429">
        <ele>1455</ele>
        <time>2018-12-02T10:22:26.000Z</time>
      </trkpt>
      <trkpt lat="42.92352" lon="0.84289">
        <ele>1455</ele>
        <time>2018-12-02T10:22:28.000Z</time>
      </trkpt>
      <trkpt lat="42.92352" lon="0.84289">
        <ele>1455</ele>
        <time>2018-12-02T10:22:30.000Z</time>
      </trkpt>
      <trkpt lat="42.92352" lon="0.84289">
        <ele>1455</ele>
        <time>2018-12-02T10:22:32.000Z</time>
      </trkpt>
      <trkpt lat="42.92352" lon="0.84289">
        <ele>1455</ele>
        <time>2018-12-02T10:22:34.000Z</time>
      </trkpt>
      <trkpt lat="42.92352" lon="0.8429">
        <ele>1455</ele>
        <time>2018-12-02T10:22:36.000Z</time>
      </trkpt>
      <trkpt lat="42.92352" lon="0.84289">
        <ele>1455</ele>
        <time>2018-12-02T10:22:38.000Z</time>
      </trkpt>
      <trkpt lat="42.92352" lon="0.84289">
        <ele>1455</ele>
        <time>2018-12-02T10:22:40.000Z</time>
      </trkpt>
      <trkpt lat="42.92353" lon="0.84287">
        <ele>1455</ele>
        <time>2018-12-02T10:22:42.000Z</time>
      </trkpt>
      <trkpt lat="42.92353" lon="0.84286">
        <ele>1455</ele>
        <time>2018-12-02T10:22:44.000Z</time>
      </trkpt>
      <trkpt lat="42.92353" lon="0.84286">
        <ele>1455</ele>
        <time>2018-12-02T10:22:46.000Z</time>
      </trkpt>
      <trkpt lat="42.92353" lon="0.84286">
        <ele>1455</ele>
        <time>2018-12-02T10:22:48.000Z</time>
      </trkpt>
      <trkpt lat="42.92353" lon="0.84286">
        <ele>1455</ele>
        <time>2018-12-02T10:22:50.000Z</time>
      </trkpt>
      <trkpt lat="42.92353" lon="0.84285">
        <ele>1455</ele>
        <time>2018-12-02T10:22:53.000Z</time>
      </trkpt>
      <trkpt lat="42.92353" lon="0.84285">
        <ele>1455</ele>
        <time>2018-12-02T10:22:55.000Z</time>
      </trkpt>
      <trkpt lat="42.92353" lon="0.84285">
        <ele>1455</ele>
        <time>2018-12-02T10:22:57.000Z</time>
      </trkpt>
      <trkpt lat="42.92353" lon="0.84286">
        <ele>1455</ele>
        <time>2018-12-02T10:22:59.000Z</time>
      </trkpt>
      <trkpt lat="42.92353" lon="0.84285">
        <ele>1455</ele>
        <time>2018-12-02T10:23:01.000Z</time>
      </trkpt>
      <trkpt lat="42.92353" lon="0.84285">
        <ele>1455</ele>
        <time>2018-12-02T10:23:03.000Z</time>
      </trkpt>
      <trkpt lat="42.92353" lon="0.84285">
        <ele>1456</ele>
        <time>2018-12-02T10:23:05.000Z</time>
      </trkpt>
      <trkpt lat="42.92353" lon="0.84284">
        <ele>1456</ele>
        <time>2018-12-02T10:23:08.000Z</time>
      </trkpt>
      <trkpt lat="42.92353" lon="0.84284">
        <ele>1456</ele>
        <time>2018-12-02T10:23:10.000Z</time>
      </trkpt>
      <trkpt lat="42.92353" lon="0.84284">
        <ele>1456</ele>
        <time>2018-12-02T10:23:12.000Z</time>
      </trkpt>
      <trkpt lat="42.92352" lon="0.84285">
        <ele>1455</ele>
        <time>2018-12-02T10:23:14.000Z</time>
      </trkpt>
      <trkpt lat="42.92352" lon="0.84285">
        <ele>1455</ele>
        <time>2018-12-02T10:23:16.000Z</time>
      </trkpt>
      <trkpt lat="42.92352" lon="0.84284">
        <ele>1456</ele>
        <time>2018-12-02T10:23:18.000Z</time>
      </trkpt>
      <trkpt lat="42.92352" lon="0.84284">
        <ele>1455</ele>
        <time>2018-12-02T10:23:20.000Z</time>
      </trkpt>
      <trkpt lat="42.92352" lon="0.84283">
        <ele>1456</ele>
        <time>2018-12-02T10:23:22.000Z</time>
      </trkpt>
      <trkpt lat="42.92352" lon="0.84284">
        <ele>1456</ele>
        <time>2018-12-02T10:23:24.000Z</time>
      </trkpt>
      <trkpt lat="42.92352" lon="0.84284">
        <ele>1456</ele>
        <time>2018-12-02T10:23:26.000Z</time>
      </trkpt>
      <trkpt lat="42.92353" lon="0.84284">
        <ele>1456</ele>
        <time>2018-12-02T10:23:28.000Z</time>
      </trkpt>
      <trkpt lat="42.92353" lon="0.84284">
        <ele>1456</ele>
        <time>2018-12-02T10:23:30.000Z</time>
      </trkpt>
      <trkpt lat="42.92353" lon="0.84284">
        <ele>1456</ele>
        <time>2018-12-02T10:23:32.000Z</time>
      </trkpt>
      <trkpt lat="42.92353" lon="0.84284">
        <ele>1456</ele>
        <time>2018-12-02T10:23:34.000Z</time>
      </trkpt>
      <trkpt lat="42.92353" lon="0.84285">
        <ele>1456</ele>
        <time>2018-12-02T10:23:36.000Z</time>
      </trkpt>
      <trkpt lat="42.92354" lon="0.84285">
        <ele>1456</ele>
        <time>2018-12-02T10:23:38.000Z</time>
      </trkpt>
      <trkpt lat="42.92355" lon="0.84285">
        <ele>1456</ele>
        <time>2018-12-02T10:23:40.000Z</time>
      </trkpt>
      <trkpt lat="42.92355" lon="0.84285">
        <ele>1456</ele>
        <time>2018-12-02T10:23:42.000Z</time>
      </trkpt>
      <trkpt lat="42.92355" lon="0.84285">
        <ele>1456</ele>
        <time>2018-12-02T10:23:44.000Z</time>
      </trkpt>
      <trkpt lat="42.92356" lon="0.84285">
        <ele>1456</ele>
        <time>2018-12-02T10:23:46.000Z</time>
      </trkpt>
      <trkpt lat="42.92356" lon="0.84285">
        <ele>1456</ele>
        <time>2018-12-02T10:23:48.000Z</time>
      </trkpt>
      <trkpt lat="42.92356" lon="0.84285">
        <ele>1456</ele>
        <time>2018-12-02T10:23:50.000Z</time>
      </trkpt>
      <trkpt lat="42.92356" lon="0.84286">
        <ele>1456</ele>
        <time>2018-12-02T10:23:52.000Z</time>
      </trkpt>
      <trkpt lat="42.92355" lon="0.84286">
        <ele>1456</ele>
        <time>2018-12-02T10:23:54.000Z</time>
      </trkpt>
      <trkpt lat="42.92355" lon="0.84287">
        <ele>1456</ele>
        <time>2018-12-02T10:23:56.000Z</time>
      </trkpt>
      <trkpt lat="42.92355" lon="0.84287">
        <ele>1455</ele>
        <time>2018-12-02T10:23:58.000Z</time>
      </trkpt>
      <trkpt lat="42.92354" lon="0.84288">
        <ele>1455</ele>
        <time>2018-12-02T10:24:00.000Z</time>
      </trkpt>
      <trkpt lat="42.92354" lon="0.84289">
        <ele>1455</ele>
        <time>2018-12-02T10:24:02.000Z</time>
      </trkpt>
      <trkpt lat="42.92352" lon="0.84289">
        <ele>1455</ele>
        <time>2018-12-02T10:24:04.000Z</time>
      </trkpt>
      <trkpt lat="42.92351" lon="0.84287">
        <ele>1455</ele>
        <time>2018-12-02T10:24:06.000Z</time>
      </trkpt>
      <trkpt lat="42.92351" lon="0.84286">
        <ele>1455</ele>
        <time>2018-12-02T10:24:08.000Z</time>
      </trkpt>
      <trkpt lat="42.92351" lon="0.84285">
        <ele>1455</ele>
        <time>2018-12-02T10:24:10.000Z</time>
      </trkpt>
      <trkpt lat="42.92351" lon="0.84285">
        <ele>1455</ele>
        <time>2018-12-02T10:24:12.000Z</time>
      </trkpt>
      <trkpt lat="42.92351" lon="0.84285">
        <ele>1455</ele>
        <time>2018-12-02T10:24:14.000Z</time>
      </trkpt>
      <trkpt lat="42.92351" lon="0.84285">
        <ele>1455</ele>
        <time>2018-12-02T10:24:16.000Z</time>
      </trkpt>
      <trkpt lat="42.92351" lon="0.84284">
        <ele>1455</ele>
        <time>2018-12-02T10:24:18.000Z</time>
      </trkpt>
      <trkpt lat="42.92351" lon="0.84284">
        <ele>1455</ele>
        <time>2018-12-02T10:24:20.000Z</time>
      </trkpt>
      <trkpt lat="42.9235" lon="0.84285">
        <ele>1455</ele>
        <time>2018-12-02T10:24:22.000Z</time>
      </trkpt>
      <trkpt lat="42.92349" lon="0.84283">
        <ele>1455</ele>
        <time>2018-12-02T10:24:24.000Z</time>
      </trkpt>
      <trkpt lat="42.92349" lon="0.84281">
        <ele>1456</ele>
        <time>2018-12-02T10:24:26.000Z</time>
      </trkpt>
      <trkpt lat="42.92349" lon="0.84281">
        <ele>1456</ele>
        <time>2018-12-02T10:24:28.000Z</time>
      </trkpt>
      <trkpt lat="42.92349" lon="0.84281">
        <ele>1456</ele>
        <time>2018-12-02T10:24:30.000Z</time>
      </trkpt>
      <trkpt lat="42.92349" lon="0.84281">
        <ele>1456</ele>
        <time>2018-12-02T10:24:32.000Z</time>
      </trkpt>
      <trkpt lat="42.92348" lon="0.84281">
        <ele>1456</ele>
        <time>2018-12-02T10:24:34.000Z</time>
      </trkpt>
      <trkpt lat="42.92348" lon="0.84281">
        <ele>1456</ele>
        <time>2018-12-02T10:24:36.000Z</time>
      </trkpt>
      <trkpt lat="42.92348" lon="0.8428">
        <ele>1456</ele>
        <time>2018-12-02T10:24:38.000Z</time>
      </trkpt>
      <trkpt lat="42.92348" lon="0.84278">
        <ele>1456</ele>
        <time>2018-12-02T10:24:40.000Z</time>
      </trkpt>
      <trkpt lat="42.92348" lon="0.84275">
        <ele>1456</ele>
        <time>2018-12-02T10:24:42.000Z</time>
      </trkpt>
      <trkpt lat="42.92348" lon="0.84274">
        <ele>1457</ele>
        <time>2018-12-02T10:24:44.000Z</time>
      </trkpt>
      <trkpt lat="42.92348" lon="0.84273">
        <ele>1457</ele>
        <time>2018-12-02T10:24:46.000Z</time>
      </trkpt>
      <trkpt lat="42.92346" lon="0.84271">
        <ele>1457</ele>
        <time>2018-12-02T10:24:48.000Z</time>
      </trkpt>
      <trkpt lat="42.92345" lon="0.84269">
        <ele>1457</ele>
        <time>2018-12-02T10:24:50.000Z</time>
      </trkpt>
      <trkpt lat="42.92345" lon="0.84267">
        <ele>1457</ele>
        <time>2018-12-02T10:24:52.000Z</time>
      </trkpt>
      <trkpt lat="42.92344" lon="0.84265">
        <ele>1457</ele>
        <time>2018-12-02T10:24:54.000Z</time>
      </trkpt>
      <trkpt lat="42.92343" lon="0.84263">
        <ele>1457</ele>
        <time>2018-12-02T10:24:56.000Z</time>
      </trkpt>
      <trkpt lat="42.92342" lon="0.84262">
        <ele>1457</ele>
        <time>2018-12-02T10:24:58.000Z</time>
      </trkpt>
      <trkpt lat="42.92341" lon="0.8426">
        <ele>1458</ele>
        <time>2018-12-02T10:25:00.000Z</time>
      </trkpt>
      <trkpt lat="42.9234" lon="0.84258">
        <ele>1458</ele>
        <time>2018-12-02T10:25:02.000Z</time>
      </trkpt>
      <trkpt lat="42.92339" lon="0.84257">
        <ele>1458</ele>
        <time>2018-12-02T10:25:04.000Z</time>
      </trkpt>
      <trkpt lat="42.92338" lon="0.84255">
        <ele>1458</ele>
        <time>2018-12-02T10:25:06.000Z</time>
      </trkpt>
      <trkpt lat="42.92336" lon="0.84254">
        <ele>1458</ele>
        <time>2018-12-02T10:25:08.000Z</time>
      </trkpt>
      <trkpt lat="42.92335" lon="0.84251">
        <ele>1458</ele>
        <time>2018-12-02T10:25:10.000Z</time>
      </trkpt>
      <trkpt lat="42.92334" lon="0.8425">
        <ele>1458</ele>
        <time>2018-12-02T10:25:12.000Z</time>
      </trkpt>
      <trkpt lat="42.92333" lon="0.84248">
        <ele>1458</ele>
        <time>2018-12-02T10:25:14.000Z</time>
      </trkpt>
      <trkpt lat="42.92332" lon="0.84246">
        <ele>1458</ele>
        <time>2018-12-02T10:25:16.000Z</time>
      </trkpt>
      <trkpt lat="42.92331" lon="0.84244">
        <ele>1458</ele>
        <time>2018-12-02T10:25:18.000Z</time>
      </trkpt>
      <trkpt lat="42.9233" lon="0.84241">
        <ele>1459</ele>
        <time>2018-12-02T10:25:20.000Z</time>
      </trkpt>
      <trkpt lat="42.92329" lon="0.84239">
        <ele>1459</ele>
        <time>2018-12-02T10:25:22.000Z</time>
      </trkpt>
      <trkpt lat="42.92329" lon="0.84236">
        <ele>1459</ele>
        <time>2018-12-02T10:25:24.000Z</time>
      </trkpt>
      <trkpt lat="42.92328" lon="0.84233">
        <ele>1460</ele>
        <time>2018-12-02T10:25:26.000Z</time>
      </trkpt>
      <trkpt lat="42.92328" lon="0.84231">
        <ele>1460</ele>
        <time>2018-12-02T10:25:28.000Z</time>
      </trkpt>
      <trkpt lat="42.92327" lon="0.84228">
        <ele>1460</ele>
        <time>2018-12-02T10:25:30.000Z</time>
      </trkpt>
      <trkpt lat="42.92327" lon="0.84225">
        <ele>1460</ele>
        <time>2018-12-02T10:25:32.000Z</time>
      </trkpt>
      <trkpt lat="42.92327" lon="0.84223">
        <ele>1461</ele>
        <time>2018-12-02T10:25:34.000Z</time>
      </trkpt>
      <trkpt lat="42.92326" lon="0.8422">
        <ele>1461</ele>
        <time>2018-12-02T10:25:36.000Z</time>
      </trkpt>
      <trkpt lat="42.92325" lon="0.84217">
        <ele>1461</ele>
        <time>2018-12-02T10:25:38.000Z</time>
      </trkpt>
      <trkpt lat="42.92325" lon="0.84215">
        <ele>1462</ele>
        <time>2018-12-02T10:25:40.000Z</time>
      </trkpt>
      <trkpt lat="42.92324" lon="0.84212">
        <ele>1462</ele>
        <time>2018-12-02T10:25:42.000Z</time>
      </trkpt>
      <trkpt lat="42.92324" lon="0.8421">
        <ele>1462</ele>
        <time>2018-12-02T10:25:44.000Z</time>
      </trkpt>
      <trkpt lat="42.92323" lon="0.84208">
        <ele>1462</ele>
        <time>2018-12-02T10:25:46.000Z</time>
      </trkpt>
      <trkpt lat="42.92323" lon="0.84206">
        <ele>1462</ele>
        <time>2018-12-02T10:25:48.000Z</time>
      </trkpt>
      <trkpt lat="42.92322" lon="0.84204">
        <ele>1462</ele>
        <time>2018-12-02T10:25:50.000Z</time>
      </trkpt>
      <trkpt lat="42.92321" lon="0.84202">
        <ele>1463</ele>
        <time>2018-12-02T10:25:52.000Z</time>
      </trkpt>
      <trkpt lat="42.9232" lon="0.842">
        <ele>1463</ele>
        <time>2018-12-02T10:25:54.000Z</time>
      </trkpt>
      <trkpt lat="42.92319" lon="0.84197">
        <ele>1463</ele>
        <time>2018-12-02T10:25:56.000Z</time>
      </trkpt>
      <trkpt lat="42.92319" lon="0.84194">
        <ele>1463</ele>
        <time>2018-12-02T10:25:58.000Z</time>
      </trkpt>
      <trkpt lat="42.92318" lon="0.84191">
        <ele>1463</ele>
        <time>2018-12-02T10:26:00.000Z</time>
      </trkpt>
      <trkpt lat="42.92317" lon="0.84189">
        <ele>1463</ele>
        <time>2018-12-02T10:26:02.000Z</time>
      </trkpt>
      <trkpt lat="42.92316" lon="0.84186">
        <ele>1463</ele>
        <time>2018-12-02T10:26:04.000Z</time>
      </trkpt>
      <trkpt lat="42.92316" lon="0.84185">
        <ele>1463</ele>
        <time>2018-12-02T10:26:06.000Z</time>
      </trkpt>
      <trkpt lat="42.92315" lon="0.84184">
        <ele>1463</ele>
        <time>2018-12-02T10:26:08.000Z</time>
      </trkpt>
      <trkpt lat="42.92313" lon="0.84183">
        <ele>1463</ele>
        <time>2018-12-02T10:26:10.000Z</time>
      </trkpt>
      <trkpt lat="42.92311" lon="0.84182">
        <ele>1463</ele>
        <time>2018-12-02T10:26:12.000Z</time>
      </trkpt>
      <trkpt lat="42.92309" lon="0.8418">
        <ele>1463</ele>
        <time>2018-12-02T10:26:14.000Z</time>
      </trkpt>
      <trkpt lat="42.92307" lon="0.84178">
        <ele>1463</ele>
        <time>2018-12-02T10:26:16.000Z</time>
      </trkpt>
      <trkpt lat="42.92306" lon="0.84177">
        <ele>1463</ele>
        <time>2018-12-02T10:26:18.000Z</time>
      </trkpt>
      <trkpt lat="42.92304" lon="0.84176">
        <ele>1463</ele>
        <time>2018-12-02T10:26:20.000Z</time>
      </trkpt>
      <trkpt lat="42.92302" lon="0.84174">
        <ele>1463</ele>
        <time>2018-12-02T10:26:22.000Z</time>
      </trkpt>
      <trkpt lat="42.923" lon="0.84173">
        <ele>1463</ele>
        <time>2018-12-02T10:26:24.000Z</time>
      </trkpt>
      <trkpt lat="42.92297" lon="0.84172">
        <ele>1463</ele>
        <time>2018-12-02T10:26:26.000Z</time>
      </trkpt>
      <trkpt lat="42.92296" lon="0.8417">
        <ele>1462</ele>
        <time>2018-12-02T10:26:28.000Z</time>
      </trkpt>
      <trkpt lat="42.92294" lon="0.84168">
        <ele>1462</ele>
        <time>2018-12-02T10:26:30.000Z</time>
      </trkpt>
      <trkpt lat="42.92292" lon="0.84166">
        <ele>1462</ele>
        <time>2018-12-02T10:26:32.000Z</time>
      </trkpt>
      <trkpt lat="42.92291" lon="0.84165">
        <ele>1462</ele>
        <time>2018-12-02T10:26:34.000Z</time>
      </trkpt>
      <trkpt lat="42.92289" lon="0.84163">
        <ele>1462</ele>
        <time>2018-12-02T10:26:36.000Z</time>
      </trkpt>
      <trkpt lat="42.92287" lon="0.84162">
        <ele>1462</ele>
        <time>2018-12-02T10:26:38.000Z</time>
      </trkpt>
      <trkpt lat="42.92285" lon="0.8416">
        <ele>1462</ele>
        <time>2018-12-02T10:26:40.000Z</time>
      </trkpt>
      <trkpt lat="42.92283" lon="0.84159">
        <ele>1462</ele>
        <time>2018-12-02T10:26:42.000Z</time>
      </trkpt>
      <trkpt lat="42.92281" lon="0.84157">
        <ele>1462</ele>
        <time>2018-12-02T10:26:44.000Z</time>
      </trkpt>
      <trkpt lat="42.92279" lon="0.84156">
        <ele>1462</ele>
        <time>2018-12-02T10:26:46.000Z</time>
      </trkpt>
      <trkpt lat="42.92278" lon="0.84154">
        <ele>1462</ele>
        <time>2018-12-02T10:26:48.000Z</time>
      </trkpt>
      <trkpt lat="42.92276" lon="0.84152">
        <ele>1462</ele>
        <time>2018-12-02T10:26:50.000Z</time>
      </trkpt>
      <trkpt lat="42.92274" lon="0.84151">
        <ele>1462</ele>
        <time>2018-12-02T10:26:52.000Z</time>
      </trkpt>
      <trkpt lat="42.92272" lon="0.8415">
        <ele>1462</ele>
        <time>2018-12-02T10:26:54.000Z</time>
      </trkpt>
      <trkpt lat="42.9227" lon="0.84149">
        <ele>1461</ele>
        <time>2018-12-02T10:26:56.000Z</time>
      </trkpt>
      <trkpt lat="42.92267" lon="0.84149">
        <ele>1461</ele>
        <time>2018-12-02T10:26:58.000Z</time>
      </trkpt>
      <trkpt lat="42.92265" lon="0.84148">
        <ele>1461</ele>
        <time>2018-12-02T10:27:00.000Z</time>
      </trkpt>
      <trkpt lat="42.92263" lon="0.84147">
        <ele>1461</ele>
        <time>2018-12-02T10:27:02.000Z</time>
      </trkpt>
      <trkpt lat="42.92261" lon="0.84145">
        <ele>1461</ele>
        <time>2018-12-02T10:27:04.000Z</time>
      </trkpt>
      <trkpt lat="42.92259" lon="0.84144">
        <ele>1461</ele>
        <time>2018-12-02T10:27:06.000Z</time>
      </trkpt>
      <trkpt lat="42.92257" lon="0.84143">
        <ele>1460</ele>
        <time>2018-12-02T10:27:08.000Z</time>
      </trkpt>
      <trkpt lat="42.92255" lon="0.84141">
        <ele>1461</ele>
        <time>2018-12-02T10:27:10.000Z</time>
      </trkpt>
      <trkpt lat="42.92253" lon="0.84139">
        <ele>1461</ele>
        <time>2018-12-02T10:27:12.000Z</time>
      </trkpt>
      <trkpt lat="42.92251" lon="0.84138">
        <ele>1461</ele>
        <time>2018-12-02T10:27:14.000Z</time>
      </trkpt>
      <trkpt lat="42.92249" lon="0.84137">
        <ele>1461</ele>
        <time>2018-12-02T10:27:16.000Z</time>
      </trkpt>
      <trkpt lat="42.92247" lon="0.84135">
        <ele>1461</ele>
        <time>2018-12-02T10:27:18.000Z</time>
      </trkpt>
      <trkpt lat="42.92245" lon="0.84134">
        <ele>1461</ele>
        <time>2018-12-02T10:27:20.000Z</time>
      </trkpt>
      <trkpt lat="42.92243" lon="0.84132">
        <ele>1462</ele>
        <time>2018-12-02T10:27:22.000Z</time>
      </trkpt>
      <trkpt lat="42.92242" lon="0.8413">
        <ele>1462</ele>
        <time>2018-12-02T10:27:24.000Z</time>
      </trkpt>
      <trkpt lat="42.9224" lon="0.84129">
        <ele>1462</ele>
        <time>2018-12-02T10:27:26.000Z</time>
      </trkpt>
      <trkpt lat="42.92238" lon="0.84128">
        <ele>1462</ele>
        <time>2018-12-02T10:27:28.000Z</time>
      </trkpt>
      <trkpt lat="42.92236" lon="0.84126">
        <ele>1462</ele>
        <time>2018-12-02T10:27:30.000Z</time>
      </trkpt>
      <trkpt lat="42.92235" lon="0.84124">
        <ele>1462</ele>
        <time>2018-12-02T10:27:32.000Z</time>
      </trkpt>
      <trkpt lat="42.92233" lon="0.84122">
        <ele>1463</ele>
        <time>2018-12-02T10:27:34.000Z</time>
      </trkpt>
      <trkpt lat="42.92231" lon="0.84121">
        <ele>1463</ele>
        <time>2018-12-02T10:27:36.000Z</time>
      </trkpt>
      <trkpt lat="42.9223" lon="0.8412">
        <ele>1463</ele>
        <time>2018-12-02T10:27:38.000Z</time>
      </trkpt>
      <trkpt lat="42.92228" lon="0.84119">
        <ele>1463</ele>
        <time>2018-12-02T10:27:40.000Z</time>
      </trkpt>
      <trkpt lat="42.92227" lon="0.84117">
        <ele>1463</ele>
        <time>2018-12-02T10:27:42.000Z</time>
      </trkpt>
      <trkpt lat="42.92225" lon="0.84115">
        <ele>1464</ele>
        <time>2018-12-02T10:27:44.000Z</time>
      </trkpt>
      <trkpt lat="42.92224" lon="0.84114">
        <ele>1464</ele>
        <time>2018-12-02T10:27:46.000Z</time>
      </trkpt>
      <trkpt lat="42.92222" lon="0.84113">
        <ele>1464</ele>
        <time>2018-12-02T10:27:48.000Z</time>
      </trkpt>
      <trkpt lat="42.9222" lon="0.84111">
        <ele>1464</ele>
        <time>2018-12-02T10:27:50.000Z</time>
      </trkpt>
      <trkpt lat="42.92218" lon="0.8411">
        <ele>1464</ele>
        <time>2018-12-02T10:27:52.000Z</time>
      </trkpt>
      <trkpt lat="42.92217" lon="0.84108">
        <ele>1464</ele>
        <time>2018-12-02T10:27:54.000Z</time>
      </trkpt>
      <trkpt lat="42.92216" lon="0.84107">
        <ele>1464</ele>
        <time>2018-12-02T10:27:56.000Z</time>
      </trkpt>
      <trkpt lat="42.92214" lon="0.84106">
        <ele>1465</ele>
        <time>2018-12-02T10:27:58.000Z</time>
      </trkpt>
      <trkpt lat="42.92213" lon="0.84104">
        <ele>1465</ele>
        <time>2018-12-02T10:28:00.000Z</time>
      </trkpt>
      <trkpt lat="42.92211" lon="0.84103">
        <ele>1465</ele>
        <time>2018-12-02T10:28:02.000Z</time>
      </trkpt>
      <trkpt lat="42.9221" lon="0.84102">
        <ele>1465</ele>
        <time>2018-12-02T10:28:04.000Z</time>
      </trkpt>
      <trkpt lat="42.92209" lon="0.84101">
        <ele>1465</ele>
        <time>2018-12-02T10:28:06.000Z</time>
      </trkpt>
      <trkpt lat="42.92208" lon="0.841">
        <ele>1465</ele>
        <time>2018-12-02T10:28:08.000Z</time>
      </trkpt>
      <trkpt lat="42.92207" lon="0.84099">
        <ele>1466</ele>
        <time>2018-12-02T10:28:10.000Z</time>
      </trkpt>
      <trkpt lat="42.92206" lon="0.84098">
        <ele>1466</ele>
        <time>2018-12-02T10:28:12.000Z</time>
      </trkpt>
      <trkpt lat="42.92205" lon="0.84098">
        <ele>1466</ele>
        <time>2018-12-02T10:28:14.000Z</time>
      </trkpt>
      <trkpt lat="42.92204" lon="0.84097">
        <ele>1466</ele>
        <time>2018-12-02T10:28:16.000Z</time>
      </trkpt>
      <trkpt lat="42.92203" lon="0.84097">
        <ele>1466</ele>
        <time>2018-12-02T10:28:18.000Z</time>
      </trkpt>
      <trkpt lat="42.92201" lon="0.84097">
        <ele>1466</ele>
        <time>2018-12-02T10:28:20.000Z</time>
      </trkpt>
      <trkpt lat="42.922" lon="0.84096">
        <ele>1466</ele>
        <time>2018-12-02T10:28:22.000Z</time>
      </trkpt>
      <trkpt lat="42.92199" lon="0.84095">
        <ele>1466</ele>
        <time>2018-12-02T10:28:24.000Z</time>
      </trkpt>
      <trkpt lat="42.92198" lon="0.84094">
        <ele>1466</ele>
        <time>2018-12-02T10:28:26.000Z</time>
      </trkpt>
      <trkpt lat="42.92197" lon="0.84093">
        <ele>1466</ele>
        <time>2018-12-02T10:28:28.000Z</time>
      </trkpt>
      <trkpt lat="42.92196" lon="0.84093">
        <ele>1466</ele>
        <time>2018-12-02T10:28:30.000Z</time>
      </trkpt>
      <trkpt lat="42.92195" lon="0.84092">
        <ele>1466</ele>
        <time>2018-12-02T10:28:32.000Z</time>
      </trkpt>
      <trkpt lat="42.92195" lon="0.8409">
        <ele>1466</ele>
        <time>2018-12-02T10:28:34.000Z</time>
      </trkpt>
      <trkpt lat="42.92194" lon="0.84089">
        <ele>1467</ele>
        <time>2018-12-02T10:28:36.000Z</time>
      </trkpt>
      <trkpt lat="42.92193" lon="0.84088">
        <ele>1467</ele>
        <time>2018-12-02T10:28:38.000Z</time>
      </trkpt>
      <trkpt lat="42.92193" lon="0.84087">
        <ele>1467</ele>
        <time>2018-12-02T10:28:40.000Z</time>
      </trkpt>
      <trkpt lat="42.92192" lon="0.84086">
        <ele>1467</ele>
        <time>2018-12-02T10:28:42.000Z</time>
      </trkpt>
      <trkpt lat="42.92192" lon="0.84085">
        <ele>1467</ele>
        <time>2018-12-02T10:28:44.000Z</time>
      </trkpt>
      <trkpt lat="42.92191" lon="0.84085">
        <ele>1467</ele>
        <time>2018-12-02T10:28:46.000Z</time>
      </trkpt>
      <trkpt lat="42.92191" lon="0.84084">
        <ele>1467</ele>
        <time>2018-12-02T10:28:48.000Z</time>
      </trkpt>
      <trkpt lat="42.9219" lon="0.84083">
        <ele>1468</ele>
        <time>2018-12-02T10:28:50.000Z</time>
      </trkpt>
      <trkpt lat="42.92189" lon="0.84082">
        <ele>1468</ele>
        <time>2018-12-02T10:28:52.000Z</time>
      </trkpt>
      <trkpt lat="42.92189" lon="0.84081">
        <ele>1468</ele>
        <time>2018-12-02T10:28:54.000Z</time>
      </trkpt>
      <trkpt lat="42.92188" lon="0.8408">
        <ele>1468</ele>
        <time>2018-12-02T10:28:56.000Z</time>
      </trkpt>
      <trkpt lat="42.92187" lon="0.84078">
        <ele>1468</ele>
        <time>2018-12-02T10:28:58.000Z</time>
      </trkpt>
      <trkpt lat="42.92187" lon="0.84077">
        <ele>1469</ele>
        <time>2018-12-02T10:29:00.000Z</time>
      </trkpt>
      <trkpt lat="42.92186" lon="0.84076">
        <ele>1469</ele>
        <time>2018-12-02T10:29:02.000Z</time>
      </trkpt>
      <trkpt lat="42.92185" lon="0.84075">
        <ele>1469</ele>
        <time>2018-12-02T10:29:04.000Z</time>
      </trkpt>
      <trkpt lat="42.92184" lon="0.84074">
        <ele>1469</ele>
        <time>2018-12-02T10:29:06.000Z</time>
      </trkpt>
      <trkpt lat="42.92184" lon="0.84072">
        <ele>1469</ele>
        <time>2018-12-02T10:29:08.000Z</time>
      </trkpt>
      <trkpt lat="42.92183" lon="0.84071">
        <ele>1469</ele>
        <time>2018-12-02T10:29:10.000Z</time>
      </trkpt>
      <trkpt lat="42.92182" lon="0.8407">
        <ele>1470</ele>
        <time>2018-12-02T10:29:12.000Z</time>
      </trkpt>
      <trkpt lat="42.92181" lon="0.84069">
        <ele>1470</ele>
        <time>2018-12-02T10:29:14.000Z</time>
      </trkpt>
      <trkpt lat="42.92181" lon="0.84068">
        <ele>1470</ele>
        <time>2018-12-02T10:29:16.000Z</time>
      </trkpt>
      <trkpt lat="42.9218" lon="0.84066">
        <ele>1470</ele>
        <time>2018-12-02T10:29:18.000Z</time>
      </trkpt>
      <trkpt lat="42.92178" lon="0.84064">
        <ele>1471</ele>
        <time>2018-12-02T10:29:21.000Z</time>
      </trkpt>
      <trkpt lat="42.92177" lon="0.84063">
        <ele>1471</ele>
        <time>2018-12-02T10:29:23.000Z</time>
      </trkpt>
      <trkpt lat="42.92177" lon="0.84063">
        <ele>1471</ele>
        <time>2018-12-02T10:29:25.000Z</time>
      </trkpt>
      <trkpt lat="42.92175" lon="0.84062">
        <ele>1471</ele>
        <time>2018-12-02T10:29:27.000Z</time>
      </trkpt>
      <trkpt lat="42.92174" lon="0.84061">
        <ele>1471</ele>
        <time>2018-12-02T10:29:29.000Z</time>
      </trkpt>
      <trkpt lat="42.92174" lon="0.8406">
        <ele>1471</ele>
        <time>2018-12-02T10:29:31.000Z</time>
      </trkpt>
      <trkpt lat="42.92173" lon="0.84059">
        <ele>1471</ele>
        <time>2018-12-02T10:29:33.000Z</time>
      </trkpt>
      <trkpt lat="42.92172" lon="0.84057">
        <ele>1472</ele>
        <time>2018-12-02T10:29:35.000Z</time>
      </trkpt>
      <trkpt lat="42.92172" lon="0.84056">
        <ele>1472</ele>
        <time>2018-12-02T10:29:37.000Z</time>
      </trkpt>
      <trkpt lat="42.92171" lon="0.84055">
        <ele>1472</ele>
        <time>2018-12-02T10:29:39.000Z</time>
      </trkpt>
      <trkpt lat="42.9217" lon="0.84054">
        <ele>1472</ele>
        <time>2018-12-02T10:29:41.000Z</time>
      </trkpt>
      <trkpt lat="42.92169" lon="0.84053">
        <ele>1472</ele>
        <time>2018-12-02T10:29:43.000Z</time>
      </trkpt>
      <trkpt lat="42.92168" lon="0.84052">
        <ele>1472</ele>
        <time>2018-12-02T10:29:45.000Z</time>
      </trkpt>
      <trkpt lat="42.92166" lon="0.84051">
        <ele>1472</ele>
        <time>2018-12-02T10:29:47.000Z</time>
      </trkpt>
      <trkpt lat="42.92165" lon="0.8405">
        <ele>1473</ele>
        <time>2018-12-02T10:29:49.000Z</time>
      </trkpt>
      <trkpt lat="42.92165" lon="0.84048">
        <ele>1473</ele>
        <time>2018-12-02T10:29:51.000Z</time>
      </trkpt>
      <trkpt lat="42.92164" lon="0.84046">
        <ele>1473</ele>
        <time>2018-12-02T10:29:53.000Z</time>
      </trkpt>
      <trkpt lat="42.92163" lon="0.84045">
        <ele>1474</ele>
        <time>2018-12-02T10:29:55.000Z</time>
      </trkpt>
      <trkpt lat="42.92162" lon="0.84044">
        <ele>1474</ele>
        <time>2018-12-02T10:29:57.000Z</time>
      </trkpt>
      <trkpt lat="42.92161" lon="0.84043">
        <ele>1474</ele>
        <time>2018-12-02T10:29:59.000Z</time>
      </trkpt>
      <trkpt lat="42.9216" lon="0.84041">
        <ele>1474</ele>
        <time>2018-12-02T10:30:01.000Z</time>
      </trkpt>
      <trkpt lat="42.9216" lon="0.8404">
        <ele>1475</ele>
        <time>2018-12-02T10:30:03.000Z</time>
      </trkpt>
      <trkpt lat="42.92159" lon="0.84038">
        <ele>1475</ele>
        <time>2018-12-02T10:30:05.000Z</time>
      </trkpt>
      <trkpt lat="42.92159" lon="0.84037">
        <ele>1475</ele>
        <time>2018-12-02T10:30:07.000Z</time>
      </trkpt>
      <trkpt lat="42.92158" lon="0.84036">
        <ele>1475</ele>
        <time>2018-12-02T10:30:09.000Z</time>
      </trkpt>
      <trkpt lat="42.92157" lon="0.84034">
        <ele>1475</ele>
        <time>2018-12-02T10:30:11.000Z</time>
      </trkpt>
      <trkpt lat="42.92157" lon="0.84033">
        <ele>1476</ele>
        <time>2018-12-02T10:30:13.000Z</time>
      </trkpt>
      <trkpt lat="42.92156" lon="0.84032">
        <ele>1476</ele>
        <time>2018-12-02T10:30:15.000Z</time>
      </trkpt>
      <trkpt lat="42.92155" lon="0.8403">
        <ele>1476</ele>
        <time>2018-12-02T10:30:17.000Z</time>
      </trkpt>
      <trkpt lat="42.92155" lon="0.84029">
        <ele>1476</ele>
        <time>2018-12-02T10:30:19.000Z</time>
      </trkpt>
      <trkpt lat="42.92154" lon="0.84028">
        <ele>1477</ele>
        <time>2018-12-02T10:30:21.000Z</time>
      </trkpt>
      <trkpt lat="42.92154" lon="0.84027">
        <ele>1477</ele>
        <time>2018-12-02T10:30:23.000Z</time>
      </trkpt>
      <trkpt lat="42.92153" lon="0.84026">
        <ele>1477</ele>
        <time>2018-12-02T10:30:25.000Z</time>
      </trkpt>
      <trkpt lat="42.92153" lon="0.84024">
        <ele>1477</ele>
        <time>2018-12-02T10:30:27.000Z</time>
      </trkpt>
      <trkpt lat="42.92152" lon="0.84023">
        <ele>1477</ele>
        <time>2018-12-02T10:30:29.000Z</time>
      </trkpt>
      <trkpt lat="42.92152" lon="0.84022">
        <ele>1477</ele>
        <time>2018-12-02T10:30:31.000Z</time>
      </trkpt>
      <trkpt lat="42.92151" lon="0.84021">
        <ele>1478</ele>
        <time>2018-12-02T10:30:33.000Z</time>
      </trkpt>
      <trkpt lat="42.9215" lon="0.8402">
        <ele>1478</ele>
        <time>2018-12-02T10:30:35.000Z</time>
      </trkpt>
      <trkpt lat="42.92149" lon="0.84019">
        <ele>1478</ele>
        <time>2018-12-02T10:30:37.000Z</time>
      </trkpt>
      <trkpt lat="42.92149" lon="0.84017">
        <ele>1478</ele>
        <time>2018-12-02T10:30:39.000Z</time>
      </trkpt>
      <trkpt lat="42.92148" lon="0.84016">
        <ele>1479</ele>
        <time>2018-12-02T10:30:41.000Z</time>
      </trkpt>
      <trkpt lat="42.92148" lon="0.84014">
        <ele>1479</ele>
        <time>2018-12-02T10:30:43.000Z</time>
      </trkpt>
      <trkpt lat="42.92147" lon="0.84014">
        <ele>1479</ele>
        <time>2018-12-02T10:30:45.000Z</time>
      </trkpt>
      <trkpt lat="42.92146" lon="0.84012">
        <ele>1479</ele>
        <time>2018-12-02T10:30:47.000Z</time>
      </trkpt>
      <trkpt lat="42.92146" lon="0.84011">
        <ele>1479</ele>
        <time>2018-12-02T10:30:49.000Z</time>
      </trkpt>
      <trkpt lat="42.92145" lon="0.8401">
        <ele>1480</ele>
        <time>2018-12-02T10:30:51.000Z</time>
      </trkpt>
      <trkpt lat="42.92144" lon="0.84009">
        <ele>1480</ele>
        <time>2018-12-02T10:30:53.000Z</time>
      </trkpt>
      <trkpt lat="42.92143" lon="0.84007">
        <ele>1480</ele>
        <time>2018-12-02T10:30:55.000Z</time>
      </trkpt>
      <trkpt lat="42.92143" lon="0.84006">
        <ele>1480</ele>
        <time>2018-12-02T10:30:57.000Z</time>
      </trkpt>
      <trkpt lat="42.92142" lon="0.84005">
        <ele>1480</ele>
        <time>2018-12-02T10:30:59.000Z</time>
      </trkpt>
      <trkpt lat="42.92141" lon="0.84004">
        <ele>1481</ele>
        <time>2018-12-02T10:31:01.000Z</time>
      </trkpt>
      <trkpt lat="42.9214" lon="0.84002">
        <ele>1481</ele>
        <time>2018-12-02T10:31:03.000Z</time>
      </trkpt>
      <trkpt lat="42.9214" lon="0.84001">
        <ele>1481</ele>
        <time>2018-12-02T10:31:05.000Z</time>
      </trkpt>
      <trkpt lat="42.92139" lon="0.84">
        <ele>1481</ele>
        <time>2018-12-02T10:31:07.000Z</time>
      </trkpt>
      <trkpt lat="42.92139" lon="0.83999">
        <ele>1481</ele>
        <time>2018-12-02T10:31:09.000Z</time>
      </trkpt>
      <trkpt lat="42.92138" lon="0.83998">
        <ele>1482</ele>
        <time>2018-12-02T10:31:11.000Z</time>
      </trkpt>
      <trkpt lat="42.92138" lon="0.83996">
        <ele>1482</ele>
        <time>2018-12-02T10:31:13.000Z</time>
      </trkpt>
      <trkpt lat="42.92137" lon="0.83995">
        <ele>1482</ele>
        <time>2018-12-02T10:31:15.000Z</time>
      </trkpt>
      <trkpt lat="42.92136" lon="0.83993">
        <ele>1482</ele>
        <time>2018-12-02T10:31:17.000Z</time>
      </trkpt>
      <trkpt lat="42.92136" lon="0.83992">
        <ele>1483</ele>
        <time>2018-12-02T10:31:19.000Z</time>
      </trkpt>
      <trkpt lat="42.92136" lon="0.8399">
        <ele>1483</ele>
        <time>2018-12-02T10:31:21.000Z</time>
      </trkpt>
      <trkpt lat="42.92135" lon="0.83989">
        <ele>1483</ele>
        <time>2018-12-02T10:31:23.000Z</time>
      </trkpt>
      <trkpt lat="42.92135" lon="0.83987">
        <ele>1483</ele>
        <time>2018-12-02T10:31:25.000Z</time>
      </trkpt>
      <trkpt lat="42.92134" lon="0.83986">
        <ele>1484</ele>
        <time>2018-12-02T10:31:27.000Z</time>
      </trkpt>
      <trkpt lat="42.92134" lon="0.83985">
        <ele>1484</ele>
        <time>2018-12-02T10:31:29.000Z</time>
      </trkpt>
      <trkpt lat="42.92133" lon="0.83984">
        <ele>1484</ele>
        <time>2018-12-02T10:31:31.000Z</time>
      </trkpt>
      <trkpt lat="42.92133" lon="0.83983">
        <ele>1484</ele>
        <time>2018-12-02T10:31:33.000Z</time>
      </trkpt>
      <trkpt lat="42.92133" lon="0.83982">
        <ele>1484</ele>
        <time>2018-12-02T10:31:35.000Z</time>
      </trkpt>
      <trkpt lat="42.92132" lon="0.8398">
        <ele>1485</ele>
        <time>2018-12-02T10:31:37.000Z</time>
      </trkpt>
      <trkpt lat="42.92132" lon="0.83979">
        <ele>1485</ele>
        <time>2018-12-02T10:31:39.000Z</time>
      </trkpt>
      <trkpt lat="42.92132" lon="0.83978">
        <ele>1485</ele>
        <time>2018-12-02T10:31:41.000Z</time>
      </trkpt>
      <trkpt lat="42.92131" lon="0.83977">
        <ele>1485</ele>
        <time>2018-12-02T10:31:43.000Z</time>
      </trkpt>
      <trkpt lat="42.92132" lon="0.83975">
        <ele>1486</ele>
        <time>2018-12-02T10:31:45.000Z</time>
      </trkpt>
      <trkpt lat="42.92131" lon="0.83973">
        <ele>1486</ele>
        <time>2018-12-02T10:31:47.000Z</time>
      </trkpt>
      <trkpt lat="42.92131" lon="0.83972">
        <ele>1486</ele>
        <time>2018-12-02T10:31:49.000Z</time>
      </trkpt>
      <trkpt lat="42.92131" lon="0.8397">
        <ele>1487</ele>
        <time>2018-12-02T10:31:51.000Z</time>
      </trkpt>
      <trkpt lat="42.92131" lon="0.83969">
        <ele>1487</ele>
        <time>2018-12-02T10:31:53.000Z</time>
      </trkpt>
      <trkpt lat="42.9213" lon="0.83967">
        <ele>1487</ele>
        <time>2018-12-02T10:31:56.000Z</time>
      </trkpt>
      <trkpt lat="42.92129" lon="0.83966">
        <ele>1487</ele>
        <time>2018-12-02T10:31:58.000Z</time>
      </trkpt>
      <trkpt lat="42.92129" lon="0.83965">
        <ele>1488</ele>
        <time>2018-12-02T10:32:00.000Z</time>
      </trkpt>
      <trkpt lat="42.92128" lon="0.83964">
        <ele>1488</ele>
        <time>2018-12-02T10:32:02.000Z</time>
      </trkpt>
      <trkpt lat="42.92127" lon="0.83963">
        <ele>1488</ele>
        <time>2018-12-02T10:32:04.000Z</time>
      </trkpt>
      <trkpt lat="42.92127" lon="0.83961">
        <ele>1489</ele>
        <time>2018-12-02T10:32:06.000Z</time>
      </trkpt>
      <trkpt lat="42.92126" lon="0.8396">
        <ele>1489</ele>
        <time>2018-12-02T10:32:08.000Z</time>
      </trkpt>
      <trkpt lat="42.92126" lon="0.83959">
        <ele>1489</ele>
        <time>2018-12-02T10:32:10.000Z</time>
      </trkpt>
      <trkpt lat="42.92125" lon="0.83958">
        <ele>1489</ele>
        <time>2018-12-02T10:32:12.000Z</time>
      </trkpt>
      <trkpt lat="42.92125" lon="0.83957">
        <ele>1490</ele>
        <time>2018-12-02T10:32:14.000Z</time>
      </trkpt>
      <trkpt lat="42.92124" lon="0.83957">
        <ele>1490</ele>
        <time>2018-12-02T10:32:16.000Z</time>
      </trkpt>
      <trkpt lat="42.92123" lon="0.83956">
        <ele>1490</ele>
        <time>2018-12-02T10:32:18.000Z</time>
      </trkpt>
      <trkpt lat="42.92123" lon="0.83955">
        <ele>1490</ele>
        <time>2018-12-02T10:32:20.000Z</time>
      </trkpt>
      <trkpt lat="42.92121" lon="0.83954">
        <ele>1490</ele>
        <time>2018-12-02T10:32:22.000Z</time>
      </trkpt>
      <trkpt lat="42.9212" lon="0.83954">
        <ele>1490</ele>
        <time>2018-12-02T10:32:24.000Z</time>
      </trkpt>
      <trkpt lat="42.92119" lon="0.83953">
        <ele>1490</ele>
        <time>2018-12-02T10:32:26.000Z</time>
      </trkpt>
      <trkpt lat="42.92119" lon="0.83952">
        <ele>1491</ele>
        <time>2018-12-02T10:32:28.000Z</time>
      </trkpt>
      <trkpt lat="42.92118" lon="0.83951">
        <ele>1491</ele>
        <time>2018-12-02T10:32:30.000Z</time>
      </trkpt>
      <trkpt lat="42.92118" lon="0.83949">
        <ele>1491</ele>
        <time>2018-12-02T10:32:32.000Z</time>
      </trkpt>
      <trkpt lat="42.92117" lon="0.83948">
        <ele>1491</ele>
        <time>2018-12-02T10:32:34.000Z</time>
      </trkpt>
      <trkpt lat="42.92116" lon="0.83947">
        <ele>1492</ele>
        <time>2018-12-02T10:32:36.000Z</time>
      </trkpt>
      <trkpt lat="42.92115" lon="0.83946">
        <ele>1492</ele>
        <time>2018-12-02T10:32:38.000Z</time>
      </trkpt>
      <trkpt lat="42.92115" lon="0.83945">
        <ele>1492</ele>
        <time>2018-12-02T10:32:40.000Z</time>
      </trkpt>
      <trkpt lat="42.92114" lon="0.83943">
        <ele>1493</ele>
        <time>2018-12-02T10:32:42.000Z</time>
      </trkpt>
      <trkpt lat="42.92113" lon="0.83942">
        <ele>1493</ele>
        <time>2018-12-02T10:32:44.000Z</time>
      </trkpt>
      <trkpt lat="42.92113" lon="0.83941">
        <ele>1493</ele>
        <time>2018-12-02T10:32:46.000Z</time>
      </trkpt>
      <trkpt lat="42.92112" lon="0.8394">
        <ele>1493</ele>
        <time>2018-12-02T10:32:48.000Z</time>
      </trkpt>
      <trkpt lat="42.92111" lon="0.83939">
        <ele>1494</ele>
        <time>2018-12-02T10:32:50.000Z</time>
      </trkpt>
      <trkpt lat="42.92111" lon="0.83937">
        <ele>1494</ele>
        <time>2018-12-02T10:32:52.000Z</time>
      </trkpt>
      <trkpt lat="42.9211" lon="0.83936">
        <ele>1494</ele>
        <time>2018-12-02T10:32:54.000Z</time>
      </trkpt>
      <trkpt lat="42.9211" lon="0.83935">
        <ele>1494</ele>
        <time>2018-12-02T10:32:56.000Z</time>
      </trkpt>
      <trkpt lat="42.92109" lon="0.83934">
        <ele>1495</ele>
        <time>2018-12-02T10:32:58.000Z</time>
      </trkpt>
      <trkpt lat="42.92109" lon="0.83932">
        <ele>1495</ele>
        <time>2018-12-02T10:33:00.000Z</time>
      </trkpt>
      <trkpt lat="42.92109" lon="0.83931">
        <ele>1495</ele>
        <time>2018-12-02T10:33:02.000Z</time>
      </trkpt>
      <trkpt lat="42.92108" lon="0.83929">
        <ele>1496</ele>
        <time>2018-12-02T10:33:04.000Z</time>
      </trkpt>
      <trkpt lat="42.92108" lon="0.83927">
        <ele>1496</ele>
        <time>2018-12-02T10:33:06.000Z</time>
      </trkpt>
      <trkpt lat="42.92108" lon="0.83926">
        <ele>1497</ele>
        <time>2018-12-02T10:33:08.000Z</time>
      </trkpt>
      <trkpt lat="42.92107" lon="0.83924">
        <ele>1497</ele>
        <time>2018-12-02T10:33:10.000Z</time>
      </trkpt>
      <trkpt lat="42.92107" lon="0.83923">
        <ele>1497</ele>
        <time>2018-12-02T10:33:12.000Z</time>
      </trkpt>
      <trkpt lat="42.92106" lon="0.83921">
        <ele>1498</ele>
        <time>2018-12-02T10:33:14.000Z</time>
      </trkpt>
      <trkpt lat="42.92105" lon="0.83919">
        <ele>1498</ele>
        <time>2018-12-02T10:33:16.000Z</time>
      </trkpt>
      <trkpt lat="42.92105" lon="0.83918">
        <ele>1498</ele>
        <time>2018-12-02T10:33:18.000Z</time>
      </trkpt>
      <trkpt lat="42.92104" lon="0.83916">
        <ele>1499</ele>
        <time>2018-12-02T10:33:20.000Z</time>
      </trkpt>
      <trkpt lat="42.92103" lon="0.83914">
        <ele>1499</ele>
        <time>2018-12-02T10:33:22.000Z</time>
      </trkpt>
      <trkpt lat="42.92103" lon="0.83913">
        <ele>1500</ele>
        <time>2018-12-02T10:33:24.000Z</time>
      </trkpt>
      <trkpt lat="42.92102" lon="0.83911">
        <ele>1500</ele>
        <time>2018-12-02T10:33:26.000Z</time>
      </trkpt>
      <trkpt lat="42.92102" lon="0.83909">
        <ele>1500</ele>
        <time>2018-12-02T10:33:28.000Z</time>
      </trkpt>
      <trkpt lat="42.92101" lon="0.83908">
        <ele>1501</ele>
        <time>2018-12-02T10:33:30.000Z</time>
      </trkpt>
      <trkpt lat="42.92101" lon="0.83906">
        <ele>1501</ele>
        <time>2018-12-02T10:33:32.000Z</time>
      </trkpt>
      <trkpt lat="42.921" lon="0.83905">
        <ele>1501</ele>
        <time>2018-12-02T10:33:34.000Z</time>
      </trkpt>
      <trkpt lat="42.92099" lon="0.83903">
        <ele>1502</ele>
        <time>2018-12-02T10:33:36.000Z</time>
      </trkpt>
      <trkpt lat="42.92099" lon="0.83902">
        <ele>1502</ele>
        <time>2018-12-02T10:33:38.000Z</time>
      </trkpt>
      <trkpt lat="42.92098" lon="0.839">
        <ele>1503</ele>
        <time>2018-12-02T10:33:40.000Z</time>
      </trkpt>
      <trkpt lat="42.92097" lon="0.83898">
        <ele>1503</ele>
        <time>2018-12-02T10:33:42.000Z</time>
      </trkpt>
      <trkpt lat="42.92097" lon="0.83897">
        <ele>1503</ele>
        <time>2018-12-02T10:33:44.000Z</time>
      </trkpt>
      <trkpt lat="42.92097" lon="0.83895">
        <ele>1504</ele>
        <time>2018-12-02T10:33:46.000Z</time>
      </trkpt>
      <trkpt lat="42.92096" lon="0.83894">
        <ele>1504</ele>
        <time>2018-12-02T10:33:48.000Z</time>
      </trkpt>
      <trkpt lat="42.92095" lon="0.83892">
        <ele>1504</ele>
        <time>2018-12-02T10:33:50.000Z</time>
      </trkpt>
      <trkpt lat="42.92095" lon="0.83891">
        <ele>1504</ele>
        <time>2018-12-02T10:33:52.000Z</time>
      </trkpt>
      <trkpt lat="42.92094" lon="0.83889">
        <ele>1505</ele>
        <time>2018-12-02T10:33:54.000Z</time>
      </trkpt>
      <trkpt lat="42.92093" lon="0.83888">
        <ele>1505</ele>
        <time>2018-12-02T10:33:56.000Z</time>
      </trkpt>
      <trkpt lat="42.92093" lon="0.83886">
        <ele>1505</ele>
        <time>2018-12-02T10:33:58.000Z</time>
      </trkpt>
      <trkpt lat="42.92092" lon="0.83885">
        <ele>1505</ele>
        <time>2018-12-02T10:34:00.000Z</time>
      </trkpt>
      <trkpt lat="42.92092" lon="0.83883">
        <ele>1506</ele>
        <time>2018-12-02T10:34:02.000Z</time>
      </trkpt>
      <trkpt lat="42.92091" lon="0.83882">
        <ele>1506</ele>
        <time>2018-12-02T10:34:04.000Z</time>
      </trkpt>
      <trkpt lat="42.92091" lon="0.83881">
        <ele>1506</ele>
        <time>2018-12-02T10:34:06.000Z</time>
      </trkpt>
      <trkpt lat="42.9209" lon="0.83879">
        <ele>1507</ele>
        <time>2018-12-02T10:34:08.000Z</time>
      </trkpt>
      <trkpt lat="42.92089" lon="0.83878">
        <ele>1507</ele>
        <time>2018-12-02T10:34:10.000Z</time>
      </trkpt>
      <trkpt lat="42.92089" lon="0.83876">
        <ele>1507</ele>
        <time>2018-12-02T10:34:12.000Z</time>
      </trkpt>
      <trkpt lat="42.92088" lon="0.83875">
        <ele>1507</ele>
        <time>2018-12-02T10:34:14.000Z</time>
      </trkpt>
      <trkpt lat="42.92087" lon="0.83873">
        <ele>1508</ele>
        <time>2018-12-02T10:34:16.000Z</time>
      </trkpt>
      <trkpt lat="42.92086" lon="0.83871">
        <ele>1508</ele>
        <time>2018-12-02T10:34:18.000Z</time>
      </trkpt>
      <trkpt lat="42.92086" lon="0.83869">
        <ele>1508</ele>
        <time>2018-12-02T10:34:20.000Z</time>
      </trkpt>
      <trkpt lat="42.92085" lon="0.83868">
        <ele>1508</ele>
        <time>2018-12-02T10:34:22.000Z</time>
      </trkpt>
      <trkpt lat="42.92084" lon="0.83866">
        <ele>1508</ele>
        <time>2018-12-02T10:34:24.000Z</time>
      </trkpt>
      <trkpt lat="42.92084" lon="0.83864">
        <ele>1509</ele>
        <time>2018-12-02T10:34:26.000Z</time>
      </trkpt>
      <trkpt lat="42.92083" lon="0.83863">
        <ele>1509</ele>
        <time>2018-12-02T10:34:28.000Z</time>
      </trkpt>
      <trkpt lat="42.92083" lon="0.83861">
        <ele>1509</ele>
        <time>2018-12-02T10:34:30.000Z</time>
      </trkpt>
      <trkpt lat="42.92083" lon="0.83859">
        <ele>1510</ele>
        <time>2018-12-02T10:34:32.000Z</time>
      </trkpt>
      <trkpt lat="42.92082" lon="0.83857">
        <ele>1510</ele>
        <time>2018-12-02T10:34:34.000Z</time>
      </trkpt>
      <trkpt lat="42.92081" lon="0.83855">
        <ele>1510</ele>
        <time>2018-12-02T10:34:36.000Z</time>
      </trkpt>
      <trkpt lat="42.92081" lon="0.83853">
        <ele>1510</ele>
        <time>2018-12-02T10:34:38.000Z</time>
      </trkpt>
      <trkpt lat="42.9208" lon="0.83852">
        <ele>1511</ele>
        <time>2018-12-02T10:34:40.000Z</time>
      </trkpt>
      <trkpt lat="42.9208" lon="0.8385">
        <ele>1511</ele>
        <time>2018-12-02T10:34:42.000Z</time>
      </trkpt>
      <trkpt lat="42.92079" lon="0.83848">
        <ele>1511</ele>
        <time>2018-12-02T10:34:44.000Z</time>
      </trkpt>
      <trkpt lat="42.92078" lon="0.83846">
        <ele>1511</ele>
        <time>2018-12-02T10:34:46.000Z</time>
      </trkpt>
      <trkpt lat="42.92077" lon="0.83844">
        <ele>1512</ele>
        <time>2018-12-02T10:34:48.000Z</time>
      </trkpt>
      <trkpt lat="42.92077" lon="0.83843">
        <ele>1512</ele>
        <time>2018-12-02T10:34:50.000Z</time>
      </trkpt>
      <trkpt lat="42.92076" lon="0.83841">
        <ele>1512</ele>
        <time>2018-12-02T10:34:52.000Z</time>
      </trkpt>
      <trkpt lat="42.92075" lon="0.83839">
        <ele>1513</ele>
        <time>2018-12-02T10:34:54.000Z</time>
      </trkpt>
      <trkpt lat="42.92074" lon="0.83837">
        <ele>1513</ele>
        <time>2018-12-02T10:34:56.000Z</time>
      </trkpt>
      <trkpt lat="42.92073" lon="0.83835">
        <ele>1513</ele>
        <time>2018-12-02T10:34:58.000Z</time>
      </trkpt>
      <trkpt lat="42.92072" lon="0.83833">
        <ele>1513</ele>
        <time>2018-12-02T10:35:00.000Z</time>
      </trkpt>
      <trkpt lat="42.92071" lon="0.83831">
        <ele>1514</ele>
        <time>2018-12-02T10:35:02.000Z</time>
      </trkpt>
      <trkpt lat="42.9207" lon="0.83829">
        <ele>1514</ele>
        <time>2018-12-02T10:35:04.000Z</time>
      </trkpt>
      <trkpt lat="42.9207" lon="0.83827">
        <ele>1514</ele>
        <time>2018-12-02T10:35:06.000Z</time>
      </trkpt>
      <trkpt lat="42.92069" lon="0.83825">
        <ele>1515</ele>
        <time>2018-12-02T10:35:08.000Z</time>
      </trkpt>
      <trkpt lat="42.92069" lon="0.83822">
        <ele>1515</ele>
        <time>2018-12-02T10:35:10.000Z</time>
      </trkpt>
      <trkpt lat="42.92068" lon="0.8382">
        <ele>1515</ele>
        <time>2018-12-02T10:35:12.000Z</time>
      </trkpt>
      <trkpt lat="42.92067" lon="0.83818">
        <ele>1516</ele>
        <time>2018-12-02T10:35:14.000Z</time>
      </trkpt>
      <trkpt lat="42.92066" lon="0.83816">
        <ele>1516</ele>
        <time>2018-12-02T10:35:16.000Z</time>
      </trkpt>
      <trkpt lat="42.92065" lon="0.83814">
        <ele>1516</ele>
        <time>2018-12-02T10:35:18.000Z</time>
      </trkpt>
      <trkpt lat="42.92064" lon="0.83812">
        <ele>1516</ele>
        <time>2018-12-02T10:35:20.000Z</time>
      </trkpt>
      <trkpt lat="42.92063" lon="0.8381">
        <ele>1517</ele>
        <time>2018-12-02T10:35:22.000Z</time>
      </trkpt>
      <trkpt lat="42.92063" lon="0.83808">
        <ele>1517</ele>
        <time>2018-12-02T10:35:24.000Z</time>
      </trkpt>
      <trkpt lat="42.92062" lon="0.83807">
        <ele>1517</ele>
        <time>2018-12-02T10:35:26.000Z</time>
      </trkpt>
      <trkpt lat="42.92061" lon="0.83805">
        <ele>1517</ele>
        <time>2018-12-02T10:35:28.000Z</time>
      </trkpt>
      <trkpt lat="42.9206" lon="0.83802">
        <ele>1518</ele>
        <time>2018-12-02T10:35:30.000Z</time>
      </trkpt>
      <trkpt lat="42.9206" lon="0.83801">
        <ele>1518</ele>
        <time>2018-12-02T10:35:32.000Z</time>
      </trkpt>
      <trkpt lat="42.92059" lon="0.83799">
        <ele>1518</ele>
        <time>2018-12-02T10:35:34.000Z</time>
      </trkpt>
      <trkpt lat="42.92058" lon="0.83797">
        <ele>1518</ele>
        <time>2018-12-02T10:35:36.000Z</time>
      </trkpt>
      <trkpt lat="42.92057" lon="0.83795">
        <ele>1518</ele>
        <time>2018-12-02T10:35:38.000Z</time>
      </trkpt>
      <trkpt lat="42.92056" lon="0.83792">
        <ele>1518</ele>
        <time>2018-12-02T10:35:40.000Z</time>
      </trkpt>
      <trkpt lat="42.92056" lon="0.8379">
        <ele>1519</ele>
        <time>2018-12-02T10:35:42.000Z</time>
      </trkpt>
      <trkpt lat="42.92055" lon="0.83788">
        <ele>1519</ele>
        <time>2018-12-02T10:35:44.000Z</time>
      </trkpt>
      <trkpt lat="42.92054" lon="0.83786">
        <ele>1519</ele>
        <time>2018-12-02T10:35:46.000Z</time>
      </trkpt>
      <trkpt lat="42.92053" lon="0.83784">
        <ele>1519</ele>
        <time>2018-12-02T10:35:48.000Z</time>
      </trkpt>
      <trkpt lat="42.92052" lon="0.83782">
        <ele>1519</ele>
        <time>2018-12-02T10:35:50.000Z</time>
      </trkpt>
      <trkpt lat="42.92052" lon="0.8378">
        <ele>1519</ele>
        <time>2018-12-02T10:35:52.000Z</time>
      </trkpt>
      <trkpt lat="42.92051" lon="0.83778">
        <ele>1520</ele>
        <time>2018-12-02T10:35:54.000Z</time>
      </trkpt>
      <trkpt lat="42.9205" lon="0.83776">
        <ele>1520</ele>
        <time>2018-12-02T10:35:56.000Z</time>
      </trkpt>
      <trkpt lat="42.92049" lon="0.83774">
        <ele>1520</ele>
        <time>2018-12-02T10:35:58.000Z</time>
      </trkpt>
      <trkpt lat="42.92049" lon="0.83772">
        <ele>1520</ele>
        <time>2018-12-02T10:36:00.000Z</time>
      </trkpt>
      <trkpt lat="42.92048" lon="0.8377">
        <ele>1520</ele>
        <time>2018-12-02T10:36:02.000Z</time>
      </trkpt>
      <trkpt lat="42.92047" lon="0.83768">
        <ele>1520</ele>
        <time>2018-12-02T10:36:04.000Z</time>
      </trkpt>
      <trkpt lat="42.92046" lon="0.83766">
        <ele>1521</ele>
        <time>2018-12-02T10:36:06.000Z</time>
      </trkpt>
      <trkpt lat="42.92046" lon="0.83763">
        <ele>1521</ele>
        <time>2018-12-02T10:36:08.000Z</time>
      </trkpt>
      <trkpt lat="42.92045" lon="0.83761">
        <ele>1521</ele>
        <time>2018-12-02T10:36:10.000Z</time>
      </trkpt>
      <trkpt lat="42.92044" lon="0.8376">
        <ele>1521</ele>
        <time>2018-12-02T10:36:12.000Z</time>
      </trkpt>
      <trkpt lat="42.92044" lon="0.83759">
        <ele>1521</ele>
        <time>2018-12-02T10:36:14.000Z</time>
      </trkpt>
      <trkpt lat="42.92042" lon="0.83757">
        <ele>1521</ele>
        <time>2018-12-02T10:36:16.000Z</time>
      </trkpt>
      <trkpt lat="42.92042" lon="0.83755">
        <ele>1521</ele>
        <time>2018-12-02T10:36:18.000Z</time>
      </trkpt>
      <trkpt lat="42.92041" lon="0.83753">
        <ele>1521</ele>
        <time>2018-12-02T10:36:20.000Z</time>
      </trkpt>
      <trkpt lat="42.9204" lon="0.83751">
        <ele>1521</ele>
        <time>2018-12-02T10:36:22.000Z</time>
      </trkpt>
      <trkpt lat="42.92039" lon="0.83749">
        <ele>1522</ele>
        <time>2018-12-02T10:36:24.000Z</time>
      </trkpt>
      <trkpt lat="42.92038" lon="0.83748">
        <ele>1522</ele>
        <time>2018-12-02T10:36:26.000Z</time>
      </trkpt>
      <trkpt lat="42.92037" lon="0.83746">
        <ele>1522</ele>
        <time>2018-12-02T10:36:28.000Z</time>
      </trkpt>
      <trkpt lat="42.92036" lon="0.83744">
        <ele>1522</ele>
        <time>2018-12-02T10:36:30.000Z</time>
      </trkpt>
      <trkpt lat="42.92036" lon="0.83742">
        <ele>1522</ele>
        <time>2018-12-02T10:36:32.000Z</time>
      </trkpt>
      <trkpt lat="42.92035" lon="0.83741">
        <ele>1522</ele>
        <time>2018-12-02T10:36:34.000Z</time>
      </trkpt>
      <trkpt lat="42.92034" lon="0.83739">
        <ele>1522</ele>
        <time>2018-12-02T10:36:36.000Z</time>
      </trkpt>
      <trkpt lat="42.92034" lon="0.83736">
        <ele>1522</ele>
        <time>2018-12-02T10:36:38.000Z</time>
      </trkpt>
      <trkpt lat="42.92033" lon="0.83735">
        <ele>1522</ele>
        <time>2018-12-02T10:36:40.000Z</time>
      </trkpt>
      <trkpt lat="42.92032" lon="0.83733">
        <ele>1522</ele>
        <time>2018-12-02T10:36:42.000Z</time>
      </trkpt>
      <trkpt lat="42.92031" lon="0.83732">
        <ele>1522</ele>
        <time>2018-12-02T10:36:44.000Z</time>
      </trkpt>
      <trkpt lat="42.9203" lon="0.8373">
        <ele>1522</ele>
        <time>2018-12-02T10:36:46.000Z</time>
      </trkpt>
      <trkpt lat="42.92029" lon="0.83729">
        <ele>1522</ele>
        <time>2018-12-02T10:36:48.000Z</time>
      </trkpt>
      <trkpt lat="42.92029" lon="0.83727">
        <ele>1522</ele>
        <time>2018-12-02T10:36:50.000Z</time>
      </trkpt>
      <trkpt lat="42.92028" lon="0.83726">
        <ele>1522</ele>
        <time>2018-12-02T10:36:52.000Z</time>
      </trkpt>
      <trkpt lat="42.92027" lon="0.83724">
        <ele>1522</ele>
        <time>2018-12-02T10:36:54.000Z</time>
      </trkpt>
      <trkpt lat="42.92027" lon="0.83722">
        <ele>1522</ele>
        <time>2018-12-02T10:36:56.000Z</time>
      </trkpt>
      <trkpt lat="42.92026" lon="0.83721">
        <ele>1523</ele>
        <time>2018-12-02T10:36:58.000Z</time>
      </trkpt>
      <trkpt lat="42.92026" lon="0.83719">
        <ele>1523</ele>
        <time>2018-12-02T10:37:00.000Z</time>
      </trkpt>
      <trkpt lat="42.92025" lon="0.83717">
        <ele>1523</ele>
        <time>2018-12-02T10:37:02.000Z</time>
      </trkpt>
      <trkpt lat="42.92025" lon="0.83716">
        <ele>1524</ele>
        <time>2018-12-02T10:37:04.000Z</time>
      </trkpt>
      <trkpt lat="42.92024" lon="0.83714">
        <ele>1524</ele>
        <time>2018-12-02T10:37:06.000Z</time>
      </trkpt>
      <trkpt lat="42.92024" lon="0.83713">
        <ele>1524</ele>
        <time>2018-12-02T10:37:08.000Z</time>
      </trkpt>
      <trkpt lat="42.92024" lon="0.83711">
        <ele>1524</ele>
        <time>2018-12-02T10:37:10.000Z</time>
      </trkpt>
      <trkpt lat="42.92023" lon="0.83709">
        <ele>1525</ele>
        <time>2018-12-02T10:37:12.000Z</time>
      </trkpt>
      <trkpt lat="42.92023" lon="0.83708">
        <ele>1525</ele>
        <time>2018-12-02T10:37:14.000Z</time>
      </trkpt>
      <trkpt lat="42.92023" lon="0.83707">
        <ele>1525</ele>
        <time>2018-12-02T10:37:16.000Z</time>
      </trkpt>
      <trkpt lat="42.92022" lon="0.83705">
        <ele>1526</ele>
        <time>2018-12-02T10:37:18.000Z</time>
      </trkpt>
      <trkpt lat="42.92022" lon="0.83704">
        <ele>1526</ele>
        <time>2018-12-02T10:37:20.000Z</time>
      </trkpt>
      <trkpt lat="42.92021" lon="0.83702">
        <ele>1526</ele>
        <time>2018-12-02T10:37:22.000Z</time>
      </trkpt>
      <trkpt lat="42.92021" lon="0.83701">
        <ele>1526</ele>
        <time>2018-12-02T10:37:24.000Z</time>
      </trkpt>
      <trkpt lat="42.9202" lon="0.837">
        <ele>1527</ele>
        <time>2018-12-02T10:37:26.000Z</time>
      </trkpt>
      <trkpt lat="42.9202" lon="0.83698">
        <ele>1527</ele>
        <time>2018-12-02T10:37:28.000Z</time>
      </trkpt>
      <trkpt lat="42.92019" lon="0.83697">
        <ele>1527</ele>
        <time>2018-12-02T10:37:30.000Z</time>
      </trkpt>
      <trkpt lat="42.92019" lon="0.83696">
        <ele>1527</ele>
        <time>2018-12-02T10:37:32.000Z</time>
      </trkpt>
      <trkpt lat="42.92018" lon="0.83694">
        <ele>1528</ele>
        <time>2018-12-02T10:37:34.000Z</time>
      </trkpt>
      <trkpt lat="42.92017" lon="0.83692">
        <ele>1528</ele>
        <time>2018-12-02T10:37:36.000Z</time>
      </trkpt>
      <trkpt lat="42.92017" lon="0.83691">
        <ele>1528</ele>
        <time>2018-12-02T10:37:38.000Z</time>
      </trkpt>
      <trkpt lat="42.92016" lon="0.8369">
        <ele>1529</ele>
        <time>2018-12-02T10:37:40.000Z</time>
      </trkpt>
      <trkpt lat="42.92016" lon="0.83689">
        <ele>1529</ele>
        <time>2018-12-02T10:37:42.000Z</time>
      </trkpt>
      <trkpt lat="42.92015" lon="0.83687">
        <ele>1529</ele>
        <time>2018-12-02T10:37:44.000Z</time>
      </trkpt>
      <trkpt lat="42.92014" lon="0.83686">
        <ele>1529</ele>
        <time>2018-12-02T10:37:46.000Z</time>
      </trkpt>
      <trkpt lat="42.92014" lon="0.83684">
        <ele>1530</ele>
        <time>2018-12-02T10:37:48.000Z</time>
      </trkpt>
      <trkpt lat="42.92014" lon="0.83682">
        <ele>1530</ele>
        <time>2018-12-02T10:37:50.000Z</time>
      </trkpt>
      <trkpt lat="42.92013" lon="0.8368">
        <ele>1530</ele>
        <time>2018-12-02T10:37:52.000Z</time>
      </trkpt>
      <trkpt lat="42.92013" lon="0.83679">
        <ele>1531</ele>
        <time>2018-12-02T10:37:54.000Z</time>
      </trkpt>
      <trkpt lat="42.92013" lon="0.83677">
        <ele>1531</ele>
        <time>2018-12-02T10:37:56.000Z</time>
      </trkpt>
      <trkpt lat="42.92013" lon="0.83676">
        <ele>1531</ele>
        <time>2018-12-02T10:37:58.000Z</time>
      </trkpt>
      <trkpt lat="42.92012" lon="0.83674">
        <ele>1531</ele>
        <time>2018-12-02T10:38:00.000Z</time>
      </trkpt>
      <trkpt lat="42.92012" lon="0.83673">
        <ele>1532</ele>
        <time>2018-12-02T10:38:02.000Z</time>
      </trkpt>
      <trkpt lat="42.92011" lon="0.83672">
        <ele>1532</ele>
        <time>2018-12-02T10:38:04.000Z</time>
      </trkpt>
      <trkpt lat="42.92011" lon="0.8367">
        <ele>1532</ele>
        <time>2018-12-02T10:38:06.000Z</time>
      </trkpt>
      <trkpt lat="42.92011" lon="0.83669">
        <ele>1532</ele>
        <time>2018-12-02T10:38:08.000Z</time>
      </trkpt>
      <trkpt lat="42.92012" lon="0.83668">
        <ele>1533</ele>
        <time>2018-12-02T10:38:10.000Z</time>
      </trkpt>
      <trkpt lat="42.92011" lon="0.83667">
        <ele>1533</ele>
        <time>2018-12-02T10:38:12.000Z</time>
      </trkpt>
      <trkpt lat="42.92011" lon="0.83665">
        <ele>1533</ele>
        <time>2018-12-02T10:38:14.000Z</time>
      </trkpt>
      <trkpt lat="42.92011" lon="0.83664">
        <ele>1533</ele>
        <time>2018-12-02T10:38:16.000Z</time>
      </trkpt>
      <trkpt lat="42.92011" lon="0.83662">
        <ele>1534</ele>
        <time>2018-12-02T10:38:18.000Z</time>
      </trkpt>
      <trkpt lat="42.92012" lon="0.83661">
        <ele>1534</ele>
        <time>2018-12-02T10:38:20.000Z</time>
      </trkpt>
      <trkpt lat="42.92013" lon="0.8366">
        <ele>1534</ele>
        <time>2018-12-02T10:38:22.000Z</time>
      </trkpt>
      <trkpt lat="42.92014" lon="0.83659">
        <ele>1534</ele>
        <time>2018-12-02T10:38:24.000Z</time>
      </trkpt>
      <trkpt lat="42.92016" lon="0.83657">
        <ele>1534</ele>
        <time>2018-12-02T10:38:26.000Z</time>
      </trkpt>
      <trkpt lat="42.92017" lon="0.83655">
        <ele>1535</ele>
        <time>2018-12-02T10:38:28.000Z</time>
      </trkpt>
      <trkpt lat="42.92017" lon="0.83653">
        <ele>1535</ele>
        <time>2018-12-02T10:38:30.000Z</time>
      </trkpt>
      <trkpt lat="42.92018" lon="0.83652">
        <ele>1535</ele>
        <time>2018-12-02T10:38:32.000Z</time>
      </trkpt>
      <trkpt lat="42.92018" lon="0.8365">
        <ele>1536</ele>
        <time>2018-12-02T10:38:34.000Z</time>
      </trkpt>
      <trkpt lat="42.92019" lon="0.83648">
        <ele>1536</ele>
        <time>2018-12-02T10:38:36.000Z</time>
      </trkpt>
      <trkpt lat="42.92019" lon="0.83647">
        <ele>1536</ele>
        <time>2018-12-02T10:38:38.000Z</time>
      </trkpt>
      <trkpt lat="42.92019" lon="0.83645">
        <ele>1536</ele>
        <time>2018-12-02T10:38:40.000Z</time>
      </trkpt>
      <trkpt lat="42.9202" lon="0.83644">
        <ele>1536</ele>
        <time>2018-12-02T10:38:42.000Z</time>
      </trkpt>
      <trkpt lat="42.9202" lon="0.83642">
        <ele>1536</ele>
        <time>2018-12-02T10:38:44.000Z</time>
      </trkpt>
      <trkpt lat="42.9202" lon="0.8364">
        <ele>1536</ele>
        <time>2018-12-02T10:38:46.000Z</time>
      </trkpt>
      <trkpt lat="42.92021" lon="0.83639">
        <ele>1536</ele>
        <time>2018-12-02T10:38:48.000Z</time>
      </trkpt>
      <trkpt lat="42.92021" lon="0.83637">
        <ele>1537</ele>
        <time>2018-12-02T10:38:50.000Z</time>
      </trkpt>
      <trkpt lat="42.92022" lon="0.83635">
        <ele>1537</ele>
        <time>2018-12-02T10:38:52.000Z</time>
      </trkpt>
      <trkpt lat="42.92023" lon="0.83634">
        <ele>1537</ele>
        <time>2018-12-02T10:38:54.000Z</time>
      </trkpt>
      <trkpt lat="42.92023" lon="0.83633">
        <ele>1537</ele>
        <time>2018-12-02T10:38:56.000Z</time>
      </trkpt>
      <trkpt lat="42.92024" lon="0.83631">
        <ele>1538</ele>
        <time>2018-12-02T10:38:58.000Z</time>
      </trkpt>
      <trkpt lat="42.92024" lon="0.8363">
        <ele>1538</ele>
        <time>2018-12-02T10:39:00.000Z</time>
      </trkpt>
      <trkpt lat="42.92024" lon="0.83628">
        <ele>1538</ele>
        <time>2018-12-02T10:39:02.000Z</time>
      </trkpt>
      <trkpt lat="42.92024" lon="0.83627">
        <ele>1539</ele>
        <time>2018-12-02T10:39:04.000Z</time>
      </trkpt>
      <trkpt lat="42.92025" lon="0.83625">
        <ele>1539</ele>
        <time>2018-12-02T10:39:06.000Z</time>
      </trkpt>
      <trkpt lat="42.92025" lon="0.83624">
        <ele>1539</ele>
        <time>2018-12-02T10:39:08.000Z</time>
      </trkpt>
      <trkpt lat="42.92025" lon="0.83623">
        <ele>1539</ele>
        <time>2018-12-02T10:39:10.000Z</time>
      </trkpt>
      <trkpt lat="42.92025" lon="0.83622">
        <ele>1540</ele>
        <time>2018-12-02T10:39:12.000Z</time>
      </trkpt>
      <trkpt lat="42.92026" lon="0.8362">
        <ele>1540</ele>
        <time>2018-12-02T10:39:14.000Z</time>
      </trkpt>
      <trkpt lat="42.92026" lon="0.83619">
        <ele>1540</ele>
        <time>2018-12-02T10:39:16.000Z</time>
      </trkpt>
      <trkpt lat="42.92026" lon="0.83618">
        <ele>1540</ele>
        <time>2018-12-02T10:39:18.000Z</time>
      </trkpt>
      <trkpt lat="42.92026" lon="0.83617">
        <ele>1540</ele>
        <time>2018-12-02T10:39:20.000Z</time>
      </trkpt>
      <trkpt lat="42.92026" lon="0.83615">
        <ele>1541</ele>
        <time>2018-12-02T10:39:22.000Z</time>
      </trkpt>
      <trkpt lat="42.92027" lon="0.83614">
        <ele>1541</ele>
        <time>2018-12-02T10:39:24.000Z</time>
      </trkpt>
      <trkpt lat="42.92027" lon="0.83613">
        <ele>1541</ele>
        <time>2018-12-02T10:39:26.000Z</time>
      </trkpt>
      <trkpt lat="42.92027" lon="0.83611">
        <ele>1542</ele>
        <time>2018-12-02T10:39:28.000Z</time>
      </trkpt>
      <trkpt lat="42.92027" lon="0.83611">
        <ele>1542</ele>
        <time>2018-12-02T10:39:30.000Z</time>
      </trkpt>
      <trkpt lat="42.92028" lon="0.83609">
        <ele>1542</ele>
        <time>2018-12-02T10:39:32.000Z</time>
      </trkpt>
      <trkpt lat="42.92029" lon="0.83608">
        <ele>1542</ele>
        <time>2018-12-02T10:39:34.000Z</time>
      </trkpt>
      <trkpt lat="42.92029" lon="0.83607">
        <ele>1542</ele>
        <time>2018-12-02T10:39:36.000Z</time>
      </trkpt>
      <trkpt lat="42.92029" lon="0.83605">
        <ele>1543</ele>
        <time>2018-12-02T10:39:38.000Z</time>
      </trkpt>
      <trkpt lat="42.9203" lon="0.83604">
        <ele>1543</ele>
        <time>2018-12-02T10:39:40.000Z</time>
      </trkpt>
      <trkpt lat="42.9203" lon="0.83603">
        <ele>1543</ele>
        <time>2018-12-02T10:39:42.000Z</time>
      </trkpt>
      <trkpt lat="42.92031" lon="0.83602">
        <ele>1543</ele>
        <time>2018-12-02T10:39:44.000Z</time>
      </trkpt>
      <trkpt lat="42.92031" lon="0.83601">
        <ele>1543</ele>
        <time>2018-12-02T10:39:46.000Z</time>
      </trkpt>
      <trkpt lat="42.92032" lon="0.836">
        <ele>1544</ele>
        <time>2018-12-02T10:39:48.000Z</time>
      </trkpt>
      <trkpt lat="42.92032" lon="0.83599">
        <ele>1544</ele>
        <time>2018-12-02T10:39:50.000Z</time>
      </trkpt>
      <trkpt lat="42.92033" lon="0.83597">
        <ele>1544</ele>
        <time>2018-12-02T10:39:52.000Z</time>
      </trkpt>
      <trkpt lat="42.92033" lon="0.83596">
        <ele>1544</ele>
        <time>2018-12-02T10:39:54.000Z</time>
      </trkpt>
      <trkpt lat="42.92033" lon="0.83595">
        <ele>1544</ele>
        <time>2018-12-02T10:39:56.000Z</time>
      </trkpt>
      <trkpt lat="42.92034" lon="0.83593">
        <ele>1545</ele>
        <time>2018-12-02T10:39:58.000Z</time>
      </trkpt>
      <trkpt lat="42.92034" lon="0.83592">
        <ele>1545</ele>
        <time>2018-12-02T10:40:00.000Z</time>
      </trkpt>
      <trkpt lat="42.92035" lon="0.83591">
        <ele>1545</ele>
        <time>2018-12-02T10:40:02.000Z</time>
      </trkpt>
      <trkpt lat="42.92035" lon="0.8359">
        <ele>1545</ele>
        <time>2018-12-02T10:40:04.000Z</time>
      </trkpt>
      <trkpt lat="42.92036" lon="0.83589">
        <ele>1545</ele>
        <time>2018-12-02T10:40:06.000Z</time>
      </trkpt>
      <trkpt lat="42.92037" lon="0.83587">
        <ele>1546</ele>
        <time>2018-12-02T10:40:08.000Z</time>
      </trkpt>
      <trkpt lat="42.92037" lon="0.83586">
        <ele>1546</ele>
        <time>2018-12-02T10:40:10.000Z</time>
      </trkpt>
      <trkpt lat="42.92037" lon="0.83585">
        <ele>1546</ele>
        <time>2018-12-02T10:40:12.000Z</time>
      </trkpt>
      <trkpt lat="42.92038" lon="0.83583">
        <ele>1546</ele>
        <time>2018-12-02T10:40:14.000Z</time>
      </trkpt>
      <trkpt lat="42.92038" lon="0.83582">
        <ele>1547</ele>
        <time>2018-12-02T10:40:16.000Z</time>
      </trkpt>
      <trkpt lat="42.92038" lon="0.83581">
        <ele>1547</ele>
        <time>2018-12-02T10:40:18.000Z</time>
      </trkpt>
      <trkpt lat="42.92039" lon="0.8358">
        <ele>1547</ele>
        <time>2018-12-02T10:40:20.000Z</time>
      </trkpt>
      <trkpt lat="42.9204" lon="0.83578">
        <ele>1547</ele>
        <time>2018-12-02T10:40:22.000Z</time>
      </trkpt>
      <trkpt lat="42.92041" lon="0.83577">
        <ele>1548</ele>
        <time>2018-12-02T10:40:24.000Z</time>
      </trkpt>
      <trkpt lat="42.92042" lon="0.83575">
        <ele>1548</ele>
        <time>2018-12-02T10:40:26.000Z</time>
      </trkpt>
      <trkpt lat="42.92042" lon="0.83574">
        <ele>1548</ele>
        <time>2018-12-02T10:40:28.000Z</time>
      </trkpt>
      <trkpt lat="42.92042" lon="0.83573">
        <ele>1548</ele>
        <time>2018-12-02T10:40:30.000Z</time>
      </trkpt>
      <trkpt lat="42.92042" lon="0.83571">
        <ele>1549</ele>
        <time>2018-12-02T10:40:32.000Z</time>
      </trkpt>
      <trkpt lat="42.92043" lon="0.83569">
        <ele>1549</ele>
        <time>2018-12-02T10:40:34.000Z</time>
      </trkpt>
      <trkpt lat="42.92042" lon="0.83568">
        <ele>1549</ele>
        <time>2018-12-02T10:40:36.000Z</time>
      </trkpt>
      <trkpt lat="42.92042" lon="0.83565">
        <ele>1550</ele>
        <time>2018-12-02T10:40:39.000Z</time>
      </trkpt>
      <trkpt lat="42.92043" lon="0.83563">
        <ele>1551</ele>
        <time>2018-12-02T10:40:42.000Z</time>
      </trkpt>
      <trkpt lat="42.92043" lon="0.8356">
        <ele>1551</ele>
        <time>2018-12-02T10:40:45.000Z</time>
      </trkpt>
      <trkpt lat="42.92044" lon="0.83559">
        <ele>1551</ele>
        <time>2018-12-02T10:40:47.000Z</time>
      </trkpt>
      <trkpt lat="42.92044" lon="0.83557">
        <ele>1552</ele>
        <time>2018-12-02T10:40:49.000Z</time>
      </trkpt>
      <trkpt lat="42.92044" lon="0.83555">
        <ele>1552</ele>
        <time>2018-12-02T10:40:51.000Z</time>
      </trkpt>
      <trkpt lat="42.92044" lon="0.83554">
        <ele>1552</ele>
        <time>2018-12-02T10:40:53.000Z</time>
      </trkpt>
      <trkpt lat="42.92044" lon="0.83551">
        <ele>1553</ele>
        <time>2018-12-02T10:40:56.000Z</time>
      </trkpt>
      <trkpt lat="42.92045" lon="0.83549">
        <ele>1553</ele>
        <time>2018-12-02T10:40:58.000Z</time>
      </trkpt>
      <trkpt lat="42.92045" lon="0.83548">
        <ele>1554</ele>
        <time>2018-12-02T10:41:00.000Z</time>
      </trkpt>
      <trkpt lat="42.92044" lon="0.83546">
        <ele>1554</ele>
        <time>2018-12-02T10:41:02.000Z</time>
      </trkpt>
      <trkpt lat="42.92044" lon="0.83545">
        <ele>1554</ele>
        <time>2018-12-02T10:41:04.000Z</time>
      </trkpt>
      <trkpt lat="42.92045" lon="0.83543">
        <ele>1555</ele>
        <time>2018-12-02T10:41:06.000Z</time>
      </trkpt>
      <trkpt lat="42.92045" lon="0.83541">
        <ele>1555</ele>
        <time>2018-12-02T10:41:08.000Z</time>
      </trkpt>
      <trkpt lat="42.92045" lon="0.8354">
        <ele>1555</ele>
        <time>2018-12-02T10:41:10.000Z</time>
      </trkpt>
      <trkpt lat="42.92045" lon="0.83538">
        <ele>1555</ele>
        <time>2018-12-02T10:41:12.000Z</time>
      </trkpt>
      <trkpt lat="42.92045" lon="0.83537">
        <ele>1556</ele>
        <time>2018-12-02T10:41:14.000Z</time>
      </trkpt>
      <trkpt lat="42.92045" lon="0.83535">
        <ele>1556</ele>
        <time>2018-12-02T10:41:16.000Z</time>
      </trkpt>
      <trkpt lat="42.92045" lon="0.83534">
        <ele>1556</ele>
        <time>2018-12-02T10:41:18.000Z</time>
      </trkpt>
      <trkpt lat="42.92045" lon="0.83532">
        <ele>1557</ele>
        <time>2018-12-02T10:41:20.000Z</time>
      </trkpt>
      <trkpt lat="42.92045" lon="0.83531">
        <ele>1557</ele>
        <time>2018-12-02T10:41:22.000Z</time>
      </trkpt>
      <trkpt lat="42.92045" lon="0.8353">
        <ele>1557</ele>
        <time>2018-12-02T10:41:24.000Z</time>
      </trkpt>
      <trkpt lat="42.92045" lon="0.83528">
        <ele>1557</ele>
        <time>2018-12-02T10:41:26.000Z</time>
      </trkpt>
      <trkpt lat="42.92045" lon="0.83527">
        <ele>1558</ele>
        <time>2018-12-02T10:41:28.000Z</time>
      </trkpt>
      <trkpt lat="42.92045" lon="0.83526">
        <ele>1558</ele>
        <time>2018-12-02T10:41:30.000Z</time>
      </trkpt>
      <trkpt lat="42.92046" lon="0.83524">
        <ele>1558</ele>
        <time>2018-12-02T10:41:32.000Z</time>
      </trkpt>
      <trkpt lat="42.92046" lon="0.83523">
        <ele>1558</ele>
        <time>2018-12-02T10:41:34.000Z</time>
      </trkpt>
      <trkpt lat="42.92045" lon="0.83522">
        <ele>1559</ele>
        <time>2018-12-02T10:41:36.000Z</time>
      </trkpt>
      <trkpt lat="42.92045" lon="0.83521">
        <ele>1559</ele>
        <time>2018-12-02T10:41:38.000Z</time>
      </trkpt>
      <trkpt lat="42.92045" lon="0.83519">
        <ele>1559</ele>
        <time>2018-12-02T10:41:40.000Z</time>
      </trkpt>
      <trkpt lat="42.92045" lon="0.83517">
        <ele>1560</ele>
        <time>2018-12-02T10:41:44.000Z</time>
      </trkpt>
      <trkpt lat="42.92045" lon="0.83516">
        <ele>1560</ele>
        <time>2018-12-02T10:41:46.000Z</time>
      </trkpt>
      <trkpt lat="42.92045" lon="0.83515">
        <ele>1560</ele>
        <time>2018-12-02T10:41:48.000Z</time>
      </trkpt>
      <trkpt lat="42.92045" lon="0.83514">
        <ele>1561</ele>
        <time>2018-12-02T10:41:50.000Z</time>
      </trkpt>
      <trkpt lat="42.92045" lon="0.83512">
        <ele>1561</ele>
        <time>2018-12-02T10:41:52.000Z</time>
      </trkpt>
      <trkpt lat="42.92045" lon="0.8351">
        <ele>1561</ele>
        <time>2018-12-02T10:41:55.000Z</time>
      </trkpt>
      <trkpt lat="42.92045" lon="0.83509">
        <ele>1561</ele>
        <time>2018-12-02T10:41:57.000Z</time>
      </trkpt>
      <trkpt lat="42.92045" lon="0.83508">
        <ele>1562</ele>
        <time>2018-12-02T10:41:59.000Z</time>
      </trkpt>
      <trkpt lat="42.92045" lon="0.83506">
        <ele>1562</ele>
        <time>2018-12-02T10:42:01.000Z</time>
      </trkpt>
      <trkpt lat="42.92045" lon="0.83505">
        <ele>1562</ele>
        <time>2018-12-02T10:42:03.000Z</time>
      </trkpt>
      <trkpt lat="42.92045" lon="0.83504">
        <ele>1562</ele>
        <time>2018-12-02T10:42:05.000Z</time>
      </trkpt>
      <trkpt lat="42.92045" lon="0.83503">
        <ele>1562</ele>
        <time>2018-12-02T10:42:07.000Z</time>
      </trkpt>
      <trkpt lat="42.92045" lon="0.83502">
        <ele>1562</ele>
        <time>2018-12-02T10:42:09.000Z</time>
      </trkpt>
      <trkpt lat="42.92045" lon="0.83503">
        <ele>1562</ele>
        <time>2018-12-02T10:42:11.000Z</time>
      </trkpt>
      <trkpt lat="42.92045" lon="0.83502">
        <ele>1562</ele>
        <time>2018-12-02T10:42:13.000Z</time>
      </trkpt>
      <trkpt lat="42.92045" lon="0.83501">
        <ele>1563</ele>
        <time>2018-12-02T10:42:15.000Z</time>
      </trkpt>
      <trkpt lat="42.92045" lon="0.835">
        <ele>1563</ele>
        <time>2018-12-02T10:42:17.000Z</time>
      </trkpt>
      <trkpt lat="42.92045" lon="0.83498">
        <ele>1563</ele>
        <time>2018-12-02T10:42:20.000Z</time>
      </trkpt>
      <trkpt lat="42.92045" lon="0.83497">
        <ele>1563</ele>
        <time>2018-12-02T10:42:22.000Z</time>
      </trkpt>
      <trkpt lat="42.92044" lon="0.83496">
        <ele>1564</ele>
        <time>2018-12-02T10:42:24.000Z</time>
      </trkpt>
      <trkpt lat="42.92044" lon="0.83494">
        <ele>1564</ele>
        <time>2018-12-02T10:42:26.000Z</time>
      </trkpt>
      <trkpt lat="42.92044" lon="0.83493">
        <ele>1564</ele>
        <time>2018-12-02T10:42:28.000Z</time>
      </trkpt>
      <trkpt lat="42.92043" lon="0.83491">
        <ele>1564</ele>
        <time>2018-12-02T10:42:30.000Z</time>
      </trkpt>
      <trkpt lat="42.92043" lon="0.8349">
        <ele>1565</ele>
        <time>2018-12-02T10:42:32.000Z</time>
      </trkpt>
      <trkpt lat="42.92044" lon="0.83489">
        <ele>1565</ele>
        <time>2018-12-02T10:42:34.000Z</time>
      </trkpt>
      <trkpt lat="42.92044" lon="0.83487">
        <ele>1565</ele>
        <time>2018-12-02T10:42:36.000Z</time>
      </trkpt>
      <trkpt lat="42.92044" lon="0.83486">
        <ele>1565</ele>
        <time>2018-12-02T10:42:38.000Z</time>
      </trkpt>
      <trkpt lat="42.92044" lon="0.83485">
        <ele>1565</ele>
        <time>2018-12-02T10:42:40.000Z</time>
      </trkpt>
      <trkpt lat="42.92043" lon="0.83484">
        <ele>1565</ele>
        <time>2018-12-02T10:42:42.000Z</time>
      </trkpt>
      <trkpt lat="42.92043" lon="0.83483">
        <ele>1566</ele>
        <time>2018-12-02T10:42:44.000Z</time>
      </trkpt>
      <trkpt lat="42.92043" lon="0.83481">
        <ele>1566</ele>
        <time>2018-12-02T10:42:46.000Z</time>
      </trkpt>
      <trkpt lat="42.92043" lon="0.83481">
        <ele>1566</ele>
        <time>2018-12-02T10:42:48.000Z</time>
      </trkpt>
      <trkpt lat="42.92042" lon="0.83479">
        <ele>1566</ele>
        <time>2018-12-02T10:42:51.000Z</time>
      </trkpt>
      <trkpt lat="42.92042" lon="0.83478">
        <ele>1567</ele>
        <time>2018-12-02T10:42:53.000Z</time>
      </trkpt>
      <trkpt lat="42.92042" lon="0.83477">
        <ele>1567</ele>
        <time>2018-12-02T10:42:55.000Z</time>
      </trkpt>
      <trkpt lat="42.92042" lon="0.83476">
        <ele>1567</ele>
        <time>2018-12-02T10:42:57.000Z</time>
      </trkpt>
      <trkpt lat="42.92042" lon="0.83476">
        <ele>1567</ele>
        <time>2018-12-02T10:42:59.000Z</time>
      </trkpt>
      <trkpt lat="42.92042" lon="0.83475">
        <ele>1567</ele>
        <time>2018-12-02T10:43:01.000Z</time>
      </trkpt>
      <trkpt lat="42.92041" lon="0.83475">
        <ele>1567</ele>
        <time>2018-12-02T10:43:03.000Z</time>
      </trkpt>
      <trkpt lat="42.92041" lon="0.83473">
        <ele>1568</ele>
        <time>2018-12-02T10:43:05.000Z</time>
      </trkpt>
      <trkpt lat="42.92041" lon="0.83472">
        <ele>1568</ele>
        <time>2018-12-02T10:43:07.000Z</time>
      </trkpt>
      <trkpt lat="42.92041" lon="0.83471">
        <ele>1568</ele>
        <time>2018-12-02T10:43:09.000Z</time>
      </trkpt>
      <trkpt lat="42.9204" lon="0.83471">
        <ele>1568</ele>
        <time>2018-12-02T10:43:11.000Z</time>
      </trkpt>
      <trkpt lat="42.9204" lon="0.83469">
        <ele>1568</ele>
        <time>2018-12-02T10:43:14.000Z</time>
      </trkpt>
      <trkpt lat="42.9204" lon="0.83468">
        <ele>1569</ele>
        <time>2018-12-02T10:43:16.000Z</time>
      </trkpt>
      <trkpt lat="42.9204" lon="0.83467">
        <ele>1569</ele>
        <time>2018-12-02T10:43:18.000Z</time>
      </trkpt>
      <trkpt lat="42.9204" lon="0.83466">
        <ele>1569</ele>
        <time>2018-12-02T10:43:20.000Z</time>
      </trkpt>
      <trkpt lat="42.9204" lon="0.83465">
        <ele>1569</ele>
        <time>2018-12-02T10:43:22.000Z</time>
      </trkpt>
      <trkpt lat="42.9204" lon="0.83464">
        <ele>1569</ele>
        <time>2018-12-02T10:43:24.000Z</time>
      </trkpt>
      <trkpt lat="42.9204" lon="0.83463">
        <ele>1569</ele>
        <time>2018-12-02T10:43:26.000Z</time>
      </trkpt>
      <trkpt lat="42.9204" lon="0.83462">
        <ele>1569</ele>
        <time>2018-12-02T10:43:28.000Z</time>
      </trkpt>
      <trkpt lat="42.9204" lon="0.83461">
        <ele>1570</ele>
        <time>2018-12-02T10:43:30.000Z</time>
      </trkpt>
      <trkpt lat="42.92039" lon="0.8346">
        <ele>1570</ele>
        <time>2018-12-02T10:43:32.000Z</time>
      </trkpt>
      <trkpt lat="42.92039" lon="0.8346">
        <ele>1570</ele>
        <time>2018-12-02T10:43:34.000Z</time>
      </trkpt>
      <trkpt lat="42.92039" lon="0.83459">
        <ele>1570</ele>
        <time>2018-12-02T10:43:36.000Z</time>
      </trkpt>
      <trkpt lat="42.92038" lon="0.83458">
        <ele>1570</ele>
        <time>2018-12-02T10:43:38.000Z</time>
      </trkpt>
      <trkpt lat="42.92038" lon="0.83458">
        <ele>1570</ele>
        <time>2018-12-02T10:43:40.000Z</time>
      </trkpt>
      <trkpt lat="42.92037" lon="0.83457">
        <ele>1571</ele>
        <time>2018-12-02T10:43:42.000Z</time>
      </trkpt>
      <trkpt lat="42.92036" lon="0.83456">
        <ele>1571</ele>
        <time>2018-12-02T10:43:44.000Z</time>
      </trkpt>
      <trkpt lat="42.92036" lon="0.83456">
        <ele>1571</ele>
        <time>2018-12-02T10:43:46.000Z</time>
      </trkpt>
      <trkpt lat="42.92034" lon="0.83456">
        <ele>1571</ele>
        <time>2018-12-02T10:43:49.000Z</time>
      </trkpt>
      <trkpt lat="42.92033" lon="0.83455">
        <ele>1572</ele>
        <time>2018-12-02T10:43:51.000Z</time>
      </trkpt>
      <trkpt lat="42.92032" lon="0.83454">
        <ele>1572</ele>
        <time>2018-12-02T10:43:53.000Z</time>
      </trkpt>
      <trkpt lat="42.92032" lon="0.83453">
        <ele>1572</ele>
        <time>2018-12-02T10:43:55.000Z</time>
      </trkpt>
      <trkpt lat="42.92031" lon="0.83452">
        <ele>1573</ele>
        <time>2018-12-02T10:43:57.000Z</time>
      </trkpt>
      <trkpt lat="42.92031" lon="0.8345">
        <ele>1573</ele>
        <time>2018-12-02T10:43:59.000Z</time>
      </trkpt>
      <trkpt lat="42.9203" lon="0.83449">
        <ele>1573</ele>
        <time>2018-12-02T10:44:01.000Z</time>
      </trkpt>
      <trkpt lat="42.9203" lon="0.83448">
        <ele>1573</ele>
        <time>2018-12-02T10:44:03.000Z</time>
      </trkpt>
      <trkpt lat="42.92029" lon="0.83446">
        <ele>1574</ele>
        <time>2018-12-02T10:44:05.000Z</time>
      </trkpt>
      <trkpt lat="42.92028" lon="0.83444">
        <ele>1574</ele>
        <time>2018-12-02T10:44:07.000Z</time>
      </trkpt>
      <trkpt lat="42.92027" lon="0.83442">
        <ele>1575</ele>
        <time>2018-12-02T10:44:09.000Z</time>
      </trkpt>
      <trkpt lat="42.92027" lon="0.8344">
        <ele>1575</ele>
        <time>2018-12-02T10:44:11.000Z</time>
      </trkpt>
      <trkpt lat="42.92026" lon="0.83438">
        <ele>1575</ele>
        <time>2018-12-02T10:44:13.000Z</time>
      </trkpt>
      <trkpt lat="42.92025" lon="0.83436">
        <ele>1576</ele>
        <time>2018-12-02T10:44:15.000Z</time>
      </trkpt>
      <trkpt lat="42.92025" lon="0.83434">
        <ele>1576</ele>
        <time>2018-12-02T10:44:17.000Z</time>
      </trkpt>
      <trkpt lat="42.92024" lon="0.83433">
        <ele>1577</ele>
        <time>2018-12-02T10:44:19.000Z</time>
      </trkpt>
      <trkpt lat="42.92023" lon="0.83431">
        <ele>1577</ele>
        <time>2018-12-02T10:44:21.000Z</time>
      </trkpt>
      <trkpt lat="42.92023" lon="0.83429">
        <ele>1577</ele>
        <time>2018-12-02T10:44:23.000Z</time>
      </trkpt>
      <trkpt lat="42.92022" lon="0.83427">
        <ele>1578</ele>
        <time>2018-12-02T10:44:25.000Z</time>
      </trkpt>
      <trkpt lat="42.92021" lon="0.83425">
        <ele>1578</ele>
        <time>2018-12-02T10:44:27.000Z</time>
      </trkpt>
      <trkpt lat="42.9202" lon="0.83424">
        <ele>1579</ele>
        <time>2018-12-02T10:44:29.000Z</time>
      </trkpt>
      <trkpt lat="42.92019" lon="0.83422">
        <ele>1579</ele>
        <time>2018-12-02T10:44:31.000Z</time>
      </trkpt>
      <trkpt lat="42.92018" lon="0.83421">
        <ele>1579</ele>
        <time>2018-12-02T10:44:33.000Z</time>
      </trkpt>
      <trkpt lat="42.92017" lon="0.83419">
        <ele>1580</ele>
        <time>2018-12-02T10:44:35.000Z</time>
      </trkpt>
      <trkpt lat="42.92017" lon="0.83418">
        <ele>1580</ele>
        <time>2018-12-02T10:44:37.000Z</time>
      </trkpt>
      <trkpt lat="42.92016" lon="0.83416">
        <ele>1580</ele>
        <time>2018-12-02T10:44:39.000Z</time>
      </trkpt>
      <trkpt lat="42.92015" lon="0.83413">
        <ele>1581</ele>
        <time>2018-12-02T10:44:42.000Z</time>
      </trkpt>
      <trkpt lat="42.92015" lon="0.83411">
        <ele>1581</ele>
        <time>2018-12-02T10:44:44.000Z</time>
      </trkpt>
      <trkpt lat="42.92014" lon="0.8341">
        <ele>1582</ele>
        <time>2018-12-02T10:44:46.000Z</time>
      </trkpt>
      <trkpt lat="42.92014" lon="0.83408">
        <ele>1582</ele>
        <time>2018-12-02T10:44:48.000Z</time>
      </trkpt>
      <trkpt lat="42.92014" lon="0.83407">
        <ele>1582</ele>
        <time>2018-12-02T10:44:50.000Z</time>
      </trkpt>
      <trkpt lat="42.92014" lon="0.83406">
        <ele>1582</ele>
        <time>2018-12-02T10:44:52.000Z</time>
      </trkpt>
      <trkpt lat="42.92013" lon="0.83405">
        <ele>1583</ele>
        <time>2018-12-02T10:44:55.000Z</time>
      </trkpt>
      <trkpt lat="42.92013" lon="0.83403">
        <ele>1583</ele>
        <time>2018-12-02T10:44:57.000Z</time>
      </trkpt>
      <trkpt lat="42.92013" lon="0.83402">
        <ele>1583</ele>
        <time>2018-12-02T10:44:59.000Z</time>
      </trkpt>
      <trkpt lat="42.92012" lon="0.83401">
        <ele>1583</ele>
        <time>2018-12-02T10:45:01.000Z</time>
      </trkpt>
      <trkpt lat="42.92012" lon="0.83399">
        <ele>1584</ele>
        <time>2018-12-02T10:45:03.000Z</time>
      </trkpt>
      <trkpt lat="42.92011" lon="0.83398">
        <ele>1584</ele>
        <time>2018-12-02T10:45:05.000Z</time>
      </trkpt>
      <trkpt lat="42.9201" lon="0.83397">
        <ele>1584</ele>
        <time>2018-12-02T10:45:07.000Z</time>
      </trkpt>
      <trkpt lat="42.9201" lon="0.83396">
        <ele>1584</ele>
        <time>2018-12-02T10:45:09.000Z</time>
      </trkpt>
      <trkpt lat="42.9201" lon="0.83395">
        <ele>1585</ele>
        <time>2018-12-02T10:45:11.000Z</time>
      </trkpt>
      <trkpt lat="42.92009" lon="0.83393">
        <ele>1585</ele>
        <time>2018-12-02T10:45:13.000Z</time>
      </trkpt>
      <trkpt lat="42.92009" lon="0.83392">
        <ele>1585</ele>
        <time>2018-12-02T10:45:15.000Z</time>
      </trkpt>
      <trkpt lat="42.92009" lon="0.83391">
        <ele>1585</ele>
        <time>2018-12-02T10:45:17.000Z</time>
      </trkpt>
      <trkpt lat="42.92009" lon="0.83389">
        <ele>1586</ele>
        <time>2018-12-02T10:45:19.000Z</time>
      </trkpt>
      <trkpt lat="42.92008" lon="0.83387">
        <ele>1586</ele>
        <time>2018-12-02T10:45:22.000Z</time>
      </trkpt>
      <trkpt lat="42.92008" lon="0.83385">
        <ele>1587</ele>
        <time>2018-12-02T10:45:24.000Z</time>
      </trkpt>
      <trkpt lat="42.92008" lon="0.83384">
        <ele>1587</ele>
        <time>2018-12-02T10:45:26.000Z</time>
      </trkpt>
      <trkpt lat="42.92007" lon="0.83383">
        <ele>1587</ele>
        <time>2018-12-02T10:45:28.000Z</time>
      </trkpt>
      <trkpt lat="42.92007" lon="0.83381">
        <ele>1587</ele>
        <time>2018-12-02T10:45:30.000Z</time>
      </trkpt>
      <trkpt lat="42.92006" lon="0.8338">
        <ele>1587</ele>
        <time>2018-12-02T10:45:32.000Z</time>
      </trkpt>
      <trkpt lat="42.92006" lon="0.83378">
        <ele>1588</ele>
        <time>2018-12-02T10:45:34.000Z</time>
      </trkpt>
      <trkpt lat="42.92005" lon="0.83377">
        <ele>1588</ele>
        <time>2018-12-02T10:45:36.000Z</time>
      </trkpt>
      <trkpt lat="42.92005" lon="0.83375">
        <ele>1588</ele>
        <time>2018-12-02T10:45:38.000Z</time>
      </trkpt>
      <trkpt lat="42.92004" lon="0.83374">
        <ele>1588</ele>
        <time>2018-12-02T10:45:40.000Z</time>
      </trkpt>
      <trkpt lat="42.92004" lon="0.83373">
        <ele>1588</ele>
        <time>2018-12-02T10:45:42.000Z</time>
      </trkpt>
      <trkpt lat="42.92004" lon="0.83371">
        <ele>1588</ele>
        <time>2018-12-02T10:45:44.000Z</time>
      </trkpt>
      <trkpt lat="42.92003" lon="0.8337">
        <ele>1589</ele>
        <time>2018-12-02T10:45:46.000Z</time>
      </trkpt>
      <trkpt lat="42.92003" lon="0.83368">
        <ele>1589</ele>
        <time>2018-12-02T10:45:48.000Z</time>
      </trkpt>
      <trkpt lat="42.92002" lon="0.83367">
        <ele>1589</ele>
        <time>2018-12-02T10:45:50.000Z</time>
      </trkpt>
      <trkpt lat="42.92002" lon="0.83365">
        <ele>1589</ele>
        <time>2018-12-02T10:45:52.000Z</time>
      </trkpt>
      <trkpt lat="42.92001" lon="0.83364">
        <ele>1589</ele>
        <time>2018-12-02T10:45:54.000Z</time>
      </trkpt>
      <trkpt lat="42.92001" lon="0.83362">
        <ele>1590</ele>
        <time>2018-12-02T10:45:57.000Z</time>
      </trkpt>
      <trkpt lat="42.92" lon="0.8336">
        <ele>1590</ele>
        <time>2018-12-02T10:45:59.000Z</time>
      </trkpt>
      <trkpt lat="42.92" lon="0.83359">
        <ele>1590</ele>
        <time>2018-12-02T10:46:01.000Z</time>
      </trkpt>
      <trkpt lat="42.91999" lon="0.83358">
        <ele>1590</ele>
        <time>2018-12-02T10:46:03.000Z</time>
      </trkpt>
      <trkpt lat="42.91999" lon="0.83357">
        <ele>1590</ele>
        <time>2018-12-02T10:46:05.000Z</time>
      </trkpt>
      <trkpt lat="42.91998" lon="0.83356">
        <ele>1590</ele>
        <time>2018-12-02T10:46:07.000Z</time>
      </trkpt>
      <trkpt lat="42.91997" lon="0.83354">
        <ele>1590</ele>
        <time>2018-12-02T10:46:09.000Z</time>
      </trkpt>
      <trkpt lat="42.91997" lon="0.83353">
        <ele>1590</ele>
        <time>2018-12-02T10:46:11.000Z</time>
      </trkpt>
      <trkpt lat="42.91996" lon="0.83351">
        <ele>1591</ele>
        <time>2018-12-02T10:46:13.000Z</time>
      </trkpt>
      <trkpt lat="42.91996" lon="0.8335">
        <ele>1591</ele>
        <time>2018-12-02T10:46:15.000Z</time>
      </trkpt>
      <trkpt lat="42.91995" lon="0.83348">
        <ele>1591</ele>
        <time>2018-12-02T10:46:17.000Z</time>
      </trkpt>
      <trkpt lat="42.91994" lon="0.83347">
        <ele>1591</ele>
        <time>2018-12-02T10:46:19.000Z</time>
      </trkpt>
      <trkpt lat="42.91994" lon="0.83345">
        <ele>1591</ele>
        <time>2018-12-02T10:46:21.000Z</time>
      </trkpt>
      <trkpt lat="42.91993" lon="0.83344">
        <ele>1591</ele>
        <time>2018-12-02T10:46:23.000Z</time>
      </trkpt>
      <trkpt lat="42.91992" lon="0.83343">
        <ele>1591</ele>
        <time>2018-12-02T10:46:25.000Z</time>
      </trkpt>
      <trkpt lat="42.91991" lon="0.83342">
        <ele>1591</ele>
        <time>2018-12-02T10:46:27.000Z</time>
      </trkpt>
      <trkpt lat="42.9199" lon="0.8334">
        <ele>1591</ele>
        <time>2018-12-02T10:46:29.000Z</time>
      </trkpt>
      <trkpt lat="42.9199" lon="0.83339">
        <ele>1591</ele>
        <time>2018-12-02T10:46:31.000Z</time>
      </trkpt>
      <trkpt lat="42.91989" lon="0.83338">
        <ele>1592</ele>
        <time>2018-12-02T10:46:33.000Z</time>
      </trkpt>
      <trkpt lat="42.91988" lon="0.83337">
        <ele>1592</ele>
        <time>2018-12-02T10:46:35.000Z</time>
      </trkpt>
      <trkpt lat="42.91988" lon="0.83335">
        <ele>1592</ele>
        <time>2018-12-02T10:46:37.000Z</time>
      </trkpt>
      <trkpt lat="42.91986" lon="0.83334">
        <ele>1592</ele>
        <time>2018-12-02T10:46:40.000Z</time>
      </trkpt>
      <trkpt lat="42.91986" lon="0.83333">
        <ele>1592</ele>
        <time>2018-12-02T10:46:42.000Z</time>
      </trkpt>
      <trkpt lat="42.91986" lon="0.83332">
        <ele>1592</ele>
        <time>2018-12-02T10:46:44.000Z</time>
      </trkpt>
      <trkpt lat="42.91985" lon="0.83331">
        <ele>1592</ele>
        <time>2018-12-02T10:46:46.000Z</time>
      </trkpt>
      <trkpt lat="42.91984" lon="0.83329">
        <ele>1592</ele>
        <time>2018-12-02T10:46:48.000Z</time>
      </trkpt>
      <trkpt lat="42.91984" lon="0.83328">
        <ele>1592</ele>
        <time>2018-12-02T10:46:50.000Z</time>
      </trkpt>
      <trkpt lat="42.91984" lon="0.83327">
        <ele>1592</ele>
        <time>2018-12-02T10:46:52.000Z</time>
      </trkpt>
      <trkpt lat="42.91983" lon="0.83327">
        <ele>1592</ele>
        <time>2018-12-02T10:46:54.000Z</time>
      </trkpt>
      <trkpt lat="42.91983" lon="0.83326">
        <ele>1592</ele>
        <time>2018-12-02T10:46:56.000Z</time>
      </trkpt>
      <trkpt lat="42.91982" lon="0.83325">
        <ele>1593</ele>
        <time>2018-12-02T10:46:58.000Z</time>
      </trkpt>
      <trkpt lat="42.91982" lon="0.83324">
        <ele>1593</ele>
        <time>2018-12-02T10:47:00.000Z</time>
      </trkpt>
      <trkpt lat="42.91981" lon="0.83324">
        <ele>1593</ele>
        <time>2018-12-02T10:47:02.000Z</time>
      </trkpt>
      <trkpt lat="42.91981" lon="0.83323">
        <ele>1593</ele>
        <time>2018-12-02T10:47:04.000Z</time>
      </trkpt>
      <trkpt lat="42.9198" lon="0.83322">
        <ele>1593</ele>
        <time>2018-12-02T10:47:06.000Z</time>
      </trkpt>
      <trkpt lat="42.9198" lon="0.83321">
        <ele>1593</ele>
        <time>2018-12-02T10:47:08.000Z</time>
      </trkpt>
      <trkpt lat="42.91979" lon="0.8332">
        <ele>1593</ele>
        <time>2018-12-02T10:47:10.000Z</time>
      </trkpt>
      <trkpt lat="42.91978" lon="0.83319">
        <ele>1593</ele>
        <time>2018-12-02T10:47:12.000Z</time>
      </trkpt>
      <trkpt lat="42.91978" lon="0.83318">
        <ele>1593</ele>
        <time>2018-12-02T10:47:14.000Z</time>
      </trkpt>
      <trkpt lat="42.91977" lon="0.83317">
        <ele>1593</ele>
        <time>2018-12-02T10:47:16.000Z</time>
      </trkpt>
      <trkpt lat="42.91976" lon="0.83316">
        <ele>1593</ele>
        <time>2018-12-02T10:47:18.000Z</time>
      </trkpt>
      <trkpt lat="42.91975" lon="0.83315">
        <ele>1593</ele>
        <time>2018-12-02T10:47:20.000Z</time>
      </trkpt>
      <trkpt lat="42.91975" lon="0.83314">
        <ele>1593</ele>
        <time>2018-12-02T10:47:22.000Z</time>
      </trkpt>
      <trkpt lat="42.91974" lon="0.83313">
        <ele>1593</ele>
        <time>2018-12-02T10:47:24.000Z</time>
      </trkpt>
      <trkpt lat="42.91973" lon="0.83312">
        <ele>1593</ele>
        <time>2018-12-02T10:47:26.000Z</time>
      </trkpt>
      <trkpt lat="42.91973" lon="0.83311">
        <ele>1593</ele>
        <time>2018-12-02T10:47:28.000Z</time>
      </trkpt>
      <trkpt lat="42.91972" lon="0.8331">
        <ele>1593</ele>
        <time>2018-12-02T10:47:30.000Z</time>
      </trkpt>
      <trkpt lat="42.91972" lon="0.83309">
        <ele>1594</ele>
        <time>2018-12-02T10:47:32.000Z</time>
      </trkpt>
      <trkpt lat="42.91972" lon="0.83309">
        <ele>1594</ele>
        <time>2018-12-02T10:47:34.000Z</time>
      </trkpt>
      <trkpt lat="42.91972" lon="0.83309">
        <ele>1594</ele>
        <time>2018-12-02T10:47:37.000Z</time>
      </trkpt>
      <trkpt lat="42.91972" lon="0.83309">
        <ele>1594</ele>
        <time>2018-12-02T10:47:39.000Z</time>
      </trkpt>
      <trkpt lat="42.91972" lon="0.83309">
        <ele>1593</ele>
        <time>2018-12-02T10:47:41.000Z</time>
      </trkpt>
      <trkpt lat="42.91972" lon="0.83309">
        <ele>1594</ele>
        <time>2018-12-02T10:47:43.000Z</time>
      </trkpt>
      <trkpt lat="42.91972" lon="0.83308">
        <ele>1594</ele>
        <time>2018-12-02T10:47:45.000Z</time>
      </trkpt>
      <trkpt lat="42.91972" lon="0.83307">
        <ele>1594</ele>
        <time>2018-12-02T10:47:47.000Z</time>
      </trkpt>
      <trkpt lat="42.91971" lon="0.83307">
        <ele>1594</ele>
        <time>2018-12-02T10:47:49.000Z</time>
      </trkpt>
      <trkpt lat="42.91971" lon="0.83306">
        <ele>1594</ele>
        <time>2018-12-02T10:47:51.000Z</time>
      </trkpt>
      <trkpt lat="42.91969" lon="0.83305">
        <ele>1594</ele>
        <time>2018-12-02T10:47:54.000Z</time>
      </trkpt>
      <trkpt lat="42.91969" lon="0.83303">
        <ele>1594</ele>
        <time>2018-12-02T10:47:56.000Z</time>
      </trkpt>
      <trkpt lat="42.91968" lon="0.83302">
        <ele>1594</ele>
        <time>2018-12-02T10:47:58.000Z</time>
      </trkpt>
      <trkpt lat="42.91968" lon="0.83301">
        <ele>1594</ele>
        <time>2018-12-02T10:48:00.000Z</time>
      </trkpt>
      <trkpt lat="42.91968" lon="0.833">
        <ele>1594</ele>
        <time>2018-12-02T10:48:02.000Z</time>
      </trkpt>
      <trkpt lat="42.91967" lon="0.833">
        <ele>1594</ele>
        <time>2018-12-02T10:48:04.000Z</time>
      </trkpt>
      <trkpt lat="42.91967" lon="0.83299">
        <ele>1594</ele>
        <time>2018-12-02T10:48:06.000Z</time>
      </trkpt>
      <trkpt lat="42.91966" lon="0.83298">
        <ele>1594</ele>
        <time>2018-12-02T10:48:08.000Z</time>
      </trkpt>
      <trkpt lat="42.91966" lon="0.83297">
        <ele>1595</ele>
        <time>2018-12-02T10:48:10.000Z</time>
      </trkpt>
      <trkpt lat="42.91965" lon="0.83295">
        <ele>1595</ele>
        <time>2018-12-02T10:48:12.000Z</time>
      </trkpt>
      <trkpt lat="42.91964" lon="0.83294">
        <ele>1595</ele>
        <time>2018-12-02T10:48:14.000Z</time>
      </trkpt>
      <trkpt lat="42.91964" lon="0.83293">
        <ele>1595</ele>
        <time>2018-12-02T10:48:16.000Z</time>
      </trkpt>
      <trkpt lat="42.91964" lon="0.83292">
        <ele>1595</ele>
        <time>2018-12-02T10:48:18.000Z</time>
      </trkpt>
      <trkpt lat="42.91963" lon="0.8329">
        <ele>1595</ele>
        <time>2018-12-02T10:48:20.000Z</time>
      </trkpt>
      <trkpt lat="42.91962" lon="0.83289">
        <ele>1595</ele>
        <time>2018-12-02T10:48:22.000Z</time>
      </trkpt>
      <trkpt lat="42.91962" lon="0.83287">
        <ele>1595</ele>
        <time>2018-12-02T10:48:24.000Z</time>
      </trkpt>
      <trkpt lat="42.91961" lon="0.83286">
        <ele>1595</ele>
        <time>2018-12-02T10:48:26.000Z</time>
      </trkpt>
      <trkpt lat="42.9196" lon="0.83284">
        <ele>1596</ele>
        <time>2018-12-02T10:48:28.000Z</time>
      </trkpt>
      <trkpt lat="42.9196" lon="0.83283">
        <ele>1596</ele>
        <time>2018-12-02T10:48:30.000Z</time>
      </trkpt>
      <trkpt lat="42.91959" lon="0.83281">
        <ele>1596</ele>
        <time>2018-12-02T10:48:32.000Z</time>
      </trkpt>
      <trkpt lat="42.91958" lon="0.8328">
        <ele>1596</ele>
        <time>2018-12-02T10:48:34.000Z</time>
      </trkpt>
      <trkpt lat="42.91957" lon="0.83278">
        <ele>1596</ele>
        <time>2018-12-02T10:48:36.000Z</time>
      </trkpt>
      <trkpt lat="42.91956" lon="0.83277">
        <ele>1596</ele>
        <time>2018-12-02T10:48:38.000Z</time>
      </trkpt>
      <trkpt lat="42.91955" lon="0.83275">
        <ele>1596</ele>
        <time>2018-12-02T10:48:40.000Z</time>
      </trkpt>
      <trkpt lat="42.91955" lon="0.83275">
        <ele>1596</ele>
        <time>2018-12-02T10:48:42.000Z</time>
      </trkpt>
      <trkpt lat="42.91954" lon="0.83273">
        <ele>1596</ele>
        <time>2018-12-02T10:48:44.000Z</time>
      </trkpt>
      <trkpt lat="42.91953" lon="0.83271">
        <ele>1597</ele>
        <time>2018-12-02T10:48:47.000Z</time>
      </trkpt>
      <trkpt lat="42.91952" lon="0.83268">
        <ele>1597</ele>
        <time>2018-12-02T10:48:50.000Z</time>
      </trkpt>
      <trkpt lat="42.91951" lon="0.83267">
        <ele>1597</ele>
        <time>2018-12-02T10:48:52.000Z</time>
      </trkpt>
      <trkpt lat="42.91951" lon="0.83266">
        <ele>1597</ele>
        <time>2018-12-02T10:48:54.000Z</time>
      </trkpt>
      <trkpt lat="42.9195" lon="0.83264">
        <ele>1597</ele>
        <time>2018-12-02T10:48:56.000Z</time>
      </trkpt>
      <trkpt lat="42.91949" lon="0.83263">
        <ele>1597</ele>
        <time>2018-12-02T10:48:58.000Z</time>
      </trkpt>
      <trkpt lat="42.91949" lon="0.83263">
        <ele>1597</ele>
        <time>2018-12-02T10:49:00.000Z</time>
      </trkpt>
      <trkpt lat="42.91949" lon="0.83263">
        <ele>1597</ele>
        <time>2018-12-02T10:49:02.000Z</time>
      </trkpt>
      <trkpt lat="42.91949" lon="0.83263">
        <ele>1597</ele>
        <time>2018-12-02T10:49:04.000Z</time>
      </trkpt>
      <trkpt lat="42.91949" lon="0.83263">
        <ele>1597</ele>
        <time>2018-12-02T10:49:06.000Z</time>
      </trkpt>
      <trkpt lat="42.91949" lon="0.83263">
        <ele>1597</ele>
        <time>2018-12-02T10:49:08.000Z</time>
      </trkpt>
      <trkpt lat="42.91949" lon="0.83263">
        <ele>1597</ele>
        <time>2018-12-02T10:49:10.000Z</time>
      </trkpt>
      <trkpt lat="42.91949" lon="0.83263">
        <ele>1597</ele>
        <time>2018-12-02T10:49:12.000Z</time>
      </trkpt>
      <trkpt lat="42.91949" lon="0.83263">
        <ele>1597</ele>
        <time>2018-12-02T10:49:14.000Z</time>
      </trkpt>
      <trkpt lat="42.91949" lon="0.83263">
        <ele>1597</ele>
        <time>2018-12-02T10:49:16.000Z</time>
      </trkpt>
      <trkpt lat="42.91949" lon="0.83263">
        <ele>1597</ele>
        <time>2018-12-02T10:49:18.000Z</time>
      </trkpt>
      <trkpt lat="42.91949" lon="0.83263">
        <ele>1597</ele>
        <time>2018-12-02T10:49:20.000Z</time>
      </trkpt>
      <trkpt lat="42.91949" lon="0.83263">
        <ele>1597</ele>
        <time>2018-12-02T10:49:22.000Z</time>
      </trkpt>
      <trkpt lat="42.91949" lon="0.83263">
        <ele>1597</ele>
        <time>2018-12-02T10:49:25.000Z</time>
      </trkpt>
      <trkpt lat="42.91949" lon="0.83264">
        <ele>1597</ele>
        <time>2018-12-02T10:49:27.000Z</time>
      </trkpt>
      <trkpt lat="42.91949" lon="0.83264">
        <ele>1597</ele>
        <time>2018-12-02T10:49:29.000Z</time>
      </trkpt>
      <trkpt lat="42.91949" lon="0.83264">
        <ele>1597</ele>
        <time>2018-12-02T10:49:31.000Z</time>
      </trkpt>
      <trkpt lat="42.91949" lon="0.83264">
        <ele>1597</ele>
        <time>2018-12-02T10:49:33.000Z</time>
      </trkpt>
      <trkpt lat="42.91949" lon="0.83264">
        <ele>1597</ele>
        <time>2018-12-02T10:49:35.000Z</time>
      </trkpt>
      <trkpt lat="42.91949" lon="0.83264">
        <ele>1597</ele>
        <time>2018-12-02T10:49:37.000Z</time>
      </trkpt>
      <trkpt lat="42.91949" lon="0.83265">
        <ele>1597</ele>
        <time>2018-12-02T10:49:39.000Z</time>
      </trkpt>
      <trkpt lat="42.91949" lon="0.83265">
        <ele>1597</ele>
        <time>2018-12-02T10:49:41.000Z</time>
      </trkpt>
      <trkpt lat="42.91949" lon="0.83265">
        <ele>1597</ele>
        <time>2018-12-02T10:49:43.000Z</time>
      </trkpt>
      <trkpt lat="42.91949" lon="0.83265">
        <ele>1597</ele>
        <time>2018-12-02T10:49:45.000Z</time>
      </trkpt>
      <trkpt lat="42.91949" lon="0.83265">
        <ele>1597</ele>
        <time>2018-12-02T10:49:47.000Z</time>
      </trkpt>
      <trkpt lat="42.91949" lon="0.83265">
        <ele>1597</ele>
        <time>2018-12-02T10:49:49.000Z</time>
      </trkpt>
      <trkpt lat="42.91949" lon="0.83265">
        <ele>1597</ele>
        <time>2018-12-02T10:49:51.000Z</time>
      </trkpt>
      <trkpt lat="42.91948" lon="0.83264">
        <ele>1597</ele>
        <time>2018-12-02T10:49:53.000Z</time>
      </trkpt>
      <trkpt lat="42.91948" lon="0.83263">
        <ele>1597</ele>
        <time>2018-12-02T10:49:55.000Z</time>
      </trkpt>
      <trkpt lat="42.91947" lon="0.83261">
        <ele>1597</ele>
        <time>2018-12-02T10:49:57.000Z</time>
      </trkpt>
      <trkpt lat="42.91946" lon="0.8326">
        <ele>1597</ele>
        <time>2018-12-02T10:49:59.000Z</time>
      </trkpt>
      <trkpt lat="42.91945" lon="0.83259">
        <ele>1597</ele>
        <time>2018-12-02T10:50:01.000Z</time>
      </trkpt>
      <trkpt lat="42.91945" lon="0.83257">
        <ele>1598</ele>
        <time>2018-12-02T10:50:03.000Z</time>
      </trkpt>
      <trkpt lat="42.91944" lon="0.83255">
        <ele>1598</ele>
        <time>2018-12-02T10:50:05.000Z</time>
      </trkpt>
      <trkpt lat="42.91943" lon="0.83254">
        <ele>1598</ele>
        <time>2018-12-02T10:50:07.000Z</time>
      </trkpt>
      <trkpt lat="42.91941" lon="0.83253">
        <ele>1598</ele>
        <time>2018-12-02T10:50:09.000Z</time>
      </trkpt>
      <trkpt lat="42.9194" lon="0.83252">
        <ele>1598</ele>
        <time>2018-12-02T10:50:11.000Z</time>
      </trkpt>
      <trkpt lat="42.91939" lon="0.83251">
        <ele>1598</ele>
        <time>2018-12-02T10:50:13.000Z</time>
      </trkpt>
      <trkpt lat="42.91938" lon="0.8325">
        <ele>1598</ele>
        <time>2018-12-02T10:50:15.000Z</time>
      </trkpt>
      <trkpt lat="42.91937" lon="0.83248">
        <ele>1598</ele>
        <time>2018-12-02T10:50:17.000Z</time>
      </trkpt>
      <trkpt lat="42.91937" lon="0.83247">
        <ele>1598</ele>
        <time>2018-12-02T10:50:19.000Z</time>
      </trkpt>
      <trkpt lat="42.91936" lon="0.83245">
        <ele>1598</ele>
        <time>2018-12-02T10:50:21.000Z</time>
      </trkpt>
      <trkpt lat="42.91935" lon="0.83244">
        <ele>1598</ele>
        <time>2018-12-02T10:50:23.000Z</time>
      </trkpt>
      <trkpt lat="42.91934" lon="0.83243">
        <ele>1598</ele>
        <time>2018-12-02T10:50:25.000Z</time>
      </trkpt>
      <trkpt lat="42.91934" lon="0.83243">
        <ele>1598</ele>
        <time>2018-12-02T10:50:27.000Z</time>
      </trkpt>
      <trkpt lat="42.91933" lon="0.83243">
        <ele>1598</ele>
        <time>2018-12-02T10:50:29.000Z</time>
      </trkpt>
      <trkpt lat="42.91933" lon="0.83243">
        <ele>1598</ele>
        <time>2018-12-02T10:50:31.000Z</time>
      </trkpt>
      <trkpt lat="42.91933" lon="0.83241">
        <ele>1598</ele>
        <time>2018-12-02T10:50:33.000Z</time>
      </trkpt>
      <trkpt lat="42.91933" lon="0.83239">
        <ele>1599</ele>
        <time>2018-12-02T10:50:35.000Z</time>
      </trkpt>
      <trkpt lat="42.91932" lon="0.83237">
        <ele>1599</ele>
        <time>2018-12-02T10:50:37.000Z</time>
      </trkpt>
      <trkpt lat="42.91931" lon="0.83235">
        <ele>1599</ele>
        <time>2018-12-02T10:50:39.000Z</time>
      </trkpt>
      <trkpt lat="42.91931" lon="0.83233">
        <ele>1599</ele>
        <time>2018-12-02T10:50:41.000Z</time>
      </trkpt>
      <trkpt lat="42.9193" lon="0.83231">
        <ele>1600</ele>
        <time>2018-12-02T10:50:43.000Z</time>
      </trkpt>
      <trkpt lat="42.91929" lon="0.8323">
        <ele>1600</ele>
        <time>2018-12-02T10:50:45.000Z</time>
      </trkpt>
      <trkpt lat="42.91928" lon="0.83227">
        <ele>1600</ele>
        <time>2018-12-02T10:50:47.000Z</time>
      </trkpt>
      <trkpt lat="42.91927" lon="0.83226">
        <ele>1600</ele>
        <time>2018-12-02T10:50:49.000Z</time>
      </trkpt>
      <trkpt lat="42.91926" lon="0.83224">
        <ele>1600</ele>
        <time>2018-12-02T10:50:51.000Z</time>
      </trkpt>
      <trkpt lat="42.91925" lon="0.83222">
        <ele>1600</ele>
        <time>2018-12-02T10:50:53.000Z</time>
      </trkpt>
      <trkpt lat="42.91924" lon="0.83221">
        <ele>1600</ele>
        <time>2018-12-02T10:50:55.000Z</time>
      </trkpt>
      <trkpt lat="42.91923" lon="0.83219">
        <ele>1601</ele>
        <time>2018-12-02T10:50:57.000Z</time>
      </trkpt>
      <trkpt lat="42.91922" lon="0.83217">
        <ele>1601</ele>
        <time>2018-12-02T10:50:59.000Z</time>
      </trkpt>
      <trkpt lat="42.91921" lon="0.83216">
        <ele>1601</ele>
        <time>2018-12-02T10:51:01.000Z</time>
      </trkpt>
      <trkpt lat="42.9192" lon="0.83214">
        <ele>1601</ele>
        <time>2018-12-02T10:51:03.000Z</time>
      </trkpt>
      <trkpt lat="42.91919" lon="0.83212">
        <ele>1601</ele>
        <time>2018-12-02T10:51:05.000Z</time>
      </trkpt>
      <trkpt lat="42.91918" lon="0.8321">
        <ele>1601</ele>
        <time>2018-12-02T10:51:07.000Z</time>
      </trkpt>
      <trkpt lat="42.91917" lon="0.83209">
        <ele>1601</ele>
        <time>2018-12-02T10:51:09.000Z</time>
      </trkpt>
      <trkpt lat="42.91916" lon="0.83207">
        <ele>1602</ele>
        <time>2018-12-02T10:51:11.000Z</time>
      </trkpt>
      <trkpt lat="42.91915" lon="0.83205">
        <ele>1602</ele>
        <time>2018-12-02T10:51:13.000Z</time>
      </trkpt>
      <trkpt lat="42.91915" lon="0.83203">
        <ele>1602</ele>
        <time>2018-12-02T10:51:15.000Z</time>
      </trkpt>
      <trkpt lat="42.91914" lon="0.83202">
        <ele>1602</ele>
        <time>2018-12-02T10:51:17.000Z</time>
      </trkpt>
      <trkpt lat="42.91913" lon="0.832">
        <ele>1602</ele>
        <time>2018-12-02T10:51:19.000Z</time>
      </trkpt>
      <trkpt lat="42.91912" lon="0.83198">
        <ele>1603</ele>
        <time>2018-12-02T10:51:21.000Z</time>
      </trkpt>
      <trkpt lat="42.91911" lon="0.83196">
        <ele>1603</ele>
        <time>2018-12-02T10:51:23.000Z</time>
      </trkpt>
      <trkpt lat="42.91911" lon="0.83194">
        <ele>1603</ele>
        <time>2018-12-02T10:51:25.000Z</time>
      </trkpt>
      <trkpt lat="42.91912" lon="0.83192">
        <ele>1604</ele>
        <time>2018-12-02T10:51:27.000Z</time>
      </trkpt>
      <trkpt lat="42.91911" lon="0.8319">
        <ele>1604</ele>
        <time>2018-12-02T10:51:29.000Z</time>
      </trkpt>
      <trkpt lat="42.91911" lon="0.83188">
        <ele>1605</ele>
        <time>2018-12-02T10:51:31.000Z</time>
      </trkpt>
      <trkpt lat="42.9191" lon="0.83186">
        <ele>1605</ele>
        <time>2018-12-02T10:51:33.000Z</time>
      </trkpt>
      <trkpt lat="42.91909" lon="0.83184">
        <ele>1605</ele>
        <time>2018-12-02T10:51:35.000Z</time>
      </trkpt>
      <trkpt lat="42.91908" lon="0.83183">
        <ele>1605</ele>
        <time>2018-12-02T10:51:37.000Z</time>
      </trkpt>
      <trkpt lat="42.91907" lon="0.83181">
        <ele>1605</ele>
        <time>2018-12-02T10:51:39.000Z</time>
      </trkpt>
      <trkpt lat="42.91907" lon="0.83179">
        <ele>1606</ele>
        <time>2018-12-02T10:51:41.000Z</time>
      </trkpt>
      <trkpt lat="42.91906" lon="0.83177">
        <ele>1606</ele>
        <time>2018-12-02T10:51:43.000Z</time>
      </trkpt>
      <trkpt lat="42.91905" lon="0.83175">
        <ele>1606</ele>
        <time>2018-12-02T10:51:45.000Z</time>
      </trkpt>
      <trkpt lat="42.91904" lon="0.83173">
        <ele>1606</ele>
        <time>2018-12-02T10:51:47.000Z</time>
      </trkpt>
      <trkpt lat="42.91904" lon="0.8317">
        <ele>1607</ele>
        <time>2018-12-02T10:51:49.000Z</time>
      </trkpt>
      <trkpt lat="42.91905" lon="0.83168">
        <ele>1607</ele>
        <time>2018-12-02T10:51:51.000Z</time>
      </trkpt>
      <trkpt lat="42.91905" lon="0.83166">
        <ele>1608</ele>
        <time>2018-12-02T10:51:53.000Z</time>
      </trkpt>
      <trkpt lat="42.91905" lon="0.83165">
        <ele>1608</ele>
        <time>2018-12-02T10:51:55.000Z</time>
      </trkpt>
      <trkpt lat="42.91904" lon="0.83164">
        <ele>1608</ele>
        <time>2018-12-02T10:51:57.000Z</time>
      </trkpt>
      <trkpt lat="42.91902" lon="0.83163">
        <ele>1608</ele>
        <time>2018-12-02T10:51:59.000Z</time>
      </trkpt>
      <trkpt lat="42.91901" lon="0.83162">
        <ele>1608</ele>
        <time>2018-12-02T10:52:01.000Z</time>
      </trkpt>
      <trkpt lat="42.919" lon="0.83161">
        <ele>1608</ele>
        <time>2018-12-02T10:52:03.000Z</time>
      </trkpt>
      <trkpt lat="42.91898" lon="0.83161">
        <ele>1607</ele>
        <time>2018-12-02T10:52:05.000Z</time>
      </trkpt>
      <trkpt lat="42.91896" lon="0.8316">
        <ele>1607</ele>
        <time>2018-12-02T10:52:07.000Z</time>
      </trkpt>
      <trkpt lat="42.91895" lon="0.83159">
        <ele>1607</ele>
        <time>2018-12-02T10:52:09.000Z</time>
      </trkpt>
      <trkpt lat="42.91894" lon="0.83158">
        <ele>1607</ele>
        <time>2018-12-02T10:52:11.000Z</time>
      </trkpt>
      <trkpt lat="42.91892" lon="0.83156">
        <ele>1607</ele>
        <time>2018-12-02T10:52:13.000Z</time>
      </trkpt>
      <trkpt lat="42.91891" lon="0.83154">
        <ele>1607</ele>
        <time>2018-12-02T10:52:15.000Z</time>
      </trkpt>
      <trkpt lat="42.9189" lon="0.83152">
        <ele>1608</ele>
        <time>2018-12-02T10:52:17.000Z</time>
      </trkpt>
      <trkpt lat="42.9189" lon="0.83151">
        <ele>1608</ele>
        <time>2018-12-02T10:52:19.000Z</time>
      </trkpt>
      <trkpt lat="42.91888" lon="0.83149">
        <ele>1608</ele>
        <time>2018-12-02T10:52:21.000Z</time>
      </trkpt>
      <trkpt lat="42.91887" lon="0.83148">
        <ele>1608</ele>
        <time>2018-12-02T10:52:23.000Z</time>
      </trkpt>
      <trkpt lat="42.91885" lon="0.83147">
        <ele>1608</ele>
        <time>2018-12-02T10:52:25.000Z</time>
      </trkpt>
      <trkpt lat="42.91884" lon="0.83146">
        <ele>1607</ele>
        <time>2018-12-02T10:52:27.000Z</time>
      </trkpt>
      <trkpt lat="42.91882" lon="0.83145">
        <ele>1607</ele>
        <time>2018-12-02T10:52:29.000Z</time>
      </trkpt>
      <trkpt lat="42.91881" lon="0.83143">
        <ele>1607</ele>
        <time>2018-12-02T10:52:31.000Z</time>
      </trkpt>
      <trkpt lat="42.9188" lon="0.83141">
        <ele>1607</ele>
        <time>2018-12-02T10:52:33.000Z</time>
      </trkpt>
      <trkpt lat="42.91879" lon="0.83139">
        <ele>1608</ele>
        <time>2018-12-02T10:52:35.000Z</time>
      </trkpt>
      <trkpt lat="42.91878" lon="0.83137">
        <ele>1608</ele>
        <time>2018-12-02T10:52:37.000Z</time>
      </trkpt>
      <trkpt lat="42.91877" lon="0.83135">
        <ele>1609</ele>
        <time>2018-12-02T10:52:39.000Z</time>
      </trkpt>
      <trkpt lat="42.91876" lon="0.83133">
        <ele>1609</ele>
        <time>2018-12-02T10:52:41.000Z</time>
      </trkpt>
      <trkpt lat="42.91875" lon="0.83131">
        <ele>1610</ele>
        <time>2018-12-02T10:52:43.000Z</time>
      </trkpt>
      <trkpt lat="42.91874" lon="0.83129">
        <ele>1610</ele>
        <time>2018-12-02T10:52:45.000Z</time>
      </trkpt>
      <trkpt lat="42.91874" lon="0.83127">
        <ele>1611</ele>
        <time>2018-12-02T10:52:47.000Z</time>
      </trkpt>
      <trkpt lat="42.91873" lon="0.83125">
        <ele>1612</ele>
        <time>2018-12-02T10:52:49.000Z</time>
      </trkpt>
      <trkpt lat="42.91873" lon="0.83123">
        <ele>1612</ele>
        <time>2018-12-02T10:52:51.000Z</time>
      </trkpt>
      <trkpt lat="42.91872" lon="0.83121">
        <ele>1613</ele>
        <time>2018-12-02T10:52:53.000Z</time>
      </trkpt>
      <trkpt lat="42.91872" lon="0.8312">
        <ele>1613</ele>
        <time>2018-12-02T10:52:55.000Z</time>
      </trkpt>
      <trkpt lat="42.91871" lon="0.83118">
        <ele>1614</ele>
        <time>2018-12-02T10:52:57.000Z</time>
      </trkpt>
      <trkpt lat="42.9187" lon="0.83116">
        <ele>1614</ele>
        <time>2018-12-02T10:52:59.000Z</time>
      </trkpt>
      <trkpt lat="42.91869" lon="0.83114">
        <ele>1615</ele>
        <time>2018-12-02T10:53:01.000Z</time>
      </trkpt>
      <trkpt lat="42.91869" lon="0.83111">
        <ele>1615</ele>
        <time>2018-12-02T10:53:03.000Z</time>
      </trkpt>
      <trkpt lat="42.91868" lon="0.8311">
        <ele>1616</ele>
        <time>2018-12-02T10:53:05.000Z</time>
      </trkpt>
      <trkpt lat="42.91867" lon="0.83108">
        <ele>1616</ele>
        <time>2018-12-02T10:53:07.000Z</time>
      </trkpt>
      <trkpt lat="42.91866" lon="0.83106">
        <ele>1617</ele>
        <time>2018-12-02T10:53:09.000Z</time>
      </trkpt>
      <trkpt lat="42.91864" lon="0.83105">
        <ele>1617</ele>
        <time>2018-12-02T10:53:11.000Z</time>
      </trkpt>
      <trkpt lat="42.91863" lon="0.83103">
        <ele>1617</ele>
        <time>2018-12-02T10:53:13.000Z</time>
      </trkpt>
      <trkpt lat="42.91862" lon="0.83102">
        <ele>1617</ele>
        <time>2018-12-02T10:53:15.000Z</time>
      </trkpt>
      <trkpt lat="42.91861" lon="0.831">
        <ele>1618</ele>
        <time>2018-12-02T10:53:17.000Z</time>
      </trkpt>
      <trkpt lat="42.9186" lon="0.83099">
        <ele>1618</ele>
        <time>2018-12-02T10:53:19.000Z</time>
      </trkpt>
      <trkpt lat="42.91859" lon="0.83098">
        <ele>1618</ele>
        <time>2018-12-02T10:53:21.000Z</time>
      </trkpt>
      <trkpt lat="42.91858" lon="0.83097">
        <ele>1618</ele>
        <time>2018-12-02T10:53:23.000Z</time>
      </trkpt>
      <trkpt lat="42.91857" lon="0.83096">
        <ele>1618</ele>
        <time>2018-12-02T10:53:25.000Z</time>
      </trkpt>
      <trkpt lat="42.91856" lon="0.83095">
        <ele>1619</ele>
        <time>2018-12-02T10:53:27.000Z</time>
      </trkpt>
      <trkpt lat="42.91855" lon="0.83094">
        <ele>1619</ele>
        <time>2018-12-02T10:53:29.000Z</time>
      </trkpt>
      <trkpt lat="42.91855" lon="0.83093">
        <ele>1619</ele>
        <time>2018-12-02T10:53:31.000Z</time>
      </trkpt>
      <trkpt lat="42.91854" lon="0.83092">
        <ele>1619</ele>
        <time>2018-12-02T10:53:33.000Z</time>
      </trkpt>
      <trkpt lat="42.91853" lon="0.83091">
        <ele>1619</ele>
        <time>2018-12-02T10:53:35.000Z</time>
      </trkpt>
      <trkpt lat="42.91852" lon="0.83089">
        <ele>1620</ele>
        <time>2018-12-02T10:53:37.000Z</time>
      </trkpt>
      <trkpt lat="42.91852" lon="0.83088">
        <ele>1620</ele>
        <time>2018-12-02T10:53:39.000Z</time>
      </trkpt>
      <trkpt lat="42.91851" lon="0.83087">
        <ele>1620</ele>
        <time>2018-12-02T10:53:41.000Z</time>
      </trkpt>
      <trkpt lat="42.91851" lon="0.83086">
        <ele>1620</ele>
        <time>2018-12-02T10:53:43.000Z</time>
      </trkpt>
      <trkpt lat="42.9185" lon="0.83086">
        <ele>1620</ele>
        <time>2018-12-02T10:53:45.000Z</time>
      </trkpt>
      <trkpt lat="42.91849" lon="0.83085">
        <ele>1621</ele>
        <time>2018-12-02T10:53:47.000Z</time>
      </trkpt>
      <trkpt lat="42.91849" lon="0.83084">
        <ele>1621</ele>
        <time>2018-12-02T10:53:49.000Z</time>
      </trkpt>
      <trkpt lat="42.91848" lon="0.83082">
        <ele>1621</ele>
        <time>2018-12-02T10:53:51.000Z</time>
      </trkpt>
      <trkpt lat="42.91848" lon="0.83081">
        <ele>1621</ele>
        <time>2018-12-02T10:53:53.000Z</time>
      </trkpt>
      <trkpt lat="42.91847" lon="0.83081">
        <ele>1621</ele>
        <time>2018-12-02T10:53:55.000Z</time>
      </trkpt>
      <trkpt lat="42.91846" lon="0.8308">
        <ele>1622</ele>
        <time>2018-12-02T10:53:57.000Z</time>
      </trkpt>
      <trkpt lat="42.91845" lon="0.83079">
        <ele>1622</ele>
        <time>2018-12-02T10:53:59.000Z</time>
      </trkpt>
      <trkpt lat="42.91845" lon="0.83078">
        <ele>1622</ele>
        <time>2018-12-02T10:54:01.000Z</time>
      </trkpt>
      <trkpt lat="42.91844" lon="0.83077">
        <ele>1622</ele>
        <time>2018-12-02T10:54:03.000Z</time>
      </trkpt>
      <trkpt lat="42.91843" lon="0.83076">
        <ele>1622</ele>
        <time>2018-12-02T10:54:05.000Z</time>
      </trkpt>
      <trkpt lat="42.91842" lon="0.83075">
        <ele>1622</ele>
        <time>2018-12-02T10:54:07.000Z</time>
      </trkpt>
      <trkpt lat="42.91841" lon="0.83074">
        <ele>1622</ele>
        <time>2018-12-02T10:54:09.000Z</time>
      </trkpt>
      <trkpt lat="42.9184" lon="0.83073">
        <ele>1623</ele>
        <time>2018-12-02T10:54:11.000Z</time>
      </trkpt>
      <trkpt lat="42.91839" lon="0.83072">
        <ele>1623</ele>
        <time>2018-12-02T10:54:13.000Z</time>
      </trkpt>
      <trkpt lat="42.91839" lon="0.8307">
        <ele>1624</ele>
        <time>2018-12-02T10:54:15.000Z</time>
      </trkpt>
      <trkpt lat="42.91839" lon="0.83069">
        <ele>1624</ele>
        <time>2018-12-02T10:54:17.000Z</time>
      </trkpt>
      <trkpt lat="42.91839" lon="0.83067">
        <ele>1625</ele>
        <time>2018-12-02T10:54:19.000Z</time>
      </trkpt>
      <trkpt lat="42.91838" lon="0.83066">
        <ele>1625</ele>
        <time>2018-12-02T10:54:21.000Z</time>
      </trkpt>
      <trkpt lat="42.91838" lon="0.83065">
        <ele>1626</ele>
        <time>2018-12-02T10:54:23.000Z</time>
      </trkpt>
      <trkpt lat="42.91838" lon="0.83063">
        <ele>1626</ele>
        <time>2018-12-02T10:54:25.000Z</time>
      </trkpt>
      <trkpt lat="42.91838" lon="0.83061">
        <ele>1627</ele>
        <time>2018-12-02T10:54:27.000Z</time>
      </trkpt>
      <trkpt lat="42.91838" lon="0.8306">
        <ele>1627</ele>
        <time>2018-12-02T10:54:29.000Z</time>
      </trkpt>
      <trkpt lat="42.91838" lon="0.83059">
        <ele>1628</ele>
        <time>2018-12-02T10:54:31.000Z</time>
      </trkpt>
      <trkpt lat="42.91838" lon="0.83057">
        <ele>1628</ele>
        <time>2018-12-02T10:54:33.000Z</time>
      </trkpt>
      <trkpt lat="42.91837" lon="0.83056">
        <ele>1629</ele>
        <time>2018-12-02T10:54:35.000Z</time>
      </trkpt>
      <trkpt lat="42.91837" lon="0.83055">
        <ele>1629</ele>
        <time>2018-12-02T10:54:37.000Z</time>
      </trkpt>
      <trkpt lat="42.91836" lon="0.83054">
        <ele>1629</ele>
        <time>2018-12-02T10:54:39.000Z</time>
      </trkpt>
      <trkpt lat="42.91836" lon="0.83053">
        <ele>1629</ele>
        <time>2018-12-02T10:54:41.000Z</time>
      </trkpt>
      <trkpt lat="42.91835" lon="0.83052">
        <ele>1630</ele>
        <time>2018-12-02T10:54:43.000Z</time>
      </trkpt>
      <trkpt lat="42.91835" lon="0.8305">
        <ele>1630</ele>
        <time>2018-12-02T10:54:45.000Z</time>
      </trkpt>
      <trkpt lat="42.91835" lon="0.8305">
        <ele>1630</ele>
        <time>2018-12-02T10:54:47.000Z</time>
      </trkpt>
      <trkpt lat="42.91835" lon="0.8305">
        <ele>1630</ele>
        <time>2018-12-02T10:54:49.000Z</time>
      </trkpt>
      <trkpt lat="42.91835" lon="0.8305">
        <ele>1630</ele>
        <time>2018-12-02T10:54:51.000Z</time>
      </trkpt>
      <trkpt lat="42.91835" lon="0.8305">
        <ele>1630</ele>
        <time>2018-12-02T10:54:53.000Z</time>
      </trkpt>
      <trkpt lat="42.91835" lon="0.8305">
        <ele>1630</ele>
        <time>2018-12-02T10:54:55.000Z</time>
      </trkpt>
      <trkpt lat="42.91835" lon="0.8305">
        <ele>1630</ele>
        <time>2018-12-02T10:54:57.000Z</time>
      </trkpt>
      <trkpt lat="42.91835" lon="0.8305">
        <ele>1630</ele>
        <time>2018-12-02T10:54:59.000Z</time>
      </trkpt>
      <trkpt lat="42.91835" lon="0.8305">
        <ele>1630</ele>
        <time>2018-12-02T10:55:01.000Z</time>
      </trkpt>
      <trkpt lat="42.91835" lon="0.8305">
        <ele>1630</ele>
        <time>2018-12-02T10:55:03.000Z</time>
      </trkpt>
      <trkpt lat="42.91835" lon="0.8305">
        <ele>1630</ele>
        <time>2018-12-02T10:55:05.000Z</time>
      </trkpt>
      <trkpt lat="42.91835" lon="0.8305">
        <ele>1630</ele>
        <time>2018-12-02T10:55:07.000Z</time>
      </trkpt>
      <trkpt lat="42.91835" lon="0.83049">
        <ele>1630</ele>
        <time>2018-12-02T10:55:09.000Z</time>
      </trkpt>
      <trkpt lat="42.91835" lon="0.83049">
        <ele>1631</ele>
        <time>2018-12-02T10:55:11.000Z</time>
      </trkpt>
      <trkpt lat="42.91834" lon="0.83049">
        <ele>1631</ele>
        <time>2018-12-02T10:55:13.000Z</time>
      </trkpt>
      <trkpt lat="42.91834" lon="0.83047">
        <ele>1631</ele>
        <time>2018-12-02T10:55:15.000Z</time>
      </trkpt>
      <trkpt lat="42.91834" lon="0.83047">
        <ele>1631</ele>
        <time>2018-12-02T10:55:17.000Z</time>
      </trkpt>
      <trkpt lat="42.91834" lon="0.83046">
        <ele>1631</ele>
        <time>2018-12-02T10:55:19.000Z</time>
      </trkpt>
      <trkpt lat="42.91834" lon="0.83045">
        <ele>1631</ele>
        <time>2018-12-02T10:55:21.000Z</time>
      </trkpt>
      <trkpt lat="42.91833" lon="0.83044">
        <ele>1632</ele>
        <time>2018-12-02T10:55:23.000Z</time>
      </trkpt>
      <trkpt lat="42.91833" lon="0.83043">
        <ele>1632</ele>
        <time>2018-12-02T10:55:25.000Z</time>
      </trkpt>
      <trkpt lat="42.91832" lon="0.83042">
        <ele>1632</ele>
        <time>2018-12-02T10:55:27.000Z</time>
      </trkpt>
      <trkpt lat="42.91831" lon="0.83041">
        <ele>1632</ele>
        <time>2018-12-02T10:55:29.000Z</time>
      </trkpt>
      <trkpt lat="42.9183" lon="0.8304">
        <ele>1633</ele>
        <time>2018-12-02T10:55:31.000Z</time>
      </trkpt>
      <trkpt lat="42.9183" lon="0.83038">
        <ele>1633</ele>
        <time>2018-12-02T10:55:33.000Z</time>
      </trkpt>
      <trkpt lat="42.91829" lon="0.83037">
        <ele>1633</ele>
        <time>2018-12-02T10:55:35.000Z</time>
      </trkpt>
      <trkpt lat="42.91827" lon="0.83036">
        <ele>1633</ele>
        <time>2018-12-02T10:55:37.000Z</time>
      </trkpt>
      <trkpt lat="42.91826" lon="0.83035">
        <ele>1634</ele>
        <time>2018-12-02T10:55:39.000Z</time>
      </trkpt>
      <trkpt lat="42.91826" lon="0.83034">
        <ele>1634</ele>
        <time>2018-12-02T10:55:41.000Z</time>
      </trkpt>
      <trkpt lat="42.91825" lon="0.83032">
        <ele>1634</ele>
        <time>2018-12-02T10:55:43.000Z</time>
      </trkpt>
      <trkpt lat="42.91824" lon="0.8303">
        <ele>1635</ele>
        <time>2018-12-02T10:55:45.000Z</time>
      </trkpt>
      <trkpt lat="42.91823" lon="0.83029">
        <ele>1635</ele>
        <time>2018-12-02T10:55:47.000Z</time>
      </trkpt>
      <trkpt lat="42.91822" lon="0.83027">
        <ele>1635</ele>
        <time>2018-12-02T10:55:49.000Z</time>
      </trkpt>
      <trkpt lat="42.91821" lon="0.83026">
        <ele>1636</ele>
        <time>2018-12-02T10:55:51.000Z</time>
      </trkpt>
      <trkpt lat="42.91821" lon="0.83024">
        <ele>1636</ele>
        <time>2018-12-02T10:55:53.000Z</time>
      </trkpt>
      <trkpt lat="42.9182" lon="0.83023">
        <ele>1636</ele>
        <time>2018-12-02T10:55:55.000Z</time>
      </trkpt>
      <trkpt lat="42.91819" lon="0.83021">
        <ele>1637</ele>
        <time>2018-12-02T10:55:57.000Z</time>
      </trkpt>
      <trkpt lat="42.91818" lon="0.8302">
        <ele>1637</ele>
        <time>2018-12-02T10:55:59.000Z</time>
      </trkpt>
      <trkpt lat="42.91818" lon="0.83019">
        <ele>1637</ele>
        <time>2018-12-02T10:56:01.000Z</time>
      </trkpt>
      <trkpt lat="42.91817" lon="0.83017">
        <ele>1638</ele>
        <time>2018-12-02T10:56:03.000Z</time>
      </trkpt>
      <trkpt lat="42.91816" lon="0.83015">
        <ele>1638</ele>
        <time>2018-12-02T10:56:05.000Z</time>
      </trkpt>
      <trkpt lat="42.91816" lon="0.83014">
        <ele>1638</ele>
        <time>2018-12-02T10:56:07.000Z</time>
      </trkpt>
      <trkpt lat="42.91815" lon="0.83012">
        <ele>1639</ele>
        <time>2018-12-02T10:56:09.000Z</time>
      </trkpt>
      <trkpt lat="42.91814" lon="0.83011">
        <ele>1639</ele>
        <time>2018-12-02T10:56:11.000Z</time>
      </trkpt>
      <trkpt lat="42.91814" lon="0.83009">
        <ele>1639</ele>
        <time>2018-12-02T10:56:13.000Z</time>
      </trkpt>
      <trkpt lat="42.91814" lon="0.83008">
        <ele>1640</ele>
        <time>2018-12-02T10:56:15.000Z</time>
      </trkpt>
      <trkpt lat="42.91813" lon="0.83007">
        <ele>1640</ele>
        <time>2018-12-02T10:56:17.000Z</time>
      </trkpt>
      <trkpt lat="42.91812" lon="0.83005">
        <ele>1640</ele>
        <time>2018-12-02T10:56:19.000Z</time>
      </trkpt>
      <trkpt lat="42.91811" lon="0.83004">
        <ele>1641</ele>
        <time>2018-12-02T10:56:21.000Z</time>
      </trkpt>
      <trkpt lat="42.91811" lon="0.83002">
        <ele>1641</ele>
        <time>2018-12-02T10:56:23.000Z</time>
      </trkpt>
      <trkpt lat="42.9181" lon="0.83001">
        <ele>1641</ele>
        <time>2018-12-02T10:56:25.000Z</time>
      </trkpt>
      <trkpt lat="42.91809" lon="0.83">
        <ele>1641</ele>
        <time>2018-12-02T10:56:27.000Z</time>
      </trkpt>
      <trkpt lat="42.91809" lon="0.82998">
        <ele>1642</ele>
        <time>2018-12-02T10:56:29.000Z</time>
      </trkpt>
      <trkpt lat="42.91808" lon="0.82997">
        <ele>1642</ele>
        <time>2018-12-02T10:56:31.000Z</time>
      </trkpt>
      <trkpt lat="42.91807" lon="0.82995">
        <ele>1643</ele>
        <time>2018-12-02T10:56:33.000Z</time>
      </trkpt>
      <trkpt lat="42.91807" lon="0.82993">
        <ele>1643</ele>
        <time>2018-12-02T10:56:35.000Z</time>
      </trkpt>
      <trkpt lat="42.91806" lon="0.82991">
        <ele>1643</ele>
        <time>2018-12-02T10:56:37.000Z</time>
      </trkpt>
      <trkpt lat="42.91805" lon="0.8299">
        <ele>1644</ele>
        <time>2018-12-02T10:56:39.000Z</time>
      </trkpt>
      <trkpt lat="42.91805" lon="0.82988">
        <ele>1644</ele>
        <time>2018-12-02T10:56:41.000Z</time>
      </trkpt>
      <trkpt lat="42.91804" lon="0.82987">
        <ele>1644</ele>
        <time>2018-12-02T10:56:43.000Z</time>
      </trkpt>
      <trkpt lat="42.91803" lon="0.82986">
        <ele>1645</ele>
        <time>2018-12-02T10:56:45.000Z</time>
      </trkpt>
      <trkpt lat="42.91802" lon="0.82984">
        <ele>1645</ele>
        <time>2018-12-02T10:56:47.000Z</time>
      </trkpt>
      <trkpt lat="42.91802" lon="0.82983">
        <ele>1645</ele>
        <time>2018-12-02T10:56:49.000Z</time>
      </trkpt>
      <trkpt lat="42.91801" lon="0.82981">
        <ele>1646</ele>
        <time>2018-12-02T10:56:51.000Z</time>
      </trkpt>
      <trkpt lat="42.91801" lon="0.8298">
        <ele>1646</ele>
        <time>2018-12-02T10:56:53.000Z</time>
      </trkpt>
      <trkpt lat="42.918" lon="0.82978">
        <ele>1646</ele>
        <time>2018-12-02T10:56:55.000Z</time>
      </trkpt>
      <trkpt lat="42.918" lon="0.82977">
        <ele>1647</ele>
        <time>2018-12-02T10:56:57.000Z</time>
      </trkpt>
      <trkpt lat="42.91799" lon="0.82975">
        <ele>1647</ele>
        <time>2018-12-02T10:56:59.000Z</time>
      </trkpt>
      <trkpt lat="42.91798" lon="0.82974">
        <ele>1647</ele>
        <time>2018-12-02T10:57:01.000Z</time>
      </trkpt>
      <trkpt lat="42.91797" lon="0.82972">
        <ele>1647</ele>
        <time>2018-12-02T10:57:03.000Z</time>
      </trkpt>
      <trkpt lat="42.91797" lon="0.82971">
        <ele>1648</ele>
        <time>2018-12-02T10:57:05.000Z</time>
      </trkpt>
      <trkpt lat="42.91796" lon="0.8297">
        <ele>1648</ele>
        <time>2018-12-02T10:57:07.000Z</time>
      </trkpt>
      <trkpt lat="42.91795" lon="0.82969">
        <ele>1648</ele>
        <time>2018-12-02T10:57:09.000Z</time>
      </trkpt>
      <trkpt lat="42.91795" lon="0.82967">
        <ele>1648</ele>
        <time>2018-12-02T10:57:11.000Z</time>
      </trkpt>
      <trkpt lat="42.91794" lon="0.82965">
        <ele>1648</ele>
        <time>2018-12-02T10:57:13.000Z</time>
      </trkpt>
      <trkpt lat="42.91794" lon="0.82964">
        <ele>1648</ele>
        <time>2018-12-02T10:57:15.000Z</time>
      </trkpt>
      <trkpt lat="42.91793" lon="0.82963">
        <ele>1648</ele>
        <time>2018-12-02T10:57:17.000Z</time>
      </trkpt>
      <trkpt lat="42.91792" lon="0.82961">
        <ele>1648</ele>
        <time>2018-12-02T10:57:19.000Z</time>
      </trkpt>
      <trkpt lat="42.91792" lon="0.82959">
        <ele>1649</ele>
        <time>2018-12-02T10:57:21.000Z</time>
      </trkpt>
      <trkpt lat="42.91791" lon="0.82958">
        <ele>1649</ele>
        <time>2018-12-02T10:57:23.000Z</time>
      </trkpt>
      <trkpt lat="42.91791" lon="0.82956">
        <ele>1649</ele>
        <time>2018-12-02T10:57:25.000Z</time>
      </trkpt>
      <trkpt lat="42.9179" lon="0.82954">
        <ele>1649</ele>
        <time>2018-12-02T10:57:27.000Z</time>
      </trkpt>
      <trkpt lat="42.91789" lon="0.82953">
        <ele>1649</ele>
        <time>2018-12-02T10:57:29.000Z</time>
      </trkpt>
      <trkpt lat="42.91789" lon="0.82951">
        <ele>1649</ele>
        <time>2018-12-02T10:57:31.000Z</time>
      </trkpt>
      <trkpt lat="42.91788" lon="0.82949">
        <ele>1649</ele>
        <time>2018-12-02T10:57:33.000Z</time>
      </trkpt>
      <trkpt lat="42.91788" lon="0.82948">
        <ele>1649</ele>
        <time>2018-12-02T10:57:35.000Z</time>
      </trkpt>
      <trkpt lat="42.91787" lon="0.82946">
        <ele>1650</ele>
        <time>2018-12-02T10:57:37.000Z</time>
      </trkpt>
      <trkpt lat="42.91786" lon="0.82945">
        <ele>1650</ele>
        <time>2018-12-02T10:57:39.000Z</time>
      </trkpt>
      <trkpt lat="42.91785" lon="0.82943">
        <ele>1650</ele>
        <time>2018-12-02T10:57:41.000Z</time>
      </trkpt>
      <trkpt lat="42.91785" lon="0.82941">
        <ele>1650</ele>
        <time>2018-12-02T10:57:43.000Z</time>
      </trkpt>
      <trkpt lat="42.91784" lon="0.82939">
        <ele>1650</ele>
        <time>2018-12-02T10:57:45.000Z</time>
      </trkpt>
      <trkpt lat="42.91784" lon="0.82937">
        <ele>1650</ele>
        <time>2018-12-02T10:57:47.000Z</time>
      </trkpt>
      <trkpt lat="42.91785" lon="0.82935">
        <ele>1650</ele>
        <time>2018-12-02T10:57:49.000Z</time>
      </trkpt>
      <trkpt lat="42.91785" lon="0.82933">
        <ele>1650</ele>
        <time>2018-12-02T10:57:51.000Z</time>
      </trkpt>
      <trkpt lat="42.91785" lon="0.82931">
        <ele>1651</ele>
        <time>2018-12-02T10:57:53.000Z</time>
      </trkpt>
      <trkpt lat="42.91784" lon="0.82929">
        <ele>1651</ele>
        <time>2018-12-02T10:57:55.000Z</time>
      </trkpt>
      <trkpt lat="42.91784" lon="0.82927">
        <ele>1651</ele>
        <time>2018-12-02T10:57:57.000Z</time>
      </trkpt>
      <trkpt lat="42.91785" lon="0.82926">
        <ele>1651</ele>
        <time>2018-12-02T10:57:59.000Z</time>
      </trkpt>
      <trkpt lat="42.91785" lon="0.82924">
        <ele>1651</ele>
        <time>2018-12-02T10:58:01.000Z</time>
      </trkpt>
      <trkpt lat="42.91786" lon="0.82923">
        <ele>1651</ele>
        <time>2018-12-02T10:58:03.000Z</time>
      </trkpt>
      <trkpt lat="42.91786" lon="0.82923">
        <ele>1651</ele>
        <time>2018-12-02T10:58:05.000Z</time>
      </trkpt>
      <trkpt lat="42.91786" lon="0.82923">
        <ele>1651</ele>
        <time>2018-12-02T10:58:07.000Z</time>
      </trkpt>
      <trkpt lat="42.91786" lon="0.82923">
        <ele>1651</ele>
        <time>2018-12-02T10:58:09.000Z</time>
      </trkpt>
      <trkpt lat="42.91786" lon="0.82921">
        <ele>1651</ele>
        <time>2018-12-02T10:58:11.000Z</time>
      </trkpt>
      <trkpt lat="42.91787" lon="0.8292">
        <ele>1651</ele>
        <time>2018-12-02T10:58:13.000Z</time>
      </trkpt>
      <trkpt lat="42.91787" lon="0.82919">
        <ele>1651</ele>
        <time>2018-12-02T10:58:15.000Z</time>
      </trkpt>
      <trkpt lat="42.91788" lon="0.82917">
        <ele>1652</ele>
        <time>2018-12-02T10:58:17.000Z</time>
      </trkpt>
      <trkpt lat="42.91788" lon="0.82916">
        <ele>1652</ele>
        <time>2018-12-02T10:58:19.000Z</time>
      </trkpt>
      <trkpt lat="42.91789" lon="0.82914">
        <ele>1652</ele>
        <time>2018-12-02T10:58:21.000Z</time>
      </trkpt>
      <trkpt lat="42.9179" lon="0.82913">
        <ele>1652</ele>
        <time>2018-12-02T10:58:23.000Z</time>
      </trkpt>
      <trkpt lat="42.91791" lon="0.82911">
        <ele>1652</ele>
        <time>2018-12-02T10:58:25.000Z</time>
      </trkpt>
      <trkpt lat="42.91792" lon="0.8291">
        <ele>1652</ele>
        <time>2018-12-02T10:58:27.000Z</time>
      </trkpt>
      <trkpt lat="42.91793" lon="0.82909">
        <ele>1653</ele>
        <time>2018-12-02T10:58:29.000Z</time>
      </trkpt>
      <trkpt lat="42.91793" lon="0.82908">
        <ele>1653</ele>
        <time>2018-12-02T10:58:31.000Z</time>
      </trkpt>
      <trkpt lat="42.91794" lon="0.82906">
        <ele>1653</ele>
        <time>2018-12-02T10:58:33.000Z</time>
      </trkpt>
      <trkpt lat="42.91794" lon="0.82905">
        <ele>1653</ele>
        <time>2018-12-02T10:58:35.000Z</time>
      </trkpt>
      <trkpt lat="42.91795" lon="0.82904">
        <ele>1653</ele>
        <time>2018-12-02T10:58:37.000Z</time>
      </trkpt>
      <trkpt lat="42.91795" lon="0.82903">
        <ele>1653</ele>
        <time>2018-12-02T10:58:39.000Z</time>
      </trkpt>
      <trkpt lat="42.91796" lon="0.82902">
        <ele>1653</ele>
        <time>2018-12-02T10:58:41.000Z</time>
      </trkpt>
      <trkpt lat="42.91796" lon="0.82901">
        <ele>1653</ele>
        <time>2018-12-02T10:58:43.000Z</time>
      </trkpt>
      <trkpt lat="42.91797" lon="0.829">
        <ele>1653</ele>
        <time>2018-12-02T10:58:45.000Z</time>
      </trkpt>
      <trkpt lat="42.91797" lon="0.82899">
        <ele>1653</ele>
        <time>2018-12-02T10:58:47.000Z</time>
      </trkpt>
      <trkpt lat="42.91798" lon="0.82898">
        <ele>1654</ele>
        <time>2018-12-02T10:58:49.000Z</time>
      </trkpt>
      <trkpt lat="42.91798" lon="0.82897">
        <ele>1654</ele>
        <time>2018-12-02T10:58:51.000Z</time>
      </trkpt>
      <trkpt lat="42.91799" lon="0.82896">
        <ele>1654</ele>
        <time>2018-12-02T10:58:53.000Z</time>
      </trkpt>
      <trkpt lat="42.918" lon="0.82895">
        <ele>1654</ele>
        <time>2018-12-02T10:58:55.000Z</time>
      </trkpt>
      <trkpt lat="42.918" lon="0.82894">
        <ele>1654</ele>
        <time>2018-12-02T10:58:57.000Z</time>
      </trkpt>
      <trkpt lat="42.91801" lon="0.82894">
        <ele>1654</ele>
        <time>2018-12-02T10:58:59.000Z</time>
      </trkpt>
      <trkpt lat="42.91802" lon="0.82892">
        <ele>1654</ele>
        <time>2018-12-02T10:59:01.000Z</time>
      </trkpt>
      <trkpt lat="42.91802" lon="0.82892">
        <ele>1654</ele>
        <time>2018-12-02T10:59:03.000Z</time>
      </trkpt>
      <trkpt lat="42.91802" lon="0.82891">
        <ele>1654</ele>
        <time>2018-12-02T10:59:05.000Z</time>
      </trkpt>
      <trkpt lat="42.91803" lon="0.8289">
        <ele>1654</ele>
        <time>2018-12-02T10:59:07.000Z</time>
      </trkpt>
      <trkpt lat="42.91803" lon="0.82889">
        <ele>1655</ele>
        <time>2018-12-02T10:59:09.000Z</time>
      </trkpt>
      <trkpt lat="42.91804" lon="0.82889">
        <ele>1655</ele>
        <time>2018-12-02T10:59:11.000Z</time>
      </trkpt>
      <trkpt lat="42.91804" lon="0.82889">
        <ele>1655</ele>
        <time>2018-12-02T10:59:13.000Z</time>
      </trkpt>
      <trkpt lat="42.91804" lon="0.82888">
        <ele>1655</ele>
        <time>2018-12-02T10:59:15.000Z</time>
      </trkpt>
      <trkpt lat="42.91804" lon="0.82888">
        <ele>1655</ele>
        <time>2018-12-02T10:59:17.000Z</time>
      </trkpt>
      <trkpt lat="42.91804" lon="0.82888">
        <ele>1655</ele>
        <time>2018-12-02T10:59:19.000Z</time>
      </trkpt>
      <trkpt lat="42.91804" lon="0.82888">
        <ele>1655</ele>
        <time>2018-12-02T10:59:21.000Z</time>
      </trkpt>
      <trkpt lat="42.91805" lon="0.82888">
        <ele>1655</ele>
        <time>2018-12-02T10:59:23.000Z</time>
      </trkpt>
      <trkpt lat="42.91805" lon="0.82888">
        <ele>1655</ele>
        <time>2018-12-02T10:59:25.000Z</time>
      </trkpt>
      <trkpt lat="42.91805" lon="0.82888">
        <ele>1655</ele>
        <time>2018-12-02T10:59:27.000Z</time>
      </trkpt>
      <trkpt lat="42.91805" lon="0.82888">
        <ele>1655</ele>
        <time>2018-12-02T10:59:29.000Z</time>
      </trkpt>
      <trkpt lat="42.91805" lon="0.82888">
        <ele>1655</ele>
        <time>2018-12-02T10:59:31.000Z</time>
      </trkpt>
      <trkpt lat="42.91805" lon="0.82888">
        <ele>1655</ele>
        <time>2018-12-02T10:59:33.000Z</time>
      </trkpt>
      <trkpt lat="42.91804" lon="0.82888">
        <ele>1655</ele>
        <time>2018-12-02T10:59:35.000Z</time>
      </trkpt>
      <trkpt lat="42.91804" lon="0.82888">
        <ele>1655</ele>
        <time>2018-12-02T10:59:37.000Z</time>
      </trkpt>
      <trkpt lat="42.91805" lon="0.82887">
        <ele>1655</ele>
        <time>2018-12-02T10:59:39.000Z</time>
      </trkpt>
      <trkpt lat="42.91806" lon="0.82887">
        <ele>1655</ele>
        <time>2018-12-02T10:59:41.000Z</time>
      </trkpt>
      <trkpt lat="42.91806" lon="0.82886">
        <ele>1655</ele>
        <time>2018-12-02T10:59:43.000Z</time>
      </trkpt>
      <trkpt lat="42.91807" lon="0.82886">
        <ele>1655</ele>
        <time>2018-12-02T10:59:45.000Z</time>
      </trkpt>
      <trkpt lat="42.91807" lon="0.82885">
        <ele>1655</ele>
        <time>2018-12-02T10:59:47.000Z</time>
      </trkpt>
      <trkpt lat="42.91808" lon="0.82884">
        <ele>1655</ele>
        <time>2018-12-02T10:59:49.000Z</time>
      </trkpt>
      <trkpt lat="42.91809" lon="0.82884">
        <ele>1655</ele>
        <time>2018-12-02T10:59:51.000Z</time>
      </trkpt>
      <trkpt lat="42.91809" lon="0.82882">
        <ele>1655</ele>
        <time>2018-12-02T10:59:53.000Z</time>
      </trkpt>
      <trkpt lat="42.91809" lon="0.82881">
        <ele>1655</ele>
        <time>2018-12-02T10:59:55.000Z</time>
      </trkpt>
      <trkpt lat="42.91809" lon="0.8288">
        <ele>1655</ele>
        <time>2018-12-02T10:59:57.000Z</time>
      </trkpt>
      <trkpt lat="42.91809" lon="0.82879">
        <ele>1656</ele>
        <time>2018-12-02T10:59:59.000Z</time>
      </trkpt>
      <trkpt lat="42.91809" lon="0.82878">
        <ele>1656</ele>
        <time>2018-12-02T11:00:01.000Z</time>
      </trkpt>
      <trkpt lat="42.91809" lon="0.82876">
        <ele>1656</ele>
        <time>2018-12-02T11:00:03.000Z</time>
      </trkpt>
      <trkpt lat="42.91809" lon="0.82875">
        <ele>1656</ele>
        <time>2018-12-02T11:00:05.000Z</time>
      </trkpt>
      <trkpt lat="42.91808" lon="0.82874">
        <ele>1656</ele>
        <time>2018-12-02T11:00:07.000Z</time>
      </trkpt>
      <trkpt lat="42.91808" lon="0.82873">
        <ele>1656</ele>
        <time>2018-12-02T11:00:09.000Z</time>
      </trkpt>
      <trkpt lat="42.91808" lon="0.82871">
        <ele>1656</ele>
        <time>2018-12-02T11:00:11.000Z</time>
      </trkpt>
      <trkpt lat="42.91808" lon="0.82869">
        <ele>1657</ele>
        <time>2018-12-02T11:00:13.000Z</time>
      </trkpt>
      <trkpt lat="42.91808" lon="0.82867">
        <ele>1657</ele>
        <time>2018-12-02T11:00:15.000Z</time>
      </trkpt>
      <trkpt lat="42.91808" lon="0.82865">
        <ele>1657</ele>
        <time>2018-12-02T11:00:17.000Z</time>
      </trkpt>
      <trkpt lat="42.91807" lon="0.82864">
        <ele>1657</ele>
        <time>2018-12-02T11:00:19.000Z</time>
      </trkpt>
      <trkpt lat="42.91807" lon="0.82863">
        <ele>1657</ele>
        <time>2018-12-02T11:00:21.000Z</time>
      </trkpt>
      <trkpt lat="42.91806" lon="0.82861">
        <ele>1657</ele>
        <time>2018-12-02T11:00:23.000Z</time>
      </trkpt>
      <trkpt lat="42.91806" lon="0.82859">
        <ele>1657</ele>
        <time>2018-12-02T11:00:25.000Z</time>
      </trkpt>
      <trkpt lat="42.91805" lon="0.82857">
        <ele>1658</ele>
        <time>2018-12-02T11:00:27.000Z</time>
      </trkpt>
      <trkpt lat="42.91805" lon="0.82856">
        <ele>1658</ele>
        <time>2018-12-02T11:00:29.000Z</time>
      </trkpt>
      <trkpt lat="42.91804" lon="0.82854">
        <ele>1658</ele>
        <time>2018-12-02T11:00:31.000Z</time>
      </trkpt>
      <trkpt lat="42.91803" lon="0.82853">
        <ele>1658</ele>
        <time>2018-12-02T11:00:33.000Z</time>
      </trkpt>
      <trkpt lat="42.91802" lon="0.82851">
        <ele>1658</ele>
        <time>2018-12-02T11:00:35.000Z</time>
      </trkpt>
      <trkpt lat="42.91801" lon="0.8285">
        <ele>1658</ele>
        <time>2018-12-02T11:00:37.000Z</time>
      </trkpt>
      <trkpt lat="42.918" lon="0.82849">
        <ele>1658</ele>
        <time>2018-12-02T11:00:39.000Z</time>
      </trkpt>
      <trkpt lat="42.91799" lon="0.82848">
        <ele>1658</ele>
        <time>2018-12-02T11:00:41.000Z</time>
      </trkpt>
      <trkpt lat="42.91798" lon="0.82848">
        <ele>1658</ele>
        <time>2018-12-02T11:00:43.000Z</time>
      </trkpt>
      <trkpt lat="42.91797" lon="0.82846">
        <ele>1659</ele>
        <time>2018-12-02T11:00:45.000Z</time>
      </trkpt>
      <trkpt lat="42.91796" lon="0.82844">
        <ele>1659</ele>
        <time>2018-12-02T11:00:47.000Z</time>
      </trkpt>
      <trkpt lat="42.91795" lon="0.82843">
        <ele>1659</ele>
        <time>2018-12-02T11:00:49.000Z</time>
      </trkpt>
      <trkpt lat="42.91794" lon="0.82841">
        <ele>1659</ele>
        <time>2018-12-02T11:00:51.000Z</time>
      </trkpt>
      <trkpt lat="42.91793" lon="0.8284">
        <ele>1659</ele>
        <time>2018-12-02T11:00:54.000Z</time>
      </trkpt>
      <trkpt lat="42.91791" lon="0.82839">
        <ele>1659</ele>
        <time>2018-12-02T11:00:56.000Z</time>
      </trkpt>
      <trkpt lat="42.9179" lon="0.82838">
        <ele>1659</ele>
        <time>2018-12-02T11:00:58.000Z</time>
      </trkpt>
      <trkpt lat="42.91789" lon="0.82837">
        <ele>1659</ele>
        <time>2018-12-02T11:01:00.000Z</time>
      </trkpt>
      <trkpt lat="42.91788" lon="0.82835">
        <ele>1659</ele>
        <time>2018-12-02T11:01:02.000Z</time>
      </trkpt>
      <trkpt lat="42.91787" lon="0.82834">
        <ele>1659</ele>
        <time>2018-12-02T11:01:04.000Z</time>
      </trkpt>
      <trkpt lat="42.91786" lon="0.82832">
        <ele>1660</ele>
        <time>2018-12-02T11:01:06.000Z</time>
      </trkpt>
      <trkpt lat="42.91785" lon="0.82831">
        <ele>1660</ele>
        <time>2018-12-02T11:01:08.000Z</time>
      </trkpt>
      <trkpt lat="42.91784" lon="0.82829">
        <ele>1660</ele>
        <time>2018-12-02T11:01:10.000Z</time>
      </trkpt>
      <trkpt lat="42.91784" lon="0.82828">
        <ele>1660</ele>
        <time>2018-12-02T11:01:12.000Z</time>
      </trkpt>
      <trkpt lat="42.91783" lon="0.82827">
        <ele>1660</ele>
        <time>2018-12-02T11:01:14.000Z</time>
      </trkpt>
      <trkpt lat="42.91783" lon="0.82825">
        <ele>1660</ele>
        <time>2018-12-02T11:01:16.000Z</time>
      </trkpt>
      <trkpt lat="42.91783" lon="0.82823">
        <ele>1660</ele>
        <time>2018-12-02T11:01:18.000Z</time>
      </trkpt>
      <trkpt lat="42.91782" lon="0.82822">
        <ele>1660</ele>
        <time>2018-12-02T11:01:20.000Z</time>
      </trkpt>
      <trkpt lat="42.91781" lon="0.82821">
        <ele>1660</ele>
        <time>2018-12-02T11:01:22.000Z</time>
      </trkpt>
      <trkpt lat="42.9178" lon="0.8282">
        <ele>1660</ele>
        <time>2018-12-02T11:01:24.000Z</time>
      </trkpt>
      <trkpt lat="42.91779" lon="0.82819">
        <ele>1660</ele>
        <time>2018-12-02T11:01:26.000Z</time>
      </trkpt>
      <trkpt lat="42.91778" lon="0.82819">
        <ele>1660</ele>
        <time>2018-12-02T11:01:28.000Z</time>
      </trkpt>
      <trkpt lat="42.91777" lon="0.82818">
        <ele>1660</ele>
        <time>2018-12-02T11:01:30.000Z</time>
      </trkpt>
      <trkpt lat="42.91776" lon="0.82817">
        <ele>1661</ele>
        <time>2018-12-02T11:01:32.000Z</time>
      </trkpt>
      <trkpt lat="42.91774" lon="0.82817">
        <ele>1661</ele>
        <time>2018-12-02T11:01:34.000Z</time>
      </trkpt>
      <trkpt lat="42.91773" lon="0.82817">
        <ele>1661</ele>
        <time>2018-12-02T11:01:36.000Z</time>
      </trkpt>
      <trkpt lat="42.91771" lon="0.82817">
        <ele>1661</ele>
        <time>2018-12-02T11:01:38.000Z</time>
      </trkpt>
      <trkpt lat="42.9177" lon="0.82817">
        <ele>1661</ele>
        <time>2018-12-02T11:01:40.000Z</time>
      </trkpt>
      <trkpt lat="42.91769" lon="0.82816">
        <ele>1661</ele>
        <time>2018-12-02T11:01:42.000Z</time>
      </trkpt>
      <trkpt lat="42.91767" lon="0.82817">
        <ele>1661</ele>
        <time>2018-12-02T11:01:44.000Z</time>
      </trkpt>
      <trkpt lat="42.91766" lon="0.82817">
        <ele>1661</ele>
        <time>2018-12-02T11:01:46.000Z</time>
      </trkpt>
      <trkpt lat="42.91765" lon="0.82817">
        <ele>1661</ele>
        <time>2018-12-02T11:01:48.000Z</time>
      </trkpt>
      <trkpt lat="42.91763" lon="0.82818">
        <ele>1661</ele>
        <time>2018-12-02T11:01:50.000Z</time>
      </trkpt>
      <trkpt lat="42.91762" lon="0.82818">
        <ele>1661</ele>
        <time>2018-12-02T11:01:52.000Z</time>
      </trkpt>
      <trkpt lat="42.9176" lon="0.82819">
        <ele>1661</ele>
        <time>2018-12-02T11:01:54.000Z</time>
      </trkpt>
      <trkpt lat="42.91759" lon="0.82819">
        <ele>1661</ele>
        <time>2018-12-02T11:01:56.000Z</time>
      </trkpt>
      <trkpt lat="42.91758" lon="0.8282">
        <ele>1661</ele>
        <time>2018-12-02T11:01:58.000Z</time>
      </trkpt>
      <trkpt lat="42.91756" lon="0.82819">
        <ele>1661</ele>
        <time>2018-12-02T11:02:00.000Z</time>
      </trkpt>
      <trkpt lat="42.91755" lon="0.8282">
        <ele>1660</ele>
        <time>2018-12-02T11:02:02.000Z</time>
      </trkpt>
      <trkpt lat="42.91753" lon="0.82821">
        <ele>1660</ele>
        <time>2018-12-02T11:02:04.000Z</time>
      </trkpt>
      <trkpt lat="42.91752" lon="0.82821">
        <ele>1660</ele>
        <time>2018-12-02T11:02:06.000Z</time>
      </trkpt>
      <trkpt lat="42.91751" lon="0.82822">
        <ele>1660</ele>
        <time>2018-12-02T11:02:08.000Z</time>
      </trkpt>
      <trkpt lat="42.9175" lon="0.8282">
        <ele>1660</ele>
        <time>2018-12-02T11:02:10.000Z</time>
      </trkpt>
      <trkpt lat="42.9175" lon="0.82818">
        <ele>1660</ele>
        <time>2018-12-02T11:02:12.000Z</time>
      </trkpt>
      <trkpt lat="42.9175" lon="0.82817">
        <ele>1660</ele>
        <time>2018-12-02T11:02:14.000Z</time>
      </trkpt>
      <trkpt lat="42.91749" lon="0.82815">
        <ele>1660</ele>
        <time>2018-12-02T11:02:16.000Z</time>
      </trkpt>
      <trkpt lat="42.91748" lon="0.82814">
        <ele>1660</ele>
        <time>2018-12-02T11:02:18.000Z</time>
      </trkpt>
      <trkpt lat="42.91747" lon="0.82812">
        <ele>1660</ele>
        <time>2018-12-02T11:02:20.000Z</time>
      </trkpt>
      <trkpt lat="42.91746" lon="0.82811">
        <ele>1660</ele>
        <time>2018-12-02T11:02:22.000Z</time>
      </trkpt>
      <trkpt lat="42.91745" lon="0.8281">
        <ele>1660</ele>
        <time>2018-12-02T11:02:24.000Z</time>
      </trkpt>
      <trkpt lat="42.91744" lon="0.82809">
        <ele>1660</ele>
        <time>2018-12-02T11:02:26.000Z</time>
      </trkpt>
      <trkpt lat="42.91743" lon="0.82807">
        <ele>1660</ele>
        <time>2018-12-02T11:02:28.000Z</time>
      </trkpt>
      <trkpt lat="42.91742" lon="0.82805">
        <ele>1661</ele>
        <time>2018-12-02T11:02:30.000Z</time>
      </trkpt>
      <trkpt lat="42.91742" lon="0.82802">
        <ele>1661</ele>
        <time>2018-12-02T11:02:32.000Z</time>
      </trkpt>
      <trkpt lat="42.91741" lon="0.82801">
        <ele>1661</ele>
        <time>2018-12-02T11:02:34.000Z</time>
      </trkpt>
      <trkpt lat="42.9174" lon="0.82799">
        <ele>1661</ele>
        <time>2018-12-02T11:02:36.000Z</time>
      </trkpt>
      <trkpt lat="42.91739" lon="0.82797">
        <ele>1661</ele>
        <time>2018-12-02T11:02:38.000Z</time>
      </trkpt>
      <trkpt lat="42.91738" lon="0.82796">
        <ele>1661</ele>
        <time>2018-12-02T11:02:40.000Z</time>
      </trkpt>
      <trkpt lat="42.91737" lon="0.82795">
        <ele>1661</ele>
        <time>2018-12-02T11:02:42.000Z</time>
      </trkpt>
      <trkpt lat="42.91736" lon="0.82793">
        <ele>1661</ele>
        <time>2018-12-02T11:02:44.000Z</time>
      </trkpt>
      <trkpt lat="42.91735" lon="0.82792">
        <ele>1662</ele>
        <time>2018-12-02T11:02:46.000Z</time>
      </trkpt>
      <trkpt lat="42.91734" lon="0.82791">
        <ele>1662</ele>
        <time>2018-12-02T11:02:48.000Z</time>
      </trkpt>
      <trkpt lat="42.91732" lon="0.82789">
        <ele>1662</ele>
        <time>2018-12-02T11:02:50.000Z</time>
      </trkpt>
      <trkpt lat="42.91731" lon="0.82788">
        <ele>1662</ele>
        <time>2018-12-02T11:02:52.000Z</time>
      </trkpt>
      <trkpt lat="42.9173" lon="0.82787">
        <ele>1662</ele>
        <time>2018-12-02T11:02:54.000Z</time>
      </trkpt>
      <trkpt lat="42.91729" lon="0.82786">
        <ele>1662</ele>
        <time>2018-12-02T11:02:56.000Z</time>
      </trkpt>
      <trkpt lat="42.91728" lon="0.82785">
        <ele>1662</ele>
        <time>2018-12-02T11:02:58.000Z</time>
      </trkpt>
      <trkpt lat="42.91727" lon="0.82783">
        <ele>1662</ele>
        <time>2018-12-02T11:03:00.000Z</time>
      </trkpt>
      <trkpt lat="42.91725" lon="0.82781">
        <ele>1662</ele>
        <time>2018-12-02T11:03:02.000Z</time>
      </trkpt>
      <trkpt lat="42.91724" lon="0.8278">
        <ele>1662</ele>
        <time>2018-12-02T11:03:04.000Z</time>
      </trkpt>
      <trkpt lat="42.91723" lon="0.82779">
        <ele>1662</ele>
        <time>2018-12-02T11:03:06.000Z</time>
      </trkpt>
      <trkpt lat="42.91722" lon="0.82779">
        <ele>1662</ele>
        <time>2018-12-02T11:03:08.000Z</time>
      </trkpt>
      <trkpt lat="42.91721" lon="0.82778">
        <ele>1662</ele>
        <time>2018-12-02T11:03:10.000Z</time>
      </trkpt>
      <trkpt lat="42.91721" lon="0.82778">
        <ele>1662</ele>
        <time>2018-12-02T11:03:12.000Z</time>
      </trkpt>
      <trkpt lat="42.91721" lon="0.82778">
        <ele>1662</ele>
        <time>2018-12-02T11:03:14.000Z</time>
      </trkpt>
      <trkpt lat="42.91721" lon="0.82778">
        <ele>1662</ele>
        <time>2018-12-02T11:03:16.000Z</time>
      </trkpt>
      <trkpt lat="42.91721" lon="0.82778">
        <ele>1662</ele>
        <time>2018-12-02T11:03:18.000Z</time>
      </trkpt>
      <trkpt lat="42.91721" lon="0.82778">
        <ele>1662</ele>
        <time>2018-12-02T11:03:20.000Z</time>
      </trkpt>
      <trkpt lat="42.91721" lon="0.82778">
        <ele>1662</ele>
        <time>2018-12-02T11:03:22.000Z</time>
      </trkpt>
      <trkpt lat="42.91721" lon="0.82778">
        <ele>1662</ele>
        <time>2018-12-02T11:03:24.000Z</time>
      </trkpt>
      <trkpt lat="42.91721" lon="0.82778">
        <ele>1662</ele>
        <time>2018-12-02T11:03:26.000Z</time>
      </trkpt>
      <trkpt lat="42.91721" lon="0.82778">
        <ele>1662</ele>
        <time>2018-12-02T11:03:28.000Z</time>
      </trkpt>
      <trkpt lat="42.91721" lon="0.82778">
        <ele>1662</ele>
        <time>2018-12-02T11:03:30.000Z</time>
      </trkpt>
      <trkpt lat="42.91721" lon="0.82778">
        <ele>1662</ele>
        <time>2018-12-02T11:03:32.000Z</time>
      </trkpt>
      <trkpt lat="42.91721" lon="0.82778">
        <ele>1662</ele>
        <time>2018-12-02T11:03:34.000Z</time>
      </trkpt>
      <trkpt lat="42.91721" lon="0.82778">
        <ele>1662</ele>
        <time>2018-12-02T11:03:36.000Z</time>
      </trkpt>
      <trkpt lat="42.91721" lon="0.82778">
        <ele>1662</ele>
        <time>2018-12-02T11:03:38.000Z</time>
      </trkpt>
      <trkpt lat="42.91721" lon="0.82778">
        <ele>1662</ele>
        <time>2018-12-02T11:03:40.000Z</time>
      </trkpt>
      <trkpt lat="42.91721" lon="0.82778">
        <ele>1662</ele>
        <time>2018-12-02T11:03:42.000Z</time>
      </trkpt>
      <trkpt lat="42.91721" lon="0.82778">
        <ele>1662</ele>
        <time>2018-12-02T11:03:44.000Z</time>
      </trkpt>
      <trkpt lat="42.91721" lon="0.82778">
        <ele>1662</ele>
        <time>2018-12-02T11:03:46.000Z</time>
      </trkpt>
      <trkpt lat="42.91721" lon="0.82778">
        <ele>1662</ele>
        <time>2018-12-02T11:03:48.000Z</time>
      </trkpt>
      <trkpt lat="42.91721" lon="0.82778">
        <ele>1662</ele>
        <time>2018-12-02T11:03:50.000Z</time>
      </trkpt>
      <trkpt lat="42.91721" lon="0.82778">
        <ele>1662</ele>
        <time>2018-12-02T11:03:52.000Z</time>
      </trkpt>
      <trkpt lat="42.91721" lon="0.82778">
        <ele>1662</ele>
        <time>2018-12-02T11:03:54.000Z</time>
      </trkpt>
      <trkpt lat="42.91721" lon="0.82778">
        <ele>1662</ele>
        <time>2018-12-02T11:03:56.000Z</time>
      </trkpt>
      <trkpt lat="42.91721" lon="0.82778">
        <ele>1662</ele>
        <time>2018-12-02T11:03:58.000Z</time>
      </trkpt>
      <trkpt lat="42.91721" lon="0.82778">
        <ele>1662</ele>
        <time>2018-12-02T11:04:00.000Z</time>
      </trkpt>
      <trkpt lat="42.91721" lon="0.82779">
        <ele>1662</ele>
        <time>2018-12-02T11:04:02.000Z</time>
      </trkpt>
      <trkpt lat="42.91721" lon="0.82779">
        <ele>1662</ele>
        <time>2018-12-02T11:04:04.000Z</time>
      </trkpt>
      <trkpt lat="42.91721" lon="0.82779">
        <ele>1662</ele>
        <time>2018-12-02T11:04:06.000Z</time>
      </trkpt>
      <trkpt lat="42.91722" lon="0.82779">
        <ele>1662</ele>
        <time>2018-12-02T11:04:08.000Z</time>
      </trkpt>
      <trkpt lat="42.91723" lon="0.82779">
        <ele>1662</ele>
        <time>2018-12-02T11:04:10.000Z</time>
      </trkpt>
      <trkpt lat="42.91723" lon="0.82779">
        <ele>1662</ele>
        <time>2018-12-02T11:04:12.000Z</time>
      </trkpt>
      <trkpt lat="42.91723" lon="0.82779">
        <ele>1662</ele>
        <time>2018-12-02T11:04:14.000Z</time>
      </trkpt>
      <trkpt lat="42.91723" lon="0.82779">
        <ele>1662</ele>
        <time>2018-12-02T11:04:16.000Z</time>
      </trkpt>
      <trkpt lat="42.91723" lon="0.8278">
        <ele>1662</ele>
        <time>2018-12-02T11:04:18.000Z</time>
      </trkpt>
      <trkpt lat="42.91723" lon="0.8278">
        <ele>1662</ele>
        <time>2018-12-02T11:04:20.000Z</time>
      </trkpt>
      <trkpt lat="42.91723" lon="0.8278">
        <ele>1662</ele>
        <time>2018-12-02T11:04:22.000Z</time>
      </trkpt>
      <trkpt lat="42.91723" lon="0.8278">
        <ele>1662</ele>
        <time>2018-12-02T11:04:24.000Z</time>
      </trkpt>
      <trkpt lat="42.91723" lon="0.8278">
        <ele>1662</ele>
        <time>2018-12-02T11:04:26.000Z</time>
      </trkpt>
      <trkpt lat="42.91723" lon="0.82781">
        <ele>1662</ele>
        <time>2018-12-02T11:04:28.000Z</time>
      </trkpt>
      <trkpt lat="42.91723" lon="0.82781">
        <ele>1662</ele>
        <time>2018-12-02T11:04:30.000Z</time>
      </trkpt>
      <trkpt lat="42.91723" lon="0.8278">
        <ele>1662</ele>
        <time>2018-12-02T11:04:32.000Z</time>
      </trkpt>
      <trkpt lat="42.91723" lon="0.8278">
        <ele>1662</ele>
        <time>2018-12-02T11:04:34.000Z</time>
      </trkpt>
      <trkpt lat="42.91723" lon="0.82781">
        <ele>1662</ele>
        <time>2018-12-02T11:04:36.000Z</time>
      </trkpt>
      <trkpt lat="42.91723" lon="0.82781">
        <ele>1662</ele>
        <time>2018-12-02T11:04:38.000Z</time>
      </trkpt>
      <trkpt lat="42.91723" lon="0.82781">
        <ele>1662</ele>
        <time>2018-12-02T11:04:40.000Z</time>
      </trkpt>
      <trkpt lat="42.91722" lon="0.82781">
        <ele>1662</ele>
        <time>2018-12-02T11:04:42.000Z</time>
      </trkpt>
      <trkpt lat="42.91722" lon="0.82781">
        <ele>1662</ele>
        <time>2018-12-02T11:04:44.000Z</time>
      </trkpt>
      <trkpt lat="42.91723" lon="0.8278">
        <ele>1662</ele>
        <time>2018-12-02T11:04:46.000Z</time>
      </trkpt>
      <trkpt lat="42.91723" lon="0.8278">
        <ele>1662</ele>
        <time>2018-12-02T11:04:48.000Z</time>
      </trkpt>
      <trkpt lat="42.91722" lon="0.8278">
        <ele>1662</ele>
        <time>2018-12-02T11:04:50.000Z</time>
      </trkpt>
      <trkpt lat="42.91722" lon="0.82779">
        <ele>1662</ele>
        <time>2018-12-02T11:04:52.000Z</time>
      </trkpt>
      <trkpt lat="42.91722" lon="0.82778">
        <ele>1662</ele>
        <time>2018-12-02T11:04:54.000Z</time>
      </trkpt>
      <trkpt lat="42.91722" lon="0.82777">
        <ele>1662</ele>
        <time>2018-12-02T11:04:56.000Z</time>
      </trkpt>
      <trkpt lat="42.91722" lon="0.82776">
        <ele>1662</ele>
        <time>2018-12-02T11:04:58.000Z</time>
      </trkpt>
      <trkpt lat="42.91722" lon="0.82776">
        <ele>1662</ele>
        <time>2018-12-02T11:05:00.000Z</time>
      </trkpt>
      <trkpt lat="42.91722" lon="0.82776">
        <ele>1662</ele>
        <time>2018-12-02T11:05:02.000Z</time>
      </trkpt>
      <trkpt lat="42.91722" lon="0.82776">
        <ele>1662</ele>
        <time>2018-12-02T11:05:04.000Z</time>
      </trkpt>
      <trkpt lat="42.91722" lon="0.82776">
        <ele>1662</ele>
        <time>2018-12-02T11:05:06.000Z</time>
      </trkpt>
      <trkpt lat="42.91722" lon="0.82776">
        <ele>1662</ele>
        <time>2018-12-02T11:05:08.000Z</time>
      </trkpt>
      <trkpt lat="42.91722" lon="0.82776">
        <ele>1662</ele>
        <time>2018-12-02T11:05:10.000Z</time>
      </trkpt>
      <trkpt lat="42.91722" lon="0.82776">
        <ele>1662</ele>
        <time>2018-12-02T11:05:12.000Z</time>
      </trkpt>
      <trkpt lat="42.91722" lon="0.82776">
        <ele>1662</ele>
        <time>2018-12-02T11:05:14.000Z</time>
      </trkpt>
      <trkpt lat="42.91722" lon="0.82776">
        <ele>1662</ele>
        <time>2018-12-02T11:05:16.000Z</time>
      </trkpt>
      <trkpt lat="42.91722" lon="0.82776">
        <ele>1662</ele>
        <time>2018-12-02T11:05:18.000Z</time>
      </trkpt>
      <trkpt lat="42.91722" lon="0.82776">
        <ele>1662</ele>
        <time>2018-12-02T11:05:20.000Z</time>
      </trkpt>
      <trkpt lat="42.91722" lon="0.82776">
        <ele>1662</ele>
        <time>2018-12-02T11:05:22.000Z</time>
      </trkpt>
      <trkpt lat="42.91722" lon="0.82776">
        <ele>1662</ele>
        <time>2018-12-02T11:05:24.000Z</time>
      </trkpt>
      <trkpt lat="42.91722" lon="0.82777">
        <ele>1662</ele>
        <time>2018-12-02T11:05:26.000Z</time>
      </trkpt>
      <trkpt lat="42.91722" lon="0.82777">
        <ele>1662</ele>
        <time>2018-12-02T11:05:28.000Z</time>
      </trkpt>
      <trkpt lat="42.91722" lon="0.82777">
        <ele>1662</ele>
        <time>2018-12-02T11:05:30.000Z</time>
      </trkpt>
      <trkpt lat="42.91722" lon="0.82777">
        <ele>1662</ele>
        <time>2018-12-02T11:05:32.000Z</time>
      </trkpt>
      <trkpt lat="42.91722" lon="0.82777">
        <ele>1662</ele>
        <time>2018-12-02T11:05:34.000Z</time>
      </trkpt>
      <trkpt lat="42.91722" lon="0.82777">
        <ele>1662</ele>
        <time>2018-12-02T11:05:36.000Z</time>
      </trkpt>
      <trkpt lat="42.91722" lon="0.82777">
        <ele>1662</ele>
        <time>2018-12-02T11:05:38.000Z</time>
      </trkpt>
      <trkpt lat="42.91722" lon="0.82777">
        <ele>1662</ele>
        <time>2018-12-02T11:05:40.000Z</time>
      </trkpt>
      <trkpt lat="42.91722" lon="0.82777">
        <ele>1662</ele>
        <time>2018-12-02T11:05:42.000Z</time>
      </trkpt>
      <trkpt lat="42.91722" lon="0.82777">
        <ele>1662</ele>
        <time>2018-12-02T11:05:44.000Z</time>
      </trkpt>
      <trkpt lat="42.91722" lon="0.82777">
        <ele>1662</ele>
        <time>2018-12-02T11:05:46.000Z</time>
      </trkpt>
      <trkpt lat="42.91721" lon="0.82777">
        <ele>1662</ele>
        <time>2018-12-02T11:05:48.000Z</time>
      </trkpt>
      <trkpt lat="42.91721" lon="0.82777">
        <ele>1662</ele>
        <time>2018-12-02T11:05:50.000Z</time>
      </trkpt>
      <trkpt lat="42.91721" lon="0.82777">
        <ele>1662</ele>
        <time>2018-12-02T11:05:52.000Z</time>
      </trkpt>
      <trkpt lat="42.91721" lon="0.82777">
        <ele>1662</ele>
        <time>2018-12-02T11:05:54.000Z</time>
      </trkpt>
      <trkpt lat="42.91721" lon="0.82777">
        <ele>1662</ele>
        <time>2018-12-02T11:05:56.000Z</time>
      </trkpt>
      <trkpt lat="42.91721" lon="0.82777">
        <ele>1662</ele>
        <time>2018-12-02T11:05:58.000Z</time>
      </trkpt>
      <trkpt lat="42.91721" lon="0.82776">
        <ele>1662</ele>
        <time>2018-12-02T11:06:01.000Z</time>
      </trkpt>
      <trkpt lat="42.91721" lon="0.82776">
        <ele>1662</ele>
        <time>2018-12-02T11:06:03.000Z</time>
      </trkpt>
      <trkpt lat="42.91721" lon="0.82776">
        <ele>1662</ele>
        <time>2018-12-02T11:06:05.000Z</time>
      </trkpt>
      <trkpt lat="42.91721" lon="0.82776">
        <ele>1662</ele>
        <time>2018-12-02T11:06:07.000Z</time>
      </trkpt>
      <trkpt lat="42.91721" lon="0.82776">
        <ele>1662</ele>
        <time>2018-12-02T11:06:09.000Z</time>
      </trkpt>
      <trkpt lat="42.91721" lon="0.82776">
        <ele>1662</ele>
        <time>2018-12-02T11:06:11.000Z</time>
      </trkpt>
      <trkpt lat="42.91721" lon="0.82776">
        <ele>1662</ele>
        <time>2018-12-02T11:06:13.000Z</time>
      </trkpt>
      <trkpt lat="42.91721" lon="0.82776">
        <ele>1662</ele>
        <time>2018-12-02T11:06:15.000Z</time>
      </trkpt>
      <trkpt lat="42.91721" lon="0.82776">
        <ele>1662</ele>
        <time>2018-12-02T11:06:17.000Z</time>
      </trkpt>
      <trkpt lat="42.91721" lon="0.82776">
        <ele>1662</ele>
        <time>2018-12-02T11:06:19.000Z</time>
      </trkpt>
      <trkpt lat="42.91721" lon="0.82776">
        <ele>1662</ele>
        <time>2018-12-02T11:06:21.000Z</time>
      </trkpt>
      <trkpt lat="42.91721" lon="0.82776">
        <ele>1662</ele>
        <time>2018-12-02T11:06:23.000Z</time>
      </trkpt>
      <trkpt lat="42.91721" lon="0.82776">
        <ele>1662</ele>
        <time>2018-12-02T11:06:25.000Z</time>
      </trkpt>
      <trkpt lat="42.91721" lon="0.82776">
        <ele>1662</ele>
        <time>2018-12-02T11:06:27.000Z</time>
      </trkpt>
      <trkpt lat="42.91721" lon="0.82776">
        <ele>1662</ele>
        <time>2018-12-02T11:06:29.000Z</time>
      </trkpt>
      <trkpt lat="42.91722" lon="0.82776">
        <ele>1662</ele>
        <time>2018-12-02T11:06:31.000Z</time>
      </trkpt>
      <trkpt lat="42.91722" lon="0.82776">
        <ele>1662</ele>
        <time>2018-12-02T11:06:33.000Z</time>
      </trkpt>
      <trkpt lat="42.91722" lon="0.82775">
        <ele>1663</ele>
        <time>2018-12-02T11:06:35.000Z</time>
      </trkpt>
      <trkpt lat="42.91722" lon="0.82776">
        <ele>1663</ele>
        <time>2018-12-02T11:06:37.000Z</time>
      </trkpt>
      <trkpt lat="42.91722" lon="0.82775">
        <ele>1663</ele>
        <time>2018-12-02T11:06:39.000Z</time>
      </trkpt>
      <trkpt lat="42.91722" lon="0.82775">
        <ele>1663</ele>
        <time>2018-12-02T11:06:41.000Z</time>
      </trkpt>
      <trkpt lat="42.91722" lon="0.82775">
        <ele>1663</ele>
        <time>2018-12-02T11:06:43.000Z</time>
      </trkpt>
      <trkpt lat="42.91722" lon="0.82775">
        <ele>1663</ele>
        <time>2018-12-02T11:06:45.000Z</time>
      </trkpt>
      <trkpt lat="42.91723" lon="0.82775">
        <ele>1663</ele>
        <time>2018-12-02T11:06:47.000Z</time>
      </trkpt>
      <trkpt lat="42.91723" lon="0.82775">
        <ele>1663</ele>
        <time>2018-12-02T11:06:49.000Z</time>
      </trkpt>
      <trkpt lat="42.91723" lon="0.82775">
        <ele>1663</ele>
        <time>2018-12-02T11:06:51.000Z</time>
      </trkpt>
      <trkpt lat="42.91723" lon="0.82775">
        <ele>1663</ele>
        <time>2018-12-02T11:06:53.000Z</time>
      </trkpt>
      <trkpt lat="42.91723" lon="0.82776">
        <ele>1663</ele>
        <time>2018-12-02T11:06:55.000Z</time>
      </trkpt>
      <trkpt lat="42.91723" lon="0.82776">
        <ele>1663</ele>
        <time>2018-12-02T11:06:57.000Z</time>
      </trkpt>
      <trkpt lat="42.91723" lon="0.82776">
        <ele>1663</ele>
        <time>2018-12-02T11:06:59.000Z</time>
      </trkpt>
      <trkpt lat="42.91722" lon="0.82776">
        <ele>1663</ele>
        <time>2018-12-02T11:07:01.000Z</time>
      </trkpt>
      <trkpt lat="42.91722" lon="0.82776">
        <ele>1663</ele>
        <time>2018-12-02T11:07:03.000Z</time>
      </trkpt>
      <trkpt lat="42.91722" lon="0.82776">
        <ele>1663</ele>
        <time>2018-12-02T11:07:05.000Z</time>
      </trkpt>
      <trkpt lat="42.91722" lon="0.82776">
        <ele>1663</ele>
        <time>2018-12-02T11:07:07.000Z</time>
      </trkpt>
      <trkpt lat="42.91723" lon="0.82776">
        <ele>1663</ele>
        <time>2018-12-02T11:07:09.000Z</time>
      </trkpt>
      <trkpt lat="42.91723" lon="0.82776">
        <ele>1663</ele>
        <time>2018-12-02T11:07:11.000Z</time>
      </trkpt>
      <trkpt lat="42.91723" lon="0.82776">
        <ele>1663</ele>
        <time>2018-12-02T11:07:13.000Z</time>
      </trkpt>
      <trkpt lat="42.91723" lon="0.82776">
        <ele>1663</ele>
        <time>2018-12-02T11:07:15.000Z</time>
      </trkpt>
      <trkpt lat="42.91723" lon="0.82776">
        <ele>1663</ele>
        <time>2018-12-02T11:07:17.000Z</time>
      </trkpt>
      <trkpt lat="42.91723" lon="0.82775">
        <ele>1663</ele>
        <time>2018-12-02T11:07:19.000Z</time>
      </trkpt>
      <trkpt lat="42.91723" lon="0.82775">
        <ele>1663</ele>
        <time>2018-12-02T11:07:21.000Z</time>
      </trkpt>
      <trkpt lat="42.91723" lon="0.82775">
        <ele>1663</ele>
        <time>2018-12-02T11:07:23.000Z</time>
      </trkpt>
      <trkpt lat="42.91722" lon="0.82775">
        <ele>1663</ele>
        <time>2018-12-02T11:07:25.000Z</time>
      </trkpt>
      <trkpt lat="42.91722" lon="0.82775">
        <ele>1663</ele>
        <time>2018-12-02T11:07:27.000Z</time>
      </trkpt>
      <trkpt lat="42.91722" lon="0.82775">
        <ele>1663</ele>
        <time>2018-12-02T11:07:29.000Z</time>
      </trkpt>
      <trkpt lat="42.91722" lon="0.82775">
        <ele>1663</ele>
        <time>2018-12-02T11:07:31.000Z</time>
      </trkpt>
      <trkpt lat="42.91723" lon="0.82775">
        <ele>1663</ele>
        <time>2018-12-02T11:07:33.000Z</time>
      </trkpt>
      <trkpt lat="42.91723" lon="0.82774">
        <ele>1663</ele>
        <time>2018-12-02T11:07:35.000Z</time>
      </trkpt>
      <trkpt lat="42.91723" lon="0.82774">
        <ele>1663</ele>
        <time>2018-12-02T11:07:37.000Z</time>
      </trkpt>
      <trkpt lat="42.91723" lon="0.82774">
        <ele>1663</ele>
        <time>2018-12-02T11:07:39.000Z</time>
      </trkpt>
      <trkpt lat="42.91723" lon="0.82774">
        <ele>1663</ele>
        <time>2018-12-02T11:07:41.000Z</time>
      </trkpt>
      <trkpt lat="42.91723" lon="0.82774">
        <ele>1663</ele>
        <time>2018-12-02T11:07:43.000Z</time>
      </trkpt>
      <trkpt lat="42.91723" lon="0.82774">
        <ele>1663</ele>
        <time>2018-12-02T11:07:45.000Z</time>
      </trkpt>
      <trkpt lat="42.91722" lon="0.82774">
        <ele>1663</ele>
        <time>2018-12-02T11:07:47.000Z</time>
      </trkpt>
      <trkpt lat="42.91722" lon="0.82774">
        <ele>1663</ele>
        <time>2018-12-02T11:07:49.000Z</time>
      </trkpt>
      <trkpt lat="42.91722" lon="0.82774">
        <ele>1663</ele>
        <time>2018-12-02T11:07:51.000Z</time>
      </trkpt>
      <trkpt lat="42.91722" lon="0.82775">
        <ele>1663</ele>
        <time>2018-12-02T11:07:53.000Z</time>
      </trkpt>
      <trkpt lat="42.91722" lon="0.82775">
        <ele>1663</ele>
        <time>2018-12-02T11:07:55.000Z</time>
      </trkpt>
      <trkpt lat="42.91722" lon="0.82775">
        <ele>1663</ele>
        <time>2018-12-02T11:07:57.000Z</time>
      </trkpt>
      <trkpt lat="42.91722" lon="0.82775">
        <ele>1663</ele>
        <time>2018-12-02T11:07:59.000Z</time>
      </trkpt>
      <trkpt lat="42.91722" lon="0.82775">
        <ele>1663</ele>
        <time>2018-12-02T11:08:01.000Z</time>
      </trkpt>
      <trkpt lat="42.91722" lon="0.82775">
        <ele>1663</ele>
        <time>2018-12-02T11:08:03.000Z</time>
      </trkpt>
      <trkpt lat="42.91722" lon="0.82775">
        <ele>1663</ele>
        <time>2018-12-02T11:08:05.000Z</time>
      </trkpt>
      <trkpt lat="42.91722" lon="0.82776">
        <ele>1663</ele>
        <time>2018-12-02T11:08:07.000Z</time>
      </trkpt>
      <trkpt lat="42.91722" lon="0.82776">
        <ele>1662</ele>
        <time>2018-12-02T11:08:09.000Z</time>
      </trkpt>
      <trkpt lat="42.91722" lon="0.82776">
        <ele>1662</ele>
        <time>2018-12-02T11:08:11.000Z</time>
      </trkpt>
      <trkpt lat="42.91721" lon="0.82776">
        <ele>1662</ele>
        <time>2018-12-02T11:08:13.000Z</time>
      </trkpt>
      <trkpt lat="42.91721" lon="0.82776">
        <ele>1662</ele>
        <time>2018-12-02T11:08:15.000Z</time>
      </trkpt>
      <trkpt lat="42.91721" lon="0.82776">
        <ele>1662</ele>
        <time>2018-12-02T11:08:17.000Z</time>
      </trkpt>
      <trkpt lat="42.91721" lon="0.82776">
        <ele>1662</ele>
        <time>2018-12-02T11:08:19.000Z</time>
      </trkpt>
      <trkpt lat="42.91721" lon="0.82775">
        <ele>1662</ele>
        <time>2018-12-02T11:08:21.000Z</time>
      </trkpt>
      <trkpt lat="42.91721" lon="0.82775">
        <ele>1662</ele>
        <time>2018-12-02T11:08:23.000Z</time>
      </trkpt>
      <trkpt lat="42.91721" lon="0.82775">
        <ele>1662</ele>
        <time>2018-12-02T11:08:25.000Z</time>
      </trkpt>
      <trkpt lat="42.91721" lon="0.82776">
        <ele>1662</ele>
        <time>2018-12-02T11:08:27.000Z</time>
      </trkpt>
      <trkpt lat="42.91721" lon="0.82776">
        <ele>1662</ele>
        <time>2018-12-02T11:08:29.000Z</time>
      </trkpt>
      <trkpt lat="42.91721" lon="0.82776">
        <ele>1662</ele>
        <time>2018-12-02T11:08:31.000Z</time>
      </trkpt>
      <trkpt lat="42.91721" lon="0.82776">
        <ele>1662</ele>
        <time>2018-12-02T11:08:33.000Z</time>
      </trkpt>
      <trkpt lat="42.91721" lon="0.82776">
        <ele>1662</ele>
        <time>2018-12-02T11:08:35.000Z</time>
      </trkpt>
      <trkpt lat="42.91721" lon="0.82776">
        <ele>1662</ele>
        <time>2018-12-02T11:08:37.000Z</time>
      </trkpt>
      <trkpt lat="42.91722" lon="0.82776">
        <ele>1662</ele>
        <time>2018-12-02T11:08:39.000Z</time>
      </trkpt>
      <trkpt lat="42.91721" lon="0.82776">
        <ele>1662</ele>
        <time>2018-12-02T11:08:41.000Z</time>
      </trkpt>
      <trkpt lat="42.91721" lon="0.82776">
        <ele>1662</ele>
        <time>2018-12-02T11:08:43.000Z</time>
      </trkpt>
      <trkpt lat="42.91721" lon="0.82777">
        <ele>1662</ele>
        <time>2018-12-02T11:08:45.000Z</time>
      </trkpt>
      <trkpt lat="42.91721" lon="0.82777">
        <ele>1662</ele>
        <time>2018-12-02T11:08:47.000Z</time>
      </trkpt>
      <trkpt lat="42.91722" lon="0.82777">
        <ele>1662</ele>
        <time>2018-12-02T11:08:49.000Z</time>
      </trkpt>
      <trkpt lat="42.91722" lon="0.82777">
        <ele>1662</ele>
        <time>2018-12-02T11:08:51.000Z</time>
      </trkpt>
      <trkpt lat="42.91722" lon="0.82777">
        <ele>1662</ele>
        <time>2018-12-02T11:08:53.000Z</time>
      </trkpt>
      <trkpt lat="42.91722" lon="0.82777">
        <ele>1662</ele>
        <time>2018-12-02T11:08:55.000Z</time>
      </trkpt>
      <trkpt lat="42.91722" lon="0.82777">
        <ele>1662</ele>
        <time>2018-12-02T11:08:57.000Z</time>
      </trkpt>
      <trkpt lat="42.91722" lon="0.82777">
        <ele>1662</ele>
        <time>2018-12-02T11:08:59.000Z</time>
      </trkpt>
      <trkpt lat="42.91722" lon="0.82777">
        <ele>1662</ele>
        <time>2018-12-02T11:09:01.000Z</time>
      </trkpt>
      <trkpt lat="42.91722" lon="0.82777">
        <ele>1662</ele>
        <time>2018-12-02T11:09:03.000Z</time>
      </trkpt>
      <trkpt lat="42.91722" lon="0.82777">
        <ele>1662</ele>
        <time>2018-12-02T11:09:05.000Z</time>
      </trkpt>
      <trkpt lat="42.91722" lon="0.82777">
        <ele>1662</ele>
        <time>2018-12-02T11:09:07.000Z</time>
      </trkpt>
      <trkpt lat="42.91722" lon="0.82777">
        <ele>1662</ele>
        <time>2018-12-02T11:09:09.000Z</time>
      </trkpt>
      <trkpt lat="42.91722" lon="0.82777">
        <ele>1662</ele>
        <time>2018-12-02T11:09:11.000Z</time>
      </trkpt>
      <trkpt lat="42.91722" lon="0.82776">
        <ele>1662</ele>
        <time>2018-12-02T11:09:13.000Z</time>
      </trkpt>
      <trkpt lat="42.91723" lon="0.82776">
        <ele>1662</ele>
        <time>2018-12-02T11:09:15.000Z</time>
      </trkpt>
      <trkpt lat="42.91723" lon="0.82777">
        <ele>1662</ele>
        <time>2018-12-02T11:09:17.000Z</time>
      </trkpt>
      <trkpt lat="42.91722" lon="0.82777">
        <ele>1662</ele>
        <time>2018-12-02T11:09:19.000Z</time>
      </trkpt>
      <trkpt lat="42.91722" lon="0.82777">
        <ele>1662</ele>
        <time>2018-12-02T11:09:21.000Z</time>
      </trkpt>
      <trkpt lat="42.91722" lon="0.82777">
        <ele>1662</ele>
        <time>2018-12-02T11:09:23.000Z</time>
      </trkpt>
      <trkpt lat="42.91723" lon="0.82777">
        <ele>1662</ele>
        <time>2018-12-02T11:09:25.000Z</time>
      </trkpt>
      <trkpt lat="42.91723" lon="0.82777">
        <ele>1662</ele>
        <time>2018-12-02T11:09:27.000Z</time>
      </trkpt>
      <trkpt lat="42.91723" lon="0.82777">
        <ele>1662</ele>
        <time>2018-12-02T11:09:29.000Z</time>
      </trkpt>
      <trkpt lat="42.91723" lon="0.82777">
        <ele>1662</ele>
        <time>2018-12-02T11:09:31.000Z</time>
      </trkpt>
      <trkpt lat="42.91723" lon="0.82777">
        <ele>1663</ele>
        <time>2018-12-02T11:09:33.000Z</time>
      </trkpt>
      <trkpt lat="42.91723" lon="0.82777">
        <ele>1663</ele>
        <time>2018-12-02T11:09:35.000Z</time>
      </trkpt>
      <trkpt lat="42.91724" lon="0.82777">
        <ele>1663</ele>
        <time>2018-12-02T11:09:37.000Z</time>
      </trkpt>
      <trkpt lat="42.91724" lon="0.82777">
        <ele>1663</ele>
        <time>2018-12-02T11:09:39.000Z</time>
      </trkpt>
      <trkpt lat="42.91724" lon="0.82777">
        <ele>1663</ele>
        <time>2018-12-02T11:09:41.000Z</time>
      </trkpt>
      <trkpt lat="42.91723" lon="0.82777">
        <ele>1662</ele>
        <time>2018-12-02T11:09:43.000Z</time>
      </trkpt>
      <trkpt lat="42.91723" lon="0.82777">
        <ele>1662</ele>
        <time>2018-12-02T11:09:45.000Z</time>
      </trkpt>
      <trkpt lat="42.91723" lon="0.82777">
        <ele>1662</ele>
        <time>2018-12-02T11:09:47.000Z</time>
      </trkpt>
      <trkpt lat="42.91723" lon="0.82777">
        <ele>1662</ele>
        <time>2018-12-02T11:09:49.000Z</time>
      </trkpt>
      <trkpt lat="42.91723" lon="0.82777">
        <ele>1662</ele>
        <time>2018-12-02T11:09:51.000Z</time>
      </trkpt>
      <trkpt lat="42.91723" lon="0.82777">
        <ele>1662</ele>
        <time>2018-12-02T11:09:53.000Z</time>
      </trkpt>
      <trkpt lat="42.91723" lon="0.82777">
        <ele>1662</ele>
        <time>2018-12-02T11:09:55.000Z</time>
      </trkpt>
      <trkpt lat="42.91723" lon="0.82776">
        <ele>1663</ele>
        <time>2018-12-02T11:09:57.000Z</time>
      </trkpt>
      <trkpt lat="42.91723" lon="0.82776">
        <ele>1663</ele>
        <time>2018-12-02T11:09:59.000Z</time>
      </trkpt>
      <trkpt lat="42.91723" lon="0.82776">
        <ele>1663</ele>
        <time>2018-12-02T11:10:02.000Z</time>
      </trkpt>
      <trkpt lat="42.91724" lon="0.82775">
        <ele>1663</ele>
        <time>2018-12-02T11:10:04.000Z</time>
      </trkpt>
      <trkpt lat="42.91724" lon="0.82775">
        <ele>1663</ele>
        <time>2018-12-02T11:10:06.000Z</time>
      </trkpt>
      <trkpt lat="42.91724" lon="0.82775">
        <ele>1663</ele>
        <time>2018-12-02T11:10:08.000Z</time>
      </trkpt>
      <trkpt lat="42.91724" lon="0.82775">
        <ele>1663</ele>
        <time>2018-12-02T11:10:10.000Z</time>
      </trkpt>
      <trkpt lat="42.91724" lon="0.82775">
        <ele>1663</ele>
        <time>2018-12-02T11:10:12.000Z</time>
      </trkpt>
      <trkpt lat="42.91724" lon="0.82775">
        <ele>1663</ele>
        <time>2018-12-02T11:10:14.000Z</time>
      </trkpt>
      <trkpt lat="42.91723" lon="0.82775">
        <ele>1663</ele>
        <time>2018-12-02T11:10:17.000Z</time>
      </trkpt>
      <trkpt lat="42.91723" lon="0.82775">
        <ele>1663</ele>
        <time>2018-12-02T11:10:19.000Z</time>
      </trkpt>
      <trkpt lat="42.91723" lon="0.82775">
        <ele>1663</ele>
        <time>2018-12-02T11:10:21.000Z</time>
      </trkpt>
      <trkpt lat="42.91723" lon="0.82775">
        <ele>1663</ele>
        <time>2018-12-02T11:10:23.000Z</time>
      </trkpt>
      <trkpt lat="42.91723" lon="0.82775">
        <ele>1663</ele>
        <time>2018-12-02T11:10:25.000Z</time>
      </trkpt>
      <trkpt lat="42.91723" lon="0.82775">
        <ele>1663</ele>
        <time>2018-12-02T11:10:27.000Z</time>
      </trkpt>
      <trkpt lat="42.91723" lon="0.82775">
        <ele>1663</ele>
        <time>2018-12-02T11:10:29.000Z</time>
      </trkpt>
      <trkpt lat="42.91723" lon="0.82775">
        <ele>1663</ele>
        <time>2018-12-02T11:10:31.000Z</time>
      </trkpt>
      <trkpt lat="42.91723" lon="0.82775">
        <ele>1663</ele>
        <time>2018-12-02T11:10:33.000Z</time>
      </trkpt>
      <trkpt lat="42.91723" lon="0.82775">
        <ele>1663</ele>
        <time>2018-12-02T11:10:35.000Z</time>
      </trkpt>
      <trkpt lat="42.91723" lon="0.82775">
        <ele>1663</ele>
        <time>2018-12-02T11:10:37.000Z</time>
      </trkpt>
      <trkpt lat="42.91723" lon="0.82775">
        <ele>1663</ele>
        <time>2018-12-02T11:10:39.000Z</time>
      </trkpt>
      <trkpt lat="42.91723" lon="0.82775">
        <ele>1663</ele>
        <time>2018-12-02T11:10:41.000Z</time>
      </trkpt>
      <trkpt lat="42.91723" lon="0.82776">
        <ele>1663</ele>
        <time>2018-12-02T11:10:44.000Z</time>
      </trkpt>
      <trkpt lat="42.91723" lon="0.82776">
        <ele>1663</ele>
        <time>2018-12-02T11:10:46.000Z</time>
      </trkpt>
      <trkpt lat="42.91723" lon="0.82776">
        <ele>1663</ele>
        <time>2018-12-02T11:10:48.000Z</time>
      </trkpt>
      <trkpt lat="42.91723" lon="0.82776">
        <ele>1663</ele>
        <time>2018-12-02T11:10:50.000Z</time>
      </trkpt>
      <trkpt lat="42.91723" lon="0.82776">
        <ele>1663</ele>
        <time>2018-12-02T11:10:52.000Z</time>
      </trkpt>
      <trkpt lat="42.91723" lon="0.82776">
        <ele>1663</ele>
        <time>2018-12-02T11:10:54.000Z</time>
      </trkpt>
      <trkpt lat="42.91723" lon="0.82776">
        <ele>1663</ele>
        <time>2018-12-02T11:10:56.000Z</time>
      </trkpt>
      <trkpt lat="42.91722" lon="0.82776">
        <ele>1663</ele>
        <time>2018-12-02T11:10:58.000Z</time>
      </trkpt>
      <trkpt lat="42.91722" lon="0.82776">
        <ele>1662</ele>
        <time>2018-12-02T11:11:00.000Z</time>
      </trkpt>
      <trkpt lat="42.91722" lon="0.82776">
        <ele>1662</ele>
        <time>2018-12-02T11:11:02.000Z</time>
      </trkpt>
      <trkpt lat="42.91723" lon="0.82776">
        <ele>1662</ele>
        <time>2018-12-02T11:11:05.000Z</time>
      </trkpt>
      <trkpt lat="42.91722" lon="0.82776">
        <ele>1662</ele>
        <time>2018-12-02T11:11:07.000Z</time>
      </trkpt>
      <trkpt lat="42.91722" lon="0.82776">
        <ele>1662</ele>
        <time>2018-12-02T11:11:09.000Z</time>
      </trkpt>
      <trkpt lat="42.91723" lon="0.82777">
        <ele>1662</ele>
        <time>2018-12-02T11:11:11.000Z</time>
      </trkpt>
      <trkpt lat="42.91723" lon="0.82777">
        <ele>1662</ele>
        <time>2018-12-02T11:11:13.000Z</time>
      </trkpt>
      <trkpt lat="42.91723" lon="0.82777">
        <ele>1662</ele>
        <time>2018-12-02T11:11:15.000Z</time>
      </trkpt>
      <trkpt lat="42.91723" lon="0.82777">
        <ele>1662</ele>
        <time>2018-12-02T11:11:17.000Z</time>
      </trkpt>
      <trkpt lat="42.91723" lon="0.82777">
        <ele>1662</ele>
        <time>2018-12-02T11:11:19.000Z</time>
      </trkpt>
      <trkpt lat="42.91723" lon="0.82777">
        <ele>1662</ele>
        <time>2018-12-02T11:11:21.000Z</time>
      </trkpt>
      <trkpt lat="42.91723" lon="0.82777">
        <ele>1662</ele>
        <time>2018-12-02T11:11:23.000Z</time>
      </trkpt>
      <trkpt lat="42.91723" lon="0.82777">
        <ele>1662</ele>
        <time>2018-12-02T11:11:25.000Z</time>
      </trkpt>
      <trkpt lat="42.91723" lon="0.82776">
        <ele>1662</ele>
        <time>2018-12-02T11:11:27.000Z</time>
      </trkpt>
      <trkpt lat="42.91723" lon="0.82776">
        <ele>1663</ele>
        <time>2018-12-02T11:11:29.000Z</time>
      </trkpt>
      <trkpt lat="42.91723" lon="0.82776">
        <ele>1663</ele>
        <time>2018-12-02T11:11:31.000Z</time>
      </trkpt>
      <trkpt lat="42.91723" lon="0.82776">
        <ele>1663</ele>
        <time>2018-12-02T11:11:33.000Z</time>
      </trkpt>
      <trkpt lat="42.91723" lon="0.82776">
        <ele>1663</ele>
        <time>2018-12-02T11:11:35.000Z</time>
      </trkpt>
      <trkpt lat="42.91723" lon="0.82776">
        <ele>1663</ele>
        <time>2018-12-02T11:11:37.000Z</time>
      </trkpt>
      <trkpt lat="42.91723" lon="0.82776">
        <ele>1663</ele>
        <time>2018-12-02T11:11:39.000Z</time>
      </trkpt>
      <trkpt lat="42.91724" lon="0.82776">
        <ele>1663</ele>
        <time>2018-12-02T11:11:41.000Z</time>
      </trkpt>
      <trkpt lat="42.91723" lon="0.82775">
        <ele>1663</ele>
        <time>2018-12-02T11:11:43.000Z</time>
      </trkpt>
      <trkpt lat="42.91723" lon="0.82775">
        <ele>1663</ele>
        <time>2018-12-02T11:11:45.000Z</time>
      </trkpt>
      <trkpt lat="42.91723" lon="0.82774">
        <ele>1663</ele>
        <time>2018-12-02T11:11:47.000Z</time>
      </trkpt>
      <trkpt lat="42.91723" lon="0.82774">
        <ele>1663</ele>
        <time>2018-12-02T11:11:49.000Z</time>
      </trkpt>
      <trkpt lat="42.91723" lon="0.82775">
        <ele>1663</ele>
        <time>2018-12-02T11:11:51.000Z</time>
      </trkpt>
      <trkpt lat="42.91723" lon="0.82775">
        <ele>1663</ele>
        <time>2018-12-02T11:11:53.000Z</time>
      </trkpt>
      <trkpt lat="42.91723" lon="0.82775">
        <ele>1663</ele>
        <time>2018-12-02T11:11:55.000Z</time>
      </trkpt>
      <trkpt lat="42.91723" lon="0.82775">
        <ele>1663</ele>
        <time>2018-12-02T11:11:57.000Z</time>
      </trkpt>
      <trkpt lat="42.91723" lon="0.82775">
        <ele>1663</ele>
        <time>2018-12-02T11:11:59.000Z</time>
      </trkpt>
      <trkpt lat="42.91723" lon="0.82775">
        <ele>1663</ele>
        <time>2018-12-02T11:12:01.000Z</time>
      </trkpt>
      <trkpt lat="42.91723" lon="0.82775">
        <ele>1663</ele>
        <time>2018-12-02T11:12:03.000Z</time>
      </trkpt>
      <trkpt lat="42.91723" lon="0.82775">
        <ele>1663</ele>
        <time>2018-12-02T11:12:05.000Z</time>
      </trkpt>
      <trkpt lat="42.91722" lon="0.82775">
        <ele>1663</ele>
        <time>2018-12-02T11:12:07.000Z</time>
      </trkpt>
      <trkpt lat="42.91722" lon="0.82775">
        <ele>1663</ele>
        <time>2018-12-02T11:12:09.000Z</time>
      </trkpt>
      <trkpt lat="42.91722" lon="0.82775">
        <ele>1663</ele>
        <time>2018-12-02T11:12:11.000Z</time>
      </trkpt>
      <trkpt lat="42.91722" lon="0.82775">
        <ele>1663</ele>
        <time>2018-12-02T11:12:13.000Z</time>
      </trkpt>
      <trkpt lat="42.91722" lon="0.82775">
        <ele>1663</ele>
        <time>2018-12-02T11:12:15.000Z</time>
      </trkpt>
      <trkpt lat="42.91722" lon="0.82775">
        <ele>1663</ele>
        <time>2018-12-02T11:12:17.000Z</time>
      </trkpt>
      <trkpt lat="42.91722" lon="0.82775">
        <ele>1663</ele>
        <time>2018-12-02T11:12:19.000Z</time>
      </trkpt>
      <trkpt lat="42.91722" lon="0.82775">
        <ele>1663</ele>
        <time>2018-12-02T11:12:21.000Z</time>
      </trkpt>
      <trkpt lat="42.91722" lon="0.82775">
        <ele>1663</ele>
        <time>2018-12-02T11:12:23.000Z</time>
      </trkpt>
      <trkpt lat="42.91722" lon="0.82775">
        <ele>1663</ele>
        <time>2018-12-02T11:12:25.000Z</time>
      </trkpt>
      <trkpt lat="42.91722" lon="0.82776">
        <ele>1663</ele>
        <time>2018-12-02T11:12:27.000Z</time>
      </trkpt>
      <trkpt lat="42.91722" lon="0.82776">
        <ele>1663</ele>
        <time>2018-12-02T11:12:29.000Z</time>
      </trkpt>
      <trkpt lat="42.91722" lon="0.82776">
        <ele>1663</ele>
        <time>2018-12-02T11:12:31.000Z</time>
      </trkpt>
      <trkpt lat="42.91722" lon="0.82776">
        <ele>1662</ele>
        <time>2018-12-02T11:12:33.000Z</time>
      </trkpt>
      <trkpt lat="42.91722" lon="0.82775">
        <ele>1663</ele>
        <time>2018-12-02T11:12:35.000Z</time>
      </trkpt>
      <trkpt lat="42.91722" lon="0.82775">
        <ele>1663</ele>
        <time>2018-12-02T11:12:37.000Z</time>
      </trkpt>
      <trkpt lat="42.91722" lon="0.82776">
        <ele>1663</ele>
        <time>2018-12-02T11:12:39.000Z</time>
      </trkpt>
      <trkpt lat="42.91722" lon="0.82775">
        <ele>1663</ele>
        <time>2018-12-02T11:12:41.000Z</time>
      </trkpt>
      <trkpt lat="42.91722" lon="0.82775">
        <ele>1663</ele>
        <time>2018-12-02T11:12:43.000Z</time>
      </trkpt>
      <trkpt lat="42.91722" lon="0.82775">
        <ele>1663</ele>
        <time>2018-12-02T11:12:45.000Z</time>
      </trkpt>
      <trkpt lat="42.91722" lon="0.82775">
        <ele>1663</ele>
        <time>2018-12-02T11:12:47.000Z</time>
      </trkpt>
      <trkpt lat="42.91722" lon="0.82775">
        <ele>1663</ele>
        <time>2018-12-02T11:12:49.000Z</time>
      </trkpt>
      <trkpt lat="42.91722" lon="0.82775">
        <ele>1663</ele>
        <time>2018-12-02T11:12:51.000Z</time>
      </trkpt>
      <trkpt lat="42.91722" lon="0.82775">
        <ele>1663</ele>
        <time>2018-12-02T11:12:53.000Z</time>
      </trkpt>
      <trkpt lat="42.91722" lon="0.82775">
        <ele>1663</ele>
        <time>2018-12-02T11:12:55.000Z</time>
      </trkpt>
      <trkpt lat="42.91722" lon="0.82775">
        <ele>1663</ele>
        <time>2018-12-02T11:12:57.000Z</time>
      </trkpt>
      <trkpt lat="42.91722" lon="0.82775">
        <ele>1663</ele>
        <time>2018-12-02T11:12:59.000Z</time>
      </trkpt>
      <trkpt lat="42.91722" lon="0.82775">
        <ele>1663</ele>
        <time>2018-12-02T11:13:01.000Z</time>
      </trkpt>
      <trkpt lat="42.91722" lon="0.82775">
        <ele>1663</ele>
        <time>2018-12-02T11:13:03.000Z</time>
      </trkpt>
      <trkpt lat="42.91722" lon="0.82775">
        <ele>1663</ele>
        <time>2018-12-02T11:13:05.000Z</time>
      </trkpt>
      <trkpt lat="42.91722" lon="0.82775">
        <ele>1663</ele>
        <time>2018-12-02T11:13:07.000Z</time>
      </trkpt>
      <trkpt lat="42.91722" lon="0.82775">
        <ele>1663</ele>
        <time>2018-12-02T11:13:09.000Z</time>
      </trkpt>
      <trkpt lat="42.91722" lon="0.82775">
        <ele>1663</ele>
        <time>2018-12-02T11:13:11.000Z</time>
      </trkpt>
      <trkpt lat="42.91721" lon="0.82775">
        <ele>1663</ele>
        <time>2018-12-02T11:13:13.000Z</time>
      </trkpt>
      <trkpt lat="42.91721" lon="0.82775">
        <ele>1663</ele>
        <time>2018-12-02T11:13:15.000Z</time>
      </trkpt>
      <trkpt lat="42.91721" lon="0.82775">
        <ele>1662</ele>
        <time>2018-12-02T11:13:17.000Z</time>
      </trkpt>
      <trkpt lat="42.91721" lon="0.82775">
        <ele>1662</ele>
        <time>2018-12-02T11:13:19.000Z</time>
      </trkpt>
      <trkpt lat="42.91721" lon="0.82776">
        <ele>1662</ele>
        <time>2018-12-02T11:13:21.000Z</time>
      </trkpt>
      <trkpt lat="42.91722" lon="0.82776">
        <ele>1662</ele>
        <time>2018-12-02T11:13:23.000Z</time>
      </trkpt>
      <trkpt lat="42.91721" lon="0.82776">
        <ele>1662</ele>
        <time>2018-12-02T11:13:25.000Z</time>
      </trkpt>
      <trkpt lat="42.91721" lon="0.82776">
        <ele>1662</ele>
        <time>2018-12-02T11:13:27.000Z</time>
      </trkpt>
      <trkpt lat="42.91721" lon="0.82776">
        <ele>1662</ele>
        <time>2018-12-02T11:13:29.000Z</time>
      </trkpt>
      <trkpt lat="42.91721" lon="0.82775">
        <ele>1662</ele>
        <time>2018-12-02T11:13:31.000Z</time>
      </trkpt>
      <trkpt lat="42.91721" lon="0.82775">
        <ele>1662</ele>
        <time>2018-12-02T11:13:33.000Z</time>
      </trkpt>
      <trkpt lat="42.91721" lon="0.82775">
        <ele>1662</ele>
        <time>2018-12-02T11:13:35.000Z</time>
      </trkpt>
      <trkpt lat="42.91721" lon="0.82775">
        <ele>1662</ele>
        <time>2018-12-02T11:13:37.000Z</time>
      </trkpt>
      <trkpt lat="42.91721" lon="0.82775">
        <ele>1662</ele>
        <time>2018-12-02T11:13:39.000Z</time>
      </trkpt>
      <trkpt lat="42.91721" lon="0.82775">
        <ele>1662</ele>
        <time>2018-12-02T11:13:41.000Z</time>
      </trkpt>
      <trkpt lat="42.91721" lon="0.82775">
        <ele>1662</ele>
        <time>2018-12-02T11:13:43.000Z</time>
      </trkpt>
      <trkpt lat="42.91721" lon="0.82775">
        <ele>1662</ele>
        <time>2018-12-02T11:13:45.000Z</time>
      </trkpt>
      <trkpt lat="42.9172" lon="0.82775">
        <ele>1662</ele>
        <time>2018-12-02T11:13:47.000Z</time>
      </trkpt>
      <trkpt lat="42.9172" lon="0.82775">
        <ele>1662</ele>
        <time>2018-12-02T11:13:49.000Z</time>
      </trkpt>
      <trkpt lat="42.9172" lon="0.82775">
        <ele>1662</ele>
        <time>2018-12-02T11:13:51.000Z</time>
      </trkpt>
      <trkpt lat="42.9172" lon="0.82775">
        <ele>1662</ele>
        <time>2018-12-02T11:13:53.000Z</time>
      </trkpt>
      <trkpt lat="42.9172" lon="0.82775">
        <ele>1662</ele>
        <time>2018-12-02T11:13:55.000Z</time>
      </trkpt>
      <trkpt lat="42.91721" lon="0.82776">
        <ele>1662</ele>
        <time>2018-12-02T11:13:57.000Z</time>
      </trkpt>
      <trkpt lat="42.91721" lon="0.82775">
        <ele>1662</ele>
        <time>2018-12-02T11:13:59.000Z</time>
      </trkpt>
      <trkpt lat="42.91721" lon="0.82776">
        <ele>1662</ele>
        <time>2018-12-02T11:14:01.000Z</time>
      </trkpt>
      <trkpt lat="42.91721" lon="0.82776">
        <ele>1662</ele>
        <time>2018-12-02T11:14:03.000Z</time>
      </trkpt>
      <trkpt lat="42.91721" lon="0.82776">
        <ele>1662</ele>
        <time>2018-12-02T11:14:05.000Z</time>
      </trkpt>
      <trkpt lat="42.9172" lon="0.82776">
        <ele>1662</ele>
        <time>2018-12-02T11:14:07.000Z</time>
      </trkpt>
      <trkpt lat="42.9172" lon="0.82776">
        <ele>1662</ele>
        <time>2018-12-02T11:14:09.000Z</time>
      </trkpt>
      <trkpt lat="42.9172" lon="0.82776">
        <ele>1662</ele>
        <time>2018-12-02T11:14:11.000Z</time>
      </trkpt>
      <trkpt lat="42.9172" lon="0.82776">
        <ele>1662</ele>
        <time>2018-12-02T11:14:13.000Z</time>
      </trkpt>
      <trkpt lat="42.9172" lon="0.82776">
        <ele>1662</ele>
        <time>2018-12-02T11:14:15.000Z</time>
      </trkpt>
      <trkpt lat="42.9172" lon="0.82776">
        <ele>1662</ele>
        <time>2018-12-02T11:14:17.000Z</time>
      </trkpt>
      <trkpt lat="42.9172" lon="0.82775">
        <ele>1662</ele>
        <time>2018-12-02T11:14:19.000Z</time>
      </trkpt>
      <trkpt lat="42.91721" lon="0.82775">
        <ele>1662</ele>
        <time>2018-12-02T11:14:21.000Z</time>
      </trkpt>
      <trkpt lat="42.91721" lon="0.82776">
        <ele>1662</ele>
        <time>2018-12-02T11:14:23.000Z</time>
      </trkpt>
      <trkpt lat="42.91721" lon="0.82775">
        <ele>1662</ele>
        <time>2018-12-02T11:14:25.000Z</time>
      </trkpt>
      <trkpt lat="42.91721" lon="0.82775">
        <ele>1662</ele>
        <time>2018-12-02T11:14:27.000Z</time>
      </trkpt>
      <trkpt lat="42.91721" lon="0.82776">
        <ele>1662</ele>
        <time>2018-12-02T11:14:29.000Z</time>
      </trkpt>
      <trkpt lat="42.91721" lon="0.82776">
        <ele>1662</ele>
        <time>2018-12-02T11:14:31.000Z</time>
      </trkpt>
      <trkpt lat="42.91721" lon="0.82776">
        <ele>1662</ele>
        <time>2018-12-02T11:14:33.000Z</time>
      </trkpt>
      <trkpt lat="42.91721" lon="0.82776">
        <ele>1662</ele>
        <time>2018-12-02T11:14:35.000Z</time>
      </trkpt>
      <trkpt lat="42.91721" lon="0.82776">
        <ele>1662</ele>
        <time>2018-12-02T11:14:37.000Z</time>
      </trkpt>
      <trkpt lat="42.91721" lon="0.82776">
        <ele>1662</ele>
        <time>2018-12-02T11:14:39.000Z</time>
      </trkpt>
      <trkpt lat="42.91721" lon="0.82776">
        <ele>1662</ele>
        <time>2018-12-02T11:14:41.000Z</time>
      </trkpt>
      <trkpt lat="42.91722" lon="0.82776">
        <ele>1662</ele>
        <time>2018-12-02T11:14:43.000Z</time>
      </trkpt>
      <trkpt lat="42.91722" lon="0.82776">
        <ele>1662</ele>
        <time>2018-12-02T11:14:45.000Z</time>
      </trkpt>
      <trkpt lat="42.91722" lon="0.82776">
        <ele>1662</ele>
        <time>2018-12-02T11:14:47.000Z</time>
      </trkpt>
      <trkpt lat="42.91722" lon="0.82776">
        <ele>1662</ele>
        <time>2018-12-02T11:14:49.000Z</time>
      </trkpt>
      <trkpt lat="42.91722" lon="0.82776">
        <ele>1663</ele>
        <time>2018-12-02T11:14:51.000Z</time>
      </trkpt>
      <trkpt lat="42.91722" lon="0.82776">
        <ele>1662</ele>
        <time>2018-12-02T11:14:53.000Z</time>
      </trkpt>
      <trkpt lat="42.91722" lon="0.82775">
        <ele>1663</ele>
        <time>2018-12-02T11:14:55.000Z</time>
      </trkpt>
      <trkpt lat="42.91722" lon="0.82775">
        <ele>1663</ele>
        <time>2018-12-02T11:14:57.000Z</time>
      </trkpt>
      <trkpt lat="42.91722" lon="0.82775">
        <ele>1663</ele>
        <time>2018-12-02T11:14:59.000Z</time>
      </trkpt>
      <trkpt lat="42.91722" lon="0.82775">
        <ele>1663</ele>
        <time>2018-12-02T11:15:01.000Z</time>
      </trkpt>
      <trkpt lat="42.91722" lon="0.82775">
        <ele>1663</ele>
        <time>2018-12-02T11:15:03.000Z</time>
      </trkpt>
      <trkpt lat="42.91721" lon="0.82775">
        <ele>1662</ele>
        <time>2018-12-02T11:15:05.000Z</time>
      </trkpt>
      <trkpt lat="42.91721" lon="0.82775">
        <ele>1662</ele>
        <time>2018-12-02T11:15:07.000Z</time>
      </trkpt>
      <trkpt lat="42.91721" lon="0.82775">
        <ele>1663</ele>
        <time>2018-12-02T11:15:09.000Z</time>
      </trkpt>
      <trkpt lat="42.91721" lon="0.82775">
        <ele>1663</ele>
        <time>2018-12-02T11:15:11.000Z</time>
      </trkpt>
      <trkpt lat="42.91721" lon="0.82775">
        <ele>1663</ele>
        <time>2018-12-02T11:15:13.000Z</time>
      </trkpt>
      <trkpt lat="42.91722" lon="0.82775">
        <ele>1663</ele>
        <time>2018-12-02T11:15:15.000Z</time>
      </trkpt>
      <trkpt lat="42.91722" lon="0.82774">
        <ele>1663</ele>
        <time>2018-12-02T11:15:17.000Z</time>
      </trkpt>
      <trkpt lat="42.91722" lon="0.82774">
        <ele>1663</ele>
        <time>2018-12-02T11:15:19.000Z</time>
      </trkpt>
      <trkpt lat="42.91722" lon="0.82774">
        <ele>1663</ele>
        <time>2018-12-02T11:15:21.000Z</time>
      </trkpt>
      <trkpt lat="42.91722" lon="0.82774">
        <ele>1663</ele>
        <time>2018-12-02T11:15:23.000Z</time>
      </trkpt>
      <trkpt lat="42.91722" lon="0.82774">
        <ele>1663</ele>
        <time>2018-12-02T11:15:25.000Z</time>
      </trkpt>
      <trkpt lat="42.91722" lon="0.82773">
        <ele>1663</ele>
        <time>2018-12-02T11:15:27.000Z</time>
      </trkpt>
      <trkpt lat="42.91722" lon="0.82773">
        <ele>1663</ele>
        <time>2018-12-02T11:15:29.000Z</time>
      </trkpt>
      <trkpt lat="42.91722" lon="0.82773">
        <ele>1663</ele>
        <time>2018-12-02T11:15:31.000Z</time>
      </trkpt>
      <trkpt lat="42.91722" lon="0.82773">
        <ele>1663</ele>
        <time>2018-12-02T11:15:33.000Z</time>
      </trkpt>
      <trkpt lat="42.91722" lon="0.82773">
        <ele>1663</ele>
        <time>2018-12-02T11:15:35.000Z</time>
      </trkpt>
      <trkpt lat="42.91722" lon="0.82772">
        <ele>1663</ele>
        <time>2018-12-02T11:15:37.000Z</time>
      </trkpt>
      <trkpt lat="42.91722" lon="0.82772">
        <ele>1663</ele>
        <time>2018-12-02T11:15:39.000Z</time>
      </trkpt>
      <trkpt lat="42.91722" lon="0.82772">
        <ele>1663</ele>
        <time>2018-12-02T11:15:41.000Z</time>
      </trkpt>
      <trkpt lat="42.91722" lon="0.82772">
        <ele>1663</ele>
        <time>2018-12-02T11:15:44.000Z</time>
      </trkpt>
      <trkpt lat="42.91722" lon="0.82772">
        <ele>1663</ele>
        <time>2018-12-02T11:15:46.000Z</time>
      </trkpt>
      <trkpt lat="42.91722" lon="0.82772">
        <ele>1663</ele>
        <time>2018-12-02T11:15:48.000Z</time>
      </trkpt>
      <trkpt lat="42.91722" lon="0.82772">
        <ele>1663</ele>
        <time>2018-12-02T11:15:50.000Z</time>
      </trkpt>
      <trkpt lat="42.91722" lon="0.82771">
        <ele>1663</ele>
        <time>2018-12-02T11:15:52.000Z</time>
      </trkpt>
      <trkpt lat="42.91723" lon="0.82772">
        <ele>1663</ele>
        <time>2018-12-02T11:15:54.000Z</time>
      </trkpt>
      <trkpt lat="42.91722" lon="0.82771">
        <ele>1663</ele>
        <time>2018-12-02T11:15:56.000Z</time>
      </trkpt>
      <trkpt lat="42.91722" lon="0.82771">
        <ele>1663</ele>
        <time>2018-12-02T11:15:58.000Z</time>
      </trkpt>
      <trkpt lat="42.91722" lon="0.82772">
        <ele>1663</ele>
        <time>2018-12-02T11:16:00.000Z</time>
      </trkpt>
      <trkpt lat="42.91722" lon="0.82772">
        <ele>1663</ele>
        <time>2018-12-02T11:16:02.000Z</time>
      </trkpt>
      <trkpt lat="42.91722" lon="0.82772">
        <ele>1663</ele>
        <time>2018-12-02T11:16:04.000Z</time>
      </trkpt>
      <trkpt lat="42.91722" lon="0.82772">
        <ele>1663</ele>
        <time>2018-12-02T11:16:06.000Z</time>
      </trkpt>
      <trkpt lat="42.91722" lon="0.82772">
        <ele>1663</ele>
        <time>2018-12-02T11:16:08.000Z</time>
      </trkpt>
      <trkpt lat="42.91722" lon="0.82771">
        <ele>1663</ele>
        <time>2018-12-02T11:16:10.000Z</time>
      </trkpt>
      <trkpt lat="42.91722" lon="0.82771">
        <ele>1663</ele>
        <time>2018-12-02T11:16:12.000Z</time>
      </trkpt>
      <trkpt lat="42.91722" lon="0.82771">
        <ele>1663</ele>
        <time>2018-12-02T11:16:14.000Z</time>
      </trkpt>
      <trkpt lat="42.91722" lon="0.82771">
        <ele>1663</ele>
        <time>2018-12-02T11:16:16.000Z</time>
      </trkpt>
      <trkpt lat="42.91722" lon="0.82771">
        <ele>1663</ele>
        <time>2018-12-02T11:16:18.000Z</time>
      </trkpt>
      <trkpt lat="42.91722" lon="0.82771">
        <ele>1663</ele>
        <time>2018-12-02T11:16:20.000Z</time>
      </trkpt>
      <trkpt lat="42.91722" lon="0.82772">
        <ele>1663</ele>
        <time>2018-12-02T11:16:22.000Z</time>
      </trkpt>
      <trkpt lat="42.91722" lon="0.82772">
        <ele>1663</ele>
        <time>2018-12-02T11:16:24.000Z</time>
      </trkpt>
      <trkpt lat="42.91722" lon="0.82772">
        <ele>1663</ele>
        <time>2018-12-02T11:16:26.000Z</time>
      </trkpt>
      <trkpt lat="42.91722" lon="0.82772">
        <ele>1663</ele>
        <time>2018-12-02T11:16:28.000Z</time>
      </trkpt>
      <trkpt lat="42.91722" lon="0.82771">
        <ele>1663</ele>
        <time>2018-12-02T11:16:30.000Z</time>
      </trkpt>
      <trkpt lat="42.91722" lon="0.82771">
        <ele>1663</ele>
        <time>2018-12-02T11:16:32.000Z</time>
      </trkpt>
      <trkpt lat="42.91722" lon="0.82771">
        <ele>1663</ele>
        <time>2018-12-02T11:16:34.000Z</time>
      </trkpt>
      <trkpt lat="42.91722" lon="0.82771">
        <ele>1663</ele>
        <time>2018-12-02T11:16:36.000Z</time>
      </trkpt>
      <trkpt lat="42.91721" lon="0.82771">
        <ele>1663</ele>
        <time>2018-12-02T11:16:38.000Z</time>
      </trkpt>
      <trkpt lat="42.91722" lon="0.82772">
        <ele>1663</ele>
        <time>2018-12-02T11:16:40.000Z</time>
      </trkpt>
      <trkpt lat="42.91722" lon="0.82773">
        <ele>1663</ele>
        <time>2018-12-02T11:16:42.000Z</time>
      </trkpt>
      <trkpt lat="42.91722" lon="0.82774">
        <ele>1663</ele>
        <time>2018-12-02T11:16:44.000Z</time>
      </trkpt>
      <trkpt lat="42.91722" lon="0.82774">
        <ele>1663</ele>
        <time>2018-12-02T11:16:46.000Z</time>
      </trkpt>
      <trkpt lat="42.91722" lon="0.82774">
        <ele>1663</ele>
        <time>2018-12-02T11:16:48.000Z</time>
      </trkpt>
      <trkpt lat="42.91722" lon="0.82775">
        <ele>1663</ele>
        <time>2018-12-02T11:16:50.000Z</time>
      </trkpt>
      <trkpt lat="42.91722" lon="0.82775">
        <ele>1663</ele>
        <time>2018-12-02T11:16:52.000Z</time>
      </trkpt>
      <trkpt lat="42.91723" lon="0.82775">
        <ele>1663</ele>
        <time>2018-12-02T11:16:54.000Z</time>
      </trkpt>
      <trkpt lat="42.91723" lon="0.82775">
        <ele>1663</ele>
        <time>2018-12-02T11:16:56.000Z</time>
      </trkpt>
      <trkpt lat="42.91723" lon="0.82775">
        <ele>1663</ele>
        <time>2018-12-02T11:16:58.000Z</time>
      </trkpt>
      <trkpt lat="42.91723" lon="0.82775">
        <ele>1663</ele>
        <time>2018-12-02T11:17:00.000Z</time>
      </trkpt>
      <trkpt lat="42.91722" lon="0.82775">
        <ele>1663</ele>
        <time>2018-12-02T11:17:02.000Z</time>
      </trkpt>
      <trkpt lat="42.91722" lon="0.82775">
        <ele>1663</ele>
        <time>2018-12-02T11:17:04.000Z</time>
      </trkpt>
      <trkpt lat="42.91722" lon="0.82775">
        <ele>1663</ele>
        <time>2018-12-02T11:17:06.000Z</time>
      </trkpt>
      <trkpt lat="42.91722" lon="0.82775">
        <ele>1663</ele>
        <time>2018-12-02T11:17:08.000Z</time>
      </trkpt>
      <trkpt lat="42.91722" lon="0.82775">
        <ele>1663</ele>
        <time>2018-12-02T11:17:10.000Z</time>
      </trkpt>
      <trkpt lat="42.91721" lon="0.82775">
        <ele>1663</ele>
        <time>2018-12-02T11:17:12.000Z</time>
      </trkpt>
      <trkpt lat="42.91721" lon="0.82775">
        <ele>1662</ele>
        <time>2018-12-02T11:17:14.000Z</time>
      </trkpt>
      <trkpt lat="42.91722" lon="0.82775">
        <ele>1663</ele>
        <time>2018-12-02T11:17:16.000Z</time>
      </trkpt>
      <trkpt lat="42.91721" lon="0.82775">
        <ele>1663</ele>
        <time>2018-12-02T11:17:18.000Z</time>
      </trkpt>
      <trkpt lat="42.91721" lon="0.82775">
        <ele>1662</ele>
        <time>2018-12-02T11:17:20.000Z</time>
      </trkpt>
      <trkpt lat="42.91721" lon="0.82776">
        <ele>1662</ele>
        <time>2018-12-02T11:17:22.000Z</time>
      </trkpt>
      <trkpt lat="42.91721" lon="0.82776">
        <ele>1662</ele>
        <time>2018-12-02T11:17:24.000Z</time>
      </trkpt>
      <trkpt lat="42.91721" lon="0.82776">
        <ele>1662</ele>
        <time>2018-12-02T11:17:26.000Z</time>
      </trkpt>
      <trkpt lat="42.91721" lon="0.82776">
        <ele>1662</ele>
        <time>2018-12-02T11:17:28.000Z</time>
      </trkpt>
      <trkpt lat="42.91721" lon="0.82776">
        <ele>1662</ele>
        <time>2018-12-02T11:17:30.000Z</time>
      </trkpt>
      <trkpt lat="42.91721" lon="0.82776">
        <ele>1662</ele>
        <time>2018-12-02T11:17:32.000Z</time>
      </trkpt>
      <trkpt lat="42.91721" lon="0.82776">
        <ele>1662</ele>
        <time>2018-12-02T11:17:34.000Z</time>
      </trkpt>
      <trkpt lat="42.91721" lon="0.82776">
        <ele>1662</ele>
        <time>2018-12-02T11:17:36.000Z</time>
      </trkpt>
      <trkpt lat="42.91721" lon="0.82776">
        <ele>1662</ele>
        <time>2018-12-02T11:17:38.000Z</time>
      </trkpt>
      <trkpt lat="42.91721" lon="0.82776">
        <ele>1662</ele>
        <time>2018-12-02T11:17:40.000Z</time>
      </trkpt>
      <trkpt lat="42.91721" lon="0.82776">
        <ele>1662</ele>
        <time>2018-12-02T11:17:42.000Z</time>
      </trkpt>
      <trkpt lat="42.91721" lon="0.82776">
        <ele>1662</ele>
        <time>2018-12-02T11:17:44.000Z</time>
      </trkpt>
      <trkpt lat="42.91721" lon="0.82776">
        <ele>1662</ele>
        <time>2018-12-02T11:17:46.000Z</time>
      </trkpt>
      <trkpt lat="42.91721" lon="0.82776">
        <ele>1662</ele>
        <time>2018-12-02T11:17:48.000Z</time>
      </trkpt>
      <trkpt lat="42.91721" lon="0.82776">
        <ele>1662</ele>
        <time>2018-12-02T11:17:50.000Z</time>
      </trkpt>
      <trkpt lat="42.91721" lon="0.82776">
        <ele>1662</ele>
        <time>2018-12-02T11:17:52.000Z</time>
      </trkpt>
      <trkpt lat="42.91721" lon="0.82776">
        <ele>1662</ele>
        <time>2018-12-02T11:17:54.000Z</time>
      </trkpt>
      <trkpt lat="42.91721" lon="0.82776">
        <ele>1662</ele>
        <time>2018-12-02T11:17:56.000Z</time>
      </trkpt>
      <trkpt lat="42.91721" lon="0.82776">
        <ele>1662</ele>
        <time>2018-12-02T11:17:58.000Z</time>
      </trkpt>
      <trkpt lat="42.91721" lon="0.82776">
        <ele>1662</ele>
        <time>2018-12-02T11:18:00.000Z</time>
      </trkpt>
      <trkpt lat="42.91721" lon="0.82776">
        <ele>1662</ele>
        <time>2018-12-02T11:18:02.000Z</time>
      </trkpt>
      <trkpt lat="42.91721" lon="0.82776">
        <ele>1662</ele>
        <time>2018-12-02T11:18:04.000Z</time>
      </trkpt>
      <trkpt lat="42.9172" lon="0.82776">
        <ele>1662</ele>
        <time>2018-12-02T11:18:06.000Z</time>
      </trkpt>
      <trkpt lat="42.9172" lon="0.82776">
        <ele>1662</ele>
        <time>2018-12-02T11:18:08.000Z</time>
      </trkpt>
      <trkpt lat="42.9172" lon="0.82775">
        <ele>1662</ele>
        <time>2018-12-02T11:18:10.000Z</time>
      </trkpt>
      <trkpt lat="42.9172" lon="0.82775">
        <ele>1662</ele>
        <time>2018-12-02T11:18:12.000Z</time>
      </trkpt>
      <trkpt lat="42.9172" lon="0.82775">
        <ele>1662</ele>
        <time>2018-12-02T11:18:14.000Z</time>
      </trkpt>
      <trkpt lat="42.9172" lon="0.82775">
        <ele>1662</ele>
        <time>2018-12-02T11:18:16.000Z</time>
      </trkpt>
      <trkpt lat="42.9172" lon="0.82776">
        <ele>1662</ele>
        <time>2018-12-02T11:18:18.000Z</time>
      </trkpt>
      <trkpt lat="42.9172" lon="0.82776">
        <ele>1662</ele>
        <time>2018-12-02T11:18:20.000Z</time>
      </trkpt>
      <trkpt lat="42.9172" lon="0.82775">
        <ele>1662</ele>
        <time>2018-12-02T11:18:22.000Z</time>
      </trkpt>
      <trkpt lat="42.9172" lon="0.82775">
        <ele>1662</ele>
        <time>2018-12-02T11:18:24.000Z</time>
      </trkpt>
      <trkpt lat="42.9172" lon="0.82776">
        <ele>1662</ele>
        <time>2018-12-02T11:18:26.000Z</time>
      </trkpt>
      <trkpt lat="42.9172" lon="0.82776">
        <ele>1662</ele>
        <time>2018-12-02T11:18:28.000Z</time>
      </trkpt>
      <trkpt lat="42.9172" lon="0.82776">
        <ele>1662</ele>
        <time>2018-12-02T11:18:30.000Z</time>
      </trkpt>
      <trkpt lat="42.91719" lon="0.82776">
        <ele>1662</ele>
        <time>2018-12-02T11:18:32.000Z</time>
      </trkpt>
      <trkpt lat="42.9172" lon="0.82775">
        <ele>1662</ele>
        <time>2018-12-02T11:18:34.000Z</time>
      </trkpt>
      <trkpt lat="42.9172" lon="0.82775">
        <ele>1662</ele>
        <time>2018-12-02T11:18:36.000Z</time>
      </trkpt>
      <trkpt lat="42.9172" lon="0.82775">
        <ele>1662</ele>
        <time>2018-12-02T11:18:38.000Z</time>
      </trkpt>
      <trkpt lat="42.9172" lon="0.82776">
        <ele>1662</ele>
        <time>2018-12-02T11:18:40.000Z</time>
      </trkpt>
      <trkpt lat="42.9172" lon="0.82776">
        <ele>1662</ele>
        <time>2018-12-02T11:18:42.000Z</time>
      </trkpt>
      <trkpt lat="42.9172" lon="0.82776">
        <ele>1662</ele>
        <time>2018-12-02T11:18:44.000Z</time>
      </trkpt>
      <trkpt lat="42.9172" lon="0.82775">
        <ele>1662</ele>
        <time>2018-12-02T11:18:46.000Z</time>
      </trkpt>
      <trkpt lat="42.9172" lon="0.82776">
        <ele>1662</ele>
        <time>2018-12-02T11:18:48.000Z</time>
      </trkpt>
      <trkpt lat="42.9172" lon="0.82776">
        <ele>1662</ele>
        <time>2018-12-02T11:18:50.000Z</time>
      </trkpt>
      <trkpt lat="42.9172" lon="0.82775">
        <ele>1662</ele>
        <time>2018-12-02T11:18:52.000Z</time>
      </trkpt>
      <trkpt lat="42.9172" lon="0.82775">
        <ele>1662</ele>
        <time>2018-12-02T11:18:54.000Z</time>
      </trkpt>
      <trkpt lat="42.9172" lon="0.82775">
        <ele>1662</ele>
        <time>2018-12-02T11:18:56.000Z</time>
      </trkpt>
      <trkpt lat="42.9172" lon="0.82775">
        <ele>1662</ele>
        <time>2018-12-02T11:18:58.000Z</time>
      </trkpt>
      <trkpt lat="42.9172" lon="0.82775">
        <ele>1662</ele>
        <time>2018-12-02T11:19:00.000Z</time>
      </trkpt>
      <trkpt lat="42.9172" lon="0.82775">
        <ele>1662</ele>
        <time>2018-12-02T11:19:02.000Z</time>
      </trkpt>
      <trkpt lat="42.9172" lon="0.82775">
        <ele>1662</ele>
        <time>2018-12-02T11:19:04.000Z</time>
      </trkpt>
      <trkpt lat="42.9172" lon="0.82775">
        <ele>1662</ele>
        <time>2018-12-02T11:19:06.000Z</time>
      </trkpt>
      <trkpt lat="42.9172" lon="0.82775">
        <ele>1662</ele>
        <time>2018-12-02T11:19:08.000Z</time>
      </trkpt>
      <trkpt lat="42.9172" lon="0.82775">
        <ele>1662</ele>
        <time>2018-12-02T11:19:10.000Z</time>
      </trkpt>
      <trkpt lat="42.9172" lon="0.82775">
        <ele>1662</ele>
        <time>2018-12-02T11:19:12.000Z</time>
      </trkpt>
      <trkpt lat="42.9172" lon="0.82775">
        <ele>1662</ele>
        <time>2018-12-02T11:19:14.000Z</time>
      </trkpt>
      <trkpt lat="42.9172" lon="0.82775">
        <ele>1662</ele>
        <time>2018-12-02T11:19:16.000Z</time>
      </trkpt>
      <trkpt lat="42.9172" lon="0.82775">
        <ele>1662</ele>
        <time>2018-12-02T11:19:18.000Z</time>
      </trkpt>
      <trkpt lat="42.9172" lon="0.82775">
        <ele>1662</ele>
        <time>2018-12-02T11:19:20.000Z</time>
      </trkpt>
      <trkpt lat="42.9172" lon="0.82776">
        <ele>1662</ele>
        <time>2018-12-02T11:19:22.000Z</time>
      </trkpt>
      <trkpt lat="42.9172" lon="0.82776">
        <ele>1662</ele>
        <time>2018-12-02T11:19:24.000Z</time>
      </trkpt>
      <trkpt lat="42.9172" lon="0.82776">
        <ele>1662</ele>
        <time>2018-12-02T11:19:26.000Z</time>
      </trkpt>
      <trkpt lat="42.9172" lon="0.82776">
        <ele>1662</ele>
        <time>2018-12-02T11:19:28.000Z</time>
      </trkpt>
      <trkpt lat="42.91721" lon="0.82776">
        <ele>1662</ele>
        <time>2018-12-02T11:19:30.000Z</time>
      </trkpt>
      <trkpt lat="42.91722" lon="0.82776">
        <ele>1662</ele>
        <time>2018-12-02T11:19:32.000Z</time>
      </trkpt>
      <trkpt lat="42.91723" lon="0.82777">
        <ele>1663</ele>
        <time>2018-12-02T11:19:34.000Z</time>
      </trkpt>
      <trkpt lat="42.91724" lon="0.8278">
        <ele>1662</ele>
        <time>2018-12-02T11:19:36.000Z</time>
      </trkpt>
      <trkpt lat="42.91723" lon="0.8278">
        <ele>1662</ele>
        <time>2018-12-02T11:19:38.000Z</time>
      </trkpt>
      <trkpt lat="42.91722" lon="0.82779">
        <ele>1662</ele>
        <time>2018-12-02T11:19:40.000Z</time>
      </trkpt>
      <trkpt lat="42.91721" lon="0.82778">
        <ele>1662</ele>
        <time>2018-12-02T11:19:42.000Z</time>
      </trkpt>
      <trkpt lat="42.9172" lon="0.82776">
        <ele>1662</ele>
        <time>2018-12-02T11:19:44.000Z</time>
      </trkpt>
      <trkpt lat="42.9172" lon="0.82776">
        <ele>1662</ele>
        <time>2018-12-02T11:19:46.000Z</time>
      </trkpt>
      <trkpt lat="42.9172" lon="0.82776">
        <ele>1662</ele>
        <time>2018-12-02T11:19:48.000Z</time>
      </trkpt>
      <trkpt lat="42.9172" lon="0.82776">
        <ele>1662</ele>
        <time>2018-12-02T11:19:50.000Z</time>
      </trkpt>
      <trkpt lat="42.9172" lon="0.82777">
        <ele>1662</ele>
        <time>2018-12-02T11:19:52.000Z</time>
      </trkpt>
      <trkpt lat="42.91719" lon="0.82777">
        <ele>1662</ele>
        <time>2018-12-02T11:19:54.000Z</time>
      </trkpt>
      <trkpt lat="42.91718" lon="0.82777">
        <ele>1662</ele>
        <time>2018-12-02T11:19:56.000Z</time>
      </trkpt>
      <trkpt lat="42.91717" lon="0.82777">
        <ele>1662</ele>
        <time>2018-12-02T11:19:58.000Z</time>
      </trkpt>
      <trkpt lat="42.91715" lon="0.82777">
        <ele>1662</ele>
        <time>2018-12-02T11:20:00.000Z</time>
      </trkpt>
      <trkpt lat="42.91714" lon="0.82776">
        <ele>1662</ele>
        <time>2018-12-02T11:20:02.000Z</time>
      </trkpt>
      <trkpt lat="42.91712" lon="0.82775">
        <ele>1662</ele>
        <time>2018-12-02T11:20:04.000Z</time>
      </trkpt>
      <trkpt lat="42.91709" lon="0.82773">
        <ele>1661</ele>
        <time>2018-12-02T11:20:06.000Z</time>
      </trkpt>
      <trkpt lat="42.91708" lon="0.82773">
        <ele>1661</ele>
        <time>2018-12-02T11:20:08.000Z</time>
      </trkpt>
      <trkpt lat="42.91706" lon="0.82774">
        <ele>1661</ele>
        <time>2018-12-02T11:20:10.000Z</time>
      </trkpt>
      <trkpt lat="42.91705" lon="0.82776">
        <ele>1661</ele>
        <time>2018-12-02T11:20:12.000Z</time>
      </trkpt>
      <trkpt lat="42.91704" lon="0.82777">
        <ele>1660</ele>
        <time>2018-12-02T11:20:14.000Z</time>
      </trkpt>
      <trkpt lat="42.91704" lon="0.82779">
        <ele>1660</ele>
        <time>2018-12-02T11:20:16.000Z</time>
      </trkpt>
      <trkpt lat="42.91702" lon="0.8278">
        <ele>1660</ele>
        <time>2018-12-02T11:20:18.000Z</time>
      </trkpt>
      <trkpt lat="42.91702" lon="0.8278">
        <ele>1660</ele>
        <time>2018-12-02T11:20:20.000Z</time>
      </trkpt>
      <trkpt lat="42.91702" lon="0.8278">
        <ele>1660</ele>
        <time>2018-12-02T11:20:22.000Z</time>
      </trkpt>
      <trkpt lat="42.91701" lon="0.8278">
        <ele>1660</ele>
        <time>2018-12-02T11:20:24.000Z</time>
      </trkpt>
      <trkpt lat="42.917" lon="0.82779">
        <ele>1660</ele>
        <time>2018-12-02T11:20:26.000Z</time>
      </trkpt>
      <trkpt lat="42.917" lon="0.82779">
        <ele>1660</ele>
        <time>2018-12-02T11:20:28.000Z</time>
      </trkpt>
      <trkpt lat="42.91698" lon="0.82779">
        <ele>1660</ele>
        <time>2018-12-02T11:20:30.000Z</time>
      </trkpt>
      <trkpt lat="42.91697" lon="0.82778">
        <ele>1659</ele>
        <time>2018-12-02T11:20:32.000Z</time>
      </trkpt>
      <trkpt lat="42.91697" lon="0.82778">
        <ele>1660</ele>
        <time>2018-12-02T11:20:34.000Z</time>
      </trkpt>
      <trkpt lat="42.91697" lon="0.82777">
        <ele>1660</ele>
        <time>2018-12-02T11:20:36.000Z</time>
      </trkpt>
      <trkpt lat="42.91697" lon="0.82777">
        <ele>1660</ele>
        <time>2018-12-02T11:20:38.000Z</time>
      </trkpt>
      <trkpt lat="42.91697" lon="0.82777">
        <ele>1660</ele>
        <time>2018-12-02T11:20:40.000Z</time>
      </trkpt>
      <trkpt lat="42.91697" lon="0.82777">
        <ele>1660</ele>
        <time>2018-12-02T11:20:42.000Z</time>
      </trkpt>
      <trkpt lat="42.91696" lon="0.82777">
        <ele>1659</ele>
        <time>2018-12-02T11:20:44.000Z</time>
      </trkpt>
      <trkpt lat="42.91694" lon="0.82776">
        <ele>1659</ele>
        <time>2018-12-02T11:20:46.000Z</time>
      </trkpt>
      <trkpt lat="42.91693" lon="0.82775">
        <ele>1659</ele>
        <time>2018-12-02T11:20:48.000Z</time>
      </trkpt>
      <trkpt lat="42.91692" lon="0.82773">
        <ele>1660</ele>
        <time>2018-12-02T11:20:50.000Z</time>
      </trkpt>
      <trkpt lat="42.9169" lon="0.82773">
        <ele>1660</ele>
        <time>2018-12-02T11:20:52.000Z</time>
      </trkpt>
      <trkpt lat="42.91689" lon="0.82772">
        <ele>1659</ele>
        <time>2018-12-02T11:20:54.000Z</time>
      </trkpt>
      <trkpt lat="42.91687" lon="0.8277">
        <ele>1660</ele>
        <time>2018-12-02T11:20:56.000Z</time>
      </trkpt>
      <trkpt lat="42.91686" lon="0.8277">
        <ele>1659</ele>
        <time>2018-12-02T11:20:58.000Z</time>
      </trkpt>
      <trkpt lat="42.91683" lon="0.8277">
        <ele>1659</ele>
        <time>2018-12-02T11:21:00.000Z</time>
      </trkpt>
      <trkpt lat="42.91682" lon="0.82769">
        <ele>1659</ele>
        <time>2018-12-02T11:21:02.000Z</time>
      </trkpt>
      <trkpt lat="42.9168" lon="0.82768">
        <ele>1659</ele>
        <time>2018-12-02T11:21:04.000Z</time>
      </trkpt>
      <trkpt lat="42.91679" lon="0.82767">
        <ele>1659</ele>
        <time>2018-12-02T11:21:06.000Z</time>
      </trkpt>
      <trkpt lat="42.91677" lon="0.82765">
        <ele>1659</ele>
        <time>2018-12-02T11:21:08.000Z</time>
      </trkpt>
      <trkpt lat="42.91676" lon="0.82764">
        <ele>1659</ele>
        <time>2018-12-02T11:21:10.000Z</time>
      </trkpt>
      <trkpt lat="42.91675" lon="0.82762">
        <ele>1659</ele>
        <time>2018-12-02T11:21:12.000Z</time>
      </trkpt>
      <trkpt lat="42.91673" lon="0.82761">
        <ele>1659</ele>
        <time>2018-12-02T11:21:14.000Z</time>
      </trkpt>
      <trkpt lat="42.91672" lon="0.8276">
        <ele>1659</ele>
        <time>2018-12-02T11:21:16.000Z</time>
      </trkpt>
      <trkpt lat="42.91671" lon="0.82758">
        <ele>1659</ele>
        <time>2018-12-02T11:21:18.000Z</time>
      </trkpt>
      <trkpt lat="42.91669" lon="0.82757">
        <ele>1659</ele>
        <time>2018-12-02T11:21:20.000Z</time>
      </trkpt>
      <trkpt lat="42.91668" lon="0.82756">
        <ele>1659</ele>
        <time>2018-12-02T11:21:22.000Z</time>
      </trkpt>
      <trkpt lat="42.91666" lon="0.82755">
        <ele>1659</ele>
        <time>2018-12-02T11:21:24.000Z</time>
      </trkpt>
      <trkpt lat="42.91664" lon="0.82754">
        <ele>1659</ele>
        <time>2018-12-02T11:21:26.000Z</time>
      </trkpt>
      <trkpt lat="42.91663" lon="0.82753">
        <ele>1659</ele>
        <time>2018-12-02T11:21:28.000Z</time>
      </trkpt>
      <trkpt lat="42.91661" lon="0.82752">
        <ele>1659</ele>
        <time>2018-12-02T11:21:30.000Z</time>
      </trkpt>
      <trkpt lat="42.91659" lon="0.82751">
        <ele>1659</ele>
        <time>2018-12-02T11:21:32.000Z</time>
      </trkpt>
      <trkpt lat="42.91658" lon="0.8275">
        <ele>1659</ele>
        <time>2018-12-02T11:21:34.000Z</time>
      </trkpt>
      <trkpt lat="42.91657" lon="0.82749">
        <ele>1658</ele>
        <time>2018-12-02T11:21:36.000Z</time>
      </trkpt>
      <trkpt lat="42.91655" lon="0.82748">
        <ele>1658</ele>
        <time>2018-12-02T11:21:38.000Z</time>
      </trkpt>
      <trkpt lat="42.91653" lon="0.82747">
        <ele>1658</ele>
        <time>2018-12-02T11:21:40.000Z</time>
      </trkpt>
      <trkpt lat="42.91652" lon="0.82746">
        <ele>1658</ele>
        <time>2018-12-02T11:21:42.000Z</time>
      </trkpt>
      <trkpt lat="42.9165" lon="0.82744">
        <ele>1658</ele>
        <time>2018-12-02T11:21:44.000Z</time>
      </trkpt>
      <trkpt lat="42.91649" lon="0.82742">
        <ele>1658</ele>
        <time>2018-12-02T11:21:46.000Z</time>
      </trkpt>
      <trkpt lat="42.91647" lon="0.82741">
        <ele>1658</ele>
        <time>2018-12-02T11:21:48.000Z</time>
      </trkpt>
      <trkpt lat="42.91645" lon="0.82739">
        <ele>1658</ele>
        <time>2018-12-02T11:21:50.000Z</time>
      </trkpt>
      <trkpt lat="42.91644" lon="0.82738">
        <ele>1658</ele>
        <time>2018-12-02T11:21:52.000Z</time>
      </trkpt>
      <trkpt lat="42.91642" lon="0.82737">
        <ele>1658</ele>
        <time>2018-12-02T11:21:54.000Z</time>
      </trkpt>
      <trkpt lat="42.9164" lon="0.82735">
        <ele>1658</ele>
        <time>2018-12-02T11:21:56.000Z</time>
      </trkpt>
      <trkpt lat="42.91639" lon="0.82734">
        <ele>1658</ele>
        <time>2018-12-02T11:21:58.000Z</time>
      </trkpt>
      <trkpt lat="42.91637" lon="0.82733">
        <ele>1658</ele>
        <time>2018-12-02T11:22:00.000Z</time>
      </trkpt>
      <trkpt lat="42.91635" lon="0.82732">
        <ele>1658</ele>
        <time>2018-12-02T11:22:02.000Z</time>
      </trkpt>
      <trkpt lat="42.91634" lon="0.82731">
        <ele>1658</ele>
        <time>2018-12-02T11:22:04.000Z</time>
      </trkpt>
      <trkpt lat="42.91632" lon="0.8273">
        <ele>1657</ele>
        <time>2018-12-02T11:22:06.000Z</time>
      </trkpt>
      <trkpt lat="42.91631" lon="0.82729">
        <ele>1657</ele>
        <time>2018-12-02T11:22:08.000Z</time>
      </trkpt>
      <trkpt lat="42.91629" lon="0.82727">
        <ele>1657</ele>
        <time>2018-12-02T11:22:10.000Z</time>
      </trkpt>
      <trkpt lat="42.91628" lon="0.82725">
        <ele>1657</ele>
        <time>2018-12-02T11:22:12.000Z</time>
      </trkpt>
      <trkpt lat="42.91627" lon="0.82723">
        <ele>1658</ele>
        <time>2018-12-02T11:22:14.000Z</time>
      </trkpt>
      <trkpt lat="42.91626" lon="0.82721">
        <ele>1658</ele>
        <time>2018-12-02T11:22:16.000Z</time>
      </trkpt>
      <trkpt lat="42.91625" lon="0.82719">
        <ele>1658</ele>
        <time>2018-12-02T11:22:18.000Z</time>
      </trkpt>
      <trkpt lat="42.91624" lon="0.82717">
        <ele>1657</ele>
        <time>2018-12-02T11:22:20.000Z</time>
      </trkpt>
      <trkpt lat="42.91623" lon="0.82716">
        <ele>1657</ele>
        <time>2018-12-02T11:22:22.000Z</time>
      </trkpt>
      <trkpt lat="42.91621" lon="0.82716">
        <ele>1657</ele>
        <time>2018-12-02T11:22:24.000Z</time>
      </trkpt>
      <trkpt lat="42.91619" lon="0.82715">
        <ele>1657</ele>
        <time>2018-12-02T11:22:26.000Z</time>
      </trkpt>
      <trkpt lat="42.91618" lon="0.82714">
        <ele>1657</ele>
        <time>2018-12-02T11:22:28.000Z</time>
      </trkpt>
      <trkpt lat="42.91616" lon="0.82714">
        <ele>1656</ele>
        <time>2018-12-02T11:22:30.000Z</time>
      </trkpt>
      <trkpt lat="42.91614" lon="0.82714">
        <ele>1656</ele>
        <time>2018-12-02T11:22:32.000Z</time>
      </trkpt>
      <trkpt lat="42.91613" lon="0.82714">
        <ele>1656</ele>
        <time>2018-12-02T11:22:34.000Z</time>
      </trkpt>
      <trkpt lat="42.91611" lon="0.82714">
        <ele>1656</ele>
        <time>2018-12-02T11:22:36.000Z</time>
      </trkpt>
      <trkpt lat="42.9161" lon="0.82714">
        <ele>1655</ele>
        <time>2018-12-02T11:22:38.000Z</time>
      </trkpt>
      <trkpt lat="42.91608" lon="0.82714">
        <ele>1655</ele>
        <time>2018-12-02T11:22:40.000Z</time>
      </trkpt>
      <trkpt lat="42.91607" lon="0.82714">
        <ele>1655</ele>
        <time>2018-12-02T11:22:42.000Z</time>
      </trkpt>
      <trkpt lat="42.91605" lon="0.82714">
        <ele>1655</ele>
        <time>2018-12-02T11:22:44.000Z</time>
      </trkpt>
      <trkpt lat="42.91603" lon="0.82714">
        <ele>1654</ele>
        <time>2018-12-02T11:22:46.000Z</time>
      </trkpt>
      <trkpt lat="42.91602" lon="0.82714">
        <ele>1654</ele>
        <time>2018-12-02T11:22:48.000Z</time>
      </trkpt>
      <trkpt lat="42.91599" lon="0.82714">
        <ele>1654</ele>
        <time>2018-12-02T11:22:51.000Z</time>
      </trkpt>
      <trkpt lat="42.91598" lon="0.82714">
        <ele>1654</ele>
        <time>2018-12-02T11:22:53.000Z</time>
      </trkpt>
      <trkpt lat="42.91596" lon="0.82714">
        <ele>1653</ele>
        <time>2018-12-02T11:22:55.000Z</time>
      </trkpt>
      <trkpt lat="42.91595" lon="0.82714">
        <ele>1653</ele>
        <time>2018-12-02T11:22:57.000Z</time>
      </trkpt>
      <trkpt lat="42.91594" lon="0.82714">
        <ele>1653</ele>
        <time>2018-12-02T11:22:59.000Z</time>
      </trkpt>
      <trkpt lat="42.91593" lon="0.82714">
        <ele>1653</ele>
        <time>2018-12-02T11:23:01.000Z</time>
      </trkpt>
      <trkpt lat="42.91591" lon="0.82714">
        <ele>1653</ele>
        <time>2018-12-02T11:23:03.000Z</time>
      </trkpt>
      <trkpt lat="42.9159" lon="0.82715">
        <ele>1652</ele>
        <time>2018-12-02T11:23:05.000Z</time>
      </trkpt>
      <trkpt lat="42.91588" lon="0.82716">
        <ele>1652</ele>
        <time>2018-12-02T11:23:07.000Z</time>
      </trkpt>
      <trkpt lat="42.91586" lon="0.82716">
        <ele>1651</ele>
        <time>2018-12-02T11:23:09.000Z</time>
      </trkpt>
      <trkpt lat="42.91585" lon="0.82714">
        <ele>1651</ele>
        <time>2018-12-02T11:23:11.000Z</time>
      </trkpt>
      <trkpt lat="42.91584" lon="0.82714">
        <ele>1651</ele>
        <time>2018-12-02T11:23:13.000Z</time>
      </trkpt>
      <trkpt lat="42.91583" lon="0.82714">
        <ele>1650</ele>
        <time>2018-12-02T11:23:15.000Z</time>
      </trkpt>
      <trkpt lat="42.91581" lon="0.82714">
        <ele>1650</ele>
        <time>2018-12-02T11:23:17.000Z</time>
      </trkpt>
      <trkpt lat="42.9158" lon="0.82714">
        <ele>1650</ele>
        <time>2018-12-02T11:23:19.000Z</time>
      </trkpt>
      <trkpt lat="42.91579" lon="0.82714">
        <ele>1649</ele>
        <time>2018-12-02T11:23:21.000Z</time>
      </trkpt>
      <trkpt lat="42.91578" lon="0.82715">
        <ele>1649</ele>
        <time>2018-12-02T11:23:23.000Z</time>
      </trkpt>
      <trkpt lat="42.91577" lon="0.82717">
        <ele>1649</ele>
        <time>2018-12-02T11:23:25.000Z</time>
      </trkpt>
      <trkpt lat="42.91575" lon="0.82718">
        <ele>1648</ele>
        <time>2018-12-02T11:23:27.000Z</time>
      </trkpt>
      <trkpt lat="42.91575" lon="0.8272">
        <ele>1648</ele>
        <time>2018-12-02T11:23:29.000Z</time>
      </trkpt>
      <trkpt lat="42.91573" lon="0.82721">
        <ele>1648</ele>
        <time>2018-12-02T11:23:31.000Z</time>
      </trkpt>
      <trkpt lat="42.91572" lon="0.82722">
        <ele>1647</ele>
        <time>2018-12-02T11:23:33.000Z</time>
      </trkpt>
      <trkpt lat="42.91571" lon="0.82723">
        <ele>1647</ele>
        <time>2018-12-02T11:23:35.000Z</time>
      </trkpt>
      <trkpt lat="42.91569" lon="0.82722">
        <ele>1646</ele>
        <time>2018-12-02T11:23:37.000Z</time>
      </trkpt>
      <trkpt lat="42.91568" lon="0.82721">
        <ele>1646</ele>
        <time>2018-12-02T11:23:39.000Z</time>
      </trkpt>
      <trkpt lat="42.91567" lon="0.8272">
        <ele>1646</ele>
        <time>2018-12-02T11:23:41.000Z</time>
      </trkpt>
      <trkpt lat="42.91566" lon="0.82717">
        <ele>1646</ele>
        <time>2018-12-02T11:23:43.000Z</time>
      </trkpt>
      <trkpt lat="42.91564" lon="0.82715">
        <ele>1645</ele>
        <time>2018-12-02T11:23:45.000Z</time>
      </trkpt>
      <trkpt lat="42.91563" lon="0.82713">
        <ele>1645</ele>
        <time>2018-12-02T11:23:47.000Z</time>
      </trkpt>
      <trkpt lat="42.91562" lon="0.82712">
        <ele>1645</ele>
        <time>2018-12-02T11:23:49.000Z</time>
      </trkpt>
      <trkpt lat="42.9156" lon="0.82711">
        <ele>1645</ele>
        <time>2018-12-02T11:23:51.000Z</time>
      </trkpt>
      <trkpt lat="42.91559" lon="0.8271">
        <ele>1644</ele>
        <time>2018-12-02T11:23:53.000Z</time>
      </trkpt>
      <trkpt lat="42.91557" lon="0.82709">
        <ele>1644</ele>
        <time>2018-12-02T11:23:55.000Z</time>
      </trkpt>
      <trkpt lat="42.91555" lon="0.82709">
        <ele>1643</ele>
        <time>2018-12-02T11:23:57.000Z</time>
      </trkpt>
      <trkpt lat="42.91554" lon="0.82709">
        <ele>1643</ele>
        <time>2018-12-02T11:23:59.000Z</time>
      </trkpt>
      <trkpt lat="42.91553" lon="0.82709">
        <ele>1643</ele>
        <time>2018-12-02T11:24:01.000Z</time>
      </trkpt>
      <trkpt lat="42.91552" lon="0.8271">
        <ele>1642</ele>
        <time>2018-12-02T11:24:03.000Z</time>
      </trkpt>
      <trkpt lat="42.9155" lon="0.8271">
        <ele>1642</ele>
        <time>2018-12-02T11:24:05.000Z</time>
      </trkpt>
      <trkpt lat="42.91549" lon="0.82709">
        <ele>1642</ele>
        <time>2018-12-02T11:24:07.000Z</time>
      </trkpt>
      <trkpt lat="42.91547" lon="0.82709">
        <ele>1641</ele>
        <time>2018-12-02T11:24:09.000Z</time>
      </trkpt>
      <trkpt lat="42.91546" lon="0.8271">
        <ele>1641</ele>
        <time>2018-12-02T11:24:11.000Z</time>
      </trkpt>
      <trkpt lat="42.91544" lon="0.8271">
        <ele>1640</ele>
        <time>2018-12-02T11:24:13.000Z</time>
      </trkpt>
      <trkpt lat="42.91542" lon="0.82709">
        <ele>1640</ele>
        <time>2018-12-02T11:24:15.000Z</time>
      </trkpt>
      <trkpt lat="42.9154" lon="0.82709">
        <ele>1639</ele>
        <time>2018-12-02T11:24:17.000Z</time>
      </trkpt>
      <trkpt lat="42.91538" lon="0.82709">
        <ele>1639</ele>
        <time>2018-12-02T11:24:19.000Z</time>
      </trkpt>
      <trkpt lat="42.91536" lon="0.82709">
        <ele>1638</ele>
        <time>2018-12-02T11:24:21.000Z</time>
      </trkpt>
      <trkpt lat="42.91535" lon="0.82708">
        <ele>1638</ele>
        <time>2018-12-02T11:24:23.000Z</time>
      </trkpt>
      <trkpt lat="42.91533" lon="0.82708">
        <ele>1638</ele>
        <time>2018-12-02T11:24:25.000Z</time>
      </trkpt>
      <trkpt lat="42.91532" lon="0.82708">
        <ele>1637</ele>
        <time>2018-12-02T11:24:27.000Z</time>
      </trkpt>
      <trkpt lat="42.91531" lon="0.8271">
        <ele>1637</ele>
        <time>2018-12-02T11:24:29.000Z</time>
      </trkpt>
      <trkpt lat="42.9153" lon="0.82711">
        <ele>1637</ele>
        <time>2018-12-02T11:24:31.000Z</time>
      </trkpt>
      <trkpt lat="42.91529" lon="0.82713">
        <ele>1636</ele>
        <time>2018-12-02T11:24:33.000Z</time>
      </trkpt>
      <trkpt lat="42.91528" lon="0.82714">
        <ele>1636</ele>
        <time>2018-12-02T11:24:35.000Z</time>
      </trkpt>
      <trkpt lat="42.91526" lon="0.82715">
        <ele>1635</ele>
        <time>2018-12-02T11:24:37.000Z</time>
      </trkpt>
      <trkpt lat="42.91525" lon="0.82716">
        <ele>1635</ele>
        <time>2018-12-02T11:24:39.000Z</time>
      </trkpt>
      <trkpt lat="42.91524" lon="0.82716">
        <ele>1635</ele>
        <time>2018-12-02T11:24:41.000Z</time>
      </trkpt>
      <trkpt lat="42.91523" lon="0.82717">
        <ele>1634</ele>
        <time>2018-12-02T11:24:43.000Z</time>
      </trkpt>
      <trkpt lat="42.91521" lon="0.82717">
        <ele>1634</ele>
        <time>2018-12-02T11:24:45.000Z</time>
      </trkpt>
      <trkpt lat="42.9152" lon="0.82718">
        <ele>1634</ele>
        <time>2018-12-02T11:24:47.000Z</time>
      </trkpt>
      <trkpt lat="42.91519" lon="0.8272">
        <ele>1633</ele>
        <time>2018-12-02T11:24:49.000Z</time>
      </trkpt>
      <trkpt lat="42.91517" lon="0.82721">
        <ele>1633</ele>
        <time>2018-12-02T11:24:51.000Z</time>
      </trkpt>
      <trkpt lat="42.91516" lon="0.82723">
        <ele>1632</ele>
        <time>2018-12-02T11:24:53.000Z</time>
      </trkpt>
      <trkpt lat="42.91515" lon="0.82724">
        <ele>1632</ele>
        <time>2018-12-02T11:24:55.000Z</time>
      </trkpt>
      <trkpt lat="42.91514" lon="0.82725">
        <ele>1631</ele>
        <time>2018-12-02T11:24:57.000Z</time>
      </trkpt>
      <trkpt lat="42.91513" lon="0.82727">
        <ele>1630</ele>
        <time>2018-12-02T11:24:59.000Z</time>
      </trkpt>
      <trkpt lat="42.91512" lon="0.82729">
        <ele>1630</ele>
        <time>2018-12-02T11:25:01.000Z</time>
      </trkpt>
      <trkpt lat="42.91512" lon="0.8273">
        <ele>1629</ele>
        <time>2018-12-02T11:25:03.000Z</time>
      </trkpt>
      <trkpt lat="42.91511" lon="0.82731">
        <ele>1629</ele>
        <time>2018-12-02T11:25:05.000Z</time>
      </trkpt>
      <trkpt lat="42.91509" lon="0.82731">
        <ele>1629</ele>
        <time>2018-12-02T11:25:07.000Z</time>
      </trkpt>
      <trkpt lat="42.91508" lon="0.8273">
        <ele>1629</ele>
        <time>2018-12-02T11:25:09.000Z</time>
      </trkpt>
      <trkpt lat="42.91506" lon="0.82728">
        <ele>1629</ele>
        <time>2018-12-02T11:25:11.000Z</time>
      </trkpt>
      <trkpt lat="42.91505" lon="0.82726">
        <ele>1629</ele>
        <time>2018-12-02T11:25:13.000Z</time>
      </trkpt>
      <trkpt lat="42.91504" lon="0.82724">
        <ele>1629</ele>
        <time>2018-12-02T11:25:15.000Z</time>
      </trkpt>
      <trkpt lat="42.91503" lon="0.82723">
        <ele>1629</ele>
        <time>2018-12-02T11:25:17.000Z</time>
      </trkpt>
      <trkpt lat="42.91502" lon="0.82721">
        <ele>1629</ele>
        <time>2018-12-02T11:25:19.000Z</time>
      </trkpt>
      <trkpt lat="42.91501" lon="0.8272">
        <ele>1629</ele>
        <time>2018-12-02T11:25:21.000Z</time>
      </trkpt>
      <trkpt lat="42.91499" lon="0.8272">
        <ele>1628</ele>
        <time>2018-12-02T11:25:23.000Z</time>
      </trkpt>
      <trkpt lat="42.91498" lon="0.8272">
        <ele>1628</ele>
        <time>2018-12-02T11:25:25.000Z</time>
      </trkpt>
      <trkpt lat="42.91497" lon="0.8272">
        <ele>1628</ele>
        <time>2018-12-02T11:25:27.000Z</time>
      </trkpt>
      <trkpt lat="42.91495" lon="0.82719">
        <ele>1627</ele>
        <time>2018-12-02T11:25:29.000Z</time>
      </trkpt>
      <trkpt lat="42.91494" lon="0.82718">
        <ele>1627</ele>
        <time>2018-12-02T11:25:31.000Z</time>
      </trkpt>
      <trkpt lat="42.91493" lon="0.82717">
        <ele>1627</ele>
        <time>2018-12-02T11:25:33.000Z</time>
      </trkpt>
      <trkpt lat="42.91491" lon="0.82716">
        <ele>1626</ele>
        <time>2018-12-02T11:25:35.000Z</time>
      </trkpt>
      <trkpt lat="42.9149" lon="0.82716">
        <ele>1626</ele>
        <time>2018-12-02T11:25:37.000Z</time>
      </trkpt>
      <trkpt lat="42.91489" lon="0.82716">
        <ele>1626</ele>
        <time>2018-12-02T11:25:39.000Z</time>
      </trkpt>
      <trkpt lat="42.91487" lon="0.82715">
        <ele>1626</ele>
        <time>2018-12-02T11:25:41.000Z</time>
      </trkpt>
      <trkpt lat="42.91486" lon="0.82714">
        <ele>1625</ele>
        <time>2018-12-02T11:25:43.000Z</time>
      </trkpt>
      <trkpt lat="42.91485" lon="0.82713">
        <ele>1625</ele>
        <time>2018-12-02T11:25:45.000Z</time>
      </trkpt>
      <trkpt lat="42.91483" lon="0.82712">
        <ele>1625</ele>
        <time>2018-12-02T11:25:47.000Z</time>
      </trkpt>
      <trkpt lat="42.91482" lon="0.82711">
        <ele>1624</ele>
        <time>2018-12-02T11:25:49.000Z</time>
      </trkpt>
      <trkpt lat="42.91481" lon="0.8271">
        <ele>1624</ele>
        <time>2018-12-02T11:25:51.000Z</time>
      </trkpt>
      <trkpt lat="42.91479" lon="0.82708">
        <ele>1624</ele>
        <time>2018-12-02T11:25:53.000Z</time>
      </trkpt>
      <trkpt lat="42.91478" lon="0.82708">
        <ele>1624</ele>
        <time>2018-12-02T11:25:55.000Z</time>
      </trkpt>
      <trkpt lat="42.91477" lon="0.82707">
        <ele>1623</ele>
        <time>2018-12-02T11:25:57.000Z</time>
      </trkpt>
      <trkpt lat="42.91475" lon="0.82707">
        <ele>1623</ele>
        <time>2018-12-02T11:25:59.000Z</time>
      </trkpt>
      <trkpt lat="42.91474" lon="0.82707">
        <ele>1623</ele>
        <time>2018-12-02T11:26:01.000Z</time>
      </trkpt>
      <trkpt lat="42.91473" lon="0.82708">
        <ele>1622</ele>
        <time>2018-12-02T11:26:03.000Z</time>
      </trkpt>
      <trkpt lat="42.91471" lon="0.82708">
        <ele>1622</ele>
        <time>2018-12-02T11:26:05.000Z</time>
      </trkpt>
      <trkpt lat="42.91469" lon="0.82707">
        <ele>1622</ele>
        <time>2018-12-02T11:26:07.000Z</time>
      </trkpt>
      <trkpt lat="42.91467" lon="0.82706">
        <ele>1621</ele>
        <time>2018-12-02T11:26:09.000Z</time>
      </trkpt>
      <trkpt lat="42.91465" lon="0.82705">
        <ele>1621</ele>
        <time>2018-12-02T11:26:11.000Z</time>
      </trkpt>
      <trkpt lat="42.91464" lon="0.82704">
        <ele>1620</ele>
        <time>2018-12-02T11:26:13.000Z</time>
      </trkpt>
      <trkpt lat="42.91463" lon="0.82703">
        <ele>1620</ele>
        <time>2018-12-02T11:26:15.000Z</time>
      </trkpt>
      <trkpt lat="42.91461" lon="0.82701">
        <ele>1620</ele>
        <time>2018-12-02T11:26:17.000Z</time>
      </trkpt>
      <trkpt lat="42.9146" lon="0.827">
        <ele>1620</ele>
        <time>2018-12-02T11:26:19.000Z</time>
      </trkpt>
      <trkpt lat="42.91459" lon="0.82698">
        <ele>1619</ele>
        <time>2018-12-02T11:26:21.000Z</time>
      </trkpt>
      <trkpt lat="42.91457" lon="0.82696">
        <ele>1619</ele>
        <time>2018-12-02T11:26:23.000Z</time>
      </trkpt>
      <trkpt lat="42.91456" lon="0.82695">
        <ele>1619</ele>
        <time>2018-12-02T11:26:25.000Z</time>
      </trkpt>
      <trkpt lat="42.91455" lon="0.82694">
        <ele>1619</ele>
        <time>2018-12-02T11:26:27.000Z</time>
      </trkpt>
      <trkpt lat="42.91453" lon="0.82692">
        <ele>1618</ele>
        <time>2018-12-02T11:26:29.000Z</time>
      </trkpt>
      <trkpt lat="42.91452" lon="0.82691">
        <ele>1618</ele>
        <time>2018-12-02T11:26:31.000Z</time>
      </trkpt>
      <trkpt lat="42.9145" lon="0.82689">
        <ele>1617</ele>
        <time>2018-12-02T11:26:33.000Z</time>
      </trkpt>
      <trkpt lat="42.91449" lon="0.82688">
        <ele>1617</ele>
        <time>2018-12-02T11:26:35.000Z</time>
      </trkpt>
      <trkpt lat="42.91448" lon="0.82687">
        <ele>1617</ele>
        <time>2018-12-02T11:26:37.000Z</time>
      </trkpt>
      <trkpt lat="42.91446" lon="0.82686">
        <ele>1617</ele>
        <time>2018-12-02T11:26:39.000Z</time>
      </trkpt>
      <trkpt lat="42.91445" lon="0.82686">
        <ele>1616</ele>
        <time>2018-12-02T11:26:41.000Z</time>
      </trkpt>
      <trkpt lat="42.91443" lon="0.82685">
        <ele>1616</ele>
        <time>2018-12-02T11:26:43.000Z</time>
      </trkpt>
      <trkpt lat="42.91441" lon="0.82684">
        <ele>1616</ele>
        <time>2018-12-02T11:26:45.000Z</time>
      </trkpt>
      <trkpt lat="42.9144" lon="0.82682">
        <ele>1615</ele>
        <time>2018-12-02T11:26:47.000Z</time>
      </trkpt>
      <trkpt lat="42.91438" lon="0.82681">
        <ele>1615</ele>
        <time>2018-12-02T11:26:49.000Z</time>
      </trkpt>
      <trkpt lat="42.91437" lon="0.82681">
        <ele>1614</ele>
        <time>2018-12-02T11:26:51.000Z</time>
      </trkpt>
      <trkpt lat="42.91436" lon="0.82682">
        <ele>1614</ele>
        <time>2018-12-02T11:26:53.000Z</time>
      </trkpt>
      <trkpt lat="42.91435" lon="0.82685">
        <ele>1614</ele>
        <time>2018-12-02T11:26:55.000Z</time>
      </trkpt>
      <trkpt lat="42.91435" lon="0.82686">
        <ele>1614</ele>
        <time>2018-12-02T11:26:57.000Z</time>
      </trkpt>
      <trkpt lat="42.91433" lon="0.82687">
        <ele>1613</ele>
        <time>2018-12-02T11:26:59.000Z</time>
      </trkpt>
      <trkpt lat="42.91432" lon="0.82686">
        <ele>1613</ele>
        <time>2018-12-02T11:27:01.000Z</time>
      </trkpt>
      <trkpt lat="42.9143" lon="0.82684">
        <ele>1613</ele>
        <time>2018-12-02T11:27:03.000Z</time>
      </trkpt>
      <trkpt lat="42.9143" lon="0.82683">
        <ele>1613</ele>
        <time>2018-12-02T11:27:05.000Z</time>
      </trkpt>
      <trkpt lat="42.9143" lon="0.82683">
        <ele>1613</ele>
        <time>2018-12-02T11:27:07.000Z</time>
      </trkpt>
      <trkpt lat="42.91429" lon="0.82684">
        <ele>1613</ele>
        <time>2018-12-02T11:27:09.000Z</time>
      </trkpt>
      <trkpt lat="42.91429" lon="0.82686">
        <ele>1613</ele>
        <time>2018-12-02T11:27:11.000Z</time>
      </trkpt>
      <trkpt lat="42.91429" lon="0.82687">
        <ele>1613</ele>
        <time>2018-12-02T11:27:13.000Z</time>
      </trkpt>
      <trkpt lat="42.91428" lon="0.82688">
        <ele>1612</ele>
        <time>2018-12-02T11:27:15.000Z</time>
      </trkpt>
      <trkpt lat="42.91428" lon="0.82689">
        <ele>1612</ele>
        <time>2018-12-02T11:27:17.000Z</time>
      </trkpt>
      <trkpt lat="42.91428" lon="0.82691">
        <ele>1612</ele>
        <time>2018-12-02T11:27:19.000Z</time>
      </trkpt>
      <trkpt lat="42.91428" lon="0.82693">
        <ele>1612</ele>
        <time>2018-12-02T11:27:21.000Z</time>
      </trkpt>
      <trkpt lat="42.91429" lon="0.82695">
        <ele>1613</ele>
        <time>2018-12-02T11:27:23.000Z</time>
      </trkpt>
      <trkpt lat="42.9143" lon="0.82697">
        <ele>1613</ele>
        <time>2018-12-02T11:27:25.000Z</time>
      </trkpt>
      <trkpt lat="42.9143" lon="0.827">
        <ele>1613</ele>
        <time>2018-12-02T11:27:27.000Z</time>
      </trkpt>
      <trkpt lat="42.91431" lon="0.82702">
        <ele>1613</ele>
        <time>2018-12-02T11:27:29.000Z</time>
      </trkpt>
      <trkpt lat="42.91431" lon="0.82705">
        <ele>1613</ele>
        <time>2018-12-02T11:27:31.000Z</time>
      </trkpt>
      <trkpt lat="42.91431" lon="0.82707">
        <ele>1613</ele>
        <time>2018-12-02T11:27:33.000Z</time>
      </trkpt>
      <trkpt lat="42.91432" lon="0.82709">
        <ele>1613</ele>
        <time>2018-12-02T11:27:35.000Z</time>
      </trkpt>
      <trkpt lat="42.91433" lon="0.82712">
        <ele>1613</ele>
        <time>2018-12-02T11:27:37.000Z</time>
      </trkpt>
      <trkpt lat="42.91433" lon="0.82716">
        <ele>1613</ele>
        <time>2018-12-02T11:27:39.000Z</time>
      </trkpt>
      <trkpt lat="42.91434" lon="0.82719">
        <ele>1613</ele>
        <time>2018-12-02T11:27:41.000Z</time>
      </trkpt>
      <trkpt lat="42.91433" lon="0.82723">
        <ele>1613</ele>
        <time>2018-12-02T11:27:43.000Z</time>
      </trkpt>
      <trkpt lat="42.91433" lon="0.82725">
        <ele>1613</ele>
        <time>2018-12-02T11:27:45.000Z</time>
      </trkpt>
      <trkpt lat="42.91432" lon="0.82728">
        <ele>1612</ele>
        <time>2018-12-02T11:27:47.000Z</time>
      </trkpt>
      <trkpt lat="42.91432" lon="0.82731">
        <ele>1612</ele>
        <time>2018-12-02T11:27:49.000Z</time>
      </trkpt>
      <trkpt lat="42.91432" lon="0.82734">
        <ele>1612</ele>
        <time>2018-12-02T11:27:51.000Z</time>
      </trkpt>
      <trkpt lat="42.91432" lon="0.82736">
        <ele>1611</ele>
        <time>2018-12-02T11:27:53.000Z</time>
      </trkpt>
      <trkpt lat="42.91431" lon="0.82739">
        <ele>1611</ele>
        <time>2018-12-02T11:27:55.000Z</time>
      </trkpt>
      <trkpt lat="42.91431" lon="0.82742">
        <ele>1611</ele>
        <time>2018-12-02T11:27:57.000Z</time>
      </trkpt>
      <trkpt lat="42.9143" lon="0.82744">
        <ele>1611</ele>
        <time>2018-12-02T11:27:59.000Z</time>
      </trkpt>
      <trkpt lat="42.9143" lon="0.82747">
        <ele>1611</ele>
        <time>2018-12-02T11:28:01.000Z</time>
      </trkpt>
      <trkpt lat="42.9143" lon="0.82751">
        <ele>1610</ele>
        <time>2018-12-02T11:28:03.000Z</time>
      </trkpt>
      <trkpt lat="42.91429" lon="0.82754">
        <ele>1610</ele>
        <time>2018-12-02T11:28:05.000Z</time>
      </trkpt>
      <trkpt lat="42.91429" lon="0.82757">
        <ele>1610</ele>
        <time>2018-12-02T11:28:07.000Z</time>
      </trkpt>
      <trkpt lat="42.91428" lon="0.8276">
        <ele>1610</ele>
        <time>2018-12-02T11:28:09.000Z</time>
      </trkpt>
      <trkpt lat="42.91427" lon="0.82762">
        <ele>1610</ele>
        <time>2018-12-02T11:28:11.000Z</time>
      </trkpt>
      <trkpt lat="42.91426" lon="0.82765">
        <ele>1609</ele>
        <time>2018-12-02T11:28:13.000Z</time>
      </trkpt>
      <trkpt lat="42.91425" lon="0.82768">
        <ele>1609</ele>
        <time>2018-12-02T11:28:15.000Z</time>
      </trkpt>
      <trkpt lat="42.91425" lon="0.82771">
        <ele>1609</ele>
        <time>2018-12-02T11:28:17.000Z</time>
      </trkpt>
      <trkpt lat="42.91423" lon="0.82773">
        <ele>1608</ele>
        <time>2018-12-02T11:28:19.000Z</time>
      </trkpt>
      <trkpt lat="42.91422" lon="0.82775">
        <ele>1608</ele>
        <time>2018-12-02T11:28:21.000Z</time>
      </trkpt>
      <trkpt lat="42.91421" lon="0.82777">
        <ele>1608</ele>
        <time>2018-12-02T11:28:23.000Z</time>
      </trkpt>
      <trkpt lat="42.9142" lon="0.8278">
        <ele>1607</ele>
        <time>2018-12-02T11:28:25.000Z</time>
      </trkpt>
      <trkpt lat="42.9142" lon="0.82781">
        <ele>1607</ele>
        <time>2018-12-02T11:28:27.000Z</time>
      </trkpt>
      <trkpt lat="42.91419" lon="0.82784">
        <ele>1607</ele>
        <time>2018-12-02T11:28:29.000Z</time>
      </trkpt>
      <trkpt lat="42.91418" lon="0.82786">
        <ele>1606</ele>
        <time>2018-12-02T11:28:31.000Z</time>
      </trkpt>
      <trkpt lat="42.91416" lon="0.82788">
        <ele>1605</ele>
        <time>2018-12-02T11:28:33.000Z</time>
      </trkpt>
      <trkpt lat="42.91415" lon="0.82789">
        <ele>1605</ele>
        <time>2018-12-02T11:28:35.000Z</time>
      </trkpt>
      <trkpt lat="42.91414" lon="0.8279">
        <ele>1604</ele>
        <time>2018-12-02T11:28:37.000Z</time>
      </trkpt>
      <trkpt lat="42.91412" lon="0.82792">
        <ele>1604</ele>
        <time>2018-12-02T11:28:39.000Z</time>
      </trkpt>
      <trkpt lat="42.91411" lon="0.82794">
        <ele>1603</ele>
        <time>2018-12-02T11:28:41.000Z</time>
      </trkpt>
      <trkpt lat="42.9141" lon="0.82796">
        <ele>1603</ele>
        <time>2018-12-02T11:28:43.000Z</time>
      </trkpt>
      <trkpt lat="42.91407" lon="0.82797">
        <ele>1602</ele>
        <time>2018-12-02T11:28:45.000Z</time>
      </trkpt>
      <trkpt lat="42.91406" lon="0.82798">
        <ele>1602</ele>
        <time>2018-12-02T11:28:47.000Z</time>
      </trkpt>
      <trkpt lat="42.91405" lon="0.82799">
        <ele>1602</ele>
        <time>2018-12-02T11:28:49.000Z</time>
      </trkpt>
      <trkpt lat="42.91404" lon="0.828">
        <ele>1601</ele>
        <time>2018-12-02T11:28:51.000Z</time>
      </trkpt>
      <trkpt lat="42.91403" lon="0.82802">
        <ele>1601</ele>
        <time>2018-12-02T11:28:53.000Z</time>
      </trkpt>
      <trkpt lat="42.91403" lon="0.82804">
        <ele>1601</ele>
        <time>2018-12-02T11:28:55.000Z</time>
      </trkpt>
      <trkpt lat="42.91402" lon="0.82806">
        <ele>1600</ele>
        <time>2018-12-02T11:28:57.000Z</time>
      </trkpt>
      <trkpt lat="42.91401" lon="0.82808">
        <ele>1599</ele>
        <time>2018-12-02T11:28:59.000Z</time>
      </trkpt>
      <trkpt lat="42.914" lon="0.8281">
        <ele>1599</ele>
        <time>2018-12-02T11:29:01.000Z</time>
      </trkpt>
      <trkpt lat="42.91399" lon="0.82811">
        <ele>1598</ele>
        <time>2018-12-02T11:29:03.000Z</time>
      </trkpt>
      <trkpt lat="42.91398" lon="0.82813">
        <ele>1597</ele>
        <time>2018-12-02T11:29:05.000Z</time>
      </trkpt>
      <trkpt lat="42.91396" lon="0.82813">
        <ele>1597</ele>
        <time>2018-12-02T11:29:07.000Z</time>
      </trkpt>
      <trkpt lat="42.91395" lon="0.82814">
        <ele>1596</ele>
        <time>2018-12-02T11:29:09.000Z</time>
      </trkpt>
      <trkpt lat="42.91394" lon="0.82815">
        <ele>1596</ele>
        <time>2018-12-02T11:29:11.000Z</time>
      </trkpt>
      <trkpt lat="42.91392" lon="0.82816">
        <ele>1595</ele>
        <time>2018-12-02T11:29:13.000Z</time>
      </trkpt>
      <trkpt lat="42.9139" lon="0.82816">
        <ele>1594</ele>
        <time>2018-12-02T11:29:15.000Z</time>
      </trkpt>
      <trkpt lat="42.91389" lon="0.82818">
        <ele>1594</ele>
        <time>2018-12-02T11:29:17.000Z</time>
      </trkpt>
      <trkpt lat="42.91387" lon="0.82819">
        <ele>1593</ele>
        <time>2018-12-02T11:29:19.000Z</time>
      </trkpt>
      <trkpt lat="42.91386" lon="0.8282">
        <ele>1592</ele>
        <time>2018-12-02T11:29:21.000Z</time>
      </trkpt>
      <trkpt lat="42.91385" lon="0.82821">
        <ele>1592</ele>
        <time>2018-12-02T11:29:23.000Z</time>
      </trkpt>
      <trkpt lat="42.91383" lon="0.82822">
        <ele>1591</ele>
        <time>2018-12-02T11:29:25.000Z</time>
      </trkpt>
      <trkpt lat="42.91381" lon="0.82823">
        <ele>1590</ele>
        <time>2018-12-02T11:29:27.000Z</time>
      </trkpt>
      <trkpt lat="42.91379" lon="0.82824">
        <ele>1589</ele>
        <time>2018-12-02T11:29:29.000Z</time>
      </trkpt>
      <trkpt lat="42.91378" lon="0.82825">
        <ele>1589</ele>
        <time>2018-12-02T11:29:31.000Z</time>
      </trkpt>
      <trkpt lat="42.91376" lon="0.82826">
        <ele>1588</ele>
        <time>2018-12-02T11:29:33.000Z</time>
      </trkpt>
      <trkpt lat="42.91374" lon="0.82827">
        <ele>1587</ele>
        <time>2018-12-02T11:29:35.000Z</time>
      </trkpt>
      <trkpt lat="42.91372" lon="0.82828">
        <ele>1586</ele>
        <time>2018-12-02T11:29:37.000Z</time>
      </trkpt>
      <trkpt lat="42.9137" lon="0.82829">
        <ele>1586</ele>
        <time>2018-12-02T11:29:39.000Z</time>
      </trkpt>
      <trkpt lat="42.91369" lon="0.82831">
        <ele>1585</ele>
        <time>2018-12-02T11:29:41.000Z</time>
      </trkpt>
      <trkpt lat="42.91368" lon="0.82833">
        <ele>1584</ele>
        <time>2018-12-02T11:29:43.000Z</time>
      </trkpt>
      <trkpt lat="42.91367" lon="0.82835">
        <ele>1584</ele>
        <time>2018-12-02T11:29:45.000Z</time>
      </trkpt>
      <trkpt lat="42.91366" lon="0.82836">
        <ele>1583</ele>
        <time>2018-12-02T11:29:47.000Z</time>
      </trkpt>
      <trkpt lat="42.91365" lon="0.82837">
        <ele>1583</ele>
        <time>2018-12-02T11:29:49.000Z</time>
      </trkpt>
      <trkpt lat="42.91364" lon="0.82838">
        <ele>1582</ele>
        <time>2018-12-02T11:29:51.000Z</time>
      </trkpt>
      <trkpt lat="42.91363" lon="0.82839">
        <ele>1582</ele>
        <time>2018-12-02T11:29:53.000Z</time>
      </trkpt>
      <trkpt lat="42.91362" lon="0.8284">
        <ele>1581</ele>
        <time>2018-12-02T11:29:55.000Z</time>
      </trkpt>
      <trkpt lat="42.91362" lon="0.8284">
        <ele>1581</ele>
        <time>2018-12-02T11:29:57.000Z</time>
      </trkpt>
      <trkpt lat="42.91362" lon="0.8284">
        <ele>1581</ele>
        <time>2018-12-02T11:29:59.000Z</time>
      </trkpt>
      <trkpt lat="42.91362" lon="0.8284">
        <ele>1581</ele>
        <time>2018-12-02T11:30:01.000Z</time>
      </trkpt>
      <trkpt lat="42.91363" lon="0.8284">
        <ele>1581</ele>
        <time>2018-12-02T11:30:03.000Z</time>
      </trkpt>
      <trkpt lat="42.91363" lon="0.82841">
        <ele>1582</ele>
        <time>2018-12-02T11:30:05.000Z</time>
      </trkpt>
      <trkpt lat="42.91363" lon="0.82841">
        <ele>1582</ele>
        <time>2018-12-02T11:30:07.000Z</time>
      </trkpt>
      <trkpt lat="42.91363" lon="0.82841">
        <ele>1581</ele>
        <time>2018-12-02T11:30:09.000Z</time>
      </trkpt>
      <trkpt lat="42.91363" lon="0.82841">
        <ele>1581</ele>
        <time>2018-12-02T11:30:11.000Z</time>
      </trkpt>
      <trkpt lat="42.91363" lon="0.82841">
        <ele>1581</ele>
        <time>2018-12-02T11:30:13.000Z</time>
      </trkpt>
      <trkpt lat="42.91363" lon="0.82841">
        <ele>1581</ele>
        <time>2018-12-02T11:30:15.000Z</time>
      </trkpt>
      <trkpt lat="42.91363" lon="0.82841">
        <ele>1581</ele>
        <time>2018-12-02T11:30:17.000Z</time>
      </trkpt>
      <trkpt lat="42.91363" lon="0.82841">
        <ele>1581</ele>
        <time>2018-12-02T11:30:19.000Z</time>
      </trkpt>
      <trkpt lat="42.91363" lon="0.82841">
        <ele>1581</ele>
        <time>2018-12-02T11:30:21.000Z</time>
      </trkpt>
      <trkpt lat="42.91363" lon="0.82841">
        <ele>1581</ele>
        <time>2018-12-02T11:30:23.000Z</time>
      </trkpt>
      <trkpt lat="42.91363" lon="0.8284">
        <ele>1581</ele>
        <time>2018-12-02T11:30:25.000Z</time>
      </trkpt>
      <trkpt lat="42.91362" lon="0.8284">
        <ele>1581</ele>
        <time>2018-12-02T11:30:27.000Z</time>
      </trkpt>
      <trkpt lat="42.91362" lon="0.8284">
        <ele>1581</ele>
        <time>2018-12-02T11:30:29.000Z</time>
      </trkpt>
      <trkpt lat="42.91362" lon="0.8284">
        <ele>1581</ele>
        <time>2018-12-02T11:30:31.000Z</time>
      </trkpt>
      <trkpt lat="42.91362" lon="0.82841">
        <ele>1581</ele>
        <time>2018-12-02T11:30:33.000Z</time>
      </trkpt>
      <trkpt lat="42.91362" lon="0.82842">
        <ele>1581</ele>
        <time>2018-12-02T11:30:35.000Z</time>
      </trkpt>
      <trkpt lat="42.91362" lon="0.82843">
        <ele>1581</ele>
        <time>2018-12-02T11:30:37.000Z</time>
      </trkpt>
      <trkpt lat="42.91361" lon="0.82845">
        <ele>1580</ele>
        <time>2018-12-02T11:30:39.000Z</time>
      </trkpt>
      <trkpt lat="42.9136" lon="0.82846">
        <ele>1580</ele>
        <time>2018-12-02T11:30:41.000Z</time>
      </trkpt>
      <trkpt lat="42.91359" lon="0.82847">
        <ele>1579</ele>
        <time>2018-12-02T11:30:43.000Z</time>
      </trkpt>
      <trkpt lat="42.91357" lon="0.82848">
        <ele>1579</ele>
        <time>2018-12-02T11:30:46.000Z</time>
      </trkpt>
      <trkpt lat="42.91356" lon="0.82848">
        <ele>1578</ele>
        <time>2018-12-02T11:30:48.000Z</time>
      </trkpt>
      <trkpt lat="42.91355" lon="0.82849">
        <ele>1578</ele>
        <time>2018-12-02T11:30:50.000Z</time>
      </trkpt>
      <trkpt lat="42.91353" lon="0.82851">
        <ele>1577</ele>
        <time>2018-12-02T11:30:52.000Z</time>
      </trkpt>
      <trkpt lat="42.91351" lon="0.82852">
        <ele>1577</ele>
        <time>2018-12-02T11:30:54.000Z</time>
      </trkpt>
      <trkpt lat="42.9135" lon="0.82853">
        <ele>1576</ele>
        <time>2018-12-02T11:30:56.000Z</time>
      </trkpt>
      <trkpt lat="42.91348" lon="0.82854">
        <ele>1576</ele>
        <time>2018-12-02T11:30:58.000Z</time>
      </trkpt>
      <trkpt lat="42.91347" lon="0.82854">
        <ele>1575</ele>
        <time>2018-12-02T11:31:00.000Z</time>
      </trkpt>
      <trkpt lat="42.91346" lon="0.82855">
        <ele>1575</ele>
        <time>2018-12-02T11:31:02.000Z</time>
      </trkpt>
      <trkpt lat="42.91345" lon="0.82856">
        <ele>1574</ele>
        <time>2018-12-02T11:31:04.000Z</time>
      </trkpt>
      <trkpt lat="42.91344" lon="0.82857">
        <ele>1574</ele>
        <time>2018-12-02T11:31:06.000Z</time>
      </trkpt>
      <trkpt lat="42.91342" lon="0.82858">
        <ele>1573</ele>
        <time>2018-12-02T11:31:08.000Z</time>
      </trkpt>
      <trkpt lat="42.9134" lon="0.82859">
        <ele>1573</ele>
        <time>2018-12-02T11:31:10.000Z</time>
      </trkpt>
      <trkpt lat="42.91339" lon="0.8286">
        <ele>1572</ele>
        <time>2018-12-02T11:31:12.000Z</time>
      </trkpt>
      <trkpt lat="42.91338" lon="0.82861">
        <ele>1571</ele>
        <time>2018-12-02T11:31:14.000Z</time>
      </trkpt>
      <trkpt lat="42.91338" lon="0.82862">
        <ele>1571</ele>
        <time>2018-12-02T11:31:16.000Z</time>
      </trkpt>
      <trkpt lat="42.91337" lon="0.82864">
        <ele>1571</ele>
        <time>2018-12-02T11:31:18.000Z</time>
      </trkpt>
      <trkpt lat="42.91336" lon="0.82865">
        <ele>1570</ele>
        <time>2018-12-02T11:31:20.000Z</time>
      </trkpt>
      <trkpt lat="42.91335" lon="0.82866">
        <ele>1569</ele>
        <time>2018-12-02T11:31:22.000Z</time>
      </trkpt>
      <trkpt lat="42.91334" lon="0.82867">
        <ele>1569</ele>
        <time>2018-12-02T11:31:24.000Z</time>
      </trkpt>
      <trkpt lat="42.91333" lon="0.82867">
        <ele>1568</ele>
        <time>2018-12-02T11:31:26.000Z</time>
      </trkpt>
      <trkpt lat="42.91332" lon="0.82868">
        <ele>1568</ele>
        <time>2018-12-02T11:31:28.000Z</time>
      </trkpt>
      <trkpt lat="42.9133" lon="0.82869">
        <ele>1567</ele>
        <time>2018-12-02T11:31:31.000Z</time>
      </trkpt>
      <trkpt lat="42.91329" lon="0.8287">
        <ele>1566</ele>
        <time>2018-12-02T11:31:33.000Z</time>
      </trkpt>
      <trkpt lat="42.91329" lon="0.82871">
        <ele>1566</ele>
        <time>2018-12-02T11:31:35.000Z</time>
      </trkpt>
      <trkpt lat="42.91327" lon="0.82873">
        <ele>1565</ele>
        <time>2018-12-02T11:31:37.000Z</time>
      </trkpt>
      <trkpt lat="42.91326" lon="0.82874">
        <ele>1564</ele>
        <time>2018-12-02T11:31:39.000Z</time>
      </trkpt>
      <trkpt lat="42.91325" lon="0.82874">
        <ele>1564</ele>
        <time>2018-12-02T11:31:41.000Z</time>
      </trkpt>
      <trkpt lat="42.91325" lon="0.82875">
        <ele>1563</ele>
        <time>2018-12-02T11:31:43.000Z</time>
      </trkpt>
      <trkpt lat="42.91324" lon="0.82876">
        <ele>1563</ele>
        <time>2018-12-02T11:31:45.000Z</time>
      </trkpt>
      <trkpt lat="42.91323" lon="0.82877">
        <ele>1563</ele>
        <time>2018-12-02T11:31:47.000Z</time>
      </trkpt>
      <trkpt lat="42.91322" lon="0.82878">
        <ele>1563</ele>
        <time>2018-12-02T11:31:49.000Z</time>
      </trkpt>
      <trkpt lat="42.91321" lon="0.82879">
        <ele>1562</ele>
        <time>2018-12-02T11:31:51.000Z</time>
      </trkpt>
      <trkpt lat="42.9132" lon="0.82879">
        <ele>1562</ele>
        <time>2018-12-02T11:31:53.000Z</time>
      </trkpt>
      <trkpt lat="42.91319" lon="0.82878">
        <ele>1562</ele>
        <time>2018-12-02T11:31:55.000Z</time>
      </trkpt>
      <trkpt lat="42.91318" lon="0.82877">
        <ele>1562</ele>
        <time>2018-12-02T11:31:57.000Z</time>
      </trkpt>
      <trkpt lat="42.91318" lon="0.82876">
        <ele>1562</ele>
        <time>2018-12-02T11:31:59.000Z</time>
      </trkpt>
      <trkpt lat="42.91318" lon="0.82876">
        <ele>1562</ele>
        <time>2018-12-02T11:32:01.000Z</time>
      </trkpt>
      <trkpt lat="42.91318" lon="0.82876">
        <ele>1562</ele>
        <time>2018-12-02T11:32:03.000Z</time>
      </trkpt>
      <trkpt lat="42.91319" lon="0.82876">
        <ele>1562</ele>
        <time>2018-12-02T11:32:06.000Z</time>
      </trkpt>
      <trkpt lat="42.91318" lon="0.82876">
        <ele>1562</ele>
        <time>2018-12-02T11:32:09.000Z</time>
      </trkpt>
      <trkpt lat="42.91318" lon="0.82877">
        <ele>1562</ele>
        <time>2018-12-02T11:32:12.000Z</time>
      </trkpt>
      <trkpt lat="42.91318" lon="0.82877">
        <ele>1561</ele>
        <time>2018-12-02T11:32:14.000Z</time>
      </trkpt>
      <trkpt lat="42.91318" lon="0.82877">
        <ele>1562</ele>
        <time>2018-12-02T11:32:16.000Z</time>
      </trkpt>
      <trkpt lat="42.91318" lon="0.82877">
        <ele>1562</ele>
        <time>2018-12-02T11:32:18.000Z</time>
      </trkpt>
      <trkpt lat="42.91318" lon="0.82877">
        <ele>1562</ele>
        <time>2018-12-02T11:32:20.000Z</time>
      </trkpt>
      <trkpt lat="42.91318" lon="0.82877">
        <ele>1562</ele>
        <time>2018-12-02T11:32:22.000Z</time>
      </trkpt>
      <trkpt lat="42.91318" lon="0.82877">
        <ele>1562</ele>
        <time>2018-12-02T11:32:24.000Z</time>
      </trkpt>
      <trkpt lat="42.91318" lon="0.82877">
        <ele>1562</ele>
        <time>2018-12-02T11:32:26.000Z</time>
      </trkpt>
      <trkpt lat="42.91318" lon="0.82878">
        <ele>1562</ele>
        <time>2018-12-02T11:32:28.000Z</time>
      </trkpt>
      <trkpt lat="42.91318" lon="0.82878">
        <ele>1562</ele>
        <time>2018-12-02T11:32:30.000Z</time>
      </trkpt>
      <trkpt lat="42.91318" lon="0.82878">
        <ele>1562</ele>
        <time>2018-12-02T11:32:32.000Z</time>
      </trkpt>
      <trkpt lat="42.91318" lon="0.82878">
        <ele>1562</ele>
        <time>2018-12-02T11:32:35.000Z</time>
      </trkpt>
      <trkpt lat="42.91319" lon="0.82878">
        <ele>1562</ele>
        <time>2018-12-02T11:32:37.000Z</time>
      </trkpt>
      <trkpt lat="42.91319" lon="0.82879">
        <ele>1562</ele>
        <time>2018-12-02T11:32:39.000Z</time>
      </trkpt>
      <trkpt lat="42.91319" lon="0.82879">
        <ele>1562</ele>
        <time>2018-12-02T11:32:41.000Z</time>
      </trkpt>
      <trkpt lat="42.91319" lon="0.82879">
        <ele>1562</ele>
        <time>2018-12-02T11:32:43.000Z</time>
      </trkpt>
      <trkpt lat="42.9132" lon="0.82879">
        <ele>1562</ele>
        <time>2018-12-02T11:32:45.000Z</time>
      </trkpt>
      <trkpt lat="42.9132" lon="0.82879">
        <ele>1562</ele>
        <time>2018-12-02T11:32:47.000Z</time>
      </trkpt>
      <trkpt lat="42.9132" lon="0.82878">
        <ele>1562</ele>
        <time>2018-12-02T11:32:49.000Z</time>
      </trkpt>
      <trkpt lat="42.9132" lon="0.82878">
        <ele>1562</ele>
        <time>2018-12-02T11:32:51.000Z</time>
      </trkpt>
      <trkpt lat="42.9132" lon="0.82878">
        <ele>1562</ele>
        <time>2018-12-02T11:32:53.000Z</time>
      </trkpt>
      <trkpt lat="42.9132" lon="0.82878">
        <ele>1562</ele>
        <time>2018-12-02T11:32:55.000Z</time>
      </trkpt>
      <trkpt lat="42.91319" lon="0.82878">
        <ele>1562</ele>
        <time>2018-12-02T11:32:57.000Z</time>
      </trkpt>
      <trkpt lat="42.91319" lon="0.82878">
        <ele>1562</ele>
        <time>2018-12-02T11:32:59.000Z</time>
      </trkpt>
      <trkpt lat="42.91319" lon="0.82878">
        <ele>1562</ele>
        <time>2018-12-02T11:33:01.000Z</time>
      </trkpt>
      <trkpt lat="42.91319" lon="0.82878">
        <ele>1562</ele>
        <time>2018-12-02T11:33:03.000Z</time>
      </trkpt>
      <trkpt lat="42.91319" lon="0.82878">
        <ele>1562</ele>
        <time>2018-12-02T11:33:05.000Z</time>
      </trkpt>
      <trkpt lat="42.91319" lon="0.82878">
        <ele>1562</ele>
        <time>2018-12-02T11:33:07.000Z</time>
      </trkpt>
      <trkpt lat="42.91319" lon="0.82878">
        <ele>1562</ele>
        <time>2018-12-02T11:33:09.000Z</time>
      </trkpt>
      <trkpt lat="42.91319" lon="0.82878">
        <ele>1562</ele>
        <time>2018-12-02T11:33:11.000Z</time>
      </trkpt>
      <trkpt lat="42.91319" lon="0.82878">
        <ele>1562</ele>
        <time>2018-12-02T11:33:13.000Z</time>
      </trkpt>
      <trkpt lat="42.91319" lon="0.82878">
        <ele>1562</ele>
        <time>2018-12-02T11:33:15.000Z</time>
      </trkpt>
      <trkpt lat="42.91319" lon="0.82878">
        <ele>1562</ele>
        <time>2018-12-02T11:33:17.000Z</time>
      </trkpt>
      <trkpt lat="42.91319" lon="0.82878">
        <ele>1562</ele>
        <time>2018-12-02T11:33:19.000Z</time>
      </trkpt>
      <trkpt lat="42.91319" lon="0.82879">
        <ele>1562</ele>
        <time>2018-12-02T11:33:21.000Z</time>
      </trkpt>
      <trkpt lat="42.91319" lon="0.82878">
        <ele>1562</ele>
        <time>2018-12-02T11:33:23.000Z</time>
      </trkpt>
      <trkpt lat="42.91319" lon="0.82878">
        <ele>1562</ele>
        <time>2018-12-02T11:33:26.000Z</time>
      </trkpt>
      <trkpt lat="42.9132" lon="0.82878">
        <ele>1562</ele>
        <time>2018-12-02T11:33:28.000Z</time>
      </trkpt>
      <trkpt lat="42.91319" lon="0.82878">
        <ele>1562</ele>
        <time>2018-12-02T11:33:30.000Z</time>
      </trkpt>
      <trkpt lat="42.91319" lon="0.82878">
        <ele>1562</ele>
        <time>2018-12-02T11:33:32.000Z</time>
      </trkpt>
      <trkpt lat="42.91319" lon="0.82878">
        <ele>1562</ele>
        <time>2018-12-02T11:33:34.000Z</time>
      </trkpt>
      <trkpt lat="42.91319" lon="0.82878">
        <ele>1562</ele>
        <time>2018-12-02T11:33:37.000Z</time>
      </trkpt>
      <trkpt lat="42.91319" lon="0.82877">
        <ele>1562</ele>
        <time>2018-12-02T11:33:39.000Z</time>
      </trkpt>
      <trkpt lat="42.91319" lon="0.82877">
        <ele>1562</ele>
        <time>2018-12-02T11:33:41.000Z</time>
      </trkpt>
      <trkpt lat="42.91319" lon="0.82877">
        <ele>1562</ele>
        <time>2018-12-02T11:33:43.000Z</time>
      </trkpt>
      <trkpt lat="42.91319" lon="0.82877">
        <ele>1562</ele>
        <time>2018-12-02T11:33:45.000Z</time>
      </trkpt>
      <trkpt lat="42.91319" lon="0.82877">
        <ele>1562</ele>
        <time>2018-12-02T11:33:47.000Z</time>
      </trkpt>
      <trkpt lat="42.91319" lon="0.82877">
        <ele>1562</ele>
        <time>2018-12-02T11:33:49.000Z</time>
      </trkpt>
      <trkpt lat="42.91319" lon="0.82877">
        <ele>1562</ele>
        <time>2018-12-02T11:33:51.000Z</time>
      </trkpt>
      <trkpt lat="42.91319" lon="0.82878">
        <ele>1562</ele>
        <time>2018-12-02T11:33:53.000Z</time>
      </trkpt>
      <trkpt lat="42.91319" lon="0.82878">
        <ele>1562</ele>
        <time>2018-12-02T11:33:55.000Z</time>
      </trkpt>
      <trkpt lat="42.91319" lon="0.82878">
        <ele>1562</ele>
        <time>2018-12-02T11:33:57.000Z</time>
      </trkpt>
      <trkpt lat="42.91319" lon="0.82878">
        <ele>1562</ele>
        <time>2018-12-02T11:33:59.000Z</time>
      </trkpt>
      <trkpt lat="42.9132" lon="0.82878">
        <ele>1562</ele>
        <time>2018-12-02T11:34:01.000Z</time>
      </trkpt>
      <trkpt lat="42.9132" lon="0.82877">
        <ele>1562</ele>
        <time>2018-12-02T11:34:03.000Z</time>
      </trkpt>
      <trkpt lat="42.9132" lon="0.82878">
        <ele>1562</ele>
        <time>2018-12-02T11:34:05.000Z</time>
      </trkpt>
      <trkpt lat="42.9132" lon="0.82878">
        <ele>1562</ele>
        <time>2018-12-02T11:34:07.000Z</time>
      </trkpt>
      <trkpt lat="42.9132" lon="0.82879">
        <ele>1562</ele>
        <time>2018-12-02T11:34:09.000Z</time>
      </trkpt>
      <trkpt lat="42.91319" lon="0.8288">
        <ele>1562</ele>
        <time>2018-12-02T11:34:11.000Z</time>
      </trkpt>
      <trkpt lat="42.91318" lon="0.82882">
        <ele>1562</ele>
        <time>2018-12-02T11:34:13.000Z</time>
      </trkpt>
      <trkpt lat="42.91317" lon="0.82882">
        <ele>1561</ele>
        <time>2018-12-02T11:34:15.000Z</time>
      </trkpt>
      <trkpt lat="42.91315" lon="0.82884">
        <ele>1561</ele>
        <time>2018-12-02T11:34:17.000Z</time>
      </trkpt>
      <trkpt lat="42.91314" lon="0.82885">
        <ele>1560</ele>
        <time>2018-12-02T11:34:19.000Z</time>
      </trkpt>
      <trkpt lat="42.9131" lon="0.82886">
        <ele>1559</ele>
        <time>2018-12-02T11:34:22.000Z</time>
      </trkpt>
      <trkpt lat="42.91309" lon="0.82887">
        <ele>1559</ele>
        <time>2018-12-02T11:34:24.000Z</time>
      </trkpt>
      <trkpt lat="42.91307" lon="0.82887">
        <ele>1558</ele>
        <time>2018-12-02T11:34:26.000Z</time>
      </trkpt>
      <trkpt lat="42.91305" lon="0.82887">
        <ele>1558</ele>
        <time>2018-12-02T11:34:28.000Z</time>
      </trkpt>
      <trkpt lat="42.91304" lon="0.82888">
        <ele>1557</ele>
        <time>2018-12-02T11:34:30.000Z</time>
      </trkpt>
      <trkpt lat="42.91303" lon="0.82888">
        <ele>1557</ele>
        <time>2018-12-02T11:34:32.000Z</time>
      </trkpt>
      <trkpt lat="42.91301" lon="0.82889">
        <ele>1557</ele>
        <time>2018-12-02T11:34:34.000Z</time>
      </trkpt>
      <trkpt lat="42.913" lon="0.82889">
        <ele>1556</ele>
        <time>2018-12-02T11:34:36.000Z</time>
      </trkpt>
      <trkpt lat="42.91299" lon="0.8289">
        <ele>1556</ele>
        <time>2018-12-02T11:34:38.000Z</time>
      </trkpt>
      <trkpt lat="42.91298" lon="0.82891">
        <ele>1555</ele>
        <time>2018-12-02T11:34:40.000Z</time>
      </trkpt>
      <trkpt lat="42.91296" lon="0.82891">
        <ele>1555</ele>
        <time>2018-12-02T11:34:42.000Z</time>
      </trkpt>
      <trkpt lat="42.91294" lon="0.82892">
        <ele>1554</ele>
        <time>2018-12-02T11:34:44.000Z</time>
      </trkpt>
      <trkpt lat="42.91292" lon="0.82891">
        <ele>1554</ele>
        <time>2018-12-02T11:34:46.000Z</time>
      </trkpt>
      <trkpt lat="42.9129" lon="0.82891">
        <ele>1553</ele>
        <time>2018-12-02T11:34:49.000Z</time>
      </trkpt>
      <trkpt lat="42.91288" lon="0.82891">
        <ele>1552</ele>
        <time>2018-12-02T11:34:51.000Z</time>
      </trkpt>
      <trkpt lat="42.91287" lon="0.82891">
        <ele>1552</ele>
        <time>2018-12-02T11:34:53.000Z</time>
      </trkpt>
      <trkpt lat="42.91286" lon="0.82892">
        <ele>1552</ele>
        <time>2018-12-02T11:34:55.000Z</time>
      </trkpt>
      <trkpt lat="42.91285" lon="0.82892">
        <ele>1551</ele>
        <time>2018-12-02T11:34:57.000Z</time>
      </trkpt>
      <trkpt lat="42.91284" lon="0.82893">
        <ele>1551</ele>
        <time>2018-12-02T11:34:59.000Z</time>
      </trkpt>
      <trkpt lat="42.91283" lon="0.82893">
        <ele>1550</ele>
        <time>2018-12-02T11:35:01.000Z</time>
      </trkpt>
      <trkpt lat="42.91282" lon="0.82894">
        <ele>1550</ele>
        <time>2018-12-02T11:35:03.000Z</time>
      </trkpt>
      <trkpt lat="42.91281" lon="0.82894">
        <ele>1550</ele>
        <time>2018-12-02T11:35:05.000Z</time>
      </trkpt>
      <trkpt lat="42.91279" lon="0.82894">
        <ele>1549</ele>
        <time>2018-12-02T11:35:07.000Z</time>
      </trkpt>
      <trkpt lat="42.91278" lon="0.82893">
        <ele>1549</ele>
        <time>2018-12-02T11:35:09.000Z</time>
      </trkpt>
      <trkpt lat="42.91277" lon="0.82893">
        <ele>1549</ele>
        <time>2018-12-02T11:35:11.000Z</time>
      </trkpt>
      <trkpt lat="42.91276" lon="0.82895">
        <ele>1548</ele>
        <time>2018-12-02T11:35:13.000Z</time>
      </trkpt>
      <trkpt lat="42.91275" lon="0.82896">
        <ele>1548</ele>
        <time>2018-12-02T11:35:15.000Z</time>
      </trkpt>
      <trkpt lat="42.91274" lon="0.82896">
        <ele>1547</ele>
        <time>2018-12-02T11:35:17.000Z</time>
      </trkpt>
      <trkpt lat="42.91273" lon="0.82898">
        <ele>1546</ele>
        <time>2018-12-02T11:35:19.000Z</time>
      </trkpt>
      <trkpt lat="42.91273" lon="0.82898">
        <ele>1546</ele>
        <time>2018-12-02T11:35:21.000Z</time>
      </trkpt>
      <trkpt lat="42.91271" lon="0.82899">
        <ele>1545</ele>
        <time>2018-12-02T11:35:23.000Z</time>
      </trkpt>
      <trkpt lat="42.9127" lon="0.829">
        <ele>1545</ele>
        <time>2018-12-02T11:35:26.000Z</time>
      </trkpt>
      <trkpt lat="42.91269" lon="0.82901">
        <ele>1544</ele>
        <time>2018-12-02T11:35:28.000Z</time>
      </trkpt>
      <trkpt lat="42.91268" lon="0.82902">
        <ele>1544</ele>
        <time>2018-12-02T11:35:30.000Z</time>
      </trkpt>
      <trkpt lat="42.91267" lon="0.82904">
        <ele>1544</ele>
        <time>2018-12-02T11:35:32.000Z</time>
      </trkpt>
      <trkpt lat="42.91266" lon="0.82905">
        <ele>1543</ele>
        <time>2018-12-02T11:35:34.000Z</time>
      </trkpt>
      <trkpt lat="42.91264" lon="0.82907">
        <ele>1543</ele>
        <time>2018-12-02T11:35:37.000Z</time>
      </trkpt>
      <trkpt lat="42.91264" lon="0.82909">
        <ele>1542</ele>
        <time>2018-12-02T11:35:39.000Z</time>
      </trkpt>
      <trkpt lat="42.91263" lon="0.8291">
        <ele>1542</ele>
        <time>2018-12-02T11:35:41.000Z</time>
      </trkpt>
      <trkpt lat="42.91261" lon="0.82911">
        <ele>1542</ele>
        <time>2018-12-02T11:35:43.000Z</time>
      </trkpt>
      <trkpt lat="42.91261" lon="0.82913">
        <ele>1541</ele>
        <time>2018-12-02T11:35:45.000Z</time>
      </trkpt>
      <trkpt lat="42.9126" lon="0.82916">
        <ele>1541</ele>
        <time>2018-12-02T11:35:47.000Z</time>
      </trkpt>
      <trkpt lat="42.91259" lon="0.82918">
        <ele>1540</ele>
        <time>2018-12-02T11:35:49.000Z</time>
      </trkpt>
      <trkpt lat="42.91257" lon="0.82921">
        <ele>1539</ele>
        <time>2018-12-02T11:35:51.000Z</time>
      </trkpt>
      <trkpt lat="42.91257" lon="0.82923">
        <ele>1539</ele>
        <time>2018-12-02T11:35:53.000Z</time>
      </trkpt>
      <trkpt lat="42.91256" lon="0.82925">
        <ele>1538</ele>
        <time>2018-12-02T11:35:55.000Z</time>
      </trkpt>
      <trkpt lat="42.91255" lon="0.82927">
        <ele>1537</ele>
        <time>2018-12-02T11:35:57.000Z</time>
      </trkpt>
      <trkpt lat="42.91253" lon="0.82928">
        <ele>1537</ele>
        <time>2018-12-02T11:35:59.000Z</time>
      </trkpt>
      <trkpt lat="42.91251" lon="0.82928">
        <ele>1536</ele>
        <time>2018-12-02T11:36:01.000Z</time>
      </trkpt>
      <trkpt lat="42.91251" lon="0.82929">
        <ele>1535</ele>
        <time>2018-12-02T11:36:04.000Z</time>
      </trkpt>
      <trkpt lat="42.91249" lon="0.82931">
        <ele>1534</ele>
        <time>2018-12-02T11:36:07.000Z</time>
      </trkpt>
      <trkpt lat="42.91248" lon="0.82932">
        <ele>1534</ele>
        <time>2018-12-02T11:36:09.000Z</time>
      </trkpt>
      <trkpt lat="42.91247" lon="0.82933">
        <ele>1533</ele>
        <time>2018-12-02T11:36:11.000Z</time>
      </trkpt>
      <trkpt lat="42.91246" lon="0.82934">
        <ele>1532</ele>
        <time>2018-12-02T11:36:13.000Z</time>
      </trkpt>
      <trkpt lat="42.91245" lon="0.82935">
        <ele>1532</ele>
        <time>2018-12-02T11:36:15.000Z</time>
      </trkpt>
      <trkpt lat="42.91244" lon="0.82937">
        <ele>1531</ele>
        <time>2018-12-02T11:36:17.000Z</time>
      </trkpt>
      <trkpt lat="42.91242" lon="0.82938">
        <ele>1530</ele>
        <time>2018-12-02T11:36:19.000Z</time>
      </trkpt>
      <trkpt lat="42.91241" lon="0.8294">
        <ele>1529</ele>
        <time>2018-12-02T11:36:21.000Z</time>
      </trkpt>
      <trkpt lat="42.9124" lon="0.82942">
        <ele>1529</ele>
        <time>2018-12-02T11:36:23.000Z</time>
      </trkpt>
      <trkpt lat="42.91239" lon="0.82943">
        <ele>1528</ele>
        <time>2018-12-02T11:36:25.000Z</time>
      </trkpt>
      <trkpt lat="42.91239" lon="0.82945">
        <ele>1528</ele>
        <time>2018-12-02T11:36:27.000Z</time>
      </trkpt>
      <trkpt lat="42.91238" lon="0.82947">
        <ele>1527</ele>
        <time>2018-12-02T11:36:29.000Z</time>
      </trkpt>
      <trkpt lat="42.91238" lon="0.82949">
        <ele>1527</ele>
        <time>2018-12-02T11:36:31.000Z</time>
      </trkpt>
      <trkpt lat="42.91236" lon="0.82951">
        <ele>1526</ele>
        <time>2018-12-02T11:36:33.000Z</time>
      </trkpt>
      <trkpt lat="42.91235" lon="0.82952">
        <ele>1525</ele>
        <time>2018-12-02T11:36:35.000Z</time>
      </trkpt>
      <trkpt lat="42.91232" lon="0.82953">
        <ele>1524</ele>
        <time>2018-12-02T11:36:38.000Z</time>
      </trkpt>
      <trkpt lat="42.9123" lon="0.82953">
        <ele>1524</ele>
        <time>2018-12-02T11:36:40.000Z</time>
      </trkpt>
      <trkpt lat="42.91228" lon="0.82954">
        <ele>1523</ele>
        <time>2018-12-02T11:36:42.000Z</time>
      </trkpt>
      <trkpt lat="42.91226" lon="0.82956">
        <ele>1523</ele>
        <time>2018-12-02T11:36:45.000Z</time>
      </trkpt>
      <trkpt lat="42.91225" lon="0.82957">
        <ele>1523</ele>
        <time>2018-12-02T11:36:47.000Z</time>
      </trkpt>
      <trkpt lat="42.91223" lon="0.82958">
        <ele>1522</ele>
        <time>2018-12-02T11:36:49.000Z</time>
      </trkpt>
      <trkpt lat="42.91223" lon="0.8296">
        <ele>1522</ele>
        <time>2018-12-02T11:36:51.000Z</time>
      </trkpt>
      <trkpt lat="42.91221" lon="0.82962">
        <ele>1522</ele>
        <time>2018-12-02T11:36:53.000Z</time>
      </trkpt>
      <trkpt lat="42.9122" lon="0.82965">
        <ele>1521</ele>
        <time>2018-12-02T11:36:56.000Z</time>
      </trkpt>
      <trkpt lat="42.91219" lon="0.82967">
        <ele>1521</ele>
        <time>2018-12-02T11:36:58.000Z</time>
      </trkpt>
      <trkpt lat="42.91218" lon="0.82969">
        <ele>1521</ele>
        <time>2018-12-02T11:37:00.000Z</time>
      </trkpt>
      <trkpt lat="42.91216" lon="0.82971">
        <ele>1521</ele>
        <time>2018-12-02T11:37:03.000Z</time>
      </trkpt>
      <trkpt lat="42.91215" lon="0.82972">
        <ele>1520</ele>
        <time>2018-12-02T11:37:05.000Z</time>
      </trkpt>
      <trkpt lat="42.91215" lon="0.82974">
        <ele>1520</ele>
        <time>2018-12-02T11:37:07.000Z</time>
      </trkpt>
      <trkpt lat="42.91215" lon="0.82974">
        <ele>1520</ele>
        <time>2018-12-02T11:37:09.000Z</time>
      </trkpt>
      <trkpt lat="42.91214" lon="0.82974">
        <ele>1520</ele>
        <time>2018-12-02T11:37:12.000Z</time>
      </trkpt>
      <trkpt lat="42.91214" lon="0.82974">
        <ele>1520</ele>
        <time>2018-12-02T11:37:14.000Z</time>
      </trkpt>
      <trkpt lat="42.91214" lon="0.82973">
        <ele>1520</ele>
        <time>2018-12-02T11:37:16.000Z</time>
      </trkpt>
      <trkpt lat="42.91214" lon="0.82973">
        <ele>1520</ele>
        <time>2018-12-02T11:37:18.000Z</time>
      </trkpt>
      <trkpt lat="42.91214" lon="0.82973">
        <ele>1520</ele>
        <time>2018-12-02T11:37:21.000Z</time>
      </trkpt>
      <trkpt lat="42.91215" lon="0.82973">
        <ele>1520</ele>
        <time>2018-12-02T11:37:23.000Z</time>
      </trkpt>
      <trkpt lat="42.91214" lon="0.82973">
        <ele>1520</ele>
        <time>2018-12-02T11:37:26.000Z</time>
      </trkpt>
      <trkpt lat="42.91214" lon="0.82973">
        <ele>1520</ele>
        <time>2018-12-02T11:37:28.000Z</time>
      </trkpt>
      <trkpt lat="42.91214" lon="0.82973">
        <ele>1520</ele>
        <time>2018-12-02T11:37:30.000Z</time>
      </trkpt>
      <trkpt lat="42.91214" lon="0.82973">
        <ele>1520</ele>
        <time>2018-12-02T11:37:32.000Z</time>
      </trkpt>
      <trkpt lat="42.91214" lon="0.82973">
        <ele>1520</ele>
        <time>2018-12-02T11:37:34.000Z</time>
      </trkpt>
      <trkpt lat="42.91214" lon="0.82973">
        <ele>1520</ele>
        <time>2018-12-02T11:37:36.000Z</time>
      </trkpt>
      <trkpt lat="42.91214" lon="0.82973">
        <ele>1520</ele>
        <time>2018-12-02T11:37:38.000Z</time>
      </trkpt>
      <trkpt lat="42.91214" lon="0.82973">
        <ele>1520</ele>
        <time>2018-12-02T11:37:40.000Z</time>
      </trkpt>
      <trkpt lat="42.91214" lon="0.82973">
        <ele>1520</ele>
        <time>2018-12-02T11:37:42.000Z</time>
      </trkpt>
      <trkpt lat="42.91214" lon="0.82974">
        <ele>1520</ele>
        <time>2018-12-02T11:37:44.000Z</time>
      </trkpt>
      <trkpt lat="42.91214" lon="0.82974">
        <ele>1519</ele>
        <time>2018-12-02T11:37:46.000Z</time>
      </trkpt>
      <trkpt lat="42.91215" lon="0.82976">
        <ele>1519</ele>
        <time>2018-12-02T11:37:48.000Z</time>
      </trkpt>
      <trkpt lat="42.91215" lon="0.82978">
        <ele>1519</ele>
        <time>2018-12-02T11:37:50.000Z</time>
      </trkpt>
      <trkpt lat="42.91215" lon="0.82978">
        <ele>1519</ele>
        <time>2018-12-02T11:37:52.000Z</time>
      </trkpt>
      <trkpt lat="42.91215" lon="0.82978">
        <ele>1519</ele>
        <time>2018-12-02T11:37:54.000Z</time>
      </trkpt>
      <trkpt lat="42.91215" lon="0.8298">
        <ele>1518</ele>
        <time>2018-12-02T11:37:57.000Z</time>
      </trkpt>
      <trkpt lat="42.91215" lon="0.8298">
        <ele>1518</ele>
        <time>2018-12-02T11:37:59.000Z</time>
      </trkpt>
      <trkpt lat="42.91215" lon="0.8298">
        <ele>1518</ele>
        <time>2018-12-02T11:38:01.000Z</time>
      </trkpt>
      <trkpt lat="42.91215" lon="0.8298">
        <ele>1518</ele>
        <time>2018-12-02T11:38:03.000Z</time>
      </trkpt>
      <trkpt lat="42.91215" lon="0.8298">
        <ele>1518</ele>
        <time>2018-12-02T11:38:05.000Z</time>
      </trkpt>
      <trkpt lat="42.91215" lon="0.8298">
        <ele>1518</ele>
        <time>2018-12-02T11:38:07.000Z</time>
      </trkpt>
      <trkpt lat="42.91215" lon="0.8298">
        <ele>1518</ele>
        <time>2018-12-02T11:38:09.000Z</time>
      </trkpt>
      <trkpt lat="42.91216" lon="0.82982">
        <ele>1518</ele>
        <time>2018-12-02T11:38:11.000Z</time>
      </trkpt>
      <trkpt lat="42.91216" lon="0.82983">
        <ele>1517</ele>
        <time>2018-12-02T11:38:13.000Z</time>
      </trkpt>
      <trkpt lat="42.91215" lon="0.82985">
        <ele>1517</ele>
        <time>2018-12-02T11:38:15.000Z</time>
      </trkpt>
      <trkpt lat="42.91216" lon="0.82987">
        <ele>1516</ele>
        <time>2018-12-02T11:38:17.000Z</time>
      </trkpt>
      <trkpt lat="42.91216" lon="0.82989">
        <ele>1515</ele>
        <time>2018-12-02T11:38:19.000Z</time>
      </trkpt>
      <trkpt lat="42.91216" lon="0.82992">
        <ele>1515</ele>
        <time>2018-12-02T11:38:21.000Z</time>
      </trkpt>
      <trkpt lat="42.91215" lon="0.82994">
        <ele>1514</ele>
        <time>2018-12-02T11:38:23.000Z</time>
      </trkpt>
      <trkpt lat="42.91214" lon="0.82995">
        <ele>1513</ele>
        <time>2018-12-02T11:38:25.000Z</time>
      </trkpt>
      <trkpt lat="42.91211" lon="0.82996">
        <ele>1512</ele>
        <time>2018-12-02T11:38:27.000Z</time>
      </trkpt>
      <trkpt lat="42.9121" lon="0.82998">
        <ele>1511</ele>
        <time>2018-12-02T11:38:29.000Z</time>
      </trkpt>
      <trkpt lat="42.91209" lon="0.82999">
        <ele>1510</ele>
        <time>2018-12-02T11:38:31.000Z</time>
      </trkpt>
      <trkpt lat="42.91207" lon="0.83">
        <ele>1509</ele>
        <time>2018-12-02T11:38:33.000Z</time>
      </trkpt>
      <trkpt lat="42.91205" lon="0.83001">
        <ele>1509</ele>
        <time>2018-12-02T11:38:35.000Z</time>
      </trkpt>
      <trkpt lat="42.91203" lon="0.83002">
        <ele>1508</ele>
        <time>2018-12-02T11:38:38.000Z</time>
      </trkpt>
      <trkpt lat="42.91201" lon="0.83003">
        <ele>1508</ele>
        <time>2018-12-02T11:38:40.000Z</time>
      </trkpt>
      <trkpt lat="42.91199" lon="0.83004">
        <ele>1507</ele>
        <time>2018-12-02T11:38:42.000Z</time>
      </trkpt>
      <trkpt lat="42.91199" lon="0.83005">
        <ele>1507</ele>
        <time>2018-12-02T11:38:44.000Z</time>
      </trkpt>
      <trkpt lat="42.91197" lon="0.83006">
        <ele>1507</ele>
        <time>2018-12-02T11:38:46.000Z</time>
      </trkpt>
      <trkpt lat="42.91195" lon="0.83007">
        <ele>1507</ele>
        <time>2018-12-02T11:38:48.000Z</time>
      </trkpt>
      <trkpt lat="42.91193" lon="0.83007">
        <ele>1507</ele>
        <time>2018-12-02T11:38:50.000Z</time>
      </trkpt>
      <trkpt lat="42.91191" lon="0.83007">
        <ele>1507</ele>
        <time>2018-12-02T11:38:52.000Z</time>
      </trkpt>
      <trkpt lat="42.9119" lon="0.83008">
        <ele>1506</ele>
        <time>2018-12-02T11:38:54.000Z</time>
      </trkpt>
      <trkpt lat="42.91189" lon="0.83008">
        <ele>1506</ele>
        <time>2018-12-02T11:38:56.000Z</time>
      </trkpt>
      <trkpt lat="42.91187" lon="0.8301">
        <ele>1506</ele>
        <time>2018-12-02T11:38:58.000Z</time>
      </trkpt>
      <trkpt lat="42.91187" lon="0.83012">
        <ele>1506</ele>
        <time>2018-12-02T11:39:00.000Z</time>
      </trkpt>
      <trkpt lat="42.91187" lon="0.83014">
        <ele>1505</ele>
        <time>2018-12-02T11:39:02.000Z</time>
      </trkpt>
      <trkpt lat="42.91186" lon="0.83016">
        <ele>1505</ele>
        <time>2018-12-02T11:39:04.000Z</time>
      </trkpt>
      <trkpt lat="42.91185" lon="0.83017">
        <ele>1505</ele>
        <time>2018-12-02T11:39:06.000Z</time>
      </trkpt>
      <trkpt lat="42.91184" lon="0.83019">
        <ele>1505</ele>
        <time>2018-12-02T11:39:08.000Z</time>
      </trkpt>
      <trkpt lat="42.91183" lon="0.8302">
        <ele>1505</ele>
        <time>2018-12-02T11:39:10.000Z</time>
      </trkpt>
      <trkpt lat="42.91181" lon="0.8302">
        <ele>1504</ele>
        <time>2018-12-02T11:39:12.000Z</time>
      </trkpt>
      <trkpt lat="42.9118" lon="0.83019">
        <ele>1504</ele>
        <time>2018-12-02T11:39:14.000Z</time>
      </trkpt>
      <trkpt lat="42.91178" lon="0.83019">
        <ele>1504</ele>
        <time>2018-12-02T11:39:16.000Z</time>
      </trkpt>
      <trkpt lat="42.91178" lon="0.8302">
        <ele>1504</ele>
        <time>2018-12-02T11:39:18.000Z</time>
      </trkpt>
      <trkpt lat="42.91177" lon="0.83021">
        <ele>1504</ele>
        <time>2018-12-02T11:39:20.000Z</time>
      </trkpt>
      <trkpt lat="42.91177" lon="0.83023">
        <ele>1504</ele>
        <time>2018-12-02T11:39:22.000Z</time>
      </trkpt>
      <trkpt lat="42.91176" lon="0.83024">
        <ele>1504</ele>
        <time>2018-12-02T11:39:24.000Z</time>
      </trkpt>
      <trkpt lat="42.91175" lon="0.83026">
        <ele>1503</ele>
        <time>2018-12-02T11:39:26.000Z</time>
      </trkpt>
      <trkpt lat="42.91174" lon="0.83028">
        <ele>1503</ele>
        <time>2018-12-02T11:39:28.000Z</time>
      </trkpt>
      <trkpt lat="42.91173" lon="0.83031">
        <ele>1503</ele>
        <time>2018-12-02T11:39:30.000Z</time>
      </trkpt>
      <trkpt lat="42.91173" lon="0.83033">
        <ele>1502</ele>
        <time>2018-12-02T11:39:32.000Z</time>
      </trkpt>
      <trkpt lat="42.91172" lon="0.83035">
        <ele>1501</ele>
        <time>2018-12-02T11:39:34.000Z</time>
      </trkpt>
      <trkpt lat="42.9117" lon="0.83036">
        <ele>1501</ele>
        <time>2018-12-02T11:39:36.000Z</time>
      </trkpt>
      <trkpt lat="42.91168" lon="0.83036">
        <ele>1500</ele>
        <time>2018-12-02T11:39:39.000Z</time>
      </trkpt>
      <trkpt lat="42.91167" lon="0.83036">
        <ele>1499</ele>
        <time>2018-12-02T11:39:41.000Z</time>
      </trkpt>
      <trkpt lat="42.91166" lon="0.83037">
        <ele>1499</ele>
        <time>2018-12-02T11:39:43.000Z</time>
      </trkpt>
      <trkpt lat="42.91166" lon="0.83039">
        <ele>1498</ele>
        <time>2018-12-02T11:39:45.000Z</time>
      </trkpt>
      <trkpt lat="42.91166" lon="0.8304">
        <ele>1498</ele>
        <time>2018-12-02T11:39:47.000Z</time>
      </trkpt>
      <trkpt lat="42.91165" lon="0.83041">
        <ele>1497</ele>
        <time>2018-12-02T11:39:49.000Z</time>
      </trkpt>
      <trkpt lat="42.91164" lon="0.83042">
        <ele>1497</ele>
        <time>2018-12-02T11:39:52.000Z</time>
      </trkpt>
      <trkpt lat="42.91163" lon="0.83044">
        <ele>1496</ele>
        <time>2018-12-02T11:39:54.000Z</time>
      </trkpt>
      <trkpt lat="42.91163" lon="0.83045">
        <ele>1496</ele>
        <time>2018-12-02T11:39:56.000Z</time>
      </trkpt>
      <trkpt lat="42.91162" lon="0.83047">
        <ele>1496</ele>
        <time>2018-12-02T11:39:58.000Z</time>
      </trkpt>
      <trkpt lat="42.91162" lon="0.83049">
        <ele>1496</ele>
        <time>2018-12-02T11:40:00.000Z</time>
      </trkpt>
      <trkpt lat="42.91161" lon="0.83051">
        <ele>1496</ele>
        <time>2018-12-02T11:40:02.000Z</time>
      </trkpt>
      <trkpt lat="42.9116" lon="0.83053">
        <ele>1496</ele>
        <time>2018-12-02T11:40:04.000Z</time>
      </trkpt>
      <trkpt lat="42.9116" lon="0.83054">
        <ele>1496</ele>
        <time>2018-12-02T11:40:06.000Z</time>
      </trkpt>
      <trkpt lat="42.9116" lon="0.83055">
        <ele>1497</ele>
        <time>2018-12-02T11:40:08.000Z</time>
      </trkpt>
      <trkpt lat="42.9116" lon="0.83057">
        <ele>1496</ele>
        <time>2018-12-02T11:40:10.000Z</time>
      </trkpt>
      <trkpt lat="42.9116" lon="0.83059">
        <ele>1496</ele>
        <time>2018-12-02T11:40:12.000Z</time>
      </trkpt>
      <trkpt lat="42.9116" lon="0.83062">
        <ele>1495</ele>
        <time>2018-12-02T11:40:15.000Z</time>
      </trkpt>
      <trkpt lat="42.9116" lon="0.83064">
        <ele>1495</ele>
        <time>2018-12-02T11:40:17.000Z</time>
      </trkpt>
      <trkpt lat="42.91159" lon="0.83066">
        <ele>1494</ele>
        <time>2018-12-02T11:40:19.000Z</time>
      </trkpt>
      <trkpt lat="42.91159" lon="0.83068">
        <ele>1494</ele>
        <time>2018-12-02T11:40:21.000Z</time>
      </trkpt>
      <trkpt lat="42.91159" lon="0.8307">
        <ele>1493</ele>
        <time>2018-12-02T11:40:23.000Z</time>
      </trkpt>
      <trkpt lat="42.91158" lon="0.83072">
        <ele>1493</ele>
        <time>2018-12-02T11:40:25.000Z</time>
      </trkpt>
      <trkpt lat="42.91158" lon="0.83073">
        <ele>1492</ele>
        <time>2018-12-02T11:40:27.000Z</time>
      </trkpt>
      <trkpt lat="42.91157" lon="0.83075">
        <ele>1492</ele>
        <time>2018-12-02T11:40:29.000Z</time>
      </trkpt>
      <trkpt lat="42.91156" lon="0.83079">
        <ele>1491</ele>
        <time>2018-12-02T11:40:32.000Z</time>
      </trkpt>
      <trkpt lat="42.91154" lon="0.83082">
        <ele>1490</ele>
        <time>2018-12-02T11:40:34.000Z</time>
      </trkpt>
      <trkpt lat="42.91153" lon="0.83083">
        <ele>1489</ele>
        <time>2018-12-02T11:40:36.000Z</time>
      </trkpt>
      <trkpt lat="42.91151" lon="0.83083">
        <ele>1489</ele>
        <time>2018-12-02T11:40:38.000Z</time>
      </trkpt>
      <trkpt lat="42.91149" lon="0.83084">
        <ele>1488</ele>
        <time>2018-12-02T11:40:40.000Z</time>
      </trkpt>
      <trkpt lat="42.91146" lon="0.83086">
        <ele>1487</ele>
        <time>2018-12-02T11:40:43.000Z</time>
      </trkpt>
      <trkpt lat="42.91145" lon="0.83087">
        <ele>1486</ele>
        <time>2018-12-02T11:40:45.000Z</time>
      </trkpt>
      <trkpt lat="42.91144" lon="0.83088">
        <ele>1486</ele>
        <time>2018-12-02T11:40:47.000Z</time>
      </trkpt>
      <trkpt lat="42.91143" lon="0.8309">
        <ele>1485</ele>
        <time>2018-12-02T11:40:49.000Z</time>
      </trkpt>
      <trkpt lat="42.91142" lon="0.83092">
        <ele>1485</ele>
        <time>2018-12-02T11:40:51.000Z</time>
      </trkpt>
      <trkpt lat="42.9114" lon="0.83093">
        <ele>1484</ele>
        <time>2018-12-02T11:40:53.000Z</time>
      </trkpt>
      <trkpt lat="42.91139" lon="0.83095">
        <ele>1483</ele>
        <time>2018-12-02T11:40:55.000Z</time>
      </trkpt>
      <trkpt lat="42.91138" lon="0.83097">
        <ele>1483</ele>
        <time>2018-12-02T11:40:57.000Z</time>
      </trkpt>
      <trkpt lat="42.91136" lon="0.83099">
        <ele>1482</ele>
        <time>2018-12-02T11:41:00.000Z</time>
      </trkpt>
      <trkpt lat="42.91135" lon="0.83101">
        <ele>1481</ele>
        <time>2018-12-02T11:41:02.000Z</time>
      </trkpt>
      <trkpt lat="42.91135" lon="0.83104">
        <ele>1481</ele>
        <time>2018-12-02T11:41:04.000Z</time>
      </trkpt>
      <trkpt lat="42.91134" lon="0.83105">
        <ele>1481</ele>
        <time>2018-12-02T11:41:06.000Z</time>
      </trkpt>
      <trkpt lat="42.91133" lon="0.83107">
        <ele>1482</ele>
        <time>2018-12-02T11:41:08.000Z</time>
      </trkpt>
      <trkpt lat="42.91133" lon="0.83107">
        <ele>1482</ele>
        <time>2018-12-02T11:41:10.000Z</time>
      </trkpt>
      <trkpt lat="42.91132" lon="0.83107">
        <ele>1482</ele>
        <time>2018-12-02T11:41:12.000Z</time>
      </trkpt>
      <trkpt lat="42.91132" lon="0.83106">
        <ele>1482</ele>
        <time>2018-12-02T11:41:14.000Z</time>
      </trkpt>
      <trkpt lat="42.91132" lon="0.83106">
        <ele>1482</ele>
        <time>2018-12-02T11:41:16.000Z</time>
      </trkpt>
      <trkpt lat="42.91131" lon="0.83108">
        <ele>1482</ele>
        <time>2018-12-02T11:41:18.000Z</time>
      </trkpt>
      <trkpt lat="42.91131" lon="0.8311">
        <ele>1482</ele>
        <time>2018-12-02T11:41:20.000Z</time>
      </trkpt>
      <trkpt lat="42.91128" lon="0.83111">
        <ele>1482</ele>
        <time>2018-12-02T11:41:22.000Z</time>
      </trkpt>
      <trkpt lat="42.91126" lon="0.83111">
        <ele>1482</ele>
        <time>2018-12-02T11:41:24.000Z</time>
      </trkpt>
      <trkpt lat="42.91125" lon="0.83112">
        <ele>1482</ele>
        <time>2018-12-02T11:41:26.000Z</time>
      </trkpt>
      <trkpt lat="42.91124" lon="0.83114">
        <ele>1482</ele>
        <time>2018-12-02T11:41:28.000Z</time>
      </trkpt>
      <trkpt lat="42.91122" lon="0.83116">
        <ele>1482</ele>
        <time>2018-12-02T11:41:30.000Z</time>
      </trkpt>
      <trkpt lat="42.91121" lon="0.83118">
        <ele>1482</ele>
        <time>2018-12-02T11:41:32.000Z</time>
      </trkpt>
      <trkpt lat="42.91119" lon="0.83119">
        <ele>1482</ele>
        <time>2018-12-02T11:41:34.000Z</time>
      </trkpt>
      <trkpt lat="42.91117" lon="0.83119">
        <ele>1482</ele>
        <time>2018-12-02T11:41:36.000Z</time>
      </trkpt>
      <trkpt lat="42.91115" lon="0.8312">
        <ele>1483</ele>
        <time>2018-12-02T11:41:38.000Z</time>
      </trkpt>
      <trkpt lat="42.91114" lon="0.83121">
        <ele>1483</ele>
        <time>2018-12-02T11:41:40.000Z</time>
      </trkpt>
      <trkpt lat="42.91112" lon="0.83122">
        <ele>1483</ele>
        <time>2018-12-02T11:41:42.000Z</time>
      </trkpt>
      <trkpt lat="42.9111" lon="0.83123">
        <ele>1483</ele>
        <time>2018-12-02T11:41:44.000Z</time>
      </trkpt>
      <trkpt lat="42.91108" lon="0.83124">
        <ele>1483</ele>
        <time>2018-12-02T11:41:46.000Z</time>
      </trkpt>
      <trkpt lat="42.91107" lon="0.83125">
        <ele>1483</ele>
        <time>2018-12-02T11:41:48.000Z</time>
      </trkpt>
      <trkpt lat="42.91105" lon="0.83125">
        <ele>1483</ele>
        <time>2018-12-02T11:41:50.000Z</time>
      </trkpt>
      <trkpt lat="42.91104" lon="0.83126">
        <ele>1483</ele>
        <time>2018-12-02T11:41:52.000Z</time>
      </trkpt>
      <trkpt lat="42.91103" lon="0.83126">
        <ele>1483</ele>
        <time>2018-12-02T11:41:54.000Z</time>
      </trkpt>
      <trkpt lat="42.91101" lon="0.83126">
        <ele>1483</ele>
        <time>2018-12-02T11:41:56.000Z</time>
      </trkpt>
      <trkpt lat="42.911" lon="0.83127">
        <ele>1483</ele>
        <time>2018-12-02T11:41:58.000Z</time>
      </trkpt>
      <trkpt lat="42.91099" lon="0.83128">
        <ele>1483</ele>
        <time>2018-12-02T11:42:00.000Z</time>
      </trkpt>
      <trkpt lat="42.91097" lon="0.83129">
        <ele>1483</ele>
        <time>2018-12-02T11:42:02.000Z</time>
      </trkpt>
      <trkpt lat="42.91096" lon="0.8313">
        <ele>1483</ele>
        <time>2018-12-02T11:42:04.000Z</time>
      </trkpt>
      <trkpt lat="42.91095" lon="0.83131">
        <ele>1483</ele>
        <time>2018-12-02T11:42:06.000Z</time>
      </trkpt>
      <trkpt lat="42.91094" lon="0.83132">
        <ele>1484</ele>
        <time>2018-12-02T11:42:08.000Z</time>
      </trkpt>
      <trkpt lat="42.91093" lon="0.83133">
        <ele>1484</ele>
        <time>2018-12-02T11:42:10.000Z</time>
      </trkpt>
      <trkpt lat="42.91092" lon="0.83135">
        <ele>1484</ele>
        <time>2018-12-02T11:42:12.000Z</time>
      </trkpt>
      <trkpt lat="42.91091" lon="0.83135">
        <ele>1484</ele>
        <time>2018-12-02T11:42:14.000Z</time>
      </trkpt>
      <trkpt lat="42.91091" lon="0.83136">
        <ele>1484</ele>
        <time>2018-12-02T11:42:16.000Z</time>
      </trkpt>
      <trkpt lat="42.91089" lon="0.83137">
        <ele>1483</ele>
        <time>2018-12-02T11:42:18.000Z</time>
      </trkpt>
      <trkpt lat="42.91088" lon="0.83137">
        <ele>1483</ele>
        <time>2018-12-02T11:42:20.000Z</time>
      </trkpt>
      <trkpt lat="42.91088" lon="0.83138">
        <ele>1483</ele>
        <time>2018-12-02T11:42:22.000Z</time>
      </trkpt>
      <trkpt lat="42.91087" lon="0.83138">
        <ele>1483</ele>
        <time>2018-12-02T11:42:24.000Z</time>
      </trkpt>
      <trkpt lat="42.91087" lon="0.83138">
        <ele>1483</ele>
        <time>2018-12-02T11:42:26.000Z</time>
      </trkpt>
      <trkpt lat="42.91086" lon="0.83138">
        <ele>1483</ele>
        <time>2018-12-02T11:42:28.000Z</time>
      </trkpt>
      <trkpt lat="42.91086" lon="0.83138">
        <ele>1483</ele>
        <time>2018-12-02T11:42:30.000Z</time>
      </trkpt>
      <trkpt lat="42.91086" lon="0.8314">
        <ele>1483</ele>
        <time>2018-12-02T11:42:32.000Z</time>
      </trkpt>
      <trkpt lat="42.91085" lon="0.8314">
        <ele>1483</ele>
        <time>2018-12-02T11:42:34.000Z</time>
      </trkpt>
      <trkpt lat="42.91084" lon="0.83141">
        <ele>1482</ele>
        <time>2018-12-02T11:42:36.000Z</time>
      </trkpt>
      <trkpt lat="42.91083" lon="0.83142">
        <ele>1482</ele>
        <time>2018-12-02T11:42:38.000Z</time>
      </trkpt>
      <trkpt lat="42.91083" lon="0.83142">
        <ele>1482</ele>
        <time>2018-12-02T11:42:40.000Z</time>
      </trkpt>
      <trkpt lat="42.91083" lon="0.83143">
        <ele>1482</ele>
        <time>2018-12-02T11:42:42.000Z</time>
      </trkpt>
      <trkpt lat="42.91083" lon="0.83145">
        <ele>1482</ele>
        <time>2018-12-02T11:42:44.000Z</time>
      </trkpt>
      <trkpt lat="42.91082" lon="0.83147">
        <ele>1481</ele>
        <time>2018-12-02T11:42:46.000Z</time>
      </trkpt>
      <trkpt lat="42.91082" lon="0.83148">
        <ele>1481</ele>
        <time>2018-12-02T11:42:48.000Z</time>
      </trkpt>
      <trkpt lat="42.91081" lon="0.8315">
        <ele>1480</ele>
        <time>2018-12-02T11:42:50.000Z</time>
      </trkpt>
      <trkpt lat="42.9108" lon="0.8315">
        <ele>1480</ele>
        <time>2018-12-02T11:42:52.000Z</time>
      </trkpt>
      <trkpt lat="42.91079" lon="0.83151">
        <ele>1480</ele>
        <time>2018-12-02T11:42:54.000Z</time>
      </trkpt>
      <trkpt lat="42.91078" lon="0.83152">
        <ele>1479</ele>
        <time>2018-12-02T11:42:56.000Z</time>
      </trkpt>
      <trkpt lat="42.91077" lon="0.83153">
        <ele>1479</ele>
        <time>2018-12-02T11:42:58.000Z</time>
      </trkpt>
      <trkpt lat="42.91077" lon="0.83154">
        <ele>1479</ele>
        <time>2018-12-02T11:43:00.000Z</time>
      </trkpt>
      <trkpt lat="42.91076" lon="0.83155">
        <ele>1478</ele>
        <time>2018-12-02T11:43:02.000Z</time>
      </trkpt>
      <trkpt lat="42.91076" lon="0.83157">
        <ele>1478</ele>
        <time>2018-12-02T11:43:05.000Z</time>
      </trkpt>
      <trkpt lat="42.91076" lon="0.83159">
        <ele>1478</ele>
        <time>2018-12-02T11:43:07.000Z</time>
      </trkpt>
      <trkpt lat="42.91075" lon="0.8316">
        <ele>1478</ele>
        <time>2018-12-02T11:43:09.000Z</time>
      </trkpt>
      <trkpt lat="42.91074" lon="0.83161">
        <ele>1477</ele>
        <time>2018-12-02T11:43:11.000Z</time>
      </trkpt>
      <trkpt lat="42.91074" lon="0.83163">
        <ele>1477</ele>
        <time>2018-12-02T11:43:13.000Z</time>
      </trkpt>
      <trkpt lat="42.91073" lon="0.83165">
        <ele>1476</ele>
        <time>2018-12-02T11:43:15.000Z</time>
      </trkpt>
      <trkpt lat="42.91072" lon="0.83167">
        <ele>1476</ele>
        <time>2018-12-02T11:43:17.000Z</time>
      </trkpt>
      <trkpt lat="42.91071" lon="0.83169">
        <ele>1475</ele>
        <time>2018-12-02T11:43:19.000Z</time>
      </trkpt>
      <trkpt lat="42.9107" lon="0.8317">
        <ele>1475</ele>
        <time>2018-12-02T11:43:21.000Z</time>
      </trkpt>
      <trkpt lat="42.9107" lon="0.83172">
        <ele>1475</ele>
        <time>2018-12-02T11:43:23.000Z</time>
      </trkpt>
      <trkpt lat="42.91068" lon="0.83174">
        <ele>1474</ele>
        <time>2018-12-02T11:43:25.000Z</time>
      </trkpt>
      <trkpt lat="42.91066" lon="0.83178">
        <ele>1473</ele>
        <time>2018-12-02T11:43:27.000Z</time>
      </trkpt>
      <trkpt lat="42.91063" lon="0.8318">
        <ele>1472</ele>
        <time>2018-12-02T11:43:29.000Z</time>
      </trkpt>
      <trkpt lat="42.9106" lon="0.83182">
        <ele>1471</ele>
        <time>2018-12-02T11:43:31.000Z</time>
      </trkpt>
      <trkpt lat="42.91059" lon="0.83183">
        <ele>1471</ele>
        <time>2018-12-02T11:43:33.000Z</time>
      </trkpt>
      <trkpt lat="42.91058" lon="0.83186">
        <ele>1470</ele>
        <time>2018-12-02T11:43:35.000Z</time>
      </trkpt>
      <trkpt lat="42.91056" lon="0.83187">
        <ele>1469</ele>
        <time>2018-12-02T11:43:37.000Z</time>
      </trkpt>
      <trkpt lat="42.91055" lon="0.83189">
        <ele>1469</ele>
        <time>2018-12-02T11:43:39.000Z</time>
      </trkpt>
      <trkpt lat="42.91053" lon="0.8319">
        <ele>1469</ele>
        <time>2018-12-02T11:43:41.000Z</time>
      </trkpt>
      <trkpt lat="42.91052" lon="0.83191">
        <ele>1469</ele>
        <time>2018-12-02T11:43:43.000Z</time>
      </trkpt>
      <trkpt lat="42.9105" lon="0.83192">
        <ele>1469</ele>
        <time>2018-12-02T11:43:45.000Z</time>
      </trkpt>
      <trkpt lat="42.91049" lon="0.83195">
        <ele>1470</ele>
        <time>2018-12-02T11:43:47.000Z</time>
      </trkpt>
      <trkpt lat="42.91048" lon="0.83196">
        <ele>1470</ele>
        <time>2018-12-02T11:43:49.000Z</time>
      </trkpt>
      <trkpt lat="42.91045" lon="0.83197">
        <ele>1470</ele>
        <time>2018-12-02T11:43:51.000Z</time>
      </trkpt>
      <trkpt lat="42.91044" lon="0.83198">
        <ele>1470</ele>
        <time>2018-12-02T11:43:53.000Z</time>
      </trkpt>
      <trkpt lat="42.91042" lon="0.83198">
        <ele>1470</ele>
        <time>2018-12-02T11:43:55.000Z</time>
      </trkpt>
      <trkpt lat="42.91041" lon="0.83199">
        <ele>1470</ele>
        <time>2018-12-02T11:43:57.000Z</time>
      </trkpt>
      <trkpt lat="42.9104" lon="0.83199">
        <ele>1470</ele>
        <time>2018-12-02T11:43:59.000Z</time>
      </trkpt>
      <trkpt lat="42.91039" lon="0.83201">
        <ele>1470</ele>
        <time>2018-12-02T11:44:01.000Z</time>
      </trkpt>
      <trkpt lat="42.91037" lon="0.83203">
        <ele>1470</ele>
        <time>2018-12-02T11:44:03.000Z</time>
      </trkpt>
      <trkpt lat="42.91036" lon="0.83204">
        <ele>1470</ele>
        <time>2018-12-02T11:44:05.000Z</time>
      </trkpt>
      <trkpt lat="42.91035" lon="0.83204">
        <ele>1471</ele>
        <time>2018-12-02T11:44:07.000Z</time>
      </trkpt>
      <trkpt lat="42.91034" lon="0.83204">
        <ele>1470</ele>
        <time>2018-12-02T11:44:09.000Z</time>
      </trkpt>
      <trkpt lat="42.91033" lon="0.83205">
        <ele>1471</ele>
        <time>2018-12-02T11:44:11.000Z</time>
      </trkpt>
      <trkpt lat="42.91031" lon="0.83205">
        <ele>1471</ele>
        <time>2018-12-02T11:44:13.000Z</time>
      </trkpt>
      <trkpt lat="42.91029" lon="0.83206">
        <ele>1471</ele>
        <time>2018-12-02T11:44:15.000Z</time>
      </trkpt>
      <trkpt lat="42.91027" lon="0.83207">
        <ele>1471</ele>
        <time>2018-12-02T11:44:17.000Z</time>
      </trkpt>
      <trkpt lat="42.91024" lon="0.83207">
        <ele>1471</ele>
        <time>2018-12-02T11:44:19.000Z</time>
      </trkpt>
      <trkpt lat="42.91023" lon="0.83208">
        <ele>1471</ele>
        <time>2018-12-02T11:44:21.000Z</time>
      </trkpt>
      <trkpt lat="42.91022" lon="0.83209">
        <ele>1471</ele>
        <time>2018-12-02T11:44:23.000Z</time>
      </trkpt>
      <trkpt lat="42.9102" lon="0.83209">
        <ele>1471</ele>
        <time>2018-12-02T11:44:25.000Z</time>
      </trkpt>
      <trkpt lat="42.91018" lon="0.83212">
        <ele>1471</ele>
        <time>2018-12-02T11:44:27.000Z</time>
      </trkpt>
      <trkpt lat="42.91017" lon="0.83213">
        <ele>1471</ele>
        <time>2018-12-02T11:44:29.000Z</time>
      </trkpt>
      <trkpt lat="42.91015" lon="0.83215">
        <ele>1471</ele>
        <time>2018-12-02T11:44:31.000Z</time>
      </trkpt>
      <trkpt lat="42.91014" lon="0.83216">
        <ele>1471</ele>
        <time>2018-12-02T11:44:33.000Z</time>
      </trkpt>
      <trkpt lat="42.91011" lon="0.83217">
        <ele>1472</ele>
        <time>2018-12-02T11:44:35.000Z</time>
      </trkpt>
      <trkpt lat="42.91008" lon="0.8322">
        <ele>1472</ele>
        <time>2018-12-02T11:44:37.000Z</time>
      </trkpt>
      <trkpt lat="42.91007" lon="0.83222">
        <ele>1472</ele>
        <time>2018-12-02T11:44:39.000Z</time>
      </trkpt>
      <trkpt lat="42.91006" lon="0.83225">
        <ele>1472</ele>
        <time>2018-12-02T11:44:41.000Z</time>
      </trkpt>
      <trkpt lat="42.91004" lon="0.83227">
        <ele>1471</ele>
        <time>2018-12-02T11:44:43.000Z</time>
      </trkpt>
      <trkpt lat="42.91002" lon="0.83229">
        <ele>1470</ele>
        <time>2018-12-02T11:44:45.000Z</time>
      </trkpt>
      <trkpt lat="42.91001" lon="0.83231">
        <ele>1470</ele>
        <time>2018-12-02T11:44:47.000Z</time>
      </trkpt>
      <trkpt lat="42.90999" lon="0.83233">
        <ele>1469</ele>
        <time>2018-12-02T11:44:49.000Z</time>
      </trkpt>
      <trkpt lat="42.90998" lon="0.83236">
        <ele>1469</ele>
        <time>2018-12-02T11:44:51.000Z</time>
      </trkpt>
      <trkpt lat="42.90997" lon="0.83237">
        <ele>1468</ele>
        <time>2018-12-02T11:44:53.000Z</time>
      </trkpt>
      <trkpt lat="42.90996" lon="0.83238">
        <ele>1468</ele>
        <time>2018-12-02T11:44:55.000Z</time>
      </trkpt>
      <trkpt lat="42.90993" lon="0.83238">
        <ele>1468</ele>
        <time>2018-12-02T11:44:57.000Z</time>
      </trkpt>
      <trkpt lat="42.90992" lon="0.83238">
        <ele>1468</ele>
        <time>2018-12-02T11:44:59.000Z</time>
      </trkpt>
      <trkpt lat="42.90991" lon="0.83237">
        <ele>1468</ele>
        <time>2018-12-02T11:45:01.000Z</time>
      </trkpt>
      <trkpt lat="42.9099" lon="0.83236">
        <ele>1468</ele>
        <time>2018-12-02T11:45:03.000Z</time>
      </trkpt>
      <trkpt lat="42.9099" lon="0.83236">
        <ele>1468</ele>
        <time>2018-12-02T11:45:05.000Z</time>
      </trkpt>
      <trkpt lat="42.90989" lon="0.83236">
        <ele>1468</ele>
        <time>2018-12-02T11:45:07.000Z</time>
      </trkpt>
      <trkpt lat="42.90988" lon="0.83236">
        <ele>1468</ele>
        <time>2018-12-02T11:45:09.000Z</time>
      </trkpt>
      <trkpt lat="42.90986" lon="0.83235">
        <ele>1468</ele>
        <time>2018-12-02T11:45:11.000Z</time>
      </trkpt>
      <trkpt lat="42.90984" lon="0.83234">
        <ele>1467</ele>
        <time>2018-12-02T11:45:14.000Z</time>
      </trkpt>
      <trkpt lat="42.90983" lon="0.83233">
        <ele>1467</ele>
        <time>2018-12-02T11:45:16.000Z</time>
      </trkpt>
      <trkpt lat="42.90982" lon="0.83232">
        <ele>1467</ele>
        <time>2018-12-02T11:45:18.000Z</time>
      </trkpt>
      <trkpt lat="42.90982" lon="0.83232">
        <ele>1468</ele>
        <time>2018-12-02T11:45:20.000Z</time>
      </trkpt>
      <trkpt lat="42.90981" lon="0.83231">
        <ele>1467</ele>
        <time>2018-12-02T11:45:22.000Z</time>
      </trkpt>
      <trkpt lat="42.90981" lon="0.83231">
        <ele>1468</ele>
        <time>2018-12-02T11:45:24.000Z</time>
      </trkpt>
      <trkpt lat="42.90979" lon="0.83231">
        <ele>1467</ele>
        <time>2018-12-02T11:45:26.000Z</time>
      </trkpt>
      <trkpt lat="42.90979" lon="0.83231">
        <ele>1467</ele>
        <time>2018-12-02T11:45:28.000Z</time>
      </trkpt>
      <trkpt lat="42.90978" lon="0.83231">
        <ele>1467</ele>
        <time>2018-12-02T11:45:30.000Z</time>
      </trkpt>
      <trkpt lat="42.90976" lon="0.83232">
        <ele>1467</ele>
        <time>2018-12-02T11:45:32.000Z</time>
      </trkpt>
      <trkpt lat="42.90975" lon="0.83232">
        <ele>1467</ele>
        <time>2018-12-02T11:45:34.000Z</time>
      </trkpt>
      <trkpt lat="42.90974" lon="0.83233">
        <ele>1466</ele>
        <time>2018-12-02T11:45:36.000Z</time>
      </trkpt>
      <trkpt lat="42.90973" lon="0.83234">
        <ele>1466</ele>
        <time>2018-12-02T11:45:38.000Z</time>
      </trkpt>
      <trkpt lat="42.90972" lon="0.83234">
        <ele>1466</ele>
        <time>2018-12-02T11:45:40.000Z</time>
      </trkpt>
      <trkpt lat="42.90971" lon="0.83235">
        <ele>1466</ele>
        <time>2018-12-02T11:45:42.000Z</time>
      </trkpt>
      <trkpt lat="42.90971" lon="0.83235">
        <ele>1466</ele>
        <time>2018-12-02T11:45:44.000Z</time>
      </trkpt>
      <trkpt lat="42.90969" lon="0.83236">
        <ele>1465</ele>
        <time>2018-12-02T11:45:46.000Z</time>
      </trkpt>
      <trkpt lat="42.90969" lon="0.83237">
        <ele>1465</ele>
        <time>2018-12-02T11:45:48.000Z</time>
      </trkpt>
      <trkpt lat="42.90967" lon="0.83238">
        <ele>1465</ele>
        <time>2018-12-02T11:45:50.000Z</time>
      </trkpt>
      <trkpt lat="42.90965" lon="0.83239">
        <ele>1464</ele>
        <time>2018-12-02T11:45:52.000Z</time>
      </trkpt>
      <trkpt lat="42.90964" lon="0.8324">
        <ele>1464</ele>
        <time>2018-12-02T11:45:54.000Z</time>
      </trkpt>
      <trkpt lat="42.90963" lon="0.8324">
        <ele>1464</ele>
        <time>2018-12-02T11:45:56.000Z</time>
      </trkpt>
      <trkpt lat="42.90961" lon="0.83241">
        <ele>1464</ele>
        <time>2018-12-02T11:45:58.000Z</time>
      </trkpt>
      <trkpt lat="42.90959" lon="0.83241">
        <ele>1463</ele>
        <time>2018-12-02T11:46:00.000Z</time>
      </trkpt>
      <trkpt lat="42.90958" lon="0.83242">
        <ele>1463</ele>
        <time>2018-12-02T11:46:02.000Z</time>
      </trkpt>
      <trkpt lat="42.90956" lon="0.83242">
        <ele>1463</ele>
        <time>2018-12-02T11:46:04.000Z</time>
      </trkpt>
      <trkpt lat="42.90955" lon="0.83242">
        <ele>1463</ele>
        <time>2018-12-02T11:46:06.000Z</time>
      </trkpt>
      <trkpt lat="42.90954" lon="0.83241">
        <ele>1463</ele>
        <time>2018-12-02T11:46:08.000Z</time>
      </trkpt>
      <trkpt lat="42.90954" lon="0.8324">
        <ele>1463</ele>
        <time>2018-12-02T11:46:10.000Z</time>
      </trkpt>
      <trkpt lat="42.90954" lon="0.8324">
        <ele>1463</ele>
        <time>2018-12-02T11:46:12.000Z</time>
      </trkpt>
      <trkpt lat="42.90952" lon="0.83241">
        <ele>1462</ele>
        <time>2018-12-02T11:46:14.000Z</time>
      </trkpt>
      <trkpt lat="42.9095" lon="0.83243">
        <ele>1462</ele>
        <time>2018-12-02T11:46:16.000Z</time>
      </trkpt>
      <trkpt lat="42.90949" lon="0.83245">
        <ele>1462</ele>
        <time>2018-12-02T11:46:18.000Z</time>
      </trkpt>
      <trkpt lat="42.90947" lon="0.83246">
        <ele>1461</ele>
        <time>2018-12-02T11:46:20.000Z</time>
      </trkpt>
      <trkpt lat="42.90946" lon="0.83247">
        <ele>1462</ele>
        <time>2018-12-02T11:46:22.000Z</time>
      </trkpt>
      <trkpt lat="42.90946" lon="0.83248">
        <ele>1462</ele>
        <time>2018-12-02T11:46:24.000Z</time>
      </trkpt>
      <trkpt lat="42.90945" lon="0.83248">
        <ele>1463</ele>
        <time>2018-12-02T11:46:26.000Z</time>
      </trkpt>
      <trkpt lat="42.90943" lon="0.83249">
        <ele>1463</ele>
        <time>2018-12-02T11:46:28.000Z</time>
      </trkpt>
      <trkpt lat="42.90942" lon="0.8325">
        <ele>1464</ele>
        <time>2018-12-02T11:46:30.000Z</time>
      </trkpt>
      <trkpt lat="42.9094" lon="0.83251">
        <ele>1465</ele>
        <time>2018-12-02T11:46:32.000Z</time>
      </trkpt>
      <trkpt lat="42.90938" lon="0.83252">
        <ele>1466</ele>
        <time>2018-12-02T11:46:34.000Z</time>
      </trkpt>
      <trkpt lat="42.90937" lon="0.83254">
        <ele>1466</ele>
        <time>2018-12-02T11:46:36.000Z</time>
      </trkpt>
      <trkpt lat="42.90933" lon="0.83254">
        <ele>1468</ele>
        <time>2018-12-02T11:46:38.000Z</time>
      </trkpt>
      <trkpt lat="42.90931" lon="0.83255">
        <ele>1468</ele>
        <time>2018-12-02T11:46:40.000Z</time>
      </trkpt>
      <trkpt lat="42.9093" lon="0.83256">
        <ele>1469</ele>
        <time>2018-12-02T11:46:42.000Z</time>
      </trkpt>
      <trkpt lat="42.90928" lon="0.83257">
        <ele>1470</ele>
        <time>2018-12-02T11:46:44.000Z</time>
      </trkpt>
      <trkpt lat="42.90925" lon="0.83258">
        <ele>1471</ele>
        <time>2018-12-02T11:46:46.000Z</time>
      </trkpt>
      <trkpt lat="42.90923" lon="0.8326">
        <ele>1472</ele>
        <time>2018-12-02T11:46:48.000Z</time>
      </trkpt>
      <trkpt lat="42.90922" lon="0.83261">
        <ele>1472</ele>
        <time>2018-12-02T11:46:50.000Z</time>
      </trkpt>
      <trkpt lat="42.9092" lon="0.83262">
        <ele>1472</ele>
        <time>2018-12-02T11:46:52.000Z</time>
      </trkpt>
      <trkpt lat="42.90918" lon="0.83264">
        <ele>1472</ele>
        <time>2018-12-02T11:46:54.000Z</time>
      </trkpt>
      <trkpt lat="42.90917" lon="0.83265">
        <ele>1472</ele>
        <time>2018-12-02T11:46:56.000Z</time>
      </trkpt>
      <trkpt lat="42.90916" lon="0.83266">
        <ele>1472</ele>
        <time>2018-12-02T11:46:58.000Z</time>
      </trkpt>
      <trkpt lat="42.90915" lon="0.83267">
        <ele>1472</ele>
        <time>2018-12-02T11:47:00.000Z</time>
      </trkpt>
      <trkpt lat="42.90913" lon="0.83268">
        <ele>1472</ele>
        <time>2018-12-02T11:47:02.000Z</time>
      </trkpt>
      <trkpt lat="42.90912" lon="0.83269">
        <ele>1473</ele>
        <time>2018-12-02T11:47:04.000Z</time>
      </trkpt>
      <trkpt lat="42.9091" lon="0.83269">
        <ele>1472</ele>
        <time>2018-12-02T11:47:06.000Z</time>
      </trkpt>
      <trkpt lat="42.90909" lon="0.83269">
        <ele>1472</ele>
        <time>2018-12-02T11:47:08.000Z</time>
      </trkpt>
      <trkpt lat="42.90908" lon="0.83268">
        <ele>1472</ele>
        <time>2018-12-02T11:47:10.000Z</time>
      </trkpt>
      <trkpt lat="42.90906" lon="0.83269">
        <ele>1472</ele>
        <time>2018-12-02T11:47:12.000Z</time>
      </trkpt>
      <trkpt lat="42.90905" lon="0.83271">
        <ele>1472</ele>
        <time>2018-12-02T11:47:14.000Z</time>
      </trkpt>
      <trkpt lat="42.90903" lon="0.83272">
        <ele>1472</ele>
        <time>2018-12-02T11:47:16.000Z</time>
      </trkpt>
      <trkpt lat="42.90902" lon="0.83273">
        <ele>1472</ele>
        <time>2018-12-02T11:47:18.000Z</time>
      </trkpt>
      <trkpt lat="42.909" lon="0.83273">
        <ele>1472</ele>
        <time>2018-12-02T11:47:20.000Z</time>
      </trkpt>
      <trkpt lat="42.90898" lon="0.83274">
        <ele>1472</ele>
        <time>2018-12-02T11:47:22.000Z</time>
      </trkpt>
      <trkpt lat="42.90895" lon="0.83275">
        <ele>1472</ele>
        <time>2018-12-02T11:47:24.000Z</time>
      </trkpt>
      <trkpt lat="42.90893" lon="0.83275">
        <ele>1472</ele>
        <time>2018-12-02T11:47:26.000Z</time>
      </trkpt>
      <trkpt lat="42.90892" lon="0.83276">
        <ele>1472</ele>
        <time>2018-12-02T11:47:28.000Z</time>
      </trkpt>
      <trkpt lat="42.90891" lon="0.83277">
        <ele>1472</ele>
        <time>2018-12-02T11:47:30.000Z</time>
      </trkpt>
      <trkpt lat="42.9089" lon="0.83278">
        <ele>1472</ele>
        <time>2018-12-02T11:47:32.000Z</time>
      </trkpt>
      <trkpt lat="42.90889" lon="0.83278">
        <ele>1473</ele>
        <time>2018-12-02T11:47:34.000Z</time>
      </trkpt>
      <trkpt lat="42.90888" lon="0.83279">
        <ele>1473</ele>
        <time>2018-12-02T11:47:36.000Z</time>
      </trkpt>
      <trkpt lat="42.90886" lon="0.83279">
        <ele>1473</ele>
        <time>2018-12-02T11:47:38.000Z</time>
      </trkpt>
      <trkpt lat="42.90885" lon="0.8328">
        <ele>1473</ele>
        <time>2018-12-02T11:47:40.000Z</time>
      </trkpt>
      <trkpt lat="42.90884" lon="0.8328">
        <ele>1473</ele>
        <time>2018-12-02T11:47:42.000Z</time>
      </trkpt>
      <trkpt lat="42.90882" lon="0.8328">
        <ele>1473</ele>
        <time>2018-12-02T11:47:44.000Z</time>
      </trkpt>
      <trkpt lat="42.90881" lon="0.8328">
        <ele>1473</ele>
        <time>2018-12-02T11:47:46.000Z</time>
      </trkpt>
      <trkpt lat="42.90879" lon="0.8328">
        <ele>1473</ele>
        <time>2018-12-02T11:47:48.000Z</time>
      </trkpt>
      <trkpt lat="42.90878" lon="0.8328">
        <ele>1473</ele>
        <time>2018-12-02T11:47:50.000Z</time>
      </trkpt>
      <trkpt lat="42.90877" lon="0.83281">
        <ele>1473</ele>
        <time>2018-12-02T11:47:52.000Z</time>
      </trkpt>
      <trkpt lat="42.90876" lon="0.8328">
        <ele>1473</ele>
        <time>2018-12-02T11:47:54.000Z</time>
      </trkpt>
      <trkpt lat="42.90874" lon="0.83282">
        <ele>1473</ele>
        <time>2018-12-02T11:47:56.000Z</time>
      </trkpt>
      <trkpt lat="42.90873" lon="0.83282">
        <ele>1473</ele>
        <time>2018-12-02T11:47:58.000Z</time>
      </trkpt>
      <trkpt lat="42.90872" lon="0.83283">
        <ele>1473</ele>
        <time>2018-12-02T11:48:00.000Z</time>
      </trkpt>
      <trkpt lat="42.90871" lon="0.83284">
        <ele>1474</ele>
        <time>2018-12-02T11:48:02.000Z</time>
      </trkpt>
      <trkpt lat="42.90869" lon="0.83284">
        <ele>1474</ele>
        <time>2018-12-02T11:48:04.000Z</time>
      </trkpt>
      <trkpt lat="42.90868" lon="0.83285">
        <ele>1474</ele>
        <time>2018-12-02T11:48:06.000Z</time>
      </trkpt>
      <trkpt lat="42.90866" lon="0.83285">
        <ele>1474</ele>
        <time>2018-12-02T11:48:08.000Z</time>
      </trkpt>
      <trkpt lat="42.90863" lon="0.83286">
        <ele>1474</ele>
        <time>2018-12-02T11:48:10.000Z</time>
      </trkpt>
      <trkpt lat="42.9086" lon="0.83286">
        <ele>1474</ele>
        <time>2018-12-02T11:48:12.000Z</time>
      </trkpt>
      <trkpt lat="42.9086" lon="0.83286">
        <ele>1474</ele>
        <time>2018-12-02T11:48:14.000Z</time>
      </trkpt>
      <trkpt lat="42.90859" lon="0.83285">
        <ele>1473</ele>
        <time>2018-12-02T11:48:16.000Z</time>
      </trkpt>
      <trkpt lat="42.90858" lon="0.83284">
        <ele>1473</ele>
        <time>2018-12-02T11:48:18.000Z</time>
      </trkpt>
      <trkpt lat="42.90857" lon="0.83282">
        <ele>1472</ele>
        <time>2018-12-02T11:48:20.000Z</time>
      </trkpt>
      <trkpt lat="42.90856" lon="0.83282">
        <ele>1472</ele>
        <time>2018-12-02T11:48:22.000Z</time>
      </trkpt>
      <trkpt lat="42.90855" lon="0.8328">
        <ele>1472</ele>
        <time>2018-12-02T11:48:24.000Z</time>
      </trkpt>
      <trkpt lat="42.90855" lon="0.83279">
        <ele>1471</ele>
        <time>2018-12-02T11:48:26.000Z</time>
      </trkpt>
      <trkpt lat="42.90854" lon="0.83278">
        <ele>1471</ele>
        <time>2018-12-02T11:48:28.000Z</time>
      </trkpt>
      <trkpt lat="42.90852" lon="0.83278">
        <ele>1471</ele>
        <time>2018-12-02T11:48:31.000Z</time>
      </trkpt>
      <trkpt lat="42.9085" lon="0.83278">
        <ele>1470</ele>
        <time>2018-12-02T11:48:33.000Z</time>
      </trkpt>
      <trkpt lat="42.90848" lon="0.83277">
        <ele>1470</ele>
        <time>2018-12-02T11:48:35.000Z</time>
      </trkpt>
      <trkpt lat="42.90847" lon="0.83277">
        <ele>1470</ele>
        <time>2018-12-02T11:48:37.000Z</time>
      </trkpt>
      <trkpt lat="42.90845" lon="0.83277">
        <ele>1470</ele>
        <time>2018-12-02T11:48:39.000Z</time>
      </trkpt>
      <trkpt lat="42.90843" lon="0.83278">
        <ele>1470</ele>
        <time>2018-12-02T11:48:41.000Z</time>
      </trkpt>
      <trkpt lat="42.90842" lon="0.83279">
        <ele>1470</ele>
        <time>2018-12-02T11:48:43.000Z</time>
      </trkpt>
      <trkpt lat="42.9084" lon="0.8328">
        <ele>1471</ele>
        <time>2018-12-02T11:48:45.000Z</time>
      </trkpt>
      <trkpt lat="42.90838" lon="0.8328">
        <ele>1470</ele>
        <time>2018-12-02T11:48:47.000Z</time>
      </trkpt>
      <trkpt lat="42.90836" lon="0.8328">
        <ele>1470</ele>
        <time>2018-12-02T11:48:49.000Z</time>
      </trkpt>
      <trkpt lat="42.90834" lon="0.83281">
        <ele>1470</ele>
        <time>2018-12-02T11:48:51.000Z</time>
      </trkpt>
      <trkpt lat="42.90833" lon="0.8328">
        <ele>1470</ele>
        <time>2018-12-02T11:48:53.000Z</time>
      </trkpt>
      <trkpt lat="42.90831" lon="0.8328">
        <ele>1469</ele>
        <time>2018-12-02T11:48:55.000Z</time>
      </trkpt>
      <trkpt lat="42.90828" lon="0.8328">
        <ele>1469</ele>
        <time>2018-12-02T11:48:57.000Z</time>
      </trkpt>
      <trkpt lat="42.90826" lon="0.8328">
        <ele>1469</ele>
        <time>2018-12-02T11:48:59.000Z</time>
      </trkpt>
      <trkpt lat="42.90824" lon="0.8328">
        <ele>1469</ele>
        <time>2018-12-02T11:49:01.000Z</time>
      </trkpt>
      <trkpt lat="42.90822" lon="0.8328">
        <ele>1468</ele>
        <time>2018-12-02T11:49:03.000Z</time>
      </trkpt>
      <trkpt lat="42.9082" lon="0.8328">
        <ele>1468</ele>
        <time>2018-12-02T11:49:05.000Z</time>
      </trkpt>
      <trkpt lat="42.90819" lon="0.83279">
        <ele>1467</ele>
        <time>2018-12-02T11:49:07.000Z</time>
      </trkpt>
      <trkpt lat="42.90818" lon="0.83279">
        <ele>1467</ele>
        <time>2018-12-02T11:49:09.000Z</time>
      </trkpt>
      <trkpt lat="42.90816" lon="0.83278">
        <ele>1467</ele>
        <time>2018-12-02T11:49:11.000Z</time>
      </trkpt>
      <trkpt lat="42.90815" lon="0.83279">
        <ele>1467</ele>
        <time>2018-12-02T11:49:13.000Z</time>
      </trkpt>
      <trkpt lat="42.90813" lon="0.83278">
        <ele>1466</ele>
        <time>2018-12-02T11:49:15.000Z</time>
      </trkpt>
      <trkpt lat="42.90812" lon="0.83278">
        <ele>1466</ele>
        <time>2018-12-02T11:49:17.000Z</time>
      </trkpt>
      <trkpt lat="42.90811" lon="0.83279">
        <ele>1466</ele>
        <time>2018-12-02T11:49:19.000Z</time>
      </trkpt>
      <trkpt lat="42.9081" lon="0.83278">
        <ele>1466</ele>
        <time>2018-12-02T11:49:21.000Z</time>
      </trkpt>
      <trkpt lat="42.90809" lon="0.83278">
        <ele>1465</ele>
        <time>2018-12-02T11:49:23.000Z</time>
      </trkpt>
      <trkpt lat="42.90807" lon="0.83279">
        <ele>1465</ele>
        <time>2018-12-02T11:49:25.000Z</time>
      </trkpt>
      <trkpt lat="42.90806" lon="0.83279">
        <ele>1465</ele>
        <time>2018-12-02T11:49:27.000Z</time>
      </trkpt>
      <trkpt lat="42.90806" lon="0.83279">
        <ele>1465</ele>
        <time>2018-12-02T11:49:29.000Z</time>
      </trkpt>
      <trkpt lat="42.90806" lon="0.83279">
        <ele>1465</ele>
        <time>2018-12-02T11:49:31.000Z</time>
      </trkpt>
      <trkpt lat="42.90805" lon="0.83279">
        <ele>1465</ele>
        <time>2018-12-02T11:49:33.000Z</time>
      </trkpt>
      <trkpt lat="42.90804" lon="0.83278">
        <ele>1464</ele>
        <time>2018-12-02T11:49:35.000Z</time>
      </trkpt>
      <trkpt lat="42.90804" lon="0.83278">
        <ele>1464</ele>
        <time>2018-12-02T11:49:37.000Z</time>
      </trkpt>
      <trkpt lat="42.90801" lon="0.8328">
        <ele>1464</ele>
        <time>2018-12-02T11:49:39.000Z</time>
      </trkpt>
      <trkpt lat="42.90797" lon="0.83281">
        <ele>1463</ele>
        <time>2018-12-02T11:49:41.000Z</time>
      </trkpt>
      <trkpt lat="42.90794" lon="0.83283">
        <ele>1463</ele>
        <time>2018-12-02T11:49:43.000Z</time>
      </trkpt>
      <trkpt lat="42.90791" lon="0.83284">
        <ele>1462</ele>
        <time>2018-12-02T11:49:45.000Z</time>
      </trkpt>
      <trkpt lat="42.90789" lon="0.83285">
        <ele>1462</ele>
        <time>2018-12-02T11:49:47.000Z</time>
      </trkpt>
      <trkpt lat="42.90788" lon="0.83285">
        <ele>1461</ele>
        <time>2018-12-02T11:49:49.000Z</time>
      </trkpt>
      <trkpt lat="42.90786" lon="0.83287">
        <ele>1461</ele>
        <time>2018-12-02T11:49:51.000Z</time>
      </trkpt>
      <trkpt lat="42.90785" lon="0.83289">
        <ele>1462</ele>
        <time>2018-12-02T11:49:53.000Z</time>
      </trkpt>
      <trkpt lat="42.90783" lon="0.8329">
        <ele>1461</ele>
        <time>2018-12-02T11:49:55.000Z</time>
      </trkpt>
      <trkpt lat="42.90782" lon="0.83291">
        <ele>1461</ele>
        <time>2018-12-02T11:49:57.000Z</time>
      </trkpt>
      <trkpt lat="42.9078" lon="0.83293">
        <ele>1461</ele>
        <time>2018-12-02T11:49:59.000Z</time>
      </trkpt>
      <trkpt lat="42.90779" lon="0.83294">
        <ele>1461</ele>
        <time>2018-12-02T11:50:01.000Z</time>
      </trkpt>
      <trkpt lat="42.90778" lon="0.83295">
        <ele>1461</ele>
        <time>2018-12-02T11:50:03.000Z</time>
      </trkpt>
      <trkpt lat="42.90777" lon="0.83296">
        <ele>1461</ele>
        <time>2018-12-02T11:50:05.000Z</time>
      </trkpt>
      <trkpt lat="42.90775" lon="0.83296">
        <ele>1461</ele>
        <time>2018-12-02T11:50:07.000Z</time>
      </trkpt>
      <trkpt lat="42.90773" lon="0.83297">
        <ele>1460</ele>
        <time>2018-12-02T11:50:09.000Z</time>
      </trkpt>
      <trkpt lat="42.90771" lon="0.83298">
        <ele>1460</ele>
        <time>2018-12-02T11:50:11.000Z</time>
      </trkpt>
      <trkpt lat="42.90769" lon="0.83299">
        <ele>1460</ele>
        <time>2018-12-02T11:50:13.000Z</time>
      </trkpt>
      <trkpt lat="42.90765" lon="0.833">
        <ele>1459</ele>
        <time>2018-12-02T11:50:15.000Z</time>
      </trkpt>
      <trkpt lat="42.90762" lon="0.83302">
        <ele>1458</ele>
        <time>2018-12-02T11:50:17.000Z</time>
      </trkpt>
      <trkpt lat="42.90757" lon="0.83303">
        <ele>1457</ele>
        <time>2018-12-02T11:50:20.000Z</time>
      </trkpt>
      <trkpt lat="42.90754" lon="0.83304">
        <ele>1458</ele>
        <time>2018-12-02T11:50:22.000Z</time>
      </trkpt>
      <trkpt lat="42.90751" lon="0.83305">
        <ele>1457</ele>
        <time>2018-12-02T11:50:24.000Z</time>
      </trkpt>
      <trkpt lat="42.90747" lon="0.83307">
        <ele>1457</ele>
        <time>2018-12-02T11:50:26.000Z</time>
      </trkpt>
      <trkpt lat="42.90744" lon="0.83308">
        <ele>1457</ele>
        <time>2018-12-02T11:50:28.000Z</time>
      </trkpt>
      <trkpt lat="42.90738" lon="0.83308">
        <ele>1456</ele>
        <time>2018-12-02T11:50:31.000Z</time>
      </trkpt>
      <trkpt lat="42.90735" lon="0.83307">
        <ele>1456</ele>
        <time>2018-12-02T11:50:33.000Z</time>
      </trkpt>
      <trkpt lat="42.90734" lon="0.83306">
        <ele>1455</ele>
        <time>2018-12-02T11:50:35.000Z</time>
      </trkpt>
      <trkpt lat="42.90733" lon="0.83305">
        <ele>1455</ele>
        <time>2018-12-02T11:50:37.000Z</time>
      </trkpt>
      <trkpt lat="42.90733" lon="0.83304">
        <ele>1455</ele>
        <time>2018-12-02T11:50:39.000Z</time>
      </trkpt>
      <trkpt lat="42.90731" lon="0.83303">
        <ele>1455</ele>
        <time>2018-12-02T11:50:41.000Z</time>
      </trkpt>
      <trkpt lat="42.9073" lon="0.83303">
        <ele>1455</ele>
        <time>2018-12-02T11:50:43.000Z</time>
      </trkpt>
      <trkpt lat="42.90729" lon="0.83302">
        <ele>1455</ele>
        <time>2018-12-02T11:50:45.000Z</time>
      </trkpt>
      <trkpt lat="42.90728" lon="0.83302">
        <ele>1455</ele>
        <time>2018-12-02T11:50:47.000Z</time>
      </trkpt>
      <trkpt lat="42.90727" lon="0.83301">
        <ele>1454</ele>
        <time>2018-12-02T11:50:50.000Z</time>
      </trkpt>
      <trkpt lat="42.90726" lon="0.83301">
        <ele>1454</ele>
        <time>2018-12-02T11:50:52.000Z</time>
      </trkpt>
      <trkpt lat="42.90725" lon="0.83301">
        <ele>1454</ele>
        <time>2018-12-02T11:50:54.000Z</time>
      </trkpt>
      <trkpt lat="42.90724" lon="0.833">
        <ele>1454</ele>
        <time>2018-12-02T11:50:56.000Z</time>
      </trkpt>
      <trkpt lat="42.90723" lon="0.83301">
        <ele>1454</ele>
        <time>2018-12-02T11:50:58.000Z</time>
      </trkpt>
      <trkpt lat="42.9072" lon="0.83299">
        <ele>1454</ele>
        <time>2018-12-02T11:51:02.000Z</time>
      </trkpt>
      <trkpt lat="42.90719" lon="0.83299">
        <ele>1454</ele>
        <time>2018-12-02T11:51:04.000Z</time>
      </trkpt>
      <trkpt lat="42.90719" lon="0.83299">
        <ele>1453</ele>
        <time>2018-12-02T11:51:06.000Z</time>
      </trkpt>
      <trkpt lat="42.90718" lon="0.83299">
        <ele>1453</ele>
        <time>2018-12-02T11:51:08.000Z</time>
      </trkpt>
      <trkpt lat="42.90717" lon="0.83299">
        <ele>1453</ele>
        <time>2018-12-02T11:51:11.000Z</time>
      </trkpt>
      <trkpt lat="42.90716" lon="0.83299">
        <ele>1453</ele>
        <time>2018-12-02T11:51:13.000Z</time>
      </trkpt>
      <trkpt lat="42.90715" lon="0.83299">
        <ele>1453</ele>
        <time>2018-12-02T11:51:16.000Z</time>
      </trkpt>
      <trkpt lat="42.90714" lon="0.83298">
        <ele>1453</ele>
        <time>2018-12-02T11:51:18.000Z</time>
      </trkpt>
      <trkpt lat="42.90713" lon="0.83298">
        <ele>1453</ele>
        <time>2018-12-02T11:51:20.000Z</time>
      </trkpt>
      <trkpt lat="42.90712" lon="0.83299">
        <ele>1453</ele>
        <time>2018-12-02T11:51:23.000Z</time>
      </trkpt>
      <trkpt lat="42.90709" lon="0.83299">
        <ele>1452</ele>
        <time>2018-12-02T11:51:25.000Z</time>
      </trkpt>
      <trkpt lat="42.90708" lon="0.833">
        <ele>1452</ele>
        <time>2018-12-02T11:51:27.000Z</time>
      </trkpt>
      <trkpt lat="42.90707" lon="0.833">
        <ele>1452</ele>
        <time>2018-12-02T11:51:29.000Z</time>
      </trkpt>
      <trkpt lat="42.90706" lon="0.833">
        <ele>1452</ele>
        <time>2018-12-02T11:51:31.000Z</time>
      </trkpt>
      <trkpt lat="42.90705" lon="0.83301">
        <ele>1452</ele>
        <time>2018-12-02T11:51:33.000Z</time>
      </trkpt>
      <trkpt lat="42.90703" lon="0.83301">
        <ele>1452</ele>
        <time>2018-12-02T11:51:35.000Z</time>
      </trkpt>
      <trkpt lat="42.90701" lon="0.833">
        <ele>1452</ele>
        <time>2018-12-02T11:51:37.000Z</time>
      </trkpt>
      <trkpt lat="42.90699" lon="0.833">
        <ele>1451</ele>
        <time>2018-12-02T11:51:39.000Z</time>
      </trkpt>
      <trkpt lat="42.90698" lon="0.833">
        <ele>1451</ele>
        <time>2018-12-02T11:51:41.000Z</time>
      </trkpt>
      <trkpt lat="42.90696" lon="0.83299">
        <ele>1451</ele>
        <time>2018-12-02T11:51:43.000Z</time>
      </trkpt>
      <trkpt lat="42.90695" lon="0.83299">
        <ele>1451</ele>
        <time>2018-12-02T11:51:45.000Z</time>
      </trkpt>
      <trkpt lat="42.90693" lon="0.83299">
        <ele>1451</ele>
        <time>2018-12-02T11:51:47.000Z</time>
      </trkpt>
      <trkpt lat="42.90691" lon="0.83299">
        <ele>1451</ele>
        <time>2018-12-02T11:51:49.000Z</time>
      </trkpt>
      <trkpt lat="42.9069" lon="0.83299">
        <ele>1450</ele>
        <time>2018-12-02T11:51:51.000Z</time>
      </trkpt>
      <trkpt lat="42.90689" lon="0.833">
        <ele>1450</ele>
        <time>2018-12-02T11:51:53.000Z</time>
      </trkpt>
      <trkpt lat="42.90687" lon="0.83299">
        <ele>1450</ele>
        <time>2018-12-02T11:51:55.000Z</time>
      </trkpt>
      <trkpt lat="42.90685" lon="0.83299">
        <ele>1450</ele>
        <time>2018-12-02T11:51:57.000Z</time>
      </trkpt>
      <trkpt lat="42.90684" lon="0.83299">
        <ele>1450</ele>
        <time>2018-12-02T11:51:59.000Z</time>
      </trkpt>
      <trkpt lat="42.90683" lon="0.83299">
        <ele>1450</ele>
        <time>2018-12-02T11:52:01.000Z</time>
      </trkpt>
      <trkpt lat="42.90682" lon="0.833">
        <ele>1450</ele>
        <time>2018-12-02T11:52:03.000Z</time>
      </trkpt>
      <trkpt lat="42.90681" lon="0.833">
        <ele>1449</ele>
        <time>2018-12-02T11:52:05.000Z</time>
      </trkpt>
      <trkpt lat="42.9068" lon="0.833">
        <ele>1449</ele>
        <time>2018-12-02T11:52:07.000Z</time>
      </trkpt>
      <trkpt lat="42.90678" lon="0.83301">
        <ele>1449</ele>
        <time>2018-12-02T11:52:09.000Z</time>
      </trkpt>
      <trkpt lat="42.90677" lon="0.83302">
        <ele>1449</ele>
        <time>2018-12-02T11:52:11.000Z</time>
      </trkpt>
      <trkpt lat="42.90677" lon="0.83302">
        <ele>1449</ele>
        <time>2018-12-02T11:52:13.000Z</time>
      </trkpt>
      <trkpt lat="42.90676" lon="0.83301">
        <ele>1449</ele>
        <time>2018-12-02T11:52:15.000Z</time>
      </trkpt>
      <trkpt lat="42.90675" lon="0.83301">
        <ele>1449</ele>
        <time>2018-12-02T11:52:17.000Z</time>
      </trkpt>
      <trkpt lat="42.90675" lon="0.833">
        <ele>1449</ele>
        <time>2018-12-02T11:52:19.000Z</time>
      </trkpt>
      <trkpt lat="42.90674" lon="0.833">
        <ele>1449</ele>
        <time>2018-12-02T11:52:21.000Z</time>
      </trkpt>
      <trkpt lat="42.90673" lon="0.83299">
        <ele>1449</ele>
        <time>2018-12-02T11:52:23.000Z</time>
      </trkpt>
      <trkpt lat="42.90672" lon="0.83299">
        <ele>1449</ele>
        <time>2018-12-02T11:52:25.000Z</time>
      </trkpt>
      <trkpt lat="42.90672" lon="0.83299">
        <ele>1449</ele>
        <time>2018-12-02T11:52:27.000Z</time>
      </trkpt>
      <trkpt lat="42.90671" lon="0.83299">
        <ele>1449</ele>
        <time>2018-12-02T11:52:29.000Z</time>
      </trkpt>
      <trkpt lat="42.90671" lon="0.83299">
        <ele>1449</ele>
        <time>2018-12-02T11:52:31.000Z</time>
      </trkpt>
      <trkpt lat="42.9067" lon="0.83299">
        <ele>1450</ele>
        <time>2018-12-02T11:52:33.000Z</time>
      </trkpt>
      <trkpt lat="42.90669" lon="0.833">
        <ele>1450</ele>
        <time>2018-12-02T11:52:35.000Z</time>
      </trkpt>
      <trkpt lat="42.90668" lon="0.83301">
        <ele>1450</ele>
        <time>2018-12-02T11:52:37.000Z</time>
      </trkpt>
      <trkpt lat="42.90666" lon="0.83301">
        <ele>1451</ele>
        <time>2018-12-02T11:52:39.000Z</time>
      </trkpt>
      <trkpt lat="42.90665" lon="0.83302">
        <ele>1451</ele>
        <time>2018-12-02T11:52:41.000Z</time>
      </trkpt>
      <trkpt lat="42.90664" lon="0.83303">
        <ele>1451</ele>
        <time>2018-12-02T11:52:43.000Z</time>
      </trkpt>
      <trkpt lat="42.90663" lon="0.83303">
        <ele>1451</ele>
        <time>2018-12-02T11:52:45.000Z</time>
      </trkpt>
      <trkpt lat="42.90662" lon="0.83303">
        <ele>1451</ele>
        <time>2018-12-02T11:52:47.000Z</time>
      </trkpt>
      <trkpt lat="42.90661" lon="0.83303">
        <ele>1452</ele>
        <time>2018-12-02T11:52:49.000Z</time>
      </trkpt>
      <trkpt lat="42.9066" lon="0.83304">
        <ele>1452</ele>
        <time>2018-12-02T11:52:51.000Z</time>
      </trkpt>
      <trkpt lat="42.90659" lon="0.83305">
        <ele>1452</ele>
        <time>2018-12-02T11:52:53.000Z</time>
      </trkpt>
      <trkpt lat="42.90657" lon="0.83305">
        <ele>1452</ele>
        <time>2018-12-02T11:52:55.000Z</time>
      </trkpt>
      <trkpt lat="42.90656" lon="0.83306">
        <ele>1452</ele>
        <time>2018-12-02T11:52:57.000Z</time>
      </trkpt>
      <trkpt lat="42.90655" lon="0.83306">
        <ele>1453</ele>
        <time>2018-12-02T11:52:59.000Z</time>
      </trkpt>
      <trkpt lat="42.90654" lon="0.83307">
        <ele>1453</ele>
        <time>2018-12-02T11:53:01.000Z</time>
      </trkpt>
      <trkpt lat="42.90653" lon="0.83308">
        <ele>1453</ele>
        <time>2018-12-02T11:53:03.000Z</time>
      </trkpt>
      <trkpt lat="42.90653" lon="0.8331">
        <ele>1452</ele>
        <time>2018-12-02T11:53:05.000Z</time>
      </trkpt>
      <trkpt lat="42.90652" lon="0.83311">
        <ele>1452</ele>
        <time>2018-12-02T11:53:07.000Z</time>
      </trkpt>
      <trkpt lat="42.90652" lon="0.83313">
        <ele>1452</ele>
        <time>2018-12-02T11:53:09.000Z</time>
      </trkpt>
      <trkpt lat="42.90652" lon="0.83314">
        <ele>1452</ele>
        <time>2018-12-02T11:53:11.000Z</time>
      </trkpt>
      <trkpt lat="42.9065" lon="0.83316">
        <ele>1452</ele>
        <time>2018-12-02T11:53:13.000Z</time>
      </trkpt>
      <trkpt lat="42.90648" lon="0.83316">
        <ele>1452</ele>
        <time>2018-12-02T11:53:15.000Z</time>
      </trkpt>
      <trkpt lat="42.90647" lon="0.83317">
        <ele>1452</ele>
        <time>2018-12-02T11:53:17.000Z</time>
      </trkpt>
      <trkpt lat="42.90646" lon="0.83317">
        <ele>1452</ele>
        <time>2018-12-02T11:53:19.000Z</time>
      </trkpt>
      <trkpt lat="42.90644" lon="0.83318">
        <ele>1453</ele>
        <time>2018-12-02T11:53:21.000Z</time>
      </trkpt>
      <trkpt lat="42.90643" lon="0.83317">
        <ele>1453</ele>
        <time>2018-12-02T11:53:23.000Z</time>
      </trkpt>
      <trkpt lat="42.90642" lon="0.83316">
        <ele>1453</ele>
        <time>2018-12-02T11:53:25.000Z</time>
      </trkpt>
      <trkpt lat="42.90641" lon="0.83315">
        <ele>1454</ele>
        <time>2018-12-02T11:53:27.000Z</time>
      </trkpt>
      <trkpt lat="42.9064" lon="0.83315">
        <ele>1454</ele>
        <time>2018-12-02T11:53:29.000Z</time>
      </trkpt>
      <trkpt lat="42.9064" lon="0.83314">
        <ele>1454</ele>
        <time>2018-12-02T11:53:31.000Z</time>
      </trkpt>
      <trkpt lat="42.90639" lon="0.83314">
        <ele>1454</ele>
        <time>2018-12-02T11:53:33.000Z</time>
      </trkpt>
      <trkpt lat="42.90639" lon="0.83315">
        <ele>1454</ele>
        <time>2018-12-02T11:53:35.000Z</time>
      </trkpt>
      <trkpt lat="42.90638" lon="0.83315">
        <ele>1454</ele>
        <time>2018-12-02T11:53:37.000Z</time>
      </trkpt>
      <trkpt lat="42.90637" lon="0.83315">
        <ele>1455</ele>
        <time>2018-12-02T11:53:39.000Z</time>
      </trkpt>
      <trkpt lat="42.90637" lon="0.83315">
        <ele>1455</ele>
        <time>2018-12-02T11:53:41.000Z</time>
      </trkpt>
      <trkpt lat="42.90635" lon="0.83315">
        <ele>1455</ele>
        <time>2018-12-02T11:53:43.000Z</time>
      </trkpt>
      <trkpt lat="42.90635" lon="0.83315">
        <ele>1455</ele>
        <time>2018-12-02T11:53:45.000Z</time>
      </trkpt>
      <trkpt lat="42.90635" lon="0.83315">
        <ele>1455</ele>
        <time>2018-12-02T11:53:47.000Z</time>
      </trkpt>
      <trkpt lat="42.90636" lon="0.83315">
        <ele>1455</ele>
        <time>2018-12-02T11:53:49.000Z</time>
      </trkpt>
      <trkpt lat="42.90636" lon="0.83315">
        <ele>1455</ele>
        <time>2018-12-02T11:53:51.000Z</time>
      </trkpt>
      <trkpt lat="42.90637" lon="0.83315">
        <ele>1455</ele>
        <time>2018-12-02T11:53:53.000Z</time>
      </trkpt>
      <trkpt lat="42.90636" lon="0.83315">
        <ele>1455</ele>
        <time>2018-12-02T11:53:55.000Z</time>
      </trkpt>
      <trkpt lat="42.90636" lon="0.83316">
        <ele>1455</ele>
        <time>2018-12-02T11:53:57.000Z</time>
      </trkpt>
      <trkpt lat="42.90635" lon="0.83316">
        <ele>1455</ele>
        <time>2018-12-02T11:53:59.000Z</time>
      </trkpt>
      <trkpt lat="42.90634" lon="0.83316">
        <ele>1455</ele>
        <time>2018-12-02T11:54:01.000Z</time>
      </trkpt>
      <trkpt lat="42.90634" lon="0.83315">
        <ele>1455</ele>
        <time>2018-12-02T11:54:03.000Z</time>
      </trkpt>
      <trkpt lat="42.90634" lon="0.83314">
        <ele>1455</ele>
        <time>2018-12-02T11:54:05.000Z</time>
      </trkpt>
      <trkpt lat="42.90634" lon="0.83314">
        <ele>1456</ele>
        <time>2018-12-02T11:54:07.000Z</time>
      </trkpt>
      <trkpt lat="42.90634" lon="0.83313">
        <ele>1456</ele>
        <time>2018-12-02T11:54:09.000Z</time>
      </trkpt>
      <trkpt lat="42.90634" lon="0.83313">
        <ele>1456</ele>
        <time>2018-12-02T11:54:11.000Z</time>
      </trkpt>
      <trkpt lat="42.90634" lon="0.83312">
        <ele>1456</ele>
        <time>2018-12-02T11:54:13.000Z</time>
      </trkpt>
      <trkpt lat="42.90634" lon="0.83312">
        <ele>1456</ele>
        <time>2018-12-02T11:54:15.000Z</time>
      </trkpt>
      <trkpt lat="42.90635" lon="0.83313">
        <ele>1455</ele>
        <time>2018-12-02T11:54:17.000Z</time>
      </trkpt>
      <trkpt lat="42.90635" lon="0.83314">
        <ele>1455</ele>
        <time>2018-12-02T11:54:19.000Z</time>
      </trkpt>
      <trkpt lat="42.90636" lon="0.83314">
        <ele>1455</ele>
        <time>2018-12-02T11:54:21.000Z</time>
      </trkpt>
      <trkpt lat="42.90636" lon="0.83314">
        <ele>1455</ele>
        <time>2018-12-02T11:54:23.000Z</time>
      </trkpt>
      <trkpt lat="42.90635" lon="0.83315">
        <ele>1455</ele>
        <time>2018-12-02T11:54:25.000Z</time>
      </trkpt>
      <trkpt lat="42.90634" lon="0.83315">
        <ele>1455</ele>
        <time>2018-12-02T11:54:27.000Z</time>
      </trkpt>
      <trkpt lat="42.90633" lon="0.83316">
        <ele>1455</ele>
        <time>2018-12-02T11:54:29.000Z</time>
      </trkpt>
      <trkpt lat="42.90632" lon="0.83316">
        <ele>1455</ele>
        <time>2018-12-02T11:54:31.000Z</time>
      </trkpt>
      <trkpt lat="42.90632" lon="0.83316">
        <ele>1455</ele>
        <time>2018-12-02T11:54:33.000Z</time>
      </trkpt>
      <trkpt lat="42.90632" lon="0.83315">
        <ele>1456</ele>
        <time>2018-12-02T11:54:35.000Z</time>
      </trkpt>
      <trkpt lat="42.90632" lon="0.83315">
        <ele>1456</ele>
        <time>2018-12-02T11:54:37.000Z</time>
      </trkpt>
      <trkpt lat="42.90631" lon="0.83316">
        <ele>1456</ele>
        <time>2018-12-02T11:54:39.000Z</time>
      </trkpt>
      <trkpt lat="42.90632" lon="0.83316">
        <ele>1455</ele>
        <time>2018-12-02T11:54:41.000Z</time>
      </trkpt>
      <trkpt lat="42.90632" lon="0.83316">
        <ele>1455</ele>
        <time>2018-12-02T11:54:43.000Z</time>
      </trkpt>
      <trkpt lat="42.90633" lon="0.83316">
        <ele>1455</ele>
        <time>2018-12-02T11:54:45.000Z</time>
      </trkpt>
      <trkpt lat="42.90633" lon="0.83315">
        <ele>1455</ele>
        <time>2018-12-02T11:54:47.000Z</time>
      </trkpt>
      <trkpt lat="42.90634" lon="0.83315">
        <ele>1455</ele>
        <time>2018-12-02T11:54:49.000Z</time>
      </trkpt>
      <trkpt lat="42.90634" lon="0.83315">
        <ele>1455</ele>
        <time>2018-12-02T11:54:51.000Z</time>
      </trkpt>
      <trkpt lat="42.90634" lon="0.83314">
        <ele>1455</ele>
        <time>2018-12-02T11:54:53.000Z</time>
      </trkpt>
      <trkpt lat="42.90634" lon="0.83315">
        <ele>1455</ele>
        <time>2018-12-02T11:54:55.000Z</time>
      </trkpt>
      <trkpt lat="42.90634" lon="0.83315">
        <ele>1455</ele>
        <time>2018-12-02T11:54:57.000Z</time>
      </trkpt>
      <trkpt lat="42.90634" lon="0.83315">
        <ele>1455</ele>
        <time>2018-12-02T11:54:59.000Z</time>
      </trkpt>
      <trkpt lat="42.90635" lon="0.83315">
        <ele>1455</ele>
        <time>2018-12-02T11:55:01.000Z</time>
      </trkpt>
      <trkpt lat="42.90635" lon="0.83315">
        <ele>1455</ele>
        <time>2018-12-02T11:55:03.000Z</time>
      </trkpt>
      <trkpt lat="42.90635" lon="0.83315">
        <ele>1455</ele>
        <time>2018-12-02T11:55:05.000Z</time>
      </trkpt>
      <trkpt lat="42.90635" lon="0.83315">
        <ele>1455</ele>
        <time>2018-12-02T11:55:07.000Z</time>
      </trkpt>
      <trkpt lat="42.90635" lon="0.83315">
        <ele>1455</ele>
        <time>2018-12-02T11:55:09.000Z</time>
      </trkpt>
      <trkpt lat="42.90636" lon="0.83314">
        <ele>1455</ele>
        <time>2018-12-02T11:55:11.000Z</time>
      </trkpt>
      <trkpt lat="42.90636" lon="0.83313">
        <ele>1455</ele>
        <time>2018-12-02T11:55:13.000Z</time>
      </trkpt>
      <trkpt lat="42.90636" lon="0.83313">
        <ele>1455</ele>
        <time>2018-12-02T11:55:15.000Z</time>
      </trkpt>
      <trkpt lat="42.90636" lon="0.83312">
        <ele>1455</ele>
        <time>2018-12-02T11:55:17.000Z</time>
      </trkpt>
      <trkpt lat="42.90636" lon="0.83312">
        <ele>1455</ele>
        <time>2018-12-02T11:55:19.000Z</time>
      </trkpt>
      <trkpt lat="42.90636" lon="0.83313">
        <ele>1455</ele>
        <time>2018-12-02T11:55:21.000Z</time>
      </trkpt>
      <trkpt lat="42.90636" lon="0.83314">
        <ele>1455</ele>
        <time>2018-12-02T11:55:23.000Z</time>
      </trkpt>
      <trkpt lat="42.90637" lon="0.83315">
        <ele>1455</ele>
        <time>2018-12-02T11:55:25.000Z</time>
      </trkpt>
      <trkpt lat="42.90637" lon="0.83316">
        <ele>1454</ele>
        <time>2018-12-02T11:55:27.000Z</time>
      </trkpt>
      <trkpt lat="42.90636" lon="0.83316">
        <ele>1455</ele>
        <time>2018-12-02T11:55:29.000Z</time>
      </trkpt>
      <trkpt lat="42.90636" lon="0.83316">
        <ele>1455</ele>
        <time>2018-12-02T11:55:31.000Z</time>
      </trkpt>
      <trkpt lat="42.90636" lon="0.83315">
        <ele>1455</ele>
        <time>2018-12-02T11:55:33.000Z</time>
      </trkpt>
      <trkpt lat="42.90635" lon="0.83315">
        <ele>1455</ele>
        <time>2018-12-02T11:55:35.000Z</time>
      </trkpt>
      <trkpt lat="42.90635" lon="0.83314">
        <ele>1455</ele>
        <time>2018-12-02T11:55:37.000Z</time>
      </trkpt>
      <trkpt lat="42.90634" lon="0.83314">
        <ele>1455</ele>
        <time>2018-12-02T11:55:39.000Z</time>
      </trkpt>
      <trkpt lat="42.90634" lon="0.83313">
        <ele>1456</ele>
        <time>2018-12-02T11:55:41.000Z</time>
      </trkpt>
      <trkpt lat="42.90634" lon="0.83313">
        <ele>1456</ele>
        <time>2018-12-02T11:55:43.000Z</time>
      </trkpt>
      <trkpt lat="42.90634" lon="0.83314">
        <ele>1455</ele>
        <time>2018-12-02T11:55:45.000Z</time>
      </trkpt>
      <trkpt lat="42.90635" lon="0.83314">
        <ele>1455</ele>
        <time>2018-12-02T11:55:47.000Z</time>
      </trkpt>
      <trkpt lat="42.90635" lon="0.83314">
        <ele>1455</ele>
        <time>2018-12-02T11:55:49.000Z</time>
      </trkpt>
      <trkpt lat="42.90635" lon="0.83314">
        <ele>1455</ele>
        <time>2018-12-02T11:55:51.000Z</time>
      </trkpt>
      <trkpt lat="42.90635" lon="0.83314">
        <ele>1455</ele>
        <time>2018-12-02T11:55:53.000Z</time>
      </trkpt>
      <trkpt lat="42.90635" lon="0.83314">
        <ele>1455</ele>
        <time>2018-12-02T11:55:55.000Z</time>
      </trkpt>
      <trkpt lat="42.90635" lon="0.83314">
        <ele>1455</ele>
        <time>2018-12-02T11:55:57.000Z</time>
      </trkpt>
      <trkpt lat="42.90635" lon="0.83314">
        <ele>1455</ele>
        <time>2018-12-02T11:55:59.000Z</time>
      </trkpt>
      <trkpt lat="42.90635" lon="0.83314">
        <ele>1455</ele>
        <time>2018-12-02T11:56:01.000Z</time>
      </trkpt>
      <trkpt lat="42.90635" lon="0.83314">
        <ele>1455</ele>
        <time>2018-12-02T11:56:03.000Z</time>
      </trkpt>
      <trkpt lat="42.90636" lon="0.83314">
        <ele>1455</ele>
        <time>2018-12-02T11:56:05.000Z</time>
      </trkpt>
      <trkpt lat="42.90636" lon="0.83314">
        <ele>1455</ele>
        <time>2018-12-02T11:56:07.000Z</time>
      </trkpt>
      <trkpt lat="42.90636" lon="0.83315">
        <ele>1455</ele>
        <time>2018-12-02T11:56:09.000Z</time>
      </trkpt>
      <trkpt lat="42.90636" lon="0.83315">
        <ele>1455</ele>
        <time>2018-12-02T11:56:11.000Z</time>
      </trkpt>
      <trkpt lat="42.90636" lon="0.83315">
        <ele>1455</ele>
        <time>2018-12-02T11:56:13.000Z</time>
      </trkpt>
      <trkpt lat="42.90637" lon="0.83314">
        <ele>1455</ele>
        <time>2018-12-02T11:56:15.000Z</time>
      </trkpt>
      <trkpt lat="42.90637" lon="0.83314">
        <ele>1455</ele>
        <time>2018-12-02T11:56:17.000Z</time>
      </trkpt>
      <trkpt lat="42.90635" lon="0.83314">
        <ele>1455</ele>
        <time>2018-12-02T11:56:19.000Z</time>
      </trkpt>
      <trkpt lat="42.90635" lon="0.83315">
        <ele>1455</ele>
        <time>2018-12-02T11:56:21.000Z</time>
      </trkpt>
      <trkpt lat="42.90635" lon="0.83316">
        <ele>1455</ele>
        <time>2018-12-02T11:56:23.000Z</time>
      </trkpt>
      <trkpt lat="42.90636" lon="0.83316">
        <ele>1455</ele>
        <time>2018-12-02T11:56:25.000Z</time>
      </trkpt>
      <trkpt lat="42.90635" lon="0.83316">
        <ele>1455</ele>
        <time>2018-12-02T11:56:27.000Z</time>
      </trkpt>
      <trkpt lat="42.90635" lon="0.83316">
        <ele>1455</ele>
        <time>2018-12-02T11:56:29.000Z</time>
      </trkpt>
      <trkpt lat="42.90634" lon="0.83316">
        <ele>1455</ele>
        <time>2018-12-02T11:56:31.000Z</time>
      </trkpt>
      <trkpt lat="42.90634" lon="0.83316">
        <ele>1455</ele>
        <time>2018-12-02T11:56:33.000Z</time>
      </trkpt>
      <trkpt lat="42.90634" lon="0.83315">
        <ele>1455</ele>
        <time>2018-12-02T11:56:35.000Z</time>
      </trkpt>
      <trkpt lat="42.90633" lon="0.83315">
        <ele>1455</ele>
        <time>2018-12-02T11:56:37.000Z</time>
      </trkpt>
      <trkpt lat="42.90632" lon="0.83314">
        <ele>1456</ele>
        <time>2018-12-02T11:56:39.000Z</time>
      </trkpt>
      <trkpt lat="42.90632" lon="0.83313">
        <ele>1456</ele>
        <time>2018-12-02T11:56:41.000Z</time>
      </trkpt>
      <trkpt lat="42.90632" lon="0.83313">
        <ele>1456</ele>
        <time>2018-12-02T11:56:43.000Z</time>
      </trkpt>
      <trkpt lat="42.90632" lon="0.83313">
        <ele>1456</ele>
        <time>2018-12-02T11:56:45.000Z</time>
      </trkpt>
      <trkpt lat="42.90632" lon="0.83313">
        <ele>1456</ele>
        <time>2018-12-02T11:56:47.000Z</time>
      </trkpt>
      <trkpt lat="42.90633" lon="0.83312">
        <ele>1456</ele>
        <time>2018-12-02T11:56:49.000Z</time>
      </trkpt>
      <trkpt lat="42.90633" lon="0.83312">
        <ele>1456</ele>
        <time>2018-12-02T11:56:51.000Z</time>
      </trkpt>
      <trkpt lat="42.90634" lon="0.83312">
        <ele>1456</ele>
        <time>2018-12-02T11:56:53.000Z</time>
      </trkpt>
      <trkpt lat="42.90635" lon="0.83311">
        <ele>1456</ele>
        <time>2018-12-02T11:56:55.000Z</time>
      </trkpt>
      <trkpt lat="42.90636" lon="0.8331">
        <ele>1456</ele>
        <time>2018-12-02T11:56:57.000Z</time>
      </trkpt>
      <trkpt lat="42.90638" lon="0.8331">
        <ele>1455</ele>
        <time>2018-12-02T11:56:59.000Z</time>
      </trkpt>
      <trkpt lat="42.90639" lon="0.8331">
        <ele>1455</ele>
        <time>2018-12-02T11:57:01.000Z</time>
      </trkpt>
      <trkpt lat="42.90641" lon="0.8331">
        <ele>1455</ele>
        <time>2018-12-02T11:57:03.000Z</time>
      </trkpt>
      <trkpt lat="42.90641" lon="0.8331">
        <ele>1455</ele>
        <time>2018-12-02T11:57:05.000Z</time>
      </trkpt>
      <trkpt lat="42.90642" lon="0.8331">
        <ele>1455</ele>
        <time>2018-12-02T11:57:07.000Z</time>
      </trkpt>
      <trkpt lat="42.90642" lon="0.83311">
        <ele>1454</ele>
        <time>2018-12-02T11:57:09.000Z</time>
      </trkpt>
      <trkpt lat="42.90643" lon="0.83311">
        <ele>1454</ele>
        <time>2018-12-02T11:57:11.000Z</time>
      </trkpt>
      <trkpt lat="42.90643" lon="0.83311">
        <ele>1454</ele>
        <time>2018-12-02T11:57:13.000Z</time>
      </trkpt>
      <trkpt lat="42.90641" lon="0.83311">
        <ele>1454</ele>
        <time>2018-12-02T11:57:15.000Z</time>
      </trkpt>
      <trkpt lat="42.90642" lon="0.83311">
        <ele>1454</ele>
        <time>2018-12-02T11:57:17.000Z</time>
      </trkpt>
      <trkpt lat="42.90642" lon="0.83312">
        <ele>1454</ele>
        <time>2018-12-02T11:57:19.000Z</time>
      </trkpt>
      <trkpt lat="42.90642" lon="0.83313">
        <ele>1454</ele>
        <time>2018-12-02T11:57:21.000Z</time>
      </trkpt>
      <trkpt lat="42.90642" lon="0.83313">
        <ele>1454</ele>
        <time>2018-12-02T11:57:23.000Z</time>
      </trkpt>
      <trkpt lat="42.90643" lon="0.83313">
        <ele>1454</ele>
        <time>2018-12-02T11:57:25.000Z</time>
      </trkpt>
      <trkpt lat="42.90642" lon="0.83313">
        <ele>1454</ele>
        <time>2018-12-02T11:57:27.000Z</time>
      </trkpt>
      <trkpt lat="42.90643" lon="0.83313">
        <ele>1454</ele>
        <time>2018-12-02T11:57:29.000Z</time>
      </trkpt>
      <trkpt lat="42.90644" lon="0.83312">
        <ele>1454</ele>
        <time>2018-12-02T11:57:31.000Z</time>
      </trkpt>
      <trkpt lat="42.90644" lon="0.83313">
        <ele>1454</ele>
        <time>2018-12-02T11:57:33.000Z</time>
      </trkpt>
      <trkpt lat="42.90644" lon="0.83313">
        <ele>1454</ele>
        <time>2018-12-02T11:57:35.000Z</time>
      </trkpt>
      <trkpt lat="42.90645" lon="0.83314">
        <ele>1453</ele>
        <time>2018-12-02T11:57:37.000Z</time>
      </trkpt>
      <trkpt lat="42.90645" lon="0.83314">
        <ele>1453</ele>
        <time>2018-12-02T11:57:39.000Z</time>
      </trkpt>
      <trkpt lat="42.90645" lon="0.83315">
        <ele>1453</ele>
        <time>2018-12-02T11:57:41.000Z</time>
      </trkpt>
      <trkpt lat="42.90646" lon="0.83315">
        <ele>1453</ele>
        <time>2018-12-02T11:57:43.000Z</time>
      </trkpt>
      <trkpt lat="42.90645" lon="0.83316">
        <ele>1453</ele>
        <time>2018-12-02T11:57:45.000Z</time>
      </trkpt>
      <trkpt lat="42.90645" lon="0.83316">
        <ele>1453</ele>
        <time>2018-12-02T11:57:47.000Z</time>
      </trkpt>
      <trkpt lat="42.90645" lon="0.83316">
        <ele>1453</ele>
        <time>2018-12-02T11:57:49.000Z</time>
      </trkpt>
      <trkpt lat="42.90644" lon="0.83316">
        <ele>1453</ele>
        <time>2018-12-02T11:57:51.000Z</time>
      </trkpt>
      <trkpt lat="42.90644" lon="0.83316">
        <ele>1453</ele>
        <time>2018-12-02T11:57:53.000Z</time>
      </trkpt>
      <trkpt lat="42.90643" lon="0.83315">
        <ele>1453</ele>
        <time>2018-12-02T11:57:55.000Z</time>
      </trkpt>
      <trkpt lat="42.90642" lon="0.83315">
        <ele>1454</ele>
        <time>2018-12-02T11:57:57.000Z</time>
      </trkpt>
      <trkpt lat="42.90642" lon="0.83315">
        <ele>1454</ele>
        <time>2018-12-02T11:57:59.000Z</time>
      </trkpt>
      <trkpt lat="42.90641" lon="0.83315">
        <ele>1454</ele>
        <time>2018-12-02T11:58:01.000Z</time>
      </trkpt>
      <trkpt lat="42.90641" lon="0.83315">
        <ele>1454</ele>
        <time>2018-12-02T11:58:03.000Z</time>
      </trkpt>
      <trkpt lat="42.9064" lon="0.83315">
        <ele>1454</ele>
        <time>2018-12-02T11:58:05.000Z</time>
      </trkpt>
      <trkpt lat="42.9064" lon="0.83315">
        <ele>1454</ele>
        <time>2018-12-02T11:58:07.000Z</time>
      </trkpt>
      <trkpt lat="42.90639" lon="0.83315">
        <ele>1454</ele>
        <time>2018-12-02T11:58:09.000Z</time>
      </trkpt>
      <trkpt lat="42.9064" lon="0.83315">
        <ele>1454</ele>
        <time>2018-12-02T11:58:11.000Z</time>
      </trkpt>
      <trkpt lat="42.9064" lon="0.83315">
        <ele>1454</ele>
        <time>2018-12-02T11:58:13.000Z</time>
      </trkpt>
      <trkpt lat="42.90639" lon="0.83315">
        <ele>1454</ele>
        <time>2018-12-02T11:58:15.000Z</time>
      </trkpt>
      <trkpt lat="42.90639" lon="0.83315">
        <ele>1454</ele>
        <time>2018-12-02T11:58:17.000Z</time>
      </trkpt>
      <trkpt lat="42.90639" lon="0.83315">
        <ele>1454</ele>
        <time>2018-12-02T11:58:19.000Z</time>
      </trkpt>
      <trkpt lat="42.90639" lon="0.83315">
        <ele>1454</ele>
        <time>2018-12-02T11:58:21.000Z</time>
      </trkpt>
      <trkpt lat="42.90639" lon="0.83315">
        <ele>1454</ele>
        <time>2018-12-02T11:58:23.000Z</time>
      </trkpt>
      <trkpt lat="42.9064" lon="0.83315">
        <ele>1454</ele>
        <time>2018-12-02T11:58:25.000Z</time>
      </trkpt>
      <trkpt lat="42.9064" lon="0.83316">
        <ele>1454</ele>
        <time>2018-12-02T11:58:27.000Z</time>
      </trkpt>
      <trkpt lat="42.9064" lon="0.83316">
        <ele>1454</ele>
        <time>2018-12-02T11:58:29.000Z</time>
      </trkpt>
      <trkpt lat="42.9064" lon="0.83316">
        <ele>1454</ele>
        <time>2018-12-02T11:58:31.000Z</time>
      </trkpt>
      <trkpt lat="42.9064" lon="0.83316">
        <ele>1454</ele>
        <time>2018-12-02T11:58:33.000Z</time>
      </trkpt>
      <trkpt lat="42.9064" lon="0.83316">
        <ele>1454</ele>
        <time>2018-12-02T11:58:35.000Z</time>
      </trkpt>
      <trkpt lat="42.9064" lon="0.83317">
        <ele>1454</ele>
        <time>2018-12-02T11:58:37.000Z</time>
      </trkpt>
      <trkpt lat="42.9064" lon="0.83317">
        <ele>1454</ele>
        <time>2018-12-02T11:58:39.000Z</time>
      </trkpt>
      <trkpt lat="42.90639" lon="0.83317">
        <ele>1454</ele>
        <time>2018-12-02T11:58:41.000Z</time>
      </trkpt>
      <trkpt lat="42.90639" lon="0.83317">
        <ele>1454</ele>
        <time>2018-12-02T11:58:43.000Z</time>
      </trkpt>
      <trkpt lat="42.90638" lon="0.83317">
        <ele>1454</ele>
        <time>2018-12-02T11:58:45.000Z</time>
      </trkpt>
      <trkpt lat="42.90637" lon="0.83317">
        <ele>1454</ele>
        <time>2018-12-02T11:58:47.000Z</time>
      </trkpt>
      <trkpt lat="42.90637" lon="0.83317">
        <ele>1454</ele>
        <time>2018-12-02T11:58:49.000Z</time>
      </trkpt>
      <trkpt lat="42.90636" lon="0.83316">
        <ele>1455</ele>
        <time>2018-12-02T11:58:51.000Z</time>
      </trkpt>
      <trkpt lat="42.90636" lon="0.83316">
        <ele>1455</ele>
        <time>2018-12-02T11:58:53.000Z</time>
      </trkpt>
      <trkpt lat="42.90636" lon="0.83315">
        <ele>1455</ele>
        <time>2018-12-02T11:58:55.000Z</time>
      </trkpt>
      <trkpt lat="42.90635" lon="0.83315">
        <ele>1455</ele>
        <time>2018-12-02T11:58:57.000Z</time>
      </trkpt>
      <trkpt lat="42.90634" lon="0.83315">
        <ele>1455</ele>
        <time>2018-12-02T11:58:59.000Z</time>
      </trkpt>
      <trkpt lat="42.90634" lon="0.83314">
        <ele>1455</ele>
        <time>2018-12-02T11:59:01.000Z</time>
      </trkpt>
      <trkpt lat="42.90634" lon="0.83314">
        <ele>1455</ele>
        <time>2018-12-02T11:59:03.000Z</time>
      </trkpt>
      <trkpt lat="42.90634" lon="0.83314">
        <ele>1455</ele>
        <time>2018-12-02T11:59:05.000Z</time>
      </trkpt>
      <trkpt lat="42.90633" lon="0.83314">
        <ele>1456</ele>
        <time>2018-12-02T11:59:07.000Z</time>
      </trkpt>
      <trkpt lat="42.90633" lon="0.83314">
        <ele>1456</ele>
        <time>2018-12-02T11:59:09.000Z</time>
      </trkpt>
      <trkpt lat="42.90633" lon="0.83313">
        <ele>1456</ele>
        <time>2018-12-02T11:59:11.000Z</time>
      </trkpt>
      <trkpt lat="42.90633" lon="0.83313">
        <ele>1456</ele>
        <time>2018-12-02T11:59:13.000Z</time>
      </trkpt>
      <trkpt lat="42.90634" lon="0.83314">
        <ele>1456</ele>
        <time>2018-12-02T11:59:15.000Z</time>
      </trkpt>
      <trkpt lat="42.90635" lon="0.83314">
        <ele>1455</ele>
        <time>2018-12-02T11:59:17.000Z</time>
      </trkpt>
      <trkpt lat="42.90635" lon="0.83314">
        <ele>1455</ele>
        <time>2018-12-02T11:59:19.000Z</time>
      </trkpt>
      <trkpt lat="42.90635" lon="0.83315">
        <ele>1455</ele>
        <time>2018-12-02T11:59:21.000Z</time>
      </trkpt>
      <trkpt lat="42.90636" lon="0.83315">
        <ele>1455</ele>
        <time>2018-12-02T11:59:23.000Z</time>
      </trkpt>
      <trkpt lat="42.90636" lon="0.83316">
        <ele>1455</ele>
        <time>2018-12-02T11:59:25.000Z</time>
      </trkpt>
      <trkpt lat="42.90637" lon="0.83316">
        <ele>1454</ele>
        <time>2018-12-02T11:59:27.000Z</time>
      </trkpt>
      <trkpt lat="42.90637" lon="0.83316">
        <ele>1454</ele>
        <time>2018-12-02T11:59:29.000Z</time>
      </trkpt>
      <trkpt lat="42.90638" lon="0.83316">
        <ele>1454</ele>
        <time>2018-12-02T11:59:31.000Z</time>
      </trkpt>
      <trkpt lat="42.90638" lon="0.83316">
        <ele>1454</ele>
        <time>2018-12-02T11:59:33.000Z</time>
      </trkpt>
      <trkpt lat="42.90637" lon="0.83316">
        <ele>1454</ele>
        <time>2018-12-02T11:59:35.000Z</time>
      </trkpt>
      <trkpt lat="42.90638" lon="0.83316">
        <ele>1454</ele>
        <time>2018-12-02T11:59:37.000Z</time>
      </trkpt>
      <trkpt lat="42.90638" lon="0.83316">
        <ele>1454</ele>
        <time>2018-12-02T11:59:39.000Z</time>
      </trkpt>
      <trkpt lat="42.90638" lon="0.83316">
        <ele>1454</ele>
        <time>2018-12-02T11:59:41.000Z</time>
      </trkpt>
      <trkpt lat="42.90638" lon="0.83315">
        <ele>1454</ele>
        <time>2018-12-02T11:59:43.000Z</time>
      </trkpt>
      <trkpt lat="42.90639" lon="0.83315">
        <ele>1454</ele>
        <time>2018-12-02T11:59:45.000Z</time>
      </trkpt>
      <trkpt lat="42.90639" lon="0.83315">
        <ele>1454</ele>
        <time>2018-12-02T11:59:47.000Z</time>
      </trkpt>
      <trkpt lat="42.9064" lon="0.83314">
        <ele>1454</ele>
        <time>2018-12-02T11:59:49.000Z</time>
      </trkpt>
      <trkpt lat="42.90641" lon="0.83315">
        <ele>1454</ele>
        <time>2018-12-02T11:59:51.000Z</time>
      </trkpt>
      <trkpt lat="42.90641" lon="0.83315">
        <ele>1454</ele>
        <time>2018-12-02T11:59:53.000Z</time>
      </trkpt>
      <trkpt lat="42.9064" lon="0.83315">
        <ele>1454</ele>
        <time>2018-12-02T11:59:55.000Z</time>
      </trkpt>
      <trkpt lat="42.9064" lon="0.83315">
        <ele>1454</ele>
        <time>2018-12-02T11:59:57.000Z</time>
      </trkpt>
      <trkpt lat="42.9064" lon="0.83315">
        <ele>1454</ele>
        <time>2018-12-02T11:59:59.000Z</time>
      </trkpt>
      <trkpt lat="42.9064" lon="0.83315">
        <ele>1454</ele>
        <time>2018-12-02T12:00:01.000Z</time>
      </trkpt>
      <trkpt lat="42.90639" lon="0.83314">
        <ele>1454</ele>
        <time>2018-12-02T12:00:03.000Z</time>
      </trkpt>
      <trkpt lat="42.90639" lon="0.83314">
        <ele>1454</ele>
        <time>2018-12-02T12:00:05.000Z</time>
      </trkpt>
      <trkpt lat="42.90638" lon="0.83314">
        <ele>1454</ele>
        <time>2018-12-02T12:00:07.000Z</time>
      </trkpt>
      <trkpt lat="42.90637" lon="0.83314">
        <ele>1455</ele>
        <time>2018-12-02T12:00:09.000Z</time>
      </trkpt>
      <trkpt lat="42.90637" lon="0.83314">
        <ele>1455</ele>
        <time>2018-12-02T12:00:11.000Z</time>
      </trkpt>
      <trkpt lat="42.90636" lon="0.83314">
        <ele>1455</ele>
        <time>2018-12-02T12:00:13.000Z</time>
      </trkpt>
      <trkpt lat="42.90636" lon="0.83313">
        <ele>1455</ele>
        <time>2018-12-02T12:00:15.000Z</time>
      </trkpt>
      <trkpt lat="42.90635" lon="0.83313">
        <ele>1455</ele>
        <time>2018-12-02T12:00:17.000Z</time>
      </trkpt>
      <trkpt lat="42.90635" lon="0.83313">
        <ele>1455</ele>
        <time>2018-12-02T12:00:19.000Z</time>
      </trkpt>
      <trkpt lat="42.90635" lon="0.83312">
        <ele>1456</ele>
        <time>2018-12-02T12:00:21.000Z</time>
      </trkpt>
      <trkpt lat="42.90635" lon="0.83313">
        <ele>1456</ele>
        <time>2018-12-02T12:00:23.000Z</time>
      </trkpt>
      <trkpt lat="42.90634" lon="0.83312">
        <ele>1456</ele>
        <time>2018-12-02T12:00:25.000Z</time>
      </trkpt>
      <trkpt lat="42.90634" lon="0.83312">
        <ele>1456</ele>
        <time>2018-12-02T12:00:27.000Z</time>
      </trkpt>
      <trkpt lat="42.90634" lon="0.83312">
        <ele>1456</ele>
        <time>2018-12-02T12:00:29.000Z</time>
      </trkpt>
      <trkpt lat="42.90633" lon="0.83312">
        <ele>1456</ele>
        <time>2018-12-02T12:00:31.000Z</time>
      </trkpt>
      <trkpt lat="42.90634" lon="0.83312">
        <ele>1456</ele>
        <time>2018-12-02T12:00:33.000Z</time>
      </trkpt>
      <trkpt lat="42.90634" lon="0.83313">
        <ele>1456</ele>
        <time>2018-12-02T12:00:35.000Z</time>
      </trkpt>
      <trkpt lat="42.90634" lon="0.83313">
        <ele>1456</ele>
        <time>2018-12-02T12:00:37.000Z</time>
      </trkpt>
      <trkpt lat="42.90635" lon="0.83313">
        <ele>1456</ele>
        <time>2018-12-02T12:00:39.000Z</time>
      </trkpt>
      <trkpt lat="42.90635" lon="0.83313">
        <ele>1455</ele>
        <time>2018-12-02T12:00:41.000Z</time>
      </trkpt>
      <trkpt lat="42.90636" lon="0.83313">
        <ele>1455</ele>
        <time>2018-12-02T12:00:43.000Z</time>
      </trkpt>
      <trkpt lat="42.90637" lon="0.83312">
        <ele>1455</ele>
        <time>2018-12-02T12:00:45.000Z</time>
      </trkpt>
      <trkpt lat="42.90638" lon="0.83312">
        <ele>1455</ele>
        <time>2018-12-02T12:00:47.000Z</time>
      </trkpt>
      <trkpt lat="42.9064" lon="0.83312">
        <ele>1455</ele>
        <time>2018-12-02T12:00:49.000Z</time>
      </trkpt>
      <trkpt lat="42.90641" lon="0.83311">
        <ele>1455</ele>
        <time>2018-12-02T12:00:51.000Z</time>
      </trkpt>
      <trkpt lat="42.90641" lon="0.8331">
        <ele>1455</ele>
        <time>2018-12-02T12:00:53.000Z</time>
      </trkpt>
      <trkpt lat="42.90641" lon="0.83309">
        <ele>1455</ele>
        <time>2018-12-02T12:00:55.000Z</time>
      </trkpt>
      <trkpt lat="42.90641" lon="0.83309">
        <ele>1455</ele>
        <time>2018-12-02T12:00:57.000Z</time>
      </trkpt>
      <trkpt lat="42.90641" lon="0.83309">
        <ele>1455</ele>
        <time>2018-12-02T12:00:59.000Z</time>
      </trkpt>
      <trkpt lat="42.90641" lon="0.8331">
        <ele>1455</ele>
        <time>2018-12-02T12:01:01.000Z</time>
      </trkpt>
      <trkpt lat="42.90641" lon="0.8331">
        <ele>1455</ele>
        <time>2018-12-02T12:01:03.000Z</time>
      </trkpt>
      <trkpt lat="42.9064" lon="0.8331">
        <ele>1455</ele>
        <time>2018-12-02T12:01:05.000Z</time>
      </trkpt>
      <trkpt lat="42.9064" lon="0.83311">
        <ele>1455</ele>
        <time>2018-12-02T12:01:07.000Z</time>
      </trkpt>
      <trkpt lat="42.9064" lon="0.83311">
        <ele>1455</ele>
        <time>2018-12-02T12:01:09.000Z</time>
      </trkpt>
      <trkpt lat="42.90639" lon="0.83311">
        <ele>1455</ele>
        <time>2018-12-02T12:01:11.000Z</time>
      </trkpt>
      <trkpt lat="42.90637" lon="0.83311">
        <ele>1455</ele>
        <time>2018-12-02T12:01:13.000Z</time>
      </trkpt>
      <trkpt lat="42.90636" lon="0.8331">
        <ele>1456</ele>
        <time>2018-12-02T12:01:15.000Z</time>
      </trkpt>
      <trkpt lat="42.90636" lon="0.83311">
        <ele>1456</ele>
        <time>2018-12-02T12:01:17.000Z</time>
      </trkpt>
      <trkpt lat="42.90637" lon="0.83311">
        <ele>1455</ele>
        <time>2018-12-02T12:01:19.000Z</time>
      </trkpt>
      <trkpt lat="42.90637" lon="0.83312">
        <ele>1455</ele>
        <time>2018-12-02T12:01:21.000Z</time>
      </trkpt>
      <trkpt lat="42.90637" lon="0.83312">
        <ele>1455</ele>
        <time>2018-12-02T12:01:23.000Z</time>
      </trkpt>
      <trkpt lat="42.90639" lon="0.83313">
        <ele>1455</ele>
        <time>2018-12-02T12:01:25.000Z</time>
      </trkpt>
      <trkpt lat="42.90639" lon="0.83313">
        <ele>1455</ele>
        <time>2018-12-02T12:01:27.000Z</time>
      </trkpt>
      <trkpt lat="42.9064" lon="0.83313">
        <ele>1454</ele>
        <time>2018-12-02T12:01:29.000Z</time>
      </trkpt>
      <trkpt lat="42.90642" lon="0.83314">
        <ele>1454</ele>
        <time>2018-12-02T12:01:31.000Z</time>
      </trkpt>
      <trkpt lat="42.90644" lon="0.83315">
        <ele>1453</ele>
        <time>2018-12-02T12:01:33.000Z</time>
      </trkpt>
      <trkpt lat="42.90646" lon="0.83316">
        <ele>1453</ele>
        <time>2018-12-02T12:01:35.000Z</time>
      </trkpt>
      <trkpt lat="42.90646" lon="0.83317">
        <ele>1452</ele>
        <time>2018-12-02T12:01:37.000Z</time>
      </trkpt>
      <trkpt lat="42.90645" lon="0.83316">
        <ele>1453</ele>
        <time>2018-12-02T12:01:39.000Z</time>
      </trkpt>
      <trkpt lat="42.90644" lon="0.83316">
        <ele>1453</ele>
        <time>2018-12-02T12:01:41.000Z</time>
      </trkpt>
      <trkpt lat="42.90643" lon="0.83316">
        <ele>1453</ele>
        <time>2018-12-02T12:01:43.000Z</time>
      </trkpt>
      <trkpt lat="42.90643" lon="0.83316">
        <ele>1453</ele>
        <time>2018-12-02T12:01:45.000Z</time>
      </trkpt>
      <trkpt lat="42.90642" lon="0.83315">
        <ele>1454</ele>
        <time>2018-12-02T12:01:47.000Z</time>
      </trkpt>
      <trkpt lat="42.90641" lon="0.83315">
        <ele>1454</ele>
        <time>2018-12-02T12:01:49.000Z</time>
      </trkpt>
      <trkpt lat="42.9064" lon="0.83314">
        <ele>1454</ele>
        <time>2018-12-02T12:01:51.000Z</time>
      </trkpt>
      <trkpt lat="42.9064" lon="0.83313">
        <ele>1454</ele>
        <time>2018-12-02T12:01:53.000Z</time>
      </trkpt>
      <trkpt lat="42.9064" lon="0.83313">
        <ele>1454</ele>
        <time>2018-12-02T12:01:55.000Z</time>
      </trkpt>
      <trkpt lat="42.9064" lon="0.83313">
        <ele>1454</ele>
        <time>2018-12-02T12:01:57.000Z</time>
      </trkpt>
      <trkpt lat="42.90639" lon="0.83313">
        <ele>1455</ele>
        <time>2018-12-02T12:01:59.000Z</time>
      </trkpt>
      <trkpt lat="42.9064" lon="0.83313">
        <ele>1454</ele>
        <time>2018-12-02T12:02:01.000Z</time>
      </trkpt>
      <trkpt lat="42.9064" lon="0.83313">
        <ele>1454</ele>
        <time>2018-12-02T12:02:03.000Z</time>
      </trkpt>
      <trkpt lat="42.90639" lon="0.83312">
        <ele>1455</ele>
        <time>2018-12-02T12:02:05.000Z</time>
      </trkpt>
      <trkpt lat="42.90637" lon="0.83311">
        <ele>1455</ele>
        <time>2018-12-02T12:02:07.000Z</time>
      </trkpt>
      <trkpt lat="42.90636" lon="0.83311">
        <ele>1456</ele>
        <time>2018-12-02T12:02:09.000Z</time>
      </trkpt>
      <trkpt lat="42.90635" lon="0.8331">
        <ele>1456</ele>
        <time>2018-12-02T12:02:11.000Z</time>
      </trkpt>
      <trkpt lat="42.90635" lon="0.8331">
        <ele>1456</ele>
        <time>2018-12-02T12:02:13.000Z</time>
      </trkpt>
      <trkpt lat="42.90635" lon="0.8331">
        <ele>1456</ele>
        <time>2018-12-02T12:02:15.000Z</time>
      </trkpt>
      <trkpt lat="42.90635" lon="0.83311">
        <ele>1456</ele>
        <time>2018-12-02T12:02:17.000Z</time>
      </trkpt>
      <trkpt lat="42.90636" lon="0.8331">
        <ele>1456</ele>
        <time>2018-12-02T12:02:19.000Z</time>
      </trkpt>
      <trkpt lat="42.90635" lon="0.8331">
        <ele>1456</ele>
        <time>2018-12-02T12:02:21.000Z</time>
      </trkpt>
      <trkpt lat="42.90635" lon="0.8331">
        <ele>1456</ele>
        <time>2018-12-02T12:02:23.000Z</time>
      </trkpt>
      <trkpt lat="42.90634" lon="0.8331">
        <ele>1456</ele>
        <time>2018-12-02T12:02:25.000Z</time>
      </trkpt>
      <trkpt lat="42.90634" lon="0.8331">
        <ele>1456</ele>
        <time>2018-12-02T12:02:27.000Z</time>
      </trkpt>
      <trkpt lat="42.90636" lon="0.83309">
        <ele>1456</ele>
        <time>2018-12-02T12:02:29.000Z</time>
      </trkpt>
      <trkpt lat="42.90637" lon="0.8331">
        <ele>1456</ele>
        <time>2018-12-02T12:02:31.000Z</time>
      </trkpt>
      <trkpt lat="42.90637" lon="0.8331">
        <ele>1456</ele>
        <time>2018-12-02T12:02:33.000Z</time>
      </trkpt>
      <trkpt lat="42.90637" lon="0.8331">
        <ele>1456</ele>
        <time>2018-12-02T12:02:35.000Z</time>
      </trkpt>
      <trkpt lat="42.90637" lon="0.8331">
        <ele>1455</ele>
        <time>2018-12-02T12:02:37.000Z</time>
      </trkpt>
      <trkpt lat="42.90638" lon="0.83311">
        <ele>1455</ele>
        <time>2018-12-02T12:02:39.000Z</time>
      </trkpt>
      <trkpt lat="42.90637" lon="0.8331">
        <ele>1456</ele>
        <time>2018-12-02T12:02:41.000Z</time>
      </trkpt>
      <trkpt lat="42.90637" lon="0.8331">
        <ele>1456</ele>
        <time>2018-12-02T12:02:43.000Z</time>
      </trkpt>
      <trkpt lat="42.90637" lon="0.8331">
        <ele>1456</ele>
        <time>2018-12-02T12:02:45.000Z</time>
      </trkpt>
      <trkpt lat="42.90637" lon="0.8331">
        <ele>1456</ele>
        <time>2018-12-02T12:02:47.000Z</time>
      </trkpt>
      <trkpt lat="42.90637" lon="0.8331">
        <ele>1456</ele>
        <time>2018-12-02T12:02:49.000Z</time>
      </trkpt>
      <trkpt lat="42.90637" lon="0.8331">
        <ele>1456</ele>
        <time>2018-12-02T12:02:51.000Z</time>
      </trkpt>
      <trkpt lat="42.90636" lon="0.83309">
        <ele>1456</ele>
        <time>2018-12-02T12:02:53.000Z</time>
      </trkpt>
      <trkpt lat="42.90636" lon="0.83309">
        <ele>1456</ele>
        <time>2018-12-02T12:02:55.000Z</time>
      </trkpt>
      <trkpt lat="42.90636" lon="0.83309">
        <ele>1456</ele>
        <time>2018-12-02T12:02:57.000Z</time>
      </trkpt>
      <trkpt lat="42.90636" lon="0.83309">
        <ele>1456</ele>
        <time>2018-12-02T12:02:59.000Z</time>
      </trkpt>
      <trkpt lat="42.90637" lon="0.8331">
        <ele>1456</ele>
        <time>2018-12-02T12:03:01.000Z</time>
      </trkpt>
      <trkpt lat="42.90637" lon="0.8331">
        <ele>1456</ele>
        <time>2018-12-02T12:03:03.000Z</time>
      </trkpt>
      <trkpt lat="42.90637" lon="0.8331">
        <ele>1456</ele>
        <time>2018-12-02T12:03:05.000Z</time>
      </trkpt>
      <trkpt lat="42.90637" lon="0.8331">
        <ele>1456</ele>
        <time>2018-12-02T12:03:07.000Z</time>
      </trkpt>
      <trkpt lat="42.90638" lon="0.83312">
        <ele>1455</ele>
        <time>2018-12-02T12:03:09.000Z</time>
      </trkpt>
      <trkpt lat="42.90638" lon="0.83313">
        <ele>1455</ele>
        <time>2018-12-02T12:03:11.000Z</time>
      </trkpt>
      <trkpt lat="42.90638" lon="0.83313">
        <ele>1455</ele>
        <time>2018-12-02T12:03:13.000Z</time>
      </trkpt>
      <trkpt lat="42.90637" lon="0.83313">
        <ele>1455</ele>
        <time>2018-12-02T12:03:15.000Z</time>
      </trkpt>
      <trkpt lat="42.90637" lon="0.83314">
        <ele>1455</ele>
        <time>2018-12-02T12:03:17.000Z</time>
      </trkpt>
      <trkpt lat="42.90636" lon="0.83314">
        <ele>1455</ele>
        <time>2018-12-02T12:03:19.000Z</time>
      </trkpt>
      <trkpt lat="42.90636" lon="0.83315">
        <ele>1455</ele>
        <time>2018-12-02T12:03:21.000Z</time>
      </trkpt>
      <trkpt lat="42.90636" lon="0.83315">
        <ele>1455</ele>
        <time>2018-12-02T12:03:23.000Z</time>
      </trkpt>
      <trkpt lat="42.90636" lon="0.83315">
        <ele>1455</ele>
        <time>2018-12-02T12:03:25.000Z</time>
      </trkpt>
      <trkpt lat="42.90636" lon="0.83315">
        <ele>1455</ele>
        <time>2018-12-02T12:03:27.000Z</time>
      </trkpt>
      <trkpt lat="42.90638" lon="0.83317">
        <ele>1454</ele>
        <time>2018-12-02T12:03:29.000Z</time>
      </trkpt>
      <trkpt lat="42.90638" lon="0.83317">
        <ele>1454</ele>
        <time>2018-12-02T12:03:31.000Z</time>
      </trkpt>
      <trkpt lat="42.90638" lon="0.83317">
        <ele>1454</ele>
        <time>2018-12-02T12:03:33.000Z</time>
      </trkpt>
      <trkpt lat="42.90638" lon="0.83317">
        <ele>1454</ele>
        <time>2018-12-02T12:03:35.000Z</time>
      </trkpt>
      <trkpt lat="42.90638" lon="0.83318">
        <ele>1454</ele>
        <time>2018-12-02T12:03:37.000Z</time>
      </trkpt>
      <trkpt lat="42.90638" lon="0.83317">
        <ele>1454</ele>
        <time>2018-12-02T12:03:39.000Z</time>
      </trkpt>
      <trkpt lat="42.90638" lon="0.83316">
        <ele>1454</ele>
        <time>2018-12-02T12:03:41.000Z</time>
      </trkpt>
      <trkpt lat="42.90637" lon="0.83314">
        <ele>1455</ele>
        <time>2018-12-02T12:03:43.000Z</time>
      </trkpt>
      <trkpt lat="42.90637" lon="0.83313">
        <ele>1455</ele>
        <time>2018-12-02T12:03:45.000Z</time>
      </trkpt>
      <trkpt lat="42.90637" lon="0.83313">
        <ele>1455</ele>
        <time>2018-12-02T12:03:47.000Z</time>
      </trkpt>
      <trkpt lat="42.90637" lon="0.83312">
        <ele>1455</ele>
        <time>2018-12-02T12:03:49.000Z</time>
      </trkpt>
      <trkpt lat="42.90637" lon="0.83312">
        <ele>1455</ele>
        <time>2018-12-02T12:03:51.000Z</time>
      </trkpt>
      <trkpt lat="42.90637" lon="0.83312">
        <ele>1455</ele>
        <time>2018-12-02T12:03:53.000Z</time>
      </trkpt>
      <trkpt lat="42.90638" lon="0.83311">
        <ele>1455</ele>
        <time>2018-12-02T12:03:55.000Z</time>
      </trkpt>
      <trkpt lat="42.90639" lon="0.83312">
        <ele>1455</ele>
        <time>2018-12-02T12:03:57.000Z</time>
      </trkpt>
      <trkpt lat="42.9064" lon="0.83312">
        <ele>1455</ele>
        <time>2018-12-02T12:03:59.000Z</time>
      </trkpt>
      <trkpt lat="42.9064" lon="0.83311">
        <ele>1455</ele>
        <time>2018-12-02T12:04:01.000Z</time>
      </trkpt>
      <trkpt lat="42.9064" lon="0.83311">
        <ele>1455</ele>
        <time>2018-12-02T12:04:03.000Z</time>
      </trkpt>
      <trkpt lat="42.9064" lon="0.83311">
        <ele>1455</ele>
        <time>2018-12-02T12:04:05.000Z</time>
      </trkpt>
      <trkpt lat="42.9064" lon="0.83311">
        <ele>1455</ele>
        <time>2018-12-02T12:04:07.000Z</time>
      </trkpt>
      <trkpt lat="42.90639" lon="0.8331">
        <ele>1455</ele>
        <time>2018-12-02T12:04:09.000Z</time>
      </trkpt>
      <trkpt lat="42.90638" lon="0.83309">
        <ele>1456</ele>
        <time>2018-12-02T12:04:11.000Z</time>
      </trkpt>
      <trkpt lat="42.90637" lon="0.83308">
        <ele>1456</ele>
        <time>2018-12-02T12:04:13.000Z</time>
      </trkpt>
      <trkpt lat="42.90637" lon="0.83308">
        <ele>1456</ele>
        <time>2018-12-02T12:04:15.000Z</time>
      </trkpt>
      <trkpt lat="42.90637" lon="0.83308">
        <ele>1456</ele>
        <time>2018-12-02T12:04:17.000Z</time>
      </trkpt>
      <trkpt lat="42.90637" lon="0.83307">
        <ele>1456</ele>
        <time>2018-12-02T12:04:19.000Z</time>
      </trkpt>
      <trkpt lat="42.90637" lon="0.83306">
        <ele>1456</ele>
        <time>2018-12-02T12:04:21.000Z</time>
      </trkpt>
      <trkpt lat="42.90637" lon="0.83306">
        <ele>1456</ele>
        <time>2018-12-02T12:04:23.000Z</time>
      </trkpt>
      <trkpt lat="42.90636" lon="0.83308">
        <ele>1456</ele>
        <time>2018-12-02T12:04:25.000Z</time>
      </trkpt>
      <trkpt lat="42.90635" lon="0.83308">
        <ele>1456</ele>
        <time>2018-12-02T12:04:27.000Z</time>
      </trkpt>
      <trkpt lat="42.90635" lon="0.83308">
        <ele>1456</ele>
        <time>2018-12-02T12:04:29.000Z</time>
      </trkpt>
      <trkpt lat="42.90635" lon="0.83309">
        <ele>1456</ele>
        <time>2018-12-02T12:04:31.000Z</time>
      </trkpt>
      <trkpt lat="42.90634" lon="0.83309">
        <ele>1456</ele>
        <time>2018-12-02T12:04:33.000Z</time>
      </trkpt>
      <trkpt lat="42.90635" lon="0.83309">
        <ele>1456</ele>
        <time>2018-12-02T12:04:35.000Z</time>
      </trkpt>
      <trkpt lat="42.90635" lon="0.83308">
        <ele>1456</ele>
        <time>2018-12-02T12:04:37.000Z</time>
      </trkpt>
      <trkpt lat="42.90635" lon="0.83308">
        <ele>1456</ele>
        <time>2018-12-02T12:04:39.000Z</time>
      </trkpt>
      <trkpt lat="42.90635" lon="0.83308">
        <ele>1456</ele>
        <time>2018-12-02T12:04:41.000Z</time>
      </trkpt>
      <trkpt lat="42.90635" lon="0.83309">
        <ele>1456</ele>
        <time>2018-12-02T12:04:43.000Z</time>
      </trkpt>
      <trkpt lat="42.90635" lon="0.83309">
        <ele>1456</ele>
        <time>2018-12-02T12:04:45.000Z</time>
      </trkpt>
      <trkpt lat="42.90636" lon="0.83308">
        <ele>1456</ele>
        <time>2018-12-02T12:04:47.000Z</time>
      </trkpt>
      <trkpt lat="42.90636" lon="0.83308">
        <ele>1456</ele>
        <time>2018-12-02T12:04:49.000Z</time>
      </trkpt>
      <trkpt lat="42.90636" lon="0.83307">
        <ele>1456</ele>
        <time>2018-12-02T12:04:51.000Z</time>
      </trkpt>
      <trkpt lat="42.90636" lon="0.83307">
        <ele>1456</ele>
        <time>2018-12-02T12:04:53.000Z</time>
      </trkpt>
      <trkpt lat="42.90637" lon="0.83307">
        <ele>1456</ele>
        <time>2018-12-02T12:04:55.000Z</time>
      </trkpt>
      <trkpt lat="42.90638" lon="0.83305">
        <ele>1456</ele>
        <time>2018-12-02T12:04:57.000Z</time>
      </trkpt>
      <trkpt lat="42.90638" lon="0.83306">
        <ele>1456</ele>
        <time>2018-12-02T12:04:59.000Z</time>
      </trkpt>
      <trkpt lat="42.90639" lon="0.83304">
        <ele>1456</ele>
        <time>2018-12-02T12:05:01.000Z</time>
      </trkpt>
      <trkpt lat="42.90639" lon="0.83304">
        <ele>1456</ele>
        <time>2018-12-02T12:05:03.000Z</time>
      </trkpt>
      <trkpt lat="42.90639" lon="0.83304">
        <ele>1456</ele>
        <time>2018-12-02T12:05:05.000Z</time>
      </trkpt>
      <trkpt lat="42.90639" lon="0.83305">
        <ele>1456</ele>
        <time>2018-12-02T12:05:07.000Z</time>
      </trkpt>
      <trkpt lat="42.90638" lon="0.83305">
        <ele>1456</ele>
        <time>2018-12-02T12:05:09.000Z</time>
      </trkpt>
      <trkpt lat="42.90638" lon="0.83307">
        <ele>1456</ele>
        <time>2018-12-02T12:05:11.000Z</time>
      </trkpt>
      <trkpt lat="42.90638" lon="0.83308">
        <ele>1456</ele>
        <time>2018-12-02T12:05:13.000Z</time>
      </trkpt>
      <trkpt lat="42.9064" lon="0.83311">
        <ele>1455</ele>
        <time>2018-12-02T12:05:15.000Z</time>
      </trkpt>
      <trkpt lat="42.90639" lon="0.83313">
        <ele>1455</ele>
        <time>2018-12-02T12:05:17.000Z</time>
      </trkpt>
      <trkpt lat="42.9064" lon="0.83316">
        <ele>1454</ele>
        <time>2018-12-02T12:05:19.000Z</time>
      </trkpt>
      <trkpt lat="42.9064" lon="0.83317">
        <ele>1454</ele>
        <time>2018-12-02T12:05:21.000Z</time>
      </trkpt>
      <trkpt lat="42.9064" lon="0.83317">
        <ele>1454</ele>
        <time>2018-12-02T12:05:23.000Z</time>
      </trkpt>
      <trkpt lat="42.90639" lon="0.83317">
        <ele>1454</ele>
        <time>2018-12-02T12:05:25.000Z</time>
      </trkpt>
      <trkpt lat="42.90639" lon="0.83318">
        <ele>1454</ele>
        <time>2018-12-02T12:05:27.000Z</time>
      </trkpt>
      <trkpt lat="42.90638" lon="0.83318">
        <ele>1454</ele>
        <time>2018-12-02T12:05:29.000Z</time>
      </trkpt>
      <trkpt lat="42.90638" lon="0.83319">
        <ele>1454</ele>
        <time>2018-12-02T12:05:31.000Z</time>
      </trkpt>
      <trkpt lat="42.90638" lon="0.83319">
        <ele>1454</ele>
        <time>2018-12-02T12:05:33.000Z</time>
      </trkpt>
      <trkpt lat="42.90638" lon="0.83319">
        <ele>1454</ele>
        <time>2018-12-02T12:05:35.000Z</time>
      </trkpt>
      <trkpt lat="42.90638" lon="0.8332">
        <ele>1454</ele>
        <time>2018-12-02T12:05:37.000Z</time>
      </trkpt>
      <trkpt lat="42.90638" lon="0.8332">
        <ele>1454</ele>
        <time>2018-12-02T12:05:39.000Z</time>
      </trkpt>
      <trkpt lat="42.90638" lon="0.8332">
        <ele>1454</ele>
        <time>2018-12-02T12:05:41.000Z</time>
      </trkpt>
      <trkpt lat="42.90638" lon="0.8332">
        <ele>1454</ele>
        <time>2018-12-02T12:05:43.000Z</time>
      </trkpt>
      <trkpt lat="42.90638" lon="0.8332">
        <ele>1453</ele>
        <time>2018-12-02T12:05:45.000Z</time>
      </trkpt>
      <trkpt lat="42.90637" lon="0.83322">
        <ele>1453</ele>
        <time>2018-12-02T12:05:47.000Z</time>
      </trkpt>
      <trkpt lat="42.90637" lon="0.83323">
        <ele>1453</ele>
        <time>2018-12-02T12:05:49.000Z</time>
      </trkpt>
      <trkpt lat="42.90636" lon="0.83323">
        <ele>1453</ele>
        <time>2018-12-02T12:05:51.000Z</time>
      </trkpt>
      <trkpt lat="42.90636" lon="0.83324">
        <ele>1453</ele>
        <time>2018-12-02T12:05:53.000Z</time>
      </trkpt>
      <trkpt lat="42.90636" lon="0.83324">
        <ele>1453</ele>
        <time>2018-12-02T12:05:55.000Z</time>
      </trkpt>
      <trkpt lat="42.90636" lon="0.83324">
        <ele>1453</ele>
        <time>2018-12-02T12:05:57.000Z</time>
      </trkpt>
      <trkpt lat="42.90636" lon="0.83324">
        <ele>1453</ele>
        <time>2018-12-02T12:05:59.000Z</time>
      </trkpt>
      <trkpt lat="42.90636" lon="0.83324">
        <ele>1453</ele>
        <time>2018-12-02T12:06:01.000Z</time>
      </trkpt>
      <trkpt lat="42.90636" lon="0.83324">
        <ele>1453</ele>
        <time>2018-12-02T12:06:03.000Z</time>
      </trkpt>
      <trkpt lat="42.90636" lon="0.83324">
        <ele>1453</ele>
        <time>2018-12-02T12:06:05.000Z</time>
      </trkpt>
      <trkpt lat="42.90637" lon="0.83324">
        <ele>1453</ele>
        <time>2018-12-02T12:06:07.000Z</time>
      </trkpt>
      <trkpt lat="42.90637" lon="0.83324">
        <ele>1453</ele>
        <time>2018-12-02T12:06:09.000Z</time>
      </trkpt>
      <trkpt lat="42.90637" lon="0.83325">
        <ele>1453</ele>
        <time>2018-12-02T12:06:11.000Z</time>
      </trkpt>
      <trkpt lat="42.90637" lon="0.83324">
        <ele>1453</ele>
        <time>2018-12-02T12:06:13.000Z</time>
      </trkpt>
      <trkpt lat="42.90637" lon="0.83324">
        <ele>1453</ele>
        <time>2018-12-02T12:06:15.000Z</time>
      </trkpt>
      <trkpt lat="42.90637" lon="0.83324">
        <ele>1453</ele>
        <time>2018-12-02T12:06:17.000Z</time>
      </trkpt>
      <trkpt lat="42.90637" lon="0.83325">
        <ele>1453</ele>
        <time>2018-12-02T12:06:19.000Z</time>
      </trkpt>
      <trkpt lat="42.90637" lon="0.83325">
        <ele>1453</ele>
        <time>2018-12-02T12:06:21.000Z</time>
      </trkpt>
      <trkpt lat="42.90636" lon="0.83324">
        <ele>1453</ele>
        <time>2018-12-02T12:06:23.000Z</time>
      </trkpt>
      <trkpt lat="42.90634" lon="0.83323">
        <ele>1454</ele>
        <time>2018-12-02T12:06:25.000Z</time>
      </trkpt>
      <trkpt lat="42.90632" lon="0.83322">
        <ele>1454</ele>
        <time>2018-12-02T12:06:27.000Z</time>
      </trkpt>
      <trkpt lat="42.90631" lon="0.83321">
        <ele>1455</ele>
        <time>2018-12-02T12:06:29.000Z</time>
      </trkpt>
      <trkpt lat="42.90629" lon="0.83319">
        <ele>1455</ele>
        <time>2018-12-02T12:06:31.000Z</time>
      </trkpt>
      <trkpt lat="42.90628" lon="0.83318">
        <ele>1456</ele>
        <time>2018-12-02T12:06:33.000Z</time>
      </trkpt>
      <trkpt lat="42.90627" lon="0.83318">
        <ele>1456</ele>
        <time>2018-12-02T12:06:35.000Z</time>
      </trkpt>
      <trkpt lat="42.90626" lon="0.83317">
        <ele>1456</ele>
        <time>2018-12-02T12:06:37.000Z</time>
      </trkpt>
      <trkpt lat="42.90626" lon="0.83318">
        <ele>1456</ele>
        <time>2018-12-02T12:06:39.000Z</time>
      </trkpt>
      <trkpt lat="42.90626" lon="0.83317">
        <ele>1457</ele>
        <time>2018-12-02T12:06:41.000Z</time>
      </trkpt>
      <trkpt lat="42.90625" lon="0.83316">
        <ele>1457</ele>
        <time>2018-12-02T12:06:43.000Z</time>
      </trkpt>
      <trkpt lat="42.90625" lon="0.83314">
        <ele>1457</ele>
        <time>2018-12-02T12:06:45.000Z</time>
      </trkpt>
      <trkpt lat="42.90624" lon="0.83312">
        <ele>1458</ele>
        <time>2018-12-02T12:06:47.000Z</time>
      </trkpt>
      <trkpt lat="42.90624" lon="0.83311">
        <ele>1458</ele>
        <time>2018-12-02T12:06:49.000Z</time>
      </trkpt>
      <trkpt lat="42.90624" lon="0.8331">
        <ele>1458</ele>
        <time>2018-12-02T12:06:51.000Z</time>
      </trkpt>
      <trkpt lat="42.90624" lon="0.83309">
        <ele>1458</ele>
        <time>2018-12-02T12:06:53.000Z</time>
      </trkpt>
      <trkpt lat="42.90625" lon="0.83308">
        <ele>1459</ele>
        <time>2018-12-02T12:06:55.000Z</time>
      </trkpt>
      <trkpt lat="42.90624" lon="0.83307">
        <ele>1459</ele>
        <time>2018-12-02T12:06:57.000Z</time>
      </trkpt>
      <trkpt lat="42.90624" lon="0.83306">
        <ele>1459</ele>
        <time>2018-12-02T12:06:59.000Z</time>
      </trkpt>
      <trkpt lat="42.90624" lon="0.83305">
        <ele>1459</ele>
        <time>2018-12-02T12:07:01.000Z</time>
      </trkpt>
      <trkpt lat="42.90624" lon="0.83305">
        <ele>1459</ele>
        <time>2018-12-02T12:07:03.000Z</time>
      </trkpt>
      <trkpt lat="42.90624" lon="0.83304">
        <ele>1459</ele>
        <time>2018-12-02T12:07:05.000Z</time>
      </trkpt>
      <trkpt lat="42.90624" lon="0.83303">
        <ele>1459</ele>
        <time>2018-12-02T12:07:07.000Z</time>
      </trkpt>
      <trkpt lat="42.90624" lon="0.83302">
        <ele>1459</ele>
        <time>2018-12-02T12:07:09.000Z</time>
      </trkpt>
      <trkpt lat="42.90624" lon="0.83301">
        <ele>1459</ele>
        <time>2018-12-02T12:07:11.000Z</time>
      </trkpt>
      <trkpt lat="42.90624" lon="0.83302">
        <ele>1459</ele>
        <time>2018-12-02T12:07:13.000Z</time>
      </trkpt>
      <trkpt lat="42.90625" lon="0.83302">
        <ele>1459</ele>
        <time>2018-12-02T12:07:15.000Z</time>
      </trkpt>
      <trkpt lat="42.90626" lon="0.83304">
        <ele>1459</ele>
        <time>2018-12-02T12:07:17.000Z</time>
      </trkpt>
      <trkpt lat="42.90626" lon="0.83304">
        <ele>1459</ele>
        <time>2018-12-02T12:07:19.000Z</time>
      </trkpt>
      <trkpt lat="42.90627" lon="0.83304">
        <ele>1459</ele>
        <time>2018-12-02T12:07:21.000Z</time>
      </trkpt>
      <trkpt lat="42.9063" lon="0.83306">
        <ele>1458</ele>
        <time>2018-12-02T12:07:23.000Z</time>
      </trkpt>
      <trkpt lat="42.90632" lon="0.83305">
        <ele>1458</ele>
        <time>2018-12-02T12:07:25.000Z</time>
      </trkpt>
      <trkpt lat="42.90635" lon="0.83306">
        <ele>1457</ele>
        <time>2018-12-02T12:07:27.000Z</time>
      </trkpt>
      <trkpt lat="42.90636" lon="0.83307">
        <ele>1456</ele>
        <time>2018-12-02T12:07:29.000Z</time>
      </trkpt>
      <trkpt lat="42.90638" lon="0.83306">
        <ele>1456</ele>
        <time>2018-12-02T12:07:31.000Z</time>
      </trkpt>
      <trkpt lat="42.90639" lon="0.83307">
        <ele>1456</ele>
        <time>2018-12-02T12:07:33.000Z</time>
      </trkpt>
      <trkpt lat="42.9064" lon="0.83307">
        <ele>1456</ele>
        <time>2018-12-02T12:07:35.000Z</time>
      </trkpt>
      <trkpt lat="42.90642" lon="0.83308">
        <ele>1455</ele>
        <time>2018-12-02T12:07:37.000Z</time>
      </trkpt>
      <trkpt lat="42.90642" lon="0.83309">
        <ele>1455</ele>
        <time>2018-12-02T12:07:39.000Z</time>
      </trkpt>
      <trkpt lat="42.90643" lon="0.83311">
        <ele>1454</ele>
        <time>2018-12-02T12:07:41.000Z</time>
      </trkpt>
      <trkpt lat="42.90643" lon="0.83313">
        <ele>1454</ele>
        <time>2018-12-02T12:07:43.000Z</time>
      </trkpt>
      <trkpt lat="42.90643" lon="0.83315">
        <ele>1453</ele>
        <time>2018-12-02T12:07:45.000Z</time>
      </trkpt>
      <trkpt lat="42.90642" lon="0.83317">
        <ele>1453</ele>
        <time>2018-12-02T12:07:47.000Z</time>
      </trkpt>
      <trkpt lat="42.90643" lon="0.83319">
        <ele>1453</ele>
        <time>2018-12-02T12:07:49.000Z</time>
      </trkpt>
      <trkpt lat="42.90644" lon="0.8332">
        <ele>1452</ele>
        <time>2018-12-02T12:07:51.000Z</time>
      </trkpt>
      <trkpt lat="42.90644" lon="0.8332">
        <ele>1452</ele>
        <time>2018-12-02T12:07:53.000Z</time>
      </trkpt>
      <trkpt lat="42.90644" lon="0.83321">
        <ele>1452</ele>
        <time>2018-12-02T12:07:55.000Z</time>
      </trkpt>
      <trkpt lat="42.90644" lon="0.83321">
        <ele>1452</ele>
        <time>2018-12-02T12:07:57.000Z</time>
      </trkpt>
      <trkpt lat="42.90644" lon="0.8332">
        <ele>1452</ele>
        <time>2018-12-02T12:07:59.000Z</time>
      </trkpt>
      <trkpt lat="42.90643" lon="0.8332">
        <ele>1453</ele>
        <time>2018-12-02T12:08:01.000Z</time>
      </trkpt>
      <trkpt lat="42.90642" lon="0.83319">
        <ele>1453</ele>
        <time>2018-12-02T12:08:03.000Z</time>
      </trkpt>
      <trkpt lat="42.90642" lon="0.83319">
        <ele>1453</ele>
        <time>2018-12-02T12:08:05.000Z</time>
      </trkpt>
      <trkpt lat="42.90641" lon="0.83319">
        <ele>1453</ele>
        <time>2018-12-02T12:08:07.000Z</time>
      </trkpt>
      <trkpt lat="42.90641" lon="0.83318">
        <ele>1453</ele>
        <time>2018-12-02T12:08:09.000Z</time>
      </trkpt>
      <trkpt lat="42.9064" lon="0.83318">
        <ele>1453</ele>
        <time>2018-12-02T12:08:11.000Z</time>
      </trkpt>
      <trkpt lat="42.9064" lon="0.83319">
        <ele>1453</ele>
        <time>2018-12-02T12:08:13.000Z</time>
      </trkpt>
      <trkpt lat="42.9064" lon="0.8332">
        <ele>1453</ele>
        <time>2018-12-02T12:08:15.000Z</time>
      </trkpt>
      <trkpt lat="42.9064" lon="0.8332">
        <ele>1453</ele>
        <time>2018-12-02T12:08:17.000Z</time>
      </trkpt>
      <trkpt lat="42.90639" lon="0.8332">
        <ele>1453</ele>
        <time>2018-12-02T12:08:19.000Z</time>
      </trkpt>
      <trkpt lat="42.90638" lon="0.83321">
        <ele>1453</ele>
        <time>2018-12-02T12:08:21.000Z</time>
      </trkpt>
      <trkpt lat="42.90638" lon="0.8332">
        <ele>1453</ele>
        <time>2018-12-02T12:08:23.000Z</time>
      </trkpt>
      <trkpt lat="42.90637" lon="0.8332">
        <ele>1454</ele>
        <time>2018-12-02T12:08:25.000Z</time>
      </trkpt>
      <trkpt lat="42.90637" lon="0.8332">
        <ele>1454</ele>
        <time>2018-12-02T12:08:27.000Z</time>
      </trkpt>
      <trkpt lat="42.90637" lon="0.8332">
        <ele>1454</ele>
        <time>2018-12-02T12:08:29.000Z</time>
      </trkpt>
      <trkpt lat="42.90637" lon="0.8332">
        <ele>1454</ele>
        <time>2018-12-02T12:08:31.000Z</time>
      </trkpt>
      <trkpt lat="42.90638" lon="0.83321">
        <ele>1453</ele>
        <time>2018-12-02T12:08:33.000Z</time>
      </trkpt>
      <trkpt lat="42.90639" lon="0.83321">
        <ele>1453</ele>
        <time>2018-12-02T12:08:35.000Z</time>
      </trkpt>
      <trkpt lat="42.90643" lon="0.83325">
        <ele>1452</ele>
        <time>2018-12-02T12:08:37.000Z</time>
      </trkpt>
      <trkpt lat="42.90644" lon="0.83326">
        <ele>1451</ele>
        <time>2018-12-02T12:08:39.000Z</time>
      </trkpt>
      <trkpt lat="42.90645" lon="0.83326">
        <ele>1451</ele>
        <time>2018-12-02T12:08:41.000Z</time>
      </trkpt>
      <trkpt lat="42.90645" lon="0.83326">
        <ele>1451</ele>
        <time>2018-12-02T12:08:43.000Z</time>
      </trkpt>
      <trkpt lat="42.90644" lon="0.83325">
        <ele>1451</ele>
        <time>2018-12-02T12:08:45.000Z</time>
      </trkpt>
      <trkpt lat="42.90643" lon="0.83324">
        <ele>1452</ele>
        <time>2018-12-02T12:08:47.000Z</time>
      </trkpt>
      <trkpt lat="42.90642" lon="0.83323">
        <ele>1452</ele>
        <time>2018-12-02T12:08:49.000Z</time>
      </trkpt>
      <trkpt lat="42.90641" lon="0.83323">
        <ele>1452</ele>
        <time>2018-12-02T12:08:51.000Z</time>
      </trkpt>
      <trkpt lat="42.90639" lon="0.83322">
        <ele>1453</ele>
        <time>2018-12-02T12:08:53.000Z</time>
      </trkpt>
      <trkpt lat="42.90638" lon="0.8332">
        <ele>1453</ele>
        <time>2018-12-02T12:08:55.000Z</time>
      </trkpt>
      <trkpt lat="42.90637" lon="0.83319">
        <ele>1454</ele>
        <time>2018-12-02T12:08:57.000Z</time>
      </trkpt>
      <trkpt lat="42.90637" lon="0.83317">
        <ele>1454</ele>
        <time>2018-12-02T12:08:59.000Z</time>
      </trkpt>
      <trkpt lat="42.90637" lon="0.83316">
        <ele>1454</ele>
        <time>2018-12-02T12:09:01.000Z</time>
      </trkpt>
      <trkpt lat="42.90637" lon="0.83316">
        <ele>1454</ele>
        <time>2018-12-02T12:09:03.000Z</time>
      </trkpt>
      <trkpt lat="42.90637" lon="0.83315">
        <ele>1455</ele>
        <time>2018-12-02T12:09:05.000Z</time>
      </trkpt>
      <trkpt lat="42.90637" lon="0.83314">
        <ele>1455</ele>
        <time>2018-12-02T12:09:07.000Z</time>
      </trkpt>
      <trkpt lat="42.90637" lon="0.83313">
        <ele>1455</ele>
        <time>2018-12-02T12:09:09.000Z</time>
      </trkpt>
      <trkpt lat="42.90637" lon="0.83313">
        <ele>1455</ele>
        <time>2018-12-02T12:09:11.000Z</time>
      </trkpt>
      <trkpt lat="42.90636" lon="0.83313">
        <ele>1455</ele>
        <time>2018-12-02T12:09:13.000Z</time>
      </trkpt>
      <trkpt lat="42.90636" lon="0.83312">
        <ele>1455</ele>
        <time>2018-12-02T12:09:15.000Z</time>
      </trkpt>
      <trkpt lat="42.90636" lon="0.83312">
        <ele>1455</ele>
        <time>2018-12-02T12:09:17.000Z</time>
      </trkpt>
      <trkpt lat="42.90637" lon="0.83311">
        <ele>1455</ele>
        <time>2018-12-02T12:09:19.000Z</time>
      </trkpt>
      <trkpt lat="42.90637" lon="0.83311">
        <ele>1455</ele>
        <time>2018-12-02T12:09:21.000Z</time>
      </trkpt>
      <trkpt lat="42.90636" lon="0.8331">
        <ele>1456</ele>
        <time>2018-12-02T12:09:23.000Z</time>
      </trkpt>
      <trkpt lat="42.90636" lon="0.8331">
        <ele>1456</ele>
        <time>2018-12-02T12:09:25.000Z</time>
      </trkpt>
      <trkpt lat="42.90635" lon="0.83309">
        <ele>1456</ele>
        <time>2018-12-02T12:09:27.000Z</time>
      </trkpt>
      <trkpt lat="42.90634" lon="0.83308">
        <ele>1457</ele>
        <time>2018-12-02T12:09:29.000Z</time>
      </trkpt>
      <trkpt lat="42.90632" lon="0.83305">
        <ele>1457</ele>
        <time>2018-12-02T12:09:31.000Z</time>
      </trkpt>
      <trkpt lat="42.90632" lon="0.83305">
        <ele>1457</ele>
        <time>2018-12-02T12:09:33.000Z</time>
      </trkpt>
      <trkpt lat="42.90632" lon="0.83305">
        <ele>1458</ele>
        <time>2018-12-02T12:09:35.000Z</time>
      </trkpt>
      <trkpt lat="42.90632" lon="0.83305">
        <ele>1458</ele>
        <time>2018-12-02T12:09:37.000Z</time>
      </trkpt>
      <trkpt lat="42.90632" lon="0.83307">
        <ele>1457</ele>
        <time>2018-12-02T12:09:39.000Z</time>
      </trkpt>
      <trkpt lat="42.90634" lon="0.83312">
        <ele>1456</ele>
        <time>2018-12-02T12:09:41.000Z</time>
      </trkpt>
      <trkpt lat="42.90636" lon="0.83314">
        <ele>1455</ele>
        <time>2018-12-02T12:09:43.000Z</time>
      </trkpt>
      <trkpt lat="42.90637" lon="0.83316">
        <ele>1454</ele>
        <time>2018-12-02T12:09:45.000Z</time>
      </trkpt>
      <trkpt lat="42.90637" lon="0.83317">
        <ele>1454</ele>
        <time>2018-12-02T12:09:47.000Z</time>
      </trkpt>
      <trkpt lat="42.90637" lon="0.83319">
        <ele>1454</ele>
        <time>2018-12-02T12:09:49.000Z</time>
      </trkpt>
      <trkpt lat="42.90638" lon="0.8332">
        <ele>1454</ele>
        <time>2018-12-02T12:09:51.000Z</time>
      </trkpt>
      <trkpt lat="42.90638" lon="0.8332">
        <ele>1453</ele>
        <time>2018-12-02T12:09:53.000Z</time>
      </trkpt>
      <trkpt lat="42.90639" lon="0.83321">
        <ele>1453</ele>
        <time>2018-12-02T12:09:55.000Z</time>
      </trkpt>
      <trkpt lat="42.9064" lon="0.83323">
        <ele>1453</ele>
        <time>2018-12-02T12:09:57.000Z</time>
      </trkpt>
      <trkpt lat="42.9064" lon="0.83324">
        <ele>1452</ele>
        <time>2018-12-02T12:09:59.000Z</time>
      </trkpt>
      <trkpt lat="42.90641" lon="0.83325">
        <ele>1452</ele>
        <time>2018-12-02T12:10:01.000Z</time>
      </trkpt>
      <trkpt lat="42.90641" lon="0.83325">
        <ele>1452</ele>
        <time>2018-12-02T12:10:03.000Z</time>
      </trkpt>
      <trkpt lat="42.90642" lon="0.83325">
        <ele>1452</ele>
        <time>2018-12-02T12:10:05.000Z</time>
      </trkpt>
      <trkpt lat="42.90642" lon="0.83325">
        <ele>1452</ele>
        <time>2018-12-02T12:10:07.000Z</time>
      </trkpt>
      <trkpt lat="42.90643" lon="0.83325">
        <ele>1451</ele>
        <time>2018-12-02T12:10:09.000Z</time>
      </trkpt>
      <trkpt lat="42.90643" lon="0.83325">
        <ele>1452</ele>
        <time>2018-12-02T12:10:11.000Z</time>
      </trkpt>
      <trkpt lat="42.90643" lon="0.83325">
        <ele>1452</ele>
        <time>2018-12-02T12:10:13.000Z</time>
      </trkpt>
      <trkpt lat="42.90643" lon="0.83325">
        <ele>1451</ele>
        <time>2018-12-02T12:10:15.000Z</time>
      </trkpt>
      <trkpt lat="42.90643" lon="0.83326">
        <ele>1451</ele>
        <time>2018-12-02T12:10:17.000Z</time>
      </trkpt>
      <trkpt lat="42.90643" lon="0.83326">
        <ele>1451</ele>
        <time>2018-12-02T12:10:19.000Z</time>
      </trkpt>
      <trkpt lat="42.90643" lon="0.83326">
        <ele>1451</ele>
        <time>2018-12-02T12:10:21.000Z</time>
      </trkpt>
      <trkpt lat="42.90643" lon="0.83326">
        <ele>1451</ele>
        <time>2018-12-02T12:10:23.000Z</time>
      </trkpt>
      <trkpt lat="42.90643" lon="0.83325">
        <ele>1452</ele>
        <time>2018-12-02T12:10:25.000Z</time>
      </trkpt>
      <trkpt lat="42.90643" lon="0.83325">
        <ele>1452</ele>
        <time>2018-12-02T12:10:27.000Z</time>
      </trkpt>
      <trkpt lat="42.90642" lon="0.83326">
        <ele>1452</ele>
        <time>2018-12-02T12:10:29.000Z</time>
      </trkpt>
      <trkpt lat="42.90642" lon="0.83326">
        <ele>1451</ele>
        <time>2018-12-02T12:10:31.000Z</time>
      </trkpt>
      <trkpt lat="42.90642" lon="0.83326">
        <ele>1451</ele>
        <time>2018-12-02T12:10:33.000Z</time>
      </trkpt>
      <trkpt lat="42.90643" lon="0.83326">
        <ele>1451</ele>
        <time>2018-12-02T12:10:35.000Z</time>
      </trkpt>
      <trkpt lat="42.90643" lon="0.83326">
        <ele>1451</ele>
        <time>2018-12-02T12:10:37.000Z</time>
      </trkpt>
      <trkpt lat="42.90643" lon="0.83326">
        <ele>1451</ele>
        <time>2018-12-02T12:10:39.000Z</time>
      </trkpt>
      <trkpt lat="42.90643" lon="0.83326">
        <ele>1451</ele>
        <time>2018-12-02T12:10:41.000Z</time>
      </trkpt>
      <trkpt lat="42.90643" lon="0.83326">
        <ele>1451</ele>
        <time>2018-12-02T12:10:43.000Z</time>
      </trkpt>
      <trkpt lat="42.90643" lon="0.83325">
        <ele>1451</ele>
        <time>2018-12-02T12:10:45.000Z</time>
      </trkpt>
      <trkpt lat="42.90643" lon="0.83325">
        <ele>1451</ele>
        <time>2018-12-02T12:10:47.000Z</time>
      </trkpt>
      <trkpt lat="42.90643" lon="0.83325">
        <ele>1451</ele>
        <time>2018-12-02T12:10:49.000Z</time>
      </trkpt>
      <trkpt lat="42.90643" lon="0.83325">
        <ele>1452</ele>
        <time>2018-12-02T12:10:51.000Z</time>
      </trkpt>
      <trkpt lat="42.90643" lon="0.83324">
        <ele>1452</ele>
        <time>2018-12-02T12:10:53.000Z</time>
      </trkpt>
      <trkpt lat="42.90643" lon="0.83324">
        <ele>1452</ele>
        <time>2018-12-02T12:10:55.000Z</time>
      </trkpt>
      <trkpt lat="42.90642" lon="0.83324">
        <ele>1452</ele>
        <time>2018-12-02T12:10:57.000Z</time>
      </trkpt>
      <trkpt lat="42.90642" lon="0.83324">
        <ele>1452</ele>
        <time>2018-12-02T12:10:59.000Z</time>
      </trkpt>
      <trkpt lat="42.90642" lon="0.83324">
        <ele>1452</ele>
        <time>2018-12-02T12:11:01.000Z</time>
      </trkpt>
      <trkpt lat="42.90643" lon="0.83325">
        <ele>1451</ele>
        <time>2018-12-02T12:11:03.000Z</time>
      </trkpt>
      <trkpt lat="42.90643" lon="0.83326">
        <ele>1451</ele>
        <time>2018-12-02T12:11:05.000Z</time>
      </trkpt>
      <trkpt lat="42.90643" lon="0.83326">
        <ele>1451</ele>
        <time>2018-12-02T12:11:07.000Z</time>
      </trkpt>
      <trkpt lat="42.90643" lon="0.83327">
        <ele>1451</ele>
        <time>2018-12-02T12:11:09.000Z</time>
      </trkpt>
      <trkpt lat="42.90643" lon="0.83327">
        <ele>1451</ele>
        <time>2018-12-02T12:11:11.000Z</time>
      </trkpt>
      <trkpt lat="42.90643" lon="0.83327">
        <ele>1451</ele>
        <time>2018-12-02T12:11:13.000Z</time>
      </trkpt>
      <trkpt lat="42.90644" lon="0.83325">
        <ele>1451</ele>
        <time>2018-12-02T12:11:15.000Z</time>
      </trkpt>
      <trkpt lat="42.90645" lon="0.83324">
        <ele>1451</ele>
        <time>2018-12-02T12:11:17.000Z</time>
      </trkpt>
      <trkpt lat="42.90645" lon="0.83324">
        <ele>1451</ele>
        <time>2018-12-02T12:11:19.000Z</time>
      </trkpt>
      <trkpt lat="42.90645" lon="0.83324">
        <ele>1451</ele>
        <time>2018-12-02T12:11:21.000Z</time>
      </trkpt>
      <trkpt lat="42.90646" lon="0.83324">
        <ele>1451</ele>
        <time>2018-12-02T12:11:23.000Z</time>
      </trkpt>
      <trkpt lat="42.90646" lon="0.83324">
        <ele>1451</ele>
        <time>2018-12-02T12:11:25.000Z</time>
      </trkpt>
      <trkpt lat="42.90646" lon="0.83324">
        <ele>1451</ele>
        <time>2018-12-02T12:11:27.000Z</time>
      </trkpt>
      <trkpt lat="42.90647" lon="0.83324">
        <ele>1451</ele>
        <time>2018-12-02T12:11:29.000Z</time>
      </trkpt>
      <trkpt lat="42.90646" lon="0.83324">
        <ele>1451</ele>
        <time>2018-12-02T12:11:31.000Z</time>
      </trkpt>
      <trkpt lat="42.90645" lon="0.83325">
        <ele>1451</ele>
        <time>2018-12-02T12:11:33.000Z</time>
      </trkpt>
      <trkpt lat="42.90645" lon="0.83325">
        <ele>1451</ele>
        <time>2018-12-02T12:11:35.000Z</time>
      </trkpt>
      <trkpt lat="42.90643" lon="0.83325">
        <ele>1451</ele>
        <time>2018-12-02T12:11:37.000Z</time>
      </trkpt>
      <trkpt lat="42.90641" lon="0.83324">
        <ele>1452</ele>
        <time>2018-12-02T12:11:39.000Z</time>
      </trkpt>
      <trkpt lat="42.90639" lon="0.83323">
        <ele>1453</ele>
        <time>2018-12-02T12:11:41.000Z</time>
      </trkpt>
      <trkpt lat="42.90638" lon="0.83322">
        <ele>1453</ele>
        <time>2018-12-02T12:11:43.000Z</time>
      </trkpt>
      <trkpt lat="42.90635" lon="0.83319">
        <ele>1454</ele>
        <time>2018-12-02T12:11:47.000Z</time>
      </trkpt>
      <trkpt lat="42.90634" lon="0.83317">
        <ele>1455</ele>
        <time>2018-12-02T12:11:49.000Z</time>
      </trkpt>
      <trkpt lat="42.90633" lon="0.83315">
        <ele>1455</ele>
        <time>2018-12-02T12:11:52.000Z</time>
      </trkpt>
      <trkpt lat="42.90632" lon="0.83314">
        <ele>1456</ele>
        <time>2018-12-02T12:11:54.000Z</time>
      </trkpt>
      <trkpt lat="42.90632" lon="0.83312">
        <ele>1456</ele>
        <time>2018-12-02T12:11:58.000Z</time>
      </trkpt>
      <trkpt lat="42.90632" lon="0.83312">
        <ele>1456</ele>
        <time>2018-12-02T12:12:01.000Z</time>
      </trkpt>
      <trkpt lat="42.90631" lon="0.83312">
        <ele>1456</ele>
        <time>2018-12-02T12:12:03.000Z</time>
      </trkpt>
      <trkpt lat="42.90631" lon="0.83312">
        <ele>1456</ele>
        <time>2018-12-02T12:12:05.000Z</time>
      </trkpt>
      <trkpt lat="42.90632" lon="0.83312">
        <ele>1456</ele>
        <time>2018-12-02T12:12:08.000Z</time>
      </trkpt>
      <trkpt lat="42.90633" lon="0.83312">
        <ele>1456</ele>
        <time>2018-12-02T12:12:11.000Z</time>
      </trkpt>
      <trkpt lat="42.90634" lon="0.83313">
        <ele>1456</ele>
        <time>2018-12-02T12:12:13.000Z</time>
      </trkpt>
      <trkpt lat="42.90636" lon="0.83314">
        <ele>1455</ele>
        <time>2018-12-02T12:12:16.000Z</time>
      </trkpt>
      <trkpt lat="42.90637" lon="0.83313">
        <ele>1455</ele>
        <time>2018-12-02T12:12:18.000Z</time>
      </trkpt>
      <trkpt lat="42.90638" lon="0.83314">
        <ele>1455</ele>
        <time>2018-12-02T12:12:21.000Z</time>
      </trkpt>
      <trkpt lat="42.90637" lon="0.83314">
        <ele>1455</ele>
        <time>2018-12-02T12:12:24.000Z</time>
      </trkpt>
      <trkpt lat="42.90637" lon="0.83313">
        <ele>1455</ele>
        <time>2018-12-02T12:12:26.000Z</time>
      </trkpt>
      <trkpt lat="42.90637" lon="0.83313">
        <ele>1455</ele>
        <time>2018-12-02T12:12:28.000Z</time>
      </trkpt>
      <trkpt lat="42.90637" lon="0.83313">
        <ele>1455</ele>
        <time>2018-12-02T12:12:30.000Z</time>
      </trkpt>
      <trkpt lat="42.90637" lon="0.83313">
        <ele>1455</ele>
        <time>2018-12-02T12:12:32.000Z</time>
      </trkpt>
      <trkpt lat="42.90637" lon="0.83313">
        <ele>1455</ele>
        <time>2018-12-02T12:12:34.000Z</time>
      </trkpt>
      <trkpt lat="42.90637" lon="0.83313">
        <ele>1455</ele>
        <time>2018-12-02T12:12:36.000Z</time>
      </trkpt>
      <trkpt lat="42.90638" lon="0.83313">
        <ele>1455</ele>
        <time>2018-12-02T12:12:38.000Z</time>
      </trkpt>
      <trkpt lat="42.90639" lon="0.83313">
        <ele>1455</ele>
        <time>2018-12-02T12:12:40.000Z</time>
      </trkpt>
      <trkpt lat="42.90639" lon="0.83313">
        <ele>1455</ele>
        <time>2018-12-02T12:12:42.000Z</time>
      </trkpt>
      <trkpt lat="42.9064" lon="0.83313">
        <ele>1454</ele>
        <time>2018-12-02T12:12:44.000Z</time>
      </trkpt>
      <trkpt lat="42.9064" lon="0.83313">
        <ele>1454</ele>
        <time>2018-12-02T12:12:46.000Z</time>
      </trkpt>
      <trkpt lat="42.90641" lon="0.83314">
        <ele>1454</ele>
        <time>2018-12-02T12:12:48.000Z</time>
      </trkpt>
      <trkpt lat="42.90642" lon="0.83313">
        <ele>1454</ele>
        <time>2018-12-02T12:12:50.000Z</time>
      </trkpt>
      <trkpt lat="42.90643" lon="0.83313">
        <ele>1454</ele>
        <time>2018-12-02T12:12:52.000Z</time>
      </trkpt>
      <trkpt lat="42.9064" lon="0.83314">
        <ele>1454</ele>
        <time>2018-12-02T12:12:54.000Z</time>
      </trkpt>
      <trkpt lat="42.90638" lon="0.83314">
        <ele>1455</ele>
        <time>2018-12-02T12:12:56.000Z</time>
      </trkpt>
      <trkpt lat="42.90637" lon="0.83314">
        <ele>1455</ele>
        <time>2018-12-02T12:12:58.000Z</time>
      </trkpt>
      <trkpt lat="42.90637" lon="0.83313">
        <ele>1455</ele>
        <time>2018-12-02T12:13:00.000Z</time>
      </trkpt>
      <trkpt lat="42.90636" lon="0.83314">
        <ele>1455</ele>
        <time>2018-12-02T12:13:02.000Z</time>
      </trkpt>
      <trkpt lat="42.90636" lon="0.83313">
        <ele>1455</ele>
        <time>2018-12-02T12:13:04.000Z</time>
      </trkpt>
      <trkpt lat="42.90636" lon="0.83313">
        <ele>1455</ele>
        <time>2018-12-02T12:13:06.000Z</time>
      </trkpt>
      <trkpt lat="42.90636" lon="0.83312">
        <ele>1455</ele>
        <time>2018-12-02T12:13:08.000Z</time>
      </trkpt>
      <trkpt lat="42.90636" lon="0.83312">
        <ele>1455</ele>
        <time>2018-12-02T12:13:10.000Z</time>
      </trkpt>
      <trkpt lat="42.90636" lon="0.83313">
        <ele>1455</ele>
        <time>2018-12-02T12:13:12.000Z</time>
      </trkpt>
      <trkpt lat="42.90636" lon="0.83313">
        <ele>1455</ele>
        <time>2018-12-02T12:13:15.000Z</time>
      </trkpt>
      <trkpt lat="42.90637" lon="0.83313">
        <ele>1455</ele>
        <time>2018-12-02T12:13:17.000Z</time>
      </trkpt>
      <trkpt lat="42.90638" lon="0.83313">
        <ele>1455</ele>
        <time>2018-12-02T12:13:20.000Z</time>
      </trkpt>
      <trkpt lat="42.90638" lon="0.83313">
        <ele>1455</ele>
        <time>2018-12-02T12:13:22.000Z</time>
      </trkpt>
      <trkpt lat="42.90638" lon="0.83313">
        <ele>1455</ele>
        <time>2018-12-02T12:13:25.000Z</time>
      </trkpt>
      <trkpt lat="42.90637" lon="0.83313">
        <ele>1455</ele>
        <time>2018-12-02T12:13:27.000Z</time>
      </trkpt>
      <trkpt lat="42.90637" lon="0.83313">
        <ele>1455</ele>
        <time>2018-12-02T12:13:29.000Z</time>
      </trkpt>
      <trkpt lat="42.90638" lon="0.83313">
        <ele>1455</ele>
        <time>2018-12-02T12:13:32.000Z</time>
      </trkpt>
      <trkpt lat="42.90639" lon="0.83312">
        <ele>1455</ele>
        <time>2018-12-02T12:13:35.000Z</time>
      </trkpt>
      <trkpt lat="42.90641" lon="0.83312">
        <ele>1454</ele>
        <time>2018-12-02T12:13:37.000Z</time>
      </trkpt>
      <trkpt lat="42.90642" lon="0.83311">
        <ele>1454</ele>
        <time>2018-12-02T12:13:39.000Z</time>
      </trkpt>
      <trkpt lat="42.90642" lon="0.83311">
        <ele>1454</ele>
        <time>2018-12-02T12:13:41.000Z</time>
      </trkpt>
      <trkpt lat="42.90642" lon="0.83311">
        <ele>1454</ele>
        <time>2018-12-02T12:13:44.000Z</time>
      </trkpt>
      <trkpt lat="42.90642" lon="0.83311">
        <ele>1455</ele>
        <time>2018-12-02T12:13:46.000Z</time>
      </trkpt>
      <trkpt lat="42.9064" lon="0.83311">
        <ele>1455</ele>
        <time>2018-12-02T12:13:49.000Z</time>
      </trkpt>
      <trkpt lat="42.9064" lon="0.83311">
        <ele>1455</ele>
        <time>2018-12-02T12:13:51.000Z</time>
      </trkpt>
      <trkpt lat="42.9064" lon="0.83311">
        <ele>1455</ele>
        <time>2018-12-02T12:13:53.000Z</time>
      </trkpt>
      <trkpt lat="42.90639" lon="0.83311">
        <ele>1455</ele>
        <time>2018-12-02T12:13:56.000Z</time>
      </trkpt>
      <trkpt lat="42.90638" lon="0.83311">
        <ele>1455</ele>
        <time>2018-12-02T12:13:58.000Z</time>
      </trkpt>
      <trkpt lat="42.90638" lon="0.83312">
        <ele>1455</ele>
        <time>2018-12-02T12:14:00.000Z</time>
      </trkpt>
      <trkpt lat="42.90638" lon="0.83312">
        <ele>1455</ele>
        <time>2018-12-02T12:14:02.000Z</time>
      </trkpt>
      <trkpt lat="42.90638" lon="0.83312">
        <ele>1455</ele>
        <time>2018-12-02T12:14:04.000Z</time>
      </trkpt>
      <trkpt lat="42.90638" lon="0.83312">
        <ele>1455</ele>
        <time>2018-12-02T12:14:06.000Z</time>
      </trkpt>
      <trkpt lat="42.90638" lon="0.83312">
        <ele>1455</ele>
        <time>2018-12-02T12:14:08.000Z</time>
      </trkpt>
      <trkpt lat="42.90638" lon="0.83312">
        <ele>1455</ele>
        <time>2018-12-02T12:14:10.000Z</time>
      </trkpt>
      <trkpt lat="42.90638" lon="0.83312">
        <ele>1455</ele>
        <time>2018-12-02T12:14:12.000Z</time>
      </trkpt>
      <trkpt lat="42.90638" lon="0.83312">
        <ele>1455</ele>
        <time>2018-12-02T12:14:14.000Z</time>
      </trkpt>
      <trkpt lat="42.90638" lon="0.83311">
        <ele>1455</ele>
        <time>2018-12-02T12:14:16.000Z</time>
      </trkpt>
      <trkpt lat="42.90638" lon="0.83311">
        <ele>1455</ele>
        <time>2018-12-02T12:14:18.000Z</time>
      </trkpt>
      <trkpt lat="42.90639" lon="0.83311">
        <ele>1455</ele>
        <time>2018-12-02T12:14:20.000Z</time>
      </trkpt>
      <trkpt lat="42.9064" lon="0.83311">
        <ele>1455</ele>
        <time>2018-12-02T12:14:22.000Z</time>
      </trkpt>
      <trkpt lat="42.90641" lon="0.83311">
        <ele>1455</ele>
        <time>2018-12-02T12:14:24.000Z</time>
      </trkpt>
      <trkpt lat="42.90641" lon="0.83312">
        <ele>1454</ele>
        <time>2018-12-02T12:14:26.000Z</time>
      </trkpt>
      <trkpt lat="42.90642" lon="0.83312">
        <ele>1454</ele>
        <time>2018-12-02T12:14:28.000Z</time>
      </trkpt>
      <trkpt lat="42.90642" lon="0.83312">
        <ele>1454</ele>
        <time>2018-12-02T12:14:30.000Z</time>
      </trkpt>
      <trkpt lat="42.90642" lon="0.83312">
        <ele>1454</ele>
        <time>2018-12-02T12:14:32.000Z</time>
      </trkpt>
      <trkpt lat="42.90641" lon="0.83312">
        <ele>1454</ele>
        <time>2018-12-02T12:14:34.000Z</time>
      </trkpt>
      <trkpt lat="42.90641" lon="0.83312">
        <ele>1454</ele>
        <time>2018-12-02T12:14:36.000Z</time>
      </trkpt>
      <trkpt lat="42.90642" lon="0.83312">
        <ele>1454</ele>
        <time>2018-12-02T12:14:38.000Z</time>
      </trkpt>
      <trkpt lat="42.90642" lon="0.83312">
        <ele>1454</ele>
        <time>2018-12-02T12:14:40.000Z</time>
      </trkpt>
      <trkpt lat="42.90642" lon="0.83312">
        <ele>1454</ele>
        <time>2018-12-02T12:14:42.000Z</time>
      </trkpt>
      <trkpt lat="42.90642" lon="0.83312">
        <ele>1454</ele>
        <time>2018-12-02T12:14:44.000Z</time>
      </trkpt>
      <trkpt lat="42.90642" lon="0.83311">
        <ele>1454</ele>
        <time>2018-12-02T12:14:47.000Z</time>
      </trkpt>
      <trkpt lat="42.90643" lon="0.83311">
        <ele>1454</ele>
        <time>2018-12-02T12:14:49.000Z</time>
      </trkpt>
      <trkpt lat="42.90643" lon="0.83311">
        <ele>1454</ele>
        <time>2018-12-02T12:14:51.000Z</time>
      </trkpt>
      <trkpt lat="42.90642" lon="0.83311">
        <ele>1454</ele>
        <time>2018-12-02T12:14:54.000Z</time>
      </trkpt>
      <trkpt lat="42.90641" lon="0.83312">
        <ele>1454</ele>
        <time>2018-12-02T12:14:56.000Z</time>
      </trkpt>
      <trkpt lat="42.90639" lon="0.83313">
        <ele>1455</ele>
        <time>2018-12-02T12:14:58.000Z</time>
      </trkpt>
      <trkpt lat="42.90637" lon="0.83313">
        <ele>1455</ele>
        <time>2018-12-02T12:15:00.000Z</time>
      </trkpt>
      <trkpt lat="42.90637" lon="0.83313">
        <ele>1455</ele>
        <time>2018-12-02T12:15:02.000Z</time>
      </trkpt>
      <trkpt lat="42.90637" lon="0.83313">
        <ele>1455</ele>
        <time>2018-12-02T12:15:04.000Z</time>
      </trkpt>
      <trkpt lat="42.90636" lon="0.83312">
        <ele>1455</ele>
        <time>2018-12-02T12:15:06.000Z</time>
      </trkpt>
      <trkpt lat="42.90634" lon="0.83312">
        <ele>1456</ele>
        <time>2018-12-02T12:15:08.000Z</time>
      </trkpt>
      <trkpt lat="42.90634" lon="0.83312">
        <ele>1456</ele>
        <time>2018-12-02T12:15:10.000Z</time>
      </trkpt>
      <trkpt lat="42.90635" lon="0.83313">
        <ele>1456</ele>
        <time>2018-12-02T12:15:12.000Z</time>
      </trkpt>
      <trkpt lat="42.90634" lon="0.83313">
        <ele>1456</ele>
        <time>2018-12-02T12:15:15.000Z</time>
      </trkpt>
      <trkpt lat="42.90634" lon="0.83314">
        <ele>1456</ele>
        <time>2018-12-02T12:15:17.000Z</time>
      </trkpt>
      <trkpt lat="42.90633" lon="0.83314">
        <ele>1456</ele>
        <time>2018-12-02T12:15:20.000Z</time>
      </trkpt>
      <trkpt lat="42.90633" lon="0.83314">
        <ele>1456</ele>
        <time>2018-12-02T12:15:22.000Z</time>
      </trkpt>
      <trkpt lat="42.90633" lon="0.83314">
        <ele>1456</ele>
        <time>2018-12-02T12:15:26.000Z</time>
      </trkpt>
      <trkpt lat="42.90633" lon="0.83313">
        <ele>1456</ele>
        <time>2018-12-02T12:15:28.000Z</time>
      </trkpt>
      <trkpt lat="42.90633" lon="0.83313">
        <ele>1456</ele>
        <time>2018-12-02T12:15:30.000Z</time>
      </trkpt>
      <trkpt lat="42.90633" lon="0.83311">
        <ele>1456</ele>
        <time>2018-12-02T12:15:32.000Z</time>
      </trkpt>
      <trkpt lat="42.90634" lon="0.83311">
        <ele>1456</ele>
        <time>2018-12-02T12:15:34.000Z</time>
      </trkpt>
      <trkpt lat="42.90634" lon="0.83311">
        <ele>1456</ele>
        <time>2018-12-02T12:15:37.000Z</time>
      </trkpt>
      <trkpt lat="42.90635" lon="0.8331">
        <ele>1456</ele>
        <time>2018-12-02T12:15:39.000Z</time>
      </trkpt>
      <trkpt lat="42.90635" lon="0.8331">
        <ele>1456</ele>
        <time>2018-12-02T12:15:41.000Z</time>
      </trkpt>
      <trkpt lat="42.90635" lon="0.8331">
        <ele>1456</ele>
        <time>2018-12-02T12:15:43.000Z</time>
      </trkpt>
      <trkpt lat="42.90636" lon="0.8331">
        <ele>1456</ele>
        <time>2018-12-02T12:15:45.000Z</time>
      </trkpt>
      <trkpt lat="42.90636" lon="0.83311">
        <ele>1456</ele>
        <time>2018-12-02T12:15:47.000Z</time>
      </trkpt>
      <trkpt lat="42.90635" lon="0.8331">
        <ele>1456</ele>
        <time>2018-12-02T12:15:50.000Z</time>
      </trkpt>
      <trkpt lat="42.90635" lon="0.8331">
        <ele>1456</ele>
        <time>2018-12-02T12:15:52.000Z</time>
      </trkpt>
      <trkpt lat="42.90636" lon="0.83311">
        <ele>1456</ele>
        <time>2018-12-02T12:15:55.000Z</time>
      </trkpt>
      <trkpt lat="42.90636" lon="0.83311">
        <ele>1456</ele>
        <time>2018-12-02T12:15:58.000Z</time>
      </trkpt>
      <trkpt lat="42.90636" lon="0.83311">
        <ele>1455</ele>
        <time>2018-12-02T12:16:00.000Z</time>
      </trkpt>
      <trkpt lat="42.90637" lon="0.83312">
        <ele>1455</ele>
        <time>2018-12-02T12:16:03.000Z</time>
      </trkpt>
      <trkpt lat="42.90637" lon="0.83312">
        <ele>1455</ele>
        <time>2018-12-02T12:16:05.000Z</time>
      </trkpt>
      <trkpt lat="42.90637" lon="0.83311">
        <ele>1455</ele>
        <time>2018-12-02T12:16:07.000Z</time>
      </trkpt>
      <trkpt lat="42.90638" lon="0.83312">
        <ele>1455</ele>
        <time>2018-12-02T12:16:09.000Z</time>
      </trkpt>
      <trkpt lat="42.9064" lon="0.83312">
        <ele>1455</ele>
        <time>2018-12-02T12:16:13.000Z</time>
      </trkpt>
      <trkpt lat="42.90639" lon="0.83313">
        <ele>1455</ele>
        <time>2018-12-02T12:16:15.000Z</time>
      </trkpt>
      <trkpt lat="42.90639" lon="0.83313">
        <ele>1455</ele>
        <time>2018-12-02T12:16:19.000Z</time>
      </trkpt>
      <trkpt lat="42.90638" lon="0.83313">
        <ele>1455</ele>
        <time>2018-12-02T12:16:21.000Z</time>
      </trkpt>
      <trkpt lat="42.90638" lon="0.83313">
        <ele>1455</ele>
        <time>2018-12-02T12:16:23.000Z</time>
      </trkpt>
      <trkpt lat="42.90638" lon="0.83313">
        <ele>1455</ele>
        <time>2018-12-02T12:16:25.000Z</time>
      </trkpt>
      <trkpt lat="42.90637" lon="0.83313">
        <ele>1455</ele>
        <time>2018-12-02T12:16:28.000Z</time>
      </trkpt>
      <trkpt lat="42.90637" lon="0.83313">
        <ele>1455</ele>
        <time>2018-12-02T12:16:30.000Z</time>
      </trkpt>
      <trkpt lat="42.90637" lon="0.83313">
        <ele>1455</ele>
        <time>2018-12-02T12:16:32.000Z</time>
      </trkpt>
      <trkpt lat="42.90637" lon="0.83313">
        <ele>1455</ele>
        <time>2018-12-02T12:16:34.000Z</time>
      </trkpt>
      <trkpt lat="42.90637" lon="0.83313">
        <ele>1455</ele>
        <time>2018-12-02T12:16:36.000Z</time>
      </trkpt>
      <trkpt lat="42.90637" lon="0.83313">
        <ele>1455</ele>
        <time>2018-12-02T12:16:38.000Z</time>
      </trkpt>
      <trkpt lat="42.90636" lon="0.83313">
        <ele>1455</ele>
        <time>2018-12-02T12:16:40.000Z</time>
      </trkpt>
      <trkpt lat="42.90636" lon="0.83313">
        <ele>1455</ele>
        <time>2018-12-02T12:16:42.000Z</time>
      </trkpt>
      <trkpt lat="42.90636" lon="0.83312">
        <ele>1455</ele>
        <time>2018-12-02T12:16:45.000Z</time>
      </trkpt>
      <trkpt lat="42.90636" lon="0.83312">
        <ele>1455</ele>
        <time>2018-12-02T12:16:47.000Z</time>
      </trkpt>
      <trkpt lat="42.90636" lon="0.83312">
        <ele>1455</ele>
        <time>2018-12-02T12:16:50.000Z</time>
      </trkpt>
      <trkpt lat="42.90637" lon="0.83312">
        <ele>1455</ele>
        <time>2018-12-02T12:16:53.000Z</time>
      </trkpt>
      <trkpt lat="42.90637" lon="0.83312">
        <ele>1455</ele>
        <time>2018-12-02T12:16:56.000Z</time>
      </trkpt>
      <trkpt lat="42.90637" lon="0.83313">
        <ele>1455</ele>
        <time>2018-12-02T12:16:58.000Z</time>
      </trkpt>
      <trkpt lat="42.90637" lon="0.83313">
        <ele>1455</ele>
        <time>2018-12-02T12:17:01.000Z</time>
      </trkpt>
      <trkpt lat="42.90636" lon="0.83312">
        <ele>1455</ele>
        <time>2018-12-02T12:17:03.000Z</time>
      </trkpt>
      <trkpt lat="42.90636" lon="0.83312">
        <ele>1455</ele>
        <time>2018-12-02T12:17:06.000Z</time>
      </trkpt>
      <trkpt lat="42.90636" lon="0.83312">
        <ele>1455</ele>
        <time>2018-12-02T12:17:09.000Z</time>
      </trkpt>
      <trkpt lat="42.90636" lon="0.83312">
        <ele>1455</ele>
        <time>2018-12-02T12:17:11.000Z</time>
      </trkpt>
      <trkpt lat="42.90636" lon="0.83312">
        <ele>1455</ele>
        <time>2018-12-02T12:17:13.000Z</time>
      </trkpt>
      <trkpt lat="42.90636" lon="0.83313">
        <ele>1455</ele>
        <time>2018-12-02T12:17:16.000Z</time>
      </trkpt>
      <trkpt lat="42.90634" lon="0.83313">
        <ele>1456</ele>
        <time>2018-12-02T12:17:19.000Z</time>
      </trkpt>
      <trkpt lat="42.90634" lon="0.83313">
        <ele>1456</ele>
        <time>2018-12-02T12:17:21.000Z</time>
      </trkpt>
      <trkpt lat="42.90633" lon="0.83313">
        <ele>1456</ele>
        <time>2018-12-02T12:17:23.000Z</time>
      </trkpt>
      <trkpt lat="42.90632" lon="0.83313">
        <ele>1456</ele>
        <time>2018-12-02T12:17:25.000Z</time>
      </trkpt>
      <trkpt lat="42.90632" lon="0.83313">
        <ele>1456</ele>
        <time>2018-12-02T12:17:27.000Z</time>
      </trkpt>
      <trkpt lat="42.90631" lon="0.83313">
        <ele>1456</ele>
        <time>2018-12-02T12:17:29.000Z</time>
      </trkpt>
      <trkpt lat="42.90631" lon="0.83313">
        <ele>1456</ele>
        <time>2018-12-02T12:17:31.000Z</time>
      </trkpt>
      <trkpt lat="42.90631" lon="0.83313">
        <ele>1456</ele>
        <time>2018-12-02T12:17:35.000Z</time>
      </trkpt>
      <trkpt lat="42.90631" lon="0.83314">
        <ele>1456</ele>
        <time>2018-12-02T12:17:38.000Z</time>
      </trkpt>
      <trkpt lat="42.90631" lon="0.83314">
        <ele>1456</ele>
        <time>2018-12-02T12:17:41.000Z</time>
      </trkpt>
      <trkpt lat="42.90631" lon="0.83314">
        <ele>1456</ele>
        <time>2018-12-02T12:17:43.000Z</time>
      </trkpt>
      <trkpt lat="42.90632" lon="0.83314">
        <ele>1456</ele>
        <time>2018-12-02T12:17:45.000Z</time>
      </trkpt>
      <trkpt lat="42.90632" lon="0.83313">
        <ele>1456</ele>
        <time>2018-12-02T12:17:47.000Z</time>
      </trkpt>
      <trkpt lat="42.90632" lon="0.83313">
        <ele>1456</ele>
        <time>2018-12-02T12:17:49.000Z</time>
      </trkpt>
      <trkpt lat="42.90633" lon="0.83313">
        <ele>1456</ele>
        <time>2018-12-02T12:17:51.000Z</time>
      </trkpt>
      <trkpt lat="42.90632" lon="0.83312">
        <ele>1456</ele>
        <time>2018-12-02T12:17:53.000Z</time>
      </trkpt>
      <trkpt lat="42.90633" lon="0.83311">
        <ele>1456</ele>
        <time>2018-12-02T12:17:55.000Z</time>
      </trkpt>
      <trkpt lat="42.90633" lon="0.83311">
        <ele>1456</ele>
        <time>2018-12-02T12:17:57.000Z</time>
      </trkpt>
      <trkpt lat="42.90633" lon="0.8331">
        <ele>1456</ele>
        <time>2018-12-02T12:17:59.000Z</time>
      </trkpt>
      <trkpt lat="42.90633" lon="0.8331">
        <ele>1456</ele>
        <time>2018-12-02T12:18:01.000Z</time>
      </trkpt>
      <trkpt lat="42.90633" lon="0.8331">
        <ele>1456</ele>
        <time>2018-12-02T12:18:03.000Z</time>
      </trkpt>
      <trkpt lat="42.90633" lon="0.83309">
        <ele>1457</ele>
        <time>2018-12-02T12:18:05.000Z</time>
      </trkpt>
      <trkpt lat="42.90633" lon="0.83309">
        <ele>1457</ele>
        <time>2018-12-02T12:18:07.000Z</time>
      </trkpt>
      <trkpt lat="42.90633" lon="0.83309">
        <ele>1457</ele>
        <time>2018-12-02T12:18:09.000Z</time>
      </trkpt>
      <trkpt lat="42.90633" lon="0.8331">
        <ele>1457</ele>
        <time>2018-12-02T12:18:11.000Z</time>
      </trkpt>
      <trkpt lat="42.90632" lon="0.8331">
        <ele>1457</ele>
        <time>2018-12-02T12:18:13.000Z</time>
      </trkpt>
      <trkpt lat="42.90632" lon="0.8331">
        <ele>1457</ele>
        <time>2018-12-02T12:18:15.000Z</time>
      </trkpt>
      <trkpt lat="42.90632" lon="0.8331">
        <ele>1457</ele>
        <time>2018-12-02T12:18:17.000Z</time>
      </trkpt>
      <trkpt lat="42.90632" lon="0.8331">
        <ele>1457</ele>
        <time>2018-12-02T12:18:19.000Z</time>
      </trkpt>
      <trkpt lat="42.90632" lon="0.83311">
        <ele>1457</ele>
        <time>2018-12-02T12:18:21.000Z</time>
      </trkpt>
      <trkpt lat="42.90632" lon="0.83311">
        <ele>1457</ele>
        <time>2018-12-02T12:18:23.000Z</time>
      </trkpt>
      <trkpt lat="42.90631" lon="0.83311">
        <ele>1457</ele>
        <time>2018-12-02T12:18:25.000Z</time>
      </trkpt>
      <trkpt lat="42.90632" lon="0.83311">
        <ele>1457</ele>
        <time>2018-12-02T12:18:27.000Z</time>
      </trkpt>
      <trkpt lat="42.90632" lon="0.83311">
        <ele>1457</ele>
        <time>2018-12-02T12:18:29.000Z</time>
      </trkpt>
      <trkpt lat="42.90632" lon="0.83311">
        <ele>1457</ele>
        <time>2018-12-02T12:18:31.000Z</time>
      </trkpt>
      <trkpt lat="42.90631" lon="0.83311">
        <ele>1457</ele>
        <time>2018-12-02T12:18:33.000Z</time>
      </trkpt>
      <trkpt lat="42.90632" lon="0.83312">
        <ele>1456</ele>
        <time>2018-12-02T12:18:36.000Z</time>
      </trkpt>
      <trkpt lat="42.90632" lon="0.83312">
        <ele>1456</ele>
        <time>2018-12-02T12:18:38.000Z</time>
      </trkpt>
      <trkpt lat="42.90633" lon="0.83312">
        <ele>1456</ele>
        <time>2018-12-02T12:18:40.000Z</time>
      </trkpt>
      <trkpt lat="42.90633" lon="0.83312">
        <ele>1456</ele>
        <time>2018-12-02T12:18:42.000Z</time>
      </trkpt>
      <trkpt lat="42.90633" lon="0.83313">
        <ele>1456</ele>
        <time>2018-12-02T12:18:44.000Z</time>
      </trkpt>
      <trkpt lat="42.90635" lon="0.83313">
        <ele>1455</ele>
        <time>2018-12-02T12:18:47.000Z</time>
      </trkpt>
      <trkpt lat="42.90636" lon="0.83313">
        <ele>1455</ele>
        <time>2018-12-02T12:18:49.000Z</time>
      </trkpt>
      <trkpt lat="42.90637" lon="0.83314">
        <ele>1455</ele>
        <time>2018-12-02T12:18:51.000Z</time>
      </trkpt>
      <trkpt lat="42.90637" lon="0.83314">
        <ele>1455</ele>
        <time>2018-12-02T12:18:53.000Z</time>
      </trkpt>
      <trkpt lat="42.90637" lon="0.83314">
        <ele>1455</ele>
        <time>2018-12-02T12:18:55.000Z</time>
      </trkpt>
      <trkpt lat="42.90638" lon="0.83314">
        <ele>1455</ele>
        <time>2018-12-02T12:18:57.000Z</time>
      </trkpt>
      <trkpt lat="42.90637" lon="0.83314">
        <ele>1455</ele>
        <time>2018-12-02T12:18:59.000Z</time>
      </trkpt>
      <trkpt lat="42.90637" lon="0.83314">
        <ele>1455</ele>
        <time>2018-12-02T12:19:01.000Z</time>
      </trkpt>
      <trkpt lat="42.90637" lon="0.83314">
        <ele>1455</ele>
        <time>2018-12-02T12:19:03.000Z</time>
      </trkpt>
      <trkpt lat="42.90637" lon="0.83314">
        <ele>1455</ele>
        <time>2018-12-02T12:19:05.000Z</time>
      </trkpt>
      <trkpt lat="42.90637" lon="0.83314">
        <ele>1455</ele>
        <time>2018-12-02T12:19:08.000Z</time>
      </trkpt>
      <trkpt lat="42.90637" lon="0.83314">
        <ele>1455</ele>
        <time>2018-12-02T12:19:10.000Z</time>
      </trkpt>
      <trkpt lat="42.90637" lon="0.83314">
        <ele>1455</ele>
        <time>2018-12-02T12:19:12.000Z</time>
      </trkpt>
      <trkpt lat="42.90636" lon="0.83314">
        <ele>1455</ele>
        <time>2018-12-02T12:19:14.000Z</time>
      </trkpt>
      <trkpt lat="42.90636" lon="0.83314">
        <ele>1455</ele>
        <time>2018-12-02T12:19:16.000Z</time>
      </trkpt>
      <trkpt lat="42.90635" lon="0.83314">
        <ele>1455</ele>
        <time>2018-12-02T12:19:18.000Z</time>
      </trkpt>
      <trkpt lat="42.90635" lon="0.83314">
        <ele>1455</ele>
        <time>2018-12-02T12:19:20.000Z</time>
      </trkpt>
      <trkpt lat="42.90634" lon="0.83314">
        <ele>1455</ele>
        <time>2018-12-02T12:19:22.000Z</time>
      </trkpt>
      <trkpt lat="42.90634" lon="0.83314">
        <ele>1456</ele>
        <time>2018-12-02T12:19:24.000Z</time>
      </trkpt>
      <trkpt lat="42.90633" lon="0.83313">
        <ele>1456</ele>
        <time>2018-12-02T12:19:26.000Z</time>
      </trkpt>
      <trkpt lat="42.90633" lon="0.83313">
        <ele>1456</ele>
        <time>2018-12-02T12:19:28.000Z</time>
      </trkpt>
      <trkpt lat="42.90633" lon="0.83313">
        <ele>1456</ele>
        <time>2018-12-02T12:19:30.000Z</time>
      </trkpt>
      <trkpt lat="42.90633" lon="0.83313">
        <ele>1456</ele>
        <time>2018-12-02T12:19:32.000Z</time>
      </trkpt>
      <trkpt lat="42.90633" lon="0.83312">
        <ele>1456</ele>
        <time>2018-12-02T12:19:34.000Z</time>
      </trkpt>
      <trkpt lat="42.90633" lon="0.83312">
        <ele>1456</ele>
        <time>2018-12-02T12:19:36.000Z</time>
      </trkpt>
      <trkpt lat="42.90632" lon="0.83311">
        <ele>1456</ele>
        <time>2018-12-02T12:19:38.000Z</time>
      </trkpt>
      <trkpt lat="42.90633" lon="0.83311">
        <ele>1456</ele>
        <time>2018-12-02T12:19:40.000Z</time>
      </trkpt>
      <trkpt lat="42.90634" lon="0.83311">
        <ele>1456</ele>
        <time>2018-12-02T12:19:42.000Z</time>
      </trkpt>
      <trkpt lat="42.90635" lon="0.83311">
        <ele>1456</ele>
        <time>2018-12-02T12:19:44.000Z</time>
      </trkpt>
      <trkpt lat="42.90635" lon="0.83311">
        <ele>1456</ele>
        <time>2018-12-02T12:19:46.000Z</time>
      </trkpt>
      <trkpt lat="42.90635" lon="0.83311">
        <ele>1456</ele>
        <time>2018-12-02T12:19:48.000Z</time>
      </trkpt>
      <trkpt lat="42.90636" lon="0.83311">
        <ele>1456</ele>
        <time>2018-12-02T12:19:50.000Z</time>
      </trkpt>
      <trkpt lat="42.90636" lon="0.83312">
        <ele>1455</ele>
        <time>2018-12-02T12:19:52.000Z</time>
      </trkpt>
      <trkpt lat="42.90637" lon="0.83312">
        <ele>1455</ele>
        <time>2018-12-02T12:19:55.000Z</time>
      </trkpt>
      <trkpt lat="42.90637" lon="0.83312">
        <ele>1455</ele>
        <time>2018-12-02T12:19:57.000Z</time>
      </trkpt>
      <trkpt lat="42.90637" lon="0.83312">
        <ele>1455</ele>
        <time>2018-12-02T12:19:59.000Z</time>
      </trkpt>
      <trkpt lat="42.90637" lon="0.83312">
        <ele>1455</ele>
        <time>2018-12-02T12:20:01.000Z</time>
      </trkpt>
      <trkpt lat="42.90637" lon="0.83312">
        <ele>1455</ele>
        <time>2018-12-02T12:20:03.000Z</time>
      </trkpt>
      <trkpt lat="42.90637" lon="0.83312">
        <ele>1455</ele>
        <time>2018-12-02T12:20:05.000Z</time>
      </trkpt>
      <trkpt lat="42.90637" lon="0.83312">
        <ele>1455</ele>
        <time>2018-12-02T12:20:07.000Z</time>
      </trkpt>
      <trkpt lat="42.90637" lon="0.83312">
        <ele>1455</ele>
        <time>2018-12-02T12:20:09.000Z</time>
      </trkpt>
      <trkpt lat="42.90637" lon="0.83312">
        <ele>1455</ele>
        <time>2018-12-02T12:20:11.000Z</time>
      </trkpt>
      <trkpt lat="42.90637" lon="0.83312">
        <ele>1455</ele>
        <time>2018-12-02T12:20:14.000Z</time>
      </trkpt>
      <trkpt lat="42.90637" lon="0.83312">
        <ele>1455</ele>
        <time>2018-12-02T12:20:16.000Z</time>
      </trkpt>
      <trkpt lat="42.90638" lon="0.83313">
        <ele>1455</ele>
        <time>2018-12-02T12:20:18.000Z</time>
      </trkpt>
      <trkpt lat="42.90637" lon="0.83312">
        <ele>1455</ele>
        <time>2018-12-02T12:20:20.000Z</time>
      </trkpt>
      <trkpt lat="42.90637" lon="0.83313">
        <ele>1455</ele>
        <time>2018-12-02T12:20:22.000Z</time>
      </trkpt>
      <trkpt lat="42.90637" lon="0.83313">
        <ele>1455</ele>
        <time>2018-12-02T12:20:24.000Z</time>
      </trkpt>
      <trkpt lat="42.90638" lon="0.83313">
        <ele>1455</ele>
        <time>2018-12-02T12:20:26.000Z</time>
      </trkpt>
      <trkpt lat="42.90638" lon="0.83313">
        <ele>1455</ele>
        <time>2018-12-02T12:20:28.000Z</time>
      </trkpt>
      <trkpt lat="42.90638" lon="0.83314">
        <ele>1455</ele>
        <time>2018-12-02T12:20:30.000Z</time>
      </trkpt>
      <trkpt lat="42.90639" lon="0.83314">
        <ele>1455</ele>
        <time>2018-12-02T12:20:32.000Z</time>
      </trkpt>
      <trkpt lat="42.90639" lon="0.83314">
        <ele>1454</ele>
        <time>2018-12-02T12:20:34.000Z</time>
      </trkpt>
      <trkpt lat="42.90639" lon="0.83315">
        <ele>1454</ele>
        <time>2018-12-02T12:20:36.000Z</time>
      </trkpt>
      <trkpt lat="42.90639" lon="0.83315">
        <ele>1454</ele>
        <time>2018-12-02T12:20:38.000Z</time>
      </trkpt>
      <trkpt lat="42.90639" lon="0.83315">
        <ele>1454</ele>
        <time>2018-12-02T12:20:40.000Z</time>
      </trkpt>
      <trkpt lat="42.90639" lon="0.83315">
        <ele>1454</ele>
        <time>2018-12-02T12:20:42.000Z</time>
      </trkpt>
      <trkpt lat="42.90639" lon="0.83315">
        <ele>1454</ele>
        <time>2018-12-02T12:20:44.000Z</time>
      </trkpt>
      <trkpt lat="42.90639" lon="0.83315">
        <ele>1454</ele>
        <time>2018-12-02T12:20:46.000Z</time>
      </trkpt>
      <trkpt lat="42.90638" lon="0.83315">
        <ele>1454</ele>
        <time>2018-12-02T12:20:48.000Z</time>
      </trkpt>
      <trkpt lat="42.90638" lon="0.83315">
        <ele>1454</ele>
        <time>2018-12-02T12:20:50.000Z</time>
      </trkpt>
      <trkpt lat="42.90637" lon="0.83315">
        <ele>1455</ele>
        <time>2018-12-02T12:20:52.000Z</time>
      </trkpt>
      <trkpt lat="42.90637" lon="0.83315">
        <ele>1455</ele>
        <time>2018-12-02T12:20:54.000Z</time>
      </trkpt>
      <trkpt lat="42.90638" lon="0.83315">
        <ele>1454</ele>
        <time>2018-12-02T12:20:56.000Z</time>
      </trkpt>
      <trkpt lat="42.90638" lon="0.83316">
        <ele>1454</ele>
        <time>2018-12-02T12:20:58.000Z</time>
      </trkpt>
      <trkpt lat="42.90638" lon="0.83315">
        <ele>1454</ele>
        <time>2018-12-02T12:21:00.000Z</time>
      </trkpt>
      <trkpt lat="42.90638" lon="0.83315">
        <ele>1454</ele>
        <time>2018-12-02T12:21:02.000Z</time>
      </trkpt>
      <trkpt lat="42.90638" lon="0.83315">
        <ele>1454</ele>
        <time>2018-12-02T12:21:04.000Z</time>
      </trkpt>
      <trkpt lat="42.90637" lon="0.83315">
        <ele>1455</ele>
        <time>2018-12-02T12:21:07.000Z</time>
      </trkpt>
      <trkpt lat="42.90637" lon="0.83315">
        <ele>1455</ele>
        <time>2018-12-02T12:21:09.000Z</time>
      </trkpt>
      <trkpt lat="42.90636" lon="0.83315">
        <ele>1455</ele>
        <time>2018-12-02T12:21:12.000Z</time>
      </trkpt>
      <trkpt lat="42.90636" lon="0.83315">
        <ele>1455</ele>
        <time>2018-12-02T12:21:15.000Z</time>
      </trkpt>
      <trkpt lat="42.90635" lon="0.83315">
        <ele>1455</ele>
        <time>2018-12-02T12:21:17.000Z</time>
      </trkpt>
      <trkpt lat="42.90635" lon="0.83315">
        <ele>1455</ele>
        <time>2018-12-02T12:21:20.000Z</time>
      </trkpt>
      <trkpt lat="42.90635" lon="0.83314">
        <ele>1455</ele>
        <time>2018-12-02T12:21:22.000Z</time>
      </trkpt>
      <trkpt lat="42.90636" lon="0.83315">
        <ele>1455</ele>
        <time>2018-12-02T12:21:24.000Z</time>
      </trkpt>
      <trkpt lat="42.90636" lon="0.83315">
        <ele>1455</ele>
        <time>2018-12-02T12:21:26.000Z</time>
      </trkpt>
      <trkpt lat="42.90636" lon="0.83315">
        <ele>1455</ele>
        <time>2018-12-02T12:21:28.000Z</time>
      </trkpt>
      <trkpt lat="42.90637" lon="0.83315">
        <ele>1455</ele>
        <time>2018-12-02T12:21:30.000Z</time>
      </trkpt>
      <trkpt lat="42.90638" lon="0.83315">
        <ele>1454</ele>
        <time>2018-12-02T12:21:32.000Z</time>
      </trkpt>
      <trkpt lat="42.90639" lon="0.83315">
        <ele>1454</ele>
        <time>2018-12-02T12:21:34.000Z</time>
      </trkpt>
      <trkpt lat="42.90639" lon="0.83315">
        <ele>1454</ele>
        <time>2018-12-02T12:21:37.000Z</time>
      </trkpt>
      <trkpt lat="42.9064" lon="0.83315">
        <ele>1454</ele>
        <time>2018-12-02T12:21:39.000Z</time>
      </trkpt>
      <trkpt lat="42.9064" lon="0.83314">
        <ele>1454</ele>
        <time>2018-12-02T12:21:41.000Z</time>
      </trkpt>
      <trkpt lat="42.9064" lon="0.83314">
        <ele>1454</ele>
        <time>2018-12-02T12:21:43.000Z</time>
      </trkpt>
      <trkpt lat="42.90641" lon="0.83314">
        <ele>1454</ele>
        <time>2018-12-02T12:21:46.000Z</time>
      </trkpt>
      <trkpt lat="42.90641" lon="0.83314">
        <ele>1454</ele>
        <time>2018-12-02T12:21:48.000Z</time>
      </trkpt>
      <trkpt lat="42.90641" lon="0.83315">
        <ele>1454</ele>
        <time>2018-12-02T12:21:50.000Z</time>
      </trkpt>
      <trkpt lat="42.9064" lon="0.83315">
        <ele>1454</ele>
        <time>2018-12-02T12:21:52.000Z</time>
      </trkpt>
      <trkpt lat="42.9064" lon="0.83315">
        <ele>1454</ele>
        <time>2018-12-02T12:21:54.000Z</time>
      </trkpt>
      <trkpt lat="42.90638" lon="0.83316">
        <ele>1454</ele>
        <time>2018-12-02T12:21:57.000Z</time>
      </trkpt>
      <trkpt lat="42.90638" lon="0.83315">
        <ele>1454</ele>
        <time>2018-12-02T12:22:00.000Z</time>
      </trkpt>
      <trkpt lat="42.90639" lon="0.83315">
        <ele>1454</ele>
        <time>2018-12-02T12:22:02.000Z</time>
      </trkpt>
      <trkpt lat="42.90638" lon="0.83315">
        <ele>1454</ele>
        <time>2018-12-02T12:22:05.000Z</time>
      </trkpt>
      <trkpt lat="42.90638" lon="0.83315">
        <ele>1454</ele>
        <time>2018-12-02T12:22:08.000Z</time>
      </trkpt>
      <trkpt lat="42.90637" lon="0.83315">
        <ele>1455</ele>
        <time>2018-12-02T12:22:12.000Z</time>
      </trkpt>
      <trkpt lat="42.90637" lon="0.83314">
        <ele>1455</ele>
        <time>2018-12-02T12:22:14.000Z</time>
      </trkpt>
      <trkpt lat="42.90638" lon="0.83313">
        <ele>1455</ele>
        <time>2018-12-02T12:22:16.000Z</time>
      </trkpt>
      <trkpt lat="42.90638" lon="0.83312">
        <ele>1455</ele>
        <time>2018-12-02T12:22:18.000Z</time>
      </trkpt>
      <trkpt lat="42.90639" lon="0.83311">
        <ele>1455</ele>
        <time>2018-12-02T12:22:20.000Z</time>
      </trkpt>
      <trkpt lat="42.90639" lon="0.8331">
        <ele>1455</ele>
        <time>2018-12-02T12:22:22.000Z</time>
      </trkpt>
      <trkpt lat="42.90639" lon="0.83308">
        <ele>1456</ele>
        <time>2018-12-02T12:22:24.000Z</time>
      </trkpt>
      <trkpt lat="42.9064" lon="0.83307">
        <ele>1456</ele>
        <time>2018-12-02T12:22:26.000Z</time>
      </trkpt>
      <trkpt lat="42.90639" lon="0.83307">
        <ele>1456</ele>
        <time>2018-12-02T12:22:28.000Z</time>
      </trkpt>
      <trkpt lat="42.90638" lon="0.83307">
        <ele>1456</ele>
        <time>2018-12-02T12:22:31.000Z</time>
      </trkpt>
      <trkpt lat="42.90638" lon="0.83307">
        <ele>1456</ele>
        <time>2018-12-02T12:22:34.000Z</time>
      </trkpt>
      <trkpt lat="42.90637" lon="0.83308">
        <ele>1456</ele>
        <time>2018-12-02T12:22:36.000Z</time>
      </trkpt>
      <trkpt lat="42.90636" lon="0.83308">
        <ele>1456</ele>
        <time>2018-12-02T12:22:38.000Z</time>
      </trkpt>
      <trkpt lat="42.90635" lon="0.83307">
        <ele>1457</ele>
        <time>2018-12-02T12:22:40.000Z</time>
      </trkpt>
      <trkpt lat="42.90634" lon="0.83307">
        <ele>1457</ele>
        <time>2018-12-02T12:22:43.000Z</time>
      </trkpt>
      <trkpt lat="42.90633" lon="0.83309">
        <ele>1457</ele>
        <time>2018-12-02T12:22:45.000Z</time>
      </trkpt>
      <trkpt lat="42.90633" lon="0.8331">
        <ele>1456</ele>
        <time>2018-12-02T12:22:47.000Z</time>
      </trkpt>
      <trkpt lat="42.90633" lon="0.83312">
        <ele>1456</ele>
        <time>2018-12-02T12:22:50.000Z</time>
      </trkpt>
      <trkpt lat="42.90635" lon="0.83312">
        <ele>1456</ele>
        <time>2018-12-02T12:22:52.000Z</time>
      </trkpt>
      <trkpt lat="42.90636" lon="0.83312">
        <ele>1456</ele>
        <time>2018-12-02T12:22:55.000Z</time>
      </trkpt>
      <trkpt lat="42.90636" lon="0.83312">
        <ele>1455</ele>
        <time>2018-12-02T12:22:57.000Z</time>
      </trkpt>
      <trkpt lat="42.90637" lon="0.83312">
        <ele>1455</ele>
        <time>2018-12-02T12:22:59.000Z</time>
      </trkpt>
      <trkpt lat="42.90634" lon="0.83314">
        <ele>1455</ele>
        <time>2018-12-02T12:23:02.000Z</time>
      </trkpt>
      <trkpt lat="42.90632" lon="0.83315">
        <ele>1456</ele>
        <time>2018-12-02T12:23:05.000Z</time>
      </trkpt>
      <trkpt lat="42.9063" lon="0.83315">
        <ele>1456</ele>
        <time>2018-12-02T12:23:07.000Z</time>
      </trkpt>
      <trkpt lat="42.90631" lon="0.83315">
        <ele>1456</ele>
        <time>2018-12-02T12:23:10.000Z</time>
      </trkpt>
      <trkpt lat="42.90635" lon="0.83314">
        <ele>1455</ele>
        <time>2018-12-02T12:23:13.000Z</time>
      </trkpt>
      <trkpt lat="42.90636" lon="0.83313">
        <ele>1455</ele>
        <time>2018-12-02T12:23:15.000Z</time>
      </trkpt>
      <trkpt lat="42.90638" lon="0.83312">
        <ele>1455</ele>
        <time>2018-12-02T12:23:17.000Z</time>
      </trkpt>
      <trkpt lat="42.90639" lon="0.83311">
        <ele>1455</ele>
        <time>2018-12-02T12:23:19.000Z</time>
      </trkpt>
      <trkpt lat="42.90639" lon="0.8331">
        <ele>1455</ele>
        <time>2018-12-02T12:23:23.000Z</time>
      </trkpt>
      <trkpt lat="42.9064" lon="0.8331">
        <ele>1455</ele>
        <time>2018-12-02T12:23:25.000Z</time>
      </trkpt>
      <trkpt lat="42.9064" lon="0.8331">
        <ele>1455</ele>
        <time>2018-12-02T12:23:27.000Z</time>
      </trkpt>
      <trkpt lat="42.9064" lon="0.8331">
        <ele>1455</ele>
        <time>2018-12-02T12:23:29.000Z</time>
      </trkpt>
      <trkpt lat="42.9064" lon="0.83309">
        <ele>1455</ele>
        <time>2018-12-02T12:23:31.000Z</time>
      </trkpt>
      <trkpt lat="42.9064" lon="0.83309">
        <ele>1455</ele>
        <time>2018-12-02T12:23:33.000Z</time>
      </trkpt>
      <trkpt lat="42.9064" lon="0.83309">
        <ele>1455</ele>
        <time>2018-12-02T12:23:35.000Z</time>
      </trkpt>
      <trkpt lat="42.9064" lon="0.83309">
        <ele>1455</ele>
        <time>2018-12-02T12:23:37.000Z</time>
      </trkpt>
      <trkpt lat="42.9064" lon="0.83309">
        <ele>1455</ele>
        <time>2018-12-02T12:23:39.000Z</time>
      </trkpt>
      <trkpt lat="42.9064" lon="0.83309">
        <ele>1455</ele>
        <time>2018-12-02T12:23:41.000Z</time>
      </trkpt>
      <trkpt lat="42.9064" lon="0.83308">
        <ele>1455</ele>
        <time>2018-12-02T12:23:43.000Z</time>
      </trkpt>
      <trkpt lat="42.9064" lon="0.83308">
        <ele>1455</ele>
        <time>2018-12-02T12:23:45.000Z</time>
      </trkpt>
      <trkpt lat="42.90641" lon="0.83308">
        <ele>1455</ele>
        <time>2018-12-02T12:23:47.000Z</time>
      </trkpt>
      <trkpt lat="42.90641" lon="0.83308">
        <ele>1455</ele>
        <time>2018-12-02T12:23:49.000Z</time>
      </trkpt>
      <trkpt lat="42.90641" lon="0.83307">
        <ele>1455</ele>
        <time>2018-12-02T12:23:51.000Z</time>
      </trkpt>
      <trkpt lat="42.90641" lon="0.83307">
        <ele>1455</ele>
        <time>2018-12-02T12:23:53.000Z</time>
      </trkpt>
      <trkpt lat="42.90641" lon="0.83307">
        <ele>1455</ele>
        <time>2018-12-02T12:23:55.000Z</time>
      </trkpt>
      <trkpt lat="42.90641" lon="0.83307">
        <ele>1455</ele>
        <time>2018-12-02T12:23:57.000Z</time>
      </trkpt>
      <trkpt lat="42.90641" lon="0.83307">
        <ele>1455</ele>
        <time>2018-12-02T12:23:59.000Z</time>
      </trkpt>
      <trkpt lat="42.90642" lon="0.83306">
        <ele>1455</ele>
        <time>2018-12-02T12:24:01.000Z</time>
      </trkpt>
      <trkpt lat="42.90642" lon="0.83306">
        <ele>1455</ele>
        <time>2018-12-02T12:24:03.000Z</time>
      </trkpt>
      <trkpt lat="42.90642" lon="0.83306">
        <ele>1455</ele>
        <time>2018-12-02T12:24:05.000Z</time>
      </trkpt>
      <trkpt lat="42.90643" lon="0.83307">
        <ele>1455</ele>
        <time>2018-12-02T12:24:07.000Z</time>
      </trkpt>
      <trkpt lat="42.90643" lon="0.83307">
        <ele>1455</ele>
        <time>2018-12-02T12:24:09.000Z</time>
      </trkpt>
      <trkpt lat="42.90643" lon="0.83307">
        <ele>1455</ele>
        <time>2018-12-02T12:24:11.000Z</time>
      </trkpt>
      <trkpt lat="42.90643" lon="0.83307">
        <ele>1455</ele>
        <time>2018-12-02T12:24:14.000Z</time>
      </trkpt>
      <trkpt lat="42.90644" lon="0.83307">
        <ele>1455</ele>
        <time>2018-12-02T12:24:16.000Z</time>
      </trkpt>
      <trkpt lat="42.90644" lon="0.83307">
        <ele>1455</ele>
        <time>2018-12-02T12:24:18.000Z</time>
      </trkpt>
      <trkpt lat="42.90645" lon="0.83307">
        <ele>1455</ele>
        <time>2018-12-02T12:24:21.000Z</time>
      </trkpt>
      <trkpt lat="42.90645" lon="0.83307">
        <ele>1455</ele>
        <time>2018-12-02T12:24:24.000Z</time>
      </trkpt>
      <trkpt lat="42.90645" lon="0.83308">
        <ele>1455</ele>
        <time>2018-12-02T12:24:27.000Z</time>
      </trkpt>
      <trkpt lat="42.90644" lon="0.83308">
        <ele>1454</ele>
        <time>2018-12-02T12:24:29.000Z</time>
      </trkpt>
      <trkpt lat="42.90644" lon="0.83309">
        <ele>1454</ele>
        <time>2018-12-02T12:24:32.000Z</time>
      </trkpt>
      <trkpt lat="42.90644" lon="0.83308">
        <ele>1455</ele>
        <time>2018-12-02T12:24:34.000Z</time>
      </trkpt>
      <trkpt lat="42.90643" lon="0.83308">
        <ele>1455</ele>
        <time>2018-12-02T12:24:36.000Z</time>
      </trkpt>
      <trkpt lat="42.90642" lon="0.83308">
        <ele>1455</ele>
        <time>2018-12-02T12:24:39.000Z</time>
      </trkpt>
      <trkpt lat="42.90642" lon="0.83308">
        <ele>1455</ele>
        <time>2018-12-02T12:24:41.000Z</time>
      </trkpt>
      <trkpt lat="42.90642" lon="0.83308">
        <ele>1455</ele>
        <time>2018-12-02T12:24:43.000Z</time>
      </trkpt>
      <trkpt lat="42.90641" lon="0.83308">
        <ele>1455</ele>
        <time>2018-12-02T12:24:46.000Z</time>
      </trkpt>
      <trkpt lat="42.90641" lon="0.83308">
        <ele>1455</ele>
        <time>2018-12-02T12:24:48.000Z</time>
      </trkpt>
      <trkpt lat="42.90641" lon="0.83309">
        <ele>1455</ele>
        <time>2018-12-02T12:24:51.000Z</time>
      </trkpt>
      <trkpt lat="42.90641" lon="0.83309">
        <ele>1455</ele>
        <time>2018-12-02T12:24:53.000Z</time>
      </trkpt>
      <trkpt lat="42.90641" lon="0.83311">
        <ele>1455</ele>
        <time>2018-12-02T12:24:55.000Z</time>
      </trkpt>
      <trkpt lat="42.90641" lon="0.83311">
        <ele>1455</ele>
        <time>2018-12-02T12:24:57.000Z</time>
      </trkpt>
      <trkpt lat="42.90641" lon="0.83312">
        <ele>1454</ele>
        <time>2018-12-02T12:24:59.000Z</time>
      </trkpt>
      <trkpt lat="42.90641" lon="0.83312">
        <ele>1454</ele>
        <time>2018-12-02T12:25:01.000Z</time>
      </trkpt>
      <trkpt lat="42.90641" lon="0.83314">
        <ele>1454</ele>
        <time>2018-12-02T12:25:03.000Z</time>
      </trkpt>
      <trkpt lat="42.90641" lon="0.83315">
        <ele>1454</ele>
        <time>2018-12-02T12:25:05.000Z</time>
      </trkpt>
      <trkpt lat="42.90641" lon="0.83315">
        <ele>1454</ele>
        <time>2018-12-02T12:25:07.000Z</time>
      </trkpt>
      <trkpt lat="42.90641" lon="0.83315">
        <ele>1454</ele>
        <time>2018-12-02T12:25:09.000Z</time>
      </trkpt>
      <trkpt lat="42.90641" lon="0.83316">
        <ele>1454</ele>
        <time>2018-12-02T12:25:11.000Z</time>
      </trkpt>
      <trkpt lat="42.90641" lon="0.83316">
        <ele>1454</ele>
        <time>2018-12-02T12:25:13.000Z</time>
      </trkpt>
      <trkpt lat="42.90641" lon="0.83317">
        <ele>1453</ele>
        <time>2018-12-02T12:25:15.000Z</time>
      </trkpt>
      <trkpt lat="42.90641" lon="0.83318">
        <ele>1453</ele>
        <time>2018-12-02T12:25:17.000Z</time>
      </trkpt>
      <trkpt lat="42.90641" lon="0.83319">
        <ele>1453</ele>
        <time>2018-12-02T12:25:19.000Z</time>
      </trkpt>
      <trkpt lat="42.90641" lon="0.83319">
        <ele>1453</ele>
        <time>2018-12-02T12:25:21.000Z</time>
      </trkpt>
      <trkpt lat="42.90642" lon="0.83319">
        <ele>1453</ele>
        <time>2018-12-02T12:25:24.000Z</time>
      </trkpt>
      <trkpt lat="42.90642" lon="0.83318">
        <ele>1453</ele>
        <time>2018-12-02T12:25:26.000Z</time>
      </trkpt>
      <trkpt lat="42.90641" lon="0.83318">
        <ele>1453</ele>
        <time>2018-12-02T12:25:28.000Z</time>
      </trkpt>
      <trkpt lat="42.90642" lon="0.83317">
        <ele>1453</ele>
        <time>2018-12-02T12:25:32.000Z</time>
      </trkpt>
      <trkpt lat="42.90642" lon="0.83317">
        <ele>1453</ele>
        <time>2018-12-02T12:25:34.000Z</time>
      </trkpt>
      <trkpt lat="42.90641" lon="0.83317">
        <ele>1453</ele>
        <time>2018-12-02T12:25:37.000Z</time>
      </trkpt>
      <trkpt lat="42.90642" lon="0.83317">
        <ele>1453</ele>
        <time>2018-12-02T12:25:39.000Z</time>
      </trkpt>
      <trkpt lat="42.90642" lon="0.83317">
        <ele>1453</ele>
        <time>2018-12-02T12:25:41.000Z</time>
      </trkpt>
      <trkpt lat="42.90642" lon="0.83317">
        <ele>1453</ele>
        <time>2018-12-02T12:25:43.000Z</time>
      </trkpt>
      <trkpt lat="42.90642" lon="0.83317">
        <ele>1453</ele>
        <time>2018-12-02T12:25:45.000Z</time>
      </trkpt>
      <trkpt lat="42.90642" lon="0.83316">
        <ele>1453</ele>
        <time>2018-12-02T12:25:48.000Z</time>
      </trkpt>
      <trkpt lat="42.90642" lon="0.83316">
        <ele>1453</ele>
        <time>2018-12-02T12:25:50.000Z</time>
      </trkpt>
      <trkpt lat="42.90642" lon="0.83316">
        <ele>1453</ele>
        <time>2018-12-02T12:25:52.000Z</time>
      </trkpt>
      <trkpt lat="42.90642" lon="0.83315">
        <ele>1454</ele>
        <time>2018-12-02T12:25:54.000Z</time>
      </trkpt>
      <trkpt lat="42.90642" lon="0.83315">
        <ele>1454</ele>
        <time>2018-12-02T12:25:56.000Z</time>
      </trkpt>
      <trkpt lat="42.90642" lon="0.83314">
        <ele>1454</ele>
        <time>2018-12-02T12:25:59.000Z</time>
      </trkpt>
      <trkpt lat="42.90642" lon="0.83314">
        <ele>1454</ele>
        <time>2018-12-02T12:26:02.000Z</time>
      </trkpt>
      <trkpt lat="42.90643" lon="0.83314">
        <ele>1454</ele>
        <time>2018-12-02T12:26:04.000Z</time>
      </trkpt>
      <trkpt lat="42.90643" lon="0.83314">
        <ele>1454</ele>
        <time>2018-12-02T12:26:06.000Z</time>
      </trkpt>
      <trkpt lat="42.90643" lon="0.83314">
        <ele>1454</ele>
        <time>2018-12-02T12:26:08.000Z</time>
      </trkpt>
      <trkpt lat="42.90643" lon="0.83313">
        <ele>1454</ele>
        <time>2018-12-02T12:26:10.000Z</time>
      </trkpt>
      <trkpt lat="42.90643" lon="0.83313">
        <ele>1454</ele>
        <time>2018-12-02T12:26:12.000Z</time>
      </trkpt>
      <trkpt lat="42.90643" lon="0.83314">
        <ele>1454</ele>
        <time>2018-12-02T12:26:14.000Z</time>
      </trkpt>
      <trkpt lat="42.90642" lon="0.83314">
        <ele>1454</ele>
        <time>2018-12-02T12:26:16.000Z</time>
      </trkpt>
      <trkpt lat="42.90642" lon="0.83314">
        <ele>1454</ele>
        <time>2018-12-02T12:26:18.000Z</time>
      </trkpt>
      <trkpt lat="42.90642" lon="0.83315">
        <ele>1454</ele>
        <time>2018-12-02T12:26:20.000Z</time>
      </trkpt>
      <trkpt lat="42.90642" lon="0.83315">
        <ele>1454</ele>
        <time>2018-12-02T12:26:23.000Z</time>
      </trkpt>
      <trkpt lat="42.90642" lon="0.83315">
        <ele>1454</ele>
        <time>2018-12-02T12:26:25.000Z</time>
      </trkpt>
      <trkpt lat="42.90642" lon="0.83315">
        <ele>1454</ele>
        <time>2018-12-02T12:26:27.000Z</time>
      </trkpt>
      <trkpt lat="42.90642" lon="0.83315">
        <ele>1454</ele>
        <time>2018-12-02T12:26:29.000Z</time>
      </trkpt>
      <trkpt lat="42.90641" lon="0.83316">
        <ele>1454</ele>
        <time>2018-12-02T12:26:31.000Z</time>
      </trkpt>
      <trkpt lat="42.90641" lon="0.83316">
        <ele>1454</ele>
        <time>2018-12-02T12:26:33.000Z</time>
      </trkpt>
      <trkpt lat="42.9064" lon="0.83315">
        <ele>1454</ele>
        <time>2018-12-02T12:26:35.000Z</time>
      </trkpt>
      <trkpt lat="42.9064" lon="0.83315">
        <ele>1454</ele>
        <time>2018-12-02T12:26:37.000Z</time>
      </trkpt>
      <trkpt lat="42.9064" lon="0.83315">
        <ele>1454</ele>
        <time>2018-12-02T12:26:39.000Z</time>
      </trkpt>
      <trkpt lat="42.9064" lon="0.83315">
        <ele>1454</ele>
        <time>2018-12-02T12:26:41.000Z</time>
      </trkpt>
      <trkpt lat="42.9064" lon="0.83315">
        <ele>1454</ele>
        <time>2018-12-02T12:26:43.000Z</time>
      </trkpt>
      <trkpt lat="42.9064" lon="0.83314">
        <ele>1454</ele>
        <time>2018-12-02T12:26:45.000Z</time>
      </trkpt>
      <trkpt lat="42.90641" lon="0.83314">
        <ele>1454</ele>
        <time>2018-12-02T12:26:47.000Z</time>
      </trkpt>
      <trkpt lat="42.90641" lon="0.83313">
        <ele>1454</ele>
        <time>2018-12-02T12:26:49.000Z</time>
      </trkpt>
      <trkpt lat="42.90641" lon="0.83313">
        <ele>1454</ele>
        <time>2018-12-02T12:26:51.000Z</time>
      </trkpt>
      <trkpt lat="42.90642" lon="0.83313">
        <ele>1454</ele>
        <time>2018-12-02T12:26:53.000Z</time>
      </trkpt>
      <trkpt lat="42.90642" lon="0.83313">
        <ele>1454</ele>
        <time>2018-12-02T12:26:55.000Z</time>
      </trkpt>
      <trkpt lat="42.90643" lon="0.83313">
        <ele>1454</ele>
        <time>2018-12-02T12:26:57.000Z</time>
      </trkpt>
      <trkpt lat="42.90643" lon="0.83313">
        <ele>1454</ele>
        <time>2018-12-02T12:26:59.000Z</time>
      </trkpt>
      <trkpt lat="42.90643" lon="0.83313">
        <ele>1454</ele>
        <time>2018-12-02T12:27:01.000Z</time>
      </trkpt>
      <trkpt lat="42.90643" lon="0.83313">
        <ele>1454</ele>
        <time>2018-12-02T12:27:03.000Z</time>
      </trkpt>
      <trkpt lat="42.90643" lon="0.83313">
        <ele>1454</ele>
        <time>2018-12-02T12:27:05.000Z</time>
      </trkpt>
      <trkpt lat="42.90643" lon="0.83312">
        <ele>1454</ele>
        <time>2018-12-02T12:27:07.000Z</time>
      </trkpt>
      <trkpt lat="42.90644" lon="0.83312">
        <ele>1454</ele>
        <time>2018-12-02T12:27:09.000Z</time>
      </trkpt>
      <trkpt lat="42.90644" lon="0.83312">
        <ele>1454</ele>
        <time>2018-12-02T12:27:11.000Z</time>
      </trkpt>
      <trkpt lat="42.90644" lon="0.83312">
        <ele>1454</ele>
        <time>2018-12-02T12:27:14.000Z</time>
      </trkpt>
      <trkpt lat="42.90644" lon="0.83312">
        <ele>1454</ele>
        <time>2018-12-02T12:27:16.000Z</time>
      </trkpt>
      <trkpt lat="42.90644" lon="0.83312">
        <ele>1454</ele>
        <time>2018-12-02T12:27:18.000Z</time>
      </trkpt>
      <trkpt lat="42.90644" lon="0.83312">
        <ele>1454</ele>
        <time>2018-12-02T12:27:20.000Z</time>
      </trkpt>
      <trkpt lat="42.90643" lon="0.83313">
        <ele>1454</ele>
        <time>2018-12-02T12:27:22.000Z</time>
      </trkpt>
      <trkpt lat="42.90643" lon="0.83313">
        <ele>1454</ele>
        <time>2018-12-02T12:27:24.000Z</time>
      </trkpt>
      <trkpt lat="42.90643" lon="0.83313">
        <ele>1454</ele>
        <time>2018-12-02T12:27:26.000Z</time>
      </trkpt>
      <trkpt lat="42.90643" lon="0.83313">
        <ele>1454</ele>
        <time>2018-12-02T12:27:28.000Z</time>
      </trkpt>
      <trkpt lat="42.90643" lon="0.83312">
        <ele>1454</ele>
        <time>2018-12-02T12:27:30.000Z</time>
      </trkpt>
      <trkpt lat="42.90644" lon="0.83312">
        <ele>1454</ele>
        <time>2018-12-02T12:27:32.000Z</time>
      </trkpt>
      <trkpt lat="42.90644" lon="0.83312">
        <ele>1454</ele>
        <time>2018-12-02T12:27:34.000Z</time>
      </trkpt>
      <trkpt lat="42.90644" lon="0.83312">
        <ele>1454</ele>
        <time>2018-12-02T12:27:36.000Z</time>
      </trkpt>
      <trkpt lat="42.90644" lon="0.83313">
        <ele>1454</ele>
        <time>2018-12-02T12:27:38.000Z</time>
      </trkpt>
      <trkpt lat="42.90644" lon="0.83312">
        <ele>1454</ele>
        <time>2018-12-02T12:27:40.000Z</time>
      </trkpt>
      <trkpt lat="42.90644" lon="0.83312">
        <ele>1454</ele>
        <time>2018-12-02T12:27:42.000Z</time>
      </trkpt>
      <trkpt lat="42.90644" lon="0.83311">
        <ele>1454</ele>
        <time>2018-12-02T12:27:44.000Z</time>
      </trkpt>
      <trkpt lat="42.90643" lon="0.83311">
        <ele>1454</ele>
        <time>2018-12-02T12:27:46.000Z</time>
      </trkpt>
      <trkpt lat="42.90643" lon="0.8331">
        <ele>1454</ele>
        <time>2018-12-02T12:27:48.000Z</time>
      </trkpt>
      <trkpt lat="42.90644" lon="0.83309">
        <ele>1454</ele>
        <time>2018-12-02T12:27:50.000Z</time>
      </trkpt>
      <trkpt lat="42.90645" lon="0.83309">
        <ele>1454</ele>
        <time>2018-12-02T12:27:53.000Z</time>
      </trkpt>
      <trkpt lat="42.90645" lon="0.83309">
        <ele>1454</ele>
        <time>2018-12-02T12:27:55.000Z</time>
      </trkpt>
      <trkpt lat="42.90644" lon="0.83309">
        <ele>1454</ele>
        <time>2018-12-02T12:27:57.000Z</time>
      </trkpt>
      <trkpt lat="42.90643" lon="0.83309">
        <ele>1454</ele>
        <time>2018-12-02T12:27:59.000Z</time>
      </trkpt>
      <trkpt lat="42.90643" lon="0.83309">
        <ele>1455</ele>
        <time>2018-12-02T12:28:01.000Z</time>
      </trkpt>
      <trkpt lat="42.90643" lon="0.83309">
        <ele>1455</ele>
        <time>2018-12-02T12:28:03.000Z</time>
      </trkpt>
      <trkpt lat="42.90643" lon="0.8331">
        <ele>1454</ele>
        <time>2018-12-02T12:28:05.000Z</time>
      </trkpt>
      <trkpt lat="42.90644" lon="0.8331">
        <ele>1454</ele>
        <time>2018-12-02T12:28:07.000Z</time>
      </trkpt>
      <trkpt lat="42.90644" lon="0.8331">
        <ele>1454</ele>
        <time>2018-12-02T12:28:09.000Z</time>
      </trkpt>
      <trkpt lat="42.90644" lon="0.83309">
        <ele>1455</ele>
        <time>2018-12-02T12:28:12.000Z</time>
      </trkpt>
      <trkpt lat="42.90644" lon="0.83309">
        <ele>1455</ele>
        <time>2018-12-02T12:28:14.000Z</time>
      </trkpt>
      <trkpt lat="42.90643" lon="0.83308">
        <ele>1455</ele>
        <time>2018-12-02T12:28:17.000Z</time>
      </trkpt>
      <trkpt lat="42.90643" lon="0.83308">
        <ele>1455</ele>
        <time>2018-12-02T12:28:19.000Z</time>
      </trkpt>
      <trkpt lat="42.90643" lon="0.83308">
        <ele>1455</ele>
        <time>2018-12-02T12:28:22.000Z</time>
      </trkpt>
      <trkpt lat="42.90643" lon="0.83308">
        <ele>1455</ele>
        <time>2018-12-02T12:28:24.000Z</time>
      </trkpt>
      <trkpt lat="42.90643" lon="0.83308">
        <ele>1455</ele>
        <time>2018-12-02T12:28:26.000Z</time>
      </trkpt>
      <trkpt lat="42.90644" lon="0.83308">
        <ele>1455</ele>
        <time>2018-12-02T12:28:28.000Z</time>
      </trkpt>
      <trkpt lat="42.90645" lon="0.83307">
        <ele>1455</ele>
        <time>2018-12-02T12:28:30.000Z</time>
      </trkpt>
      <trkpt lat="42.90645" lon="0.83306">
        <ele>1455</ele>
        <time>2018-12-02T12:28:32.000Z</time>
      </trkpt>
      <trkpt lat="42.90646" lon="0.83306">
        <ele>1455</ele>
        <time>2018-12-02T12:28:34.000Z</time>
      </trkpt>
      <trkpt lat="42.90646" lon="0.83306">
        <ele>1455</ele>
        <time>2018-12-02T12:28:36.000Z</time>
      </trkpt>
      <trkpt lat="42.90646" lon="0.83305">
        <ele>1455</ele>
        <time>2018-12-02T12:28:38.000Z</time>
      </trkpt>
      <trkpt lat="42.90646" lon="0.83305">
        <ele>1455</ele>
        <time>2018-12-02T12:28:40.000Z</time>
      </trkpt>
      <trkpt lat="42.90646" lon="0.83305">
        <ele>1455</ele>
        <time>2018-12-02T12:28:43.000Z</time>
      </trkpt>
      <trkpt lat="42.90646" lon="0.83305">
        <ele>1455</ele>
        <time>2018-12-02T12:28:45.000Z</time>
      </trkpt>
      <trkpt lat="42.90646" lon="0.83305">
        <ele>1455</ele>
        <time>2018-12-02T12:28:47.000Z</time>
      </trkpt>
      <trkpt lat="42.90646" lon="0.83305">
        <ele>1455</ele>
        <time>2018-12-02T12:28:49.000Z</time>
      </trkpt>
      <trkpt lat="42.90646" lon="0.83305">
        <ele>1455</ele>
        <time>2018-12-02T12:28:51.000Z</time>
      </trkpt>
      <trkpt lat="42.90646" lon="0.83304">
        <ele>1455</ele>
        <time>2018-12-02T12:28:54.000Z</time>
      </trkpt>
      <trkpt lat="42.90646" lon="0.83304">
        <ele>1455</ele>
        <time>2018-12-02T12:28:56.000Z</time>
      </trkpt>
      <trkpt lat="42.90646" lon="0.83304">
        <ele>1455</ele>
        <time>2018-12-02T12:28:59.000Z</time>
      </trkpt>
      <trkpt lat="42.90646" lon="0.83304">
        <ele>1455</ele>
        <time>2018-12-02T12:29:02.000Z</time>
      </trkpt>
      <trkpt lat="42.90646" lon="0.83304">
        <ele>1455</ele>
        <time>2018-12-02T12:29:04.000Z</time>
      </trkpt>
      <trkpt lat="42.90645" lon="0.83305">
        <ele>1455</ele>
        <time>2018-12-02T12:29:06.000Z</time>
      </trkpt>
      <trkpt lat="42.90644" lon="0.83306">
        <ele>1455</ele>
        <time>2018-12-02T12:29:09.000Z</time>
      </trkpt>
      <trkpt lat="42.90644" lon="0.83306">
        <ele>1455</ele>
        <time>2018-12-02T12:29:11.000Z</time>
      </trkpt>
      <trkpt lat="42.90644" lon="0.83307">
        <ele>1455</ele>
        <time>2018-12-02T12:29:13.000Z</time>
      </trkpt>
      <trkpt lat="42.90644" lon="0.83308">
        <ele>1454</ele>
        <time>2018-12-02T12:29:16.000Z</time>
      </trkpt>
      <trkpt lat="42.90644" lon="0.83309">
        <ele>1454</ele>
        <time>2018-12-02T12:29:19.000Z</time>
      </trkpt>
      <trkpt lat="42.90644" lon="0.83309">
        <ele>1454</ele>
        <time>2018-12-02T12:29:21.000Z</time>
      </trkpt>
      <trkpt lat="42.90643" lon="0.8331">
        <ele>1454</ele>
        <time>2018-12-02T12:29:24.000Z</time>
      </trkpt>
      <trkpt lat="42.90643" lon="0.83311">
        <ele>1454</ele>
        <time>2018-12-02T12:29:26.000Z</time>
      </trkpt>
      <trkpt lat="42.90643" lon="0.83312">
        <ele>1454</ele>
        <time>2018-12-02T12:29:28.000Z</time>
      </trkpt>
      <trkpt lat="42.90643" lon="0.83313">
        <ele>1454</ele>
        <time>2018-12-02T12:29:30.000Z</time>
      </trkpt>
      <trkpt lat="42.90642" lon="0.83314">
        <ele>1454</ele>
        <time>2018-12-02T12:29:32.000Z</time>
      </trkpt>
      <trkpt lat="42.90642" lon="0.83314">
        <ele>1454</ele>
        <time>2018-12-02T12:29:34.000Z</time>
      </trkpt>
      <trkpt lat="42.90642" lon="0.83314">
        <ele>1454</ele>
        <time>2018-12-02T12:29:36.000Z</time>
      </trkpt>
      <trkpt lat="42.90641" lon="0.83314">
        <ele>1454</ele>
        <time>2018-12-02T12:29:39.000Z</time>
      </trkpt>
      <trkpt lat="42.90641" lon="0.83314">
        <ele>1454</ele>
        <time>2018-12-02T12:29:41.000Z</time>
      </trkpt>
      <trkpt lat="42.9064" lon="0.83314">
        <ele>1454</ele>
        <time>2018-12-02T12:29:43.000Z</time>
      </trkpt>
      <trkpt lat="42.9064" lon="0.83314">
        <ele>1454</ele>
        <time>2018-12-02T12:29:45.000Z</time>
      </trkpt>
      <trkpt lat="42.9064" lon="0.83313">
        <ele>1454</ele>
        <time>2018-12-02T12:29:47.000Z</time>
      </trkpt>
      <trkpt lat="42.9064" lon="0.83314">
        <ele>1454</ele>
        <time>2018-12-02T12:29:49.000Z</time>
      </trkpt>
      <trkpt lat="42.9064" lon="0.83314">
        <ele>1454</ele>
        <time>2018-12-02T12:29:51.000Z</time>
      </trkpt>
      <trkpt lat="42.9064" lon="0.83314">
        <ele>1454</ele>
        <time>2018-12-02T12:29:53.000Z</time>
      </trkpt>
      <trkpt lat="42.9064" lon="0.83314">
        <ele>1454</ele>
        <time>2018-12-02T12:29:55.000Z</time>
      </trkpt>
      <trkpt lat="42.9064" lon="0.83313">
        <ele>1454</ele>
        <time>2018-12-02T12:29:57.000Z</time>
      </trkpt>
      <trkpt lat="42.9064" lon="0.83312">
        <ele>1455</ele>
        <time>2018-12-02T12:29:59.000Z</time>
      </trkpt>
      <trkpt lat="42.9064" lon="0.83312">
        <ele>1455</ele>
        <time>2018-12-02T12:30:01.000Z</time>
      </trkpt>
      <trkpt lat="42.90641" lon="0.83312">
        <ele>1454</ele>
        <time>2018-12-02T12:30:03.000Z</time>
      </trkpt>
      <trkpt lat="42.9064" lon="0.83312">
        <ele>1455</ele>
        <time>2018-12-02T12:30:05.000Z</time>
      </trkpt>
      <trkpt lat="42.9064" lon="0.83312">
        <ele>1455</ele>
        <time>2018-12-02T12:30:07.000Z</time>
      </trkpt>
      <trkpt lat="42.9064" lon="0.83312">
        <ele>1455</ele>
        <time>2018-12-02T12:30:09.000Z</time>
      </trkpt>
      <trkpt lat="42.9064" lon="0.83311">
        <ele>1455</ele>
        <time>2018-12-02T12:30:12.000Z</time>
      </trkpt>
      <trkpt lat="42.9064" lon="0.8331">
        <ele>1455</ele>
        <time>2018-12-02T12:30:14.000Z</time>
      </trkpt>
      <trkpt lat="42.90641" lon="0.8331">
        <ele>1455</ele>
        <time>2018-12-02T12:30:16.000Z</time>
      </trkpt>
      <trkpt lat="42.90641" lon="0.8331">
        <ele>1455</ele>
        <time>2018-12-02T12:30:18.000Z</time>
      </trkpt>
      <trkpt lat="42.90641" lon="0.83309">
        <ele>1455</ele>
        <time>2018-12-02T12:30:22.000Z</time>
      </trkpt>
      <trkpt lat="42.90641" lon="0.83308">
        <ele>1455</ele>
        <time>2018-12-02T12:30:24.000Z</time>
      </trkpt>
      <trkpt lat="42.90641" lon="0.83307">
        <ele>1455</ele>
        <time>2018-12-02T12:30:26.000Z</time>
      </trkpt>
      <trkpt lat="42.90641" lon="0.83307">
        <ele>1455</ele>
        <time>2018-12-02T12:30:28.000Z</time>
      </trkpt>
      <trkpt lat="42.90641" lon="0.83307">
        <ele>1455</ele>
        <time>2018-12-02T12:30:30.000Z</time>
      </trkpt>
      <trkpt lat="42.90641" lon="0.83306">
        <ele>1455</ele>
        <time>2018-12-02T12:30:33.000Z</time>
      </trkpt>
      <trkpt lat="42.90642" lon="0.83307">
        <ele>1455</ele>
        <time>2018-12-02T12:30:35.000Z</time>
      </trkpt>
      <trkpt lat="42.90642" lon="0.83306">
        <ele>1455</ele>
        <time>2018-12-02T12:30:37.000Z</time>
      </trkpt>
      <trkpt lat="42.90641" lon="0.83306">
        <ele>1456</ele>
        <time>2018-12-02T12:30:39.000Z</time>
      </trkpt>
      <trkpt lat="42.90641" lon="0.83305">
        <ele>1456</ele>
        <time>2018-12-02T12:30:41.000Z</time>
      </trkpt>
      <trkpt lat="42.90641" lon="0.83304">
        <ele>1456</ele>
        <time>2018-12-02T12:30:44.000Z</time>
      </trkpt>
      <trkpt lat="42.9064" lon="0.83305">
        <ele>1456</ele>
        <time>2018-12-02T12:30:46.000Z</time>
      </trkpt>
      <trkpt lat="42.9064" lon="0.83305">
        <ele>1456</ele>
        <time>2018-12-02T12:30:48.000Z</time>
      </trkpt>
      <trkpt lat="42.90639" lon="0.83305">
        <ele>1456</ele>
        <time>2018-12-02T12:30:51.000Z</time>
      </trkpt>
      <trkpt lat="42.90639" lon="0.83305">
        <ele>1456</ele>
        <time>2018-12-02T12:30:53.000Z</time>
      </trkpt>
      <trkpt lat="42.90639" lon="0.83304">
        <ele>1456</ele>
        <time>2018-12-02T12:30:55.000Z</time>
      </trkpt>
      <trkpt lat="42.90639" lon="0.83304">
        <ele>1456</ele>
        <time>2018-12-02T12:30:57.000Z</time>
      </trkpt>
      <trkpt lat="42.90639" lon="0.83303">
        <ele>1456</ele>
        <time>2018-12-02T12:30:59.000Z</time>
      </trkpt>
      <trkpt lat="42.90638" lon="0.83303">
        <ele>1456</ele>
        <time>2018-12-02T12:31:02.000Z</time>
      </trkpt>
      <trkpt lat="42.90639" lon="0.83302">
        <ele>1456</ele>
        <time>2018-12-02T12:31:04.000Z</time>
      </trkpt>
      <trkpt lat="42.90639" lon="0.83301">
        <ele>1456</ele>
        <time>2018-12-02T12:31:06.000Z</time>
      </trkpt>
      <trkpt lat="42.9064" lon="0.83302">
        <ele>1456</ele>
        <time>2018-12-02T12:31:09.000Z</time>
      </trkpt>
      <trkpt lat="42.9064" lon="0.83303">
        <ele>1456</ele>
        <time>2018-12-02T12:31:11.000Z</time>
      </trkpt>
      <trkpt lat="42.90639" lon="0.83304">
        <ele>1456</ele>
        <time>2018-12-02T12:31:14.000Z</time>
      </trkpt>
      <trkpt lat="42.90638" lon="0.83306">
        <ele>1456</ele>
        <time>2018-12-02T12:31:16.000Z</time>
      </trkpt>
      <trkpt lat="42.90637" lon="0.83309">
        <ele>1456</ele>
        <time>2018-12-02T12:31:18.000Z</time>
      </trkpt>
      <trkpt lat="42.90637" lon="0.83311">
        <ele>1456</ele>
        <time>2018-12-02T12:31:21.000Z</time>
      </trkpt>
      <trkpt lat="42.90637" lon="0.83311">
        <ele>1455</ele>
        <time>2018-12-02T12:31:23.000Z</time>
      </trkpt>
      <trkpt lat="42.90637" lon="0.83311">
        <ele>1455</ele>
        <time>2018-12-02T12:31:25.000Z</time>
      </trkpt>
      <trkpt lat="42.90637" lon="0.83311">
        <ele>1455</ele>
        <time>2018-12-02T12:31:27.000Z</time>
      </trkpt>
      <trkpt lat="42.90638" lon="0.83312">
        <ele>1455</ele>
        <time>2018-12-02T12:31:29.000Z</time>
      </trkpt>
      <trkpt lat="42.90638" lon="0.83312">
        <ele>1455</ele>
        <time>2018-12-02T12:31:31.000Z</time>
      </trkpt>
      <trkpt lat="42.90639" lon="0.83312">
        <ele>1455</ele>
        <time>2018-12-02T12:31:33.000Z</time>
      </trkpt>
      <trkpt lat="42.90639" lon="0.83312">
        <ele>1455</ele>
        <time>2018-12-02T12:31:36.000Z</time>
      </trkpt>
      <trkpt lat="42.9064" lon="0.83311">
        <ele>1455</ele>
        <time>2018-12-02T12:31:39.000Z</time>
      </trkpt>
      <trkpt lat="42.9064" lon="0.83311">
        <ele>1455</ele>
        <time>2018-12-02T12:31:41.000Z</time>
      </trkpt>
      <trkpt lat="42.90641" lon="0.8331">
        <ele>1455</ele>
        <time>2018-12-02T12:31:43.000Z</time>
      </trkpt>
      <trkpt lat="42.90642" lon="0.8331">
        <ele>1455</ele>
        <time>2018-12-02T12:31:45.000Z</time>
      </trkpt>
      <trkpt lat="42.90642" lon="0.8331">
        <ele>1455</ele>
        <time>2018-12-02T12:31:47.000Z</time>
      </trkpt>
      <trkpt lat="42.90642" lon="0.83309">
        <ele>1455</ele>
        <time>2018-12-02T12:31:49.000Z</time>
      </trkpt>
      <trkpt lat="42.90642" lon="0.83308">
        <ele>1455</ele>
        <time>2018-12-02T12:31:51.000Z</time>
      </trkpt>
      <trkpt lat="42.90641" lon="0.83307">
        <ele>1455</ele>
        <time>2018-12-02T12:31:54.000Z</time>
      </trkpt>
      <trkpt lat="42.90641" lon="0.83308">
        <ele>1455</ele>
        <time>2018-12-02T12:31:57.000Z</time>
      </trkpt>
      <trkpt lat="42.90641" lon="0.83308">
        <ele>1455</ele>
        <time>2018-12-02T12:31:59.000Z</time>
      </trkpt>
      <trkpt lat="42.90642" lon="0.83309">
        <ele>1455</ele>
        <time>2018-12-02T12:32:01.000Z</time>
      </trkpt>
      <trkpt lat="42.90642" lon="0.83309">
        <ele>1455</ele>
        <time>2018-12-02T12:32:03.000Z</time>
      </trkpt>
      <trkpt lat="42.90643" lon="0.83309">
        <ele>1455</ele>
        <time>2018-12-02T12:32:05.000Z</time>
      </trkpt>
      <trkpt lat="42.90642" lon="0.8331">
        <ele>1455</ele>
        <time>2018-12-02T12:32:07.000Z</time>
      </trkpt>
      <trkpt lat="42.90642" lon="0.8331">
        <ele>1454</ele>
        <time>2018-12-02T12:32:09.000Z</time>
      </trkpt>
      <trkpt lat="42.90642" lon="0.83311">
        <ele>1454</ele>
        <time>2018-12-02T12:32:11.000Z</time>
      </trkpt>
      <trkpt lat="42.90642" lon="0.83311">
        <ele>1454</ele>
        <time>2018-12-02T12:32:13.000Z</time>
      </trkpt>
      <trkpt lat="42.90642" lon="0.83311">
        <ele>1454</ele>
        <time>2018-12-02T12:32:15.000Z</time>
      </trkpt>
      <trkpt lat="42.90642" lon="0.83311">
        <ele>1454</ele>
        <time>2018-12-02T12:32:17.000Z</time>
      </trkpt>
      <trkpt lat="42.90642" lon="0.8331">
        <ele>1454</ele>
        <time>2018-12-02T12:32:20.000Z</time>
      </trkpt>
      <trkpt lat="42.90642" lon="0.8331">
        <ele>1455</ele>
        <time>2018-12-02T12:32:22.000Z</time>
      </trkpt>
      <trkpt lat="42.90641" lon="0.83309">
        <ele>1455</ele>
        <time>2018-12-02T12:32:24.000Z</time>
      </trkpt>
      <trkpt lat="42.9064" lon="0.83308">
        <ele>1455</ele>
        <time>2018-12-02T12:32:28.000Z</time>
      </trkpt>
      <trkpt lat="42.9064" lon="0.83307">
        <ele>1456</ele>
        <time>2018-12-02T12:32:30.000Z</time>
      </trkpt>
      <trkpt lat="42.90639" lon="0.83307">
        <ele>1456</ele>
        <time>2018-12-02T12:32:33.000Z</time>
      </trkpt>
      <trkpt lat="42.90638" lon="0.83306">
        <ele>1456</ele>
        <time>2018-12-02T12:32:37.000Z</time>
      </trkpt>
      <trkpt lat="42.90637" lon="0.83306">
        <ele>1456</ele>
        <time>2018-12-02T12:32:39.000Z</time>
      </trkpt>
      <trkpt lat="42.90637" lon="0.83305">
        <ele>1456</ele>
        <time>2018-12-02T12:32:41.000Z</time>
      </trkpt>
      <trkpt lat="42.90636" lon="0.83305">
        <ele>1457</ele>
        <time>2018-12-02T12:32:43.000Z</time>
      </trkpt>
      <trkpt lat="42.90636" lon="0.83304">
        <ele>1457</ele>
        <time>2018-12-02T12:32:45.000Z</time>
      </trkpt>
      <trkpt lat="42.90636" lon="0.83305">
        <ele>1457</ele>
        <time>2018-12-02T12:32:48.000Z</time>
      </trkpt>
      <trkpt lat="42.90637" lon="0.83304">
        <ele>1457</ele>
        <time>2018-12-02T12:32:50.000Z</time>
      </trkpt>
      <trkpt lat="42.90637" lon="0.83306">
        <ele>1456</ele>
        <time>2018-12-02T12:32:54.000Z</time>
      </trkpt>
      <trkpt lat="42.90638" lon="0.83307">
        <ele>1456</ele>
        <time>2018-12-02T12:32:56.000Z</time>
      </trkpt>
      <trkpt lat="42.90639" lon="0.83308">
        <ele>1456</ele>
        <time>2018-12-02T12:32:59.000Z</time>
      </trkpt>
      <trkpt lat="42.9064" lon="0.83309">
        <ele>1455</ele>
        <time>2018-12-02T12:33:01.000Z</time>
      </trkpt>
      <trkpt lat="42.90641" lon="0.83309">
        <ele>1455</ele>
        <time>2018-12-02T12:33:03.000Z</time>
      </trkpt>
      <trkpt lat="42.90641" lon="0.83309">
        <ele>1455</ele>
        <time>2018-12-02T12:33:06.000Z</time>
      </trkpt>
      <trkpt lat="42.9064" lon="0.83309">
        <ele>1455</ele>
        <time>2018-12-02T12:33:10.000Z</time>
      </trkpt>
      <trkpt lat="42.90639" lon="0.83309">
        <ele>1455</ele>
        <time>2018-12-02T12:33:13.000Z</time>
      </trkpt>
      <trkpt lat="42.90639" lon="0.8331">
        <ele>1455</ele>
        <time>2018-12-02T12:33:15.000Z</time>
      </trkpt>
      <trkpt lat="42.90639" lon="0.8331">
        <ele>1455</ele>
        <time>2018-12-02T12:33:18.000Z</time>
      </trkpt>
      <trkpt lat="42.90639" lon="0.8331">
        <ele>1455</ele>
        <time>2018-12-02T12:33:20.000Z</time>
      </trkpt>
      <trkpt lat="42.9064" lon="0.8331">
        <ele>1455</ele>
        <time>2018-12-02T12:33:22.000Z</time>
      </trkpt>
      <trkpt lat="42.9064" lon="0.8331">
        <ele>1455</ele>
        <time>2018-12-02T12:33:24.000Z</time>
      </trkpt>
      <trkpt lat="42.9064" lon="0.8331">
        <ele>1455</ele>
        <time>2018-12-02T12:33:26.000Z</time>
      </trkpt>
      <trkpt lat="42.9064" lon="0.8331">
        <ele>1455</ele>
        <time>2018-12-02T12:33:29.000Z</time>
      </trkpt>
      <trkpt lat="42.9064" lon="0.83309">
        <ele>1455</ele>
        <time>2018-12-02T12:33:31.000Z</time>
      </trkpt>
      <trkpt lat="42.90638" lon="0.83309">
        <ele>1455</ele>
        <time>2018-12-02T12:33:34.000Z</time>
      </trkpt>
      <trkpt lat="42.90638" lon="0.83309">
        <ele>1456</ele>
        <time>2018-12-02T12:33:36.000Z</time>
      </trkpt>
      <trkpt lat="42.90637" lon="0.8331">
        <ele>1456</ele>
        <time>2018-12-02T12:33:39.000Z</time>
      </trkpt>
      <trkpt lat="42.90637" lon="0.83311">
        <ele>1455</ele>
        <time>2018-12-02T12:33:41.000Z</time>
      </trkpt>
      <trkpt lat="42.90637" lon="0.8331">
        <ele>1456</ele>
        <time>2018-12-02T12:33:43.000Z</time>
      </trkpt>
      <trkpt lat="42.90637" lon="0.83311">
        <ele>1455</ele>
        <time>2018-12-02T12:33:45.000Z</time>
      </trkpt>
      <trkpt lat="42.90638" lon="0.83312">
        <ele>1455</ele>
        <time>2018-12-02T12:33:47.000Z</time>
      </trkpt>
      <trkpt lat="42.90639" lon="0.83312">
        <ele>1455</ele>
        <time>2018-12-02T12:33:50.000Z</time>
      </trkpt>
      <trkpt lat="42.9064" lon="0.83312">
        <ele>1455</ele>
        <time>2018-12-02T12:33:53.000Z</time>
      </trkpt>
      <trkpt lat="42.90641" lon="0.83311">
        <ele>1455</ele>
        <time>2018-12-02T12:33:56.000Z</time>
      </trkpt>
      <trkpt lat="42.90641" lon="0.83311">
        <ele>1454</ele>
        <time>2018-12-02T12:33:58.000Z</time>
      </trkpt>
      <trkpt lat="42.90641" lon="0.83312">
        <ele>1455</ele>
        <time>2018-12-02T12:34:01.000Z</time>
      </trkpt>
      <trkpt lat="42.9064" lon="0.83311">
        <ele>1455</ele>
        <time>2018-12-02T12:34:03.000Z</time>
      </trkpt>
      <trkpt lat="42.90641" lon="0.83311">
        <ele>1455</ele>
        <time>2018-12-02T12:34:05.000Z</time>
      </trkpt>
      <trkpt lat="42.90641" lon="0.83311">
        <ele>1455</ele>
        <time>2018-12-02T12:34:08.000Z</time>
      </trkpt>
      <trkpt lat="42.90641" lon="0.83311">
        <ele>1455</ele>
        <time>2018-12-02T12:34:10.000Z</time>
      </trkpt>
      <trkpt lat="42.90642" lon="0.8331">
        <ele>1455</ele>
        <time>2018-12-02T12:34:13.000Z</time>
      </trkpt>
      <trkpt lat="42.90642" lon="0.83311">
        <ele>1454</ele>
        <time>2018-12-02T12:34:15.000Z</time>
      </trkpt>
      <trkpt lat="42.90642" lon="0.83311">
        <ele>1454</ele>
        <time>2018-12-02T12:34:18.000Z</time>
      </trkpt>
      <trkpt lat="42.90643" lon="0.83311">
        <ele>1454</ele>
        <time>2018-12-02T12:34:21.000Z</time>
      </trkpt>
      <trkpt lat="42.90642" lon="0.83311">
        <ele>1454</ele>
        <time>2018-12-02T12:34:24.000Z</time>
      </trkpt>
      <trkpt lat="42.90643" lon="0.83311">
        <ele>1454</ele>
        <time>2018-12-02T12:34:28.000Z</time>
      </trkpt>
      <trkpt lat="42.90642" lon="0.83311">
        <ele>1454</ele>
        <time>2018-12-02T12:34:30.000Z</time>
      </trkpt>
      <trkpt lat="42.90643" lon="0.8331">
        <ele>1454</ele>
        <time>2018-12-02T12:34:32.000Z</time>
      </trkpt>
      <trkpt lat="42.90643" lon="0.8331">
        <ele>1454</ele>
        <time>2018-12-02T12:34:35.000Z</time>
      </trkpt>
      <trkpt lat="42.90643" lon="0.8331">
        <ele>1454</ele>
        <time>2018-12-02T12:34:38.000Z</time>
      </trkpt>
      <trkpt lat="42.90642" lon="0.83309">
        <ele>1455</ele>
        <time>2018-12-02T12:34:40.000Z</time>
      </trkpt>
      <trkpt lat="42.90642" lon="0.83309">
        <ele>1455</ele>
        <time>2018-12-02T12:34:43.000Z</time>
      </trkpt>
      <trkpt lat="42.90641" lon="0.83309">
        <ele>1455</ele>
        <time>2018-12-02T12:34:45.000Z</time>
      </trkpt>
      <trkpt lat="42.90641" lon="0.83309">
        <ele>1455</ele>
        <time>2018-12-02T12:34:48.000Z</time>
      </trkpt>
      <trkpt lat="42.90641" lon="0.83309">
        <ele>1455</ele>
        <time>2018-12-02T12:34:51.000Z</time>
      </trkpt>
      <trkpt lat="42.90641" lon="0.8331">
        <ele>1455</ele>
        <time>2018-12-02T12:34:53.000Z</time>
      </trkpt>
      <trkpt lat="42.90641" lon="0.83311">
        <ele>1455</ele>
        <time>2018-12-02T12:34:56.000Z</time>
      </trkpt>
      <trkpt lat="42.90642" lon="0.83311">
        <ele>1454</ele>
        <time>2018-12-02T12:34:59.000Z</time>
      </trkpt>
      <trkpt lat="42.90642" lon="0.83312">
        <ele>1454</ele>
        <time>2018-12-02T12:35:02.000Z</time>
      </trkpt>
      <trkpt lat="42.90642" lon="0.83312">
        <ele>1454</ele>
        <time>2018-12-02T12:35:04.000Z</time>
      </trkpt>
      <trkpt lat="42.90643" lon="0.83312">
        <ele>1454</ele>
        <time>2018-12-02T12:35:06.000Z</time>
      </trkpt>
      <trkpt lat="42.90642" lon="0.83311">
        <ele>1454</ele>
        <time>2018-12-02T12:35:10.000Z</time>
      </trkpt>
      <trkpt lat="42.90642" lon="0.83312">
        <ele>1454</ele>
        <time>2018-12-02T12:35:12.000Z</time>
      </trkpt>
      <trkpt lat="42.90642" lon="0.83313">
        <ele>1454</ele>
        <time>2018-12-02T12:35:15.000Z</time>
      </trkpt>
      <trkpt lat="42.90642" lon="0.83314">
        <ele>1454</ele>
        <time>2018-12-02T12:35:19.000Z</time>
      </trkpt>
      <trkpt lat="42.90642" lon="0.83315">
        <ele>1454</ele>
        <time>2018-12-02T12:35:21.000Z</time>
      </trkpt>
      <trkpt lat="42.90642" lon="0.83315">
        <ele>1454</ele>
        <time>2018-12-02T12:35:23.000Z</time>
      </trkpt>
      <trkpt lat="42.90642" lon="0.83316">
        <ele>1453</ele>
        <time>2018-12-02T12:35:26.000Z</time>
      </trkpt>
      <trkpt lat="42.90642" lon="0.83317">
        <ele>1453</ele>
        <time>2018-12-02T12:35:28.000Z</time>
      </trkpt>
      <trkpt lat="42.90642" lon="0.83317">
        <ele>1453</ele>
        <time>2018-12-02T12:35:32.000Z</time>
      </trkpt>
      <trkpt lat="42.90642" lon="0.83316">
        <ele>1453</ele>
        <time>2018-12-02T12:35:35.000Z</time>
      </trkpt>
      <trkpt lat="42.90643" lon="0.83316">
        <ele>1453</ele>
        <time>2018-12-02T12:35:38.000Z</time>
      </trkpt>
      <trkpt lat="42.90644" lon="0.83316">
        <ele>1453</ele>
        <time>2018-12-02T12:35:41.000Z</time>
      </trkpt>
      <trkpt lat="42.90644" lon="0.83316">
        <ele>1453</ele>
        <time>2018-12-02T12:35:43.000Z</time>
      </trkpt>
      <trkpt lat="42.90645" lon="0.83314">
        <ele>1453</ele>
        <time>2018-12-02T12:35:46.000Z</time>
      </trkpt>
      <trkpt lat="42.90645" lon="0.83314">
        <ele>1453</ele>
        <time>2018-12-02T12:35:48.000Z</time>
      </trkpt>
      <trkpt lat="42.90645" lon="0.83313">
        <ele>1454</ele>
        <time>2018-12-02T12:35:52.000Z</time>
      </trkpt>
      <trkpt lat="42.90645" lon="0.83312">
        <ele>1454</ele>
        <time>2018-12-02T12:35:54.000Z</time>
      </trkpt>
      <trkpt lat="42.90645" lon="0.83312">
        <ele>1454</ele>
        <time>2018-12-02T12:35:57.000Z</time>
      </trkpt>
      <trkpt lat="42.90645" lon="0.83312">
        <ele>1454</ele>
        <time>2018-12-02T12:35:59.000Z</time>
      </trkpt>
      <trkpt lat="42.90645" lon="0.83312">
        <ele>1454</ele>
        <time>2018-12-02T12:36:01.000Z</time>
      </trkpt>
      <trkpt lat="42.90645" lon="0.83312">
        <ele>1454</ele>
        <time>2018-12-02T12:36:04.000Z</time>
      </trkpt>
      <trkpt lat="42.90644" lon="0.83312">
        <ele>1454</ele>
        <time>2018-12-02T12:36:07.000Z</time>
      </trkpt>
      <trkpt lat="42.90644" lon="0.83312">
        <ele>1454</ele>
        <time>2018-12-02T12:36:10.000Z</time>
      </trkpt>
      <trkpt lat="42.90644" lon="0.83311">
        <ele>1454</ele>
        <time>2018-12-02T12:36:12.000Z</time>
      </trkpt>
      <trkpt lat="42.90644" lon="0.83311">
        <ele>1454</ele>
        <time>2018-12-02T12:36:15.000Z</time>
      </trkpt>
      <trkpt lat="42.90644" lon="0.83311">
        <ele>1454</ele>
        <time>2018-12-02T12:36:17.000Z</time>
      </trkpt>
      <trkpt lat="42.90644" lon="0.83311">
        <ele>1454</ele>
        <time>2018-12-02T12:36:19.000Z</time>
      </trkpt>
      <trkpt lat="42.90645" lon="0.83311">
        <ele>1454</ele>
        <time>2018-12-02T12:36:22.000Z</time>
      </trkpt>
      <trkpt lat="42.90645" lon="0.83311">
        <ele>1454</ele>
        <time>2018-12-02T12:36:25.000Z</time>
      </trkpt>
      <trkpt lat="42.90646" lon="0.83311">
        <ele>1454</ele>
        <time>2018-12-02T12:36:28.000Z</time>
      </trkpt>
      <trkpt lat="42.90647" lon="0.83311">
        <ele>1453</ele>
        <time>2018-12-02T12:36:30.000Z</time>
      </trkpt>
      <trkpt lat="42.90647" lon="0.83311">
        <ele>1453</ele>
        <time>2018-12-02T12:36:33.000Z</time>
      </trkpt>
      <trkpt lat="42.90646" lon="0.83311">
        <ele>1454</ele>
        <time>2018-12-02T12:36:36.000Z</time>
      </trkpt>
      <trkpt lat="42.90646" lon="0.83311">
        <ele>1454</ele>
        <time>2018-12-02T12:36:38.000Z</time>
      </trkpt>
      <trkpt lat="42.90646" lon="0.8331">
        <ele>1454</ele>
        <time>2018-12-02T12:36:41.000Z</time>
      </trkpt>
      <trkpt lat="42.90645" lon="0.83309">
        <ele>1454</ele>
        <time>2018-12-02T12:36:45.000Z</time>
      </trkpt>
      <trkpt lat="42.90645" lon="0.8331">
        <ele>1454</ele>
        <time>2018-12-02T12:36:47.000Z</time>
      </trkpt>
      <trkpt lat="42.90644" lon="0.8331">
        <ele>1454</ele>
        <time>2018-12-02T12:36:50.000Z</time>
      </trkpt>
      <trkpt lat="42.90644" lon="0.8331">
        <ele>1454</ele>
        <time>2018-12-02T12:36:53.000Z</time>
      </trkpt>
      <trkpt lat="42.90644" lon="0.8331">
        <ele>1454</ele>
        <time>2018-12-02T12:36:55.000Z</time>
      </trkpt>
      <trkpt lat="42.90644" lon="0.83311">
        <ele>1454</ele>
        <time>2018-12-02T12:36:57.000Z</time>
      </trkpt>
      <trkpt lat="42.90643" lon="0.83312">
        <ele>1454</ele>
        <time>2018-12-02T12:36:59.000Z</time>
      </trkpt>
      <trkpt lat="42.90641" lon="0.83314">
        <ele>1454</ele>
        <time>2018-12-02T12:37:02.000Z</time>
      </trkpt>
      <trkpt lat="42.9064" lon="0.83314">
        <ele>1454</ele>
        <time>2018-12-02T12:37:04.000Z</time>
      </trkpt>
      <trkpt lat="42.90637" lon="0.83315">
        <ele>1455</ele>
        <time>2018-12-02T12:37:08.000Z</time>
      </trkpt>
      <trkpt lat="42.90635" lon="0.83316">
        <ele>1455</ele>
        <time>2018-12-02T12:37:11.000Z</time>
      </trkpt>
      <trkpt lat="42.90633" lon="0.83316">
        <ele>1455</ele>
        <time>2018-12-02T12:37:13.000Z</time>
      </trkpt>
      <trkpt lat="42.90632" lon="0.83316">
        <ele>1455</ele>
        <time>2018-12-02T12:37:15.000Z</time>
      </trkpt>
      <trkpt lat="42.90632" lon="0.83316">
        <ele>1455</ele>
        <time>2018-12-02T12:37:17.000Z</time>
      </trkpt>
      <trkpt lat="42.90632" lon="0.83317">
        <ele>1455</ele>
        <time>2018-12-02T12:37:20.000Z</time>
      </trkpt>
      <trkpt lat="42.90632" lon="0.83317">
        <ele>1455</ele>
        <time>2018-12-02T12:37:22.000Z</time>
      </trkpt>
      <trkpt lat="42.90632" lon="0.83317">
        <ele>1455</ele>
        <time>2018-12-02T12:37:25.000Z</time>
      </trkpt>
      <trkpt lat="42.90632" lon="0.83318">
        <ele>1455</ele>
        <time>2018-12-02T12:37:27.000Z</time>
      </trkpt>
      <trkpt lat="42.90632" lon="0.83318">
        <ele>1455</ele>
        <time>2018-12-02T12:37:30.000Z</time>
      </trkpt>
      <trkpt lat="42.90632" lon="0.83318">
        <ele>1455</ele>
        <time>2018-12-02T12:37:32.000Z</time>
      </trkpt>
      <trkpt lat="42.90631" lon="0.83319">
        <ele>1455</ele>
        <time>2018-12-02T12:37:34.000Z</time>
      </trkpt>
      <trkpt lat="42.90631" lon="0.83319">
        <ele>1455</ele>
        <time>2018-12-02T12:37:36.000Z</time>
      </trkpt>
      <trkpt lat="42.90631" lon="0.83319">
        <ele>1455</ele>
        <time>2018-12-02T12:37:39.000Z</time>
      </trkpt>
      <trkpt lat="42.90631" lon="0.83319">
        <ele>1455</ele>
        <time>2018-12-02T12:37:41.000Z</time>
      </trkpt>
      <trkpt lat="42.90631" lon="0.83319">
        <ele>1455</ele>
        <time>2018-12-02T12:37:43.000Z</time>
      </trkpt>
      <trkpt lat="42.90631" lon="0.83318">
        <ele>1455</ele>
        <time>2018-12-02T12:37:45.000Z</time>
      </trkpt>
      <trkpt lat="42.90632" lon="0.83318">
        <ele>1455</ele>
        <time>2018-12-02T12:37:48.000Z</time>
      </trkpt>
      <trkpt lat="42.90632" lon="0.83317">
        <ele>1455</ele>
        <time>2018-12-02T12:37:50.000Z</time>
      </trkpt>
      <trkpt lat="42.90632" lon="0.83316">
        <ele>1455</ele>
        <time>2018-12-02T12:37:52.000Z</time>
      </trkpt>
      <trkpt lat="42.90633" lon="0.83315">
        <ele>1456</ele>
        <time>2018-12-02T12:37:55.000Z</time>
      </trkpt>
      <trkpt lat="42.90633" lon="0.83313">
        <ele>1456</ele>
        <time>2018-12-02T12:37:57.000Z</time>
      </trkpt>
      <trkpt lat="42.90633" lon="0.83314">
        <ele>1456</ele>
        <time>2018-12-02T12:37:59.000Z</time>
      </trkpt>
      <trkpt lat="42.90633" lon="0.83314">
        <ele>1456</ele>
        <time>2018-12-02T12:38:01.000Z</time>
      </trkpt>
      <trkpt lat="42.90633" lon="0.83314">
        <ele>1456</ele>
        <time>2018-12-02T12:38:03.000Z</time>
      </trkpt>
      <trkpt lat="42.90633" lon="0.83314">
        <ele>1456</ele>
        <time>2018-12-02T12:38:05.000Z</time>
      </trkpt>
      <trkpt lat="42.90633" lon="0.83313">
        <ele>1456</ele>
        <time>2018-12-02T12:38:08.000Z</time>
      </trkpt>
      <trkpt lat="42.90632" lon="0.83313">
        <ele>1456</ele>
        <time>2018-12-02T12:38:10.000Z</time>
      </trkpt>
      <trkpt lat="42.90632" lon="0.83313">
        <ele>1456</ele>
        <time>2018-12-02T12:38:12.000Z</time>
      </trkpt>
      <trkpt lat="42.90632" lon="0.83314">
        <ele>1456</ele>
        <time>2018-12-02T12:38:15.000Z</time>
      </trkpt>
      <trkpt lat="42.90632" lon="0.83314">
        <ele>1456</ele>
        <time>2018-12-02T12:38:18.000Z</time>
      </trkpt>
      <trkpt lat="42.90632" lon="0.83314">
        <ele>1456</ele>
        <time>2018-12-02T12:38:20.000Z</time>
      </trkpt>
      <trkpt lat="42.90632" lon="0.83314">
        <ele>1456</ele>
        <time>2018-12-02T12:38:22.000Z</time>
      </trkpt>
      <trkpt lat="42.90632" lon="0.83313">
        <ele>1456</ele>
        <time>2018-12-02T12:38:24.000Z</time>
      </trkpt>
      <trkpt lat="42.90632" lon="0.83313">
        <ele>1456</ele>
        <time>2018-12-02T12:38:26.000Z</time>
      </trkpt>
      <trkpt lat="42.90632" lon="0.83314">
        <ele>1456</ele>
        <time>2018-12-02T12:38:29.000Z</time>
      </trkpt>
      <trkpt lat="42.90631" lon="0.83314">
        <ele>1456</ele>
        <time>2018-12-02T12:38:31.000Z</time>
      </trkpt>
      <trkpt lat="42.90631" lon="0.83314">
        <ele>1456</ele>
        <time>2018-12-02T12:38:34.000Z</time>
      </trkpt>
      <trkpt lat="42.90631" lon="0.83314">
        <ele>1456</ele>
        <time>2018-12-02T12:38:36.000Z</time>
      </trkpt>
      <trkpt lat="42.90631" lon="0.83314">
        <ele>1456</ele>
        <time>2018-12-02T12:38:39.000Z</time>
      </trkpt>
      <trkpt lat="42.90632" lon="0.83315">
        <ele>1456</ele>
        <time>2018-12-02T12:38:42.000Z</time>
      </trkpt>
      <trkpt lat="42.90631" lon="0.83315">
        <ele>1456</ele>
        <time>2018-12-02T12:38:44.000Z</time>
      </trkpt>
      <trkpt lat="42.90631" lon="0.83316">
        <ele>1456</ele>
        <time>2018-12-02T12:38:46.000Z</time>
      </trkpt>
      <trkpt lat="42.90631" lon="0.83316">
        <ele>1456</ele>
        <time>2018-12-02T12:38:49.000Z</time>
      </trkpt>
      <trkpt lat="42.90631" lon="0.83315">
        <ele>1456</ele>
        <time>2018-12-02T12:38:51.000Z</time>
      </trkpt>
      <trkpt lat="42.90632" lon="0.83313">
        <ele>1456</ele>
        <time>2018-12-02T12:38:54.000Z</time>
      </trkpt>
      <trkpt lat="42.90634" lon="0.83312">
        <ele>1456</ele>
        <time>2018-12-02T12:38:56.000Z</time>
      </trkpt>
      <trkpt lat="42.90635" lon="0.83312">
        <ele>1456</ele>
        <time>2018-12-02T12:38:58.000Z</time>
      </trkpt>
      <trkpt lat="42.90636" lon="0.83314">
        <ele>1455</ele>
        <time>2018-12-02T12:39:00.000Z</time>
      </trkpt>
      <trkpt lat="42.90637" lon="0.83315">
        <ele>1455</ele>
        <time>2018-12-02T12:39:02.000Z</time>
      </trkpt>
      <trkpt lat="42.90639" lon="0.83316">
        <ele>1454</ele>
        <time>2018-12-02T12:39:04.000Z</time>
      </trkpt>
      <trkpt lat="42.9064" lon="0.83315">
        <ele>1454</ele>
        <time>2018-12-02T12:39:06.000Z</time>
      </trkpt>
      <trkpt lat="42.9064" lon="0.83316">
        <ele>1454</ele>
        <time>2018-12-02T12:39:09.000Z</time>
      </trkpt>
      <trkpt lat="42.9064" lon="0.83316">
        <ele>1454</ele>
        <time>2018-12-02T12:39:11.000Z</time>
      </trkpt>
      <trkpt lat="42.90641" lon="0.83316">
        <ele>1454</ele>
        <time>2018-12-02T12:39:14.000Z</time>
      </trkpt>
      <trkpt lat="42.90641" lon="0.83316">
        <ele>1454</ele>
        <time>2018-12-02T12:39:17.000Z</time>
      </trkpt>
      <trkpt lat="42.90642" lon="0.83315">
        <ele>1454</ele>
        <time>2018-12-02T12:39:19.000Z</time>
      </trkpt>
      <trkpt lat="42.90643" lon="0.83316">
        <ele>1453</ele>
        <time>2018-12-02T12:39:21.000Z</time>
      </trkpt>
      <trkpt lat="42.90646" lon="0.83316">
        <ele>1453</ele>
        <time>2018-12-02T12:39:25.000Z</time>
      </trkpt>
      <trkpt lat="42.90646" lon="0.83316">
        <ele>1453</ele>
        <time>2018-12-02T12:39:27.000Z</time>
      </trkpt>
      <trkpt lat="42.90648" lon="0.83316">
        <ele>1452</ele>
        <time>2018-12-02T12:39:29.000Z</time>
      </trkpt>
      <trkpt lat="42.90649" lon="0.83316">
        <ele>1452</ele>
        <time>2018-12-02T12:39:31.000Z</time>
      </trkpt>
      <trkpt lat="42.9065" lon="0.83315">
        <ele>1452</ele>
        <time>2018-12-02T12:39:33.000Z</time>
      </trkpt>
      <trkpt lat="42.90651" lon="0.83314">
        <ele>1452</ele>
        <time>2018-12-02T12:39:36.000Z</time>
      </trkpt>
      <trkpt lat="42.90651" lon="0.83314">
        <ele>1452</ele>
        <time>2018-12-02T12:39:39.000Z</time>
      </trkpt>
      <trkpt lat="42.90651" lon="0.83314">
        <ele>1452</ele>
        <time>2018-12-02T12:39:41.000Z</time>
      </trkpt>
      <trkpt lat="42.90651" lon="0.83315">
        <ele>1452</ele>
        <time>2018-12-02T12:39:43.000Z</time>
      </trkpt>
      <trkpt lat="42.90652" lon="0.83315">
        <ele>1452</ele>
        <time>2018-12-02T12:39:45.000Z</time>
      </trkpt>
      <trkpt lat="42.90652" lon="0.83314">
        <ele>1452</ele>
        <time>2018-12-02T12:39:47.000Z</time>
      </trkpt>
      <trkpt lat="42.90652" lon="0.83313">
        <ele>1452</ele>
        <time>2018-12-02T12:39:49.000Z</time>
      </trkpt>
      <trkpt lat="42.90652" lon="0.8331">
        <ele>1453</ele>
        <time>2018-12-02T12:39:52.000Z</time>
      </trkpt>
      <trkpt lat="42.90653" lon="0.83308">
        <ele>1453</ele>
        <time>2018-12-02T12:39:54.000Z</time>
      </trkpt>
      <trkpt lat="42.90653" lon="0.83307">
        <ele>1453</ele>
        <time>2018-12-02T12:39:56.000Z</time>
      </trkpt>
      <trkpt lat="42.90652" lon="0.83307">
        <ele>1453</ele>
        <time>2018-12-02T12:39:58.000Z</time>
      </trkpt>
      <trkpt lat="42.90652" lon="0.83307">
        <ele>1453</ele>
        <time>2018-12-02T12:40:01.000Z</time>
      </trkpt>
      <trkpt lat="42.90652" lon="0.83306">
        <ele>1453</ele>
        <time>2018-12-02T12:40:04.000Z</time>
      </trkpt>
      <trkpt lat="42.90652" lon="0.83306">
        <ele>1453</ele>
        <time>2018-12-02T12:40:06.000Z</time>
      </trkpt>
      <trkpt lat="42.90652" lon="0.83306">
        <ele>1453</ele>
        <time>2018-12-02T12:40:08.000Z</time>
      </trkpt>
      <trkpt lat="42.90652" lon="0.83307">
        <ele>1453</ele>
        <time>2018-12-02T12:40:10.000Z</time>
      </trkpt>
      <trkpt lat="42.90652" lon="0.83307">
        <ele>1453</ele>
        <time>2018-12-02T12:40:12.000Z</time>
      </trkpt>
      <trkpt lat="42.90652" lon="0.83307">
        <ele>1453</ele>
        <time>2018-12-02T12:40:14.000Z</time>
      </trkpt>
      <trkpt lat="42.90652" lon="0.83307">
        <ele>1453</ele>
        <time>2018-12-02T12:40:17.000Z</time>
      </trkpt>
      <trkpt lat="42.90652" lon="0.83307">
        <ele>1453</ele>
        <time>2018-12-02T12:40:19.000Z</time>
      </trkpt>
      <trkpt lat="42.90652" lon="0.83306">
        <ele>1453</ele>
        <time>2018-12-02T12:40:21.000Z</time>
      </trkpt>
      <trkpt lat="42.90652" lon="0.83306">
        <ele>1453</ele>
        <time>2018-12-02T12:40:23.000Z</time>
      </trkpt>
      <trkpt lat="42.90651" lon="0.83306">
        <ele>1453</ele>
        <time>2018-12-02T12:40:25.000Z</time>
      </trkpt>
      <trkpt lat="42.90651" lon="0.83306">
        <ele>1453</ele>
        <time>2018-12-02T12:40:27.000Z</time>
      </trkpt>
      <trkpt lat="42.90651" lon="0.83306">
        <ele>1453</ele>
        <time>2018-12-02T12:40:29.000Z</time>
      </trkpt>
      <trkpt lat="42.90651" lon="0.83307">
        <ele>1453</ele>
        <time>2018-12-02T12:40:31.000Z</time>
      </trkpt>
      <trkpt lat="42.90651" lon="0.83308">
        <ele>1453</ele>
        <time>2018-12-02T12:40:33.000Z</time>
      </trkpt>
      <trkpt lat="42.90651" lon="0.83311">
        <ele>1452</ele>
        <time>2018-12-02T12:40:35.000Z</time>
      </trkpt>
      <trkpt lat="42.90651" lon="0.83313">
        <ele>1452</ele>
        <time>2018-12-02T12:40:38.000Z</time>
      </trkpt>
      <trkpt lat="42.90651" lon="0.83314">
        <ele>1452</ele>
        <time>2018-12-02T12:40:40.000Z</time>
      </trkpt>
      <trkpt lat="42.90651" lon="0.83315">
        <ele>1452</ele>
        <time>2018-12-02T12:40:42.000Z</time>
      </trkpt>
      <trkpt lat="42.90651" lon="0.83315">
        <ele>1452</ele>
        <time>2018-12-02T12:40:44.000Z</time>
      </trkpt>
      <trkpt lat="42.90652" lon="0.83315">
        <ele>1452</ele>
        <time>2018-12-02T12:40:46.000Z</time>
      </trkpt>
      <trkpt lat="42.9065" lon="0.83316">
        <ele>1452</ele>
        <time>2018-12-02T12:40:48.000Z</time>
      </trkpt>
      <trkpt lat="42.90649" lon="0.83316">
        <ele>1452</ele>
        <time>2018-12-02T12:40:50.000Z</time>
      </trkpt>
      <trkpt lat="42.90647" lon="0.83316">
        <ele>1452</ele>
        <time>2018-12-02T12:40:52.000Z</time>
      </trkpt>
      <trkpt lat="42.90646" lon="0.83318">
        <ele>1452</ele>
        <time>2018-12-02T12:40:54.000Z</time>
      </trkpt>
      <trkpt lat="42.90645" lon="0.83317">
        <ele>1452</ele>
        <time>2018-12-02T12:40:57.000Z</time>
      </trkpt>
      <trkpt lat="42.90645" lon="0.83317">
        <ele>1453</ele>
        <time>2018-12-02T12:40:59.000Z</time>
      </trkpt>
      <trkpt lat="42.90645" lon="0.83318">
        <ele>1452</ele>
        <time>2018-12-02T12:41:02.000Z</time>
      </trkpt>
      <trkpt lat="42.90645" lon="0.83319">
        <ele>1452</ele>
        <time>2018-12-02T12:41:04.000Z</time>
      </trkpt>
      <trkpt lat="42.90645" lon="0.83319">
        <ele>1452</ele>
        <time>2018-12-02T12:41:06.000Z</time>
      </trkpt>
      <trkpt lat="42.90645" lon="0.83319">
        <ele>1452</ele>
        <time>2018-12-02T12:41:08.000Z</time>
      </trkpt>
      <trkpt lat="42.90645" lon="0.83319">
        <ele>1452</ele>
        <time>2018-12-02T12:41:10.000Z</time>
      </trkpt>
      <trkpt lat="42.90645" lon="0.83319">
        <ele>1452</ele>
        <time>2018-12-02T12:41:13.000Z</time>
      </trkpt>
      <trkpt lat="42.90645" lon="0.8332">
        <ele>1452</ele>
        <time>2018-12-02T12:41:15.000Z</time>
      </trkpt>
      <trkpt lat="42.90645" lon="0.8332">
        <ele>1452</ele>
        <time>2018-12-02T12:41:17.000Z</time>
      </trkpt>
      <trkpt lat="42.90644" lon="0.8332">
        <ele>1452</ele>
        <time>2018-12-02T12:41:20.000Z</time>
      </trkpt>
      <trkpt lat="42.90644" lon="0.83321">
        <ele>1452</ele>
        <time>2018-12-02T12:41:24.000Z</time>
      </trkpt>
      <trkpt lat="42.90644" lon="0.83321">
        <ele>1452</ele>
        <time>2018-12-02T12:41:27.000Z</time>
      </trkpt>
      <trkpt lat="42.90644" lon="0.83322">
        <ele>1452</ele>
        <time>2018-12-02T12:41:29.000Z</time>
      </trkpt>
      <trkpt lat="42.90644" lon="0.83322">
        <ele>1452</ele>
        <time>2018-12-02T12:41:31.000Z</time>
      </trkpt>
      <trkpt lat="42.90643" lon="0.83324">
        <ele>1452</ele>
        <time>2018-12-02T12:41:33.000Z</time>
      </trkpt>
      <trkpt lat="42.90643" lon="0.8332">
        <ele>1452</ele>
        <time>2018-12-02T12:41:35.000Z</time>
      </trkpt>
      <trkpt lat="42.90643" lon="0.8332">
        <ele>1452</ele>
        <time>2018-12-02T12:41:38.000Z</time>
      </trkpt>
      <trkpt lat="42.90644" lon="0.8332">
        <ele>1452</ele>
        <time>2018-12-02T12:41:41.000Z</time>
      </trkpt>
      <trkpt lat="42.90644" lon="0.8332">
        <ele>1452</ele>
        <time>2018-12-02T12:41:44.000Z</time>
      </trkpt>
      <trkpt lat="42.90644" lon="0.8332">
        <ele>1452</ele>
        <time>2018-12-02T12:41:46.000Z</time>
      </trkpt>
      <trkpt lat="42.90644" lon="0.83319">
        <ele>1452</ele>
        <time>2018-12-02T12:41:48.000Z</time>
      </trkpt>
      <trkpt lat="42.90644" lon="0.83319">
        <ele>1452</ele>
        <time>2018-12-02T12:41:51.000Z</time>
      </trkpt>
      <trkpt lat="42.90643" lon="0.8332">
        <ele>1452</ele>
        <time>2018-12-02T12:41:53.000Z</time>
      </trkpt>
      <trkpt lat="42.90644" lon="0.8332">
        <ele>1452</ele>
        <time>2018-12-02T12:41:55.000Z</time>
      </trkpt>
      <trkpt lat="42.90643" lon="0.8332">
        <ele>1452</ele>
        <time>2018-12-02T12:41:57.000Z</time>
      </trkpt>
      <trkpt lat="42.90643" lon="0.83321">
        <ele>1452</ele>
        <time>2018-12-02T12:41:59.000Z</time>
      </trkpt>
      <trkpt lat="42.90643" lon="0.83321">
        <ele>1452</ele>
        <time>2018-12-02T12:42:01.000Z</time>
      </trkpt>
      <trkpt lat="42.90643" lon="0.83321">
        <ele>1452</ele>
        <time>2018-12-02T12:42:03.000Z</time>
      </trkpt>
      <trkpt lat="42.90643" lon="0.83321">
        <ele>1452</ele>
        <time>2018-12-02T12:42:05.000Z</time>
      </trkpt>
      <trkpt lat="42.90643" lon="0.83321">
        <ele>1452</ele>
        <time>2018-12-02T12:42:08.000Z</time>
      </trkpt>
      <trkpt lat="42.90643" lon="0.83322">
        <ele>1452</ele>
        <time>2018-12-02T12:42:10.000Z</time>
      </trkpt>
      <trkpt lat="42.90644" lon="0.83322">
        <ele>1452</ele>
        <time>2018-12-02T12:42:13.000Z</time>
      </trkpt>
      <trkpt lat="42.90643" lon="0.83323">
        <ele>1452</ele>
        <time>2018-12-02T12:42:16.000Z</time>
      </trkpt>
      <trkpt lat="42.90643" lon="0.83322">
        <ele>1452</ele>
        <time>2018-12-02T12:42:18.000Z</time>
      </trkpt>
      <trkpt lat="42.90643" lon="0.83322">
        <ele>1452</ele>
        <time>2018-12-02T12:42:20.000Z</time>
      </trkpt>
      <trkpt lat="42.90643" lon="0.83322">
        <ele>1452</ele>
        <time>2018-12-02T12:42:22.000Z</time>
      </trkpt>
      <trkpt lat="42.90643" lon="0.83322">
        <ele>1452</ele>
        <time>2018-12-02T12:42:24.000Z</time>
      </trkpt>
      <trkpt lat="42.90643" lon="0.83322">
        <ele>1452</ele>
        <time>2018-12-02T12:42:26.000Z</time>
      </trkpt>
      <trkpt lat="42.90643" lon="0.83322">
        <ele>1452</ele>
        <time>2018-12-02T12:42:28.000Z</time>
      </trkpt>
      <trkpt lat="42.90643" lon="0.83322">
        <ele>1452</ele>
        <time>2018-12-02T12:42:31.000Z</time>
      </trkpt>
      <trkpt lat="42.90643" lon="0.83322">
        <ele>1452</ele>
        <time>2018-12-02T12:42:33.000Z</time>
      </trkpt>
      <trkpt lat="42.90643" lon="0.83322">
        <ele>1452</ele>
        <time>2018-12-02T12:42:35.000Z</time>
      </trkpt>
      <trkpt lat="42.90643" lon="0.83323">
        <ele>1452</ele>
        <time>2018-12-02T12:42:37.000Z</time>
      </trkpt>
      <trkpt lat="42.90643" lon="0.83322">
        <ele>1452</ele>
        <time>2018-12-02T12:42:39.000Z</time>
      </trkpt>
      <trkpt lat="42.90643" lon="0.83322">
        <ele>1452</ele>
        <time>2018-12-02T12:42:41.000Z</time>
      </trkpt>
      <trkpt lat="42.90643" lon="0.83322">
        <ele>1452</ele>
        <time>2018-12-02T12:42:44.000Z</time>
      </trkpt>
      <trkpt lat="42.90643" lon="0.83322">
        <ele>1452</ele>
        <time>2018-12-02T12:42:46.000Z</time>
      </trkpt>
      <trkpt lat="42.90643" lon="0.83322">
        <ele>1452</ele>
        <time>2018-12-02T12:42:48.000Z</time>
      </trkpt>
      <trkpt lat="42.90643" lon="0.83322">
        <ele>1452</ele>
        <time>2018-12-02T12:42:50.000Z</time>
      </trkpt>
      <trkpt lat="42.90643" lon="0.83322">
        <ele>1452</ele>
        <time>2018-12-02T12:42:52.000Z</time>
      </trkpt>
      <trkpt lat="42.90643" lon="0.83322">
        <ele>1452</ele>
        <time>2018-12-02T12:42:54.000Z</time>
      </trkpt>
      <trkpt lat="42.90643" lon="0.83322">
        <ele>1452</ele>
        <time>2018-12-02T12:42:56.000Z</time>
      </trkpt>
      <trkpt lat="42.90643" lon="0.83322">
        <ele>1452</ele>
        <time>2018-12-02T12:42:58.000Z</time>
      </trkpt>
      <trkpt lat="42.90643" lon="0.83322">
        <ele>1452</ele>
        <time>2018-12-02T12:43:00.000Z</time>
      </trkpt>
      <trkpt lat="42.90643" lon="0.83322">
        <ele>1452</ele>
        <time>2018-12-02T12:43:02.000Z</time>
      </trkpt>
      <trkpt lat="42.90643" lon="0.83322">
        <ele>1452</ele>
        <time>2018-12-02T12:43:05.000Z</time>
      </trkpt>
      <trkpt lat="42.90643" lon="0.83322">
        <ele>1452</ele>
        <time>2018-12-02T12:43:07.000Z</time>
      </trkpt>
      <trkpt lat="42.90643" lon="0.83322">
        <ele>1452</ele>
        <time>2018-12-02T12:43:09.000Z</time>
      </trkpt>
      <trkpt lat="42.90643" lon="0.83322">
        <ele>1452</ele>
        <time>2018-12-02T12:43:11.000Z</time>
      </trkpt>
      <trkpt lat="42.90643" lon="0.83322">
        <ele>1452</ele>
        <time>2018-12-02T12:43:13.000Z</time>
      </trkpt>
      <trkpt lat="42.90643" lon="0.83323">
        <ele>1452</ele>
        <time>2018-12-02T12:43:15.000Z</time>
      </trkpt>
      <trkpt lat="42.90643" lon="0.83323">
        <ele>1452</ele>
        <time>2018-12-02T12:43:17.000Z</time>
      </trkpt>
      <trkpt lat="42.90643" lon="0.83323">
        <ele>1452</ele>
        <time>2018-12-02T12:43:19.000Z</time>
      </trkpt>
      <trkpt lat="42.90643" lon="0.83323">
        <ele>1452</ele>
        <time>2018-12-02T12:43:21.000Z</time>
      </trkpt>
      <trkpt lat="42.90643" lon="0.83323">
        <ele>1452</ele>
        <time>2018-12-02T12:43:23.000Z</time>
      </trkpt>
      <trkpt lat="42.90643" lon="0.83323">
        <ele>1452</ele>
        <time>2018-12-02T12:43:25.000Z</time>
      </trkpt>
      <trkpt lat="42.90643" lon="0.83323">
        <ele>1452</ele>
        <time>2018-12-02T12:43:27.000Z</time>
      </trkpt>
      <trkpt lat="42.90643" lon="0.83323">
        <ele>1452</ele>
        <time>2018-12-02T12:43:29.000Z</time>
      </trkpt>
      <trkpt lat="42.90643" lon="0.83323">
        <ele>1452</ele>
        <time>2018-12-02T12:43:31.000Z</time>
      </trkpt>
      <trkpt lat="42.90643" lon="0.83323">
        <ele>1452</ele>
        <time>2018-12-02T12:43:33.000Z</time>
      </trkpt>
      <trkpt lat="42.90643" lon="0.83323">
        <ele>1452</ele>
        <time>2018-12-02T12:43:35.000Z</time>
      </trkpt>
      <trkpt lat="42.90643" lon="0.83323">
        <ele>1452</ele>
        <time>2018-12-02T12:43:37.000Z</time>
      </trkpt>
      <trkpt lat="42.90643" lon="0.83323">
        <ele>1452</ele>
        <time>2018-12-02T12:43:39.000Z</time>
      </trkpt>
      <trkpt lat="42.90643" lon="0.83323">
        <ele>1452</ele>
        <time>2018-12-02T12:43:41.000Z</time>
      </trkpt>
      <trkpt lat="42.90643" lon="0.83323">
        <ele>1452</ele>
        <time>2018-12-02T12:43:43.000Z</time>
      </trkpt>
      <trkpt lat="42.90643" lon="0.83323">
        <ele>1452</ele>
        <time>2018-12-02T12:43:45.000Z</time>
      </trkpt>
      <trkpt lat="42.90643" lon="0.83323">
        <ele>1452</ele>
        <time>2018-12-02T12:43:47.000Z</time>
      </trkpt>
      <trkpt lat="42.90643" lon="0.83323">
        <ele>1452</ele>
        <time>2018-12-02T12:43:49.000Z</time>
      </trkpt>
      <trkpt lat="42.90643" lon="0.83323">
        <ele>1452</ele>
        <time>2018-12-02T12:43:51.000Z</time>
      </trkpt>
      <trkpt lat="42.90643" lon="0.83323">
        <ele>1452</ele>
        <time>2018-12-02T12:43:53.000Z</time>
      </trkpt>
      <trkpt lat="42.90643" lon="0.83323">
        <ele>1452</ele>
        <time>2018-12-02T12:43:55.000Z</time>
      </trkpt>
      <trkpt lat="42.90643" lon="0.83323">
        <ele>1452</ele>
        <time>2018-12-02T12:43:57.000Z</time>
      </trkpt>
      <trkpt lat="42.90643" lon="0.83323">
        <ele>1452</ele>
        <time>2018-12-02T12:43:59.000Z</time>
      </trkpt>
      <trkpt lat="42.90643" lon="0.83323">
        <ele>1452</ele>
        <time>2018-12-02T12:44:01.000Z</time>
      </trkpt>
      <trkpt lat="42.90643" lon="0.83323">
        <ele>1452</ele>
        <time>2018-12-02T12:44:03.000Z</time>
      </trkpt>
      <trkpt lat="42.90643" lon="0.83323">
        <ele>1452</ele>
        <time>2018-12-02T12:44:05.000Z</time>
      </trkpt>
      <trkpt lat="42.90642" lon="0.83323">
        <ele>1452</ele>
        <time>2018-12-02T12:44:07.000Z</time>
      </trkpt>
      <trkpt lat="42.90642" lon="0.83323">
        <ele>1452</ele>
        <time>2018-12-02T12:44:09.000Z</time>
      </trkpt>
      <trkpt lat="42.90642" lon="0.83323">
        <ele>1452</ele>
        <time>2018-12-02T12:44:11.000Z</time>
      </trkpt>
      <trkpt lat="42.90642" lon="0.83323">
        <ele>1452</ele>
        <time>2018-12-02T12:44:13.000Z</time>
      </trkpt>
      <trkpt lat="42.90642" lon="0.83323">
        <ele>1452</ele>
        <time>2018-12-02T12:44:15.000Z</time>
      </trkpt>
      <trkpt lat="42.90642" lon="0.83324">
        <ele>1452</ele>
        <time>2018-12-02T12:44:17.000Z</time>
      </trkpt>
      <trkpt lat="42.90642" lon="0.83324">
        <ele>1452</ele>
        <time>2018-12-02T12:44:20.000Z</time>
      </trkpt>
      <trkpt lat="42.90642" lon="0.83324">
        <ele>1452</ele>
        <time>2018-12-02T12:44:22.000Z</time>
      </trkpt>
      <trkpt lat="42.90642" lon="0.83324">
        <ele>1452</ele>
        <time>2018-12-02T12:44:25.000Z</time>
      </trkpt>
      <trkpt lat="42.90642" lon="0.83325">
        <ele>1452</ele>
        <time>2018-12-02T12:44:27.000Z</time>
      </trkpt>
      <trkpt lat="42.90642" lon="0.83325">
        <ele>1452</ele>
        <time>2018-12-02T12:44:29.000Z</time>
      </trkpt>
      <trkpt lat="42.90642" lon="0.83325">
        <ele>1452</ele>
        <time>2018-12-02T12:44:32.000Z</time>
      </trkpt>
      <trkpt lat="42.90642" lon="0.83325">
        <ele>1452</ele>
        <time>2018-12-02T12:44:34.000Z</time>
      </trkpt>
      <trkpt lat="42.90642" lon="0.83325">
        <ele>1452</ele>
        <time>2018-12-02T12:44:36.000Z</time>
      </trkpt>
      <trkpt lat="42.90642" lon="0.83326">
        <ele>1451</ele>
        <time>2018-12-02T12:44:40.000Z</time>
      </trkpt>
      <trkpt lat="42.90643" lon="0.83326">
        <ele>1451</ele>
        <time>2018-12-02T12:44:42.000Z</time>
      </trkpt>
      <trkpt lat="42.90643" lon="0.83326">
        <ele>1451</ele>
        <time>2018-12-02T12:44:44.000Z</time>
      </trkpt>
      <trkpt lat="42.90642" lon="0.83327">
        <ele>1451</ele>
        <time>2018-12-02T12:44:46.000Z</time>
      </trkpt>
      <trkpt lat="42.90642" lon="0.83327">
        <ele>1451</ele>
        <time>2018-12-02T12:44:48.000Z</time>
      </trkpt>
      <trkpt lat="42.90642" lon="0.83327">
        <ele>1451</ele>
        <time>2018-12-02T12:44:51.000Z</time>
      </trkpt>
      <trkpt lat="42.90642" lon="0.83328">
        <ele>1451</ele>
        <time>2018-12-02T12:44:53.000Z</time>
      </trkpt>
      <trkpt lat="42.90642" lon="0.83329">
        <ele>1451</ele>
        <time>2018-12-02T12:44:56.000Z</time>
      </trkpt>
      <trkpt lat="42.90642" lon="0.83329">
        <ele>1451</ele>
        <time>2018-12-02T12:44:58.000Z</time>
      </trkpt>
      <trkpt lat="42.90642" lon="0.83329">
        <ele>1451</ele>
        <time>2018-12-02T12:45:00.000Z</time>
      </trkpt>
      <trkpt lat="42.90642" lon="0.8333">
        <ele>1451</ele>
        <time>2018-12-02T12:45:02.000Z</time>
      </trkpt>
      <trkpt lat="42.90642" lon="0.8333">
        <ele>1451</ele>
        <time>2018-12-02T12:45:04.000Z</time>
      </trkpt>
      <trkpt lat="42.90642" lon="0.8333">
        <ele>1451</ele>
        <time>2018-12-02T12:45:06.000Z</time>
      </trkpt>
      <trkpt lat="42.90642" lon="0.8333">
        <ele>1451</ele>
        <time>2018-12-02T12:45:08.000Z</time>
      </trkpt>
      <trkpt lat="42.90641" lon="0.83331">
        <ele>1451</ele>
        <time>2018-12-02T12:45:10.000Z</time>
      </trkpt>
      <trkpt lat="42.90642" lon="0.83331">
        <ele>1451</ele>
        <time>2018-12-02T12:45:13.000Z</time>
      </trkpt>
      <trkpt lat="42.90641" lon="0.83331">
        <ele>1451</ele>
        <time>2018-12-02T12:45:15.000Z</time>
      </trkpt>
      <trkpt lat="42.90641" lon="0.83332">
        <ele>1450</ele>
        <time>2018-12-02T12:45:17.000Z</time>
      </trkpt>
      <trkpt lat="42.90641" lon="0.83333">
        <ele>1450</ele>
        <time>2018-12-02T12:45:20.000Z</time>
      </trkpt>
      <trkpt lat="42.90641" lon="0.83333">
        <ele>1450</ele>
        <time>2018-12-02T12:45:22.000Z</time>
      </trkpt>
      <trkpt lat="42.90641" lon="0.83334">
        <ele>1450</ele>
        <time>2018-12-02T12:45:25.000Z</time>
      </trkpt>
      <trkpt lat="42.90641" lon="0.83334">
        <ele>1450</ele>
        <time>2018-12-02T12:45:27.000Z</time>
      </trkpt>
      <trkpt lat="42.90641" lon="0.83334">
        <ele>1450</ele>
        <time>2018-12-02T12:45:29.000Z</time>
      </trkpt>
      <trkpt lat="42.90641" lon="0.83335">
        <ele>1450</ele>
        <time>2018-12-02T12:45:31.000Z</time>
      </trkpt>
      <trkpt lat="42.90641" lon="0.83335">
        <ele>1450</ele>
        <time>2018-12-02T12:45:33.000Z</time>
      </trkpt>
      <trkpt lat="42.90641" lon="0.83335">
        <ele>1450</ele>
        <time>2018-12-02T12:45:35.000Z</time>
      </trkpt>
      <trkpt lat="42.90641" lon="0.83335">
        <ele>1450</ele>
        <time>2018-12-02T12:45:37.000Z</time>
      </trkpt>
      <trkpt lat="42.90641" lon="0.83336">
        <ele>1450</ele>
        <time>2018-12-02T12:45:39.000Z</time>
      </trkpt>
      <trkpt lat="42.90641" lon="0.83336">
        <ele>1450</ele>
        <time>2018-12-02T12:45:42.000Z</time>
      </trkpt>
      <trkpt lat="42.90641" lon="0.83336">
        <ele>1450</ele>
        <time>2018-12-02T12:45:44.000Z</time>
      </trkpt>
      <trkpt lat="42.90641" lon="0.83336">
        <ele>1450</ele>
        <time>2018-12-02T12:45:46.000Z</time>
      </trkpt>
      <trkpt lat="42.90641" lon="0.83337">
        <ele>1450</ele>
        <time>2018-12-02T12:45:48.000Z</time>
      </trkpt>
      <trkpt lat="42.90641" lon="0.83337">
        <ele>1450</ele>
        <time>2018-12-02T12:45:51.000Z</time>
      </trkpt>
      <trkpt lat="42.90641" lon="0.83337">
        <ele>1450</ele>
        <time>2018-12-02T12:45:54.000Z</time>
      </trkpt>
      <trkpt lat="42.90641" lon="0.83337">
        <ele>1450</ele>
        <time>2018-12-02T12:45:56.000Z</time>
      </trkpt>
      <trkpt lat="42.90641" lon="0.83337">
        <ele>1450</ele>
        <time>2018-12-02T12:45:58.000Z</time>
      </trkpt>
      <trkpt lat="42.90641" lon="0.83337">
        <ele>1450</ele>
        <time>2018-12-02T12:46:00.000Z</time>
      </trkpt>
      <trkpt lat="42.90641" lon="0.83337">
        <ele>1450</ele>
        <time>2018-12-02T12:46:02.000Z</time>
      </trkpt>
      <trkpt lat="42.90641" lon="0.83337">
        <ele>1450</ele>
        <time>2018-12-02T12:46:04.000Z</time>
      </trkpt>
      <trkpt lat="42.9064" lon="0.83337">
        <ele>1450</ele>
        <time>2018-12-02T12:46:06.000Z</time>
      </trkpt>
      <trkpt lat="42.9064" lon="0.83337">
        <ele>1450</ele>
        <time>2018-12-02T12:46:09.000Z</time>
      </trkpt>
      <trkpt lat="42.9064" lon="0.83336">
        <ele>1450</ele>
        <time>2018-12-02T12:46:11.000Z</time>
      </trkpt>
      <trkpt lat="42.9064" lon="0.83336">
        <ele>1450</ele>
        <time>2018-12-02T12:46:13.000Z</time>
      </trkpt>
      <trkpt lat="42.90639" lon="0.83336">
        <ele>1450</ele>
        <time>2018-12-02T12:46:15.000Z</time>
      </trkpt>
      <trkpt lat="42.9064" lon="0.83336">
        <ele>1450</ele>
        <time>2018-12-02T12:46:17.000Z</time>
      </trkpt>
      <trkpt lat="42.9064" lon="0.83336">
        <ele>1450</ele>
        <time>2018-12-02T12:46:19.000Z</time>
      </trkpt>
      <trkpt lat="42.9064" lon="0.83335">
        <ele>1450</ele>
        <time>2018-12-02T12:46:22.000Z</time>
      </trkpt>
      <trkpt lat="42.9064" lon="0.83335">
        <ele>1450</ele>
        <time>2018-12-02T12:46:24.000Z</time>
      </trkpt>
      <trkpt lat="42.9064" lon="0.83334">
        <ele>1450</ele>
        <time>2018-12-02T12:46:26.000Z</time>
      </trkpt>
      <trkpt lat="42.9064" lon="0.83334">
        <ele>1450</ele>
        <time>2018-12-02T12:46:28.000Z</time>
      </trkpt>
      <trkpt lat="42.9064" lon="0.83334">
        <ele>1450</ele>
        <time>2018-12-02T12:46:30.000Z</time>
      </trkpt>
      <trkpt lat="42.90641" lon="0.83333">
        <ele>1450</ele>
        <time>2018-12-02T12:46:32.000Z</time>
      </trkpt>
      <trkpt lat="42.90641" lon="0.83333">
        <ele>1450</ele>
        <time>2018-12-02T12:46:34.000Z</time>
      </trkpt>
      <trkpt lat="42.90641" lon="0.83333">
        <ele>1450</ele>
        <time>2018-12-02T12:46:36.000Z</time>
      </trkpt>
      <trkpt lat="42.90641" lon="0.83333">
        <ele>1450</ele>
        <time>2018-12-02T12:46:38.000Z</time>
      </trkpt>
      <trkpt lat="42.90641" lon="0.83333">
        <ele>1450</ele>
        <time>2018-12-02T12:46:40.000Z</time>
      </trkpt>
      <trkpt lat="42.90641" lon="0.83333">
        <ele>1450</ele>
        <time>2018-12-02T12:46:42.000Z</time>
      </trkpt>
      <trkpt lat="42.90641" lon="0.83333">
        <ele>1450</ele>
        <time>2018-12-02T12:46:44.000Z</time>
      </trkpt>
      <trkpt lat="42.90641" lon="0.83333">
        <ele>1450</ele>
        <time>2018-12-02T12:46:46.000Z</time>
      </trkpt>
      <trkpt lat="42.90641" lon="0.83333">
        <ele>1450</ele>
        <time>2018-12-02T12:46:48.000Z</time>
      </trkpt>
      <trkpt lat="42.90641" lon="0.83333">
        <ele>1450</ele>
        <time>2018-12-02T12:46:50.000Z</time>
      </trkpt>
      <trkpt lat="42.90641" lon="0.83333">
        <ele>1450</ele>
        <time>2018-12-02T12:46:52.000Z</time>
      </trkpt>
      <trkpt lat="42.90641" lon="0.83333">
        <ele>1450</ele>
        <time>2018-12-02T12:46:54.000Z</time>
      </trkpt>
      <trkpt lat="42.90641" lon="0.83333">
        <ele>1450</ele>
        <time>2018-12-02T12:46:56.000Z</time>
      </trkpt>
      <trkpt lat="42.90641" lon="0.83333">
        <ele>1450</ele>
        <time>2018-12-02T12:46:59.000Z</time>
      </trkpt>
      <trkpt lat="42.90641" lon="0.83333">
        <ele>1450</ele>
        <time>2018-12-02T12:47:01.000Z</time>
      </trkpt>
      <trkpt lat="42.90641" lon="0.83333">
        <ele>1450</ele>
        <time>2018-12-02T12:47:03.000Z</time>
      </trkpt>
      <trkpt lat="42.90641" lon="0.83334">
        <ele>1450</ele>
        <time>2018-12-02T12:47:06.000Z</time>
      </trkpt>
      <trkpt lat="42.90641" lon="0.83334">
        <ele>1450</ele>
        <time>2018-12-02T12:47:08.000Z</time>
      </trkpt>
      <trkpt lat="42.90641" lon="0.83334">
        <ele>1450</ele>
        <time>2018-12-02T12:47:11.000Z</time>
      </trkpt>
      <trkpt lat="42.90641" lon="0.83334">
        <ele>1450</ele>
        <time>2018-12-02T12:47:13.000Z</time>
      </trkpt>
      <trkpt lat="42.90642" lon="0.83334">
        <ele>1450</ele>
        <time>2018-12-02T12:47:16.000Z</time>
      </trkpt>
      <trkpt lat="42.90647" lon="0.83324">
        <ele>1451</ele>
        <time>2018-12-02T12:47:19.000Z</time>
      </trkpt>
      <trkpt lat="42.90649" lon="0.83321">
        <ele>1451</ele>
        <time>2018-12-02T12:47:22.000Z</time>
      </trkpt>
      <trkpt lat="42.9065" lon="0.83319">
        <ele>1451</ele>
        <time>2018-12-02T12:47:24.000Z</time>
      </trkpt>
      <trkpt lat="42.90652" lon="0.83318">
        <ele>1451</ele>
        <time>2018-12-02T12:47:27.000Z</time>
      </trkpt>
      <trkpt lat="42.90652" lon="0.83318">
        <ele>1451</ele>
        <time>2018-12-02T12:47:29.000Z</time>
      </trkpt>
      <trkpt lat="42.90652" lon="0.83318">
        <ele>1451</ele>
        <time>2018-12-02T12:47:31.000Z</time>
      </trkpt>
      <trkpt lat="42.90651" lon="0.83319">
        <ele>1451</ele>
        <time>2018-12-02T12:47:34.000Z</time>
      </trkpt>
      <trkpt lat="42.9065" lon="0.8332">
        <ele>1451</ele>
        <time>2018-12-02T12:47:36.000Z</time>
      </trkpt>
      <trkpt lat="42.90648" lon="0.8332">
        <ele>1451</ele>
        <time>2018-12-02T12:47:38.000Z</time>
      </trkpt>
      <trkpt lat="42.90647" lon="0.83321">
        <ele>1451</ele>
        <time>2018-12-02T12:47:40.000Z</time>
      </trkpt>
      <trkpt lat="42.90646" lon="0.83322">
        <ele>1452</ele>
        <time>2018-12-02T12:47:42.000Z</time>
      </trkpt>
      <trkpt lat="42.90644" lon="0.83321">
        <ele>1452</ele>
        <time>2018-12-02T12:47:44.000Z</time>
      </trkpt>
      <trkpt lat="42.90643" lon="0.83321">
        <ele>1452</ele>
        <time>2018-12-02T12:47:46.000Z</time>
      </trkpt>
      <trkpt lat="42.90642" lon="0.83321">
        <ele>1452</ele>
        <time>2018-12-02T12:47:48.000Z</time>
      </trkpt>
      <trkpt lat="42.90641" lon="0.83322">
        <ele>1453</ele>
        <time>2018-12-02T12:47:50.000Z</time>
      </trkpt>
      <trkpt lat="42.9064" lon="0.83323">
        <ele>1453</ele>
        <time>2018-12-02T12:47:52.000Z</time>
      </trkpt>
      <trkpt lat="42.90638" lon="0.83325">
        <ele>1453</ele>
        <time>2018-12-02T12:47:54.000Z</time>
      </trkpt>
      <trkpt lat="42.90636" lon="0.83326">
        <ele>1453</ele>
        <time>2018-12-02T12:47:56.000Z</time>
      </trkpt>
      <trkpt lat="42.90634" lon="0.83328">
        <ele>1453</ele>
        <time>2018-12-02T12:47:59.000Z</time>
      </trkpt>
      <trkpt lat="42.90632" lon="0.83329">
        <ele>1453</ele>
        <time>2018-12-02T12:48:02.000Z</time>
      </trkpt>
      <trkpt lat="42.9063" lon="0.83332">
        <ele>1453</ele>
        <time>2018-12-02T12:48:04.000Z</time>
      </trkpt>
      <trkpt lat="42.90629" lon="0.83333">
        <ele>1453</ele>
        <time>2018-12-02T12:48:08.000Z</time>
      </trkpt>
      <trkpt lat="42.90628" lon="0.83334">
        <ele>1453</ele>
        <time>2018-12-02T12:48:11.000Z</time>
      </trkpt>
      <trkpt lat="42.90627" lon="0.83336">
        <ele>1453</ele>
        <time>2018-12-02T12:48:14.000Z</time>
      </trkpt>
      <trkpt lat="42.90626" lon="0.83336">
        <ele>1453</ele>
        <time>2018-12-02T12:48:16.000Z</time>
      </trkpt>
      <trkpt lat="42.90625" lon="0.83337">
        <ele>1453</ele>
        <time>2018-12-02T12:48:18.000Z</time>
      </trkpt>
      <trkpt lat="42.90623" lon="0.83338">
        <ele>1453</ele>
        <time>2018-12-02T12:48:22.000Z</time>
      </trkpt>
      <trkpt lat="42.90623" lon="0.83338">
        <ele>1453</ele>
        <time>2018-12-02T12:48:25.000Z</time>
      </trkpt>
      <trkpt lat="42.90622" lon="0.83339">
        <ele>1453</ele>
        <time>2018-12-02T12:48:27.000Z</time>
      </trkpt>
      <trkpt lat="42.90622" lon="0.8334">
        <ele>1453</ele>
        <time>2018-12-02T12:48:30.000Z</time>
      </trkpt>
      <trkpt lat="42.90621" lon="0.83341">
        <ele>1453</ele>
        <time>2018-12-02T12:48:33.000Z</time>
      </trkpt>
      <trkpt lat="42.9062" lon="0.83342">
        <ele>1453</ele>
        <time>2018-12-02T12:48:35.000Z</time>
      </trkpt>
      <trkpt lat="42.90619" lon="0.83344">
        <ele>1453</ele>
        <time>2018-12-02T12:48:38.000Z</time>
      </trkpt>
      <trkpt lat="42.90618" lon="0.83345">
        <ele>1453</ele>
        <time>2018-12-02T12:48:41.000Z</time>
      </trkpt>
      <trkpt lat="42.90617" lon="0.83346">
        <ele>1453</ele>
        <time>2018-12-02T12:48:43.000Z</time>
      </trkpt>
      <trkpt lat="42.90616" lon="0.83347">
        <ele>1452</ele>
        <time>2018-12-02T12:48:45.000Z</time>
      </trkpt>
      <trkpt lat="42.90616" lon="0.83348">
        <ele>1452</ele>
        <time>2018-12-02T12:48:47.000Z</time>
      </trkpt>
      <trkpt lat="42.90615" lon="0.83351">
        <ele>1452</ele>
        <time>2018-12-02T12:48:50.000Z</time>
      </trkpt>
      <trkpt lat="42.90613" lon="0.83354">
        <ele>1452</ele>
        <time>2018-12-02T12:48:53.000Z</time>
      </trkpt>
      <trkpt lat="42.90611" lon="0.83356">
        <ele>1452</ele>
        <time>2018-12-02T12:48:56.000Z</time>
      </trkpt>
      <trkpt lat="42.90609" lon="0.83358">
        <ele>1452</ele>
        <time>2018-12-02T12:48:59.000Z</time>
      </trkpt>
      <trkpt lat="42.90608" lon="0.83359">
        <ele>1452</ele>
        <time>2018-12-02T12:49:01.000Z</time>
      </trkpt>
      <trkpt lat="42.90607" lon="0.83361">
        <ele>1451</ele>
        <time>2018-12-02T12:49:03.000Z</time>
      </trkpt>
      <trkpt lat="42.90606" lon="0.83362">
        <ele>1451</ele>
        <time>2018-12-02T12:49:05.000Z</time>
      </trkpt>
      <trkpt lat="42.90605" lon="0.83363">
        <ele>1451</ele>
        <time>2018-12-02T12:49:07.000Z</time>
      </trkpt>
      <trkpt lat="42.90604" lon="0.83364">
        <ele>1451</ele>
        <time>2018-12-02T12:49:09.000Z</time>
      </trkpt>
      <trkpt lat="42.90603" lon="0.83365">
        <ele>1451</ele>
        <time>2018-12-02T12:49:11.000Z</time>
      </trkpt>
      <trkpt lat="42.90602" lon="0.83366">
        <ele>1451</ele>
        <time>2018-12-02T12:49:13.000Z</time>
      </trkpt>
      <trkpt lat="42.90602" lon="0.83368">
        <ele>1451</ele>
        <time>2018-12-02T12:49:15.000Z</time>
      </trkpt>
      <trkpt lat="42.90601" lon="0.8337">
        <ele>1451</ele>
        <time>2018-12-02T12:49:17.000Z</time>
      </trkpt>
      <trkpt lat="42.90598" lon="0.83372">
        <ele>1451</ele>
        <time>2018-12-02T12:49:19.000Z</time>
      </trkpt>
      <trkpt lat="42.90596" lon="0.83374">
        <ele>1451</ele>
        <time>2018-12-02T12:49:21.000Z</time>
      </trkpt>
      <trkpt lat="42.90594" lon="0.83376">
        <ele>1451</ele>
        <time>2018-12-02T12:49:23.000Z</time>
      </trkpt>
      <trkpt lat="42.90592" lon="0.83378">
        <ele>1451</ele>
        <time>2018-12-02T12:49:25.000Z</time>
      </trkpt>
      <trkpt lat="42.90591" lon="0.8338">
        <ele>1451</ele>
        <time>2018-12-02T12:49:27.000Z</time>
      </trkpt>
      <trkpt lat="42.90587" lon="0.83383">
        <ele>1451</ele>
        <time>2018-12-02T12:49:30.000Z</time>
      </trkpt>
      <trkpt lat="42.90587" lon="0.83384">
        <ele>1451</ele>
        <time>2018-12-02T12:49:32.000Z</time>
      </trkpt>
      <trkpt lat="42.90583" lon="0.83386">
        <ele>1451</ele>
        <time>2018-12-02T12:49:36.000Z</time>
      </trkpt>
      <trkpt lat="42.90582" lon="0.83387">
        <ele>1451</ele>
        <time>2018-12-02T12:49:38.000Z</time>
      </trkpt>
      <trkpt lat="42.90581" lon="0.83388">
        <ele>1451</ele>
        <time>2018-12-02T12:49:40.000Z</time>
      </trkpt>
      <trkpt lat="42.90579" lon="0.83389">
        <ele>1451</ele>
        <time>2018-12-02T12:49:42.000Z</time>
      </trkpt>
      <trkpt lat="42.90578" lon="0.8339">
        <ele>1451</ele>
        <time>2018-12-02T12:49:44.000Z</time>
      </trkpt>
      <trkpt lat="42.90577" lon="0.83391">
        <ele>1451</ele>
        <time>2018-12-02T12:49:46.000Z</time>
      </trkpt>
      <trkpt lat="42.90575" lon="0.83392">
        <ele>1451</ele>
        <time>2018-12-02T12:49:48.000Z</time>
      </trkpt>
      <trkpt lat="42.90574" lon="0.83392">
        <ele>1451</ele>
        <time>2018-12-02T12:49:50.000Z</time>
      </trkpt>
      <trkpt lat="42.90573" lon="0.83393">
        <ele>1451</ele>
        <time>2018-12-02T12:49:52.000Z</time>
      </trkpt>
      <trkpt lat="42.9057" lon="0.83394">
        <ele>1452</ele>
        <time>2018-12-02T12:49:55.000Z</time>
      </trkpt>
      <trkpt lat="42.90569" lon="0.83395">
        <ele>1452</ele>
        <time>2018-12-02T12:49:57.000Z</time>
      </trkpt>
      <trkpt lat="42.90568" lon="0.83395">
        <ele>1452</ele>
        <time>2018-12-02T12:49:59.000Z</time>
      </trkpt>
      <trkpt lat="42.90567" lon="0.83396">
        <ele>1452</ele>
        <time>2018-12-02T12:50:01.000Z</time>
      </trkpt>
      <trkpt lat="42.90566" lon="0.83397">
        <ele>1452</ele>
        <time>2018-12-02T12:50:03.000Z</time>
      </trkpt>
      <trkpt lat="42.90565" lon="0.83397">
        <ele>1452</ele>
        <time>2018-12-02T12:50:05.000Z</time>
      </trkpt>
      <trkpt lat="42.90564" lon="0.83397">
        <ele>1452</ele>
        <time>2018-12-02T12:50:07.000Z</time>
      </trkpt>
      <trkpt lat="42.90562" lon="0.83398">
        <ele>1452</ele>
        <time>2018-12-02T12:50:09.000Z</time>
      </trkpt>
      <trkpt lat="42.90561" lon="0.83399">
        <ele>1452</ele>
        <time>2018-12-02T12:50:12.000Z</time>
      </trkpt>
      <trkpt lat="42.9056" lon="0.834">
        <ele>1452</ele>
        <time>2018-12-02T12:50:14.000Z</time>
      </trkpt>
      <trkpt lat="42.90559" lon="0.83401">
        <ele>1452</ele>
        <time>2018-12-02T12:50:16.000Z</time>
      </trkpt>
      <trkpt lat="42.90558" lon="0.83401">
        <ele>1452</ele>
        <time>2018-12-02T12:50:18.000Z</time>
      </trkpt>
      <trkpt lat="42.90556" lon="0.83402">
        <ele>1452</ele>
        <time>2018-12-02T12:50:20.000Z</time>
      </trkpt>
      <trkpt lat="42.90554" lon="0.83404">
        <ele>1452</ele>
        <time>2018-12-02T12:50:22.000Z</time>
      </trkpt>
      <trkpt lat="42.90551" lon="0.83405">
        <ele>1452</ele>
        <time>2018-12-02T12:50:24.000Z</time>
      </trkpt>
      <trkpt lat="42.90547" lon="0.83407">
        <ele>1452</ele>
        <time>2018-12-02T12:50:27.000Z</time>
      </trkpt>
      <trkpt lat="42.90545" lon="0.83408">
        <ele>1452</ele>
        <time>2018-12-02T12:50:29.000Z</time>
      </trkpt>
      <trkpt lat="42.90542" lon="0.8341">
        <ele>1452</ele>
        <time>2018-12-02T12:50:32.000Z</time>
      </trkpt>
      <trkpt lat="42.9054" lon="0.83412">
        <ele>1452</ele>
        <time>2018-12-02T12:50:34.000Z</time>
      </trkpt>
      <trkpt lat="42.90538" lon="0.83414">
        <ele>1452</ele>
        <time>2018-12-02T12:50:36.000Z</time>
      </trkpt>
      <trkpt lat="42.90537" lon="0.83415">
        <ele>1452</ele>
        <time>2018-12-02T12:50:38.000Z</time>
      </trkpt>
      <trkpt lat="42.90534" lon="0.83418">
        <ele>1452</ele>
        <time>2018-12-02T12:50:41.000Z</time>
      </trkpt>
      <trkpt lat="42.90532" lon="0.83419">
        <ele>1452</ele>
        <time>2018-12-02T12:50:43.000Z</time>
      </trkpt>
      <trkpt lat="42.90529" lon="0.8342">
        <ele>1453</ele>
        <time>2018-12-02T12:50:46.000Z</time>
      </trkpt>
      <trkpt lat="42.90527" lon="0.8342">
        <ele>1453</ele>
        <time>2018-12-02T12:50:48.000Z</time>
      </trkpt>
      <trkpt lat="42.90525" lon="0.8342">
        <ele>1453</ele>
        <time>2018-12-02T12:50:50.000Z</time>
      </trkpt>
      <trkpt lat="42.90522" lon="0.83422">
        <ele>1454</ele>
        <time>2018-12-02T12:50:53.000Z</time>
      </trkpt>
      <trkpt lat="42.9052" lon="0.83424">
        <ele>1454</ele>
        <time>2018-12-02T12:50:55.000Z</time>
      </trkpt>
      <trkpt lat="42.90518" lon="0.83424">
        <ele>1454</ele>
        <time>2018-12-02T12:50:57.000Z</time>
      </trkpt>
      <trkpt lat="42.90516" lon="0.83426">
        <ele>1454</ele>
        <time>2018-12-02T12:50:59.000Z</time>
      </trkpt>
      <trkpt lat="42.90515" lon="0.83427">
        <ele>1454</ele>
        <time>2018-12-02T12:51:01.000Z</time>
      </trkpt>
      <trkpt lat="42.90513" lon="0.83428">
        <ele>1454</ele>
        <time>2018-12-02T12:51:03.000Z</time>
      </trkpt>
      <trkpt lat="42.90512" lon="0.83429">
        <ele>1454</ele>
        <time>2018-12-02T12:51:05.000Z</time>
      </trkpt>
      <trkpt lat="42.9051" lon="0.83431">
        <ele>1454</ele>
        <time>2018-12-02T12:51:08.000Z</time>
      </trkpt>
      <trkpt lat="42.90509" lon="0.83432">
        <ele>1454</ele>
        <time>2018-12-02T12:51:10.000Z</time>
      </trkpt>
      <trkpt lat="42.90508" lon="0.83433">
        <ele>1454</ele>
        <time>2018-12-02T12:51:12.000Z</time>
      </trkpt>
      <trkpt lat="42.90506" lon="0.83435">
        <ele>1454</ele>
        <time>2018-12-02T12:51:14.000Z</time>
      </trkpt>
      <trkpt lat="42.90505" lon="0.83436">
        <ele>1454</ele>
        <time>2018-12-02T12:51:16.000Z</time>
      </trkpt>
      <trkpt lat="42.90504" lon="0.83437">
        <ele>1453</ele>
        <time>2018-12-02T12:51:18.000Z</time>
      </trkpt>
      <trkpt lat="42.90503" lon="0.83438">
        <ele>1453</ele>
        <time>2018-12-02T12:51:20.000Z</time>
      </trkpt>
      <trkpt lat="42.90502" lon="0.83439">
        <ele>1453</ele>
        <time>2018-12-02T12:51:22.000Z</time>
      </trkpt>
      <trkpt lat="42.905" lon="0.8344">
        <ele>1453</ele>
        <time>2018-12-02T12:51:25.000Z</time>
      </trkpt>
      <trkpt lat="42.90499" lon="0.8344">
        <ele>1453</ele>
        <time>2018-12-02T12:51:27.000Z</time>
      </trkpt>
      <trkpt lat="42.90498" lon="0.8344">
        <ele>1453</ele>
        <time>2018-12-02T12:51:29.000Z</time>
      </trkpt>
      <trkpt lat="42.90497" lon="0.8344">
        <ele>1453</ele>
        <time>2018-12-02T12:51:31.000Z</time>
      </trkpt>
      <trkpt lat="42.90495" lon="0.83441">
        <ele>1453</ele>
        <time>2018-12-02T12:51:33.000Z</time>
      </trkpt>
      <trkpt lat="42.90493" lon="0.83441">
        <ele>1453</ele>
        <time>2018-12-02T12:51:35.000Z</time>
      </trkpt>
      <trkpt lat="42.90492" lon="0.83441">
        <ele>1453</ele>
        <time>2018-12-02T12:51:37.000Z</time>
      </trkpt>
      <trkpt lat="42.9049" lon="0.83441">
        <ele>1453</ele>
        <time>2018-12-02T12:51:40.000Z</time>
      </trkpt>
      <trkpt lat="42.90488" lon="0.83443">
        <ele>1453</ele>
        <time>2018-12-02T12:51:42.000Z</time>
      </trkpt>
      <trkpt lat="42.90486" lon="0.83443">
        <ele>1453</ele>
        <time>2018-12-02T12:51:44.000Z</time>
      </trkpt>
      <trkpt lat="42.90485" lon="0.83443">
        <ele>1453</ele>
        <time>2018-12-02T12:51:46.000Z</time>
      </trkpt>
      <trkpt lat="42.90484" lon="0.83441">
        <ele>1454</ele>
        <time>2018-12-02T12:51:48.000Z</time>
      </trkpt>
      <trkpt lat="42.90483" lon="0.83441">
        <ele>1454</ele>
        <time>2018-12-02T12:51:51.000Z</time>
      </trkpt>
      <trkpt lat="42.90481" lon="0.83442">
        <ele>1454</ele>
        <time>2018-12-02T12:51:53.000Z</time>
      </trkpt>
      <trkpt lat="42.9048" lon="0.83441">
        <ele>1454</ele>
        <time>2018-12-02T12:51:55.000Z</time>
      </trkpt>
      <trkpt lat="42.90478" lon="0.83441">
        <ele>1454</ele>
        <time>2018-12-02T12:51:57.000Z</time>
      </trkpt>
      <trkpt lat="42.90478" lon="0.8344">
        <ele>1454</ele>
        <time>2018-12-02T12:51:59.000Z</time>
      </trkpt>
      <trkpt lat="42.90476" lon="0.8344">
        <ele>1454</ele>
        <time>2018-12-02T12:52:01.000Z</time>
      </trkpt>
      <trkpt lat="42.90474" lon="0.83441">
        <ele>1454</ele>
        <time>2018-12-02T12:52:04.000Z</time>
      </trkpt>
      <trkpt lat="42.90473" lon="0.83439">
        <ele>1455</ele>
        <time>2018-12-02T12:52:06.000Z</time>
      </trkpt>
      <trkpt lat="42.90472" lon="0.83439">
        <ele>1455</ele>
        <time>2018-12-02T12:52:08.000Z</time>
      </trkpt>
      <trkpt lat="42.90469" lon="0.8344">
        <ele>1456</ele>
        <time>2018-12-02T12:52:10.000Z</time>
      </trkpt>
      <trkpt lat="42.90467" lon="0.83441">
        <ele>1456</ele>
        <time>2018-12-02T12:52:12.000Z</time>
      </trkpt>
      <trkpt lat="42.90466" lon="0.83442">
        <ele>1456</ele>
        <time>2018-12-02T12:52:14.000Z</time>
      </trkpt>
      <trkpt lat="42.90465" lon="0.83441">
        <ele>1456</ele>
        <time>2018-12-02T12:52:17.000Z</time>
      </trkpt>
      <trkpt lat="42.90464" lon="0.83441">
        <ele>1456</ele>
        <time>2018-12-02T12:52:19.000Z</time>
      </trkpt>
      <trkpt lat="42.90461" lon="0.83442">
        <ele>1457</ele>
        <time>2018-12-02T12:52:21.000Z</time>
      </trkpt>
      <trkpt lat="42.90459" lon="0.83443">
        <ele>1457</ele>
        <time>2018-12-02T12:52:23.000Z</time>
      </trkpt>
      <trkpt lat="42.90458" lon="0.83445">
        <ele>1457</ele>
        <time>2018-12-02T12:52:25.000Z</time>
      </trkpt>
      <trkpt lat="42.90456" lon="0.83446">
        <ele>1457</ele>
        <time>2018-12-02T12:52:27.000Z</time>
      </trkpt>
      <trkpt lat="42.90455" lon="0.83447">
        <ele>1458</ele>
        <time>2018-12-02T12:52:29.000Z</time>
      </trkpt>
      <trkpt lat="42.90455" lon="0.83447">
        <ele>1458</ele>
        <time>2018-12-02T12:52:31.000Z</time>
      </trkpt>
      <trkpt lat="42.90454" lon="0.83447">
        <ele>1458</ele>
        <time>2018-12-02T12:52:33.000Z</time>
      </trkpt>
      <trkpt lat="42.90453" lon="0.83449">
        <ele>1458</ele>
        <time>2018-12-02T12:52:35.000Z</time>
      </trkpt>
      <trkpt lat="42.90451" lon="0.8345">
        <ele>1458</ele>
        <time>2018-12-02T12:52:37.000Z</time>
      </trkpt>
      <trkpt lat="42.90451" lon="0.83448">
        <ele>1458</ele>
        <time>2018-12-02T12:52:39.000Z</time>
      </trkpt>
      <trkpt lat="42.90451" lon="0.83448">
        <ele>1458</ele>
        <time>2018-12-02T12:52:41.000Z</time>
      </trkpt>
      <trkpt lat="42.9045" lon="0.83448">
        <ele>1458</ele>
        <time>2018-12-02T12:52:43.000Z</time>
      </trkpt>
      <trkpt lat="42.9045" lon="0.83449">
        <ele>1458</ele>
        <time>2018-12-02T12:52:45.000Z</time>
      </trkpt>
      <trkpt lat="42.90449" lon="0.83449">
        <ele>1459</ele>
        <time>2018-12-02T12:52:47.000Z</time>
      </trkpt>
      <trkpt lat="42.90448" lon="0.83449">
        <ele>1459</ele>
        <time>2018-12-02T12:52:49.000Z</time>
      </trkpt>
      <trkpt lat="42.90447" lon="0.83448">
        <ele>1459</ele>
        <time>2018-12-02T12:52:51.000Z</time>
      </trkpt>
      <trkpt lat="42.90447" lon="0.83448">
        <ele>1459</ele>
        <time>2018-12-02T12:52:53.000Z</time>
      </trkpt>
      <trkpt lat="42.90447" lon="0.83448">
        <ele>1459</ele>
        <time>2018-12-02T12:52:55.000Z</time>
      </trkpt>
      <trkpt lat="42.90445" lon="0.83449">
        <ele>1459</ele>
        <time>2018-12-02T12:52:57.000Z</time>
      </trkpt>
      <trkpt lat="42.90444" lon="0.83449">
        <ele>1460</ele>
        <time>2018-12-02T12:52:59.000Z</time>
      </trkpt>
      <trkpt lat="42.90443" lon="0.83449">
        <ele>1460</ele>
        <time>2018-12-02T12:53:01.000Z</time>
      </trkpt>
      <trkpt lat="42.9044" lon="0.83449">
        <ele>1460</ele>
        <time>2018-12-02T12:53:03.000Z</time>
      </trkpt>
      <trkpt lat="42.90439" lon="0.83449">
        <ele>1461</ele>
        <time>2018-12-02T12:53:05.000Z</time>
      </trkpt>
      <trkpt lat="42.90437" lon="0.8345">
        <ele>1461</ele>
        <time>2018-12-02T12:53:07.000Z</time>
      </trkpt>
      <trkpt lat="42.90435" lon="0.8345">
        <ele>1461</ele>
        <time>2018-12-02T12:53:09.000Z</time>
      </trkpt>
      <trkpt lat="42.90433" lon="0.8345">
        <ele>1462</ele>
        <time>2018-12-02T12:53:11.000Z</time>
      </trkpt>
      <trkpt lat="42.90432" lon="0.8345">
        <ele>1462</ele>
        <time>2018-12-02T12:53:13.000Z</time>
      </trkpt>
      <trkpt lat="42.90431" lon="0.83449">
        <ele>1462</ele>
        <time>2018-12-02T12:53:15.000Z</time>
      </trkpt>
      <trkpt lat="42.9043" lon="0.83449">
        <ele>1462</ele>
        <time>2018-12-02T12:53:17.000Z</time>
      </trkpt>
      <trkpt lat="42.90428" lon="0.8345">
        <ele>1463</ele>
        <time>2018-12-02T12:53:20.000Z</time>
      </trkpt>
      <trkpt lat="42.90426" lon="0.8345">
        <ele>1463</ele>
        <time>2018-12-02T12:53:22.000Z</time>
      </trkpt>
      <trkpt lat="42.90423" lon="0.8345">
        <ele>1464</ele>
        <time>2018-12-02T12:53:24.000Z</time>
      </trkpt>
      <trkpt lat="42.90422" lon="0.83451">
        <ele>1464</ele>
        <time>2018-12-02T12:53:26.000Z</time>
      </trkpt>
      <trkpt lat="42.90419" lon="0.83452">
        <ele>1465</ele>
        <time>2018-12-02T12:53:28.000Z</time>
      </trkpt>
      <trkpt lat="42.90417" lon="0.8345">
        <ele>1465</ele>
        <time>2018-12-02T12:53:30.000Z</time>
      </trkpt>
      <trkpt lat="42.90416" lon="0.83448">
        <ele>1466</ele>
        <time>2018-12-02T12:53:32.000Z</time>
      </trkpt>
      <trkpt lat="42.90414" lon="0.83448">
        <ele>1466</ele>
        <time>2018-12-02T12:53:34.000Z</time>
      </trkpt>
      <trkpt lat="42.90413" lon="0.83447">
        <ele>1467</ele>
        <time>2018-12-02T12:53:36.000Z</time>
      </trkpt>
      <trkpt lat="42.90411" lon="0.83446">
        <ele>1467</ele>
        <time>2018-12-02T12:53:38.000Z</time>
      </trkpt>
      <trkpt lat="42.90409" lon="0.83446">
        <ele>1468</ele>
        <time>2018-12-02T12:53:40.000Z</time>
      </trkpt>
      <trkpt lat="42.90407" lon="0.83446">
        <ele>1469</ele>
        <time>2018-12-02T12:53:42.000Z</time>
      </trkpt>
      <trkpt lat="42.90405" lon="0.83444">
        <ele>1469</ele>
        <time>2018-12-02T12:53:44.000Z</time>
      </trkpt>
      <trkpt lat="42.90404" lon="0.83442">
        <ele>1470</ele>
        <time>2018-12-02T12:53:46.000Z</time>
      </trkpt>
      <trkpt lat="42.90402" lon="0.83442">
        <ele>1470</ele>
        <time>2018-12-02T12:53:48.000Z</time>
      </trkpt>
      <trkpt lat="42.904" lon="0.83442">
        <ele>1471</ele>
        <time>2018-12-02T12:53:50.000Z</time>
      </trkpt>
      <trkpt lat="42.90399" lon="0.83443">
        <ele>1471</ele>
        <time>2018-12-02T12:53:52.000Z</time>
      </trkpt>
      <trkpt lat="42.90398" lon="0.83443">
        <ele>1471</ele>
        <time>2018-12-02T12:53:54.000Z</time>
      </trkpt>
      <trkpt lat="42.90396" lon="0.83444">
        <ele>1472</ele>
        <time>2018-12-02T12:53:56.000Z</time>
      </trkpt>
      <trkpt lat="42.90394" lon="0.83444">
        <ele>1472</ele>
        <time>2018-12-02T12:53:58.000Z</time>
      </trkpt>
      <trkpt lat="42.90392" lon="0.83445">
        <ele>1473</ele>
        <time>2018-12-02T12:54:00.000Z</time>
      </trkpt>
      <trkpt lat="42.9039" lon="0.83446">
        <ele>1474</ele>
        <time>2018-12-02T12:54:02.000Z</time>
      </trkpt>
      <trkpt lat="42.90388" lon="0.83446">
        <ele>1475</ele>
        <time>2018-12-02T12:54:05.000Z</time>
      </trkpt>
      <trkpt lat="42.90387" lon="0.83445">
        <ele>1475</ele>
        <time>2018-12-02T12:54:07.000Z</time>
      </trkpt>
      <trkpt lat="42.90387" lon="0.83445">
        <ele>1475</ele>
        <time>2018-12-02T12:54:09.000Z</time>
      </trkpt>
      <trkpt lat="42.90386" lon="0.83446">
        <ele>1475</ele>
        <time>2018-12-02T12:54:11.000Z</time>
      </trkpt>
      <trkpt lat="42.90386" lon="0.83445">
        <ele>1475</ele>
        <time>2018-12-02T12:54:13.000Z</time>
      </trkpt>
      <trkpt lat="42.90385" lon="0.83446">
        <ele>1476</ele>
        <time>2018-12-02T12:54:15.000Z</time>
      </trkpt>
      <trkpt lat="42.90384" lon="0.83448">
        <ele>1476</ele>
        <time>2018-12-02T12:54:17.000Z</time>
      </trkpt>
      <trkpt lat="42.90384" lon="0.83449">
        <ele>1476</ele>
        <time>2018-12-02T12:54:19.000Z</time>
      </trkpt>
      <trkpt lat="42.90383" lon="0.83449">
        <ele>1476</ele>
        <time>2018-12-02T12:54:21.000Z</time>
      </trkpt>
      <trkpt lat="42.90383" lon="0.83451">
        <ele>1476</ele>
        <time>2018-12-02T12:54:23.000Z</time>
      </trkpt>
      <trkpt lat="42.90383" lon="0.83453">
        <ele>1476</ele>
        <time>2018-12-02T12:54:26.000Z</time>
      </trkpt>
      <trkpt lat="42.90383" lon="0.83454">
        <ele>1476</ele>
        <time>2018-12-02T12:54:28.000Z</time>
      </trkpt>
      <trkpt lat="42.90383" lon="0.83455">
        <ele>1476</ele>
        <time>2018-12-02T12:54:30.000Z</time>
      </trkpt>
      <trkpt lat="42.90383" lon="0.83457">
        <ele>1476</ele>
        <time>2018-12-02T12:54:32.000Z</time>
      </trkpt>
      <trkpt lat="42.90384" lon="0.83459">
        <ele>1476</ele>
        <time>2018-12-02T12:54:34.000Z</time>
      </trkpt>
      <trkpt lat="42.90384" lon="0.83461">
        <ele>1476</ele>
        <time>2018-12-02T12:54:36.000Z</time>
      </trkpt>
      <trkpt lat="42.90384" lon="0.83463">
        <ele>1476</ele>
        <time>2018-12-02T12:54:38.000Z</time>
      </trkpt>
      <trkpt lat="42.90384" lon="0.83465">
        <ele>1476</ele>
        <time>2018-12-02T12:54:40.000Z</time>
      </trkpt>
      <trkpt lat="42.90385" lon="0.83466">
        <ele>1475</ele>
        <time>2018-12-02T12:54:42.000Z</time>
      </trkpt>
      <trkpt lat="42.90386" lon="0.83467">
        <ele>1475</ele>
        <time>2018-12-02T12:54:44.000Z</time>
      </trkpt>
      <trkpt lat="42.90387" lon="0.83469">
        <ele>1475</ele>
        <time>2018-12-02T12:54:46.000Z</time>
      </trkpt>
      <trkpt lat="42.90388" lon="0.83471">
        <ele>1474</ele>
        <time>2018-12-02T12:54:48.000Z</time>
      </trkpt>
      <trkpt lat="42.90389" lon="0.83473">
        <ele>1474</ele>
        <time>2018-12-02T12:54:50.000Z</time>
      </trkpt>
      <trkpt lat="42.9039" lon="0.83475">
        <ele>1474</ele>
        <time>2018-12-02T12:54:52.000Z</time>
      </trkpt>
      <trkpt lat="42.90391" lon="0.83477">
        <ele>1474</ele>
        <time>2018-12-02T12:54:54.000Z</time>
      </trkpt>
      <trkpt lat="42.90392" lon="0.83479">
        <ele>1474</ele>
        <time>2018-12-02T12:54:56.000Z</time>
      </trkpt>
      <trkpt lat="42.90393" lon="0.83481">
        <ele>1473</ele>
        <time>2018-12-02T12:54:58.000Z</time>
      </trkpt>
      <trkpt lat="42.90395" lon="0.83483">
        <ele>1473</ele>
        <time>2018-12-02T12:55:00.000Z</time>
      </trkpt>
      <trkpt lat="42.90396" lon="0.83484">
        <ele>1473</ele>
        <time>2018-12-02T12:55:02.000Z</time>
      </trkpt>
      <trkpt lat="42.90397" lon="0.83485">
        <ele>1472</ele>
        <time>2018-12-02T12:55:04.000Z</time>
      </trkpt>
      <trkpt lat="42.90398" lon="0.83486">
        <ele>1472</ele>
        <time>2018-12-02T12:55:06.000Z</time>
      </trkpt>
      <trkpt lat="42.90397" lon="0.83487">
        <ele>1472</ele>
        <time>2018-12-02T12:55:08.000Z</time>
      </trkpt>
      <trkpt lat="42.90397" lon="0.83486">
        <ele>1473</ele>
        <time>2018-12-02T12:55:10.000Z</time>
      </trkpt>
      <trkpt lat="42.90397" lon="0.83486">
        <ele>1473</ele>
        <time>2018-12-02T12:55:12.000Z</time>
      </trkpt>
      <trkpt lat="42.90397" lon="0.83486">
        <ele>1473</ele>
        <time>2018-12-02T12:55:14.000Z</time>
      </trkpt>
      <trkpt lat="42.90397" lon="0.83485">
        <ele>1473</ele>
        <time>2018-12-02T12:55:16.000Z</time>
      </trkpt>
      <trkpt lat="42.90396" lon="0.83484">
        <ele>1473</ele>
        <time>2018-12-02T12:55:18.000Z</time>
      </trkpt>
      <trkpt lat="42.90395" lon="0.83483">
        <ele>1473</ele>
        <time>2018-12-02T12:55:20.000Z</time>
      </trkpt>
      <trkpt lat="42.90395" lon="0.83482">
        <ele>1473</ele>
        <time>2018-12-02T12:55:22.000Z</time>
      </trkpt>
      <trkpt lat="42.90395" lon="0.83481">
        <ele>1473</ele>
        <time>2018-12-02T12:55:24.000Z</time>
      </trkpt>
      <trkpt lat="42.90395" lon="0.83481">
        <ele>1473</ele>
        <time>2018-12-02T12:55:26.000Z</time>
      </trkpt>
      <trkpt lat="42.90395" lon="0.8348">
        <ele>1472</ele>
        <time>2018-12-02T12:55:28.000Z</time>
      </trkpt>
      <trkpt lat="42.90395" lon="0.83479">
        <ele>1472</ele>
        <time>2018-12-02T12:55:30.000Z</time>
      </trkpt>
      <trkpt lat="42.90395" lon="0.83479">
        <ele>1472</ele>
        <time>2018-12-02T12:55:33.000Z</time>
      </trkpt>
      <trkpt lat="42.90395" lon="0.83479">
        <ele>1472</ele>
        <time>2018-12-02T12:55:35.000Z</time>
      </trkpt>
      <trkpt lat="42.90395" lon="0.8348">
        <ele>1472</ele>
        <time>2018-12-02T12:55:37.000Z</time>
      </trkpt>
      <trkpt lat="42.90395" lon="0.8348">
        <ele>1472</ele>
        <time>2018-12-02T12:55:39.000Z</time>
      </trkpt>
      <trkpt lat="42.90395" lon="0.83481">
        <ele>1472</ele>
        <time>2018-12-02T12:55:41.000Z</time>
      </trkpt>
      <trkpt lat="42.90396" lon="0.83482">
        <ele>1472</ele>
        <time>2018-12-02T12:55:43.000Z</time>
      </trkpt>
      <trkpt lat="42.90396" lon="0.83482">
        <ele>1472</ele>
        <time>2018-12-02T12:55:45.000Z</time>
      </trkpt>
      <trkpt lat="42.90396" lon="0.83483">
        <ele>1472</ele>
        <time>2018-12-02T12:55:47.000Z</time>
      </trkpt>
      <trkpt lat="42.90396" lon="0.83484">
        <ele>1473</ele>
        <time>2018-12-02T12:55:49.000Z</time>
      </trkpt>
      <trkpt lat="42.90396" lon="0.83484">
        <ele>1473</ele>
        <time>2018-12-02T12:55:51.000Z</time>
      </trkpt>
      <trkpt lat="42.90396" lon="0.83486">
        <ele>1473</ele>
        <time>2018-12-02T12:55:53.000Z</time>
      </trkpt>
      <trkpt lat="42.90396" lon="0.83486">
        <ele>1473</ele>
        <time>2018-12-02T12:55:55.000Z</time>
      </trkpt>
      <trkpt lat="42.90396" lon="0.83486">
        <ele>1473</ele>
        <time>2018-12-02T12:55:57.000Z</time>
      </trkpt>
      <trkpt lat="42.90396" lon="0.83486">
        <ele>1473</ele>
        <time>2018-12-02T12:55:59.000Z</time>
      </trkpt>
      <trkpt lat="42.90396" lon="0.83486">
        <ele>1473</ele>
        <time>2018-12-02T12:56:01.000Z</time>
      </trkpt>
      <trkpt lat="42.90396" lon="0.83487">
        <ele>1473</ele>
        <time>2018-12-02T12:56:03.000Z</time>
      </trkpt>
      <trkpt lat="42.90396" lon="0.83487">
        <ele>1473</ele>
        <time>2018-12-02T12:56:05.000Z</time>
      </trkpt>
      <trkpt lat="42.90396" lon="0.83488">
        <ele>1473</ele>
        <time>2018-12-02T12:56:07.000Z</time>
      </trkpt>
      <trkpt lat="42.90396" lon="0.83488">
        <ele>1473</ele>
        <time>2018-12-02T12:56:09.000Z</time>
      </trkpt>
      <trkpt lat="42.90396" lon="0.83488">
        <ele>1473</ele>
        <time>2018-12-02T12:56:11.000Z</time>
      </trkpt>
      <trkpt lat="42.90396" lon="0.83489">
        <ele>1473</ele>
        <time>2018-12-02T12:56:13.000Z</time>
      </trkpt>
      <trkpt lat="42.90397" lon="0.83488">
        <ele>1473</ele>
        <time>2018-12-02T12:56:15.000Z</time>
      </trkpt>
      <trkpt lat="42.90397" lon="0.83488">
        <ele>1473</ele>
        <time>2018-12-02T12:56:17.000Z</time>
      </trkpt>
      <trkpt lat="42.90396" lon="0.83488">
        <ele>1473</ele>
        <time>2018-12-02T12:56:19.000Z</time>
      </trkpt>
      <trkpt lat="42.90396" lon="0.83487">
        <ele>1473</ele>
        <time>2018-12-02T12:56:21.000Z</time>
      </trkpt>
      <trkpt lat="42.90396" lon="0.83487">
        <ele>1473</ele>
        <time>2018-12-02T12:56:23.000Z</time>
      </trkpt>
      <trkpt lat="42.90396" lon="0.83487">
        <ele>1473</ele>
        <time>2018-12-02T12:56:25.000Z</time>
      </trkpt>
      <trkpt lat="42.90395" lon="0.83487">
        <ele>1473</ele>
        <time>2018-12-02T12:56:27.000Z</time>
      </trkpt>
      <trkpt lat="42.90396" lon="0.83488">
        <ele>1473</ele>
        <time>2018-12-02T12:56:29.000Z</time>
      </trkpt>
      <trkpt lat="42.90396" lon="0.83488">
        <ele>1473</ele>
        <time>2018-12-02T12:56:31.000Z</time>
      </trkpt>
      <trkpt lat="42.90397" lon="0.83489">
        <ele>1473</ele>
        <time>2018-12-02T12:56:33.000Z</time>
      </trkpt>
      <trkpt lat="42.90398" lon="0.8349">
        <ele>1472</ele>
        <time>2018-12-02T12:56:35.000Z</time>
      </trkpt>
      <trkpt lat="42.904" lon="0.83491">
        <ele>1472</ele>
        <time>2018-12-02T12:56:37.000Z</time>
      </trkpt>
      <trkpt lat="42.90399" lon="0.83491">
        <ele>1472</ele>
        <time>2018-12-02T12:56:39.000Z</time>
      </trkpt>
      <trkpt lat="42.90399" lon="0.83492">
        <ele>1472</ele>
        <time>2018-12-02T12:56:41.000Z</time>
      </trkpt>
      <trkpt lat="42.904" lon="0.83492">
        <ele>1472</ele>
        <time>2018-12-02T12:56:43.000Z</time>
      </trkpt>
      <trkpt lat="42.90399" lon="0.83492">
        <ele>1472</ele>
        <time>2018-12-02T12:56:45.000Z</time>
      </trkpt>
      <trkpt lat="42.90398" lon="0.8349">
        <ele>1473</ele>
        <time>2018-12-02T12:56:47.000Z</time>
      </trkpt>
      <trkpt lat="42.90397" lon="0.83488">
        <ele>1473</ele>
        <time>2018-12-02T12:56:49.000Z</time>
      </trkpt>
      <trkpt lat="42.90396" lon="0.83487">
        <ele>1473</ele>
        <time>2018-12-02T12:56:51.000Z</time>
      </trkpt>
      <trkpt lat="42.90397" lon="0.83485">
        <ele>1473</ele>
        <time>2018-12-02T12:56:53.000Z</time>
      </trkpt>
      <trkpt lat="42.90397" lon="0.83486">
        <ele>1473</ele>
        <time>2018-12-02T12:56:55.000Z</time>
      </trkpt>
      <trkpt lat="42.90397" lon="0.83486">
        <ele>1472</ele>
        <time>2018-12-02T12:56:57.000Z</time>
      </trkpt>
      <trkpt lat="42.90397" lon="0.83486">
        <ele>1473</ele>
        <time>2018-12-02T12:56:59.000Z</time>
      </trkpt>
      <trkpt lat="42.90397" lon="0.83485">
        <ele>1472</ele>
        <time>2018-12-02T12:57:01.000Z</time>
      </trkpt>
      <trkpt lat="42.90397" lon="0.83485">
        <ele>1472</ele>
        <time>2018-12-02T12:57:03.000Z</time>
      </trkpt>
      <trkpt lat="42.90398" lon="0.83486">
        <ele>1472</ele>
        <time>2018-12-02T12:57:05.000Z</time>
      </trkpt>
      <trkpt lat="42.90398" lon="0.83486">
        <ele>1472</ele>
        <time>2018-12-02T12:57:07.000Z</time>
      </trkpt>
      <trkpt lat="42.90398" lon="0.83486">
        <ele>1472</ele>
        <time>2018-12-02T12:57:09.000Z</time>
      </trkpt>
      <trkpt lat="42.90398" lon="0.83485">
        <ele>1472</ele>
        <time>2018-12-02T12:57:12.000Z</time>
      </trkpt>
      <trkpt lat="42.90398" lon="0.83485">
        <ele>1472</ele>
        <time>2018-12-02T12:57:14.000Z</time>
      </trkpt>
      <trkpt lat="42.90398" lon="0.83485">
        <ele>1472</ele>
        <time>2018-12-02T12:57:16.000Z</time>
      </trkpt>
      <trkpt lat="42.90398" lon="0.83485">
        <ele>1472</ele>
        <time>2018-12-02T12:57:18.000Z</time>
      </trkpt>
      <trkpt lat="42.90398" lon="0.83485">
        <ele>1472</ele>
        <time>2018-12-02T12:57:20.000Z</time>
      </trkpt>
      <trkpt lat="42.90398" lon="0.83485">
        <ele>1472</ele>
        <time>2018-12-02T12:57:22.000Z</time>
      </trkpt>
      <trkpt lat="42.90398" lon="0.83485">
        <ele>1472</ele>
        <time>2018-12-02T12:57:24.000Z</time>
      </trkpt>
      <trkpt lat="42.90398" lon="0.83486">
        <ele>1472</ele>
        <time>2018-12-02T12:57:26.000Z</time>
      </trkpt>
      <trkpt lat="42.90398" lon="0.83486">
        <ele>1472</ele>
        <time>2018-12-02T12:57:28.000Z</time>
      </trkpt>
      <trkpt lat="42.90398" lon="0.83486">
        <ele>1472</ele>
        <time>2018-12-02T12:57:30.000Z</time>
      </trkpt>
      <trkpt lat="42.90398" lon="0.83486">
        <ele>1472</ele>
        <time>2018-12-02T12:57:32.000Z</time>
      </trkpt>
      <trkpt lat="42.90398" lon="0.83486">
        <ele>1472</ele>
        <time>2018-12-02T12:57:34.000Z</time>
      </trkpt>
      <trkpt lat="42.90398" lon="0.83486">
        <ele>1472</ele>
        <time>2018-12-02T12:57:36.000Z</time>
      </trkpt>
      <trkpt lat="42.90398" lon="0.83486">
        <ele>1472</ele>
        <time>2018-12-02T12:57:38.000Z</time>
      </trkpt>
      <trkpt lat="42.90397" lon="0.83487">
        <ele>1473</ele>
        <time>2018-12-02T12:57:40.000Z</time>
      </trkpt>
      <trkpt lat="42.90397" lon="0.83488">
        <ele>1473</ele>
        <time>2018-12-02T12:57:42.000Z</time>
      </trkpt>
      <trkpt lat="42.90396" lon="0.83488">
        <ele>1473</ele>
        <time>2018-12-02T12:57:44.000Z</time>
      </trkpt>
      <trkpt lat="42.90396" lon="0.83488">
        <ele>1473</ele>
        <time>2018-12-02T12:57:46.000Z</time>
      </trkpt>
      <trkpt lat="42.90396" lon="0.83488">
        <ele>1473</ele>
        <time>2018-12-02T12:57:48.000Z</time>
      </trkpt>
      <trkpt lat="42.90396" lon="0.83488">
        <ele>1473</ele>
        <time>2018-12-02T12:57:50.000Z</time>
      </trkpt>
      <trkpt lat="42.90396" lon="0.83488">
        <ele>1473</ele>
        <time>2018-12-02T12:57:52.000Z</time>
      </trkpt>
      <trkpt lat="42.90397" lon="0.83487">
        <ele>1473</ele>
        <time>2018-12-02T12:57:54.000Z</time>
      </trkpt>
      <trkpt lat="42.90397" lon="0.83487">
        <ele>1473</ele>
        <time>2018-12-02T12:57:56.000Z</time>
      </trkpt>
      <trkpt lat="42.90397" lon="0.83486">
        <ele>1473</ele>
        <time>2018-12-02T12:57:58.000Z</time>
      </trkpt>
      <trkpt lat="42.90397" lon="0.83487">
        <ele>1473</ele>
        <time>2018-12-02T12:58:00.000Z</time>
      </trkpt>
      <trkpt lat="42.90397" lon="0.83487">
        <ele>1472</ele>
        <time>2018-12-02T12:58:02.000Z</time>
      </trkpt>
      <trkpt lat="42.90397" lon="0.83487">
        <ele>1472</ele>
        <time>2018-12-02T12:58:04.000Z</time>
      </trkpt>
      <trkpt lat="42.90398" lon="0.83488">
        <ele>1472</ele>
        <time>2018-12-02T12:58:06.000Z</time>
      </trkpt>
      <trkpt lat="42.90398" lon="0.83488">
        <ele>1472</ele>
        <time>2018-12-02T12:58:08.000Z</time>
      </trkpt>
      <trkpt lat="42.90398" lon="0.83489">
        <ele>1472</ele>
        <time>2018-12-02T12:58:10.000Z</time>
      </trkpt>
      <trkpt lat="42.90398" lon="0.83489">
        <ele>1473</ele>
        <time>2018-12-02T12:58:12.000Z</time>
      </trkpt>
      <trkpt lat="42.90398" lon="0.83488">
        <ele>1473</ele>
        <time>2018-12-02T12:58:14.000Z</time>
      </trkpt>
      <trkpt lat="42.90397" lon="0.83488">
        <ele>1473</ele>
        <time>2018-12-02T12:58:16.000Z</time>
      </trkpt>
      <trkpt lat="42.90397" lon="0.83488">
        <ele>1473</ele>
        <time>2018-12-02T12:58:19.000Z</time>
      </trkpt>
      <trkpt lat="42.90398" lon="0.83488">
        <ele>1473</ele>
        <time>2018-12-02T12:58:21.000Z</time>
      </trkpt>
      <trkpt lat="42.90398" lon="0.83489">
        <ele>1473</ele>
        <time>2018-12-02T12:58:23.000Z</time>
      </trkpt>
      <trkpt lat="42.90398" lon="0.83488">
        <ele>1472</ele>
        <time>2018-12-02T12:58:26.000Z</time>
      </trkpt>
      <trkpt lat="42.90399" lon="0.83489">
        <ele>1472</ele>
        <time>2018-12-02T12:58:28.000Z</time>
      </trkpt>
      <trkpt lat="42.904" lon="0.8349">
        <ele>1472</ele>
        <time>2018-12-02T12:58:30.000Z</time>
      </trkpt>
      <trkpt lat="42.90402" lon="0.83492">
        <ele>1471</ele>
        <time>2018-12-02T12:58:33.000Z</time>
      </trkpt>
      <trkpt lat="42.90404" lon="0.83494">
        <ele>1471</ele>
        <time>2018-12-02T12:58:36.000Z</time>
      </trkpt>
      <trkpt lat="42.90405" lon="0.83496">
        <ele>1471</ele>
        <time>2018-12-02T12:58:38.000Z</time>
      </trkpt>
      <trkpt lat="42.90406" lon="0.83498">
        <ele>1470</ele>
        <time>2018-12-02T12:58:40.000Z</time>
      </trkpt>
      <trkpt lat="42.90409" lon="0.83501">
        <ele>1470</ele>
        <time>2018-12-02T12:58:44.000Z</time>
      </trkpt>
      <trkpt lat="42.9041" lon="0.83503">
        <ele>1469</ele>
        <time>2018-12-02T12:58:46.000Z</time>
      </trkpt>
      <trkpt lat="42.90412" lon="0.83505">
        <ele>1469</ele>
        <time>2018-12-02T12:58:48.000Z</time>
      </trkpt>
      <trkpt lat="42.90413" lon="0.83507">
        <ele>1469</ele>
        <time>2018-12-02T12:58:50.000Z</time>
      </trkpt>
      <trkpt lat="42.90415" lon="0.8351">
        <ele>1469</ele>
        <time>2018-12-02T12:58:52.000Z</time>
      </trkpt>
      <trkpt lat="42.90417" lon="0.83512">
        <ele>1468</ele>
        <time>2018-12-02T12:58:55.000Z</time>
      </trkpt>
      <trkpt lat="42.90419" lon="0.83514">
        <ele>1468</ele>
        <time>2018-12-02T12:58:57.000Z</time>
      </trkpt>
      <trkpt lat="42.90421" lon="0.83517">
        <ele>1467</ele>
        <time>2018-12-02T12:59:00.000Z</time>
      </trkpt>
      <trkpt lat="42.90423" lon="0.83519">
        <ele>1467</ele>
        <time>2018-12-02T12:59:02.000Z</time>
      </trkpt>
      <trkpt lat="42.90425" lon="0.83522">
        <ele>1466</ele>
        <time>2018-12-02T12:59:05.000Z</time>
      </trkpt>
      <trkpt lat="42.90427" lon="0.83526">
        <ele>1466</ele>
        <time>2018-12-02T12:59:08.000Z</time>
      </trkpt>
      <trkpt lat="42.90429" lon="0.83528">
        <ele>1466</ele>
        <time>2018-12-02T12:59:10.000Z</time>
      </trkpt>
      <trkpt lat="42.9043" lon="0.83528">
        <ele>1466</ele>
        <time>2018-12-02T12:59:12.000Z</time>
      </trkpt>
      <trkpt lat="42.90431" lon="0.83529">
        <ele>1466</ele>
        <time>2018-12-02T12:59:14.000Z</time>
      </trkpt>
      <trkpt lat="42.9043" lon="0.83529">
        <ele>1466</ele>
        <time>2018-12-02T12:59:17.000Z</time>
      </trkpt>
      <trkpt lat="42.90431" lon="0.83529">
        <ele>1466</ele>
        <time>2018-12-02T12:59:19.000Z</time>
      </trkpt>
      <trkpt lat="42.90431" lon="0.83529">
        <ele>1465</ele>
        <time>2018-12-02T12:59:21.000Z</time>
      </trkpt>
      <trkpt lat="42.90431" lon="0.8353">
        <ele>1466</ele>
        <time>2018-12-02T12:59:23.000Z</time>
      </trkpt>
      <trkpt lat="42.90431" lon="0.8353">
        <ele>1466</ele>
        <time>2018-12-02T12:59:25.000Z</time>
      </trkpt>
      <trkpt lat="42.90431" lon="0.8353">
        <ele>1466</ele>
        <time>2018-12-02T12:59:27.000Z</time>
      </trkpt>
      <trkpt lat="42.90431" lon="0.8353">
        <ele>1466</ele>
        <time>2018-12-02T12:59:29.000Z</time>
      </trkpt>
      <trkpt lat="42.90431" lon="0.8353">
        <ele>1466</ele>
        <time>2018-12-02T12:59:31.000Z</time>
      </trkpt>
      <trkpt lat="42.9043" lon="0.83529">
        <ele>1466</ele>
        <time>2018-12-02T12:59:33.000Z</time>
      </trkpt>
      <trkpt lat="42.9043" lon="0.83529">
        <ele>1466</ele>
        <time>2018-12-02T12:59:35.000Z</time>
      </trkpt>
      <trkpt lat="42.90431" lon="0.83529">
        <ele>1466</ele>
        <time>2018-12-02T12:59:37.000Z</time>
      </trkpt>
      <trkpt lat="42.90431" lon="0.83528">
        <ele>1465</ele>
        <time>2018-12-02T12:59:39.000Z</time>
      </trkpt>
      <trkpt lat="42.90431" lon="0.83528">
        <ele>1465</ele>
        <time>2018-12-02T12:59:41.000Z</time>
      </trkpt>
      <trkpt lat="42.90431" lon="0.83528">
        <ele>1465</ele>
        <time>2018-12-02T12:59:43.000Z</time>
      </trkpt>
      <trkpt lat="42.90431" lon="0.83527">
        <ele>1465</ele>
        <time>2018-12-02T12:59:45.000Z</time>
      </trkpt>
      <trkpt lat="42.90431" lon="0.83526">
        <ele>1465</ele>
        <time>2018-12-02T12:59:47.000Z</time>
      </trkpt>
      <trkpt lat="42.90431" lon="0.83524">
        <ele>1465</ele>
        <time>2018-12-02T12:59:49.000Z</time>
      </trkpt>
      <trkpt lat="42.9043" lon="0.83523">
        <ele>1465</ele>
        <time>2018-12-02T12:59:51.000Z</time>
      </trkpt>
      <trkpt lat="42.90429" lon="0.83522">
        <ele>1465</ele>
        <time>2018-12-02T12:59:53.000Z</time>
      </trkpt>
      <trkpt lat="42.90428" lon="0.83519">
        <ele>1465</ele>
        <time>2018-12-02T12:59:55.000Z</time>
      </trkpt>
      <trkpt lat="42.90428" lon="0.83518">
        <ele>1465</ele>
        <time>2018-12-02T12:59:57.000Z</time>
      </trkpt>
      <trkpt lat="42.90428" lon="0.83517">
        <ele>1465</ele>
        <time>2018-12-02T12:59:59.000Z</time>
      </trkpt>
      <trkpt lat="42.90428" lon="0.83517">
        <ele>1465</ele>
        <time>2018-12-02T13:00:01.000Z</time>
      </trkpt>
      <trkpt lat="42.90428" lon="0.83515">
        <ele>1465</ele>
        <time>2018-12-02T13:00:03.000Z</time>
      </trkpt>
      <trkpt lat="42.90428" lon="0.83513">
        <ele>1465</ele>
        <time>2018-12-02T13:00:05.000Z</time>
      </trkpt>
      <trkpt lat="42.90427" lon="0.8351">
        <ele>1464</ele>
        <time>2018-12-02T13:00:08.000Z</time>
      </trkpt>
      <trkpt lat="42.90427" lon="0.83508">
        <ele>1464</ele>
        <time>2018-12-02T13:00:10.000Z</time>
      </trkpt>
      <trkpt lat="42.90428" lon="0.83506">
        <ele>1464</ele>
        <time>2018-12-02T13:00:12.000Z</time>
      </trkpt>
      <trkpt lat="42.90429" lon="0.83505">
        <ele>1463</ele>
        <time>2018-12-02T13:00:14.000Z</time>
      </trkpt>
      <trkpt lat="42.9043" lon="0.83505">
        <ele>1463</ele>
        <time>2018-12-02T13:00:16.000Z</time>
      </trkpt>
      <trkpt lat="42.90431" lon="0.83504">
        <ele>1463</ele>
        <time>2018-12-02T13:00:19.000Z</time>
      </trkpt>
      <trkpt lat="42.90431" lon="0.83504">
        <ele>1462</ele>
        <time>2018-12-02T13:00:21.000Z</time>
      </trkpt>
      <trkpt lat="42.90432" lon="0.83504">
        <ele>1462</ele>
        <time>2018-12-02T13:00:23.000Z</time>
      </trkpt>
      <trkpt lat="42.90432" lon="0.83504">
        <ele>1462</ele>
        <time>2018-12-02T13:00:27.000Z</time>
      </trkpt>
      <trkpt lat="42.90432" lon="0.83503">
        <ele>1462</ele>
        <time>2018-12-02T13:00:30.000Z</time>
      </trkpt>
      <trkpt lat="42.90433" lon="0.83503">
        <ele>1462</ele>
        <time>2018-12-02T13:00:33.000Z</time>
      </trkpt>
      <trkpt lat="42.90435" lon="0.83501">
        <ele>1461</ele>
        <time>2018-12-02T13:00:36.000Z</time>
      </trkpt>
      <trkpt lat="42.90436" lon="0.835">
        <ele>1460</ele>
        <time>2018-12-02T13:00:39.000Z</time>
      </trkpt>
      <trkpt lat="42.90438" lon="0.83499">
        <ele>1460</ele>
        <time>2018-12-02T13:00:42.000Z</time>
      </trkpt>
      <trkpt lat="42.90439" lon="0.835">
        <ele>1459</ele>
        <time>2018-12-02T13:00:44.000Z</time>
      </trkpt>
      <trkpt lat="42.90441" lon="0.835">
        <ele>1459</ele>
        <time>2018-12-02T13:00:46.000Z</time>
      </trkpt>
      <trkpt lat="42.90442" lon="0.83501">
        <ele>1459</ele>
        <time>2018-12-02T13:00:48.000Z</time>
      </trkpt>
      <trkpt lat="42.90444" lon="0.83501">
        <ele>1458</ele>
        <time>2018-12-02T13:00:50.000Z</time>
      </trkpt>
      <trkpt lat="42.90446" lon="0.83502">
        <ele>1458</ele>
        <time>2018-12-02T13:00:52.000Z</time>
      </trkpt>
      <trkpt lat="42.90447" lon="0.83502">
        <ele>1457</ele>
        <time>2018-12-02T13:00:54.000Z</time>
      </trkpt>
      <trkpt lat="42.90448" lon="0.83503">
        <ele>1457</ele>
        <time>2018-12-02T13:00:57.000Z</time>
      </trkpt>
      <trkpt lat="42.90449" lon="0.83502">
        <ele>1457</ele>
        <time>2018-12-02T13:01:00.000Z</time>
      </trkpt>
      <trkpt lat="42.90451" lon="0.83502">
        <ele>1456</ele>
        <time>2018-12-02T13:01:03.000Z</time>
      </trkpt>
      <trkpt lat="42.90453" lon="0.83502">
        <ele>1456</ele>
        <time>2018-12-02T13:01:06.000Z</time>
      </trkpt>
      <trkpt lat="42.90454" lon="0.83503">
        <ele>1455</ele>
        <time>2018-12-02T13:01:08.000Z</time>
      </trkpt>
      <trkpt lat="42.90455" lon="0.83503">
        <ele>1455</ele>
        <time>2018-12-02T13:01:10.000Z</time>
      </trkpt>
      <trkpt lat="42.90456" lon="0.83504">
        <ele>1455</ele>
        <time>2018-12-02T13:01:12.000Z</time>
      </trkpt>
      <trkpt lat="42.90457" lon="0.83505">
        <ele>1455</ele>
        <time>2018-12-02T13:01:14.000Z</time>
      </trkpt>
      <trkpt lat="42.90458" lon="0.83506">
        <ele>1454</ele>
        <time>2018-12-02T13:01:16.000Z</time>
      </trkpt>
      <trkpt lat="42.90459" lon="0.83508">
        <ele>1454</ele>
        <time>2018-12-02T13:01:18.000Z</time>
      </trkpt>
      <trkpt lat="42.90461" lon="0.83512">
        <ele>1454</ele>
        <time>2018-12-02T13:01:20.000Z</time>
      </trkpt>
      <trkpt lat="42.90465" lon="0.83516">
        <ele>1453</ele>
        <time>2018-12-02T13:01:22.000Z</time>
      </trkpt>
      <trkpt lat="42.90468" lon="0.83519">
        <ele>1453</ele>
        <time>2018-12-02T13:01:24.000Z</time>
      </trkpt>
      <trkpt lat="42.9047" lon="0.83523">
        <ele>1452</ele>
        <time>2018-12-02T13:01:26.000Z</time>
      </trkpt>
      <trkpt lat="42.90472" lon="0.83525">
        <ele>1452</ele>
        <time>2018-12-02T13:01:28.000Z</time>
      </trkpt>
      <trkpt lat="42.90473" lon="0.83526">
        <ele>1452</ele>
        <time>2018-12-02T13:01:30.000Z</time>
      </trkpt>
      <trkpt lat="42.90474" lon="0.83527">
        <ele>1452</ele>
        <time>2018-12-02T13:01:32.000Z</time>
      </trkpt>
      <trkpt lat="42.90475" lon="0.83528">
        <ele>1452</ele>
        <time>2018-12-02T13:01:35.000Z</time>
      </trkpt>
      <trkpt lat="42.90474" lon="0.83529">
        <ele>1452</ele>
        <time>2018-12-02T13:01:37.000Z</time>
      </trkpt>
      <trkpt lat="42.90474" lon="0.83529">
        <ele>1452</ele>
        <time>2018-12-02T13:01:39.000Z</time>
      </trkpt>
      <trkpt lat="42.90473" lon="0.83529">
        <ele>1452</ele>
        <time>2018-12-02T13:01:42.000Z</time>
      </trkpt>
      <trkpt lat="42.90472" lon="0.83529">
        <ele>1453</ele>
        <time>2018-12-02T13:01:44.000Z</time>
      </trkpt>
      <trkpt lat="42.90472" lon="0.83529">
        <ele>1453</ele>
        <time>2018-12-02T13:01:47.000Z</time>
      </trkpt>
      <trkpt lat="42.90471" lon="0.8353">
        <ele>1453</ele>
        <time>2018-12-02T13:01:49.000Z</time>
      </trkpt>
      <trkpt lat="42.90469" lon="0.83531">
        <ele>1454</ele>
        <time>2018-12-02T13:01:51.000Z</time>
      </trkpt>
      <trkpt lat="42.90468" lon="0.83532">
        <ele>1454</ele>
        <time>2018-12-02T13:01:53.000Z</time>
      </trkpt>
      <trkpt lat="42.90468" lon="0.83533">
        <ele>1454</ele>
        <time>2018-12-02T13:01:56.000Z</time>
      </trkpt>
      <trkpt lat="42.90467" lon="0.83534">
        <ele>1455</ele>
        <time>2018-12-02T13:01:58.000Z</time>
      </trkpt>
      <trkpt lat="42.90466" lon="0.83535">
        <ele>1455</ele>
        <time>2018-12-02T13:02:00.000Z</time>
      </trkpt>
      <trkpt lat="42.90465" lon="0.83535">
        <ele>1455</ele>
        <time>2018-12-02T13:02:02.000Z</time>
      </trkpt>
      <trkpt lat="42.90465" lon="0.83535">
        <ele>1456</ele>
        <time>2018-12-02T13:02:04.000Z</time>
      </trkpt>
      <trkpt lat="42.90464" lon="0.83536">
        <ele>1456</ele>
        <time>2018-12-02T13:02:06.000Z</time>
      </trkpt>
      <trkpt lat="42.90464" lon="0.83536">
        <ele>1456</ele>
        <time>2018-12-02T13:02:08.000Z</time>
      </trkpt>
      <trkpt lat="42.90464" lon="0.83535">
        <ele>1456</ele>
        <time>2018-12-02T13:02:10.000Z</time>
      </trkpt>
      <trkpt lat="42.90463" lon="0.83535">
        <ele>1456</ele>
        <time>2018-12-02T13:02:12.000Z</time>
      </trkpt>
      <trkpt lat="42.90463" lon="0.83535">
        <ele>1456</ele>
        <time>2018-12-02T13:02:14.000Z</time>
      </trkpt>
      <trkpt lat="42.90462" lon="0.83534">
        <ele>1456</ele>
        <time>2018-12-02T13:02:16.000Z</time>
      </trkpt>
      <trkpt lat="42.90461" lon="0.83533">
        <ele>1457</ele>
        <time>2018-12-02T13:02:18.000Z</time>
      </trkpt>
      <trkpt lat="42.9046" lon="0.83533">
        <ele>1457</ele>
        <time>2018-12-02T13:02:20.000Z</time>
      </trkpt>
      <trkpt lat="42.90459" lon="0.8353">
        <ele>1457</ele>
        <time>2018-12-02T13:02:22.000Z</time>
      </trkpt>
      <trkpt lat="42.90459" lon="0.83527">
        <ele>1456</ele>
        <time>2018-12-02T13:02:25.000Z</time>
      </trkpt>
      <trkpt lat="42.9046" lon="0.83525">
        <ele>1456</ele>
        <time>2018-12-02T13:02:28.000Z</time>
      </trkpt>
      <trkpt lat="42.90462" lon="0.83523">
        <ele>1455</ele>
        <time>2018-12-02T13:02:31.000Z</time>
      </trkpt>
      <trkpt lat="42.90463" lon="0.8352">
        <ele>1454</ele>
        <time>2018-12-02T13:02:34.000Z</time>
      </trkpt>
      <trkpt lat="42.90465" lon="0.83519">
        <ele>1454</ele>
        <time>2018-12-02T13:02:37.000Z</time>
      </trkpt>
      <trkpt lat="42.90466" lon="0.83519">
        <ele>1453</ele>
        <time>2018-12-02T13:02:40.000Z</time>
      </trkpt>
      <trkpt lat="42.90466" lon="0.83519">
        <ele>1453</ele>
        <time>2018-12-02T13:02:42.000Z</time>
      </trkpt>
      <trkpt lat="42.90466" lon="0.83519">
        <ele>1453</ele>
        <time>2018-12-02T13:02:45.000Z</time>
      </trkpt>
      <trkpt lat="42.90467" lon="0.83519">
        <ele>1453</ele>
        <time>2018-12-02T13:02:47.000Z</time>
      </trkpt>
      <trkpt lat="42.90467" lon="0.83519">
        <ele>1453</ele>
        <time>2018-12-02T13:02:50.000Z</time>
      </trkpt>
      <trkpt lat="42.90467" lon="0.83519">
        <ele>1453</ele>
        <time>2018-12-02T13:02:53.000Z</time>
      </trkpt>
      <trkpt lat="42.90465" lon="0.83519">
        <ele>1453</ele>
        <time>2018-12-02T13:02:55.000Z</time>
      </trkpt>
      <trkpt lat="42.90464" lon="0.83518">
        <ele>1454</ele>
        <time>2018-12-02T13:02:58.000Z</time>
      </trkpt>
      <trkpt lat="42.90464" lon="0.83518">
        <ele>1454</ele>
        <time>2018-12-02T13:03:01.000Z</time>
      </trkpt>
      <trkpt lat="42.90464" lon="0.83519">
        <ele>1454</ele>
        <time>2018-12-02T13:03:03.000Z</time>
      </trkpt>
      <trkpt lat="42.90466" lon="0.83522">
        <ele>1454</ele>
        <time>2018-12-02T13:03:05.000Z</time>
      </trkpt>
      <trkpt lat="42.90467" lon="0.83523">
        <ele>1454</ele>
        <time>2018-12-02T13:03:07.000Z</time>
      </trkpt>
      <trkpt lat="42.90469" lon="0.83526">
        <ele>1453</ele>
        <time>2018-12-02T13:03:09.000Z</time>
      </trkpt>
      <trkpt lat="42.90472" lon="0.8353">
        <ele>1453</ele>
        <time>2018-12-02T13:03:11.000Z</time>
      </trkpt>
      <trkpt lat="42.90474" lon="0.83532">
        <ele>1452</ele>
        <time>2018-12-02T13:03:14.000Z</time>
      </trkpt>
      <trkpt lat="42.90475" lon="0.83532">
        <ele>1452</ele>
        <time>2018-12-02T13:03:17.000Z</time>
      </trkpt>
      <trkpt lat="42.90475" lon="0.83531">
        <ele>1452</ele>
        <time>2018-12-02T13:03:19.000Z</time>
      </trkpt>
      <trkpt lat="42.90477" lon="0.83531">
        <ele>1452</ele>
        <time>2018-12-02T13:03:21.000Z</time>
      </trkpt>
      <trkpt lat="42.90477" lon="0.83532">
        <ele>1451</ele>
        <time>2018-12-02T13:03:24.000Z</time>
      </trkpt>
      <trkpt lat="42.90478" lon="0.83533">
        <ele>1451</ele>
        <time>2018-12-02T13:03:26.000Z</time>
      </trkpt>
      <trkpt lat="42.90478" lon="0.83534">
        <ele>1451</ele>
        <time>2018-12-02T13:03:28.000Z</time>
      </trkpt>
      <trkpt lat="42.90479" lon="0.83535">
        <ele>1451</ele>
        <time>2018-12-02T13:03:31.000Z</time>
      </trkpt>
      <trkpt lat="42.90479" lon="0.83535">
        <ele>1451</ele>
        <time>2018-12-02T13:03:34.000Z</time>
      </trkpt>
      <trkpt lat="42.9048" lon="0.83537">
        <ele>1451</ele>
        <time>2018-12-02T13:03:36.000Z</time>
      </trkpt>
      <trkpt lat="42.90481" lon="0.83538">
        <ele>1451</ele>
        <time>2018-12-02T13:03:39.000Z</time>
      </trkpt>
      <trkpt lat="42.90482" lon="0.83539">
        <ele>1451</ele>
        <time>2018-12-02T13:03:41.000Z</time>
      </trkpt>
      <trkpt lat="42.90483" lon="0.8354">
        <ele>1451</ele>
        <time>2018-12-02T13:03:43.000Z</time>
      </trkpt>
      <trkpt lat="42.90483" lon="0.8354">
        <ele>1451</ele>
        <time>2018-12-02T13:03:46.000Z</time>
      </trkpt>
      <trkpt lat="42.90482" lon="0.83541">
        <ele>1451</ele>
        <time>2018-12-02T13:03:49.000Z</time>
      </trkpt>
      <trkpt lat="42.90482" lon="0.83541">
        <ele>1451</ele>
        <time>2018-12-02T13:03:51.000Z</time>
      </trkpt>
      <trkpt lat="42.90482" lon="0.8354">
        <ele>1451</ele>
        <time>2018-12-02T13:03:55.000Z</time>
      </trkpt>
      <trkpt lat="42.90483" lon="0.83542">
        <ele>1451</ele>
        <time>2018-12-02T13:03:57.000Z</time>
      </trkpt>
      <trkpt lat="42.90483" lon="0.83542">
        <ele>1451</ele>
        <time>2018-12-02T13:04:00.000Z</time>
      </trkpt>
      <trkpt lat="42.90483" lon="0.83544">
        <ele>1451</ele>
        <time>2018-12-02T13:04:03.000Z</time>
      </trkpt>
      <trkpt lat="42.90485" lon="0.83545">
        <ele>1451</ele>
        <time>2018-12-02T13:04:07.000Z</time>
      </trkpt>
      <trkpt lat="42.90487" lon="0.83546">
        <ele>1450</ele>
        <time>2018-12-02T13:04:10.000Z</time>
      </trkpt>
      <trkpt lat="42.90489" lon="0.83546">
        <ele>1449</ele>
        <time>2018-12-02T13:04:14.000Z</time>
      </trkpt>
      <trkpt lat="42.9049" lon="0.83547">
        <ele>1449</ele>
        <time>2018-12-02T13:04:16.000Z</time>
      </trkpt>
      <trkpt lat="42.90491" lon="0.83546">
        <ele>1449</ele>
        <time>2018-12-02T13:04:19.000Z</time>
      </trkpt>
      <trkpt lat="42.90492" lon="0.83546">
        <ele>1448</ele>
        <time>2018-12-02T13:04:22.000Z</time>
      </trkpt>
      <trkpt lat="42.90493" lon="0.83546">
        <ele>1448</ele>
        <time>2018-12-02T13:04:24.000Z</time>
      </trkpt>
      <trkpt lat="42.90495" lon="0.83549">
        <ele>1448</ele>
        <time>2018-12-02T13:04:28.000Z</time>
      </trkpt>
      <trkpt lat="42.90498" lon="0.8355">
        <ele>1447</ele>
        <time>2018-12-02T13:04:30.000Z</time>
      </trkpt>
      <trkpt lat="42.90499" lon="0.8355">
        <ele>1447</ele>
        <time>2018-12-02T13:04:32.000Z</time>
      </trkpt>
      <trkpt lat="42.90501" lon="0.83551">
        <ele>1446</ele>
        <time>2018-12-02T13:04:35.000Z</time>
      </trkpt>
      <trkpt lat="42.90503" lon="0.83553">
        <ele>1446</ele>
        <time>2018-12-02T13:04:37.000Z</time>
      </trkpt>
      <trkpt lat="42.90505" lon="0.83555">
        <ele>1445</ele>
        <time>2018-12-02T13:04:40.000Z</time>
      </trkpt>
      <trkpt lat="42.90506" lon="0.83555">
        <ele>1445</ele>
        <time>2018-12-02T13:04:42.000Z</time>
      </trkpt>
      <trkpt lat="42.90508" lon="0.83556">
        <ele>1445</ele>
        <time>2018-12-02T13:04:45.000Z</time>
      </trkpt>
      <trkpt lat="42.90509" lon="0.83557">
        <ele>1444</ele>
        <time>2018-12-02T13:04:48.000Z</time>
      </trkpt>
      <trkpt lat="42.90511" lon="0.83558">
        <ele>1443</ele>
        <time>2018-12-02T13:04:50.000Z</time>
      </trkpt>
      <trkpt lat="42.90511" lon="0.83558">
        <ele>1443</ele>
        <time>2018-12-02T13:04:53.000Z</time>
      </trkpt>
      <trkpt lat="42.90512" lon="0.8356">
        <ele>1443</ele>
        <time>2018-12-02T13:04:56.000Z</time>
      </trkpt>
      <trkpt lat="42.90512" lon="0.83561">
        <ele>1443</ele>
        <time>2018-12-02T13:04:58.000Z</time>
      </trkpt>
      <trkpt lat="42.90513" lon="0.83562">
        <ele>1443</ele>
        <time>2018-12-02T13:05:00.000Z</time>
      </trkpt>
      <trkpt lat="42.90514" lon="0.83562">
        <ele>1442</ele>
        <time>2018-12-02T13:05:02.000Z</time>
      </trkpt>
      <trkpt lat="42.90515" lon="0.83563">
        <ele>1442</ele>
        <time>2018-12-02T13:05:04.000Z</time>
      </trkpt>
      <trkpt lat="42.90516" lon="0.83564">
        <ele>1441</ele>
        <time>2018-12-02T13:05:06.000Z</time>
      </trkpt>
      <trkpt lat="42.90518" lon="0.83565">
        <ele>1441</ele>
        <time>2018-12-02T13:05:08.000Z</time>
      </trkpt>
      <trkpt lat="42.90521" lon="0.83567">
        <ele>1439</ele>
        <time>2018-12-02T13:05:10.000Z</time>
      </trkpt>
      <trkpt lat="42.90523" lon="0.83567">
        <ele>1439</ele>
        <time>2018-12-02T13:05:13.000Z</time>
      </trkpt>
      <trkpt lat="42.90525" lon="0.83568">
        <ele>1438</ele>
        <time>2018-12-02T13:05:15.000Z</time>
      </trkpt>
      <trkpt lat="42.90526" lon="0.8357">
        <ele>1437</ele>
        <time>2018-12-02T13:05:17.000Z</time>
      </trkpt>
      <trkpt lat="42.90528" lon="0.83571">
        <ele>1437</ele>
        <time>2018-12-02T13:05:19.000Z</time>
      </trkpt>
      <trkpt lat="42.90529" lon="0.83573">
        <ele>1436</ele>
        <time>2018-12-02T13:05:21.000Z</time>
      </trkpt>
      <trkpt lat="42.90531" lon="0.83573">
        <ele>1435</ele>
        <time>2018-12-02T13:05:23.000Z</time>
      </trkpt>
      <trkpt lat="42.90532" lon="0.83574">
        <ele>1435</ele>
        <time>2018-12-02T13:05:25.000Z</time>
      </trkpt>
      <trkpt lat="42.90533" lon="0.83575">
        <ele>1434</ele>
        <time>2018-12-02T13:05:27.000Z</time>
      </trkpt>
      <trkpt lat="42.90535" lon="0.83577">
        <ele>1433</ele>
        <time>2018-12-02T13:05:30.000Z</time>
      </trkpt>
      <trkpt lat="42.90538" lon="0.83579">
        <ele>1433</ele>
        <time>2018-12-02T13:05:32.000Z</time>
      </trkpt>
      <trkpt lat="42.90539" lon="0.8358">
        <ele>1432</ele>
        <time>2018-12-02T13:05:34.000Z</time>
      </trkpt>
      <trkpt lat="42.9054" lon="0.8358">
        <ele>1431</ele>
        <time>2018-12-02T13:05:36.000Z</time>
      </trkpt>
      <trkpt lat="42.90541" lon="0.8358">
        <ele>1431</ele>
        <time>2018-12-02T13:05:38.000Z</time>
      </trkpt>
      <trkpt lat="42.90543" lon="0.83581">
        <ele>1430</ele>
        <time>2018-12-02T13:05:41.000Z</time>
      </trkpt>
      <trkpt lat="42.90545" lon="0.83582">
        <ele>1430</ele>
        <time>2018-12-02T13:05:43.000Z</time>
      </trkpt>
      <trkpt lat="42.90547" lon="0.83582">
        <ele>1429</ele>
        <time>2018-12-02T13:05:46.000Z</time>
      </trkpt>
      <trkpt lat="42.90549" lon="0.83582">
        <ele>1428</ele>
        <time>2018-12-02T13:05:48.000Z</time>
      </trkpt>
      <trkpt lat="42.9055" lon="0.83583">
        <ele>1427</ele>
        <time>2018-12-02T13:05:51.000Z</time>
      </trkpt>
      <trkpt lat="42.90552" lon="0.83583">
        <ele>1426</ele>
        <time>2018-12-02T13:05:54.000Z</time>
      </trkpt>
      <trkpt lat="42.90554" lon="0.83584">
        <ele>1426</ele>
        <time>2018-12-02T13:05:56.000Z</time>
      </trkpt>
      <trkpt lat="42.90555" lon="0.83584">
        <ele>1425</ele>
        <time>2018-12-02T13:05:59.000Z</time>
      </trkpt>
      <trkpt lat="42.90555" lon="0.83585">
        <ele>1425</ele>
        <time>2018-12-02T13:06:01.000Z</time>
      </trkpt>
      <trkpt lat="42.90557" lon="0.83587">
        <ele>1424</ele>
        <time>2018-12-02T13:06:03.000Z</time>
      </trkpt>
      <trkpt lat="42.90559" lon="0.83587">
        <ele>1424</ele>
        <time>2018-12-02T13:06:06.000Z</time>
      </trkpt>
      <trkpt lat="42.9056" lon="0.83588">
        <ele>1423</ele>
        <time>2018-12-02T13:06:08.000Z</time>
      </trkpt>
      <trkpt lat="42.90561" lon="0.8359">
        <ele>1423</ele>
        <time>2018-12-02T13:06:10.000Z</time>
      </trkpt>
      <trkpt lat="42.90562" lon="0.83591">
        <ele>1423</ele>
        <time>2018-12-02T13:06:12.000Z</time>
      </trkpt>
      <trkpt lat="42.90562" lon="0.83591">
        <ele>1422</ele>
        <time>2018-12-02T13:06:14.000Z</time>
      </trkpt>
      <trkpt lat="42.90563" lon="0.83591">
        <ele>1422</ele>
        <time>2018-12-02T13:06:16.000Z</time>
      </trkpt>
      <trkpt lat="42.90564" lon="0.83591">
        <ele>1422</ele>
        <time>2018-12-02T13:06:18.000Z</time>
      </trkpt>
      <trkpt lat="42.90565" lon="0.83593">
        <ele>1421</ele>
        <time>2018-12-02T13:06:20.000Z</time>
      </trkpt>
      <trkpt lat="42.90566" lon="0.83593">
        <ele>1421</ele>
        <time>2018-12-02T13:06:22.000Z</time>
      </trkpt>
      <trkpt lat="42.90566" lon="0.83592">
        <ele>1421</ele>
        <time>2018-12-02T13:06:25.000Z</time>
      </trkpt>
      <trkpt lat="42.90567" lon="0.83592">
        <ele>1420</ele>
        <time>2018-12-02T13:06:27.000Z</time>
      </trkpt>
      <trkpt lat="42.90567" lon="0.83591">
        <ele>1420</ele>
        <time>2018-12-02T13:06:29.000Z</time>
      </trkpt>
      <trkpt lat="42.90568" lon="0.8359">
        <ele>1420</ele>
        <time>2018-12-02T13:06:31.000Z</time>
      </trkpt>
      <trkpt lat="42.90569" lon="0.83589">
        <ele>1419</ele>
        <time>2018-12-02T13:06:34.000Z</time>
      </trkpt>
      <trkpt lat="42.9057" lon="0.83588">
        <ele>1419</ele>
        <time>2018-12-02T13:06:36.000Z</time>
      </trkpt>
      <trkpt lat="42.90571" lon="0.83587">
        <ele>1418</ele>
        <time>2018-12-02T13:06:38.000Z</time>
      </trkpt>
      <trkpt lat="42.90574" lon="0.83587">
        <ele>1417</ele>
        <time>2018-12-02T13:06:40.000Z</time>
      </trkpt>
      <trkpt lat="42.90575" lon="0.83586">
        <ele>1416</ele>
        <time>2018-12-02T13:06:43.000Z</time>
      </trkpt>
      <trkpt lat="42.90576" lon="0.83585">
        <ele>1416</ele>
        <time>2018-12-02T13:06:45.000Z</time>
      </trkpt>
      <trkpt lat="42.90579" lon="0.83583">
        <ele>1415</ele>
        <time>2018-12-02T13:06:48.000Z</time>
      </trkpt>
      <trkpt lat="42.9058" lon="0.83582">
        <ele>1414</ele>
        <time>2018-12-02T13:06:50.000Z</time>
      </trkpt>
      <trkpt lat="42.90583" lon="0.83582">
        <ele>1413</ele>
        <time>2018-12-02T13:06:52.000Z</time>
      </trkpt>
      <trkpt lat="42.90584" lon="0.83582">
        <ele>1413</ele>
        <time>2018-12-02T13:06:54.000Z</time>
      </trkpt>
      <trkpt lat="42.90586" lon="0.83583">
        <ele>1412</ele>
        <time>2018-12-02T13:06:56.000Z</time>
      </trkpt>
      <trkpt lat="42.90588" lon="0.83584">
        <ele>1411</ele>
        <time>2018-12-02T13:06:58.000Z</time>
      </trkpt>
      <trkpt lat="42.90589" lon="0.83586">
        <ele>1411</ele>
        <time>2018-12-02T13:07:00.000Z</time>
      </trkpt>
      <trkpt lat="42.9059" lon="0.83587">
        <ele>1410</ele>
        <time>2018-12-02T13:07:02.000Z</time>
      </trkpt>
      <trkpt lat="42.90593" lon="0.83588">
        <ele>1409</ele>
        <time>2018-12-02T13:07:04.000Z</time>
      </trkpt>
      <trkpt lat="42.90594" lon="0.83589">
        <ele>1408</ele>
        <time>2018-12-02T13:07:07.000Z</time>
      </trkpt>
      <trkpt lat="42.90595" lon="0.83591">
        <ele>1408</ele>
        <time>2018-12-02T13:07:09.000Z</time>
      </trkpt>
      <trkpt lat="42.90597" lon="0.83592">
        <ele>1407</ele>
        <time>2018-12-02T13:07:11.000Z</time>
      </trkpt>
      <trkpt lat="42.90599" lon="0.83593">
        <ele>1406</ele>
        <time>2018-12-02T13:07:13.000Z</time>
      </trkpt>
      <trkpt lat="42.906" lon="0.83593">
        <ele>1405</ele>
        <time>2018-12-02T13:07:16.000Z</time>
      </trkpt>
      <trkpt lat="42.90601" lon="0.83594">
        <ele>1405</ele>
        <time>2018-12-02T13:07:18.000Z</time>
      </trkpt>
      <trkpt lat="42.90601" lon="0.83594">
        <ele>1404</ele>
        <time>2018-12-02T13:07:20.000Z</time>
      </trkpt>
      <trkpt lat="42.90602" lon="0.83595">
        <ele>1404</ele>
        <time>2018-12-02T13:07:22.000Z</time>
      </trkpt>
      <trkpt lat="42.90603" lon="0.83596">
        <ele>1404</ele>
        <time>2018-12-02T13:07:24.000Z</time>
      </trkpt>
      <trkpt lat="42.90604" lon="0.83597">
        <ele>1403</ele>
        <time>2018-12-02T13:07:26.000Z</time>
      </trkpt>
      <trkpt lat="42.90606" lon="0.83597">
        <ele>1402</ele>
        <time>2018-12-02T13:07:28.000Z</time>
      </trkpt>
      <trkpt lat="42.90608" lon="0.83598">
        <ele>1401</ele>
        <time>2018-12-02T13:07:30.000Z</time>
      </trkpt>
      <trkpt lat="42.90609" lon="0.83598">
        <ele>1401</ele>
        <time>2018-12-02T13:07:32.000Z</time>
      </trkpt>
      <trkpt lat="42.9061" lon="0.83599">
        <ele>1400</ele>
        <time>2018-12-02T13:07:34.000Z</time>
      </trkpt>
      <trkpt lat="42.90611" lon="0.83599">
        <ele>1400</ele>
        <time>2018-12-02T13:07:36.000Z</time>
      </trkpt>
      <trkpt lat="42.90613" lon="0.83599">
        <ele>1398</ele>
        <time>2018-12-02T13:07:38.000Z</time>
      </trkpt>
      <trkpt lat="42.90615" lon="0.83601">
        <ele>1398</ele>
        <time>2018-12-02T13:07:41.000Z</time>
      </trkpt>
      <trkpt lat="42.90616" lon="0.83602">
        <ele>1397</ele>
        <time>2018-12-02T13:07:43.000Z</time>
      </trkpt>
      <trkpt lat="42.90617" lon="0.83603">
        <ele>1396</ele>
        <time>2018-12-02T13:07:45.000Z</time>
      </trkpt>
      <trkpt lat="42.90618" lon="0.83603">
        <ele>1396</ele>
        <time>2018-12-02T13:07:47.000Z</time>
      </trkpt>
      <trkpt lat="42.9062" lon="0.83604">
        <ele>1395</ele>
        <time>2018-12-02T13:07:50.000Z</time>
      </trkpt>
      <trkpt lat="42.90621" lon="0.83605">
        <ele>1395</ele>
        <time>2018-12-02T13:07:52.000Z</time>
      </trkpt>
      <trkpt lat="42.90622" lon="0.83607">
        <ele>1394</ele>
        <time>2018-12-02T13:07:54.000Z</time>
      </trkpt>
      <trkpt lat="42.90623" lon="0.8361">
        <ele>1394</ele>
        <time>2018-12-02T13:07:56.000Z</time>
      </trkpt>
      <trkpt lat="42.90624" lon="0.83612">
        <ele>1393</ele>
        <time>2018-12-02T13:07:58.000Z</time>
      </trkpt>
      <trkpt lat="42.90625" lon="0.83616">
        <ele>1393</ele>
        <time>2018-12-02T13:08:00.000Z</time>
      </trkpt>
      <trkpt lat="42.90626" lon="0.83619">
        <ele>1392</ele>
        <time>2018-12-02T13:08:02.000Z</time>
      </trkpt>
      <trkpt lat="42.90627" lon="0.83622">
        <ele>1392</ele>
        <time>2018-12-02T13:08:04.000Z</time>
      </trkpt>
      <trkpt lat="42.90628" lon="0.83626">
        <ele>1392</ele>
        <time>2018-12-02T13:08:06.000Z</time>
      </trkpt>
      <trkpt lat="42.9063" lon="0.83629">
        <ele>1391</ele>
        <time>2018-12-02T13:08:08.000Z</time>
      </trkpt>
      <trkpt lat="42.90632" lon="0.83631">
        <ele>1390</ele>
        <time>2018-12-02T13:08:11.000Z</time>
      </trkpt>
      <trkpt lat="42.90633" lon="0.83634">
        <ele>1389</ele>
        <time>2018-12-02T13:08:13.000Z</time>
      </trkpt>
      <trkpt lat="42.90634" lon="0.83638">
        <ele>1389</ele>
        <time>2018-12-02T13:08:15.000Z</time>
      </trkpt>
      <trkpt lat="42.90635" lon="0.83641">
        <ele>1388</ele>
        <time>2018-12-02T13:08:18.000Z</time>
      </trkpt>
      <trkpt lat="42.90636" lon="0.83643">
        <ele>1388</ele>
        <time>2018-12-02T13:08:21.000Z</time>
      </trkpt>
      <trkpt lat="42.90636" lon="0.83646">
        <ele>1388</ele>
        <time>2018-12-02T13:08:23.000Z</time>
      </trkpt>
      <trkpt lat="42.90637" lon="0.83648">
        <ele>1388</ele>
        <time>2018-12-02T13:08:26.000Z</time>
      </trkpt>
      <trkpt lat="42.90639" lon="0.83651">
        <ele>1387</ele>
        <time>2018-12-02T13:08:29.000Z</time>
      </trkpt>
      <trkpt lat="42.9064" lon="0.83653">
        <ele>1386</ele>
        <time>2018-12-02T13:08:32.000Z</time>
      </trkpt>
      <trkpt lat="42.90641" lon="0.83654">
        <ele>1386</ele>
        <time>2018-12-02T13:08:34.000Z</time>
      </trkpt>
      <trkpt lat="42.90643" lon="0.83656">
        <ele>1385</ele>
        <time>2018-12-02T13:08:38.000Z</time>
      </trkpt>
      <trkpt lat="42.90643" lon="0.83659">
        <ele>1385</ele>
        <time>2018-12-02T13:08:40.000Z</time>
      </trkpt>
      <trkpt lat="42.90644" lon="0.8366">
        <ele>1385</ele>
        <time>2018-12-02T13:08:43.000Z</time>
      </trkpt>
      <trkpt lat="42.90644" lon="0.83663">
        <ele>1384</ele>
        <time>2018-12-02T13:08:45.000Z</time>
      </trkpt>
      <trkpt lat="42.90645" lon="0.83666">
        <ele>1384</ele>
        <time>2018-12-02T13:08:47.000Z</time>
      </trkpt>
      <trkpt lat="42.90646" lon="0.83669">
        <ele>1383</ele>
        <time>2018-12-02T13:08:50.000Z</time>
      </trkpt>
      <trkpt lat="42.90647" lon="0.83672">
        <ele>1383</ele>
        <time>2018-12-02T13:08:53.000Z</time>
      </trkpt>
      <trkpt lat="42.90648" lon="0.83674">
        <ele>1383</ele>
        <time>2018-12-02T13:08:55.000Z</time>
      </trkpt>
      <trkpt lat="42.9065" lon="0.83677">
        <ele>1382</ele>
        <time>2018-12-02T13:08:57.000Z</time>
      </trkpt>
      <trkpt lat="42.90651" lon="0.83682">
        <ele>1381</ele>
        <time>2018-12-02T13:09:00.000Z</time>
      </trkpt>
      <trkpt lat="42.90653" lon="0.83685">
        <ele>1381</ele>
        <time>2018-12-02T13:09:02.000Z</time>
      </trkpt>
      <trkpt lat="42.90653" lon="0.83689">
        <ele>1380</ele>
        <time>2018-12-02T13:09:04.000Z</time>
      </trkpt>
      <trkpt lat="42.90654" lon="0.83691">
        <ele>1380</ele>
        <time>2018-12-02T13:09:07.000Z</time>
      </trkpt>
      <trkpt lat="42.90656" lon="0.83694">
        <ele>1379</ele>
        <time>2018-12-02T13:09:09.000Z</time>
      </trkpt>
      <trkpt lat="42.90657" lon="0.83697">
        <ele>1379</ele>
        <time>2018-12-02T13:09:13.000Z</time>
      </trkpt>
      <trkpt lat="42.90659" lon="0.837">
        <ele>1378</ele>
        <time>2018-12-02T13:09:15.000Z</time>
      </trkpt>
      <trkpt lat="42.90659" lon="0.83701">
        <ele>1378</ele>
        <time>2018-12-02T13:09:18.000Z</time>
      </trkpt>
      <trkpt lat="42.9066" lon="0.83703">
        <ele>1377</ele>
        <time>2018-12-02T13:09:20.000Z</time>
      </trkpt>
      <trkpt lat="42.9066" lon="0.83705">
        <ele>1377</ele>
        <time>2018-12-02T13:09:22.000Z</time>
      </trkpt>
      <trkpt lat="42.90661" lon="0.83707">
        <ele>1377</ele>
        <time>2018-12-02T13:09:24.000Z</time>
      </trkpt>
      <trkpt lat="42.90662" lon="0.83708">
        <ele>1377</ele>
        <time>2018-12-02T13:09:26.000Z</time>
      </trkpt>
      <trkpt lat="42.90663" lon="0.83709">
        <ele>1376</ele>
        <time>2018-12-02T13:09:29.000Z</time>
      </trkpt>
      <trkpt lat="42.90663" lon="0.8371">
        <ele>1376</ele>
        <time>2018-12-02T13:09:31.000Z</time>
      </trkpt>
      <trkpt lat="42.90664" lon="0.83712">
        <ele>1375</ele>
        <time>2018-12-02T13:09:33.000Z</time>
      </trkpt>
      <trkpt lat="42.90665" lon="0.83713">
        <ele>1375</ele>
        <time>2018-12-02T13:09:36.000Z</time>
      </trkpt>
      <trkpt lat="42.90666" lon="0.83714">
        <ele>1375</ele>
        <time>2018-12-02T13:09:38.000Z</time>
      </trkpt>
      <trkpt lat="42.90667" lon="0.83716">
        <ele>1374</ele>
        <time>2018-12-02T13:09:40.000Z</time>
      </trkpt>
      <trkpt lat="42.90667" lon="0.83717">
        <ele>1374</ele>
        <time>2018-12-02T13:09:43.000Z</time>
      </trkpt>
      <trkpt lat="42.90668" lon="0.83718">
        <ele>1374</ele>
        <time>2018-12-02T13:09:45.000Z</time>
      </trkpt>
      <trkpt lat="42.90668" lon="0.8372">
        <ele>1374</ele>
        <time>2018-12-02T13:09:47.000Z</time>
      </trkpt>
      <trkpt lat="42.90668" lon="0.83722">
        <ele>1375</ele>
        <time>2018-12-02T13:09:49.000Z</time>
      </trkpt>
      <trkpt lat="42.90668" lon="0.83724">
        <ele>1375</ele>
        <time>2018-12-02T13:09:51.000Z</time>
      </trkpt>
      <trkpt lat="42.90669" lon="0.83725">
        <ele>1374</ele>
        <time>2018-12-02T13:09:53.000Z</time>
      </trkpt>
      <trkpt lat="42.90669" lon="0.83726">
        <ele>1374</ele>
        <time>2018-12-02T13:09:55.000Z</time>
      </trkpt>
      <trkpt lat="42.9067" lon="0.83727">
        <ele>1374</ele>
        <time>2018-12-02T13:09:57.000Z</time>
      </trkpt>
      <trkpt lat="42.90671" lon="0.83728">
        <ele>1373</ele>
        <time>2018-12-02T13:09:59.000Z</time>
      </trkpt>
      <trkpt lat="42.90672" lon="0.83729">
        <ele>1373</ele>
        <time>2018-12-02T13:10:01.000Z</time>
      </trkpt>
      <trkpt lat="42.90673" lon="0.8373">
        <ele>1372</ele>
        <time>2018-12-02T13:10:03.000Z</time>
      </trkpt>
      <trkpt lat="42.90674" lon="0.83731">
        <ele>1372</ele>
        <time>2018-12-02T13:10:05.000Z</time>
      </trkpt>
      <trkpt lat="42.90674" lon="0.83731">
        <ele>1372</ele>
        <time>2018-12-02T13:10:07.000Z</time>
      </trkpt>
      <trkpt lat="42.90675" lon="0.83734">
        <ele>1372</ele>
        <time>2018-12-02T13:10:09.000Z</time>
      </trkpt>
      <trkpt lat="42.90675" lon="0.83735">
        <ele>1371</ele>
        <time>2018-12-02T13:10:11.000Z</time>
      </trkpt>
      <trkpt lat="42.90676" lon="0.83736">
        <ele>1371</ele>
        <time>2018-12-02T13:10:13.000Z</time>
      </trkpt>
      <trkpt lat="42.90677" lon="0.83738">
        <ele>1371</ele>
        <time>2018-12-02T13:10:15.000Z</time>
      </trkpt>
      <trkpt lat="42.90677" lon="0.8374">
        <ele>1371</ele>
        <time>2018-12-02T13:10:17.000Z</time>
      </trkpt>
      <trkpt lat="42.90677" lon="0.83741">
        <ele>1371</ele>
        <time>2018-12-02T13:10:19.000Z</time>
      </trkpt>
      <trkpt lat="42.90678" lon="0.83742">
        <ele>1371</ele>
        <time>2018-12-02T13:10:21.000Z</time>
      </trkpt>
      <trkpt lat="42.90679" lon="0.83744">
        <ele>1370</ele>
        <time>2018-12-02T13:10:23.000Z</time>
      </trkpt>
      <trkpt lat="42.9068" lon="0.83745">
        <ele>1370</ele>
        <time>2018-12-02T13:10:25.000Z</time>
      </trkpt>
      <trkpt lat="42.90681" lon="0.83746">
        <ele>1369</ele>
        <time>2018-12-02T13:10:27.000Z</time>
      </trkpt>
      <trkpt lat="42.90682" lon="0.83747">
        <ele>1369</ele>
        <time>2018-12-02T13:10:29.000Z</time>
      </trkpt>
      <trkpt lat="42.90683" lon="0.83749">
        <ele>1368</ele>
        <time>2018-12-02T13:10:31.000Z</time>
      </trkpt>
      <trkpt lat="42.90685" lon="0.8375">
        <ele>1367</ele>
        <time>2018-12-02T13:10:33.000Z</time>
      </trkpt>
      <trkpt lat="42.90686" lon="0.83751">
        <ele>1366</ele>
        <time>2018-12-02T13:10:35.000Z</time>
      </trkpt>
      <trkpt lat="42.90688" lon="0.83753">
        <ele>1365</ele>
        <time>2018-12-02T13:10:38.000Z</time>
      </trkpt>
      <trkpt lat="42.9069" lon="0.83756">
        <ele>1364</ele>
        <time>2018-12-02T13:10:41.000Z</time>
      </trkpt>
      <trkpt lat="42.90691" lon="0.83757">
        <ele>1364</ele>
        <time>2018-12-02T13:10:44.000Z</time>
      </trkpt>
      <trkpt lat="42.90693" lon="0.8376">
        <ele>1363</ele>
        <time>2018-12-02T13:10:46.000Z</time>
      </trkpt>
      <trkpt lat="42.90693" lon="0.83762">
        <ele>1363</ele>
        <time>2018-12-02T13:10:49.000Z</time>
      </trkpt>
      <trkpt lat="42.90694" lon="0.83763">
        <ele>1362</ele>
        <time>2018-12-02T13:10:51.000Z</time>
      </trkpt>
      <trkpt lat="42.90696" lon="0.83765">
        <ele>1361</ele>
        <time>2018-12-02T13:10:54.000Z</time>
      </trkpt>
      <trkpt lat="42.90698" lon="0.83766">
        <ele>1361</ele>
        <time>2018-12-02T13:10:56.000Z</time>
      </trkpt>
      <trkpt lat="42.90699" lon="0.83769">
        <ele>1360</ele>
        <time>2018-12-02T13:10:58.000Z</time>
      </trkpt>
      <trkpt lat="42.907" lon="0.8377">
        <ele>1359</ele>
        <time>2018-12-02T13:11:00.000Z</time>
      </trkpt>
      <trkpt lat="42.90701" lon="0.83771">
        <ele>1359</ele>
        <time>2018-12-02T13:11:02.000Z</time>
      </trkpt>
      <trkpt lat="42.90701" lon="0.83773">
        <ele>1359</ele>
        <time>2018-12-02T13:11:04.000Z</time>
      </trkpt>
      <trkpt lat="42.90702" lon="0.83775">
        <ele>1359</ele>
        <time>2018-12-02T13:11:06.000Z</time>
      </trkpt>
      <trkpt lat="42.90702" lon="0.83776">
        <ele>1359</ele>
        <time>2018-12-02T13:11:08.000Z</time>
      </trkpt>
      <trkpt lat="42.90703" lon="0.83779">
        <ele>1359</ele>
        <time>2018-12-02T13:11:10.000Z</time>
      </trkpt>
      <trkpt lat="42.90704" lon="0.8378">
        <ele>1358</ele>
        <time>2018-12-02T13:11:12.000Z</time>
      </trkpt>
      <trkpt lat="42.90705" lon="0.83783">
        <ele>1358</ele>
        <time>2018-12-02T13:11:14.000Z</time>
      </trkpt>
      <trkpt lat="42.90706" lon="0.83786">
        <ele>1357</ele>
        <time>2018-12-02T13:11:16.000Z</time>
      </trkpt>
      <trkpt lat="42.90708" lon="0.83788">
        <ele>1357</ele>
        <time>2018-12-02T13:11:18.000Z</time>
      </trkpt>
      <trkpt lat="42.90709" lon="0.83791">
        <ele>1356</ele>
        <time>2018-12-02T13:11:20.000Z</time>
      </trkpt>
      <trkpt lat="42.90711" lon="0.83792">
        <ele>1355</ele>
        <time>2018-12-02T13:11:22.000Z</time>
      </trkpt>
      <trkpt lat="42.90712" lon="0.83793">
        <ele>1355</ele>
        <time>2018-12-02T13:11:24.000Z</time>
      </trkpt>
      <trkpt lat="42.90713" lon="0.83795">
        <ele>1354</ele>
        <time>2018-12-02T13:11:26.000Z</time>
      </trkpt>
      <trkpt lat="42.90713" lon="0.83796">
        <ele>1354</ele>
        <time>2018-12-02T13:11:29.000Z</time>
      </trkpt>
      <trkpt lat="42.90714" lon="0.83797">
        <ele>1354</ele>
        <time>2018-12-02T13:11:31.000Z</time>
      </trkpt>
      <trkpt lat="42.90715" lon="0.83798">
        <ele>1353</ele>
        <time>2018-12-02T13:11:33.000Z</time>
      </trkpt>
      <trkpt lat="42.90716" lon="0.83799">
        <ele>1353</ele>
        <time>2018-12-02T13:11:35.000Z</time>
      </trkpt>
      <trkpt lat="42.90716" lon="0.838">
        <ele>1353</ele>
        <time>2018-12-02T13:11:37.000Z</time>
      </trkpt>
      <trkpt lat="42.90717" lon="0.838">
        <ele>1352</ele>
        <time>2018-12-02T13:11:39.000Z</time>
      </trkpt>
      <trkpt lat="42.90717" lon="0.838">
        <ele>1352</ele>
        <time>2018-12-02T13:11:42.000Z</time>
      </trkpt>
      <trkpt lat="42.90718" lon="0.838">
        <ele>1352</ele>
        <time>2018-12-02T13:11:44.000Z</time>
      </trkpt>
      <trkpt lat="42.90718" lon="0.83801">
        <ele>1352</ele>
        <time>2018-12-02T13:11:46.000Z</time>
      </trkpt>
      <trkpt lat="42.90718" lon="0.83803">
        <ele>1352</ele>
        <time>2018-12-02T13:11:48.000Z</time>
      </trkpt>
      <trkpt lat="42.90719" lon="0.83804">
        <ele>1351</ele>
        <time>2018-12-02T13:11:51.000Z</time>
      </trkpt>
      <trkpt lat="42.90721" lon="0.83805">
        <ele>1350</ele>
        <time>2018-12-02T13:11:53.000Z</time>
      </trkpt>
      <trkpt lat="42.90722" lon="0.83807">
        <ele>1350</ele>
        <time>2018-12-02T13:11:55.000Z</time>
      </trkpt>
      <trkpt lat="42.90723" lon="0.83808">
        <ele>1349</ele>
        <time>2018-12-02T13:11:57.000Z</time>
      </trkpt>
      <trkpt lat="42.90724" lon="0.83809">
        <ele>1349</ele>
        <time>2018-12-02T13:11:59.000Z</time>
      </trkpt>
      <trkpt lat="42.90725" lon="0.83811">
        <ele>1349</ele>
        <time>2018-12-02T13:12:01.000Z</time>
      </trkpt>
      <trkpt lat="42.90726" lon="0.83812">
        <ele>1348</ele>
        <time>2018-12-02T13:12:03.000Z</time>
      </trkpt>
      <trkpt lat="42.90726" lon="0.83813">
        <ele>1348</ele>
        <time>2018-12-02T13:12:05.000Z</time>
      </trkpt>
      <trkpt lat="42.90728" lon="0.83814">
        <ele>1347</ele>
        <time>2018-12-02T13:12:07.000Z</time>
      </trkpt>
      <trkpt lat="42.90728" lon="0.83815">
        <ele>1347</ele>
        <time>2018-12-02T13:12:09.000Z</time>
      </trkpt>
      <trkpt lat="42.9073" lon="0.83817">
        <ele>1346</ele>
        <time>2018-12-02T13:12:11.000Z</time>
      </trkpt>
      <trkpt lat="42.90732" lon="0.83819">
        <ele>1346</ele>
        <time>2018-12-02T13:12:13.000Z</time>
      </trkpt>
      <trkpt lat="42.90733" lon="0.8382">
        <ele>1345</ele>
        <time>2018-12-02T13:12:15.000Z</time>
      </trkpt>
      <trkpt lat="42.90734" lon="0.83821">
        <ele>1345</ele>
        <time>2018-12-02T13:12:17.000Z</time>
      </trkpt>
      <trkpt lat="42.90736" lon="0.83823">
        <ele>1344</ele>
        <time>2018-12-02T13:12:19.000Z</time>
      </trkpt>
      <trkpt lat="42.90737" lon="0.83825">
        <ele>1344</ele>
        <time>2018-12-02T13:12:21.000Z</time>
      </trkpt>
      <trkpt lat="42.90737" lon="0.83826">
        <ele>1344</ele>
        <time>2018-12-02T13:12:23.000Z</time>
      </trkpt>
      <trkpt lat="42.90737" lon="0.83827">
        <ele>1344</ele>
        <time>2018-12-02T13:12:25.000Z</time>
      </trkpt>
      <trkpt lat="42.90738" lon="0.83827">
        <ele>1343</ele>
        <time>2018-12-02T13:12:27.000Z</time>
      </trkpt>
      <trkpt lat="42.90739" lon="0.83828">
        <ele>1343</ele>
        <time>2018-12-02T13:12:29.000Z</time>
      </trkpt>
      <trkpt lat="42.9074" lon="0.83828">
        <ele>1342</ele>
        <time>2018-12-02T13:12:31.000Z</time>
      </trkpt>
      <trkpt lat="42.9074" lon="0.83829">
        <ele>1342</ele>
        <time>2018-12-02T13:12:33.000Z</time>
      </trkpt>
      <trkpt lat="42.90741" lon="0.83829">
        <ele>1342</ele>
        <time>2018-12-02T13:12:35.000Z</time>
      </trkpt>
      <trkpt lat="42.90742" lon="0.8383">
        <ele>1341</ele>
        <time>2018-12-02T13:12:37.000Z</time>
      </trkpt>
      <trkpt lat="42.90743" lon="0.83831">
        <ele>1341</ele>
        <time>2018-12-02T13:12:39.000Z</time>
      </trkpt>
      <trkpt lat="42.90744" lon="0.83832">
        <ele>1341</ele>
        <time>2018-12-02T13:12:41.000Z</time>
      </trkpt>
      <trkpt lat="42.90744" lon="0.83834">
        <ele>1340</ele>
        <time>2018-12-02T13:12:43.000Z</time>
      </trkpt>
      <trkpt lat="42.90745" lon="0.83835">
        <ele>1340</ele>
        <time>2018-12-02T13:12:45.000Z</time>
      </trkpt>
      <trkpt lat="42.90745" lon="0.83837">
        <ele>1340</ele>
        <time>2018-12-02T13:12:47.000Z</time>
      </trkpt>
      <trkpt lat="42.90746" lon="0.83838">
        <ele>1340</ele>
        <time>2018-12-02T13:12:49.000Z</time>
      </trkpt>
      <trkpt lat="42.90747" lon="0.83838">
        <ele>1340</ele>
        <time>2018-12-02T13:12:51.000Z</time>
      </trkpt>
      <trkpt lat="42.90748" lon="0.83839">
        <ele>1339</ele>
        <time>2018-12-02T13:12:54.000Z</time>
      </trkpt>
      <trkpt lat="42.90749" lon="0.83841">
        <ele>1339</ele>
        <time>2018-12-02T13:12:56.000Z</time>
      </trkpt>
      <trkpt lat="42.90749" lon="0.83842">
        <ele>1339</ele>
        <time>2018-12-02T13:12:58.000Z</time>
      </trkpt>
      <trkpt lat="42.9075" lon="0.83843">
        <ele>1339</ele>
        <time>2018-12-02T13:13:00.000Z</time>
      </trkpt>
      <trkpt lat="42.90751" lon="0.83845">
        <ele>1338</ele>
        <time>2018-12-02T13:13:02.000Z</time>
      </trkpt>
      <trkpt lat="42.90752" lon="0.83847">
        <ele>1338</ele>
        <time>2018-12-02T13:13:04.000Z</time>
      </trkpt>
      <trkpt lat="42.90753" lon="0.83848">
        <ele>1337</ele>
        <time>2018-12-02T13:13:06.000Z</time>
      </trkpt>
      <trkpt lat="42.90754" lon="0.83849">
        <ele>1337</ele>
        <time>2018-12-02T13:13:08.000Z</time>
      </trkpt>
      <trkpt lat="42.90755" lon="0.83851">
        <ele>1337</ele>
        <time>2018-12-02T13:13:10.000Z</time>
      </trkpt>
      <trkpt lat="42.90756" lon="0.83853">
        <ele>1337</ele>
        <time>2018-12-02T13:13:12.000Z</time>
      </trkpt>
      <trkpt lat="42.90757" lon="0.83854">
        <ele>1337</ele>
        <time>2018-12-02T13:13:15.000Z</time>
      </trkpt>
      <trkpt lat="42.90757" lon="0.83855">
        <ele>1336</ele>
        <time>2018-12-02T13:13:17.000Z</time>
      </trkpt>
      <trkpt lat="42.90759" lon="0.83856">
        <ele>1336</ele>
        <time>2018-12-02T13:13:19.000Z</time>
      </trkpt>
      <trkpt lat="42.90759" lon="0.83857">
        <ele>1335</ele>
        <time>2018-12-02T13:13:21.000Z</time>
      </trkpt>
      <trkpt lat="42.90761" lon="0.83859">
        <ele>1335</ele>
        <time>2018-12-02T13:13:23.000Z</time>
      </trkpt>
      <trkpt lat="42.90762" lon="0.83859">
        <ele>1334</ele>
        <time>2018-12-02T13:13:26.000Z</time>
      </trkpt>
      <trkpt lat="42.90763" lon="0.8386">
        <ele>1334</ele>
        <time>2018-12-02T13:13:28.000Z</time>
      </trkpt>
      <trkpt lat="42.90765" lon="0.83862">
        <ele>1333</ele>
        <time>2018-12-02T13:13:30.000Z</time>
      </trkpt>
      <trkpt lat="42.90766" lon="0.83864">
        <ele>1333</ele>
        <time>2018-12-02T13:13:32.000Z</time>
      </trkpt>
      <trkpt lat="42.90767" lon="0.83866">
        <ele>1333</ele>
        <time>2018-12-02T13:13:34.000Z</time>
      </trkpt>
      <trkpt lat="42.90768" lon="0.83867">
        <ele>1332</ele>
        <time>2018-12-02T13:13:36.000Z</time>
      </trkpt>
      <trkpt lat="42.90768" lon="0.83868">
        <ele>1332</ele>
        <time>2018-12-02T13:13:38.000Z</time>
      </trkpt>
      <trkpt lat="42.90769" lon="0.83869">
        <ele>1332</ele>
        <time>2018-12-02T13:13:40.000Z</time>
      </trkpt>
      <trkpt lat="42.9077" lon="0.8387">
        <ele>1331</ele>
        <time>2018-12-02T13:13:42.000Z</time>
      </trkpt>
      <trkpt lat="42.90771" lon="0.83871">
        <ele>1331</ele>
        <time>2018-12-02T13:13:44.000Z</time>
      </trkpt>
      <trkpt lat="42.90772" lon="0.83872">
        <ele>1331</ele>
        <time>2018-12-02T13:13:46.000Z</time>
      </trkpt>
      <trkpt lat="42.90773" lon="0.83874">
        <ele>1330</ele>
        <time>2018-12-02T13:13:48.000Z</time>
      </trkpt>
      <trkpt lat="42.90774" lon="0.83875">
        <ele>1329</ele>
        <time>2018-12-02T13:13:50.000Z</time>
      </trkpt>
      <trkpt lat="42.90776" lon="0.83876">
        <ele>1329</ele>
        <time>2018-12-02T13:13:52.000Z</time>
      </trkpt>
      <trkpt lat="42.90777" lon="0.83877">
        <ele>1328</ele>
        <time>2018-12-02T13:13:54.000Z</time>
      </trkpt>
      <trkpt lat="42.90779" lon="0.83878">
        <ele>1327</ele>
        <time>2018-12-02T13:13:56.000Z</time>
      </trkpt>
      <trkpt lat="42.90779" lon="0.83878">
        <ele>1327</ele>
        <time>2018-12-02T13:13:58.000Z</time>
      </trkpt>
      <trkpt lat="42.9078" lon="0.83879">
        <ele>1327</ele>
        <time>2018-12-02T13:14:00.000Z</time>
      </trkpt>
      <trkpt lat="42.9078" lon="0.83881">
        <ele>1327</ele>
        <time>2018-12-02T13:14:02.000Z</time>
      </trkpt>
      <trkpt lat="42.90781" lon="0.83882">
        <ele>1327</ele>
        <time>2018-12-02T13:14:04.000Z</time>
      </trkpt>
      <trkpt lat="42.90781" lon="0.83883">
        <ele>1327</ele>
        <time>2018-12-02T13:14:06.000Z</time>
      </trkpt>
      <trkpt lat="42.90782" lon="0.83884">
        <ele>1326</ele>
        <time>2018-12-02T13:14:08.000Z</time>
      </trkpt>
      <trkpt lat="42.90783" lon="0.83885">
        <ele>1326</ele>
        <time>2018-12-02T13:14:10.000Z</time>
      </trkpt>
      <trkpt lat="42.90784" lon="0.83887">
        <ele>1326</ele>
        <time>2018-12-02T13:14:12.000Z</time>
      </trkpt>
      <trkpt lat="42.90784" lon="0.83888">
        <ele>1326</ele>
        <time>2018-12-02T13:14:15.000Z</time>
      </trkpt>
      <trkpt lat="42.90784" lon="0.83888">
        <ele>1326</ele>
        <time>2018-12-02T13:14:17.000Z</time>
      </trkpt>
      <trkpt lat="42.90784" lon="0.83888">
        <ele>1326</ele>
        <time>2018-12-02T13:14:19.000Z</time>
      </trkpt>
      <trkpt lat="42.90784" lon="0.83888">
        <ele>1326</ele>
        <time>2018-12-02T13:14:21.000Z</time>
      </trkpt>
      <trkpt lat="42.90786" lon="0.83891">
        <ele>1325</ele>
        <time>2018-12-02T13:14:23.000Z</time>
      </trkpt>
      <trkpt lat="42.90787" lon="0.83892">
        <ele>1325</ele>
        <time>2018-12-02T13:14:25.000Z</time>
      </trkpt>
      <trkpt lat="42.90788" lon="0.83893">
        <ele>1325</ele>
        <time>2018-12-02T13:14:27.000Z</time>
      </trkpt>
      <trkpt lat="42.90789" lon="0.83893">
        <ele>1324</ele>
        <time>2018-12-02T13:14:29.000Z</time>
      </trkpt>
      <trkpt lat="42.9079" lon="0.83895">
        <ele>1323</ele>
        <time>2018-12-02T13:14:31.000Z</time>
      </trkpt>
      <trkpt lat="42.90791" lon="0.83896">
        <ele>1323</ele>
        <time>2018-12-02T13:14:33.000Z</time>
      </trkpt>
      <trkpt lat="42.90792" lon="0.83897">
        <ele>1323</ele>
        <time>2018-12-02T13:14:35.000Z</time>
      </trkpt>
      <trkpt lat="42.90793" lon="0.83898">
        <ele>1323</ele>
        <time>2018-12-02T13:14:37.000Z</time>
      </trkpt>
      <trkpt lat="42.90793" lon="0.83899">
        <ele>1323</ele>
        <time>2018-12-02T13:14:39.000Z</time>
      </trkpt>
      <trkpt lat="42.90794" lon="0.83901">
        <ele>1323</ele>
        <time>2018-12-02T13:14:41.000Z</time>
      </trkpt>
      <trkpt lat="42.90795" lon="0.83902">
        <ele>1323</ele>
        <time>2018-12-02T13:14:43.000Z</time>
      </trkpt>
      <trkpt lat="42.90796" lon="0.83903">
        <ele>1322</ele>
        <time>2018-12-02T13:14:45.000Z</time>
      </trkpt>
      <trkpt lat="42.90797" lon="0.83904">
        <ele>1322</ele>
        <time>2018-12-02T13:14:47.000Z</time>
      </trkpt>
      <trkpt lat="42.90798" lon="0.83906">
        <ele>1321</ele>
        <time>2018-12-02T13:14:49.000Z</time>
      </trkpt>
      <trkpt lat="42.90799" lon="0.83906">
        <ele>1321</ele>
        <time>2018-12-02T13:14:51.000Z</time>
      </trkpt>
      <trkpt lat="42.908" lon="0.83907">
        <ele>1321</ele>
        <time>2018-12-02T13:14:53.000Z</time>
      </trkpt>
      <trkpt lat="42.90801" lon="0.83908">
        <ele>1320</ele>
        <time>2018-12-02T13:14:55.000Z</time>
      </trkpt>
      <trkpt lat="42.90802" lon="0.83909">
        <ele>1320</ele>
        <time>2018-12-02T13:14:57.000Z</time>
      </trkpt>
      <trkpt lat="42.90804" lon="0.83911">
        <ele>1319</ele>
        <time>2018-12-02T13:14:59.000Z</time>
      </trkpt>
      <trkpt lat="42.90807" lon="0.83913">
        <ele>1318</ele>
        <time>2018-12-02T13:15:02.000Z</time>
      </trkpt>
      <trkpt lat="42.90808" lon="0.83915">
        <ele>1317</ele>
        <time>2018-12-02T13:15:04.000Z</time>
      </trkpt>
      <trkpt lat="42.9081" lon="0.83918">
        <ele>1317</ele>
        <time>2018-12-02T13:15:06.000Z</time>
      </trkpt>
      <trkpt lat="42.90811" lon="0.8392">
        <ele>1317</ele>
        <time>2018-12-02T13:15:08.000Z</time>
      </trkpt>
      <trkpt lat="42.90812" lon="0.83922">
        <ele>1317</ele>
        <time>2018-12-02T13:15:10.000Z</time>
      </trkpt>
      <trkpt lat="42.90814" lon="0.83924">
        <ele>1316</ele>
        <time>2018-12-02T13:15:12.000Z</time>
      </trkpt>
      <trkpt lat="42.90815" lon="0.83927">
        <ele>1316</ele>
        <time>2018-12-02T13:15:14.000Z</time>
      </trkpt>
      <trkpt lat="42.90816" lon="0.83929">
        <ele>1316</ele>
        <time>2018-12-02T13:15:16.000Z</time>
      </trkpt>
      <trkpt lat="42.90817" lon="0.83931">
        <ele>1316</ele>
        <time>2018-12-02T13:15:18.000Z</time>
      </trkpt>
      <trkpt lat="42.90819" lon="0.83934">
        <ele>1316</ele>
        <time>2018-12-02T13:15:20.000Z</time>
      </trkpt>
      <trkpt lat="42.90819" lon="0.83937">
        <ele>1316</ele>
        <time>2018-12-02T13:15:22.000Z</time>
      </trkpt>
      <trkpt lat="42.90821" lon="0.8394">
        <ele>1316</ele>
        <time>2018-12-02T13:15:24.000Z</time>
      </trkpt>
      <trkpt lat="42.90822" lon="0.83942">
        <ele>1315</ele>
        <time>2018-12-02T13:15:26.000Z</time>
      </trkpt>
      <trkpt lat="42.90823" lon="0.83944">
        <ele>1315</ele>
        <time>2018-12-02T13:15:28.000Z</time>
      </trkpt>
      <trkpt lat="42.90825" lon="0.83946">
        <ele>1315</ele>
        <time>2018-12-02T13:15:30.000Z</time>
      </trkpt>
      <trkpt lat="42.90826" lon="0.83948">
        <ele>1315</ele>
        <time>2018-12-02T13:15:32.000Z</time>
      </trkpt>
      <trkpt lat="42.90828" lon="0.83951">
        <ele>1314</ele>
        <time>2018-12-02T13:15:35.000Z</time>
      </trkpt>
      <trkpt lat="42.90829" lon="0.83953">
        <ele>1314</ele>
        <time>2018-12-02T13:15:37.000Z</time>
      </trkpt>
      <trkpt lat="42.90831" lon="0.83956">
        <ele>1313</ele>
        <time>2018-12-02T13:15:39.000Z</time>
      </trkpt>
      <trkpt lat="42.90834" lon="0.8396">
        <ele>1313</ele>
        <time>2018-12-02T13:15:41.000Z</time>
      </trkpt>
      <trkpt lat="42.90835" lon="0.83962">
        <ele>1313</ele>
        <time>2018-12-02T13:15:44.000Z</time>
      </trkpt>
      <trkpt lat="42.90835" lon="0.83964">
        <ele>1313</ele>
        <time>2018-12-02T13:15:46.000Z</time>
      </trkpt>
      <trkpt lat="42.90837" lon="0.83966">
        <ele>1313</ele>
        <time>2018-12-02T13:15:48.000Z</time>
      </trkpt>
      <trkpt lat="42.90838" lon="0.83968">
        <ele>1313</ele>
        <time>2018-12-02T13:15:50.000Z</time>
      </trkpt>
      <trkpt lat="42.90839" lon="0.83971">
        <ele>1312</ele>
        <time>2018-12-02T13:15:52.000Z</time>
      </trkpt>
      <trkpt lat="42.90841" lon="0.83973">
        <ele>1312</ele>
        <time>2018-12-02T13:15:54.000Z</time>
      </trkpt>
      <trkpt lat="42.90842" lon="0.83975">
        <ele>1312</ele>
        <time>2018-12-02T13:15:56.000Z</time>
      </trkpt>
      <trkpt lat="42.90843" lon="0.83977">
        <ele>1312</ele>
        <time>2018-12-02T13:15:58.000Z</time>
      </trkpt>
      <trkpt lat="42.90844" lon="0.8398">
        <ele>1312</ele>
        <time>2018-12-02T13:16:00.000Z</time>
      </trkpt>
      <trkpt lat="42.90846" lon="0.83981">
        <ele>1312</ele>
        <time>2018-12-02T13:16:02.000Z</time>
      </trkpt>
      <trkpt lat="42.90846" lon="0.83983">
        <ele>1311</ele>
        <time>2018-12-02T13:16:04.000Z</time>
      </trkpt>
      <trkpt lat="42.90848" lon="0.83983">
        <ele>1311</ele>
        <time>2018-12-02T13:16:06.000Z</time>
      </trkpt>
      <trkpt lat="42.90848" lon="0.83982">
        <ele>1310</ele>
        <time>2018-12-02T13:16:08.000Z</time>
      </trkpt>
      <trkpt lat="42.90848" lon="0.83979">
        <ele>1310</ele>
        <time>2018-12-02T13:16:10.000Z</time>
      </trkpt>
      <trkpt lat="42.90846" lon="0.83975">
        <ele>1310</ele>
        <time>2018-12-02T13:16:12.000Z</time>
      </trkpt>
      <trkpt lat="42.90843" lon="0.8397">
        <ele>1310</ele>
        <time>2018-12-02T13:16:15.000Z</time>
      </trkpt>
      <trkpt lat="42.90841" lon="0.83967">
        <ele>1310</ele>
        <time>2018-12-02T13:16:18.000Z</time>
      </trkpt>
      <trkpt lat="42.90839" lon="0.83963">
        <ele>1310</ele>
        <time>2018-12-02T13:16:20.000Z</time>
      </trkpt>
      <trkpt lat="42.90837" lon="0.83959">
        <ele>1311</ele>
        <time>2018-12-02T13:16:23.000Z</time>
      </trkpt>
      <trkpt lat="42.90835" lon="0.83957">
        <ele>1311</ele>
        <time>2018-12-02T13:16:26.000Z</time>
      </trkpt>
      <trkpt lat="42.90833" lon="0.83955">
        <ele>1312</ele>
        <time>2018-12-02T13:16:28.000Z</time>
      </trkpt>
      <trkpt lat="42.90832" lon="0.83952">
        <ele>1312</ele>
        <time>2018-12-02T13:16:30.000Z</time>
      </trkpt>
      <trkpt lat="42.9083" lon="0.8395">
        <ele>1312</ele>
        <time>2018-12-02T13:16:32.000Z</time>
      </trkpt>
      <trkpt lat="42.90829" lon="0.83948">
        <ele>1313</ele>
        <time>2018-12-02T13:16:34.000Z</time>
      </trkpt>
      <trkpt lat="42.90828" lon="0.83946">
        <ele>1313</ele>
        <time>2018-12-02T13:16:36.000Z</time>
      </trkpt>
      <trkpt lat="42.90826" lon="0.83944">
        <ele>1313</ele>
        <time>2018-12-02T13:16:38.000Z</time>
      </trkpt>
      <trkpt lat="42.90825" lon="0.83942">
        <ele>1314</ele>
        <time>2018-12-02T13:16:40.000Z</time>
      </trkpt>
      <trkpt lat="42.90823" lon="0.8394">
        <ele>1314</ele>
        <time>2018-12-02T13:16:42.000Z</time>
      </trkpt>
      <trkpt lat="42.90822" lon="0.83939">
        <ele>1315</ele>
        <time>2018-12-02T13:16:44.000Z</time>
      </trkpt>
      <trkpt lat="42.9082" lon="0.83936">
        <ele>1315</ele>
        <time>2018-12-02T13:16:46.000Z</time>
      </trkpt>
      <trkpt lat="42.90819" lon="0.83934">
        <ele>1316</ele>
        <time>2018-12-02T13:16:48.000Z</time>
      </trkpt>
      <trkpt lat="42.90818" lon="0.83931">
        <ele>1315</ele>
        <time>2018-12-02T13:16:50.000Z</time>
      </trkpt>
      <trkpt lat="42.90817" lon="0.83928">
        <ele>1315</ele>
        <time>2018-12-02T13:16:52.000Z</time>
      </trkpt>
      <trkpt lat="42.90815" lon="0.83926">
        <ele>1316</ele>
        <time>2018-12-02T13:16:54.000Z</time>
      </trkpt>
      <trkpt lat="42.90814" lon="0.83923">
        <ele>1316</ele>
        <time>2018-12-02T13:16:56.000Z</time>
      </trkpt>
      <trkpt lat="42.90813" lon="0.8392">
        <ele>1315</ele>
        <time>2018-12-02T13:16:58.000Z</time>
      </trkpt>
      <trkpt lat="42.90812" lon="0.83916">
        <ele>1315</ele>
        <time>2018-12-02T13:17:00.000Z</time>
      </trkpt>
      <trkpt lat="42.90812" lon="0.83913">
        <ele>1314</ele>
        <time>2018-12-02T13:17:02.000Z</time>
      </trkpt>
      <trkpt lat="42.90811" lon="0.8391">
        <ele>1315</ele>
        <time>2018-12-02T13:17:04.000Z</time>
      </trkpt>
      <trkpt lat="42.90809" lon="0.83908">
        <ele>1315</ele>
        <time>2018-12-02T13:17:06.000Z</time>
      </trkpt>
      <trkpt lat="42.90808" lon="0.83906">
        <ele>1315</ele>
        <time>2018-12-02T13:17:08.000Z</time>
      </trkpt>
      <trkpt lat="42.90807" lon="0.83903">
        <ele>1315</ele>
        <time>2018-12-02T13:17:10.000Z</time>
      </trkpt>
      <trkpt lat="42.90806" lon="0.839">
        <ele>1315</ele>
        <time>2018-12-02T13:17:12.000Z</time>
      </trkpt>
      <trkpt lat="42.90805" lon="0.83897">
        <ele>1315</ele>
        <time>2018-12-02T13:17:14.000Z</time>
      </trkpt>
      <trkpt lat="42.90803" lon="0.83894">
        <ele>1315</ele>
        <time>2018-12-02T13:17:16.000Z</time>
      </trkpt>
      <trkpt lat="42.90803" lon="0.83892">
        <ele>1315</ele>
        <time>2018-12-02T13:17:18.000Z</time>
      </trkpt>
      <trkpt lat="42.90802" lon="0.83889">
        <ele>1314</ele>
        <time>2018-12-02T13:17:20.000Z</time>
      </trkpt>
      <trkpt lat="42.90801" lon="0.83887">
        <ele>1314</ele>
        <time>2018-12-02T13:17:22.000Z</time>
      </trkpt>
      <trkpt lat="42.908" lon="0.83884">
        <ele>1315</ele>
        <time>2018-12-02T13:17:24.000Z</time>
      </trkpt>
      <trkpt lat="42.90799" lon="0.83882">
        <ele>1315</ele>
        <time>2018-12-02T13:17:26.000Z</time>
      </trkpt>
      <trkpt lat="42.90798" lon="0.8388">
        <ele>1315</ele>
        <time>2018-12-02T13:17:28.000Z</time>
      </trkpt>
      <trkpt lat="42.90797" lon="0.83877">
        <ele>1315</ele>
        <time>2018-12-02T13:17:30.000Z</time>
      </trkpt>
      <trkpt lat="42.90796" lon="0.83874">
        <ele>1315</ele>
        <time>2018-12-02T13:17:32.000Z</time>
      </trkpt>
      <trkpt lat="42.90795" lon="0.83872">
        <ele>1315</ele>
        <time>2018-12-02T13:17:34.000Z</time>
      </trkpt>
      <trkpt lat="42.90794" lon="0.8387">
        <ele>1316</ele>
        <time>2018-12-02T13:17:36.000Z</time>
      </trkpt>
      <trkpt lat="42.90792" lon="0.83867">
        <ele>1316</ele>
        <time>2018-12-02T13:17:38.000Z</time>
      </trkpt>
      <trkpt lat="42.90791" lon="0.83865">
        <ele>1316</ele>
        <time>2018-12-02T13:17:40.000Z</time>
      </trkpt>
      <trkpt lat="42.9079" lon="0.83862">
        <ele>1316</ele>
        <time>2018-12-02T13:17:42.000Z</time>
      </trkpt>
      <trkpt lat="42.90788" lon="0.83858">
        <ele>1317</ele>
        <time>2018-12-02T13:17:44.000Z</time>
      </trkpt>
      <trkpt lat="42.90787" lon="0.83855">
        <ele>1317</ele>
        <time>2018-12-02T13:17:46.000Z</time>
      </trkpt>
      <trkpt lat="42.90786" lon="0.8385">
        <ele>1316</ele>
        <time>2018-12-02T13:17:48.000Z</time>
      </trkpt>
      <trkpt lat="42.90785" lon="0.83847">
        <ele>1317</ele>
        <time>2018-12-02T13:17:50.000Z</time>
      </trkpt>
      <trkpt lat="42.90784" lon="0.83843">
        <ele>1317</ele>
        <time>2018-12-02T13:17:52.000Z</time>
      </trkpt>
      <trkpt lat="42.90783" lon="0.8384">
        <ele>1316</ele>
        <time>2018-12-02T13:17:54.000Z</time>
      </trkpt>
      <trkpt lat="42.90783" lon="0.83837">
        <ele>1316</ele>
        <time>2018-12-02T13:17:56.000Z</time>
      </trkpt>
      <trkpt lat="42.90782" lon="0.83834">
        <ele>1315</ele>
        <time>2018-12-02T13:17:58.000Z</time>
      </trkpt>
      <trkpt lat="42.90782" lon="0.83831">
        <ele>1315</ele>
        <time>2018-12-02T13:18:00.000Z</time>
      </trkpt>
      <trkpt lat="42.90781" lon="0.83827">
        <ele>1315</ele>
        <time>2018-12-02T13:18:02.000Z</time>
      </trkpt>
      <trkpt lat="42.90781" lon="0.83825">
        <ele>1315</ele>
        <time>2018-12-02T13:18:04.000Z</time>
      </trkpt>
      <trkpt lat="42.90781" lon="0.83821">
        <ele>1315</ele>
        <time>2018-12-02T13:18:06.000Z</time>
      </trkpt>
      <trkpt lat="42.90782" lon="0.83818">
        <ele>1314</ele>
        <time>2018-12-02T13:18:08.000Z</time>
      </trkpt>
      <trkpt lat="42.90782" lon="0.83815">
        <ele>1314</ele>
        <time>2018-12-02T13:18:10.000Z</time>
      </trkpt>
      <trkpt lat="42.90782" lon="0.83811">
        <ele>1314</ele>
        <time>2018-12-02T13:18:12.000Z</time>
      </trkpt>
      <trkpt lat="42.90782" lon="0.83807">
        <ele>1313</ele>
        <time>2018-12-02T13:18:14.000Z</time>
      </trkpt>
      <trkpt lat="42.90782" lon="0.83804">
        <ele>1313</ele>
        <time>2018-12-02T13:18:16.000Z</time>
      </trkpt>
      <trkpt lat="42.90782" lon="0.83801">
        <ele>1313</ele>
        <time>2018-12-02T13:18:18.000Z</time>
      </trkpt>
      <trkpt lat="42.90782" lon="0.83797">
        <ele>1313</ele>
        <time>2018-12-02T13:18:20.000Z</time>
      </trkpt>
      <trkpt lat="42.90781" lon="0.83793">
        <ele>1313</ele>
        <time>2018-12-02T13:18:22.000Z</time>
      </trkpt>
      <trkpt lat="42.90781" lon="0.8379">
        <ele>1312</ele>
        <time>2018-12-02T13:18:24.000Z</time>
      </trkpt>
      <trkpt lat="42.9078" lon="0.83786">
        <ele>1313</ele>
        <time>2018-12-02T13:18:26.000Z</time>
      </trkpt>
      <trkpt lat="42.9078" lon="0.83783">
        <ele>1313</ele>
        <time>2018-12-02T13:18:28.000Z</time>
      </trkpt>
      <trkpt lat="42.90781" lon="0.8378">
        <ele>1312</ele>
        <time>2018-12-02T13:18:30.000Z</time>
      </trkpt>
      <trkpt lat="42.90781" lon="0.83776">
        <ele>1312</ele>
        <time>2018-12-02T13:18:32.000Z</time>
      </trkpt>
      <trkpt lat="42.90782" lon="0.83774">
        <ele>1311</ele>
        <time>2018-12-02T13:18:35.000Z</time>
      </trkpt>
      <trkpt lat="42.90784" lon="0.83772">
        <ele>1310</ele>
        <time>2018-12-02T13:18:37.000Z</time>
      </trkpt>
      <trkpt lat="42.90786" lon="0.83771">
        <ele>1309</ele>
        <time>2018-12-02T13:18:39.000Z</time>
      </trkpt>
      <trkpt lat="42.90787" lon="0.83769">
        <ele>1308</ele>
        <time>2018-12-02T13:18:41.000Z</time>
      </trkpt>
      <trkpt lat="42.90788" lon="0.83769">
        <ele>1308</ele>
        <time>2018-12-02T13:18:43.000Z</time>
      </trkpt>
      <trkpt lat="42.90788" lon="0.83769">
        <ele>1308</ele>
        <time>2018-12-02T13:18:45.000Z</time>
      </trkpt>
      <trkpt lat="42.90788" lon="0.83769">
        <ele>1308</ele>
        <time>2018-12-02T13:18:48.000Z</time>
      </trkpt>
      <trkpt lat="42.9079" lon="0.83766">
        <ele>1307</ele>
        <time>2018-12-02T13:18:50.000Z</time>
      </trkpt>
      <trkpt lat="42.90792" lon="0.83766">
        <ele>1305</ele>
        <time>2018-12-02T13:18:52.000Z</time>
      </trkpt>
      <trkpt lat="42.90794" lon="0.83766">
        <ele>1304</ele>
        <time>2018-12-02T13:18:54.000Z</time>
      </trkpt>
      <trkpt lat="42.90796" lon="0.83766">
        <ele>1304</ele>
        <time>2018-12-02T13:18:56.000Z</time>
      </trkpt>
      <trkpt lat="42.90797" lon="0.83768">
        <ele>1303</ele>
        <time>2018-12-02T13:18:59.000Z</time>
      </trkpt>
      <trkpt lat="42.90799" lon="0.83769">
        <ele>1302</ele>
        <time>2018-12-02T13:19:01.000Z</time>
      </trkpt>
      <trkpt lat="42.90799" lon="0.83771">
        <ele>1302</ele>
        <time>2018-12-02T13:19:03.000Z</time>
      </trkpt>
      <trkpt lat="42.908" lon="0.83774">
        <ele>1302</ele>
        <time>2018-12-02T13:19:05.000Z</time>
      </trkpt>
      <trkpt lat="42.90803" lon="0.83774">
        <ele>1301</ele>
        <time>2018-12-02T13:19:07.000Z</time>
      </trkpt>
      <trkpt lat="42.90802" lon="0.83777">
        <ele>1301</ele>
        <time>2018-12-02T13:19:09.000Z</time>
      </trkpt>
      <trkpt lat="42.90803" lon="0.83778">
        <ele>1301</ele>
        <time>2018-12-02T13:19:11.000Z</time>
      </trkpt>
      <trkpt lat="42.90803" lon="0.8378">
        <ele>1300</ele>
        <time>2018-12-02T13:19:13.000Z</time>
      </trkpt>
      <trkpt lat="42.90806" lon="0.83779">
        <ele>1299</ele>
        <time>2018-12-02T13:19:15.000Z</time>
      </trkpt>
      <trkpt lat="42.90807" lon="0.83779">
        <ele>1298</ele>
        <time>2018-12-02T13:19:17.000Z</time>
      </trkpt>
      <trkpt lat="42.90808" lon="0.8378">
        <ele>1298</ele>
        <time>2018-12-02T13:19:19.000Z</time>
      </trkpt>
      <trkpt lat="42.90808" lon="0.83783">
        <ele>1298</ele>
        <time>2018-12-02T13:19:21.000Z</time>
      </trkpt>
      <trkpt lat="42.90808" lon="0.83785">
        <ele>1298</ele>
        <time>2018-12-02T13:19:23.000Z</time>
      </trkpt>
      <trkpt lat="42.9081" lon="0.83785">
        <ele>1297</ele>
        <time>2018-12-02T13:19:25.000Z</time>
      </trkpt>
      <trkpt lat="42.9081" lon="0.83786">
        <ele>1297</ele>
        <time>2018-12-02T13:19:27.000Z</time>
      </trkpt>
      <trkpt lat="42.90812" lon="0.83786">
        <ele>1296</ele>
        <time>2018-12-02T13:19:30.000Z</time>
      </trkpt>
      <trkpt lat="42.90815" lon="0.83784">
        <ele>1295</ele>
        <time>2018-12-02T13:19:32.000Z</time>
      </trkpt>
      <trkpt lat="42.90818" lon="0.83782">
        <ele>1294</ele>
        <time>2018-12-02T13:19:34.000Z</time>
      </trkpt>
      <trkpt lat="42.90819" lon="0.83781">
        <ele>1294</ele>
        <time>2018-12-02T13:19:37.000Z</time>
      </trkpt>
      <trkpt lat="42.90822" lon="0.83778">
        <ele>1294</ele>
        <time>2018-12-02T13:19:39.000Z</time>
      </trkpt>
      <trkpt lat="42.90824" lon="0.83776">
        <ele>1295</ele>
        <time>2018-12-02T13:19:41.000Z</time>
      </trkpt>
      <trkpt lat="42.90827" lon="0.83773">
        <ele>1295</ele>
        <time>2018-12-02T13:19:43.000Z</time>
      </trkpt>
      <trkpt lat="42.9083" lon="0.83771">
        <ele>1296</ele>
        <time>2018-12-02T13:19:45.000Z</time>
      </trkpt>
      <trkpt lat="42.90832" lon="0.8377">
        <ele>1296</ele>
        <time>2018-12-02T13:19:47.000Z</time>
      </trkpt>
      <trkpt lat="42.90834" lon="0.8377">
        <ele>1295</ele>
        <time>2018-12-02T13:19:49.000Z</time>
      </trkpt>
      <trkpt lat="42.90835" lon="0.83771">
        <ele>1295</ele>
        <time>2018-12-02T13:19:51.000Z</time>
      </trkpt>
      <trkpt lat="42.90837" lon="0.83771">
        <ele>1295</ele>
        <time>2018-12-02T13:19:53.000Z</time>
      </trkpt>
      <trkpt lat="42.90837" lon="0.83773">
        <ele>1294</ele>
        <time>2018-12-02T13:19:55.000Z</time>
      </trkpt>
      <trkpt lat="42.90841" lon="0.83772">
        <ele>1294</ele>
        <time>2018-12-02T13:19:57.000Z</time>
      </trkpt>
      <trkpt lat="42.90843" lon="0.8377">
        <ele>1294</ele>
        <time>2018-12-02T13:20:00.000Z</time>
      </trkpt>
      <trkpt lat="42.90846" lon="0.83769">
        <ele>1294</ele>
        <time>2018-12-02T13:20:02.000Z</time>
      </trkpt>
      <trkpt lat="42.90849" lon="0.83766">
        <ele>1294</ele>
        <time>2018-12-02T13:20:04.000Z</time>
      </trkpt>
      <trkpt lat="42.90852" lon="0.83763">
        <ele>1295</ele>
        <time>2018-12-02T13:20:06.000Z</time>
      </trkpt>
      <trkpt lat="42.90855" lon="0.83761">
        <ele>1295</ele>
        <time>2018-12-02T13:20:08.000Z</time>
      </trkpt>
      <trkpt lat="42.90858" lon="0.83758">
        <ele>1295</ele>
        <time>2018-12-02T13:20:10.000Z</time>
      </trkpt>
      <trkpt lat="42.90861" lon="0.83755">
        <ele>1296</ele>
        <time>2018-12-02T13:20:12.000Z</time>
      </trkpt>
      <trkpt lat="42.90864" lon="0.83753">
        <ele>1296</ele>
        <time>2018-12-02T13:20:14.000Z</time>
      </trkpt>
      <trkpt lat="42.90868" lon="0.83751">
        <ele>1296</ele>
        <time>2018-12-02T13:20:17.000Z</time>
      </trkpt>
      <trkpt lat="42.90871" lon="0.8375">
        <ele>1296</ele>
        <time>2018-12-02T13:20:20.000Z</time>
      </trkpt>
      <trkpt lat="42.90874" lon="0.83749">
        <ele>1297</ele>
        <time>2018-12-02T13:20:23.000Z</time>
      </trkpt>
      <trkpt lat="42.90876" lon="0.83748">
        <ele>1297</ele>
        <time>2018-12-02T13:20:26.000Z</time>
      </trkpt>
      <trkpt lat="42.9088" lon="0.83747">
        <ele>1297</ele>
        <time>2018-12-02T13:20:29.000Z</time>
      </trkpt>
      <trkpt lat="42.90883" lon="0.83747">
        <ele>1298</ele>
        <time>2018-12-02T13:20:32.000Z</time>
      </trkpt>
      <trkpt lat="42.90885" lon="0.83747">
        <ele>1298</ele>
        <time>2018-12-02T13:20:36.000Z</time>
      </trkpt>
      <trkpt lat="42.90887" lon="0.83747">
        <ele>1298</ele>
        <time>2018-12-02T13:20:38.000Z</time>
      </trkpt>
      <trkpt lat="42.9089" lon="0.83747">
        <ele>1298</ele>
        <time>2018-12-02T13:20:41.000Z</time>
      </trkpt>
      <trkpt lat="42.90892" lon="0.83746">
        <ele>1298</ele>
        <time>2018-12-02T13:20:43.000Z</time>
      </trkpt>
      <trkpt lat="42.90895" lon="0.83745">
        <ele>1299</ele>
        <time>2018-12-02T13:20:46.000Z</time>
      </trkpt>
      <trkpt lat="42.90899" lon="0.83744">
        <ele>1299</ele>
        <time>2018-12-02T13:20:48.000Z</time>
      </trkpt>
      <trkpt lat="42.90902" lon="0.83743">
        <ele>1300</ele>
        <time>2018-12-02T13:20:51.000Z</time>
      </trkpt>
      <trkpt lat="42.90904" lon="0.83743">
        <ele>1300</ele>
        <time>2018-12-02T13:20:54.000Z</time>
      </trkpt>
      <trkpt lat="42.90905" lon="0.83742">
        <ele>1300</ele>
        <time>2018-12-02T13:20:56.000Z</time>
      </trkpt>
      <trkpt lat="42.90907" lon="0.83741">
        <ele>1300</ele>
        <time>2018-12-02T13:20:58.000Z</time>
      </trkpt>
      <trkpt lat="42.90908" lon="0.83742">
        <ele>1300</ele>
        <time>2018-12-02T13:21:00.000Z</time>
      </trkpt>
      <trkpt lat="42.9091" lon="0.8374">
        <ele>1301</ele>
        <time>2018-12-02T13:21:02.000Z</time>
      </trkpt>
      <trkpt lat="42.90912" lon="0.83739">
        <ele>1301</ele>
        <time>2018-12-02T13:21:04.000Z</time>
      </trkpt>
      <trkpt lat="42.90915" lon="0.83739">
        <ele>1301</ele>
        <time>2018-12-02T13:21:06.000Z</time>
      </trkpt>
      <trkpt lat="42.90917" lon="0.83739">
        <ele>1302</ele>
        <time>2018-12-02T13:21:08.000Z</time>
      </trkpt>
      <trkpt lat="42.90921" lon="0.83737">
        <ele>1303</ele>
        <time>2018-12-02T13:21:10.000Z</time>
      </trkpt>
      <trkpt lat="42.90922" lon="0.83737">
        <ele>1303</ele>
        <time>2018-12-02T13:21:13.000Z</time>
      </trkpt>
      <trkpt lat="42.90923" lon="0.83738">
        <ele>1302</ele>
        <time>2018-12-02T13:21:16.000Z</time>
      </trkpt>
      <trkpt lat="42.90925" lon="0.83738">
        <ele>1302</ele>
        <time>2018-12-02T13:21:18.000Z</time>
      </trkpt>
      <trkpt lat="42.90927" lon="0.83737">
        <ele>1303</ele>
        <time>2018-12-02T13:21:20.000Z</time>
      </trkpt>
      <trkpt lat="42.90931" lon="0.83734">
        <ele>1303</ele>
        <time>2018-12-02T13:21:22.000Z</time>
      </trkpt>
      <trkpt lat="42.90933" lon="0.83734">
        <ele>1304</ele>
        <time>2018-12-02T13:21:25.000Z</time>
      </trkpt>
      <trkpt lat="42.90937" lon="0.83731">
        <ele>1304</ele>
        <time>2018-12-02T13:21:27.000Z</time>
      </trkpt>
      <trkpt lat="42.90941" lon="0.8373">
        <ele>1305</ele>
        <time>2018-12-02T13:21:30.000Z</time>
      </trkpt>
      <trkpt lat="42.90944" lon="0.83728">
        <ele>1305</ele>
        <time>2018-12-02T13:21:33.000Z</time>
      </trkpt>
      <trkpt lat="42.90946" lon="0.83727">
        <ele>1305</ele>
        <time>2018-12-02T13:21:35.000Z</time>
      </trkpt>
      <trkpt lat="42.90949" lon="0.83727">
        <ele>1305</ele>
        <time>2018-12-02T13:21:37.000Z</time>
      </trkpt>
      <trkpt lat="42.90952" lon="0.83726">
        <ele>1305</ele>
        <time>2018-12-02T13:21:39.000Z</time>
      </trkpt>
      <trkpt lat="42.90955" lon="0.83726">
        <ele>1305</ele>
        <time>2018-12-02T13:21:42.000Z</time>
      </trkpt>
      <trkpt lat="42.90956" lon="0.83726">
        <ele>1305</ele>
        <time>2018-12-02T13:21:45.000Z</time>
      </trkpt>
      <trkpt lat="42.90957" lon="0.83726">
        <ele>1304</ele>
        <time>2018-12-02T13:21:47.000Z</time>
      </trkpt>
      <trkpt lat="42.9096" lon="0.83725">
        <ele>1304</ele>
        <time>2018-12-02T13:21:50.000Z</time>
      </trkpt>
      <trkpt lat="42.90962" lon="0.83725">
        <ele>1304</ele>
        <time>2018-12-02T13:21:52.000Z</time>
      </trkpt>
      <trkpt lat="42.90963" lon="0.83725">
        <ele>1304</ele>
        <time>2018-12-02T13:21:54.000Z</time>
      </trkpt>
      <trkpt lat="42.90965" lon="0.83724">
        <ele>1305</ele>
        <time>2018-12-02T13:21:56.000Z</time>
      </trkpt>
      <trkpt lat="42.90966" lon="0.83723">
        <ele>1305</ele>
        <time>2018-12-02T13:21:58.000Z</time>
      </trkpt>
      <trkpt lat="42.90968" lon="0.83721">
        <ele>1306</ele>
        <time>2018-12-02T13:22:00.000Z</time>
      </trkpt>
      <trkpt lat="42.90969" lon="0.8372">
        <ele>1306</ele>
        <time>2018-12-02T13:22:03.000Z</time>
      </trkpt>
      <trkpt lat="42.90972" lon="0.83718">
        <ele>1307</ele>
        <time>2018-12-02T13:22:06.000Z</time>
      </trkpt>
      <trkpt lat="42.90975" lon="0.83716">
        <ele>1308</ele>
        <time>2018-12-02T13:22:08.000Z</time>
      </trkpt>
      <trkpt lat="42.90978" lon="0.83713">
        <ele>1309</ele>
        <time>2018-12-02T13:22:10.000Z</time>
      </trkpt>
      <trkpt lat="42.9098" lon="0.83711">
        <ele>1309</ele>
        <time>2018-12-02T13:22:12.000Z</time>
      </trkpt>
      <trkpt lat="42.90983" lon="0.83709">
        <ele>1310</ele>
        <time>2018-12-02T13:22:14.000Z</time>
      </trkpt>
      <trkpt lat="42.90986" lon="0.83707">
        <ele>1311</ele>
        <time>2018-12-02T13:22:16.000Z</time>
      </trkpt>
      <trkpt lat="42.90988" lon="0.83705">
        <ele>1312</ele>
        <time>2018-12-02T13:22:18.000Z</time>
      </trkpt>
      <trkpt lat="42.9099" lon="0.83704">
        <ele>1312</ele>
        <time>2018-12-02T13:22:21.000Z</time>
      </trkpt>
      <trkpt lat="42.90993" lon="0.83705">
        <ele>1311</ele>
        <time>2018-12-02T13:22:23.000Z</time>
      </trkpt>
      <trkpt lat="42.90994" lon="0.83704">
        <ele>1311</ele>
        <time>2018-12-02T13:22:25.000Z</time>
      </trkpt>
      <trkpt lat="42.90996" lon="0.83704">
        <ele>1310</ele>
        <time>2018-12-02T13:22:27.000Z</time>
      </trkpt>
      <trkpt lat="42.90997" lon="0.83704">
        <ele>1310</ele>
        <time>2018-12-02T13:22:30.000Z</time>
      </trkpt>
      <trkpt lat="42.90997" lon="0.83705">
        <ele>1310</ele>
        <time>2018-12-02T13:22:32.000Z</time>
      </trkpt>
      <trkpt lat="42.90996" lon="0.83706">
        <ele>1309</ele>
        <time>2018-12-02T13:22:35.000Z</time>
      </trkpt>
      <trkpt lat="42.90996" lon="0.83707">
        <ele>1309</ele>
        <time>2018-12-02T13:22:37.000Z</time>
      </trkpt>
      <trkpt lat="42.90996" lon="0.83708">
        <ele>1309</ele>
        <time>2018-12-02T13:22:40.000Z</time>
      </trkpt>
      <trkpt lat="42.90996" lon="0.83707">
        <ele>1309</ele>
        <time>2018-12-02T13:22:43.000Z</time>
      </trkpt>
      <trkpt lat="42.90996" lon="0.83706">
        <ele>1309</ele>
        <time>2018-12-02T13:22:45.000Z</time>
      </trkpt>
      <trkpt lat="42.90997" lon="0.83705">
        <ele>1309</ele>
        <time>2018-12-02T13:22:47.000Z</time>
      </trkpt>
      <trkpt lat="42.90997" lon="0.83704">
        <ele>1310</ele>
        <time>2018-12-02T13:22:49.000Z</time>
      </trkpt>
      <trkpt lat="42.90998" lon="0.83703">
        <ele>1310</ele>
        <time>2018-12-02T13:22:51.000Z</time>
      </trkpt>
      <trkpt lat="42.91" lon="0.837">
        <ele>1311</ele>
        <time>2018-12-02T13:22:53.000Z</time>
      </trkpt>
      <trkpt lat="42.91001" lon="0.83698">
        <ele>1311</ele>
        <time>2018-12-02T13:22:55.000Z</time>
      </trkpt>
      <trkpt lat="42.91002" lon="0.83697">
        <ele>1312</ele>
        <time>2018-12-02T13:22:57.000Z</time>
      </trkpt>
      <trkpt lat="42.91003" lon="0.83696">
        <ele>1312</ele>
        <time>2018-12-02T13:22:59.000Z</time>
      </trkpt>
      <trkpt lat="42.91005" lon="0.83693">
        <ele>1312</ele>
        <time>2018-12-02T13:23:01.000Z</time>
      </trkpt>
      <trkpt lat="42.91007" lon="0.83689">
        <ele>1313</ele>
        <time>2018-12-02T13:23:03.000Z</time>
      </trkpt>
      <trkpt lat="42.91008" lon="0.83687">
        <ele>1314</ele>
        <time>2018-12-02T13:23:05.000Z</time>
      </trkpt>
      <trkpt lat="42.9101" lon="0.83684">
        <ele>1315</ele>
        <time>2018-12-02T13:23:07.000Z</time>
      </trkpt>
      <trkpt lat="42.91011" lon="0.83684">
        <ele>1314</ele>
        <time>2018-12-02T13:23:10.000Z</time>
      </trkpt>
      <trkpt lat="42.91011" lon="0.83684">
        <ele>1314</ele>
        <time>2018-12-02T13:23:12.000Z</time>
      </trkpt>
      <trkpt lat="42.91011" lon="0.83684">
        <ele>1314</ele>
        <time>2018-12-02T13:23:14.000Z</time>
      </trkpt>
      <trkpt lat="42.91011" lon="0.83685">
        <ele>1314</ele>
        <time>2018-12-02T13:23:16.000Z</time>
      </trkpt>
      <trkpt lat="42.91011" lon="0.83685">
        <ele>1314</ele>
        <time>2018-12-02T13:23:19.000Z</time>
      </trkpt>
      <trkpt lat="42.91011" lon="0.83685">
        <ele>1314</ele>
        <time>2018-12-02T13:23:21.000Z</time>
      </trkpt>
      <trkpt lat="42.91011" lon="0.83684">
        <ele>1314</ele>
        <time>2018-12-02T13:23:23.000Z</time>
      </trkpt>
      <trkpt lat="42.91012" lon="0.83684">
        <ele>1314</ele>
        <time>2018-12-02T13:23:25.000Z</time>
      </trkpt>
      <trkpt lat="42.91012" lon="0.83684">
        <ele>1314</ele>
        <time>2018-12-02T13:23:27.000Z</time>
      </trkpt>
      <trkpt lat="42.91013" lon="0.83684">
        <ele>1314</ele>
        <time>2018-12-02T13:23:29.000Z</time>
      </trkpt>
      <trkpt lat="42.91013" lon="0.83684">
        <ele>1314</ele>
        <time>2018-12-02T13:23:31.000Z</time>
      </trkpt>
      <trkpt lat="42.91013" lon="0.83684">
        <ele>1314</ele>
        <time>2018-12-02T13:23:33.000Z</time>
      </trkpt>
      <trkpt lat="42.91013" lon="0.83684">
        <ele>1314</ele>
        <time>2018-12-02T13:23:35.000Z</time>
      </trkpt>
      <trkpt lat="42.91014" lon="0.83684">
        <ele>1314</ele>
        <time>2018-12-02T13:23:37.000Z</time>
      </trkpt>
      <trkpt lat="42.91015" lon="0.83683">
        <ele>1314</ele>
        <time>2018-12-02T13:23:39.000Z</time>
      </trkpt>
      <trkpt lat="42.91016" lon="0.83681">
        <ele>1314</ele>
        <time>2018-12-02T13:23:41.000Z</time>
      </trkpt>
      <trkpt lat="42.91018" lon="0.8368">
        <ele>1314</ele>
        <time>2018-12-02T13:23:43.000Z</time>
      </trkpt>
      <trkpt lat="42.9102" lon="0.83678">
        <ele>1314</ele>
        <time>2018-12-02T13:23:45.000Z</time>
      </trkpt>
      <trkpt lat="42.91021" lon="0.83676">
        <ele>1315</ele>
        <time>2018-12-02T13:23:48.000Z</time>
      </trkpt>
      <trkpt lat="42.91022" lon="0.83675">
        <ele>1315</ele>
        <time>2018-12-02T13:23:50.000Z</time>
      </trkpt>
      <trkpt lat="42.91024" lon="0.83673">
        <ele>1315</ele>
        <time>2018-12-02T13:23:52.000Z</time>
      </trkpt>
      <trkpt lat="42.91024" lon="0.8367">
        <ele>1316</ele>
        <time>2018-12-02T13:23:55.000Z</time>
      </trkpt>
      <trkpt lat="42.91026" lon="0.83669">
        <ele>1316</ele>
        <time>2018-12-02T13:23:57.000Z</time>
      </trkpt>
      <trkpt lat="42.91027" lon="0.83667">
        <ele>1317</ele>
        <time>2018-12-02T13:23:59.000Z</time>
      </trkpt>
      <trkpt lat="42.91028" lon="0.83665">
        <ele>1317</ele>
        <time>2018-12-02T13:24:01.000Z</time>
      </trkpt>
      <trkpt lat="42.91029" lon="0.83661">
        <ele>1318</ele>
        <time>2018-12-02T13:24:03.000Z</time>
      </trkpt>
      <trkpt lat="42.9103" lon="0.83659">
        <ele>1319</ele>
        <time>2018-12-02T13:24:06.000Z</time>
      </trkpt>
      <trkpt lat="42.91031" lon="0.83657">
        <ele>1320</ele>
        <time>2018-12-02T13:24:08.000Z</time>
      </trkpt>
      <trkpt lat="42.91032" lon="0.83654">
        <ele>1320</ele>
        <time>2018-12-02T13:24:10.000Z</time>
      </trkpt>
      <trkpt lat="42.91033" lon="0.83651">
        <ele>1321</ele>
        <time>2018-12-02T13:24:13.000Z</time>
      </trkpt>
      <trkpt lat="42.91035" lon="0.83648">
        <ele>1322</ele>
        <time>2018-12-02T13:24:16.000Z</time>
      </trkpt>
      <trkpt lat="42.91037" lon="0.83646">
        <ele>1322</ele>
        <time>2018-12-02T13:24:18.000Z</time>
      </trkpt>
      <trkpt lat="42.91038" lon="0.83644">
        <ele>1323</ele>
        <time>2018-12-02T13:24:20.000Z</time>
      </trkpt>
      <trkpt lat="42.91039" lon="0.83643">
        <ele>1323</ele>
        <time>2018-12-02T13:24:22.000Z</time>
      </trkpt>
      <trkpt lat="42.9104" lon="0.83642">
        <ele>1323</ele>
        <time>2018-12-02T13:24:24.000Z</time>
      </trkpt>
      <trkpt lat="42.91041" lon="0.8364">
        <ele>1323</ele>
        <time>2018-12-02T13:24:26.000Z</time>
      </trkpt>
      <trkpt lat="42.91042" lon="0.83639">
        <ele>1323</ele>
        <time>2018-12-02T13:24:28.000Z</time>
      </trkpt>
      <trkpt lat="42.91043" lon="0.83639">
        <ele>1323</ele>
        <time>2018-12-02T13:24:30.000Z</time>
      </trkpt>
      <trkpt lat="42.91044" lon="0.83638">
        <ele>1324</ele>
        <time>2018-12-02T13:24:32.000Z</time>
      </trkpt>
      <trkpt lat="42.91044" lon="0.83636">
        <ele>1324</ele>
        <time>2018-12-02T13:24:35.000Z</time>
      </trkpt>
      <trkpt lat="42.91045" lon="0.83635">
        <ele>1324</ele>
        <time>2018-12-02T13:24:37.000Z</time>
      </trkpt>
      <trkpt lat="42.91045" lon="0.83634">
        <ele>1325</ele>
        <time>2018-12-02T13:24:39.000Z</time>
      </trkpt>
      <trkpt lat="42.91046" lon="0.83633">
        <ele>1325</ele>
        <time>2018-12-02T13:24:41.000Z</time>
      </trkpt>
      <trkpt lat="42.91047" lon="0.83632">
        <ele>1325</ele>
        <time>2018-12-02T13:24:43.000Z</time>
      </trkpt>
      <trkpt lat="42.91048" lon="0.83632">
        <ele>1325</ele>
        <time>2018-12-02T13:24:46.000Z</time>
      </trkpt>
      <trkpt lat="42.91049" lon="0.83631">
        <ele>1325</ele>
        <time>2018-12-02T13:24:48.000Z</time>
      </trkpt>
      <trkpt lat="42.91051" lon="0.83628">
        <ele>1326</ele>
        <time>2018-12-02T13:24:50.000Z</time>
      </trkpt>
      <trkpt lat="42.91052" lon="0.83626">
        <ele>1327</ele>
        <time>2018-12-02T13:24:52.000Z</time>
      </trkpt>
      <trkpt lat="42.91053" lon="0.83624">
        <ele>1327</ele>
        <time>2018-12-02T13:24:54.000Z</time>
      </trkpt>
      <trkpt lat="42.91054" lon="0.83622">
        <ele>1328</ele>
        <time>2018-12-02T13:24:56.000Z</time>
      </trkpt>
      <trkpt lat="42.91055" lon="0.83622">
        <ele>1328</ele>
        <time>2018-12-02T13:24:58.000Z</time>
      </trkpt>
      <trkpt lat="42.91055" lon="0.83622">
        <ele>1328</ele>
        <time>2018-12-02T13:25:00.000Z</time>
      </trkpt>
      <trkpt lat="42.91056" lon="0.83621">
        <ele>1328</ele>
        <time>2018-12-02T13:25:02.000Z</time>
      </trkpt>
      <trkpt lat="42.91057" lon="0.8362">
        <ele>1328</ele>
        <time>2018-12-02T13:25:04.000Z</time>
      </trkpt>
      <trkpt lat="42.91058" lon="0.83618">
        <ele>1329</ele>
        <time>2018-12-02T13:25:07.000Z</time>
      </trkpt>
      <trkpt lat="42.91059" lon="0.83617">
        <ele>1329</ele>
        <time>2018-12-02T13:25:09.000Z</time>
      </trkpt>
      <trkpt lat="42.9106" lon="0.83615">
        <ele>1330</ele>
        <time>2018-12-02T13:25:11.000Z</time>
      </trkpt>
      <trkpt lat="42.91062" lon="0.83613">
        <ele>1330</ele>
        <time>2018-12-02T13:25:13.000Z</time>
      </trkpt>
      <trkpt lat="42.91063" lon="0.83611">
        <ele>1331</ele>
        <time>2018-12-02T13:25:15.000Z</time>
      </trkpt>
      <trkpt lat="42.91063" lon="0.8361">
        <ele>1330</ele>
        <time>2018-12-02T13:25:17.000Z</time>
      </trkpt>
      <trkpt lat="42.91064" lon="0.83609">
        <ele>1331</ele>
        <time>2018-12-02T13:25:19.000Z</time>
      </trkpt>
      <trkpt lat="42.91065" lon="0.83607">
        <ele>1331</ele>
        <time>2018-12-02T13:25:21.000Z</time>
      </trkpt>
      <trkpt lat="42.91065" lon="0.83605">
        <ele>1331</ele>
        <time>2018-12-02T13:25:23.000Z</time>
      </trkpt>
      <trkpt lat="42.91066" lon="0.83603">
        <ele>1332</ele>
        <time>2018-12-02T13:25:25.000Z</time>
      </trkpt>
      <trkpt lat="42.91066" lon="0.83602">
        <ele>1332</ele>
        <time>2018-12-02T13:25:27.000Z</time>
      </trkpt>
      <trkpt lat="42.91066" lon="0.836">
        <ele>1332</ele>
        <time>2018-12-02T13:25:29.000Z</time>
      </trkpt>
      <trkpt lat="42.91067" lon="0.83599">
        <ele>1332</ele>
        <time>2018-12-02T13:25:31.000Z</time>
      </trkpt>
      <trkpt lat="42.91068" lon="0.83597">
        <ele>1332</ele>
        <time>2018-12-02T13:25:33.000Z</time>
      </trkpt>
      <trkpt lat="42.91069" lon="0.83595">
        <ele>1333</ele>
        <time>2018-12-02T13:25:35.000Z</time>
      </trkpt>
      <trkpt lat="42.9107" lon="0.83593">
        <ele>1333</ele>
        <time>2018-12-02T13:25:37.000Z</time>
      </trkpt>
      <trkpt lat="42.91072" lon="0.83592">
        <ele>1332</ele>
        <time>2018-12-02T13:25:39.000Z</time>
      </trkpt>
      <trkpt lat="42.91073" lon="0.8359">
        <ele>1332</ele>
        <time>2018-12-02T13:25:41.000Z</time>
      </trkpt>
      <trkpt lat="42.91074" lon="0.83588">
        <ele>1333</ele>
        <time>2018-12-02T13:25:43.000Z</time>
      </trkpt>
      <trkpt lat="42.91074" lon="0.83587">
        <ele>1333</ele>
        <time>2018-12-02T13:25:45.000Z</time>
      </trkpt>
      <trkpt lat="42.91075" lon="0.83586">
        <ele>1333</ele>
        <time>2018-12-02T13:25:47.000Z</time>
      </trkpt>
      <trkpt lat="42.91075" lon="0.83584">
        <ele>1333</ele>
        <time>2018-12-02T13:25:49.000Z</time>
      </trkpt>
      <trkpt lat="42.91075" lon="0.83581">
        <ele>1334</ele>
        <time>2018-12-02T13:25:51.000Z</time>
      </trkpt>
      <trkpt lat="42.91076" lon="0.8358">
        <ele>1334</ele>
        <time>2018-12-02T13:25:53.000Z</time>
      </trkpt>
      <trkpt lat="42.91075" lon="0.83578">
        <ele>1335</ele>
        <time>2018-12-02T13:25:55.000Z</time>
      </trkpt>
      <trkpt lat="42.91077" lon="0.83577">
        <ele>1335</ele>
        <time>2018-12-02T13:25:57.000Z</time>
      </trkpt>
      <trkpt lat="42.91078" lon="0.83575">
        <ele>1335</ele>
        <time>2018-12-02T13:25:59.000Z</time>
      </trkpt>
      <trkpt lat="42.91079" lon="0.83573">
        <ele>1335</ele>
        <time>2018-12-02T13:26:01.000Z</time>
      </trkpt>
      <trkpt lat="42.9108" lon="0.83571">
        <ele>1335</ele>
        <time>2018-12-02T13:26:03.000Z</time>
      </trkpt>
      <trkpt lat="42.91081" lon="0.8357">
        <ele>1335</ele>
        <time>2018-12-02T13:26:05.000Z</time>
      </trkpt>
      <trkpt lat="42.91082" lon="0.83568">
        <ele>1335</ele>
        <time>2018-12-02T13:26:07.000Z</time>
      </trkpt>
      <trkpt lat="42.91083" lon="0.83566">
        <ele>1335</ele>
        <time>2018-12-02T13:26:09.000Z</time>
      </trkpt>
      <trkpt lat="42.91085" lon="0.83563">
        <ele>1335</ele>
        <time>2018-12-02T13:26:12.000Z</time>
      </trkpt>
      <trkpt lat="42.91086" lon="0.83561">
        <ele>1335</ele>
        <time>2018-12-02T13:26:14.000Z</time>
      </trkpt>
      <trkpt lat="42.91087" lon="0.8356">
        <ele>1335</ele>
        <time>2018-12-02T13:26:16.000Z</time>
      </trkpt>
      <trkpt lat="42.91088" lon="0.83558">
        <ele>1335</ele>
        <time>2018-12-02T13:26:18.000Z</time>
      </trkpt>
      <trkpt lat="42.91088" lon="0.83556">
        <ele>1336</ele>
        <time>2018-12-02T13:26:20.000Z</time>
      </trkpt>
      <trkpt lat="42.91089" lon="0.83554">
        <ele>1336</ele>
        <time>2018-12-02T13:26:22.000Z</time>
      </trkpt>
      <trkpt lat="42.9109" lon="0.83551">
        <ele>1337</ele>
        <time>2018-12-02T13:26:24.000Z</time>
      </trkpt>
      <trkpt lat="42.91091" lon="0.83549">
        <ele>1337</ele>
        <time>2018-12-02T13:26:26.000Z</time>
      </trkpt>
      <trkpt lat="42.91091" lon="0.83547">
        <ele>1337</ele>
        <time>2018-12-02T13:26:28.000Z</time>
      </trkpt>
      <trkpt lat="42.91092" lon="0.83545">
        <ele>1338</ele>
        <time>2018-12-02T13:26:30.000Z</time>
      </trkpt>
      <trkpt lat="42.91092" lon="0.83544">
        <ele>1338</ele>
        <time>2018-12-02T13:26:32.000Z</time>
      </trkpt>
      <trkpt lat="42.91093" lon="0.83542">
        <ele>1339</ele>
        <time>2018-12-02T13:26:34.000Z</time>
      </trkpt>
      <trkpt lat="42.91093" lon="0.83541">
        <ele>1339</ele>
        <time>2018-12-02T13:26:36.000Z</time>
      </trkpt>
      <trkpt lat="42.91094" lon="0.8354">
        <ele>1339</ele>
        <time>2018-12-02T13:26:38.000Z</time>
      </trkpt>
      <trkpt lat="42.91095" lon="0.83538">
        <ele>1340</ele>
        <time>2018-12-02T13:26:40.000Z</time>
      </trkpt>
      <trkpt lat="42.91095" lon="0.83536">
        <ele>1340</ele>
        <time>2018-12-02T13:26:42.000Z</time>
      </trkpt>
      <trkpt lat="42.91096" lon="0.83534">
        <ele>1341</ele>
        <time>2018-12-02T13:26:44.000Z</time>
      </trkpt>
      <trkpt lat="42.91096" lon="0.83532">
        <ele>1341</ele>
        <time>2018-12-02T13:26:46.000Z</time>
      </trkpt>
      <trkpt lat="42.91096" lon="0.83529">
        <ele>1342</ele>
        <time>2018-12-02T13:26:48.000Z</time>
      </trkpt>
      <trkpt lat="42.91097" lon="0.83527">
        <ele>1343</ele>
        <time>2018-12-02T13:26:50.000Z</time>
      </trkpt>
      <trkpt lat="42.91098" lon="0.83525">
        <ele>1343</ele>
        <time>2018-12-02T13:26:52.000Z</time>
      </trkpt>
      <trkpt lat="42.91099" lon="0.83523">
        <ele>1344</ele>
        <time>2018-12-02T13:26:54.000Z</time>
      </trkpt>
      <trkpt lat="42.91099" lon="0.83521">
        <ele>1344</ele>
        <time>2018-12-02T13:26:56.000Z</time>
      </trkpt>
      <trkpt lat="42.91099" lon="0.83519">
        <ele>1345</ele>
        <time>2018-12-02T13:26:58.000Z</time>
      </trkpt>
      <trkpt lat="42.911" lon="0.83517">
        <ele>1345</ele>
        <time>2018-12-02T13:27:00.000Z</time>
      </trkpt>
      <trkpt lat="42.91101" lon="0.83516">
        <ele>1345</ele>
        <time>2018-12-02T13:27:02.000Z</time>
      </trkpt>
      <trkpt lat="42.91102" lon="0.83513">
        <ele>1346</ele>
        <time>2018-12-02T13:27:04.000Z</time>
      </trkpt>
      <trkpt lat="42.91103" lon="0.83511">
        <ele>1346</ele>
        <time>2018-12-02T13:27:06.000Z</time>
      </trkpt>
      <trkpt lat="42.91104" lon="0.83508">
        <ele>1347</ele>
        <time>2018-12-02T13:27:08.000Z</time>
      </trkpt>
      <trkpt lat="42.91106" lon="0.83506">
        <ele>1347</ele>
        <time>2018-12-02T13:27:10.000Z</time>
      </trkpt>
      <trkpt lat="42.91107" lon="0.83505">
        <ele>1347</ele>
        <time>2018-12-02T13:27:12.000Z</time>
      </trkpt>
      <trkpt lat="42.91108" lon="0.83503">
        <ele>1348</ele>
        <time>2018-12-02T13:27:14.000Z</time>
      </trkpt>
      <trkpt lat="42.91109" lon="0.83502">
        <ele>1348</ele>
        <time>2018-12-02T13:27:16.000Z</time>
      </trkpt>
      <trkpt lat="42.9111" lon="0.83502">
        <ele>1348</ele>
        <time>2018-12-02T13:27:18.000Z</time>
      </trkpt>
      <trkpt lat="42.91111" lon="0.83501">
        <ele>1348</ele>
        <time>2018-12-02T13:27:20.000Z</time>
      </trkpt>
      <trkpt lat="42.91112" lon="0.835">
        <ele>1348</ele>
        <time>2018-12-02T13:27:22.000Z</time>
      </trkpt>
      <trkpt lat="42.91113" lon="0.835">
        <ele>1348</ele>
        <time>2018-12-02T13:27:24.000Z</time>
      </trkpt>
      <trkpt lat="42.91114" lon="0.835">
        <ele>1347</ele>
        <time>2018-12-02T13:27:26.000Z</time>
      </trkpt>
      <trkpt lat="42.91115" lon="0.835">
        <ele>1347</ele>
        <time>2018-12-02T13:27:28.000Z</time>
      </trkpt>
      <trkpt lat="42.91116" lon="0.835">
        <ele>1347</ele>
        <time>2018-12-02T13:27:30.000Z</time>
      </trkpt>
      <trkpt lat="42.91116" lon="0.83501">
        <ele>1347</ele>
        <time>2018-12-02T13:27:32.000Z</time>
      </trkpt>
      <trkpt lat="42.91118" lon="0.83501">
        <ele>1346</ele>
        <time>2018-12-02T13:27:35.000Z</time>
      </trkpt>
      <trkpt lat="42.91119" lon="0.83501">
        <ele>1346</ele>
        <time>2018-12-02T13:27:37.000Z</time>
      </trkpt>
      <trkpt lat="42.9112" lon="0.835">
        <ele>1346</ele>
        <time>2018-12-02T13:27:39.000Z</time>
      </trkpt>
      <trkpt lat="42.91122" lon="0.83499">
        <ele>1346</ele>
        <time>2018-12-02T13:27:41.000Z</time>
      </trkpt>
      <trkpt lat="42.91124" lon="0.83498">
        <ele>1346</ele>
        <time>2018-12-02T13:27:44.000Z</time>
      </trkpt>
      <trkpt lat="42.91126" lon="0.83497">
        <ele>1345</ele>
        <time>2018-12-02T13:27:46.000Z</time>
      </trkpt>
      <trkpt lat="42.91127" lon="0.83497">
        <ele>1345</ele>
        <time>2018-12-02T13:27:48.000Z</time>
      </trkpt>
      <trkpt lat="42.91129" lon="0.83496">
        <ele>1345</ele>
        <time>2018-12-02T13:27:50.000Z</time>
      </trkpt>
      <trkpt lat="42.9113" lon="0.83495">
        <ele>1345</ele>
        <time>2018-12-02T13:27:52.000Z</time>
      </trkpt>
      <trkpt lat="42.91132" lon="0.83494">
        <ele>1345</ele>
        <time>2018-12-02T13:27:54.000Z</time>
      </trkpt>
      <trkpt lat="42.91134" lon="0.83492">
        <ele>1345</ele>
        <time>2018-12-02T13:27:56.000Z</time>
      </trkpt>
      <trkpt lat="42.91135" lon="0.83491">
        <ele>1345</ele>
        <time>2018-12-02T13:27:58.000Z</time>
      </trkpt>
      <trkpt lat="42.91136" lon="0.83491">
        <ele>1345</ele>
        <time>2018-12-02T13:28:00.000Z</time>
      </trkpt>
      <trkpt lat="42.91136" lon="0.83491">
        <ele>1345</ele>
        <time>2018-12-02T13:28:03.000Z</time>
      </trkpt>
      <trkpt lat="42.91137" lon="0.83491">
        <ele>1345</ele>
        <time>2018-12-02T13:28:05.000Z</time>
      </trkpt>
      <trkpt lat="42.91138" lon="0.83492">
        <ele>1345</ele>
        <time>2018-12-02T13:28:07.000Z</time>
      </trkpt>
      <trkpt lat="42.9114" lon="0.83492">
        <ele>1344</ele>
        <time>2018-12-02T13:28:09.000Z</time>
      </trkpt>
      <trkpt lat="42.91141" lon="0.83491">
        <ele>1344</ele>
        <time>2018-12-02T13:28:11.000Z</time>
      </trkpt>
      <trkpt lat="42.91143" lon="0.83491">
        <ele>1344</ele>
        <time>2018-12-02T13:28:13.000Z</time>
      </trkpt>
      <trkpt lat="42.91144" lon="0.8349">
        <ele>1344</ele>
        <time>2018-12-02T13:28:15.000Z</time>
      </trkpt>
      <trkpt lat="42.91147" lon="0.83488">
        <ele>1344</ele>
        <time>2018-12-02T13:28:17.000Z</time>
      </trkpt>
      <trkpt lat="42.91149" lon="0.83486">
        <ele>1344</ele>
        <time>2018-12-02T13:28:19.000Z</time>
      </trkpt>
      <trkpt lat="42.91151" lon="0.83485">
        <ele>1344</ele>
        <time>2018-12-02T13:28:21.000Z</time>
      </trkpt>
      <trkpt lat="42.91154" lon="0.83482">
        <ele>1344</ele>
        <time>2018-12-02T13:28:23.000Z</time>
      </trkpt>
      <trkpt lat="42.91155" lon="0.83481">
        <ele>1344</ele>
        <time>2018-12-02T13:28:25.000Z</time>
      </trkpt>
      <trkpt lat="42.91157" lon="0.83479">
        <ele>1344</ele>
        <time>2018-12-02T13:28:27.000Z</time>
      </trkpt>
      <trkpt lat="42.91158" lon="0.83479">
        <ele>1344</ele>
        <time>2018-12-02T13:28:29.000Z</time>
      </trkpt>
      <trkpt lat="42.9116" lon="0.83477">
        <ele>1344</ele>
        <time>2018-12-02T13:28:31.000Z</time>
      </trkpt>
      <trkpt lat="42.91162" lon="0.83476">
        <ele>1344</ele>
        <time>2018-12-02T13:28:33.000Z</time>
      </trkpt>
      <trkpt lat="42.91164" lon="0.83475">
        <ele>1345</ele>
        <time>2018-12-02T13:28:35.000Z</time>
      </trkpt>
      <trkpt lat="42.91166" lon="0.83474">
        <ele>1344</ele>
        <time>2018-12-02T13:28:37.000Z</time>
      </trkpt>
      <trkpt lat="42.91168" lon="0.83473">
        <ele>1344</ele>
        <time>2018-12-02T13:28:39.000Z</time>
      </trkpt>
      <trkpt lat="42.9117" lon="0.83472">
        <ele>1344</ele>
        <time>2018-12-02T13:28:41.000Z</time>
      </trkpt>
      <trkpt lat="42.91174" lon="0.83472">
        <ele>1343</ele>
        <time>2018-12-02T13:28:44.000Z</time>
      </trkpt>
      <trkpt lat="42.91175" lon="0.83472">
        <ele>1343</ele>
        <time>2018-12-02T13:28:46.000Z</time>
      </trkpt>
      <trkpt lat="42.91176" lon="0.83471">
        <ele>1344</ele>
        <time>2018-12-02T13:28:48.000Z</time>
      </trkpt>
      <trkpt lat="42.91177" lon="0.83469">
        <ele>1345</ele>
        <time>2018-12-02T13:28:50.000Z</time>
      </trkpt>
      <trkpt lat="42.91179" lon="0.83468">
        <ele>1346</ele>
        <time>2018-12-02T13:28:52.000Z</time>
      </trkpt>
      <trkpt lat="42.91181" lon="0.83466">
        <ele>1348</ele>
        <time>2018-12-02T13:28:54.000Z</time>
      </trkpt>
      <trkpt lat="42.91183" lon="0.83465">
        <ele>1349</ele>
        <time>2018-12-02T13:28:56.000Z</time>
      </trkpt>
      <trkpt lat="42.91185" lon="0.83463">
        <ele>1350</ele>
        <time>2018-12-02T13:28:59.000Z</time>
      </trkpt>
      <trkpt lat="42.91187" lon="0.83462">
        <ele>1351</ele>
        <time>2018-12-02T13:29:01.000Z</time>
      </trkpt>
      <trkpt lat="42.9119" lon="0.83461">
        <ele>1352</ele>
        <time>2018-12-02T13:29:03.000Z</time>
      </trkpt>
      <trkpt lat="42.91192" lon="0.83459">
        <ele>1353</ele>
        <time>2018-12-02T13:29:05.000Z</time>
      </trkpt>
      <trkpt lat="42.91195" lon="0.83458">
        <ele>1355</ele>
        <time>2018-12-02T13:29:07.000Z</time>
      </trkpt>
      <trkpt lat="42.91199" lon="0.83456">
        <ele>1356</ele>
        <time>2018-12-02T13:29:09.000Z</time>
      </trkpt>
      <trkpt lat="42.91202" lon="0.83455">
        <ele>1358</ele>
        <time>2018-12-02T13:29:11.000Z</time>
      </trkpt>
      <trkpt lat="42.91205" lon="0.83454">
        <ele>1359</ele>
        <time>2018-12-02T13:29:13.000Z</time>
      </trkpt>
      <trkpt lat="42.91208" lon="0.83454">
        <ele>1359</ele>
        <time>2018-12-02T13:29:15.000Z</time>
      </trkpt>
      <trkpt lat="42.9121" lon="0.83454">
        <ele>1360</ele>
        <time>2018-12-02T13:29:17.000Z</time>
      </trkpt>
      <trkpt lat="42.91211" lon="0.83454">
        <ele>1360</ele>
        <time>2018-12-02T13:29:19.000Z</time>
      </trkpt>
      <trkpt lat="42.91214" lon="0.83454">
        <ele>1360</ele>
        <time>2018-12-02T13:29:21.000Z</time>
      </trkpt>
      <trkpt lat="42.91216" lon="0.83454">
        <ele>1361</ele>
        <time>2018-12-02T13:29:23.000Z</time>
      </trkpt>
      <trkpt lat="42.91218" lon="0.83454">
        <ele>1361</ele>
        <time>2018-12-02T13:29:25.000Z</time>
      </trkpt>
      <trkpt lat="42.9122" lon="0.83453">
        <ele>1362</ele>
        <time>2018-12-02T13:29:27.000Z</time>
      </trkpt>
      <trkpt lat="42.91222" lon="0.83453">
        <ele>1363</ele>
        <time>2018-12-02T13:29:29.000Z</time>
      </trkpt>
      <trkpt lat="42.91224" lon="0.83453">
        <ele>1363</ele>
        <time>2018-12-02T13:29:31.000Z</time>
      </trkpt>
      <trkpt lat="42.91227" lon="0.83453">
        <ele>1364</ele>
        <time>2018-12-02T13:29:33.000Z</time>
      </trkpt>
      <trkpt lat="42.91227" lon="0.83456">
        <ele>1362</ele>
        <time>2018-12-02T13:29:35.000Z</time>
      </trkpt>
      <trkpt lat="42.91229" lon="0.83457">
        <ele>1362</ele>
        <time>2018-12-02T13:29:37.000Z</time>
      </trkpt>
      <trkpt lat="42.91232" lon="0.83457">
        <ele>1363</ele>
        <time>2018-12-02T13:29:39.000Z</time>
      </trkpt>
      <trkpt lat="42.91233" lon="0.83459">
        <ele>1362</ele>
        <time>2018-12-02T13:29:41.000Z</time>
      </trkpt>
      <trkpt lat="42.91235" lon="0.8346">
        <ele>1362</ele>
        <time>2018-12-02T13:29:43.000Z</time>
      </trkpt>
      <trkpt lat="42.91236" lon="0.83461">
        <ele>1362</ele>
        <time>2018-12-02T13:29:45.000Z</time>
      </trkpt>
      <trkpt lat="42.91239" lon="0.83461">
        <ele>1362</ele>
        <time>2018-12-02T13:29:47.000Z</time>
      </trkpt>
      <trkpt lat="42.9124" lon="0.83463">
        <ele>1361</ele>
        <time>2018-12-02T13:29:49.000Z</time>
      </trkpt>
      <trkpt lat="42.91242" lon="0.83464">
        <ele>1361</ele>
        <time>2018-12-02T13:29:51.000Z</time>
      </trkpt>
      <trkpt lat="42.91244" lon="0.83465">
        <ele>1361</ele>
        <time>2018-12-02T13:29:53.000Z</time>
      </trkpt>
      <trkpt lat="42.91245" lon="0.83467">
        <ele>1360</ele>
        <time>2018-12-02T13:29:55.000Z</time>
      </trkpt>
      <trkpt lat="42.91247" lon="0.83468">
        <ele>1360</ele>
        <time>2018-12-02T13:29:57.000Z</time>
      </trkpt>
      <trkpt lat="42.91248" lon="0.83469">
        <ele>1360</ele>
        <time>2018-12-02T13:29:59.000Z</time>
      </trkpt>
      <trkpt lat="42.91249" lon="0.8347">
        <ele>1359</ele>
        <time>2018-12-02T13:30:01.000Z</time>
      </trkpt>
      <trkpt lat="42.9125" lon="0.83471">
        <ele>1359</ele>
        <time>2018-12-02T13:30:03.000Z</time>
      </trkpt>
      <trkpt lat="42.9125" lon="0.83472">
        <ele>1359</ele>
        <time>2018-12-02T13:30:05.000Z</time>
      </trkpt>
      <trkpt lat="42.91252" lon="0.83473">
        <ele>1359</ele>
        <time>2018-12-02T13:30:07.000Z</time>
      </trkpt>
      <trkpt lat="42.91253" lon="0.83475">
        <ele>1359</ele>
        <time>2018-12-02T13:30:09.000Z</time>
      </trkpt>
      <trkpt lat="42.91255" lon="0.83476">
        <ele>1359</ele>
        <time>2018-12-02T13:30:11.000Z</time>
      </trkpt>
      <trkpt lat="42.91257" lon="0.83477">
        <ele>1359</ele>
        <time>2018-12-02T13:30:13.000Z</time>
      </trkpt>
      <trkpt lat="42.91259" lon="0.83478">
        <ele>1359</ele>
        <time>2018-12-02T13:30:15.000Z</time>
      </trkpt>
      <trkpt lat="42.9126" lon="0.83479">
        <ele>1360</ele>
        <time>2018-12-02T13:30:17.000Z</time>
      </trkpt>
      <trkpt lat="42.91261" lon="0.83481">
        <ele>1360</ele>
        <time>2018-12-02T13:30:19.000Z</time>
      </trkpt>
      <trkpt lat="42.91263" lon="0.83484">
        <ele>1360</ele>
        <time>2018-12-02T13:30:21.000Z</time>
      </trkpt>
      <trkpt lat="42.91263" lon="0.83486">
        <ele>1360</ele>
        <time>2018-12-02T13:30:23.000Z</time>
      </trkpt>
      <trkpt lat="42.91266" lon="0.83487">
        <ele>1360</ele>
        <time>2018-12-02T13:30:25.000Z</time>
      </trkpt>
      <trkpt lat="42.91267" lon="0.83488">
        <ele>1361</ele>
        <time>2018-12-02T13:30:27.000Z</time>
      </trkpt>
      <trkpt lat="42.91268" lon="0.83489">
        <ele>1361</ele>
        <time>2018-12-02T13:30:29.000Z</time>
      </trkpt>
      <trkpt lat="42.9127" lon="0.8349">
        <ele>1362</ele>
        <time>2018-12-02T13:30:31.000Z</time>
      </trkpt>
      <trkpt lat="42.9127" lon="0.83492">
        <ele>1361</ele>
        <time>2018-12-02T13:30:33.000Z</time>
      </trkpt>
      <trkpt lat="42.91271" lon="0.83494">
        <ele>1362</ele>
        <time>2018-12-02T13:30:35.000Z</time>
      </trkpt>
      <trkpt lat="42.91274" lon="0.83494">
        <ele>1363</ele>
        <time>2018-12-02T13:30:37.000Z</time>
      </trkpt>
      <trkpt lat="42.91276" lon="0.83495">
        <ele>1364</ele>
        <time>2018-12-02T13:30:39.000Z</time>
      </trkpt>
      <trkpt lat="42.91278" lon="0.83495">
        <ele>1364</ele>
        <time>2018-12-02T13:30:41.000Z</time>
      </trkpt>
      <trkpt lat="42.9128" lon="0.83495">
        <ele>1366</ele>
        <time>2018-12-02T13:30:43.000Z</time>
      </trkpt>
      <trkpt lat="42.91283" lon="0.83496">
        <ele>1367</ele>
        <time>2018-12-02T13:30:45.000Z</time>
      </trkpt>
      <trkpt lat="42.91285" lon="0.83496">
        <ele>1368</ele>
        <time>2018-12-02T13:30:47.000Z</time>
      </trkpt>
      <trkpt lat="42.91286" lon="0.83497">
        <ele>1368</ele>
        <time>2018-12-02T13:30:49.000Z</time>
      </trkpt>
      <trkpt lat="42.91287" lon="0.83499">
        <ele>1368</ele>
        <time>2018-12-02T13:30:51.000Z</time>
      </trkpt>
      <trkpt lat="42.91288" lon="0.83501">
        <ele>1368</ele>
        <time>2018-12-02T13:30:53.000Z</time>
      </trkpt>
      <trkpt lat="42.91289" lon="0.83503">
        <ele>1368</ele>
        <time>2018-12-02T13:30:55.000Z</time>
      </trkpt>
      <trkpt lat="42.9129" lon="0.83506">
        <ele>1368</ele>
        <time>2018-12-02T13:30:57.000Z</time>
      </trkpt>
      <trkpt lat="42.91291" lon="0.83508">
        <ele>1368</ele>
        <time>2018-12-02T13:30:59.000Z</time>
      </trkpt>
      <trkpt lat="42.91292" lon="0.8351">
        <ele>1368</ele>
        <time>2018-12-02T13:31:01.000Z</time>
      </trkpt>
      <trkpt lat="42.91293" lon="0.83511">
        <ele>1368</ele>
        <time>2018-12-02T13:31:03.000Z</time>
      </trkpt>
      <trkpt lat="42.91294" lon="0.83512">
        <ele>1368</ele>
        <time>2018-12-02T13:31:05.000Z</time>
      </trkpt>
      <trkpt lat="42.91294" lon="0.83513">
        <ele>1368</ele>
        <time>2018-12-02T13:31:07.000Z</time>
      </trkpt>
      <trkpt lat="42.91296" lon="0.83514">
        <ele>1368</ele>
        <time>2018-12-02T13:31:09.000Z</time>
      </trkpt>
      <trkpt lat="42.91296" lon="0.83517">
        <ele>1368</ele>
        <time>2018-12-02T13:31:11.000Z</time>
      </trkpt>
      <trkpt lat="42.91296" lon="0.83521">
        <ele>1367</ele>
        <time>2018-12-02T13:31:13.000Z</time>
      </trkpt>
      <trkpt lat="42.91297" lon="0.83522">
        <ele>1367</ele>
        <time>2018-12-02T13:31:15.000Z</time>
      </trkpt>
      <trkpt lat="42.91298" lon="0.83524">
        <ele>1367</ele>
        <time>2018-12-02T13:31:17.000Z</time>
      </trkpt>
      <trkpt lat="42.913" lon="0.83525">
        <ele>1368</ele>
        <time>2018-12-02T13:31:19.000Z</time>
      </trkpt>
      <trkpt lat="42.91301" lon="0.83526">
        <ele>1368</ele>
        <time>2018-12-02T13:31:21.000Z</time>
      </trkpt>
      <trkpt lat="42.91302" lon="0.83527">
        <ele>1368</ele>
        <time>2018-12-02T13:31:23.000Z</time>
      </trkpt>
      <trkpt lat="42.91302" lon="0.83529">
        <ele>1368</ele>
        <time>2018-12-02T13:31:25.000Z</time>
      </trkpt>
      <trkpt lat="42.91304" lon="0.83531">
        <ele>1368</ele>
        <time>2018-12-02T13:31:27.000Z</time>
      </trkpt>
      <trkpt lat="42.91305" lon="0.83532">
        <ele>1368</ele>
        <time>2018-12-02T13:31:29.000Z</time>
      </trkpt>
      <trkpt lat="42.91306" lon="0.83534">
        <ele>1368</ele>
        <time>2018-12-02T13:31:31.000Z</time>
      </trkpt>
      <trkpt lat="42.91308" lon="0.83536">
        <ele>1369</ele>
        <time>2018-12-02T13:31:33.000Z</time>
      </trkpt>
      <trkpt lat="42.9131" lon="0.83537">
        <ele>1369</ele>
        <time>2018-12-02T13:31:35.000Z</time>
      </trkpt>
      <trkpt lat="42.91311" lon="0.83539">
        <ele>1370</ele>
        <time>2018-12-02T13:31:37.000Z</time>
      </trkpt>
      <trkpt lat="42.91312" lon="0.83541">
        <ele>1369</ele>
        <time>2018-12-02T13:31:39.000Z</time>
      </trkpt>
      <trkpt lat="42.91312" lon="0.83543">
        <ele>1369</ele>
        <time>2018-12-02T13:31:41.000Z</time>
      </trkpt>
      <trkpt lat="42.91313" lon="0.83545">
        <ele>1369</ele>
        <time>2018-12-02T13:31:43.000Z</time>
      </trkpt>
      <trkpt lat="42.91313" lon="0.83547">
        <ele>1368</ele>
        <time>2018-12-02T13:31:45.000Z</time>
      </trkpt>
      <trkpt lat="42.91314" lon="0.83549">
        <ele>1368</ele>
        <time>2018-12-02T13:31:47.000Z</time>
      </trkpt>
      <trkpt lat="42.91314" lon="0.8355">
        <ele>1368</ele>
        <time>2018-12-02T13:31:49.000Z</time>
      </trkpt>
      <trkpt lat="42.91316" lon="0.83552">
        <ele>1368</ele>
        <time>2018-12-02T13:31:51.000Z</time>
      </trkpt>
      <trkpt lat="42.91317" lon="0.83553">
        <ele>1369</ele>
        <time>2018-12-02T13:31:53.000Z</time>
      </trkpt>
      <trkpt lat="42.91318" lon="0.83555">
        <ele>1369</ele>
        <time>2018-12-02T13:31:55.000Z</time>
      </trkpt>
      <trkpt lat="42.9132" lon="0.83556">
        <ele>1370</ele>
        <time>2018-12-02T13:31:57.000Z</time>
      </trkpt>
      <trkpt lat="42.91322" lon="0.83558">
        <ele>1370</ele>
        <time>2018-12-02T13:31:59.000Z</time>
      </trkpt>
      <trkpt lat="42.91323" lon="0.83559">
        <ele>1370</ele>
        <time>2018-12-02T13:32:01.000Z</time>
      </trkpt>
      <trkpt lat="42.91325" lon="0.83561">
        <ele>1371</ele>
        <time>2018-12-02T13:32:03.000Z</time>
      </trkpt>
      <trkpt lat="42.91326" lon="0.83562">
        <ele>1371</ele>
        <time>2018-12-02T13:32:05.000Z</time>
      </trkpt>
      <trkpt lat="42.91327" lon="0.83564">
        <ele>1371</ele>
        <time>2018-12-02T13:32:07.000Z</time>
      </trkpt>
      <trkpt lat="42.91327" lon="0.83566">
        <ele>1371</ele>
        <time>2018-12-02T13:32:09.000Z</time>
      </trkpt>
      <trkpt lat="42.91328" lon="0.83568">
        <ele>1371</ele>
        <time>2018-12-02T13:32:11.000Z</time>
      </trkpt>
      <trkpt lat="42.91329" lon="0.8357">
        <ele>1371</ele>
        <time>2018-12-02T13:32:13.000Z</time>
      </trkpt>
      <trkpt lat="42.9133" lon="0.83572">
        <ele>1371</ele>
        <time>2018-12-02T13:32:15.000Z</time>
      </trkpt>
      <trkpt lat="42.91331" lon="0.83574">
        <ele>1371</ele>
        <time>2018-12-02T13:32:17.000Z</time>
      </trkpt>
      <trkpt lat="42.91332" lon="0.83577">
        <ele>1371</ele>
        <time>2018-12-02T13:32:19.000Z</time>
      </trkpt>
      <trkpt lat="42.91332" lon="0.8358">
        <ele>1370</ele>
        <time>2018-12-02T13:32:21.000Z</time>
      </trkpt>
      <trkpt lat="42.91333" lon="0.83581">
        <ele>1370</ele>
        <time>2018-12-02T13:32:23.000Z</time>
      </trkpt>
      <trkpt lat="42.91335" lon="0.83583">
        <ele>1371</ele>
        <time>2018-12-02T13:32:25.000Z</time>
      </trkpt>
      <trkpt lat="42.91336" lon="0.83585">
        <ele>1371</ele>
        <time>2018-12-02T13:32:27.000Z</time>
      </trkpt>
      <trkpt lat="42.91337" lon="0.83588">
        <ele>1371</ele>
        <time>2018-12-02T13:32:29.000Z</time>
      </trkpt>
      <trkpt lat="42.91338" lon="0.8359">
        <ele>1371</ele>
        <time>2018-12-02T13:32:31.000Z</time>
      </trkpt>
      <trkpt lat="42.91339" lon="0.83592">
        <ele>1371</ele>
        <time>2018-12-02T13:32:33.000Z</time>
      </trkpt>
      <trkpt lat="42.9134" lon="0.83594">
        <ele>1371</ele>
        <time>2018-12-02T13:32:35.000Z</time>
      </trkpt>
      <trkpt lat="42.91341" lon="0.83595">
        <ele>1371</ele>
        <time>2018-12-02T13:32:37.000Z</time>
      </trkpt>
      <trkpt lat="42.91342" lon="0.83597">
        <ele>1371</ele>
        <time>2018-12-02T13:32:39.000Z</time>
      </trkpt>
      <trkpt lat="42.91342" lon="0.83599">
        <ele>1371</ele>
        <time>2018-12-02T13:32:41.000Z</time>
      </trkpt>
      <trkpt lat="42.91343" lon="0.836">
        <ele>1371</ele>
        <time>2018-12-02T13:32:43.000Z</time>
      </trkpt>
      <trkpt lat="42.91344" lon="0.83603">
        <ele>1371</ele>
        <time>2018-12-02T13:32:45.000Z</time>
      </trkpt>
      <trkpt lat="42.91344" lon="0.83605">
        <ele>1371</ele>
        <time>2018-12-02T13:32:47.000Z</time>
      </trkpt>
      <trkpt lat="42.91344" lon="0.83607">
        <ele>1370</ele>
        <time>2018-12-02T13:32:49.000Z</time>
      </trkpt>
      <trkpt lat="42.91344" lon="0.83609">
        <ele>1370</ele>
        <time>2018-12-02T13:32:51.000Z</time>
      </trkpt>
      <trkpt lat="42.91346" lon="0.83611">
        <ele>1371</ele>
        <time>2018-12-02T13:32:53.000Z</time>
      </trkpt>
      <trkpt lat="42.91347" lon="0.83613">
        <ele>1371</ele>
        <time>2018-12-02T13:32:55.000Z</time>
      </trkpt>
      <trkpt lat="42.91348" lon="0.83615">
        <ele>1371</ele>
        <time>2018-12-02T13:32:57.000Z</time>
      </trkpt>
      <trkpt lat="42.9135" lon="0.83616">
        <ele>1371</ele>
        <time>2018-12-02T13:32:59.000Z</time>
      </trkpt>
      <trkpt lat="42.9135" lon="0.83618">
        <ele>1371</ele>
        <time>2018-12-02T13:33:01.000Z</time>
      </trkpt>
      <trkpt lat="42.91351" lon="0.8362">
        <ele>1371</ele>
        <time>2018-12-02T13:33:03.000Z</time>
      </trkpt>
      <trkpt lat="42.91352" lon="0.83623">
        <ele>1371</ele>
        <time>2018-12-02T13:33:05.000Z</time>
      </trkpt>
      <trkpt lat="42.91353" lon="0.83625">
        <ele>1371</ele>
        <time>2018-12-02T13:33:07.000Z</time>
      </trkpt>
      <trkpt lat="42.91354" lon="0.83627">
        <ele>1371</ele>
        <time>2018-12-02T13:33:09.000Z</time>
      </trkpt>
      <trkpt lat="42.91355" lon="0.83629">
        <ele>1371</ele>
        <time>2018-12-02T13:33:11.000Z</time>
      </trkpt>
      <trkpt lat="42.91356" lon="0.8363">
        <ele>1372</ele>
        <time>2018-12-02T13:33:13.000Z</time>
      </trkpt>
      <trkpt lat="42.91357" lon="0.83632">
        <ele>1372</ele>
        <time>2018-12-02T13:33:15.000Z</time>
      </trkpt>
      <trkpt lat="42.91358" lon="0.83634">
        <ele>1372</ele>
        <time>2018-12-02T13:33:17.000Z</time>
      </trkpt>
      <trkpt lat="42.91358" lon="0.83636">
        <ele>1372</ele>
        <time>2018-12-02T13:33:19.000Z</time>
      </trkpt>
      <trkpt lat="42.91359" lon="0.83638">
        <ele>1372</ele>
        <time>2018-12-02T13:33:21.000Z</time>
      </trkpt>
      <trkpt lat="42.91361" lon="0.8364">
        <ele>1372</ele>
        <time>2018-12-02T13:33:23.000Z</time>
      </trkpt>
      <trkpt lat="42.91362" lon="0.83642">
        <ele>1372</ele>
        <time>2018-12-02T13:33:25.000Z</time>
      </trkpt>
      <trkpt lat="42.91363" lon="0.83645">
        <ele>1371</ele>
        <time>2018-12-02T13:33:27.000Z</time>
      </trkpt>
      <trkpt lat="42.91364" lon="0.83647">
        <ele>1371</ele>
        <time>2018-12-02T13:33:29.000Z</time>
      </trkpt>
      <trkpt lat="42.91364" lon="0.8365">
        <ele>1370</ele>
        <time>2018-12-02T13:33:31.000Z</time>
      </trkpt>
      <trkpt lat="42.91364" lon="0.83654">
        <ele>1369</ele>
        <time>2018-12-02T13:33:33.000Z</time>
      </trkpt>
      <trkpt lat="42.91365" lon="0.83656">
        <ele>1369</ele>
        <time>2018-12-02T13:33:35.000Z</time>
      </trkpt>
      <trkpt lat="42.91366" lon="0.83658">
        <ele>1369</ele>
        <time>2018-12-02T13:33:37.000Z</time>
      </trkpt>
      <trkpt lat="42.91368" lon="0.83659">
        <ele>1370</ele>
        <time>2018-12-02T13:33:39.000Z</time>
      </trkpt>
      <trkpt lat="42.91369" lon="0.83661">
        <ele>1369</ele>
        <time>2018-12-02T13:33:41.000Z</time>
      </trkpt>
      <trkpt lat="42.9137" lon="0.83663">
        <ele>1369</ele>
        <time>2018-12-02T13:33:43.000Z</time>
      </trkpt>
      <trkpt lat="42.91373" lon="0.83664">
        <ele>1370</ele>
        <time>2018-12-02T13:33:45.000Z</time>
      </trkpt>
      <trkpt lat="42.91374" lon="0.83665">
        <ele>1371</ele>
        <time>2018-12-02T13:33:47.000Z</time>
      </trkpt>
      <trkpt lat="42.91374" lon="0.83668">
        <ele>1370</ele>
        <time>2018-12-02T13:33:49.000Z</time>
      </trkpt>
      <trkpt lat="42.91375" lon="0.83669">
        <ele>1370</ele>
        <time>2018-12-02T13:33:51.000Z</time>
      </trkpt>
      <trkpt lat="42.91377" lon="0.83669">
        <ele>1371</ele>
        <time>2018-12-02T13:33:53.000Z</time>
      </trkpt>
      <trkpt lat="42.91379" lon="0.8367">
        <ele>1372</ele>
        <time>2018-12-02T13:33:55.000Z</time>
      </trkpt>
      <trkpt lat="42.9138" lon="0.83671">
        <ele>1372</ele>
        <time>2018-12-02T13:33:57.000Z</time>
      </trkpt>
      <trkpt lat="42.91382" lon="0.83673">
        <ele>1373</ele>
        <time>2018-12-02T13:33:59.000Z</time>
      </trkpt>
      <trkpt lat="42.91383" lon="0.83674">
        <ele>1373</ele>
        <time>2018-12-02T13:34:01.000Z</time>
      </trkpt>
      <trkpt lat="42.91384" lon="0.83675">
        <ele>1373</ele>
        <time>2018-12-02T13:34:03.000Z</time>
      </trkpt>
      <trkpt lat="42.91385" lon="0.83678">
        <ele>1372</ele>
        <time>2018-12-02T13:34:05.000Z</time>
      </trkpt>
      <trkpt lat="42.91385" lon="0.8368">
        <ele>1372</ele>
        <time>2018-12-02T13:34:07.000Z</time>
      </trkpt>
      <trkpt lat="42.91386" lon="0.83681">
        <ele>1372</ele>
        <time>2018-12-02T13:34:09.000Z</time>
      </trkpt>
      <trkpt lat="42.91386" lon="0.83683">
        <ele>1371</ele>
        <time>2018-12-02T13:34:11.000Z</time>
      </trkpt>
      <trkpt lat="42.91388" lon="0.83684">
        <ele>1372</ele>
        <time>2018-12-02T13:34:13.000Z</time>
      </trkpt>
      <trkpt lat="42.91389" lon="0.83685">
        <ele>1372</ele>
        <time>2018-12-02T13:34:15.000Z</time>
      </trkpt>
      <trkpt lat="42.9139" lon="0.83687">
        <ele>1372</ele>
        <time>2018-12-02T13:34:17.000Z</time>
      </trkpt>
      <trkpt lat="42.91391" lon="0.83689">
        <ele>1372</ele>
        <time>2018-12-02T13:34:19.000Z</time>
      </trkpt>
      <trkpt lat="42.91392" lon="0.83691">
        <ele>1372</ele>
        <time>2018-12-02T13:34:21.000Z</time>
      </trkpt>
      <trkpt lat="42.91393" lon="0.83692">
        <ele>1372</ele>
        <time>2018-12-02T13:34:23.000Z</time>
      </trkpt>
      <trkpt lat="42.91395" lon="0.83693">
        <ele>1373</ele>
        <time>2018-12-02T13:34:25.000Z</time>
      </trkpt>
      <trkpt lat="42.91397" lon="0.83694">
        <ele>1374</ele>
        <time>2018-12-02T13:34:27.000Z</time>
      </trkpt>
      <trkpt lat="42.91398" lon="0.83696">
        <ele>1374</ele>
        <time>2018-12-02T13:34:29.000Z</time>
      </trkpt>
      <trkpt lat="42.91401" lon="0.83697">
        <ele>1375</ele>
        <time>2018-12-02T13:34:31.000Z</time>
      </trkpt>
      <trkpt lat="42.91402" lon="0.83698">
        <ele>1375</ele>
        <time>2018-12-02T13:34:33.000Z</time>
      </trkpt>
      <trkpt lat="42.91403" lon="0.83699">
        <ele>1376</ele>
        <time>2018-12-02T13:34:35.000Z</time>
      </trkpt>
      <trkpt lat="42.91404" lon="0.83699">
        <ele>1376</ele>
        <time>2018-12-02T13:34:37.000Z</time>
      </trkpt>
      <trkpt lat="42.91406" lon="0.83699">
        <ele>1377</ele>
        <time>2018-12-02T13:34:39.000Z</time>
      </trkpt>
      <trkpt lat="42.91409" lon="0.83699">
        <ele>1379</ele>
        <time>2018-12-02T13:34:41.000Z</time>
      </trkpt>
      <trkpt lat="42.91408" lon="0.83703">
        <ele>1377</ele>
        <time>2018-12-02T13:34:43.000Z</time>
      </trkpt>
      <trkpt lat="42.91409" lon="0.83704">
        <ele>1377</ele>
        <time>2018-12-02T13:34:45.000Z</time>
      </trkpt>
      <trkpt lat="42.9141" lon="0.83704">
        <ele>1378</ele>
        <time>2018-12-02T13:34:47.000Z</time>
      </trkpt>
      <trkpt lat="42.91412" lon="0.83705">
        <ele>1379</ele>
        <time>2018-12-02T13:34:49.000Z</time>
      </trkpt>
      <trkpt lat="42.91415" lon="0.83705">
        <ele>1380</ele>
        <time>2018-12-02T13:34:51.000Z</time>
      </trkpt>
      <trkpt lat="42.91416" lon="0.83707">
        <ele>1380</ele>
        <time>2018-12-02T13:34:53.000Z</time>
      </trkpt>
      <trkpt lat="42.91416" lon="0.8371">
        <ele>1379</ele>
        <time>2018-12-02T13:34:55.000Z</time>
      </trkpt>
      <trkpt lat="42.91417" lon="0.83712">
        <ele>1379</ele>
        <time>2018-12-02T13:34:57.000Z</time>
      </trkpt>
      <trkpt lat="42.91419" lon="0.83713">
        <ele>1380</ele>
        <time>2018-12-02T13:34:59.000Z</time>
      </trkpt>
      <trkpt lat="42.91421" lon="0.83713">
        <ele>1381</ele>
        <time>2018-12-02T13:35:01.000Z</time>
      </trkpt>
      <trkpt lat="42.91423" lon="0.83714">
        <ele>1382</ele>
        <time>2018-12-02T13:35:03.000Z</time>
      </trkpt>
      <trkpt lat="42.91426" lon="0.83714">
        <ele>1382</ele>
        <time>2018-12-02T13:35:05.000Z</time>
      </trkpt>
      <trkpt lat="42.91428" lon="0.83715">
        <ele>1383</ele>
        <time>2018-12-02T13:35:07.000Z</time>
      </trkpt>
      <trkpt lat="42.91431" lon="0.83716">
        <ele>1383</ele>
        <time>2018-12-02T13:35:09.000Z</time>
      </trkpt>
      <trkpt lat="42.91434" lon="0.83717">
        <ele>1384</ele>
        <time>2018-12-02T13:35:11.000Z</time>
      </trkpt>
      <trkpt lat="42.91436" lon="0.83719">
        <ele>1384</ele>
        <time>2018-12-02T13:35:13.000Z</time>
      </trkpt>
      <trkpt lat="42.91437" lon="0.8372">
        <ele>1384</ele>
        <time>2018-12-02T13:35:15.000Z</time>
      </trkpt>
      <trkpt lat="42.9144" lon="0.83721">
        <ele>1385</ele>
        <time>2018-12-02T13:35:17.000Z</time>
      </trkpt>
      <trkpt lat="42.91441" lon="0.83722">
        <ele>1385</ele>
        <time>2018-12-02T13:35:19.000Z</time>
      </trkpt>
      <trkpt lat="42.91442" lon="0.83724">
        <ele>1385</ele>
        <time>2018-12-02T13:35:21.000Z</time>
      </trkpt>
      <trkpt lat="42.91444" lon="0.83726">
        <ele>1384</ele>
        <time>2018-12-02T13:35:23.000Z</time>
      </trkpt>
      <trkpt lat="42.91447" lon="0.83728">
        <ele>1385</ele>
        <time>2018-12-02T13:35:25.000Z</time>
      </trkpt>
      <trkpt lat="42.91448" lon="0.83731">
        <ele>1385</ele>
        <time>2018-12-02T13:35:27.000Z</time>
      </trkpt>
      <trkpt lat="42.91449" lon="0.83734">
        <ele>1384</ele>
        <time>2018-12-02T13:35:29.000Z</time>
      </trkpt>
      <trkpt lat="42.91449" lon="0.83736">
        <ele>1383</ele>
        <time>2018-12-02T13:35:31.000Z</time>
      </trkpt>
      <trkpt lat="42.9145" lon="0.83739">
        <ele>1382</ele>
        <time>2018-12-02T13:35:33.000Z</time>
      </trkpt>
      <trkpt lat="42.91451" lon="0.83741">
        <ele>1382</ele>
        <time>2018-12-02T13:35:35.000Z</time>
      </trkpt>
      <trkpt lat="42.91452" lon="0.83744">
        <ele>1382</ele>
        <time>2018-12-02T13:35:37.000Z</time>
      </trkpt>
      <trkpt lat="42.91454" lon="0.83746">
        <ele>1381</ele>
        <time>2018-12-02T13:35:39.000Z</time>
      </trkpt>
      <trkpt lat="42.91455" lon="0.83749">
        <ele>1381</ele>
        <time>2018-12-02T13:35:41.000Z</time>
      </trkpt>
      <trkpt lat="42.91456" lon="0.83752">
        <ele>1380</ele>
        <time>2018-12-02T13:35:43.000Z</time>
      </trkpt>
      <trkpt lat="42.91457" lon="0.83755">
        <ele>1379</ele>
        <time>2018-12-02T13:35:45.000Z</time>
      </trkpt>
      <trkpt lat="42.91457" lon="0.83759">
        <ele>1378</ele>
        <time>2018-12-02T13:35:47.000Z</time>
      </trkpt>
      <trkpt lat="42.91457" lon="0.83762">
        <ele>1377</ele>
        <time>2018-12-02T13:35:49.000Z</time>
      </trkpt>
      <trkpt lat="42.91458" lon="0.83766">
        <ele>1376</ele>
        <time>2018-12-02T13:35:51.000Z</time>
      </trkpt>
      <trkpt lat="42.91459" lon="0.83769">
        <ele>1375</ele>
        <time>2018-12-02T13:35:53.000Z</time>
      </trkpt>
      <trkpt lat="42.9146" lon="0.83771">
        <ele>1375</ele>
        <time>2018-12-02T13:35:55.000Z</time>
      </trkpt>
      <trkpt lat="42.91461" lon="0.83774">
        <ele>1374</ele>
        <time>2018-12-02T13:35:57.000Z</time>
      </trkpt>
      <trkpt lat="42.91463" lon="0.83776">
        <ele>1374</ele>
        <time>2018-12-02T13:35:59.000Z</time>
      </trkpt>
      <trkpt lat="42.91464" lon="0.83779">
        <ele>1374</ele>
        <time>2018-12-02T13:36:01.000Z</time>
      </trkpt>
      <trkpt lat="42.91465" lon="0.83782">
        <ele>1373</ele>
        <time>2018-12-02T13:36:03.000Z</time>
      </trkpt>
      <trkpt lat="42.91466" lon="0.83785">
        <ele>1372</ele>
        <time>2018-12-02T13:36:05.000Z</time>
      </trkpt>
      <trkpt lat="42.91467" lon="0.83788">
        <ele>1371</ele>
        <time>2018-12-02T13:36:07.000Z</time>
      </trkpt>
      <trkpt lat="42.91468" lon="0.8379">
        <ele>1371</ele>
        <time>2018-12-02T13:36:09.000Z</time>
      </trkpt>
      <trkpt lat="42.91469" lon="0.83792">
        <ele>1371</ele>
        <time>2018-12-02T13:36:11.000Z</time>
      </trkpt>
      <trkpt lat="42.91472" lon="0.83794">
        <ele>1371</ele>
        <time>2018-12-02T13:36:13.000Z</time>
      </trkpt>
      <trkpt lat="42.91474" lon="0.83796">
        <ele>1371</ele>
        <time>2018-12-02T13:36:15.000Z</time>
      </trkpt>
      <trkpt lat="42.91476" lon="0.83798">
        <ele>1371</ele>
        <time>2018-12-02T13:36:17.000Z</time>
      </trkpt>
      <trkpt lat="42.91477" lon="0.838">
        <ele>1371</ele>
        <time>2018-12-02T13:36:19.000Z</time>
      </trkpt>
      <trkpt lat="42.91479" lon="0.83802">
        <ele>1371</ele>
        <time>2018-12-02T13:36:21.000Z</time>
      </trkpt>
      <trkpt lat="42.91479" lon="0.83804">
        <ele>1370</ele>
        <time>2018-12-02T13:36:23.000Z</time>
      </trkpt>
      <trkpt lat="42.91481" lon="0.83806">
        <ele>1370</ele>
        <time>2018-12-02T13:36:25.000Z</time>
      </trkpt>
      <trkpt lat="42.91482" lon="0.83809">
        <ele>1370</ele>
        <time>2018-12-02T13:36:27.000Z</time>
      </trkpt>
      <trkpt lat="42.91484" lon="0.8381">
        <ele>1369</ele>
        <time>2018-12-02T13:36:29.000Z</time>
      </trkpt>
      <trkpt lat="42.91485" lon="0.83812">
        <ele>1369</ele>
        <time>2018-12-02T13:36:31.000Z</time>
      </trkpt>
      <trkpt lat="42.91486" lon="0.83813">
        <ele>1369</ele>
        <time>2018-12-02T13:36:33.000Z</time>
      </trkpt>
      <trkpt lat="42.91488" lon="0.83813">
        <ele>1370</ele>
        <time>2018-12-02T13:36:35.000Z</time>
      </trkpt>
      <trkpt lat="42.9149" lon="0.83812">
        <ele>1371</ele>
        <time>2018-12-02T13:36:37.000Z</time>
      </trkpt>
      <trkpt lat="42.91491" lon="0.83812">
        <ele>1371</ele>
        <time>2018-12-02T13:36:39.000Z</time>
      </trkpt>
      <trkpt lat="42.91492" lon="0.83812">
        <ele>1372</ele>
        <time>2018-12-02T13:36:41.000Z</time>
      </trkpt>
      <trkpt lat="42.91494" lon="0.83812">
        <ele>1372</ele>
        <time>2018-12-02T13:36:43.000Z</time>
      </trkpt>
      <trkpt lat="42.91496" lon="0.83812">
        <ele>1373</ele>
        <time>2018-12-02T13:36:45.000Z</time>
      </trkpt>
      <trkpt lat="42.91498" lon="0.83811">
        <ele>1374</ele>
        <time>2018-12-02T13:36:47.000Z</time>
      </trkpt>
      <trkpt lat="42.915" lon="0.83811">
        <ele>1374</ele>
        <time>2018-12-02T13:36:49.000Z</time>
      </trkpt>
      <trkpt lat="42.91503" lon="0.83811">
        <ele>1376</ele>
        <time>2018-12-02T13:36:51.000Z</time>
      </trkpt>
      <trkpt lat="42.91504" lon="0.8381">
        <ele>1376</ele>
        <time>2018-12-02T13:36:53.000Z</time>
      </trkpt>
      <trkpt lat="42.91507" lon="0.83811">
        <ele>1377</ele>
        <time>2018-12-02T13:36:55.000Z</time>
      </trkpt>
      <trkpt lat="42.9151" lon="0.8381">
        <ele>1378</ele>
        <time>2018-12-02T13:36:57.000Z</time>
      </trkpt>
      <trkpt lat="42.91512" lon="0.83809">
        <ele>1379</ele>
        <time>2018-12-02T13:36:59.000Z</time>
      </trkpt>
      <trkpt lat="42.91513" lon="0.83809">
        <ele>1379</ele>
        <time>2018-12-02T13:37:01.000Z</time>
      </trkpt>
      <trkpt lat="42.91515" lon="0.83807">
        <ele>1380</ele>
        <time>2018-12-02T13:37:03.000Z</time>
      </trkpt>
      <trkpt lat="42.91516" lon="0.83806">
        <ele>1381</ele>
        <time>2018-12-02T13:37:05.000Z</time>
      </trkpt>
      <trkpt lat="42.91518" lon="0.83804">
        <ele>1382</ele>
        <time>2018-12-02T13:37:07.000Z</time>
      </trkpt>
      <trkpt lat="42.9152" lon="0.83803">
        <ele>1383</ele>
        <time>2018-12-02T13:37:09.000Z</time>
      </trkpt>
      <trkpt lat="42.91522" lon="0.83801">
        <ele>1384</ele>
        <time>2018-12-02T13:37:11.000Z</time>
      </trkpt>
      <trkpt lat="42.91525" lon="0.838">
        <ele>1385</ele>
        <time>2018-12-02T13:37:13.000Z</time>
      </trkpt>
      <trkpt lat="42.91527" lon="0.838">
        <ele>1385</ele>
        <time>2018-12-02T13:37:15.000Z</time>
      </trkpt>
      <trkpt lat="42.91529" lon="0.838">
        <ele>1386</ele>
        <time>2018-12-02T13:37:17.000Z</time>
      </trkpt>
      <trkpt lat="42.91531" lon="0.83799">
        <ele>1386</ele>
        <time>2018-12-02T13:37:19.000Z</time>
      </trkpt>
      <trkpt lat="42.91533" lon="0.83797">
        <ele>1387</ele>
        <time>2018-12-02T13:37:21.000Z</time>
      </trkpt>
      <trkpt lat="42.91536" lon="0.83796">
        <ele>1388</ele>
        <time>2018-12-02T13:37:23.000Z</time>
      </trkpt>
      <trkpt lat="42.91539" lon="0.83796">
        <ele>1389</ele>
        <time>2018-12-02T13:37:25.000Z</time>
      </trkpt>
      <trkpt lat="42.91542" lon="0.83796">
        <ele>1390</ele>
        <time>2018-12-02T13:37:27.000Z</time>
      </trkpt>
      <trkpt lat="42.91544" lon="0.83795">
        <ele>1390</ele>
        <time>2018-12-02T13:37:29.000Z</time>
      </trkpt>
      <trkpt lat="42.91546" lon="0.83795">
        <ele>1391</ele>
        <time>2018-12-02T13:37:31.000Z</time>
      </trkpt>
      <trkpt lat="42.91548" lon="0.83795">
        <ele>1392</ele>
        <time>2018-12-02T13:37:33.000Z</time>
      </trkpt>
      <trkpt lat="42.91549" lon="0.83795">
        <ele>1392</ele>
        <time>2018-12-02T13:37:35.000Z</time>
      </trkpt>
      <trkpt lat="42.91551" lon="0.83794">
        <ele>1392</ele>
        <time>2018-12-02T13:37:37.000Z</time>
      </trkpt>
      <trkpt lat="42.91554" lon="0.83794">
        <ele>1393</ele>
        <time>2018-12-02T13:37:39.000Z</time>
      </trkpt>
      <trkpt lat="42.91556" lon="0.83795">
        <ele>1393</ele>
        <time>2018-12-02T13:37:41.000Z</time>
      </trkpt>
      <trkpt lat="42.91559" lon="0.83795">
        <ele>1394</ele>
        <time>2018-12-02T13:37:43.000Z</time>
      </trkpt>
      <trkpt lat="42.91562" lon="0.83796">
        <ele>1394</ele>
        <time>2018-12-02T13:37:45.000Z</time>
      </trkpt>
      <trkpt lat="42.91565" lon="0.83797">
        <ele>1394</ele>
        <time>2018-12-02T13:37:47.000Z</time>
      </trkpt>
      <trkpt lat="42.91568" lon="0.83799">
        <ele>1394</ele>
        <time>2018-12-02T13:37:49.000Z</time>
      </trkpt>
      <trkpt lat="42.91572" lon="0.83801">
        <ele>1394</ele>
        <time>2018-12-02T13:37:51.000Z</time>
      </trkpt>
      <trkpt lat="42.91574" lon="0.83804">
        <ele>1394</ele>
        <time>2018-12-02T13:37:53.000Z</time>
      </trkpt>
      <trkpt lat="42.91576" lon="0.83805">
        <ele>1394</ele>
        <time>2018-12-02T13:37:55.000Z</time>
      </trkpt>
      <trkpt lat="42.91577" lon="0.83807">
        <ele>1394</ele>
        <time>2018-12-02T13:37:57.000Z</time>
      </trkpt>
      <trkpt lat="42.91578" lon="0.83809">
        <ele>1393</ele>
        <time>2018-12-02T13:37:59.000Z</time>
      </trkpt>
      <trkpt lat="42.91578" lon="0.8381">
        <ele>1393</ele>
        <time>2018-12-02T13:38:01.000Z</time>
      </trkpt>
      <trkpt lat="42.91579" lon="0.83811">
        <ele>1393</ele>
        <time>2018-12-02T13:38:03.000Z</time>
      </trkpt>
      <trkpt lat="42.91578" lon="0.8381">
        <ele>1393</ele>
        <time>2018-12-02T13:38:05.000Z</time>
      </trkpt>
      <trkpt lat="42.91578" lon="0.83811">
        <ele>1393</ele>
        <time>2018-12-02T13:38:07.000Z</time>
      </trkpt>
      <trkpt lat="42.91577" lon="0.83811">
        <ele>1392</ele>
        <time>2018-12-02T13:38:09.000Z</time>
      </trkpt>
      <trkpt lat="42.91577" lon="0.83812">
        <ele>1392</ele>
        <time>2018-12-02T13:38:12.000Z</time>
      </trkpt>
      <trkpt lat="42.91577" lon="0.83812">
        <ele>1392</ele>
        <time>2018-12-02T13:38:14.000Z</time>
      </trkpt>
      <trkpt lat="42.91577" lon="0.83813">
        <ele>1392</ele>
        <time>2018-12-02T13:38:16.000Z</time>
      </trkpt>
      <trkpt lat="42.91577" lon="0.83814">
        <ele>1391</ele>
        <time>2018-12-02T13:38:18.000Z</time>
      </trkpt>
      <trkpt lat="42.91577" lon="0.83814">
        <ele>1391</ele>
        <time>2018-12-02T13:38:20.000Z</time>
      </trkpt>
      <trkpt lat="42.91578" lon="0.83814">
        <ele>1391</ele>
        <time>2018-12-02T13:38:22.000Z</time>
      </trkpt>
      <trkpt lat="42.91577" lon="0.83814">
        <ele>1391</ele>
        <time>2018-12-02T13:38:24.000Z</time>
      </trkpt>
      <trkpt lat="42.91576" lon="0.83813">
        <ele>1391</ele>
        <time>2018-12-02T13:38:26.000Z</time>
      </trkpt>
      <trkpt lat="42.91575" lon="0.83812">
        <ele>1391</ele>
        <time>2018-12-02T13:38:29.000Z</time>
      </trkpt>
      <trkpt lat="42.91576" lon="0.83811">
        <ele>1392</ele>
        <time>2018-12-02T13:38:31.000Z</time>
      </trkpt>
      <trkpt lat="42.91575" lon="0.8381">
        <ele>1392</ele>
        <time>2018-12-02T13:38:33.000Z</time>
      </trkpt>
      <trkpt lat="42.91575" lon="0.8381">
        <ele>1392</ele>
        <time>2018-12-02T13:38:35.000Z</time>
      </trkpt>
      <trkpt lat="42.91574" lon="0.8381">
        <ele>1392</ele>
        <time>2018-12-02T13:38:37.000Z</time>
      </trkpt>
      <trkpt lat="42.91574" lon="0.83809">
        <ele>1392</ele>
        <time>2018-12-02T13:38:39.000Z</time>
      </trkpt>
      <trkpt lat="42.91573" lon="0.83809">
        <ele>1392</ele>
        <time>2018-12-02T13:38:41.000Z</time>
      </trkpt>
      <trkpt lat="42.91573" lon="0.83808">
        <ele>1393</ele>
        <time>2018-12-02T13:38:43.000Z</time>
      </trkpt>
      <trkpt lat="42.91573" lon="0.83808">
        <ele>1392</ele>
        <time>2018-12-02T13:38:45.000Z</time>
      </trkpt>
      <trkpt lat="42.91573" lon="0.83809">
        <ele>1392</ele>
        <time>2018-12-02T13:38:47.000Z</time>
      </trkpt>
      <trkpt lat="42.91574" lon="0.83809">
        <ele>1392</ele>
        <time>2018-12-02T13:38:49.000Z</time>
      </trkpt>
      <trkpt lat="42.91574" lon="0.83809">
        <ele>1392</ele>
        <time>2018-12-02T13:38:51.000Z</time>
      </trkpt>
      <trkpt lat="42.91573" lon="0.8381">
        <ele>1392</ele>
        <time>2018-12-02T13:38:53.000Z</time>
      </trkpt>
      <trkpt lat="42.91574" lon="0.8381">
        <ele>1392</ele>
        <time>2018-12-02T13:38:55.000Z</time>
      </trkpt>
      <trkpt lat="42.91574" lon="0.8381">
        <ele>1392</ele>
        <time>2018-12-02T13:38:57.000Z</time>
      </trkpt>
      <trkpt lat="42.91575" lon="0.83811">
        <ele>1392</ele>
        <time>2018-12-02T13:38:59.000Z</time>
      </trkpt>
      <trkpt lat="42.91575" lon="0.83811">
        <ele>1392</ele>
        <time>2018-12-02T13:39:01.000Z</time>
      </trkpt>
      <trkpt lat="42.91575" lon="0.8381">
        <ele>1392</ele>
        <time>2018-12-02T13:39:03.000Z</time>
      </trkpt>
      <trkpt lat="42.91575" lon="0.8381">
        <ele>1392</ele>
        <time>2018-12-02T13:39:05.000Z</time>
      </trkpt>
      <trkpt lat="42.91576" lon="0.83809">
        <ele>1393</ele>
        <time>2018-12-02T13:39:07.000Z</time>
      </trkpt>
      <trkpt lat="42.91576" lon="0.83809">
        <ele>1393</ele>
        <time>2018-12-02T13:39:09.000Z</time>
      </trkpt>
      <trkpt lat="42.91577" lon="0.83808">
        <ele>1393</ele>
        <time>2018-12-02T13:39:11.000Z</time>
      </trkpt>
      <trkpt lat="42.91578" lon="0.83808">
        <ele>1394</ele>
        <time>2018-12-02T13:39:13.000Z</time>
      </trkpt>
      <trkpt lat="42.91578" lon="0.83807">
        <ele>1394</ele>
        <time>2018-12-02T13:39:15.000Z</time>
      </trkpt>
      <trkpt lat="42.91578" lon="0.83806">
        <ele>1394</ele>
        <time>2018-12-02T13:39:17.000Z</time>
      </trkpt>
      <trkpt lat="42.91578" lon="0.83805">
        <ele>1395</ele>
        <time>2018-12-02T13:39:19.000Z</time>
      </trkpt>
      <trkpt lat="42.91578" lon="0.83805">
        <ele>1394</ele>
        <time>2018-12-02T13:39:21.000Z</time>
      </trkpt>
      <trkpt lat="42.91578" lon="0.83806">
        <ele>1394</ele>
        <time>2018-12-02T13:39:23.000Z</time>
      </trkpt>
      <trkpt lat="42.91579" lon="0.83806">
        <ele>1394</ele>
        <time>2018-12-02T13:39:25.000Z</time>
      </trkpt>
      <trkpt lat="42.91579" lon="0.83806">
        <ele>1394</ele>
        <time>2018-12-02T13:39:27.000Z</time>
      </trkpt>
      <trkpt lat="42.91578" lon="0.83807">
        <ele>1394</ele>
        <time>2018-12-02T13:39:29.000Z</time>
      </trkpt>
      <trkpt lat="42.91579" lon="0.83809">
        <ele>1393</ele>
        <time>2018-12-02T13:39:31.000Z</time>
      </trkpt>
      <trkpt lat="42.91576" lon="0.83812">
        <ele>1392</ele>
        <time>2018-12-02T13:39:33.000Z</time>
      </trkpt>
      <trkpt lat="42.91577" lon="0.83813">
        <ele>1392</ele>
        <time>2018-12-02T13:39:35.000Z</time>
      </trkpt>
      <trkpt lat="42.91576" lon="0.83813">
        <ele>1391</ele>
        <time>2018-12-02T13:39:37.000Z</time>
      </trkpt>
      <trkpt lat="42.91576" lon="0.83814">
        <ele>1391</ele>
        <time>2018-12-02T13:39:39.000Z</time>
      </trkpt>
      <trkpt lat="42.91575" lon="0.83814">
        <ele>1391</ele>
        <time>2018-12-02T13:39:41.000Z</time>
      </trkpt>
      <trkpt lat="42.91575" lon="0.83815">
        <ele>1390</ele>
        <time>2018-12-02T13:39:43.000Z</time>
      </trkpt>
      <trkpt lat="42.91574" lon="0.83815">
        <ele>1390</ele>
        <time>2018-12-02T13:39:45.000Z</time>
      </trkpt>
      <trkpt lat="42.91574" lon="0.83815">
        <ele>1390</ele>
        <time>2018-12-02T13:39:47.000Z</time>
      </trkpt>
      <trkpt lat="42.91574" lon="0.83815">
        <ele>1390</ele>
        <time>2018-12-02T13:39:49.000Z</time>
      </trkpt>
      <trkpt lat="42.91574" lon="0.83815">
        <ele>1390</ele>
        <time>2018-12-02T13:39:51.000Z</time>
      </trkpt>
      <trkpt lat="42.91573" lon="0.83815">
        <ele>1390</ele>
        <time>2018-12-02T13:39:53.000Z</time>
      </trkpt>
      <trkpt lat="42.91573" lon="0.83815">
        <ele>1390</ele>
        <time>2018-12-02T13:39:55.000Z</time>
      </trkpt>
      <trkpt lat="42.91574" lon="0.83815">
        <ele>1390</ele>
        <time>2018-12-02T13:39:57.000Z</time>
      </trkpt>
      <trkpt lat="42.91576" lon="0.83814">
        <ele>1391</ele>
        <time>2018-12-02T13:39:59.000Z</time>
      </trkpt>
      <trkpt lat="42.91577" lon="0.83813">
        <ele>1392</ele>
        <time>2018-12-02T13:40:01.000Z</time>
      </trkpt>
      <trkpt lat="42.91578" lon="0.83812">
        <ele>1392</ele>
        <time>2018-12-02T13:40:03.000Z</time>
      </trkpt>
      <trkpt lat="42.91579" lon="0.83812">
        <ele>1392</ele>
        <time>2018-12-02T13:40:05.000Z</time>
      </trkpt>
      <trkpt lat="42.91579" lon="0.83812">
        <ele>1393</ele>
        <time>2018-12-02T13:40:07.000Z</time>
      </trkpt>
      <trkpt lat="42.91581" lon="0.8381">
        <ele>1394</ele>
        <time>2018-12-02T13:40:09.000Z</time>
      </trkpt>
      <trkpt lat="42.91583" lon="0.8381">
        <ele>1394</ele>
        <time>2018-12-02T13:40:11.000Z</time>
      </trkpt>
      <trkpt lat="42.91584" lon="0.8381">
        <ele>1394</ele>
        <time>2018-12-02T13:40:13.000Z</time>
      </trkpt>
      <trkpt lat="42.91585" lon="0.8381">
        <ele>1394</ele>
        <time>2018-12-02T13:40:15.000Z</time>
      </trkpt>
      <trkpt lat="42.91585" lon="0.83809">
        <ele>1395</ele>
        <time>2018-12-02T13:40:17.000Z</time>
      </trkpt>
      <trkpt lat="42.91581" lon="0.83812">
        <ele>1393</ele>
        <time>2018-12-02T13:40:19.000Z</time>
      </trkpt>
      <trkpt lat="42.9158" lon="0.83811">
        <ele>1393</ele>
        <time>2018-12-02T13:40:21.000Z</time>
      </trkpt>
      <trkpt lat="42.91577" lon="0.83811">
        <ele>1392</ele>
        <time>2018-12-02T13:40:23.000Z</time>
      </trkpt>
      <trkpt lat="42.91576" lon="0.83811">
        <ele>1392</ele>
        <time>2018-12-02T13:40:25.000Z</time>
      </trkpt>
      <trkpt lat="42.91575" lon="0.8381">
        <ele>1392</ele>
        <time>2018-12-02T13:40:27.000Z</time>
      </trkpt>
      <trkpt lat="42.91575" lon="0.8381">
        <ele>1392</ele>
        <time>2018-12-02T13:40:29.000Z</time>
      </trkpt>
      <trkpt lat="42.91575" lon="0.83809">
        <ele>1392</ele>
        <time>2018-12-02T13:40:31.000Z</time>
      </trkpt>
      <trkpt lat="42.91575" lon="0.83809">
        <ele>1392</ele>
        <time>2018-12-02T13:40:33.000Z</time>
      </trkpt>
      <trkpt lat="42.91575" lon="0.83808">
        <ele>1393</ele>
        <time>2018-12-02T13:40:35.000Z</time>
      </trkpt>
      <trkpt lat="42.91575" lon="0.83808">
        <ele>1393</ele>
        <time>2018-12-02T13:40:37.000Z</time>
      </trkpt>
      <trkpt lat="42.91575" lon="0.83808">
        <ele>1393</ele>
        <time>2018-12-02T13:40:39.000Z</time>
      </trkpt>
      <trkpt lat="42.91575" lon="0.83809">
        <ele>1393</ele>
        <time>2018-12-02T13:40:41.000Z</time>
      </trkpt>
      <trkpt lat="42.91575" lon="0.83809">
        <ele>1393</ele>
        <time>2018-12-02T13:40:43.000Z</time>
      </trkpt>
      <trkpt lat="42.91575" lon="0.83809">
        <ele>1393</ele>
        <time>2018-12-02T13:40:45.000Z</time>
      </trkpt>
      <trkpt lat="42.91575" lon="0.8381">
        <ele>1392</ele>
        <time>2018-12-02T13:40:47.000Z</time>
      </trkpt>
      <trkpt lat="42.91575" lon="0.8381">
        <ele>1392</ele>
        <time>2018-12-02T13:40:49.000Z</time>
      </trkpt>
      <trkpt lat="42.91575" lon="0.8381">
        <ele>1392</ele>
        <time>2018-12-02T13:40:51.000Z</time>
      </trkpt>
      <trkpt lat="42.91575" lon="0.8381">
        <ele>1392</ele>
        <time>2018-12-02T13:40:53.000Z</time>
      </trkpt>
      <trkpt lat="42.91575" lon="0.83809">
        <ele>1393</ele>
        <time>2018-12-02T13:40:55.000Z</time>
      </trkpt>
      <trkpt lat="42.91575" lon="0.83809">
        <ele>1393</ele>
        <time>2018-12-02T13:40:57.000Z</time>
      </trkpt>
      <trkpt lat="42.91575" lon="0.83808">
        <ele>1393</ele>
        <time>2018-12-02T13:40:59.000Z</time>
      </trkpt>
      <trkpt lat="42.91575" lon="0.83808">
        <ele>1393</ele>
        <time>2018-12-02T13:41:01.000Z</time>
      </trkpt>
      <trkpt lat="42.91574" lon="0.83807">
        <ele>1393</ele>
        <time>2018-12-02T13:41:03.000Z</time>
      </trkpt>
      <trkpt lat="42.91573" lon="0.83808">
        <ele>1393</ele>
        <time>2018-12-02T13:41:05.000Z</time>
      </trkpt>
      <trkpt lat="42.91573" lon="0.83808">
        <ele>1392</ele>
        <time>2018-12-02T13:41:07.000Z</time>
      </trkpt>
      <trkpt lat="42.91574" lon="0.83809">
        <ele>1392</ele>
        <time>2018-12-02T13:41:09.000Z</time>
      </trkpt>
      <trkpt lat="42.91574" lon="0.83809">
        <ele>1392</ele>
        <time>2018-12-02T13:41:11.000Z</time>
      </trkpt>
      <trkpt lat="42.91574" lon="0.83809">
        <ele>1392</ele>
        <time>2018-12-02T13:41:13.000Z</time>
      </trkpt>
      <trkpt lat="42.91574" lon="0.83809">
        <ele>1392</ele>
        <time>2018-12-02T13:41:15.000Z</time>
      </trkpt>
      <trkpt lat="42.91574" lon="0.83809">
        <ele>1392</ele>
        <time>2018-12-02T13:41:17.000Z</time>
      </trkpt>
      <trkpt lat="42.91573" lon="0.83809">
        <ele>1392</ele>
        <time>2018-12-02T13:41:19.000Z</time>
      </trkpt>
      <trkpt lat="42.91573" lon="0.8381">
        <ele>1392</ele>
        <time>2018-12-02T13:41:21.000Z</time>
      </trkpt>
      <trkpt lat="42.91572" lon="0.8381">
        <ele>1392</ele>
        <time>2018-12-02T13:41:23.000Z</time>
      </trkpt>
      <trkpt lat="42.91572" lon="0.8381">
        <ele>1391</ele>
        <time>2018-12-02T13:41:25.000Z</time>
      </trkpt>
      <trkpt lat="42.91572" lon="0.83811">
        <ele>1391</ele>
        <time>2018-12-02T13:41:27.000Z</time>
      </trkpt>
      <trkpt lat="42.91571" lon="0.83811">
        <ele>1391</ele>
        <time>2018-12-02T13:41:29.000Z</time>
      </trkpt>
      <trkpt lat="42.91571" lon="0.8381">
        <ele>1391</ele>
        <time>2018-12-02T13:41:31.000Z</time>
      </trkpt>
      <trkpt lat="42.91571" lon="0.83809">
        <ele>1392</ele>
        <time>2018-12-02T13:41:33.000Z</time>
      </trkpt>
      <trkpt lat="42.91572" lon="0.83809">
        <ele>1392</ele>
        <time>2018-12-02T13:41:35.000Z</time>
      </trkpt>
      <trkpt lat="42.91572" lon="0.8381">
        <ele>1392</ele>
        <time>2018-12-02T13:41:37.000Z</time>
      </trkpt>
      <trkpt lat="42.91573" lon="0.8381">
        <ele>1392</ele>
        <time>2018-12-02T13:41:39.000Z</time>
      </trkpt>
      <trkpt lat="42.91574" lon="0.83811">
        <ele>1391</ele>
        <time>2018-12-02T13:41:41.000Z</time>
      </trkpt>
      <trkpt lat="42.91574" lon="0.83811">
        <ele>1392</ele>
        <time>2018-12-02T13:41:43.000Z</time>
      </trkpt>
      <trkpt lat="42.91574" lon="0.83811">
        <ele>1392</ele>
        <time>2018-12-02T13:41:45.000Z</time>
      </trkpt>
      <trkpt lat="42.91574" lon="0.83811">
        <ele>1392</ele>
        <time>2018-12-02T13:41:47.000Z</time>
      </trkpt>
      <trkpt lat="42.91573" lon="0.83812">
        <ele>1391</ele>
        <time>2018-12-02T13:41:49.000Z</time>
      </trkpt>
      <trkpt lat="42.91573" lon="0.83813">
        <ele>1391</ele>
        <time>2018-12-02T13:41:51.000Z</time>
      </trkpt>
      <trkpt lat="42.91573" lon="0.83813">
        <ele>1391</ele>
        <time>2018-12-02T13:41:53.000Z</time>
      </trkpt>
      <trkpt lat="42.91573" lon="0.83812">
        <ele>1391</ele>
        <time>2018-12-02T13:41:55.000Z</time>
      </trkpt>
      <trkpt lat="42.91574" lon="0.83812">
        <ele>1391</ele>
        <time>2018-12-02T13:41:57.000Z</time>
      </trkpt>
      <trkpt lat="42.91574" lon="0.83812">
        <ele>1391</ele>
        <time>2018-12-02T13:41:59.000Z</time>
      </trkpt>
      <trkpt lat="42.91574" lon="0.83811">
        <ele>1392</ele>
        <time>2018-12-02T13:42:01.000Z</time>
      </trkpt>
      <trkpt lat="42.91574" lon="0.83811">
        <ele>1391</ele>
        <time>2018-12-02T13:42:03.000Z</time>
      </trkpt>
      <trkpt lat="42.91574" lon="0.83811">
        <ele>1392</ele>
        <time>2018-12-02T13:42:05.000Z</time>
      </trkpt>
      <trkpt lat="42.91574" lon="0.83811">
        <ele>1391</ele>
        <time>2018-12-02T13:42:07.000Z</time>
      </trkpt>
      <trkpt lat="42.91573" lon="0.83812">
        <ele>1391</ele>
        <time>2018-12-02T13:42:09.000Z</time>
      </trkpt>
      <trkpt lat="42.91573" lon="0.83811">
        <ele>1391</ele>
        <time>2018-12-02T13:42:11.000Z</time>
      </trkpt>
      <trkpt lat="42.91572" lon="0.83811">
        <ele>1391</ele>
        <time>2018-12-02T13:42:13.000Z</time>
      </trkpt>
      <trkpt lat="42.91572" lon="0.8381">
        <ele>1391</ele>
        <time>2018-12-02T13:42:15.000Z</time>
      </trkpt>
      <trkpt lat="42.91573" lon="0.8381">
        <ele>1392</ele>
        <time>2018-12-02T13:42:17.000Z</time>
      </trkpt>
      <trkpt lat="42.91573" lon="0.83811">
        <ele>1392</ele>
        <time>2018-12-02T13:42:19.000Z</time>
      </trkpt>
      <trkpt lat="42.91573" lon="0.8381">
        <ele>1392</ele>
        <time>2018-12-02T13:42:21.000Z</time>
      </trkpt>
      <trkpt lat="42.91573" lon="0.8381">
        <ele>1392</ele>
        <time>2018-12-02T13:42:23.000Z</time>
      </trkpt>
      <trkpt lat="42.91573" lon="0.8381">
        <ele>1392</ele>
        <time>2018-12-02T13:42:25.000Z</time>
      </trkpt>
      <trkpt lat="42.91573" lon="0.8381">
        <ele>1392</ele>
        <time>2018-12-02T13:42:27.000Z</time>
      </trkpt>
      <trkpt lat="42.91574" lon="0.83811">
        <ele>1392</ele>
        <time>2018-12-02T13:42:29.000Z</time>
      </trkpt>
      <trkpt lat="42.91573" lon="0.83811">
        <ele>1392</ele>
        <time>2018-12-02T13:42:31.000Z</time>
      </trkpt>
      <trkpt lat="42.91573" lon="0.83811">
        <ele>1391</ele>
        <time>2018-12-02T13:42:33.000Z</time>
      </trkpt>
      <trkpt lat="42.91574" lon="0.83811">
        <ele>1391</ele>
        <time>2018-12-02T13:42:35.000Z</time>
      </trkpt>
      <trkpt lat="42.91573" lon="0.83812">
        <ele>1391</ele>
        <time>2018-12-02T13:42:37.000Z</time>
      </trkpt>
      <trkpt lat="42.91573" lon="0.83812">
        <ele>1391</ele>
        <time>2018-12-02T13:42:39.000Z</time>
      </trkpt>
      <trkpt lat="42.91573" lon="0.83812">
        <ele>1391</ele>
        <time>2018-12-02T13:42:42.000Z</time>
      </trkpt>
      <trkpt lat="42.91573" lon="0.83811">
        <ele>1391</ele>
        <time>2018-12-02T13:42:44.000Z</time>
      </trkpt>
      <trkpt lat="42.91573" lon="0.83811">
        <ele>1391</ele>
        <time>2018-12-02T13:42:46.000Z</time>
      </trkpt>
      <trkpt lat="42.91573" lon="0.83811">
        <ele>1391</ele>
        <time>2018-12-02T13:42:48.000Z</time>
      </trkpt>
      <trkpt lat="42.91574" lon="0.83811">
        <ele>1392</ele>
        <time>2018-12-02T13:42:50.000Z</time>
      </trkpt>
      <trkpt lat="42.91573" lon="0.83811">
        <ele>1392</ele>
        <time>2018-12-02T13:42:52.000Z</time>
      </trkpt>
      <trkpt lat="42.91574" lon="0.83811">
        <ele>1392</ele>
        <time>2018-12-02T13:42:54.000Z</time>
      </trkpt>
      <trkpt lat="42.91574" lon="0.83811">
        <ele>1392</ele>
        <time>2018-12-02T13:42:56.000Z</time>
      </trkpt>
      <trkpt lat="42.91573" lon="0.83811">
        <ele>1392</ele>
        <time>2018-12-02T13:42:58.000Z</time>
      </trkpt>
      <trkpt lat="42.91573" lon="0.8381">
        <ele>1392</ele>
        <time>2018-12-02T13:43:00.000Z</time>
      </trkpt>
      <trkpt lat="42.91574" lon="0.8381">
        <ele>1392</ele>
        <time>2018-12-02T13:43:02.000Z</time>
      </trkpt>
      <trkpt lat="42.91575" lon="0.8381">
        <ele>1392</ele>
        <time>2018-12-02T13:43:04.000Z</time>
      </trkpt>
      <trkpt lat="42.91575" lon="0.8381">
        <ele>1392</ele>
        <time>2018-12-02T13:43:06.000Z</time>
      </trkpt>
      <trkpt lat="42.91576" lon="0.83812">
        <ele>1392</ele>
        <time>2018-12-02T13:43:08.000Z</time>
      </trkpt>
      <trkpt lat="42.91577" lon="0.83815">
        <ele>1391</ele>
        <time>2018-12-02T13:43:10.000Z</time>
      </trkpt>
      <trkpt lat="42.91578" lon="0.83817">
        <ele>1390</ele>
        <time>2018-12-02T13:43:12.000Z</time>
      </trkpt>
      <trkpt lat="42.91579" lon="0.83819">
        <ele>1390</ele>
        <time>2018-12-02T13:43:14.000Z</time>
      </trkpt>
      <trkpt lat="42.9158" lon="0.83821">
        <ele>1389</ele>
        <time>2018-12-02T13:43:16.000Z</time>
      </trkpt>
      <trkpt lat="42.9158" lon="0.83824">
        <ele>1388</ele>
        <time>2018-12-02T13:43:18.000Z</time>
      </trkpt>
      <trkpt lat="42.91581" lon="0.83826">
        <ele>1388</ele>
        <time>2018-12-02T13:43:20.000Z</time>
      </trkpt>
      <trkpt lat="42.91582" lon="0.83828">
        <ele>1387</ele>
        <time>2018-12-02T13:43:22.000Z</time>
      </trkpt>
      <trkpt lat="42.91583" lon="0.8383">
        <ele>1387</ele>
        <time>2018-12-02T13:43:24.000Z</time>
      </trkpt>
      <trkpt lat="42.91584" lon="0.83832">
        <ele>1387</ele>
        <time>2018-12-02T13:43:26.000Z</time>
      </trkpt>
      <trkpt lat="42.91586" lon="0.83834">
        <ele>1386</ele>
        <time>2018-12-02T13:43:28.000Z</time>
      </trkpt>
      <trkpt lat="42.91587" lon="0.83837">
        <ele>1385</ele>
        <time>2018-12-02T13:43:30.000Z</time>
      </trkpt>
      <trkpt lat="42.91588" lon="0.83839">
        <ele>1385</ele>
        <time>2018-12-02T13:43:32.000Z</time>
      </trkpt>
      <trkpt lat="42.91589" lon="0.83841">
        <ele>1384</ele>
        <time>2018-12-02T13:43:34.000Z</time>
      </trkpt>
      <trkpt lat="42.9159" lon="0.83843">
        <ele>1384</ele>
        <time>2018-12-02T13:43:36.000Z</time>
      </trkpt>
      <trkpt lat="42.91591" lon="0.83846">
        <ele>1383</ele>
        <time>2018-12-02T13:43:38.000Z</time>
      </trkpt>
      <trkpt lat="42.91593" lon="0.83848">
        <ele>1383</ele>
        <time>2018-12-02T13:43:40.000Z</time>
      </trkpt>
      <trkpt lat="42.91594" lon="0.8385">
        <ele>1383</ele>
        <time>2018-12-02T13:43:42.000Z</time>
      </trkpt>
      <trkpt lat="42.91596" lon="0.83853">
        <ele>1383</ele>
        <time>2018-12-02T13:43:44.000Z</time>
      </trkpt>
      <trkpt lat="42.91597" lon="0.83855">
        <ele>1383</ele>
        <time>2018-12-02T13:43:46.000Z</time>
      </trkpt>
      <trkpt lat="42.91598" lon="0.83858">
        <ele>1383</ele>
        <time>2018-12-02T13:43:48.000Z</time>
      </trkpt>
      <trkpt lat="42.91599" lon="0.8386">
        <ele>1382</ele>
        <time>2018-12-02T13:43:50.000Z</time>
      </trkpt>
      <trkpt lat="42.916" lon="0.83863">
        <ele>1382</ele>
        <time>2018-12-02T13:43:52.000Z</time>
      </trkpt>
      <trkpt lat="42.91601" lon="0.83865">
        <ele>1381</ele>
        <time>2018-12-02T13:43:54.000Z</time>
      </trkpt>
      <trkpt lat="42.91601" lon="0.83868">
        <ele>1380</ele>
        <time>2018-12-02T13:43:56.000Z</time>
      </trkpt>
      <trkpt lat="42.91602" lon="0.8387">
        <ele>1380</ele>
        <time>2018-12-02T13:43:58.000Z</time>
      </trkpt>
      <trkpt lat="42.91603" lon="0.83873">
        <ele>1380</ele>
        <time>2018-12-02T13:44:00.000Z</time>
      </trkpt>
      <trkpt lat="42.91604" lon="0.83875">
        <ele>1379</ele>
        <time>2018-12-02T13:44:02.000Z</time>
      </trkpt>
      <trkpt lat="42.91604" lon="0.83878">
        <ele>1378</ele>
        <time>2018-12-02T13:44:04.000Z</time>
      </trkpt>
      <trkpt lat="42.91606" lon="0.8388">
        <ele>1378</ele>
        <time>2018-12-02T13:44:06.000Z</time>
      </trkpt>
      <trkpt lat="42.91608" lon="0.83882">
        <ele>1378</ele>
        <time>2018-12-02T13:44:08.000Z</time>
      </trkpt>
      <trkpt lat="42.91609" lon="0.83884">
        <ele>1378</ele>
        <time>2018-12-02T13:44:10.000Z</time>
      </trkpt>
      <trkpt lat="42.9161" lon="0.83886">
        <ele>1378</ele>
        <time>2018-12-02T13:44:12.000Z</time>
      </trkpt>
      <trkpt lat="42.91612" lon="0.83888">
        <ele>1379</ele>
        <time>2018-12-02T13:44:14.000Z</time>
      </trkpt>
      <trkpt lat="42.91613" lon="0.83888">
        <ele>1379</ele>
        <time>2018-12-02T13:44:16.000Z</time>
      </trkpt>
      <trkpt lat="42.91615" lon="0.8389">
        <ele>1379</ele>
        <time>2018-12-02T13:44:18.000Z</time>
      </trkpt>
      <trkpt lat="42.91617" lon="0.83891">
        <ele>1380</ele>
        <time>2018-12-02T13:44:20.000Z</time>
      </trkpt>
      <trkpt lat="42.9162" lon="0.83891">
        <ele>1381</ele>
        <time>2018-12-02T13:44:22.000Z</time>
      </trkpt>
      <trkpt lat="42.91621" lon="0.83893">
        <ele>1381</ele>
        <time>2018-12-02T13:44:24.000Z</time>
      </trkpt>
      <trkpt lat="42.91623" lon="0.83894">
        <ele>1382</ele>
        <time>2018-12-02T13:44:26.000Z</time>
      </trkpt>
      <trkpt lat="42.91625" lon="0.83897">
        <ele>1382</ele>
        <time>2018-12-02T13:44:28.000Z</time>
      </trkpt>
      <trkpt lat="42.91628" lon="0.83898">
        <ele>1382</ele>
        <time>2018-12-02T13:44:30.000Z</time>
      </trkpt>
      <trkpt lat="42.91629" lon="0.839">
        <ele>1383</ele>
        <time>2018-12-02T13:44:32.000Z</time>
      </trkpt>
      <trkpt lat="42.91633" lon="0.83901">
        <ele>1384</ele>
        <time>2018-12-02T13:44:35.000Z</time>
      </trkpt>
      <trkpt lat="42.91636" lon="0.83901">
        <ele>1385</ele>
        <time>2018-12-02T13:44:37.000Z</time>
      </trkpt>
      <trkpt lat="42.91637" lon="0.83903">
        <ele>1385</ele>
        <time>2018-12-02T13:44:39.000Z</time>
      </trkpt>
      <trkpt lat="42.91638" lon="0.83906">
        <ele>1385</ele>
        <time>2018-12-02T13:44:41.000Z</time>
      </trkpt>
      <trkpt lat="42.9164" lon="0.83907">
        <ele>1385</ele>
        <time>2018-12-02T13:44:43.000Z</time>
      </trkpt>
      <trkpt lat="42.91642" lon="0.83908">
        <ele>1386</ele>
        <time>2018-12-02T13:44:45.000Z</time>
      </trkpt>
      <trkpt lat="42.91644" lon="0.8391">
        <ele>1386</ele>
        <time>2018-12-02T13:44:47.000Z</time>
      </trkpt>
      <trkpt lat="42.91646" lon="0.83912">
        <ele>1386</ele>
        <time>2018-12-02T13:44:49.000Z</time>
      </trkpt>
      <trkpt lat="42.91647" lon="0.83915">
        <ele>1386</ele>
        <time>2018-12-02T13:44:51.000Z</time>
      </trkpt>
      <trkpt lat="42.91648" lon="0.83921">
        <ele>1384</ele>
        <time>2018-12-02T13:44:53.000Z</time>
      </trkpt>
      <trkpt lat="42.91649" lon="0.83925">
        <ele>1383</ele>
        <time>2018-12-02T13:44:55.000Z</time>
      </trkpt>
      <trkpt lat="42.9165" lon="0.8393">
        <ele>1382</ele>
        <time>2018-12-02T13:44:57.000Z</time>
      </trkpt>
      <trkpt lat="42.9165" lon="0.83936">
        <ele>1380</ele>
        <time>2018-12-02T13:44:59.000Z</time>
      </trkpt>
      <trkpt lat="42.9165" lon="0.8394">
        <ele>1379</ele>
        <time>2018-12-02T13:45:01.000Z</time>
      </trkpt>
      <trkpt lat="42.9165" lon="0.83944">
        <ele>1377</ele>
        <time>2018-12-02T13:45:03.000Z</time>
      </trkpt>
      <trkpt lat="42.91651" lon="0.83948">
        <ele>1377</ele>
        <time>2018-12-02T13:45:05.000Z</time>
      </trkpt>
      <trkpt lat="42.91653" lon="0.83952">
        <ele>1376</ele>
        <time>2018-12-02T13:45:07.000Z</time>
      </trkpt>
      <trkpt lat="42.91654" lon="0.83955">
        <ele>1376</ele>
        <time>2018-12-02T13:45:09.000Z</time>
      </trkpt>
      <trkpt lat="42.91655" lon="0.83958">
        <ele>1375</ele>
        <time>2018-12-02T13:45:11.000Z</time>
      </trkpt>
      <trkpt lat="42.91657" lon="0.83961">
        <ele>1375</ele>
        <time>2018-12-02T13:45:13.000Z</time>
      </trkpt>
      <trkpt lat="42.91658" lon="0.83963">
        <ele>1374</ele>
        <time>2018-12-02T13:45:15.000Z</time>
      </trkpt>
      <trkpt lat="42.9166" lon="0.83965">
        <ele>1374</ele>
        <time>2018-12-02T13:45:17.000Z</time>
      </trkpt>
      <trkpt lat="42.91661" lon="0.83967">
        <ele>1374</ele>
        <time>2018-12-02T13:45:19.000Z</time>
      </trkpt>
      <trkpt lat="42.91663" lon="0.8397">
        <ele>1374</ele>
        <time>2018-12-02T13:45:21.000Z</time>
      </trkpt>
      <trkpt lat="42.91664" lon="0.83972">
        <ele>1374</ele>
        <time>2018-12-02T13:45:23.000Z</time>
      </trkpt>
      <trkpt lat="42.91667" lon="0.83975">
        <ele>1374</ele>
        <time>2018-12-02T13:45:25.000Z</time>
      </trkpt>
      <trkpt lat="42.91667" lon="0.83978">
        <ele>1374</ele>
        <time>2018-12-02T13:45:27.000Z</time>
      </trkpt>
      <trkpt lat="42.9167" lon="0.8398">
        <ele>1375</ele>
        <time>2018-12-02T13:45:29.000Z</time>
      </trkpt>
      <trkpt lat="42.91671" lon="0.83983">
        <ele>1375</ele>
        <time>2018-12-02T13:45:31.000Z</time>
      </trkpt>
      <trkpt lat="42.91671" lon="0.83987">
        <ele>1373</ele>
        <time>2018-12-02T13:45:33.000Z</time>
      </trkpt>
      <trkpt lat="42.9167" lon="0.83992">
        <ele>1371</ele>
        <time>2018-12-02T13:45:35.000Z</time>
      </trkpt>
      <trkpt lat="42.91671" lon="0.83995">
        <ele>1371</ele>
        <time>2018-12-02T13:45:37.000Z</time>
      </trkpt>
      <trkpt lat="42.91672" lon="0.83999">
        <ele>1370</ele>
        <time>2018-12-02T13:45:39.000Z</time>
      </trkpt>
      <trkpt lat="42.91672" lon="0.84002">
        <ele>1369</ele>
        <time>2018-12-02T13:45:41.000Z</time>
      </trkpt>
      <trkpt lat="42.91673" lon="0.84004">
        <ele>1369</ele>
        <time>2018-12-02T13:45:43.000Z</time>
      </trkpt>
      <trkpt lat="42.91675" lon="0.84006">
        <ele>1370</ele>
        <time>2018-12-02T13:45:45.000Z</time>
      </trkpt>
      <trkpt lat="42.91676" lon="0.84008">
        <ele>1369</ele>
        <time>2018-12-02T13:45:47.000Z</time>
      </trkpt>
      <trkpt lat="42.91678" lon="0.8401">
        <ele>1370</ele>
        <time>2018-12-02T13:45:49.000Z</time>
      </trkpt>
      <trkpt lat="42.91679" lon="0.84011">
        <ele>1370</ele>
        <time>2018-12-02T13:45:51.000Z</time>
      </trkpt>
      <trkpt lat="42.91682" lon="0.84013">
        <ele>1371</ele>
        <time>2018-12-02T13:45:53.000Z</time>
      </trkpt>
      <trkpt lat="42.91684" lon="0.84015">
        <ele>1371</ele>
        <time>2018-12-02T13:45:55.000Z</time>
      </trkpt>
      <trkpt lat="42.91685" lon="0.84017">
        <ele>1371</ele>
        <time>2018-12-02T13:45:57.000Z</time>
      </trkpt>
      <trkpt lat="42.91687" lon="0.84019">
        <ele>1372</ele>
        <time>2018-12-02T13:45:59.000Z</time>
      </trkpt>
      <trkpt lat="42.9169" lon="0.8402">
        <ele>1373</ele>
        <time>2018-12-02T13:46:01.000Z</time>
      </trkpt>
      <trkpt lat="42.91692" lon="0.84022">
        <ele>1373</ele>
        <time>2018-12-02T13:46:03.000Z</time>
      </trkpt>
      <trkpt lat="42.91693" lon="0.84025">
        <ele>1372</ele>
        <time>2018-12-02T13:46:05.000Z</time>
      </trkpt>
      <trkpt lat="42.91695" lon="0.84028">
        <ele>1372</ele>
        <time>2018-12-02T13:46:07.000Z</time>
      </trkpt>
      <trkpt lat="42.91696" lon="0.84031">
        <ele>1372</ele>
        <time>2018-12-02T13:46:09.000Z</time>
      </trkpt>
      <trkpt lat="42.91696" lon="0.84035">
        <ele>1371</ele>
        <time>2018-12-02T13:46:11.000Z</time>
      </trkpt>
      <trkpt lat="42.91695" lon="0.84041">
        <ele>1368</ele>
        <time>2018-12-02T13:46:13.000Z</time>
      </trkpt>
      <trkpt lat="42.91696" lon="0.84044">
        <ele>1368</ele>
        <time>2018-12-02T13:46:15.000Z</time>
      </trkpt>
      <trkpt lat="42.91697" lon="0.84048">
        <ele>1367</ele>
        <time>2018-12-02T13:46:17.000Z</time>
      </trkpt>
      <trkpt lat="42.91698" lon="0.84051">
        <ele>1367</ele>
        <time>2018-12-02T13:46:19.000Z</time>
      </trkpt>
      <trkpt lat="42.91699" lon="0.84053">
        <ele>1367</ele>
        <time>2018-12-02T13:46:21.000Z</time>
      </trkpt>
      <trkpt lat="42.917" lon="0.84057">
        <ele>1366</ele>
        <time>2018-12-02T13:46:23.000Z</time>
      </trkpt>
      <trkpt lat="42.91702" lon="0.84059">
        <ele>1366</ele>
        <time>2018-12-02T13:46:25.000Z</time>
      </trkpt>
      <trkpt lat="42.91702" lon="0.84062">
        <ele>1365</ele>
        <time>2018-12-02T13:46:27.000Z</time>
      </trkpt>
      <trkpt lat="42.91703" lon="0.84065">
        <ele>1364</ele>
        <time>2018-12-02T13:46:29.000Z</time>
      </trkpt>
      <trkpt lat="42.91704" lon="0.84067">
        <ele>1363</ele>
        <time>2018-12-02T13:46:31.000Z</time>
      </trkpt>
      <trkpt lat="42.91705" lon="0.8407">
        <ele>1362</ele>
        <time>2018-12-02T13:46:33.000Z</time>
      </trkpt>
      <trkpt lat="42.91705" lon="0.84073">
        <ele>1362</ele>
        <time>2018-12-02T13:46:35.000Z</time>
      </trkpt>
      <trkpt lat="42.91709" lon="0.84074">
        <ele>1363</ele>
        <time>2018-12-02T13:46:37.000Z</time>
      </trkpt>
      <trkpt lat="42.9171" lon="0.84077">
        <ele>1363</ele>
        <time>2018-12-02T13:46:39.000Z</time>
      </trkpt>
      <trkpt lat="42.91713" lon="0.84078">
        <ele>1363</ele>
        <time>2018-12-02T13:46:41.000Z</time>
      </trkpt>
      <trkpt lat="42.91715" lon="0.8408">
        <ele>1363</ele>
        <time>2018-12-02T13:46:43.000Z</time>
      </trkpt>
      <trkpt lat="42.91716" lon="0.84082">
        <ele>1363</ele>
        <time>2018-12-02T13:46:45.000Z</time>
      </trkpt>
      <trkpt lat="42.91717" lon="0.84086">
        <ele>1362</ele>
        <time>2018-12-02T13:46:47.000Z</time>
      </trkpt>
      <trkpt lat="42.91718" lon="0.84089">
        <ele>1361</ele>
        <time>2018-12-02T13:46:49.000Z</time>
      </trkpt>
      <trkpt lat="42.91718" lon="0.84092">
        <ele>1360</ele>
        <time>2018-12-02T13:46:51.000Z</time>
      </trkpt>
      <trkpt lat="42.91718" lon="0.84095">
        <ele>1359</ele>
        <time>2018-12-02T13:46:53.000Z</time>
      </trkpt>
      <trkpt lat="42.91719" lon="0.84097">
        <ele>1358</ele>
        <time>2018-12-02T13:46:55.000Z</time>
      </trkpt>
      <trkpt lat="42.91721" lon="0.841">
        <ele>1358</ele>
        <time>2018-12-02T13:46:57.000Z</time>
      </trkpt>
      <trkpt lat="42.91722" lon="0.84102">
        <ele>1358</ele>
        <time>2018-12-02T13:46:59.000Z</time>
      </trkpt>
      <trkpt lat="42.91722" lon="0.84105">
        <ele>1357</ele>
        <time>2018-12-02T13:47:01.000Z</time>
      </trkpt>
      <trkpt lat="42.91723" lon="0.84107">
        <ele>1356</ele>
        <time>2018-12-02T13:47:03.000Z</time>
      </trkpt>
      <trkpt lat="42.91723" lon="0.84108">
        <ele>1356</ele>
        <time>2018-12-02T13:47:05.000Z</time>
      </trkpt>
      <trkpt lat="42.91724" lon="0.8411">
        <ele>1356</ele>
        <time>2018-12-02T13:47:07.000Z</time>
      </trkpt>
      <trkpt lat="42.91724" lon="0.84111">
        <ele>1355</ele>
        <time>2018-12-02T13:47:09.000Z</time>
      </trkpt>
      <trkpt lat="42.91725" lon="0.84112">
        <ele>1355</ele>
        <time>2018-12-02T13:47:11.000Z</time>
      </trkpt>
      <trkpt lat="42.91727" lon="0.84112">
        <ele>1356</ele>
        <time>2018-12-02T13:47:13.000Z</time>
      </trkpt>
      <trkpt lat="42.9173" lon="0.84113">
        <ele>1357</ele>
        <time>2018-12-02T13:47:15.000Z</time>
      </trkpt>
      <trkpt lat="42.91732" lon="0.84113">
        <ele>1358</ele>
        <time>2018-12-02T13:47:17.000Z</time>
      </trkpt>
      <trkpt lat="42.91734" lon="0.84113">
        <ele>1359</ele>
        <time>2018-12-02T13:47:19.000Z</time>
      </trkpt>
      <trkpt lat="42.91738" lon="0.84112">
        <ele>1361</ele>
        <time>2018-12-02T13:47:21.000Z</time>
      </trkpt>
      <trkpt lat="42.9174" lon="0.84111">
        <ele>1362</ele>
        <time>2018-12-02T13:47:23.000Z</time>
      </trkpt>
      <trkpt lat="42.91742" lon="0.84112">
        <ele>1363</ele>
        <time>2018-12-02T13:47:25.000Z</time>
      </trkpt>
      <trkpt lat="42.91742" lon="0.84116">
        <ele>1361</ele>
        <time>2018-12-02T13:47:27.000Z</time>
      </trkpt>
      <trkpt lat="42.91743" lon="0.84117">
        <ele>1361</ele>
        <time>2018-12-02T13:47:29.000Z</time>
      </trkpt>
      <trkpt lat="42.91745" lon="0.84119">
        <ele>1361</ele>
        <time>2018-12-02T13:47:31.000Z</time>
      </trkpt>
      <trkpt lat="42.91747" lon="0.8412">
        <ele>1362</ele>
        <time>2018-12-02T13:47:33.000Z</time>
      </trkpt>
      <trkpt lat="42.91749" lon="0.8412">
        <ele>1363</ele>
        <time>2018-12-02T13:47:35.000Z</time>
      </trkpt>
      <trkpt lat="42.91751" lon="0.84121">
        <ele>1363</ele>
        <time>2018-12-02T13:47:37.000Z</time>
      </trkpt>
      <trkpt lat="42.91754" lon="0.84122">
        <ele>1365</ele>
        <time>2018-12-02T13:47:39.000Z</time>
      </trkpt>
      <trkpt lat="42.91756" lon="0.84124">
        <ele>1364</ele>
        <time>2018-12-02T13:47:41.000Z</time>
      </trkpt>
      <trkpt lat="42.91758" lon="0.84127">
        <ele>1365</ele>
        <time>2018-12-02T13:47:43.000Z</time>
      </trkpt>
      <trkpt lat="42.91761" lon="0.84128">
        <ele>1365</ele>
        <time>2018-12-02T13:47:45.000Z</time>
      </trkpt>
      <trkpt lat="42.91763" lon="0.8413">
        <ele>1366</ele>
        <time>2018-12-02T13:47:47.000Z</time>
      </trkpt>
      <trkpt lat="42.91765" lon="0.84131">
        <ele>1366</ele>
        <time>2018-12-02T13:47:49.000Z</time>
      </trkpt>
      <trkpt lat="42.91767" lon="0.84133">
        <ele>1366</ele>
        <time>2018-12-02T13:47:51.000Z</time>
      </trkpt>
      <trkpt lat="42.9177" lon="0.84134">
        <ele>1367</ele>
        <time>2018-12-02T13:47:53.000Z</time>
      </trkpt>
      <trkpt lat="42.91772" lon="0.84136">
        <ele>1367</ele>
        <time>2018-12-02T13:47:55.000Z</time>
      </trkpt>
      <trkpt lat="42.91773" lon="0.84139">
        <ele>1366</ele>
        <time>2018-12-02T13:47:57.000Z</time>
      </trkpt>
      <trkpt lat="42.91774" lon="0.84143">
        <ele>1365</ele>
        <time>2018-12-02T13:47:59.000Z</time>
      </trkpt>
      <trkpt lat="42.91776" lon="0.84145">
        <ele>1366</ele>
        <time>2018-12-02T13:48:01.000Z</time>
      </trkpt>
      <trkpt lat="42.91778" lon="0.84148">
        <ele>1365</ele>
        <time>2018-12-02T13:48:04.000Z</time>
      </trkpt>
      <trkpt lat="42.91779" lon="0.84151">
        <ele>1365</ele>
        <time>2018-12-02T13:48:06.000Z</time>
      </trkpt>
      <trkpt lat="42.91779" lon="0.84155">
        <ele>1364</ele>
        <time>2018-12-02T13:48:08.000Z</time>
      </trkpt>
      <trkpt lat="42.9178" lon="0.84161">
        <ele>1362</ele>
        <time>2018-12-02T13:48:10.000Z</time>
      </trkpt>
      <trkpt lat="42.91781" lon="0.84166">
        <ele>1361</ele>
        <time>2018-12-02T13:48:13.000Z</time>
      </trkpt>
      <trkpt lat="42.91784" lon="0.84168">
        <ele>1362</ele>
        <time>2018-12-02T13:48:15.000Z</time>
      </trkpt>
      <trkpt lat="42.91785" lon="0.84171">
        <ele>1361</ele>
        <time>2018-12-02T13:48:17.000Z</time>
      </trkpt>
      <trkpt lat="42.91786" lon="0.84175">
        <ele>1360</ele>
        <time>2018-12-02T13:48:19.000Z</time>
      </trkpt>
      <trkpt lat="42.91786" lon="0.8418">
        <ele>1359</ele>
        <time>2018-12-02T13:48:21.000Z</time>
      </trkpt>
      <trkpt lat="42.91787" lon="0.8418">
        <ele>1359</ele>
        <time>2018-12-02T13:48:23.000Z</time>
      </trkpt>
      <trkpt lat="42.91787" lon="0.8418">
        <ele>1359</ele>
        <time>2018-12-02T13:48:25.000Z</time>
      </trkpt>
      <trkpt lat="42.91788" lon="0.84179">
        <ele>1360</ele>
        <time>2018-12-02T13:48:27.000Z</time>
      </trkpt>
      <trkpt lat="42.91788" lon="0.84179">
        <ele>1360</ele>
        <time>2018-12-02T13:48:29.000Z</time>
      </trkpt>
      <trkpt lat="42.91788" lon="0.8418">
        <ele>1360</ele>
        <time>2018-12-02T13:48:31.000Z</time>
      </trkpt>
      <trkpt lat="42.91788" lon="0.84181">
        <ele>1359</ele>
        <time>2018-12-02T13:48:33.000Z</time>
      </trkpt>
      <trkpt lat="42.91788" lon="0.84181">
        <ele>1359</ele>
        <time>2018-12-02T13:48:35.000Z</time>
      </trkpt>
      <trkpt lat="42.91788" lon="0.8418">
        <ele>1360</ele>
        <time>2018-12-02T13:48:37.000Z</time>
      </trkpt>
      <trkpt lat="42.91788" lon="0.84181">
        <ele>1359</ele>
        <time>2018-12-02T13:48:39.000Z</time>
      </trkpt>
      <trkpt lat="42.91788" lon="0.84181">
        <ele>1359</ele>
        <time>2018-12-02T13:48:41.000Z</time>
      </trkpt>
      <trkpt lat="42.91788" lon="0.84181">
        <ele>1359</ele>
        <time>2018-12-02T13:48:43.000Z</time>
      </trkpt>
      <trkpt lat="42.91789" lon="0.84182">
        <ele>1359</ele>
        <time>2018-12-02T13:48:45.000Z</time>
      </trkpt>
      <trkpt lat="42.91791" lon="0.84182">
        <ele>1360</ele>
        <time>2018-12-02T13:48:47.000Z</time>
      </trkpt>
      <trkpt lat="42.9179" lon="0.84183">
        <ele>1360</ele>
        <time>2018-12-02T13:48:49.000Z</time>
      </trkpt>
      <trkpt lat="42.9179" lon="0.84184">
        <ele>1359</ele>
        <time>2018-12-02T13:48:51.000Z</time>
      </trkpt>
      <trkpt lat="42.9179" lon="0.84183">
        <ele>1360</ele>
        <time>2018-12-02T13:48:53.000Z</time>
      </trkpt>
      <trkpt lat="42.9179" lon="0.84183">
        <ele>1359</ele>
        <time>2018-12-02T13:48:55.000Z</time>
      </trkpt>
      <trkpt lat="42.9179" lon="0.84183">
        <ele>1360</ele>
        <time>2018-12-02T13:48:57.000Z</time>
      </trkpt>
      <trkpt lat="42.91791" lon="0.84182">
        <ele>1361</ele>
        <time>2018-12-02T13:48:59.000Z</time>
      </trkpt>
      <trkpt lat="42.91791" lon="0.84181">
        <ele>1361</ele>
        <time>2018-12-02T13:49:01.000Z</time>
      </trkpt>
      <trkpt lat="42.91791" lon="0.84182">
        <ele>1360</ele>
        <time>2018-12-02T13:49:03.000Z</time>
      </trkpt>
      <trkpt lat="42.91791" lon="0.84182">
        <ele>1360</ele>
        <time>2018-12-02T13:49:05.000Z</time>
      </trkpt>
      <trkpt lat="42.9179" lon="0.84184">
        <ele>1359</ele>
        <time>2018-12-02T13:49:07.000Z</time>
      </trkpt>
      <trkpt lat="42.9179" lon="0.84184">
        <ele>1359</ele>
        <time>2018-12-02T13:49:09.000Z</time>
      </trkpt>
      <trkpt lat="42.9179" lon="0.84184">
        <ele>1359</ele>
        <time>2018-12-02T13:49:11.000Z</time>
      </trkpt>
      <trkpt lat="42.9179" lon="0.84183">
        <ele>1360</ele>
        <time>2018-12-02T13:49:13.000Z</time>
      </trkpt>
      <trkpt lat="42.91791" lon="0.84184">
        <ele>1360</ele>
        <time>2018-12-02T13:49:15.000Z</time>
      </trkpt>
      <trkpt lat="42.91792" lon="0.84184">
        <ele>1360</ele>
        <time>2018-12-02T13:49:17.000Z</time>
      </trkpt>
      <trkpt lat="42.91794" lon="0.84186">
        <ele>1360</ele>
        <time>2018-12-02T13:49:19.000Z</time>
      </trkpt>
      <trkpt lat="42.91795" lon="0.84187">
        <ele>1360</ele>
        <time>2018-12-02T13:49:21.000Z</time>
      </trkpt>
      <trkpt lat="42.91797" lon="0.84188">
        <ele>1361</ele>
        <time>2018-12-02T13:49:23.000Z</time>
      </trkpt>
      <trkpt lat="42.91798" lon="0.8419">
        <ele>1361</ele>
        <time>2018-12-02T13:49:25.000Z</time>
      </trkpt>
      <trkpt lat="42.91799" lon="0.84192">
        <ele>1361</ele>
        <time>2018-12-02T13:49:27.000Z</time>
      </trkpt>
      <trkpt lat="42.918" lon="0.84194">
        <ele>1361</ele>
        <time>2018-12-02T13:49:29.000Z</time>
      </trkpt>
      <trkpt lat="42.91801" lon="0.84196">
        <ele>1360</ele>
        <time>2018-12-02T13:49:31.000Z</time>
      </trkpt>
      <trkpt lat="42.91802" lon="0.84199">
        <ele>1360</ele>
        <time>2018-12-02T13:49:33.000Z</time>
      </trkpt>
      <trkpt lat="42.91804" lon="0.84201">
        <ele>1360</ele>
        <time>2018-12-02T13:49:35.000Z</time>
      </trkpt>
      <trkpt lat="42.91805" lon="0.84203">
        <ele>1360</ele>
        <time>2018-12-02T13:49:37.000Z</time>
      </trkpt>
      <trkpt lat="42.91807" lon="0.84206">
        <ele>1360</ele>
        <time>2018-12-02T13:49:39.000Z</time>
      </trkpt>
      <trkpt lat="42.91808" lon="0.84208">
        <ele>1359</ele>
        <time>2018-12-02T13:49:41.000Z</time>
      </trkpt>
      <trkpt lat="42.91809" lon="0.84211">
        <ele>1359</ele>
        <time>2018-12-02T13:49:43.000Z</time>
      </trkpt>
      <trkpt lat="42.91809" lon="0.84215">
        <ele>1358</ele>
        <time>2018-12-02T13:49:45.000Z</time>
      </trkpt>
      <trkpt lat="42.91809" lon="0.84217">
        <ele>1357</ele>
        <time>2018-12-02T13:49:47.000Z</time>
      </trkpt>
      <trkpt lat="42.9181" lon="0.84218">
        <ele>1357</ele>
        <time>2018-12-02T13:49:49.000Z</time>
      </trkpt>
      <trkpt lat="42.9181" lon="0.8422">
        <ele>1356</ele>
        <time>2018-12-02T13:49:51.000Z</time>
      </trkpt>
      <trkpt lat="42.91811" lon="0.84223">
        <ele>1356</ele>
        <time>2018-12-02T13:49:53.000Z</time>
      </trkpt>
      <trkpt lat="42.91812" lon="0.84225">
        <ele>1355</ele>
        <time>2018-12-02T13:49:55.000Z</time>
      </trkpt>
      <trkpt lat="42.91813" lon="0.84228">
        <ele>1355</ele>
        <time>2018-12-02T13:49:57.000Z</time>
      </trkpt>
      <trkpt lat="42.91814" lon="0.8423">
        <ele>1354</ele>
        <time>2018-12-02T13:49:59.000Z</time>
      </trkpt>
      <trkpt lat="42.91815" lon="0.84233">
        <ele>1353</ele>
        <time>2018-12-02T13:50:01.000Z</time>
      </trkpt>
      <trkpt lat="42.91815" lon="0.84235">
        <ele>1353</ele>
        <time>2018-12-02T13:50:03.000Z</time>
      </trkpt>
      <trkpt lat="42.91816" lon="0.84237">
        <ele>1352</ele>
        <time>2018-12-02T13:50:05.000Z</time>
      </trkpt>
      <trkpt lat="42.91817" lon="0.84239">
        <ele>1352</ele>
        <time>2018-12-02T13:50:07.000Z</time>
      </trkpt>
      <trkpt lat="42.91818" lon="0.84242">
        <ele>1351</ele>
        <time>2018-12-02T13:50:09.000Z</time>
      </trkpt>
      <trkpt lat="42.91818" lon="0.84244">
        <ele>1350</ele>
        <time>2018-12-02T13:50:11.000Z</time>
      </trkpt>
      <trkpt lat="42.9182" lon="0.84246">
        <ele>1350</ele>
        <time>2018-12-02T13:50:13.000Z</time>
      </trkpt>
      <trkpt lat="42.91821" lon="0.84248">
        <ele>1350</ele>
        <time>2018-12-02T13:50:15.000Z</time>
      </trkpt>
      <trkpt lat="42.91822" lon="0.8425">
        <ele>1349</ele>
        <time>2018-12-02T13:50:17.000Z</time>
      </trkpt>
      <trkpt lat="42.91822" lon="0.84252">
        <ele>1349</ele>
        <time>2018-12-02T13:50:19.000Z</time>
      </trkpt>
      <trkpt lat="42.91824" lon="0.84254">
        <ele>1349</ele>
        <time>2018-12-02T13:50:21.000Z</time>
      </trkpt>
      <trkpt lat="42.91826" lon="0.84256">
        <ele>1349</ele>
        <time>2018-12-02T13:50:23.000Z</time>
      </trkpt>
      <trkpt lat="42.91828" lon="0.84258">
        <ele>1349</ele>
        <time>2018-12-02T13:50:25.000Z</time>
      </trkpt>
      <trkpt lat="42.91829" lon="0.84258">
        <ele>1350</ele>
        <time>2018-12-02T13:50:27.000Z</time>
      </trkpt>
      <trkpt lat="42.91831" lon="0.84259">
        <ele>1350</ele>
        <time>2018-12-02T13:50:29.000Z</time>
      </trkpt>
      <trkpt lat="42.91833" lon="0.8426">
        <ele>1351</ele>
        <time>2018-12-02T13:50:31.000Z</time>
      </trkpt>
      <trkpt lat="42.91834" lon="0.84261">
        <ele>1351</ele>
        <time>2018-12-02T13:50:33.000Z</time>
      </trkpt>
      <trkpt lat="42.91835" lon="0.84264">
        <ele>1350</ele>
        <time>2018-12-02T13:50:35.000Z</time>
      </trkpt>
      <trkpt lat="42.91835" lon="0.84265">
        <ele>1349</ele>
        <time>2018-12-02T13:50:37.000Z</time>
      </trkpt>
      <trkpt lat="42.91836" lon="0.84265">
        <ele>1350</ele>
        <time>2018-12-02T13:50:39.000Z</time>
      </trkpt>
      <trkpt lat="42.91837" lon="0.84266">
        <ele>1350</ele>
        <time>2018-12-02T13:50:41.000Z</time>
      </trkpt>
      <trkpt lat="42.91838" lon="0.84268">
        <ele>1350</ele>
        <time>2018-12-02T13:50:43.000Z</time>
      </trkpt>
      <trkpt lat="42.9184" lon="0.84269">
        <ele>1350</ele>
        <time>2018-12-02T13:50:45.000Z</time>
      </trkpt>
      <trkpt lat="42.91841" lon="0.84271">
        <ele>1350</ele>
        <time>2018-12-02T13:50:47.000Z</time>
      </trkpt>
      <trkpt lat="42.91842" lon="0.84272">
        <ele>1350</ele>
        <time>2018-12-02T13:50:49.000Z</time>
      </trkpt>
      <trkpt lat="42.91843" lon="0.84273">
        <ele>1350</ele>
        <time>2018-12-02T13:50:51.000Z</time>
      </trkpt>
      <trkpt lat="42.91844" lon="0.84275">
        <ele>1350</ele>
        <time>2018-12-02T13:50:53.000Z</time>
      </trkpt>
      <trkpt lat="42.91846" lon="0.84275">
        <ele>1350</ele>
        <time>2018-12-02T13:50:55.000Z</time>
      </trkpt>
      <trkpt lat="42.91847" lon="0.84278">
        <ele>1349</ele>
        <time>2018-12-02T13:50:57.000Z</time>
      </trkpt>
      <trkpt lat="42.91848" lon="0.8428">
        <ele>1349</ele>
        <time>2018-12-02T13:50:59.000Z</time>
      </trkpt>
      <trkpt lat="42.91849" lon="0.84281">
        <ele>1349</ele>
        <time>2018-12-02T13:51:01.000Z</time>
      </trkpt>
      <trkpt lat="42.91851" lon="0.84283">
        <ele>1349</ele>
        <time>2018-12-02T13:51:03.000Z</time>
      </trkpt>
      <trkpt lat="42.91853" lon="0.84285">
        <ele>1349</ele>
        <time>2018-12-02T13:51:05.000Z</time>
      </trkpt>
      <trkpt lat="42.91853" lon="0.84288">
        <ele>1348</ele>
        <time>2018-12-02T13:51:07.000Z</time>
      </trkpt>
      <trkpt lat="42.91854" lon="0.8429">
        <ele>1348</ele>
        <time>2018-12-02T13:51:09.000Z</time>
      </trkpt>
      <trkpt lat="42.91855" lon="0.84291">
        <ele>1347</ele>
        <time>2018-12-02T13:51:11.000Z</time>
      </trkpt>
      <trkpt lat="42.91856" lon="0.84294">
        <ele>1347</ele>
        <time>2018-12-02T13:51:13.000Z</time>
      </trkpt>
      <trkpt lat="42.91858" lon="0.84295">
        <ele>1347</ele>
        <time>2018-12-02T13:51:15.000Z</time>
      </trkpt>
      <trkpt lat="42.9186" lon="0.84297">
        <ele>1347</ele>
        <time>2018-12-02T13:51:17.000Z</time>
      </trkpt>
      <trkpt lat="42.91862" lon="0.84297">
        <ele>1348</ele>
        <time>2018-12-02T13:51:19.000Z</time>
      </trkpt>
      <trkpt lat="42.91863" lon="0.84298">
        <ele>1348</ele>
        <time>2018-12-02T13:51:21.000Z</time>
      </trkpt>
      <trkpt lat="42.91865" lon="0.84298">
        <ele>1348</ele>
        <time>2018-12-02T13:51:23.000Z</time>
      </trkpt>
      <trkpt lat="42.91866" lon="0.84299">
        <ele>1349</ele>
        <time>2018-12-02T13:51:25.000Z</time>
      </trkpt>
      <trkpt lat="42.91867" lon="0.84301">
        <ele>1348</ele>
        <time>2018-12-02T13:51:27.000Z</time>
      </trkpt>
      <trkpt lat="42.91869" lon="0.84302">
        <ele>1348</ele>
        <time>2018-12-02T13:51:29.000Z</time>
      </trkpt>
      <trkpt lat="42.9187" lon="0.84304">
        <ele>1348</ele>
        <time>2018-12-02T13:51:31.000Z</time>
      </trkpt>
      <trkpt lat="42.91872" lon="0.84306">
        <ele>1348</ele>
        <time>2018-12-02T13:51:33.000Z</time>
      </trkpt>
      <trkpt lat="42.91874" lon="0.84309">
        <ele>1348</ele>
        <time>2018-12-02T13:51:35.000Z</time>
      </trkpt>
      <trkpt lat="42.91875" lon="0.84312">
        <ele>1348</ele>
        <time>2018-12-02T13:51:37.000Z</time>
      </trkpt>
      <trkpt lat="42.91877" lon="0.84315">
        <ele>1348</ele>
        <time>2018-12-02T13:51:39.000Z</time>
      </trkpt>
      <trkpt lat="42.91879" lon="0.84316">
        <ele>1348</ele>
        <time>2018-12-02T13:51:42.000Z</time>
      </trkpt>
      <trkpt lat="42.9188" lon="0.84319">
        <ele>1348</ele>
        <time>2018-12-02T13:51:44.000Z</time>
      </trkpt>
      <trkpt lat="42.91882" lon="0.8432">
        <ele>1349</ele>
        <time>2018-12-02T13:51:46.000Z</time>
      </trkpt>
      <trkpt lat="42.91883" lon="0.84322">
        <ele>1348</ele>
        <time>2018-12-02T13:51:48.000Z</time>
      </trkpt>
      <trkpt lat="42.91884" lon="0.84325">
        <ele>1348</ele>
        <time>2018-12-02T13:51:50.000Z</time>
      </trkpt>
      <trkpt lat="42.91885" lon="0.84327">
        <ele>1348</ele>
        <time>2018-12-02T13:51:52.000Z</time>
      </trkpt>
      <trkpt lat="42.91887" lon="0.84329">
        <ele>1349</ele>
        <time>2018-12-02T13:51:54.000Z</time>
      </trkpt>
      <trkpt lat="42.91888" lon="0.84331">
        <ele>1349</ele>
        <time>2018-12-02T13:51:56.000Z</time>
      </trkpt>
      <trkpt lat="42.9189" lon="0.84332">
        <ele>1349</ele>
        <time>2018-12-02T13:51:58.000Z</time>
      </trkpt>
      <trkpt lat="42.91891" lon="0.84334">
        <ele>1349</ele>
        <time>2018-12-02T13:52:00.000Z</time>
      </trkpt>
      <trkpt lat="42.91892" lon="0.84337">
        <ele>1349</ele>
        <time>2018-12-02T13:52:02.000Z</time>
      </trkpt>
      <trkpt lat="42.91893" lon="0.84339">
        <ele>1349</ele>
        <time>2018-12-02T13:52:04.000Z</time>
      </trkpt>
      <trkpt lat="42.91895" lon="0.84341">
        <ele>1349</ele>
        <time>2018-12-02T13:52:06.000Z</time>
      </trkpt>
      <trkpt lat="42.91896" lon="0.84345">
        <ele>1349</ele>
        <time>2018-12-02T13:52:08.000Z</time>
      </trkpt>
      <trkpt lat="42.91898" lon="0.84347">
        <ele>1349</ele>
        <time>2018-12-02T13:52:10.000Z</time>
      </trkpt>
      <trkpt lat="42.91898" lon="0.8435">
        <ele>1348</ele>
        <time>2018-12-02T13:52:12.000Z</time>
      </trkpt>
      <trkpt lat="42.91898" lon="0.84353">
        <ele>1348</ele>
        <time>2018-12-02T13:52:14.000Z</time>
      </trkpt>
      <trkpt lat="42.919" lon="0.84356">
        <ele>1348</ele>
        <time>2018-12-02T13:52:16.000Z</time>
      </trkpt>
      <trkpt lat="42.91901" lon="0.84358">
        <ele>1348</ele>
        <time>2018-12-02T13:52:18.000Z</time>
      </trkpt>
      <trkpt lat="42.91902" lon="0.84361">
        <ele>1348</ele>
        <time>2018-12-02T13:52:20.000Z</time>
      </trkpt>
      <trkpt lat="42.91903" lon="0.84363">
        <ele>1347</ele>
        <time>2018-12-02T13:52:22.000Z</time>
      </trkpt>
      <trkpt lat="42.91903" lon="0.84365">
        <ele>1347</ele>
        <time>2018-12-02T13:52:24.000Z</time>
      </trkpt>
      <trkpt lat="42.91904" lon="0.84369">
        <ele>1347</ele>
        <time>2018-12-02T13:52:26.000Z</time>
      </trkpt>
      <trkpt lat="42.91904" lon="0.84372">
        <ele>1346</ele>
        <time>2018-12-02T13:52:28.000Z</time>
      </trkpt>
      <trkpt lat="42.91905" lon="0.84375">
        <ele>1345</ele>
        <time>2018-12-02T13:52:30.000Z</time>
      </trkpt>
      <trkpt lat="42.91905" lon="0.84378">
        <ele>1344</ele>
        <time>2018-12-02T13:52:32.000Z</time>
      </trkpt>
      <trkpt lat="42.91906" lon="0.84382">
        <ele>1343</ele>
        <time>2018-12-02T13:52:34.000Z</time>
      </trkpt>
      <trkpt lat="42.91907" lon="0.84385">
        <ele>1343</ele>
        <time>2018-12-02T13:52:36.000Z</time>
      </trkpt>
      <trkpt lat="42.91908" lon="0.84388">
        <ele>1342</ele>
        <time>2018-12-02T13:52:39.000Z</time>
      </trkpt>
      <trkpt lat="42.91908" lon="0.84387">
        <ele>1342</ele>
        <time>2018-12-02T13:52:41.000Z</time>
      </trkpt>
      <trkpt lat="42.91907" lon="0.84388">
        <ele>1342</ele>
        <time>2018-12-02T13:52:43.000Z</time>
      </trkpt>
      <trkpt lat="42.91906" lon="0.84391">
        <ele>1341</ele>
        <time>2018-12-02T13:52:45.000Z</time>
      </trkpt>
      <trkpt lat="42.91906" lon="0.84394">
        <ele>1340</ele>
        <time>2018-12-02T13:52:47.000Z</time>
      </trkpt>
      <trkpt lat="42.91906" lon="0.84397">
        <ele>1339</ele>
        <time>2018-12-02T13:52:49.000Z</time>
      </trkpt>
      <trkpt lat="42.91904" lon="0.844">
        <ele>1338</ele>
        <time>2018-12-02T13:52:51.000Z</time>
      </trkpt>
      <trkpt lat="42.91904" lon="0.84404">
        <ele>1337</ele>
        <time>2018-12-02T13:52:53.000Z</time>
      </trkpt>
      <trkpt lat="42.91904" lon="0.84406">
        <ele>1337</ele>
        <time>2018-12-02T13:52:55.000Z</time>
      </trkpt>
      <trkpt lat="42.91905" lon="0.8441">
        <ele>1336</ele>
        <time>2018-12-02T13:52:57.000Z</time>
      </trkpt>
      <trkpt lat="42.91905" lon="0.84412">
        <ele>1336</ele>
        <time>2018-12-02T13:52:59.000Z</time>
      </trkpt>
      <trkpt lat="42.91906" lon="0.84415">
        <ele>1336</ele>
        <time>2018-12-02T13:53:01.000Z</time>
      </trkpt>
      <trkpt lat="42.91906" lon="0.84419">
        <ele>1336</ele>
        <time>2018-12-02T13:53:04.000Z</time>
      </trkpt>
      <trkpt lat="42.91906" lon="0.84422">
        <ele>1335</ele>
        <time>2018-12-02T13:53:06.000Z</time>
      </trkpt>
      <trkpt lat="42.91906" lon="0.84425">
        <ele>1334</ele>
        <time>2018-12-02T13:53:08.000Z</time>
      </trkpt>
      <trkpt lat="42.91906" lon="0.84427">
        <ele>1334</ele>
        <time>2018-12-02T13:53:10.000Z</time>
      </trkpt>
      <trkpt lat="42.91905" lon="0.8443">
        <ele>1333</ele>
        <time>2018-12-02T13:53:12.000Z</time>
      </trkpt>
      <trkpt lat="42.91905" lon="0.84432">
        <ele>1333</ele>
        <time>2018-12-02T13:53:14.000Z</time>
      </trkpt>
      <trkpt lat="42.91905" lon="0.84435">
        <ele>1332</ele>
        <time>2018-12-02T13:53:16.000Z</time>
      </trkpt>
      <trkpt lat="42.91905" lon="0.84438">
        <ele>1331</ele>
        <time>2018-12-02T13:53:18.000Z</time>
      </trkpt>
      <trkpt lat="42.91905" lon="0.84441">
        <ele>1331</ele>
        <time>2018-12-02T13:53:20.000Z</time>
      </trkpt>
      <trkpt lat="42.91905" lon="0.84444">
        <ele>1330</ele>
        <time>2018-12-02T13:53:22.000Z</time>
      </trkpt>
      <trkpt lat="42.91905" lon="0.84447">
        <ele>1330</ele>
        <time>2018-12-02T13:53:24.000Z</time>
      </trkpt>
      <trkpt lat="42.91906" lon="0.84451">
        <ele>1329</ele>
        <time>2018-12-02T13:53:26.000Z</time>
      </trkpt>
      <trkpt lat="42.91905" lon="0.84455">
        <ele>1329</ele>
        <time>2018-12-02T13:53:28.000Z</time>
      </trkpt>
      <trkpt lat="42.91905" lon="0.84459">
        <ele>1328</ele>
        <time>2018-12-02T13:53:30.000Z</time>
      </trkpt>
      <trkpt lat="42.91905" lon="0.84463">
        <ele>1327</ele>
        <time>2018-12-02T13:53:32.000Z</time>
      </trkpt>
      <trkpt lat="42.91905" lon="0.84466">
        <ele>1326</ele>
        <time>2018-12-02T13:53:34.000Z</time>
      </trkpt>
      <trkpt lat="42.91905" lon="0.84469">
        <ele>1326</ele>
        <time>2018-12-02T13:53:36.000Z</time>
      </trkpt>
      <trkpt lat="42.91905" lon="0.84472">
        <ele>1325</ele>
        <time>2018-12-02T13:53:38.000Z</time>
      </trkpt>
      <trkpt lat="42.91905" lon="0.84476">
        <ele>1324</ele>
        <time>2018-12-02T13:53:40.000Z</time>
      </trkpt>
      <trkpt lat="42.91906" lon="0.84479">
        <ele>1324</ele>
        <time>2018-12-02T13:53:42.000Z</time>
      </trkpt>
      <trkpt lat="42.91906" lon="0.84482">
        <ele>1323</ele>
        <time>2018-12-02T13:53:44.000Z</time>
      </trkpt>
      <trkpt lat="42.91906" lon="0.84485">
        <ele>1323</ele>
        <time>2018-12-02T13:53:46.000Z</time>
      </trkpt>
      <trkpt lat="42.91907" lon="0.84489">
        <ele>1322</ele>
        <time>2018-12-02T13:53:48.000Z</time>
      </trkpt>
      <trkpt lat="42.91908" lon="0.84492">
        <ele>1322</ele>
        <time>2018-12-02T13:53:50.000Z</time>
      </trkpt>
      <trkpt lat="42.91908" lon="0.84495">
        <ele>1321</ele>
        <time>2018-12-02T13:53:52.000Z</time>
      </trkpt>
      <trkpt lat="42.91908" lon="0.84498">
        <ele>1321</ele>
        <time>2018-12-02T13:53:54.000Z</time>
      </trkpt>
      <trkpt lat="42.91908" lon="0.84501">
        <ele>1320</ele>
        <time>2018-12-02T13:53:56.000Z</time>
      </trkpt>
      <trkpt lat="42.91909" lon="0.84504">
        <ele>1320</ele>
        <time>2018-12-02T13:53:58.000Z</time>
      </trkpt>
      <trkpt lat="42.91909" lon="0.84507">
        <ele>1319</ele>
        <time>2018-12-02T13:54:00.000Z</time>
      </trkpt>
      <trkpt lat="42.91909" lon="0.8451">
        <ele>1318</ele>
        <time>2018-12-02T13:54:02.000Z</time>
      </trkpt>
      <trkpt lat="42.9191" lon="0.84513">
        <ele>1318</ele>
        <time>2018-12-02T13:54:04.000Z</time>
      </trkpt>
      <trkpt lat="42.9191" lon="0.84515">
        <ele>1318</ele>
        <time>2018-12-02T13:54:06.000Z</time>
      </trkpt>
      <trkpt lat="42.91911" lon="0.84518">
        <ele>1318</ele>
        <time>2018-12-02T13:54:08.000Z</time>
      </trkpt>
      <trkpt lat="42.91911" lon="0.84519">
        <ele>1318</ele>
        <time>2018-12-02T13:54:10.000Z</time>
      </trkpt>
      <trkpt lat="42.91913" lon="0.84522">
        <ele>1318</ele>
        <time>2018-12-02T13:54:12.000Z</time>
      </trkpt>
      <trkpt lat="42.91914" lon="0.84523">
        <ele>1318</ele>
        <time>2018-12-02T13:54:14.000Z</time>
      </trkpt>
      <trkpt lat="42.91914" lon="0.84525">
        <ele>1318</ele>
        <time>2018-12-02T13:54:16.000Z</time>
      </trkpt>
      <trkpt lat="42.91915" lon="0.84527">
        <ele>1318</ele>
        <time>2018-12-02T13:54:18.000Z</time>
      </trkpt>
      <trkpt lat="42.91915" lon="0.8453">
        <ele>1317</ele>
        <time>2018-12-02T13:54:20.000Z</time>
      </trkpt>
      <trkpt lat="42.91916" lon="0.84532">
        <ele>1317</ele>
        <time>2018-12-02T13:54:22.000Z</time>
      </trkpt>
      <trkpt lat="42.91917" lon="0.84535">
        <ele>1317</ele>
        <time>2018-12-02T13:54:25.000Z</time>
      </trkpt>
      <trkpt lat="42.91918" lon="0.84537">
        <ele>1317</ele>
        <time>2018-12-02T13:54:27.000Z</time>
      </trkpt>
      <trkpt lat="42.91918" lon="0.8454">
        <ele>1317</ele>
        <time>2018-12-02T13:54:29.000Z</time>
      </trkpt>
      <trkpt lat="42.9192" lon="0.84541">
        <ele>1317</ele>
        <time>2018-12-02T13:54:31.000Z</time>
      </trkpt>
      <trkpt lat="42.91922" lon="0.84542">
        <ele>1318</ele>
        <time>2018-12-02T13:54:33.000Z</time>
      </trkpt>
      <trkpt lat="42.91923" lon="0.84543">
        <ele>1319</ele>
        <time>2018-12-02T13:54:35.000Z</time>
      </trkpt>
      <trkpt lat="42.91924" lon="0.84545">
        <ele>1319</ele>
        <time>2018-12-02T13:54:37.000Z</time>
      </trkpt>
      <trkpt lat="42.91926" lon="0.84545">
        <ele>1319</ele>
        <time>2018-12-02T13:54:39.000Z</time>
      </trkpt>
      <trkpt lat="42.91928" lon="0.84547">
        <ele>1319</ele>
        <time>2018-12-02T13:54:41.000Z</time>
      </trkpt>
      <trkpt lat="42.91929" lon="0.84547">
        <ele>1319</ele>
        <time>2018-12-02T13:54:43.000Z</time>
      </trkpt>
      <trkpt lat="42.91931" lon="0.84547">
        <ele>1319</ele>
        <time>2018-12-02T13:54:45.000Z</time>
      </trkpt>
      <trkpt lat="42.91932" lon="0.84548">
        <ele>1319</ele>
        <time>2018-12-02T13:54:47.000Z</time>
      </trkpt>
      <trkpt lat="42.91933" lon="0.84548">
        <ele>1319</ele>
        <time>2018-12-02T13:54:49.000Z</time>
      </trkpt>
      <trkpt lat="42.91936" lon="0.84549">
        <ele>1319</ele>
        <time>2018-12-02T13:54:51.000Z</time>
      </trkpt>
      <trkpt lat="42.91937" lon="0.84549">
        <ele>1319</ele>
        <time>2018-12-02T13:54:53.000Z</time>
      </trkpt>
      <trkpt lat="42.91939" lon="0.8455">
        <ele>1319</ele>
        <time>2018-12-02T13:54:55.000Z</time>
      </trkpt>
      <trkpt lat="42.91941" lon="0.84551">
        <ele>1319</ele>
        <time>2018-12-02T13:54:57.000Z</time>
      </trkpt>
      <trkpt lat="42.91942" lon="0.84552">
        <ele>1319</ele>
        <time>2018-12-02T13:54:59.000Z</time>
      </trkpt>
      <trkpt lat="42.91944" lon="0.84553">
        <ele>1319</ele>
        <time>2018-12-02T13:55:01.000Z</time>
      </trkpt>
      <trkpt lat="42.91945" lon="0.84553">
        <ele>1319</ele>
        <time>2018-12-02T13:55:03.000Z</time>
      </trkpt>
      <trkpt lat="42.91947" lon="0.84553">
        <ele>1319</ele>
        <time>2018-12-02T13:55:05.000Z</time>
      </trkpt>
      <trkpt lat="42.91949" lon="0.84555">
        <ele>1319</ele>
        <time>2018-12-02T13:55:07.000Z</time>
      </trkpt>
      <trkpt lat="42.91951" lon="0.84555">
        <ele>1319</ele>
        <time>2018-12-02T13:55:09.000Z</time>
      </trkpt>
      <trkpt lat="42.91953" lon="0.84555">
        <ele>1319</ele>
        <time>2018-12-02T13:55:11.000Z</time>
      </trkpt>
      <trkpt lat="42.91954" lon="0.84556">
        <ele>1319</ele>
        <time>2018-12-02T13:55:13.000Z</time>
      </trkpt>
      <trkpt lat="42.91956" lon="0.84557">
        <ele>1319</ele>
        <time>2018-12-02T13:55:15.000Z</time>
      </trkpt>
      <trkpt lat="42.91958" lon="0.84558">
        <ele>1318</ele>
        <time>2018-12-02T13:55:17.000Z</time>
      </trkpt>
      <trkpt lat="42.9196" lon="0.84558">
        <ele>1319</ele>
        <time>2018-12-02T13:55:19.000Z</time>
      </trkpt>
      <trkpt lat="42.91962" lon="0.84559">
        <ele>1318</ele>
        <time>2018-12-02T13:55:21.000Z</time>
      </trkpt>
      <trkpt lat="42.91965" lon="0.8456">
        <ele>1318</ele>
        <time>2018-12-02T13:55:23.000Z</time>
      </trkpt>
      <trkpt lat="42.91967" lon="0.84561">
        <ele>1318</ele>
        <time>2018-12-02T13:55:25.000Z</time>
      </trkpt>
      <trkpt lat="42.91968" lon="0.84562">
        <ele>1318</ele>
        <time>2018-12-02T13:55:27.000Z</time>
      </trkpt>
      <trkpt lat="42.9197" lon="0.84563">
        <ele>1318</ele>
        <time>2018-12-02T13:55:29.000Z</time>
      </trkpt>
      <trkpt lat="42.91973" lon="0.84564">
        <ele>1318</ele>
        <time>2018-12-02T13:55:31.000Z</time>
      </trkpt>
      <trkpt lat="42.91975" lon="0.84565">
        <ele>1318</ele>
        <time>2018-12-02T13:55:33.000Z</time>
      </trkpt>
      <trkpt lat="42.91977" lon="0.84565">
        <ele>1318</ele>
        <time>2018-12-02T13:55:35.000Z</time>
      </trkpt>
      <trkpt lat="42.9198" lon="0.84566">
        <ele>1318</ele>
        <time>2018-12-02T13:55:37.000Z</time>
      </trkpt>
      <trkpt lat="42.91981" lon="0.84566">
        <ele>1318</ele>
        <time>2018-12-02T13:55:39.000Z</time>
      </trkpt>
      <trkpt lat="42.91983" lon="0.84566">
        <ele>1318</ele>
        <time>2018-12-02T13:55:41.000Z</time>
      </trkpt>
      <trkpt lat="42.91986" lon="0.84566">
        <ele>1318</ele>
        <time>2018-12-02T13:55:43.000Z</time>
      </trkpt>
      <trkpt lat="42.91988" lon="0.84566">
        <ele>1318</ele>
        <time>2018-12-02T13:55:45.000Z</time>
      </trkpt>
      <trkpt lat="42.9199" lon="0.84567">
        <ele>1318</ele>
        <time>2018-12-02T13:55:47.000Z</time>
      </trkpt>
      <trkpt lat="42.91992" lon="0.84566">
        <ele>1319</ele>
        <time>2018-12-02T13:55:49.000Z</time>
      </trkpt>
      <trkpt lat="42.91994" lon="0.84566">
        <ele>1319</ele>
        <time>2018-12-02T13:55:51.000Z</time>
      </trkpt>
      <trkpt lat="42.91996" lon="0.84567">
        <ele>1319</ele>
        <time>2018-12-02T13:55:53.000Z</time>
      </trkpt>
      <trkpt lat="42.91998" lon="0.84568">
        <ele>1319</ele>
        <time>2018-12-02T13:55:55.000Z</time>
      </trkpt>
      <trkpt lat="42.92" lon="0.84569">
        <ele>1319</ele>
        <time>2018-12-02T13:55:57.000Z</time>
      </trkpt>
      <trkpt lat="42.92002" lon="0.8457">
        <ele>1318</ele>
        <time>2018-12-02T13:55:59.000Z</time>
      </trkpt>
      <trkpt lat="42.92004" lon="0.8457">
        <ele>1318</ele>
        <time>2018-12-02T13:56:01.000Z</time>
      </trkpt>
      <trkpt lat="42.92006" lon="0.8457">
        <ele>1319</ele>
        <time>2018-12-02T13:56:03.000Z</time>
      </trkpt>
      <trkpt lat="42.92009" lon="0.84569">
        <ele>1319</ele>
        <time>2018-12-02T13:56:05.000Z</time>
      </trkpt>
      <trkpt lat="42.92012" lon="0.84569">
        <ele>1319</ele>
        <time>2018-12-02T13:56:07.000Z</time>
      </trkpt>
      <trkpt lat="42.92014" lon="0.84568">
        <ele>1318</ele>
        <time>2018-12-02T13:56:09.000Z</time>
      </trkpt>
      <trkpt lat="42.92017" lon="0.84568">
        <ele>1318</ele>
        <time>2018-12-02T13:56:11.000Z</time>
      </trkpt>
      <trkpt lat="42.92018" lon="0.84569">
        <ele>1318</ele>
        <time>2018-12-02T13:56:13.000Z</time>
      </trkpt>
      <trkpt lat="42.9202" lon="0.84571">
        <ele>1317</ele>
        <time>2018-12-02T13:56:15.000Z</time>
      </trkpt>
      <trkpt lat="42.92022" lon="0.84572">
        <ele>1316</ele>
        <time>2018-12-02T13:56:17.000Z</time>
      </trkpt>
      <trkpt lat="42.92023" lon="0.84573">
        <ele>1315</ele>
        <time>2018-12-02T13:56:19.000Z</time>
      </trkpt>
      <trkpt lat="42.92025" lon="0.84575">
        <ele>1315</ele>
        <time>2018-12-02T13:56:21.000Z</time>
      </trkpt>
      <trkpt lat="42.92027" lon="0.84576">
        <ele>1314</ele>
        <time>2018-12-02T13:56:23.000Z</time>
      </trkpt>
      <trkpt lat="42.92029" lon="0.84577">
        <ele>1313</ele>
        <time>2018-12-02T13:56:25.000Z</time>
      </trkpt>
      <trkpt lat="42.92031" lon="0.84578">
        <ele>1313</ele>
        <time>2018-12-02T13:56:27.000Z</time>
      </trkpt>
      <trkpt lat="42.92033" lon="0.8458">
        <ele>1312</ele>
        <time>2018-12-02T13:56:29.000Z</time>
      </trkpt>
      <trkpt lat="42.92035" lon="0.8458">
        <ele>1311</ele>
        <time>2018-12-02T13:56:31.000Z</time>
      </trkpt>
      <trkpt lat="42.92037" lon="0.84581">
        <ele>1311</ele>
        <time>2018-12-02T13:56:33.000Z</time>
      </trkpt>
      <trkpt lat="42.92039" lon="0.84582">
        <ele>1310</ele>
        <time>2018-12-02T13:56:35.000Z</time>
      </trkpt>
      <trkpt lat="42.9204" lon="0.84583">
        <ele>1310</ele>
        <time>2018-12-02T13:56:37.000Z</time>
      </trkpt>
      <trkpt lat="42.92041" lon="0.84585">
        <ele>1309</ele>
        <time>2018-12-02T13:56:39.000Z</time>
      </trkpt>
      <trkpt lat="42.92042" lon="0.84587">
        <ele>1308</ele>
        <time>2018-12-02T13:56:41.000Z</time>
      </trkpt>
      <trkpt lat="42.92045" lon="0.84586">
        <ele>1308</ele>
        <time>2018-12-02T13:56:43.000Z</time>
      </trkpt>
      <trkpt lat="42.92047" lon="0.84587">
        <ele>1308</ele>
        <time>2018-12-02T13:56:45.000Z</time>
      </trkpt>
      <trkpt lat="42.92049" lon="0.84587">
        <ele>1307</ele>
        <time>2018-12-02T13:56:47.000Z</time>
      </trkpt>
      <trkpt lat="42.92051" lon="0.84586">
        <ele>1307</ele>
        <time>2018-12-02T13:56:49.000Z</time>
      </trkpt>
      <trkpt lat="42.92053" lon="0.84585">
        <ele>1307</ele>
        <time>2018-12-02T13:56:51.000Z</time>
      </trkpt>
      <trkpt lat="42.92056" lon="0.84584">
        <ele>1307</ele>
        <time>2018-12-02T13:56:53.000Z</time>
      </trkpt>
      <trkpt lat="42.92058" lon="0.84584">
        <ele>1307</ele>
        <time>2018-12-02T13:56:55.000Z</time>
      </trkpt>
      <trkpt lat="42.9206" lon="0.84583">
        <ele>1308</ele>
        <time>2018-12-02T13:56:57.000Z</time>
      </trkpt>
      <trkpt lat="42.92062" lon="0.84582">
        <ele>1308</ele>
        <time>2018-12-02T13:56:59.000Z</time>
      </trkpt>
      <trkpt lat="42.92064" lon="0.84582">
        <ele>1308</ele>
        <time>2018-12-02T13:57:01.000Z</time>
      </trkpt>
      <trkpt lat="42.92065" lon="0.84582">
        <ele>1308</ele>
        <time>2018-12-02T13:57:03.000Z</time>
      </trkpt>
      <trkpt lat="42.92067" lon="0.84582">
        <ele>1307</ele>
        <time>2018-12-02T13:57:05.000Z</time>
      </trkpt>
      <trkpt lat="42.9207" lon="0.84581">
        <ele>1307</ele>
        <time>2018-12-02T13:57:07.000Z</time>
      </trkpt>
      <trkpt lat="42.92072" lon="0.84581">
        <ele>1307</ele>
        <time>2018-12-02T13:57:09.000Z</time>
      </trkpt>
      <trkpt lat="42.92075" lon="0.8458">
        <ele>1307</ele>
        <time>2018-12-02T13:57:11.000Z</time>
      </trkpt>
      <trkpt lat="42.92076" lon="0.84579">
        <ele>1307</ele>
        <time>2018-12-02T13:57:13.000Z</time>
      </trkpt>
      <trkpt lat="42.92079" lon="0.84579">
        <ele>1307</ele>
        <time>2018-12-02T13:57:15.000Z</time>
      </trkpt>
      <trkpt lat="42.92081" lon="0.84577">
        <ele>1308</ele>
        <time>2018-12-02T13:57:17.000Z</time>
      </trkpt>
      <trkpt lat="42.92083" lon="0.84576">
        <ele>1308</ele>
        <time>2018-12-02T13:57:19.000Z</time>
      </trkpt>
      <trkpt lat="42.92085" lon="0.84575">
        <ele>1308</ele>
        <time>2018-12-02T13:57:21.000Z</time>
      </trkpt>
      <trkpt lat="42.92086" lon="0.84574">
        <ele>1308</ele>
        <time>2018-12-02T13:57:23.000Z</time>
      </trkpt>
      <trkpt lat="42.92088" lon="0.84573">
        <ele>1308</ele>
        <time>2018-12-02T13:57:25.000Z</time>
      </trkpt>
      <trkpt lat="42.92089" lon="0.84572">
        <ele>1309</ele>
        <time>2018-12-02T13:57:27.000Z</time>
      </trkpt>
      <trkpt lat="42.92092" lon="0.84572">
        <ele>1309</ele>
        <time>2018-12-02T13:57:29.000Z</time>
      </trkpt>
      <trkpt lat="42.92094" lon="0.84573">
        <ele>1309</ele>
        <time>2018-12-02T13:57:31.000Z</time>
      </trkpt>
      <trkpt lat="42.92097" lon="0.84573">
        <ele>1309</ele>
        <time>2018-12-02T13:57:33.000Z</time>
      </trkpt>
      <trkpt lat="42.92099" lon="0.84573">
        <ele>1310</ele>
        <time>2018-12-02T13:57:35.000Z</time>
      </trkpt>
      <trkpt lat="42.92102" lon="0.84572">
        <ele>1311</ele>
        <time>2018-12-02T13:57:37.000Z</time>
      </trkpt>
      <trkpt lat="42.92104" lon="0.84572">
        <ele>1311</ele>
        <time>2018-12-02T13:57:39.000Z</time>
      </trkpt>
      <trkpt lat="42.92105" lon="0.84572">
        <ele>1311</ele>
        <time>2018-12-02T13:57:41.000Z</time>
      </trkpt>
      <trkpt lat="42.92107" lon="0.84571">
        <ele>1312</ele>
        <time>2018-12-02T13:57:43.000Z</time>
      </trkpt>
      <trkpt lat="42.9211" lon="0.84571">
        <ele>1312</ele>
        <time>2018-12-02T13:57:45.000Z</time>
      </trkpt>
      <trkpt lat="42.92112" lon="0.84571">
        <ele>1312</ele>
        <time>2018-12-02T13:57:47.000Z</time>
      </trkpt>
      <trkpt lat="42.92114" lon="0.84571">
        <ele>1313</ele>
        <time>2018-12-02T13:57:49.000Z</time>
      </trkpt>
      <trkpt lat="42.92116" lon="0.84571">
        <ele>1313</ele>
        <time>2018-12-02T13:57:51.000Z</time>
      </trkpt>
      <trkpt lat="42.92118" lon="0.84571">
        <ele>1313</ele>
        <time>2018-12-02T13:57:53.000Z</time>
      </trkpt>
      <trkpt lat="42.92119" lon="0.84571">
        <ele>1313</ele>
        <time>2018-12-02T13:57:55.000Z</time>
      </trkpt>
      <trkpt lat="42.92121" lon="0.84572">
        <ele>1313</ele>
        <time>2018-12-02T13:57:57.000Z</time>
      </trkpt>
      <trkpt lat="42.92123" lon="0.84573">
        <ele>1313</ele>
        <time>2018-12-02T13:57:59.000Z</time>
      </trkpt>
      <trkpt lat="42.92125" lon="0.84573">
        <ele>1313</ele>
        <time>2018-12-02T13:58:01.000Z</time>
      </trkpt>
      <trkpt lat="42.92127" lon="0.84573">
        <ele>1313</ele>
        <time>2018-12-02T13:58:03.000Z</time>
      </trkpt>
      <trkpt lat="42.9213" lon="0.84575">
        <ele>1313</ele>
        <time>2018-12-02T13:58:05.000Z</time>
      </trkpt>
      <trkpt lat="42.92132" lon="0.84576">
        <ele>1313</ele>
        <time>2018-12-02T13:58:07.000Z</time>
      </trkpt>
      <trkpt lat="42.92134" lon="0.84579">
        <ele>1312</ele>
        <time>2018-12-02T13:58:09.000Z</time>
      </trkpt>
      <trkpt lat="42.92135" lon="0.8458">
        <ele>1312</ele>
        <time>2018-12-02T13:58:11.000Z</time>
      </trkpt>
      <trkpt lat="42.92137" lon="0.84581">
        <ele>1312</ele>
        <time>2018-12-02T13:58:13.000Z</time>
      </trkpt>
      <trkpt lat="42.92139" lon="0.84583">
        <ele>1312</ele>
        <time>2018-12-02T13:58:15.000Z</time>
      </trkpt>
      <trkpt lat="42.9214" lon="0.84585">
        <ele>1311</ele>
        <time>2018-12-02T13:58:17.000Z</time>
      </trkpt>
      <trkpt lat="42.92142" lon="0.84587">
        <ele>1311</ele>
        <time>2018-12-02T13:58:19.000Z</time>
      </trkpt>
      <trkpt lat="42.92143" lon="0.84588">
        <ele>1311</ele>
        <time>2018-12-02T13:58:21.000Z</time>
      </trkpt>
      <trkpt lat="42.92145" lon="0.84589">
        <ele>1310</ele>
        <time>2018-12-02T13:58:23.000Z</time>
      </trkpt>
      <trkpt lat="42.92148" lon="0.8459">
        <ele>1310</ele>
        <time>2018-12-02T13:58:25.000Z</time>
      </trkpt>
      <trkpt lat="42.9215" lon="0.84591">
        <ele>1310</ele>
        <time>2018-12-02T13:58:27.000Z</time>
      </trkpt>
      <trkpt lat="42.92152" lon="0.84591">
        <ele>1310</ele>
        <time>2018-12-02T13:58:29.000Z</time>
      </trkpt>
      <trkpt lat="42.92155" lon="0.84591">
        <ele>1311</ele>
        <time>2018-12-02T13:58:31.000Z</time>
      </trkpt>
      <trkpt lat="42.92157" lon="0.84593">
        <ele>1310</ele>
        <time>2018-12-02T13:58:33.000Z</time>
      </trkpt>
      <trkpt lat="42.92159" lon="0.84596">
        <ele>1310</ele>
        <time>2018-12-02T13:58:35.000Z</time>
      </trkpt>
      <trkpt lat="42.92162" lon="0.84598">
        <ele>1309</ele>
        <time>2018-12-02T13:58:37.000Z</time>
      </trkpt>
      <trkpt lat="42.92164" lon="0.84601">
        <ele>1309</ele>
        <time>2018-12-02T13:58:39.000Z</time>
      </trkpt>
      <trkpt lat="42.92166" lon="0.84603">
        <ele>1308</ele>
        <time>2018-12-02T13:58:41.000Z</time>
      </trkpt>
      <trkpt lat="42.92168" lon="0.84607">
        <ele>1307</ele>
        <time>2018-12-02T13:58:43.000Z</time>
      </trkpt>
      <trkpt lat="42.92171" lon="0.84608">
        <ele>1307</ele>
        <time>2018-12-02T13:58:45.000Z</time>
      </trkpt>
      <trkpt lat="42.92173" lon="0.84611">
        <ele>1306</ele>
        <time>2018-12-02T13:58:47.000Z</time>
      </trkpt>
      <trkpt lat="42.92175" lon="0.84612">
        <ele>1306</ele>
        <time>2018-12-02T13:58:49.000Z</time>
      </trkpt>
      <trkpt lat="42.92177" lon="0.84614">
        <ele>1306</ele>
        <time>2018-12-02T13:58:51.000Z</time>
      </trkpt>
      <trkpt lat="42.92178" lon="0.84615">
        <ele>1306</ele>
        <time>2018-12-02T13:58:53.000Z</time>
      </trkpt>
      <trkpt lat="42.92179" lon="0.84617">
        <ele>1306</ele>
        <time>2018-12-02T13:58:55.000Z</time>
      </trkpt>
      <trkpt lat="42.92181" lon="0.84619">
        <ele>1306</ele>
        <time>2018-12-02T13:58:57.000Z</time>
      </trkpt>
      <trkpt lat="42.92181" lon="0.84622">
        <ele>1305</ele>
        <time>2018-12-02T13:58:59.000Z</time>
      </trkpt>
      <trkpt lat="42.92181" lon="0.84623">
        <ele>1305</ele>
        <time>2018-12-02T13:59:01.000Z</time>
      </trkpt>
      <trkpt lat="42.92182" lon="0.84624">
        <ele>1304</ele>
        <time>2018-12-02T13:59:03.000Z</time>
      </trkpt>
      <trkpt lat="42.92183" lon="0.84626">
        <ele>1304</ele>
        <time>2018-12-02T13:59:05.000Z</time>
      </trkpt>
      <trkpt lat="42.92183" lon="0.84627">
        <ele>1304</ele>
        <time>2018-12-02T13:59:07.000Z</time>
      </trkpt>
      <trkpt lat="42.92183" lon="0.84628">
        <ele>1303</ele>
        <time>2018-12-02T13:59:09.000Z</time>
      </trkpt>
      <trkpt lat="42.92183" lon="0.84629">
        <ele>1303</ele>
        <time>2018-12-02T13:59:11.000Z</time>
      </trkpt>
      <trkpt lat="42.92183" lon="0.8463">
        <ele>1303</ele>
        <time>2018-12-02T13:59:13.000Z</time>
      </trkpt>
      <trkpt lat="42.92183" lon="0.84631">
        <ele>1303</ele>
        <time>2018-12-02T13:59:15.000Z</time>
      </trkpt>
      <trkpt lat="42.92182" lon="0.84634">
        <ele>1301</ele>
        <time>2018-12-02T13:59:18.000Z</time>
      </trkpt>
      <trkpt lat="42.92182" lon="0.84635">
        <ele>1301</ele>
        <time>2018-12-02T13:59:20.000Z</time>
      </trkpt>
      <trkpt lat="42.92182" lon="0.84635">
        <ele>1301</ele>
        <time>2018-12-02T13:59:22.000Z</time>
      </trkpt>
      <trkpt lat="42.92181" lon="0.84636">
        <ele>1301</ele>
        <time>2018-12-02T13:59:24.000Z</time>
      </trkpt>
      <trkpt lat="42.92181" lon="0.84636">
        <ele>1301</ele>
        <time>2018-12-02T13:59:26.000Z</time>
      </trkpt>
      <trkpt lat="42.9218" lon="0.84637">
        <ele>1300</ele>
        <time>2018-12-02T13:59:28.000Z</time>
      </trkpt>
      <trkpt lat="42.9218" lon="0.84637">
        <ele>1300</ele>
        <time>2018-12-02T13:59:30.000Z</time>
      </trkpt>
      <trkpt lat="42.92179" lon="0.84638">
        <ele>1300</ele>
        <time>2018-12-02T13:59:32.000Z</time>
      </trkpt>
      <trkpt lat="42.92179" lon="0.84637">
        <ele>1300</ele>
        <time>2018-12-02T13:59:34.000Z</time>
      </trkpt>
      <trkpt lat="42.92179" lon="0.84637">
        <ele>1300</ele>
        <time>2018-12-02T13:59:36.000Z</time>
      </trkpt>
      <trkpt lat="42.92179" lon="0.84636">
        <ele>1300</ele>
        <time>2018-12-02T13:59:38.000Z</time>
      </trkpt>
      <trkpt lat="42.92179" lon="0.84636">
        <ele>1300</ele>
        <time>2018-12-02T13:59:40.000Z</time>
      </trkpt>
      <trkpt lat="42.92179" lon="0.84636">
        <ele>1300</ele>
        <time>2018-12-02T13:59:42.000Z</time>
      </trkpt>
      <trkpt lat="42.9218" lon="0.84636">
        <ele>1300</ele>
        <time>2018-12-02T13:59:44.000Z</time>
      </trkpt>
      <trkpt lat="42.9218" lon="0.84636">
        <ele>1300</ele>
        <time>2018-12-02T13:59:46.000Z</time>
      </trkpt>
      <trkpt lat="42.9218" lon="0.84636">
        <ele>1300</ele>
        <time>2018-12-02T13:59:48.000Z</time>
      </trkpt>
      <trkpt lat="42.9218" lon="0.84636">
        <ele>1300</ele>
        <time>2018-12-02T13:59:50.000Z</time>
      </trkpt>
      <trkpt lat="42.9218" lon="0.84636">
        <ele>1300</ele>
        <time>2018-12-02T13:59:52.000Z</time>
      </trkpt>
      <trkpt lat="42.9218" lon="0.84636">
        <ele>1300</ele>
        <time>2018-12-02T13:59:54.000Z</time>
      </trkpt>
      <trkpt lat="42.9218" lon="0.84636">
        <ele>1300</ele>
        <time>2018-12-02T13:59:56.000Z</time>
      </trkpt>
      <trkpt lat="42.9218" lon="0.84635">
        <ele>1301</ele>
        <time>2018-12-02T13:59:58.000Z</time>
      </trkpt>
      <trkpt lat="42.9218" lon="0.84635">
        <ele>1301</ele>
        <time>2018-12-02T14:00:00.000Z</time>
      </trkpt>
      <trkpt lat="42.9218" lon="0.84635">
        <ele>1301</ele>
        <time>2018-12-02T14:00:02.000Z</time>
      </trkpt>
      <trkpt lat="42.9218" lon="0.84635">
        <ele>1301</ele>
        <time>2018-12-02T14:00:04.000Z</time>
      </trkpt>
      <trkpt lat="42.9218" lon="0.84635">
        <ele>1301</ele>
        <time>2018-12-02T14:00:06.000Z</time>
      </trkpt>
      <trkpt lat="42.9218" lon="0.84635">
        <ele>1301</ele>
        <time>2018-12-02T14:00:08.000Z</time>
      </trkpt>
      <trkpt lat="42.92181" lon="0.84635">
        <ele>1301</ele>
        <time>2018-12-02T14:00:10.000Z</time>
      </trkpt>
      <trkpt lat="42.9218" lon="0.84635">
        <ele>1301</ele>
        <time>2018-12-02T14:00:12.000Z</time>
      </trkpt>
      <trkpt lat="42.9218" lon="0.84635">
        <ele>1301</ele>
        <time>2018-12-02T14:00:14.000Z</time>
      </trkpt>
      <trkpt lat="42.9218" lon="0.84635">
        <ele>1301</ele>
        <time>2018-12-02T14:00:16.000Z</time>
      </trkpt>
      <trkpt lat="42.9218" lon="0.84636">
        <ele>1300</ele>
        <time>2018-12-02T14:00:18.000Z</time>
      </trkpt>
      <trkpt lat="42.9218" lon="0.84635">
        <ele>1301</ele>
        <time>2018-12-02T14:00:20.000Z</time>
      </trkpt>
      <trkpt lat="42.9218" lon="0.84635">
        <ele>1301</ele>
        <time>2018-12-02T14:00:22.000Z</time>
      </trkpt>
      <trkpt lat="42.9218" lon="0.84635">
        <ele>1301</ele>
        <time>2018-12-02T14:00:24.000Z</time>
      </trkpt>
      <trkpt lat="42.92179" lon="0.84635">
        <ele>1300</ele>
        <time>2018-12-02T14:00:26.000Z</time>
      </trkpt>
      <trkpt lat="42.92179" lon="0.84636">
        <ele>1300</ele>
        <time>2018-12-02T14:00:28.000Z</time>
      </trkpt>
      <trkpt lat="42.92179" lon="0.84636">
        <ele>1300</ele>
        <time>2018-12-02T14:00:30.000Z</time>
      </trkpt>
      <trkpt lat="42.92178" lon="0.84636">
        <ele>1300</ele>
        <time>2018-12-02T14:00:32.000Z</time>
      </trkpt>
      <trkpt lat="42.92177" lon="0.84636">
        <ele>1300</ele>
        <time>2018-12-02T14:00:34.000Z</time>
      </trkpt>
      <trkpt lat="42.92176" lon="0.84636">
        <ele>1299</ele>
        <time>2018-12-02T14:00:36.000Z</time>
      </trkpt>
      <trkpt lat="42.92175" lon="0.84635">
        <ele>1299</ele>
        <time>2018-12-02T14:00:38.000Z</time>
      </trkpt>
      <trkpt lat="42.92173" lon="0.84635">
        <ele>1299</ele>
        <time>2018-12-02T14:00:40.000Z</time>
      </trkpt>
      <trkpt lat="42.92172" lon="0.84634">
        <ele>1299</ele>
        <time>2018-12-02T14:00:42.000Z</time>
      </trkpt>
      <trkpt lat="42.92171" lon="0.84634">
        <ele>1299</ele>
        <time>2018-12-02T14:00:44.000Z</time>
      </trkpt>
      <trkpt lat="42.9217" lon="0.84634">
        <ele>1299</ele>
        <time>2018-12-02T14:00:46.000Z</time>
      </trkpt>
      <trkpt lat="42.92168" lon="0.84633">
        <ele>1299</ele>
        <time>2018-12-02T14:00:48.000Z</time>
      </trkpt>
      <trkpt lat="42.92167" lon="0.84633">
        <ele>1299</ele>
        <time>2018-12-02T14:00:50.000Z</time>
      </trkpt>
      <trkpt lat="42.92165" lon="0.84633">
        <ele>1299</ele>
        <time>2018-12-02T14:00:52.000Z</time>
      </trkpt>
      <trkpt lat="42.92164" lon="0.84633">
        <ele>1299</ele>
        <time>2018-12-02T14:00:54.000Z</time>
      </trkpt>
      <trkpt lat="42.92163" lon="0.84633">
        <ele>1298</ele>
        <time>2018-12-02T14:00:56.000Z</time>
      </trkpt>
      <trkpt lat="42.92162" lon="0.84633">
        <ele>1298</ele>
        <time>2018-12-02T14:00:58.000Z</time>
      </trkpt>
      <trkpt lat="42.9216" lon="0.84633">
        <ele>1298</ele>
        <time>2018-12-02T14:01:00.000Z</time>
      </trkpt>
      <trkpt lat="42.92158" lon="0.84633">
        <ele>1298</ele>
        <time>2018-12-02T14:01:02.000Z</time>
      </trkpt>
      <trkpt lat="42.92156" lon="0.84633">
        <ele>1297</ele>
        <time>2018-12-02T14:01:04.000Z</time>
      </trkpt>
      <trkpt lat="42.92154" lon="0.84633">
        <ele>1297</ele>
        <time>2018-12-02T14:01:06.000Z</time>
      </trkpt>
      <trkpt lat="42.92152" lon="0.84633">
        <ele>1296</ele>
        <time>2018-12-02T14:01:08.000Z</time>
      </trkpt>
      <trkpt lat="42.92151" lon="0.84632">
        <ele>1297</ele>
        <time>2018-12-02T14:01:10.000Z</time>
      </trkpt>
      <trkpt lat="42.9215" lon="0.84632">
        <ele>1296</ele>
        <time>2018-12-02T14:01:12.000Z</time>
      </trkpt>
      <trkpt lat="42.92148" lon="0.84633">
        <ele>1296</ele>
        <time>2018-12-02T14:01:14.000Z</time>
      </trkpt>
      <trkpt lat="42.92147" lon="0.84634">
        <ele>1295</ele>
        <time>2018-12-02T14:01:16.000Z</time>
      </trkpt>
      <trkpt lat="42.92145" lon="0.84634">
        <ele>1295</ele>
        <time>2018-12-02T14:01:18.000Z</time>
      </trkpt>
      <trkpt lat="42.92143" lon="0.84634">
        <ele>1294</ele>
        <time>2018-12-02T14:01:20.000Z</time>
      </trkpt>
      <trkpt lat="42.92142" lon="0.84635">
        <ele>1293</ele>
        <time>2018-12-02T14:01:22.000Z</time>
      </trkpt>
      <trkpt lat="42.92141" lon="0.84636">
        <ele>1293</ele>
        <time>2018-12-02T14:01:24.000Z</time>
      </trkpt>
      <trkpt lat="42.92141" lon="0.84637">
        <ele>1293</ele>
        <time>2018-12-02T14:01:26.000Z</time>
      </trkpt>
      <trkpt lat="42.9214" lon="0.84638">
        <ele>1292</ele>
        <time>2018-12-02T14:01:28.000Z</time>
      </trkpt>
      <trkpt lat="42.92138" lon="0.84639">
        <ele>1291</ele>
        <time>2018-12-02T14:01:30.000Z</time>
      </trkpt>
      <trkpt lat="42.92137" lon="0.84639">
        <ele>1291</ele>
        <time>2018-12-02T14:01:32.000Z</time>
      </trkpt>
      <trkpt lat="42.92135" lon="0.8464">
        <ele>1290</ele>
        <time>2018-12-02T14:01:34.000Z</time>
      </trkpt>
      <trkpt lat="42.92133" lon="0.84641">
        <ele>1290</ele>
        <time>2018-12-02T14:01:36.000Z</time>
      </trkpt>
      <trkpt lat="42.92132" lon="0.84642">
        <ele>1289</ele>
        <time>2018-12-02T14:01:38.000Z</time>
      </trkpt>
      <trkpt lat="42.92131" lon="0.84643">
        <ele>1289</ele>
        <time>2018-12-02T14:01:40.000Z</time>
      </trkpt>
      <trkpt lat="42.9213" lon="0.84644">
        <ele>1288</ele>
        <time>2018-12-02T14:01:42.000Z</time>
      </trkpt>
      <trkpt lat="42.92129" lon="0.84646">
        <ele>1288</ele>
        <time>2018-12-02T14:01:44.000Z</time>
      </trkpt>
      <trkpt lat="42.92127" lon="0.84647">
        <ele>1287</ele>
        <time>2018-12-02T14:01:46.000Z</time>
      </trkpt>
      <trkpt lat="42.92125" lon="0.84648">
        <ele>1286</ele>
        <time>2018-12-02T14:01:48.000Z</time>
      </trkpt>
      <trkpt lat="42.92124" lon="0.84648">
        <ele>1286</ele>
        <time>2018-12-02T14:01:50.000Z</time>
      </trkpt>
      <trkpt lat="42.92123" lon="0.84649">
        <ele>1286</ele>
        <time>2018-12-02T14:01:52.000Z</time>
      </trkpt>
      <trkpt lat="42.92121" lon="0.84649">
        <ele>1285</ele>
        <time>2018-12-02T14:01:54.000Z</time>
      </trkpt>
      <trkpt lat="42.92118" lon="0.84649">
        <ele>1285</ele>
        <time>2018-12-02T14:01:56.000Z</time>
      </trkpt>
      <trkpt lat="42.92117" lon="0.8465">
        <ele>1284</ele>
        <time>2018-12-02T14:01:58.000Z</time>
      </trkpt>
      <trkpt lat="42.92115" lon="0.84651">
        <ele>1284</ele>
        <time>2018-12-02T14:02:00.000Z</time>
      </trkpt>
      <trkpt lat="42.92113" lon="0.84652">
        <ele>1283</ele>
        <time>2018-12-02T14:02:02.000Z</time>
      </trkpt>
      <trkpt lat="42.92112" lon="0.84653">
        <ele>1283</ele>
        <time>2018-12-02T14:02:04.000Z</time>
      </trkpt>
      <trkpt lat="42.9211" lon="0.84654">
        <ele>1282</ele>
        <time>2018-12-02T14:02:06.000Z</time>
      </trkpt>
      <trkpt lat="42.92108" lon="0.84655">
        <ele>1281</ele>
        <time>2018-12-02T14:02:08.000Z</time>
      </trkpt>
      <trkpt lat="42.92106" lon="0.84656">
        <ele>1281</ele>
        <time>2018-12-02T14:02:10.000Z</time>
      </trkpt>
      <trkpt lat="42.92104" lon="0.84657">
        <ele>1280</ele>
        <time>2018-12-02T14:02:12.000Z</time>
      </trkpt>
      <trkpt lat="42.92103" lon="0.84659">
        <ele>1280</ele>
        <time>2018-12-02T14:02:14.000Z</time>
      </trkpt>
      <trkpt lat="42.92101" lon="0.8466">
        <ele>1279</ele>
        <time>2018-12-02T14:02:16.000Z</time>
      </trkpt>
      <trkpt lat="42.921" lon="0.84661">
        <ele>1279</ele>
        <time>2018-12-02T14:02:18.000Z</time>
      </trkpt>
      <trkpt lat="42.92097" lon="0.84662">
        <ele>1279</ele>
        <time>2018-12-02T14:02:20.000Z</time>
      </trkpt>
      <trkpt lat="42.92095" lon="0.84662">
        <ele>1278</ele>
        <time>2018-12-02T14:02:22.000Z</time>
      </trkpt>
      <trkpt lat="42.92092" lon="0.84663">
        <ele>1278</ele>
        <time>2018-12-02T14:02:24.000Z</time>
      </trkpt>
      <trkpt lat="42.9209" lon="0.84664">
        <ele>1277</ele>
        <time>2018-12-02T14:02:26.000Z</time>
      </trkpt>
      <trkpt lat="42.92089" lon="0.84665">
        <ele>1278</ele>
        <time>2018-12-02T14:02:28.000Z</time>
      </trkpt>
      <trkpt lat="42.92087" lon="0.84665">
        <ele>1278</ele>
        <time>2018-12-02T14:02:30.000Z</time>
      </trkpt>
      <trkpt lat="42.92084" lon="0.84666">
        <ele>1278</ele>
        <time>2018-12-02T14:02:32.000Z</time>
      </trkpt>
      <trkpt lat="42.92083" lon="0.84667">
        <ele>1278</ele>
        <time>2018-12-02T14:02:34.000Z</time>
      </trkpt>
      <trkpt lat="42.92082" lon="0.84668">
        <ele>1278</ele>
        <time>2018-12-02T14:02:36.000Z</time>
      </trkpt>
      <trkpt lat="42.9208" lon="0.84668">
        <ele>1278</ele>
        <time>2018-12-02T14:02:38.000Z</time>
      </trkpt>
      <trkpt lat="42.92079" lon="0.84669">
        <ele>1278</ele>
        <time>2018-12-02T14:02:40.000Z</time>
      </trkpt>
      <trkpt lat="42.92078" lon="0.84671">
        <ele>1278</ele>
        <time>2018-12-02T14:02:42.000Z</time>
      </trkpt>
      <trkpt lat="42.92077" lon="0.84672">
        <ele>1278</ele>
        <time>2018-12-02T14:02:44.000Z</time>
      </trkpt>
      <trkpt lat="42.92076" lon="0.84674">
        <ele>1278</ele>
        <time>2018-12-02T14:02:46.000Z</time>
      </trkpt>
      <trkpt lat="42.92073" lon="0.84675">
        <ele>1278</ele>
        <time>2018-12-02T14:02:48.000Z</time>
      </trkpt>
      <trkpt lat="42.92072" lon="0.84677">
        <ele>1278</ele>
        <time>2018-12-02T14:02:50.000Z</time>
      </trkpt>
      <trkpt lat="42.9207" lon="0.84679">
        <ele>1278</ele>
        <time>2018-12-02T14:02:52.000Z</time>
      </trkpt>
      <trkpt lat="42.92069" lon="0.84681">
        <ele>1277</ele>
        <time>2018-12-02T14:02:54.000Z</time>
      </trkpt>
      <trkpt lat="42.92066" lon="0.84684">
        <ele>1277</ele>
        <time>2018-12-02T14:02:56.000Z</time>
      </trkpt>
      <trkpt lat="42.92065" lon="0.84687">
        <ele>1277</ele>
        <time>2018-12-02T14:02:58.000Z</time>
      </trkpt>
      <trkpt lat="42.92063" lon="0.8469">
        <ele>1276</ele>
        <time>2018-12-02T14:03:00.000Z</time>
      </trkpt>
      <trkpt lat="42.92062" lon="0.84693">
        <ele>1276</ele>
        <time>2018-12-02T14:03:02.000Z</time>
      </trkpt>
      <trkpt lat="42.92061" lon="0.84696">
        <ele>1276</ele>
        <time>2018-12-02T14:03:04.000Z</time>
      </trkpt>
      <trkpt lat="42.9206" lon="0.847">
        <ele>1276</ele>
        <time>2018-12-02T14:03:06.000Z</time>
      </trkpt>
      <trkpt lat="42.92059" lon="0.84703">
        <ele>1275</ele>
        <time>2018-12-02T14:03:08.000Z</time>
      </trkpt>
      <trkpt lat="42.92058" lon="0.84706">
        <ele>1275</ele>
        <time>2018-12-02T14:03:10.000Z</time>
      </trkpt>
      <trkpt lat="42.92057" lon="0.84708">
        <ele>1275</ele>
        <time>2018-12-02T14:03:12.000Z</time>
      </trkpt>
      <trkpt lat="42.92055" lon="0.8471">
        <ele>1275</ele>
        <time>2018-12-02T14:03:14.000Z</time>
      </trkpt>
      <trkpt lat="42.92054" lon="0.84712">
        <ele>1275</ele>
        <time>2018-12-02T14:03:16.000Z</time>
      </trkpt>
      <trkpt lat="42.92052" lon="0.84714">
        <ele>1275</ele>
        <time>2018-12-02T14:03:18.000Z</time>
      </trkpt>
      <trkpt lat="42.92052" lon="0.84716">
        <ele>1275</ele>
        <time>2018-12-02T14:03:20.000Z</time>
      </trkpt>
      <trkpt lat="42.92052" lon="0.84718">
        <ele>1275</ele>
        <time>2018-12-02T14:03:22.000Z</time>
      </trkpt>
      <trkpt lat="42.92051" lon="0.8472">
        <ele>1274</ele>
        <time>2018-12-02T14:03:24.000Z</time>
      </trkpt>
      <trkpt lat="42.9205" lon="0.84721">
        <ele>1274</ele>
        <time>2018-12-02T14:03:26.000Z</time>
      </trkpt>
      <trkpt lat="42.92049" lon="0.84723">
        <ele>1274</ele>
        <time>2018-12-02T14:03:28.000Z</time>
      </trkpt>
      <trkpt lat="42.9205" lon="0.84724">
        <ele>1274</ele>
        <time>2018-12-02T14:03:30.000Z</time>
      </trkpt>
      <trkpt lat="42.9205" lon="0.84726">
        <ele>1274</ele>
        <time>2018-12-02T14:03:32.000Z</time>
      </trkpt>
      <trkpt lat="42.92049" lon="0.84727">
        <ele>1274</ele>
        <time>2018-12-02T14:03:34.000Z</time>
      </trkpt>
      <trkpt lat="42.92049" lon="0.84729">
        <ele>1274</ele>
        <time>2018-12-02T14:03:36.000Z</time>
      </trkpt>
      <trkpt lat="42.92049" lon="0.84729">
        <ele>1274</ele>
        <time>2018-12-02T14:03:38.000Z</time>
      </trkpt>
      <trkpt lat="42.92049" lon="0.84729">
        <ele>1274</ele>
        <time>2018-12-02T14:03:40.000Z</time>
      </trkpt>
      <trkpt lat="42.92051" lon="0.84729">
        <ele>1273</ele>
        <time>2018-12-02T14:03:42.000Z</time>
      </trkpt>
      <trkpt lat="42.92052" lon="0.84731">
        <ele>1273</ele>
        <time>2018-12-02T14:03:44.000Z</time>
      </trkpt>
      <trkpt lat="42.92053" lon="0.84732">
        <ele>1273</ele>
        <time>2018-12-02T14:03:46.000Z</time>
      </trkpt>
      <trkpt lat="42.92054" lon="0.84733">
        <ele>1272</ele>
        <time>2018-12-02T14:03:48.000Z</time>
      </trkpt>
      <trkpt lat="42.92056" lon="0.84734">
        <ele>1272</ele>
        <time>2018-12-02T14:03:50.000Z</time>
      </trkpt>
      <trkpt lat="42.92056" lon="0.84733">
        <ele>1272</ele>
        <time>2018-12-02T14:03:52.000Z</time>
      </trkpt>
      <trkpt lat="42.92057" lon="0.84732">
        <ele>1272</ele>
        <time>2018-12-02T14:03:54.000Z</time>
      </trkpt>
      <trkpt lat="42.92059" lon="0.84733">
        <ele>1272</ele>
        <time>2018-12-02T14:03:56.000Z</time>
      </trkpt>
      <trkpt lat="42.92059" lon="0.84733">
        <ele>1271</ele>
        <time>2018-12-02T14:03:58.000Z</time>
      </trkpt>
      <trkpt lat="42.92061" lon="0.84734">
        <ele>1271</ele>
        <time>2018-12-02T14:04:00.000Z</time>
      </trkpt>
      <trkpt lat="42.92062" lon="0.84735">
        <ele>1271</ele>
        <time>2018-12-02T14:04:02.000Z</time>
      </trkpt>
      <trkpt lat="42.92063" lon="0.84735">
        <ele>1271</ele>
        <time>2018-12-02T14:04:04.000Z</time>
      </trkpt>
      <trkpt lat="42.92064" lon="0.84735">
        <ele>1270</ele>
        <time>2018-12-02T14:04:06.000Z</time>
      </trkpt>
      <trkpt lat="42.92066" lon="0.84737">
        <ele>1270</ele>
        <time>2018-12-02T14:04:08.000Z</time>
      </trkpt>
      <trkpt lat="42.92068" lon="0.84738">
        <ele>1269</ele>
        <time>2018-12-02T14:04:10.000Z</time>
      </trkpt>
      <trkpt lat="42.9207" lon="0.84739">
        <ele>1269</ele>
        <time>2018-12-02T14:04:12.000Z</time>
      </trkpt>
      <trkpt lat="42.92071" lon="0.8474">
        <ele>1269</ele>
        <time>2018-12-02T14:04:14.000Z</time>
      </trkpt>
      <trkpt lat="42.92073" lon="0.84741">
        <ele>1268</ele>
        <time>2018-12-02T14:04:16.000Z</time>
      </trkpt>
      <trkpt lat="42.92075" lon="0.84743">
        <ele>1267</ele>
        <time>2018-12-02T14:04:18.000Z</time>
      </trkpt>
      <trkpt lat="42.92078" lon="0.84745">
        <ele>1267</ele>
        <time>2018-12-02T14:04:20.000Z</time>
      </trkpt>
      <trkpt lat="42.9208" lon="0.84746">
        <ele>1266</ele>
        <time>2018-12-02T14:04:22.000Z</time>
      </trkpt>
      <trkpt lat="42.92083" lon="0.84748">
        <ele>1266</ele>
        <time>2018-12-02T14:04:24.000Z</time>
      </trkpt>
      <trkpt lat="42.92085" lon="0.8475">
        <ele>1265</ele>
        <time>2018-12-02T14:04:26.000Z</time>
      </trkpt>
      <trkpt lat="42.92087" lon="0.84752">
        <ele>1264</ele>
        <time>2018-12-02T14:04:28.000Z</time>
      </trkpt>
      <trkpt lat="42.92089" lon="0.84755">
        <ele>1264</ele>
        <time>2018-12-02T14:04:30.000Z</time>
      </trkpt>
      <trkpt lat="42.92091" lon="0.84758">
        <ele>1263</ele>
        <time>2018-12-02T14:04:32.000Z</time>
      </trkpt>
      <trkpt lat="42.92092" lon="0.84759">
        <ele>1263</ele>
        <time>2018-12-02T14:04:34.000Z</time>
      </trkpt>
      <trkpt lat="42.92094" lon="0.8476">
        <ele>1263</ele>
        <time>2018-12-02T14:04:36.000Z</time>
      </trkpt>
      <trkpt lat="42.92097" lon="0.84762">
        <ele>1263</ele>
        <time>2018-12-02T14:04:38.000Z</time>
      </trkpt>
      <trkpt lat="42.921" lon="0.84765">
        <ele>1263</ele>
        <time>2018-12-02T14:04:40.000Z</time>
      </trkpt>
      <trkpt lat="42.92099" lon="0.84767">
        <ele>1263</ele>
        <time>2018-12-02T14:04:42.000Z</time>
      </trkpt>
      <trkpt lat="42.921" lon="0.84768">
        <ele>1263</ele>
        <time>2018-12-02T14:04:44.000Z</time>
      </trkpt>
      <trkpt lat="42.92102" lon="0.84771">
        <ele>1263</ele>
        <time>2018-12-02T14:04:46.000Z</time>
      </trkpt>
      <trkpt lat="42.92104" lon="0.84773">
        <ele>1263</ele>
        <time>2018-12-02T14:04:48.000Z</time>
      </trkpt>
      <trkpt lat="42.92105" lon="0.84776">
        <ele>1262</ele>
        <time>2018-12-02T14:04:50.000Z</time>
      </trkpt>
      <trkpt lat="42.92104" lon="0.84778">
        <ele>1262</ele>
        <time>2018-12-02T14:04:52.000Z</time>
      </trkpt>
      <trkpt lat="42.92103" lon="0.8478">
        <ele>1262</ele>
        <time>2018-12-02T14:04:54.000Z</time>
      </trkpt>
      <trkpt lat="42.92101" lon="0.84783">
        <ele>1261</ele>
        <time>2018-12-02T14:04:56.000Z</time>
      </trkpt>
      <trkpt lat="42.92101" lon="0.84785">
        <ele>1261</ele>
        <time>2018-12-02T14:04:58.000Z</time>
      </trkpt>
      <trkpt lat="42.921" lon="0.84786">
        <ele>1261</ele>
        <time>2018-12-02T14:05:00.000Z</time>
      </trkpt>
      <trkpt lat="42.92099" lon="0.84787">
        <ele>1261</ele>
        <time>2018-12-02T14:05:02.000Z</time>
      </trkpt>
      <trkpt lat="42.92098" lon="0.84789">
        <ele>1260</ele>
        <time>2018-12-02T14:05:04.000Z</time>
      </trkpt>
      <trkpt lat="42.92098" lon="0.8479">
        <ele>1260</ele>
        <time>2018-12-02T14:05:06.000Z</time>
      </trkpt>
      <trkpt lat="42.92097" lon="0.84791">
        <ele>1260</ele>
        <time>2018-12-02T14:05:08.000Z</time>
      </trkpt>
      <trkpt lat="42.92095" lon="0.84793">
        <ele>1260</ele>
        <time>2018-12-02T14:05:10.000Z</time>
      </trkpt>
      <trkpt lat="42.92093" lon="0.84795">
        <ele>1259</ele>
        <time>2018-12-02T14:05:12.000Z</time>
      </trkpt>
      <trkpt lat="42.9209" lon="0.84796">
        <ele>1259</ele>
        <time>2018-12-02T14:05:14.000Z</time>
      </trkpt>
      <trkpt lat="42.92088" lon="0.84798">
        <ele>1259</ele>
        <time>2018-12-02T14:05:16.000Z</time>
      </trkpt>
      <trkpt lat="42.92085" lon="0.848">
        <ele>1260</ele>
        <time>2018-12-02T14:05:18.000Z</time>
      </trkpt>
      <trkpt lat="42.92084" lon="0.848">
        <ele>1260</ele>
        <time>2018-12-02T14:05:20.000Z</time>
      </trkpt>
      <trkpt lat="42.92083" lon="0.84801">
        <ele>1260</ele>
        <time>2018-12-02T14:05:22.000Z</time>
      </trkpt>
      <trkpt lat="42.92083" lon="0.84802">
        <ele>1259</ele>
        <time>2018-12-02T14:05:24.000Z</time>
      </trkpt>
      <trkpt lat="42.92083" lon="0.84803">
        <ele>1259</ele>
        <time>2018-12-02T14:05:26.000Z</time>
      </trkpt>
      <trkpt lat="42.9208" lon="0.84803">
        <ele>1260</ele>
        <time>2018-12-02T14:05:28.000Z</time>
      </trkpt>
      <trkpt lat="42.92078" lon="0.84803">
        <ele>1260</ele>
        <time>2018-12-02T14:05:30.000Z</time>
      </trkpt>
      <trkpt lat="42.92076" lon="0.84804">
        <ele>1260</ele>
        <time>2018-12-02T14:05:32.000Z</time>
      </trkpt>
      <trkpt lat="42.92075" lon="0.84804">
        <ele>1260</ele>
        <time>2018-12-02T14:05:34.000Z</time>
      </trkpt>
      <trkpt lat="42.92074" lon="0.84804">
        <ele>1260</ele>
        <time>2018-12-02T14:05:36.000Z</time>
      </trkpt>
      <trkpt lat="42.92073" lon="0.84804">
        <ele>1260</ele>
        <time>2018-12-02T14:05:38.000Z</time>
      </trkpt>
      <trkpt lat="42.92073" lon="0.84804">
        <ele>1261</ele>
        <time>2018-12-02T14:05:40.000Z</time>
      </trkpt>
      <trkpt lat="42.92074" lon="0.84803">
        <ele>1260</ele>
        <time>2018-12-02T14:05:42.000Z</time>
      </trkpt>
      <trkpt lat="42.92075" lon="0.84803">
        <ele>1260</ele>
        <time>2018-12-02T14:05:44.000Z</time>
      </trkpt>
      <trkpt lat="42.92079" lon="0.84801">
        <ele>1260</ele>
        <time>2018-12-02T14:05:46.000Z</time>
      </trkpt>
      <trkpt lat="42.92084" lon="0.84798">
        <ele>1260</ele>
        <time>2018-12-02T14:05:48.000Z</time>
      </trkpt>
      <trkpt lat="42.9209" lon="0.84795">
        <ele>1259</ele>
        <time>2018-12-02T14:05:50.000Z</time>
      </trkpt>
      <trkpt lat="42.9209" lon="0.84795">
        <ele>1259</ele>
        <time>2018-12-02T14:05:52.000Z</time>
      </trkpt>
      <trkpt lat="42.92093" lon="0.84794">
        <ele>1259</ele>
        <time>2018-12-02T14:05:54.000Z</time>
      </trkpt>
      <trkpt lat="42.92092" lon="0.84795">
        <ele>1259</ele>
        <time>2018-12-02T14:05:56.000Z</time>
      </trkpt>
      <trkpt lat="42.9209" lon="0.84797">
        <ele>1259</ele>
        <time>2018-12-02T14:05:58.000Z</time>
      </trkpt>
      <trkpt lat="42.9209" lon="0.84797">
        <ele>1259</ele>
        <time>2018-12-02T14:06:00.000Z</time>
      </trkpt>
      <trkpt lat="42.92091" lon="0.84797">
        <ele>1259</ele>
        <time>2018-12-02T14:06:02.000Z</time>
      </trkpt>
      <trkpt lat="42.9209" lon="0.84798">
        <ele>1259</ele>
        <time>2018-12-02T14:06:04.000Z</time>
      </trkpt>
      <trkpt lat="42.92091" lon="0.84797">
        <ele>1259</ele>
        <time>2018-12-02T14:06:06.000Z</time>
      </trkpt>
      <trkpt lat="42.92093" lon="0.84797">
        <ele>1259</ele>
        <time>2018-12-02T14:06:08.000Z</time>
      </trkpt>
      <trkpt lat="42.92093" lon="0.84797">
        <ele>1259</ele>
        <time>2018-12-02T14:06:10.000Z</time>
      </trkpt>
      <trkpt lat="42.92094" lon="0.84797">
        <ele>1259</ele>
        <time>2018-12-02T14:06:12.000Z</time>
      </trkpt>
      <trkpt lat="42.92094" lon="0.84798">
        <ele>1259</ele>
        <time>2018-12-02T14:06:14.000Z</time>
      </trkpt>
      <trkpt lat="42.92095" lon="0.84797">
        <ele>1259</ele>
        <time>2018-12-02T14:06:16.000Z</time>
      </trkpt>
      <trkpt lat="42.92094" lon="0.84798">
        <ele>1259</ele>
        <time>2018-12-02T14:06:18.000Z</time>
      </trkpt>
      <trkpt lat="42.92094" lon="0.84799">
        <ele>1259</ele>
        <time>2018-12-02T14:06:20.000Z</time>
      </trkpt>
      <trkpt lat="42.92096" lon="0.84799">
        <ele>1259</ele>
        <time>2018-12-02T14:06:22.000Z</time>
      </trkpt>
      <trkpt lat="42.92098" lon="0.84798">
        <ele>1259</ele>
        <time>2018-12-02T14:06:24.000Z</time>
      </trkpt>
      <trkpt lat="42.92098" lon="0.84799">
        <ele>1259</ele>
        <time>2018-12-02T14:06:26.000Z</time>
      </trkpt>
      <trkpt lat="42.92098" lon="0.848">
        <ele>1259</ele>
        <time>2018-12-02T14:06:28.000Z</time>
      </trkpt>
      <trkpt lat="42.92096" lon="0.84803">
        <ele>1259</ele>
        <time>2018-12-02T14:06:30.000Z</time>
      </trkpt>
      <trkpt lat="42.92096" lon="0.84803">
        <ele>1259</ele>
        <time>2018-12-02T14:06:32.000Z</time>
      </trkpt>
      <trkpt lat="42.92094" lon="0.84805">
        <ele>1258</ele>
        <time>2018-12-02T14:06:34.000Z</time>
      </trkpt>
      <trkpt lat="42.92095" lon="0.84806">
        <ele>1258</ele>
        <time>2018-12-02T14:06:36.000Z</time>
      </trkpt>
      <trkpt lat="42.92095" lon="0.84806">
        <ele>1258</ele>
        <time>2018-12-02T14:06:38.000Z</time>
      </trkpt>
      <trkpt lat="42.92095" lon="0.84806">
        <ele>1258</ele>
        <time>2018-12-02T14:06:40.000Z</time>
      </trkpt>
      <trkpt lat="42.92096" lon="0.84805">
        <ele>1259</ele>
        <time>2018-12-02T14:06:42.000Z</time>
      </trkpt>
      <trkpt lat="42.92097" lon="0.84805">
        <ele>1259</ele>
        <time>2018-12-02T14:06:44.000Z</time>
      </trkpt>
      <trkpt lat="42.921" lon="0.84805">
        <ele>1259</ele>
        <time>2018-12-02T14:06:46.000Z</time>
      </trkpt>
      <trkpt lat="42.92102" lon="0.84805">
        <ele>1259</ele>
        <time>2018-12-02T14:06:48.000Z</time>
      </trkpt>
      <trkpt lat="42.92104" lon="0.84806">
        <ele>1259</ele>
        <time>2018-12-02T14:06:50.000Z</time>
      </trkpt>
      <trkpt lat="42.92107" lon="0.84805">
        <ele>1259</ele>
        <time>2018-12-02T14:06:52.000Z</time>
      </trkpt>
      <trkpt lat="42.9211" lon="0.84807">
        <ele>1260</ele>
        <time>2018-12-02T14:06:54.000Z</time>
      </trkpt>
      <trkpt lat="42.92112" lon="0.84807">
        <ele>1260</ele>
        <time>2018-12-02T14:06:56.000Z</time>
      </trkpt>
      <trkpt lat="42.92114" lon="0.84807">
        <ele>1260</ele>
        <time>2018-12-02T14:06:58.000Z</time>
      </trkpt>
      <trkpt lat="42.92117" lon="0.84807">
        <ele>1260</ele>
        <time>2018-12-02T14:07:00.000Z</time>
      </trkpt>
      <trkpt lat="42.92118" lon="0.84808">
        <ele>1260</ele>
        <time>2018-12-02T14:07:02.000Z</time>
      </trkpt>
      <trkpt lat="42.92121" lon="0.84807">
        <ele>1260</ele>
        <time>2018-12-02T14:07:04.000Z</time>
      </trkpt>
      <trkpt lat="42.92122" lon="0.84809">
        <ele>1260</ele>
        <time>2018-12-02T14:07:06.000Z</time>
      </trkpt>
      <trkpt lat="42.92122" lon="0.84812">
        <ele>1260</ele>
        <time>2018-12-02T14:07:08.000Z</time>
      </trkpt>
      <trkpt lat="42.92122" lon="0.84814">
        <ele>1260</ele>
        <time>2018-12-02T14:07:10.000Z</time>
      </trkpt>
      <trkpt lat="42.92122" lon="0.84816">
        <ele>1259</ele>
        <time>2018-12-02T14:07:12.000Z</time>
      </trkpt>
      <trkpt lat="42.92122" lon="0.84818">
        <ele>1259</ele>
        <time>2018-12-02T14:07:14.000Z</time>
      </trkpt>
      <trkpt lat="42.92121" lon="0.8482">
        <ele>1259</ele>
        <time>2018-12-02T14:07:16.000Z</time>
      </trkpt>
      <trkpt lat="42.9212" lon="0.84822">
        <ele>1259</ele>
        <time>2018-12-02T14:07:18.000Z</time>
      </trkpt>
      <trkpt lat="42.92121" lon="0.84824">
        <ele>1258</ele>
        <time>2018-12-02T14:07:20.000Z</time>
      </trkpt>
      <trkpt lat="42.92121" lon="0.84825">
        <ele>1258</ele>
        <time>2018-12-02T14:07:22.000Z</time>
      </trkpt>
      <trkpt lat="42.92121" lon="0.84827">
        <ele>1258</ele>
        <time>2018-12-02T14:07:24.000Z</time>
      </trkpt>
      <trkpt lat="42.92121" lon="0.84829">
        <ele>1258</ele>
        <time>2018-12-02T14:07:26.000Z</time>
      </trkpt>
      <trkpt lat="42.92121" lon="0.84831">
        <ele>1258</ele>
        <time>2018-12-02T14:07:28.000Z</time>
      </trkpt>
      <trkpt lat="42.92121" lon="0.84832">
        <ele>1257</ele>
        <time>2018-12-02T14:07:30.000Z</time>
      </trkpt>
      <trkpt lat="42.9212" lon="0.84835">
        <ele>1257</ele>
        <time>2018-12-02T14:07:32.000Z</time>
      </trkpt>
      <trkpt lat="42.9212" lon="0.84836">
        <ele>1257</ele>
        <time>2018-12-02T14:07:34.000Z</time>
      </trkpt>
      <trkpt lat="42.9212" lon="0.84837">
        <ele>1257</ele>
        <time>2018-12-02T14:07:36.000Z</time>
      </trkpt>
      <trkpt lat="42.9212" lon="0.84838">
        <ele>1256</ele>
        <time>2018-12-02T14:07:38.000Z</time>
      </trkpt>
      <trkpt lat="42.92119" lon="0.8484">
        <ele>1256</ele>
        <time>2018-12-02T14:07:40.000Z</time>
      </trkpt>
      <trkpt lat="42.92119" lon="0.84842">
        <ele>1255</ele>
        <time>2018-12-02T14:07:42.000Z</time>
      </trkpt>
      <trkpt lat="42.92118" lon="0.84843">
        <ele>1255</ele>
        <time>2018-12-02T14:07:44.000Z</time>
      </trkpt>
      <trkpt lat="42.92118" lon="0.84845">
        <ele>1254</ele>
        <time>2018-12-02T14:07:46.000Z</time>
      </trkpt>
      <trkpt lat="42.92117" lon="0.84846">
        <ele>1254</ele>
        <time>2018-12-02T14:07:48.000Z</time>
      </trkpt>
      <trkpt lat="42.92118" lon="0.84848">
        <ele>1254</ele>
        <time>2018-12-02T14:07:50.000Z</time>
      </trkpt>
      <trkpt lat="42.92119" lon="0.8485">
        <ele>1253</ele>
        <time>2018-12-02T14:07:52.000Z</time>
      </trkpt>
      <trkpt lat="42.92118" lon="0.84851">
        <ele>1253</ele>
        <time>2018-12-02T14:07:54.000Z</time>
      </trkpt>
      <trkpt lat="42.92119" lon="0.84853">
        <ele>1253</ele>
        <time>2018-12-02T14:07:56.000Z</time>
      </trkpt>
      <trkpt lat="42.92119" lon="0.84854">
        <ele>1252</ele>
        <time>2018-12-02T14:07:58.000Z</time>
      </trkpt>
      <trkpt lat="42.9212" lon="0.84856">
        <ele>1252</ele>
        <time>2018-12-02T14:08:00.000Z</time>
      </trkpt>
      <trkpt lat="42.9212" lon="0.84857">
        <ele>1252</ele>
        <time>2018-12-02T14:08:02.000Z</time>
      </trkpt>
      <trkpt lat="42.92121" lon="0.84859">
        <ele>1252</ele>
        <time>2018-12-02T14:08:04.000Z</time>
      </trkpt>
      <trkpt lat="42.92121" lon="0.84861">
        <ele>1251</ele>
        <time>2018-12-02T14:08:06.000Z</time>
      </trkpt>
      <trkpt lat="42.92122" lon="0.84863">
        <ele>1251</ele>
        <time>2018-12-02T14:08:08.000Z</time>
      </trkpt>
      <trkpt lat="42.92123" lon="0.84865">
        <ele>1251</ele>
        <time>2018-12-02T14:08:10.000Z</time>
      </trkpt>
      <trkpt lat="42.92123" lon="0.84869">
        <ele>1250</ele>
        <time>2018-12-02T14:08:12.000Z</time>
      </trkpt>
      <trkpt lat="42.92121" lon="0.84871">
        <ele>1249</ele>
        <time>2018-12-02T14:08:14.000Z</time>
      </trkpt>
      <trkpt lat="42.92122" lon="0.84873">
        <ele>1249</ele>
        <time>2018-12-02T14:08:16.000Z</time>
      </trkpt>
      <trkpt lat="42.92122" lon="0.84875">
        <ele>1248</ele>
        <time>2018-12-02T14:08:18.000Z</time>
      </trkpt>
      <trkpt lat="42.92123" lon="0.84876">
        <ele>1248</ele>
        <time>2018-12-02T14:08:20.000Z</time>
      </trkpt>
      <trkpt lat="42.92124" lon="0.84877">
        <ele>1248</ele>
        <time>2018-12-02T14:08:22.000Z</time>
      </trkpt>
      <trkpt lat="42.92125" lon="0.84879">
        <ele>1248</ele>
        <time>2018-12-02T14:08:24.000Z</time>
      </trkpt>
      <trkpt lat="42.92125" lon="0.8488">
        <ele>1248</ele>
        <time>2018-12-02T14:08:26.000Z</time>
      </trkpt>
      <trkpt lat="42.92126" lon="0.84882">
        <ele>1248</ele>
        <time>2018-12-02T14:08:28.000Z</time>
      </trkpt>
      <trkpt lat="42.92127" lon="0.84884">
        <ele>1247</ele>
        <time>2018-12-02T14:08:30.000Z</time>
      </trkpt>
      <trkpt lat="42.92128" lon="0.84886">
        <ele>1247</ele>
        <time>2018-12-02T14:08:32.000Z</time>
      </trkpt>
      <trkpt lat="42.92129" lon="0.84889">
        <ele>1247</ele>
        <time>2018-12-02T14:08:34.000Z</time>
      </trkpt>
      <trkpt lat="42.92129" lon="0.84891">
        <ele>1246</ele>
        <time>2018-12-02T14:08:36.000Z</time>
      </trkpt>
      <trkpt lat="42.92129" lon="0.84894">
        <ele>1246</ele>
        <time>2018-12-02T14:08:38.000Z</time>
      </trkpt>
      <trkpt lat="42.92128" lon="0.84896">
        <ele>1245</ele>
        <time>2018-12-02T14:08:40.000Z</time>
      </trkpt>
      <trkpt lat="42.92127" lon="0.84898">
        <ele>1245</ele>
        <time>2018-12-02T14:08:42.000Z</time>
      </trkpt>
      <trkpt lat="42.92126" lon="0.849">
        <ele>1245</ele>
        <time>2018-12-02T14:08:44.000Z</time>
      </trkpt>
      <trkpt lat="42.92126" lon="0.84902">
        <ele>1244</ele>
        <time>2018-12-02T14:08:46.000Z</time>
      </trkpt>
      <trkpt lat="42.92127" lon="0.84904">
        <ele>1244</ele>
        <time>2018-12-02T14:08:48.000Z</time>
      </trkpt>
      <trkpt lat="42.92127" lon="0.84906">
        <ele>1244</ele>
        <time>2018-12-02T14:08:50.000Z</time>
      </trkpt>
      <trkpt lat="42.92127" lon="0.84909">
        <ele>1244</ele>
        <time>2018-12-02T14:08:52.000Z</time>
      </trkpt>
      <trkpt lat="42.92128" lon="0.84911">
        <ele>1244</ele>
        <time>2018-12-02T14:08:54.000Z</time>
      </trkpt>
      <trkpt lat="42.92128" lon="0.84913">
        <ele>1243</ele>
        <time>2018-12-02T14:08:56.000Z</time>
      </trkpt>
      <trkpt lat="42.92126" lon="0.84914">
        <ele>1243</ele>
        <time>2018-12-02T14:08:58.000Z</time>
      </trkpt>
      <trkpt lat="42.92125" lon="0.84916">
        <ele>1242</ele>
        <time>2018-12-02T14:09:00.000Z</time>
      </trkpt>
      <trkpt lat="42.92123" lon="0.84917">
        <ele>1242</ele>
        <time>2018-12-02T14:09:02.000Z</time>
      </trkpt>
      <trkpt lat="42.92121" lon="0.84917">
        <ele>1241</ele>
        <time>2018-12-02T14:09:04.000Z</time>
      </trkpt>
      <trkpt lat="42.92121" lon="0.8492">
        <ele>1241</ele>
        <time>2018-12-02T14:09:06.000Z</time>
      </trkpt>
      <trkpt lat="42.9212" lon="0.84921">
        <ele>1240</ele>
        <time>2018-12-02T14:09:08.000Z</time>
      </trkpt>
      <trkpt lat="42.92121" lon="0.84923">
        <ele>1240</ele>
        <time>2018-12-02T14:09:10.000Z</time>
      </trkpt>
      <trkpt lat="42.92121" lon="0.84925">
        <ele>1240</ele>
        <time>2018-12-02T14:09:12.000Z</time>
      </trkpt>
      <trkpt lat="42.92122" lon="0.84927">
        <ele>1239</ele>
        <time>2018-12-02T14:09:14.000Z</time>
      </trkpt>
      <trkpt lat="42.92123" lon="0.84929">
        <ele>1239</ele>
        <time>2018-12-02T14:09:16.000Z</time>
      </trkpt>
      <trkpt lat="42.92123" lon="0.84931">
        <ele>1239</ele>
        <time>2018-12-02T14:09:18.000Z</time>
      </trkpt>
      <trkpt lat="42.92123" lon="0.84933">
        <ele>1238</ele>
        <time>2018-12-02T14:09:20.000Z</time>
      </trkpt>
      <trkpt lat="42.92123" lon="0.84934">
        <ele>1238</ele>
        <time>2018-12-02T14:09:22.000Z</time>
      </trkpt>
      <trkpt lat="42.92124" lon="0.84936">
        <ele>1237</ele>
        <time>2018-12-02T14:09:24.000Z</time>
      </trkpt>
      <trkpt lat="42.92124" lon="0.84938">
        <ele>1237</ele>
        <time>2018-12-02T14:09:26.000Z</time>
      </trkpt>
      <trkpt lat="42.92124" lon="0.84939">
        <ele>1237</ele>
        <time>2018-12-02T14:09:28.000Z</time>
      </trkpt>
      <trkpt lat="42.92124" lon="0.8494">
        <ele>1237</ele>
        <time>2018-12-02T14:09:30.000Z</time>
      </trkpt>
      <trkpt lat="42.92125" lon="0.8494">
        <ele>1237</ele>
        <time>2018-12-02T14:09:32.000Z</time>
      </trkpt>
      <trkpt lat="42.92125" lon="0.84942">
        <ele>1236</ele>
        <time>2018-12-02T14:09:34.000Z</time>
      </trkpt>
      <trkpt lat="42.92125" lon="0.84944">
        <ele>1236</ele>
        <time>2018-12-02T14:09:36.000Z</time>
      </trkpt>
      <trkpt lat="42.92125" lon="0.84945">
        <ele>1235</ele>
        <time>2018-12-02T14:09:38.000Z</time>
      </trkpt>
      <trkpt lat="42.92125" lon="0.84946">
        <ele>1235</ele>
        <time>2018-12-02T14:09:40.000Z</time>
      </trkpt>
      <trkpt lat="42.92125" lon="0.84947">
        <ele>1235</ele>
        <time>2018-12-02T14:09:42.000Z</time>
      </trkpt>
      <trkpt lat="42.92124" lon="0.84948">
        <ele>1234</ele>
        <time>2018-12-02T14:09:44.000Z</time>
      </trkpt>
      <trkpt lat="42.92124" lon="0.8495">
        <ele>1234</ele>
        <time>2018-12-02T14:09:46.000Z</time>
      </trkpt>
      <trkpt lat="42.92124" lon="0.84951">
        <ele>1233</ele>
        <time>2018-12-02T14:09:48.000Z</time>
      </trkpt>
      <trkpt lat="42.92124" lon="0.84953">
        <ele>1233</ele>
        <time>2018-12-02T14:09:50.000Z</time>
      </trkpt>
      <trkpt lat="42.92124" lon="0.84954">
        <ele>1232</ele>
        <time>2018-12-02T14:09:52.000Z</time>
      </trkpt>
      <trkpt lat="42.92125" lon="0.84957">
        <ele>1232</ele>
        <time>2018-12-02T14:09:54.000Z</time>
      </trkpt>
      <trkpt lat="42.92126" lon="0.84958">
        <ele>1232</ele>
        <time>2018-12-02T14:09:56.000Z</time>
      </trkpt>
      <trkpt lat="42.92126" lon="0.84959">
        <ele>1232</ele>
        <time>2018-12-02T14:09:58.000Z</time>
      </trkpt>
      <trkpt lat="42.92126" lon="0.8496">
        <ele>1231</ele>
        <time>2018-12-02T14:10:00.000Z</time>
      </trkpt>
      <trkpt lat="42.92126" lon="0.84963">
        <ele>1231</ele>
        <time>2018-12-02T14:10:02.000Z</time>
      </trkpt>
      <trkpt lat="42.92126" lon="0.84965">
        <ele>1230</ele>
        <time>2018-12-02T14:10:04.000Z</time>
      </trkpt>
      <trkpt lat="42.92126" lon="0.84966">
        <ele>1230</ele>
        <time>2018-12-02T14:10:06.000Z</time>
      </trkpt>
      <trkpt lat="42.92125" lon="0.84967">
        <ele>1229</ele>
        <time>2018-12-02T14:10:08.000Z</time>
      </trkpt>
      <trkpt lat="42.92124" lon="0.84968">
        <ele>1229</ele>
        <time>2018-12-02T14:10:10.000Z</time>
      </trkpt>
      <trkpt lat="42.92125" lon="0.84968">
        <ele>1229</ele>
        <time>2018-12-02T14:10:12.000Z</time>
      </trkpt>
      <trkpt lat="42.92124" lon="0.84968">
        <ele>1228</ele>
        <time>2018-12-02T14:10:14.000Z</time>
      </trkpt>
      <trkpt lat="42.92124" lon="0.84969">
        <ele>1228</ele>
        <time>2018-12-02T14:10:16.000Z</time>
      </trkpt>
      <trkpt lat="42.92124" lon="0.84969">
        <ele>1228</ele>
        <time>2018-12-02T14:10:18.000Z</time>
      </trkpt>
      <trkpt lat="42.92124" lon="0.8497">
        <ele>1228</ele>
        <time>2018-12-02T14:10:20.000Z</time>
      </trkpt>
      <trkpt lat="42.92124" lon="0.8497">
        <ele>1228</ele>
        <time>2018-12-02T14:10:22.000Z</time>
      </trkpt>
      <trkpt lat="42.92124" lon="0.84971">
        <ele>1228</ele>
        <time>2018-12-02T14:10:24.000Z</time>
      </trkpt>
      <trkpt lat="42.92124" lon="0.84972">
        <ele>1227</ele>
        <time>2018-12-02T14:10:26.000Z</time>
      </trkpt>
      <trkpt lat="42.92123" lon="0.84973">
        <ele>1227</ele>
        <time>2018-12-02T14:10:28.000Z</time>
      </trkpt>
      <trkpt lat="42.92122" lon="0.84974">
        <ele>1226</ele>
        <time>2018-12-02T14:10:30.000Z</time>
      </trkpt>
      <trkpt lat="42.92121" lon="0.84975">
        <ele>1226</ele>
        <time>2018-12-02T14:10:32.000Z</time>
      </trkpt>
      <trkpt lat="42.92119" lon="0.84975">
        <ele>1225</ele>
        <time>2018-12-02T14:10:34.000Z</time>
      </trkpt>
      <trkpt lat="42.92118" lon="0.84975">
        <ele>1225</ele>
        <time>2018-12-02T14:10:36.000Z</time>
      </trkpt>
      <trkpt lat="42.92117" lon="0.84976">
        <ele>1224</ele>
        <time>2018-12-02T14:10:38.000Z</time>
      </trkpt>
      <trkpt lat="42.92116" lon="0.84979">
        <ele>1224</ele>
        <time>2018-12-02T14:10:40.000Z</time>
      </trkpt>
      <trkpt lat="42.92116" lon="0.84981">
        <ele>1223</ele>
        <time>2018-12-02T14:10:42.000Z</time>
      </trkpt>
      <trkpt lat="42.92115" lon="0.84982">
        <ele>1223</ele>
        <time>2018-12-02T14:10:44.000Z</time>
      </trkpt>
      <trkpt lat="42.92114" lon="0.84983">
        <ele>1222</ele>
        <time>2018-12-02T14:10:46.000Z</time>
      </trkpt>
      <trkpt lat="42.92114" lon="0.84985">
        <ele>1222</ele>
        <time>2018-12-02T14:10:48.000Z</time>
      </trkpt>
      <trkpt lat="42.92113" lon="0.84986">
        <ele>1222</ele>
        <time>2018-12-02T14:10:50.000Z</time>
      </trkpt>
      <trkpt lat="42.92114" lon="0.84987">
        <ele>1222</ele>
        <time>2018-12-02T14:10:52.000Z</time>
      </trkpt>
      <trkpt lat="42.92115" lon="0.84989">
        <ele>1222</ele>
        <time>2018-12-02T14:10:54.000Z</time>
      </trkpt>
      <trkpt lat="42.92116" lon="0.84991">
        <ele>1222</ele>
        <time>2018-12-02T14:10:56.000Z</time>
      </trkpt>
      <trkpt lat="42.92116" lon="0.84991">
        <ele>1222</ele>
        <time>2018-12-02T14:10:58.000Z</time>
      </trkpt>
      <trkpt lat="42.92116" lon="0.84992">
        <ele>1222</ele>
        <time>2018-12-02T14:11:00.000Z</time>
      </trkpt>
      <trkpt lat="42.92116" lon="0.84992">
        <ele>1222</ele>
        <time>2018-12-02T14:11:02.000Z</time>
      </trkpt>
      <trkpt lat="42.92116" lon="0.84993">
        <ele>1222</ele>
        <time>2018-12-02T14:11:04.000Z</time>
      </trkpt>
      <trkpt lat="42.92116" lon="0.84995">
        <ele>1222</ele>
        <time>2018-12-02T14:11:06.000Z</time>
      </trkpt>
      <trkpt lat="42.92115" lon="0.84998">
        <ele>1221</ele>
        <time>2018-12-02T14:11:08.000Z</time>
      </trkpt>
      <trkpt lat="42.92116" lon="0.84999">
        <ele>1221</ele>
        <time>2018-12-02T14:11:10.000Z</time>
      </trkpt>
      <trkpt lat="42.92116" lon="0.85002">
        <ele>1220</ele>
        <time>2018-12-02T14:11:12.000Z</time>
      </trkpt>
      <trkpt lat="42.92116" lon="0.85003">
        <ele>1220</ele>
        <time>2018-12-02T14:11:14.000Z</time>
      </trkpt>
      <trkpt lat="42.92115" lon="0.85005">
        <ele>1220</ele>
        <time>2018-12-02T14:11:16.000Z</time>
      </trkpt>
      <trkpt lat="42.92115" lon="0.85007">
        <ele>1219</ele>
        <time>2018-12-02T14:11:18.000Z</time>
      </trkpt>
      <trkpt lat="42.92115" lon="0.85009">
        <ele>1219</ele>
        <time>2018-12-02T14:11:20.000Z</time>
      </trkpt>
      <trkpt lat="42.92115" lon="0.8501">
        <ele>1219</ele>
        <time>2018-12-02T14:11:22.000Z</time>
      </trkpt>
      <trkpt lat="42.92114" lon="0.85011">
        <ele>1218</ele>
        <time>2018-12-02T14:11:24.000Z</time>
      </trkpt>
      <trkpt lat="42.92114" lon="0.85012">
        <ele>1218</ele>
        <time>2018-12-02T14:11:26.000Z</time>
      </trkpt>
      <trkpt lat="42.92113" lon="0.85015">
        <ele>1217</ele>
        <time>2018-12-02T14:11:28.000Z</time>
      </trkpt>
      <trkpt lat="42.92111" lon="0.85018">
        <ele>1216</ele>
        <time>2018-12-02T14:11:30.000Z</time>
      </trkpt>
      <trkpt lat="42.92111" lon="0.8502">
        <ele>1215</ele>
        <time>2018-12-02T14:11:32.000Z</time>
      </trkpt>
      <trkpt lat="42.92111" lon="0.85022">
        <ele>1215</ele>
        <time>2018-12-02T14:11:34.000Z</time>
      </trkpt>
      <trkpt lat="42.92111" lon="0.85024">
        <ele>1215</ele>
        <time>2018-12-02T14:11:36.000Z</time>
      </trkpt>
      <trkpt lat="42.9211" lon="0.85025">
        <ele>1214</ele>
        <time>2018-12-02T14:11:38.000Z</time>
      </trkpt>
      <trkpt lat="42.92109" lon="0.85027">
        <ele>1214</ele>
        <time>2018-12-02T14:11:40.000Z</time>
      </trkpt>
      <trkpt lat="42.92109" lon="0.8503">
        <ele>1213</ele>
        <time>2018-12-02T14:11:42.000Z</time>
      </trkpt>
      <trkpt lat="42.92108" lon="0.85033">
        <ele>1212</ele>
        <time>2018-12-02T14:11:44.000Z</time>
      </trkpt>
      <trkpt lat="42.92107" lon="0.85035">
        <ele>1211</ele>
        <time>2018-12-02T14:11:46.000Z</time>
      </trkpt>
      <trkpt lat="42.92106" lon="0.85037">
        <ele>1211</ele>
        <time>2018-12-02T14:11:48.000Z</time>
      </trkpt>
      <trkpt lat="42.92105" lon="0.85039">
        <ele>1210</ele>
        <time>2018-12-02T14:11:50.000Z</time>
      </trkpt>
      <trkpt lat="42.92105" lon="0.85041">
        <ele>1209</ele>
        <time>2018-12-02T14:11:52.000Z</time>
      </trkpt>
      <trkpt lat="42.92104" lon="0.85043">
        <ele>1209</ele>
        <time>2018-12-02T14:11:54.000Z</time>
      </trkpt>
      <trkpt lat="42.92104" lon="0.85044">
        <ele>1209</ele>
        <time>2018-12-02T14:11:56.000Z</time>
      </trkpt>
      <trkpt lat="42.92105" lon="0.85045">
        <ele>1209</ele>
        <time>2018-12-02T14:11:58.000Z</time>
      </trkpt>
      <trkpt lat="42.92105" lon="0.85047">
        <ele>1208</ele>
        <time>2018-12-02T14:12:00.000Z</time>
      </trkpt>
      <trkpt lat="42.92105" lon="0.85049">
        <ele>1208</ele>
        <time>2018-12-02T14:12:02.000Z</time>
      </trkpt>
      <trkpt lat="42.92105" lon="0.8505">
        <ele>1208</ele>
        <time>2018-12-02T14:12:04.000Z</time>
      </trkpt>
      <trkpt lat="42.92104" lon="0.85051">
        <ele>1208</ele>
        <time>2018-12-02T14:12:06.000Z</time>
      </trkpt>
      <trkpt lat="42.92103" lon="0.85053">
        <ele>1207</ele>
        <time>2018-12-02T14:12:08.000Z</time>
      </trkpt>
      <trkpt lat="42.92103" lon="0.85056">
        <ele>1206</ele>
        <time>2018-12-02T14:12:10.000Z</time>
      </trkpt>
      <trkpt lat="42.92103" lon="0.85059">
        <ele>1206</ele>
        <time>2018-12-02T14:12:12.000Z</time>
      </trkpt>
      <trkpt lat="42.92102" lon="0.85062">
        <ele>1205</ele>
        <time>2018-12-02T14:12:14.000Z</time>
      </trkpt>
      <trkpt lat="42.92102" lon="0.85065">
        <ele>1205</ele>
        <time>2018-12-02T14:12:16.000Z</time>
      </trkpt>
      <trkpt lat="42.92102" lon="0.85067">
        <ele>1204</ele>
        <time>2018-12-02T14:12:18.000Z</time>
      </trkpt>
      <trkpt lat="42.921" lon="0.85069">
        <ele>1203</ele>
        <time>2018-12-02T14:12:20.000Z</time>
      </trkpt>
      <trkpt lat="42.92099" lon="0.8507">
        <ele>1202</ele>
        <time>2018-12-02T14:12:22.000Z</time>
      </trkpt>
      <trkpt lat="42.92097" lon="0.85071">
        <ele>1201</ele>
        <time>2018-12-02T14:12:24.000Z</time>
      </trkpt>
      <trkpt lat="42.92097" lon="0.85071">
        <ele>1201</ele>
        <time>2018-12-02T14:12:26.000Z</time>
      </trkpt>
      <trkpt lat="42.92096" lon="0.8507">
        <ele>1201</ele>
        <time>2018-12-02T14:12:28.000Z</time>
      </trkpt>
      <trkpt lat="42.92096" lon="0.85071">
        <ele>1200</ele>
        <time>2018-12-02T14:12:30.000Z</time>
      </trkpt>
      <trkpt lat="42.92095" lon="0.85071">
        <ele>1200</ele>
        <time>2018-12-02T14:12:32.000Z</time>
      </trkpt>
      <trkpt lat="42.92094" lon="0.85073">
        <ele>1199</ele>
        <time>2018-12-02T14:12:34.000Z</time>
      </trkpt>
      <trkpt lat="42.92093" lon="0.85075">
        <ele>1198</ele>
        <time>2018-12-02T14:12:36.000Z</time>
      </trkpt>
      <trkpt lat="42.92092" lon="0.85077">
        <ele>1197</ele>
        <time>2018-12-02T14:12:38.000Z</time>
      </trkpt>
      <trkpt lat="42.92092" lon="0.85079">
        <ele>1196</ele>
        <time>2018-12-02T14:12:40.000Z</time>
      </trkpt>
      <trkpt lat="42.92091" lon="0.8508">
        <ele>1196</ele>
        <time>2018-12-02T14:12:42.000Z</time>
      </trkpt>
      <trkpt lat="42.9209" lon="0.85082">
        <ele>1195</ele>
        <time>2018-12-02T14:12:44.000Z</time>
      </trkpt>
      <trkpt lat="42.92089" lon="0.85084">
        <ele>1194</ele>
        <time>2018-12-02T14:12:46.000Z</time>
      </trkpt>
      <trkpt lat="42.92088" lon="0.85086">
        <ele>1193</ele>
        <time>2018-12-02T14:12:48.000Z</time>
      </trkpt>
      <trkpt lat="42.92087" lon="0.85088">
        <ele>1193</ele>
        <time>2018-12-02T14:12:50.000Z</time>
      </trkpt>
      <trkpt lat="42.92086" lon="0.85089">
        <ele>1192</ele>
        <time>2018-12-02T14:12:52.000Z</time>
      </trkpt>
      <trkpt lat="42.92085" lon="0.8509">
        <ele>1191</ele>
        <time>2018-12-02T14:12:54.000Z</time>
      </trkpt>
      <trkpt lat="42.92084" lon="0.85091">
        <ele>1191</ele>
        <time>2018-12-02T14:12:56.000Z</time>
      </trkpt>
      <trkpt lat="42.92084" lon="0.85092">
        <ele>1190</ele>
        <time>2018-12-02T14:12:58.000Z</time>
      </trkpt>
      <trkpt lat="42.92084" lon="0.85092">
        <ele>1190</ele>
        <time>2018-12-02T14:13:00.000Z</time>
      </trkpt>
      <trkpt lat="42.92084" lon="0.85093">
        <ele>1190</ele>
        <time>2018-12-02T14:13:02.000Z</time>
      </trkpt>
      <trkpt lat="42.92083" lon="0.85094">
        <ele>1190</ele>
        <time>2018-12-02T14:13:04.000Z</time>
      </trkpt>
      <trkpt lat="42.92083" lon="0.85096">
        <ele>1189</ele>
        <time>2018-12-02T14:13:06.000Z</time>
      </trkpt>
      <trkpt lat="42.92083" lon="0.85098">
        <ele>1188</ele>
        <time>2018-12-02T14:13:08.000Z</time>
      </trkpt>
      <trkpt lat="42.92082" lon="0.85099">
        <ele>1188</ele>
        <time>2018-12-02T14:13:10.000Z</time>
      </trkpt>
      <trkpt lat="42.92081" lon="0.85101">
        <ele>1187</ele>
        <time>2018-12-02T14:13:12.000Z</time>
      </trkpt>
      <trkpt lat="42.92081" lon="0.85103">
        <ele>1187</ele>
        <time>2018-12-02T14:13:14.000Z</time>
      </trkpt>
      <trkpt lat="42.9208" lon="0.85104">
        <ele>1186</ele>
        <time>2018-12-02T14:13:16.000Z</time>
      </trkpt>
      <trkpt lat="42.92079" lon="0.85106">
        <ele>1185</ele>
        <time>2018-12-02T14:13:18.000Z</time>
      </trkpt>
      <trkpt lat="42.92079" lon="0.85108">
        <ele>1185</ele>
        <time>2018-12-02T14:13:20.000Z</time>
      </trkpt>
      <trkpt lat="42.92079" lon="0.8511">
        <ele>1184</ele>
        <time>2018-12-02T14:13:22.000Z</time>
      </trkpt>
      <trkpt lat="42.92079" lon="0.85111">
        <ele>1184</ele>
        <time>2018-12-02T14:13:24.000Z</time>
      </trkpt>
      <trkpt lat="42.92078" lon="0.85112">
        <ele>1183</ele>
        <time>2018-12-02T14:13:26.000Z</time>
      </trkpt>
      <trkpt lat="42.92077" lon="0.85115">
        <ele>1182</ele>
        <time>2018-12-02T14:13:28.000Z</time>
      </trkpt>
      <trkpt lat="42.92077" lon="0.85117">
        <ele>1182</ele>
        <time>2018-12-02T14:13:30.000Z</time>
      </trkpt>
      <trkpt lat="42.92076" lon="0.85117">
        <ele>1182</ele>
        <time>2018-12-02T14:13:32.000Z</time>
      </trkpt>
      <trkpt lat="42.92076" lon="0.85121">
        <ele>1181</ele>
        <time>2018-12-02T14:13:34.000Z</time>
      </trkpt>
      <trkpt lat="42.92076" lon="0.85123">
        <ele>1180</ele>
        <time>2018-12-02T14:13:36.000Z</time>
      </trkpt>
      <trkpt lat="42.92076" lon="0.85125">
        <ele>1179</ele>
        <time>2018-12-02T14:13:38.000Z</time>
      </trkpt>
      <trkpt lat="42.92075" lon="0.85127">
        <ele>1178</ele>
        <time>2018-12-02T14:13:40.000Z</time>
      </trkpt>
      <trkpt lat="42.92073" lon="0.85129">
        <ele>1176</ele>
        <time>2018-12-02T14:13:42.000Z</time>
      </trkpt>
      <trkpt lat="42.92072" lon="0.85131">
        <ele>1175</ele>
        <time>2018-12-02T14:13:44.000Z</time>
      </trkpt>
      <trkpt lat="42.92071" lon="0.85133">
        <ele>1174</ele>
        <time>2018-12-02T14:13:46.000Z</time>
      </trkpt>
      <trkpt lat="42.92071" lon="0.85134">
        <ele>1173</ele>
        <time>2018-12-02T14:13:48.000Z</time>
      </trkpt>
      <trkpt lat="42.9207" lon="0.85136">
        <ele>1172</ele>
        <time>2018-12-02T14:13:50.000Z</time>
      </trkpt>
      <trkpt lat="42.92071" lon="0.85136">
        <ele>1172</ele>
        <time>2018-12-02T14:13:52.000Z</time>
      </trkpt>
      <trkpt lat="42.9207" lon="0.85138">
        <ele>1171</ele>
        <time>2018-12-02T14:13:54.000Z</time>
      </trkpt>
      <trkpt lat="42.9207" lon="0.8514">
        <ele>1170</ele>
        <time>2018-12-02T14:13:56.000Z</time>
      </trkpt>
      <trkpt lat="42.9207" lon="0.85142">
        <ele>1170</ele>
        <time>2018-12-02T14:13:58.000Z</time>
      </trkpt>
      <trkpt lat="42.9207" lon="0.85145">
        <ele>1170</ele>
        <time>2018-12-02T14:14:00.000Z</time>
      </trkpt>
      <trkpt lat="42.9207" lon="0.85147">
        <ele>1170</ele>
        <time>2018-12-02T14:14:02.000Z</time>
      </trkpt>
      <trkpt lat="42.92071" lon="0.85148">
        <ele>1170</ele>
        <time>2018-12-02T14:14:04.000Z</time>
      </trkpt>
      <trkpt lat="42.92072" lon="0.85149">
        <ele>1171</ele>
        <time>2018-12-02T14:14:06.000Z</time>
      </trkpt>
      <trkpt lat="42.92072" lon="0.8515">
        <ele>1171</ele>
        <time>2018-12-02T14:14:08.000Z</time>
      </trkpt>
      <trkpt lat="42.92072" lon="0.85151">
        <ele>1170</ele>
        <time>2018-12-02T14:14:10.000Z</time>
      </trkpt>
      <trkpt lat="42.92071" lon="0.85153">
        <ele>1170</ele>
        <time>2018-12-02T14:14:12.000Z</time>
      </trkpt>
      <trkpt lat="42.9207" lon="0.85154">
        <ele>1169</ele>
        <time>2018-12-02T14:14:14.000Z</time>
      </trkpt>
      <trkpt lat="42.92068" lon="0.85155">
        <ele>1168</ele>
        <time>2018-12-02T14:14:16.000Z</time>
      </trkpt>
      <trkpt lat="42.92067" lon="0.85156">
        <ele>1167</ele>
        <time>2018-12-02T14:14:18.000Z</time>
      </trkpt>
      <trkpt lat="42.92066" lon="0.85157">
        <ele>1166</ele>
        <time>2018-12-02T14:14:20.000Z</time>
      </trkpt>
      <trkpt lat="42.92064" lon="0.85158">
        <ele>1165</ele>
        <time>2018-12-02T14:14:22.000Z</time>
      </trkpt>
      <trkpt lat="42.92063" lon="0.85159">
        <ele>1164</ele>
        <time>2018-12-02T14:14:24.000Z</time>
      </trkpt>
      <trkpt lat="42.92062" lon="0.85161">
        <ele>1164</ele>
        <time>2018-12-02T14:14:26.000Z</time>
      </trkpt>
      <trkpt lat="42.92061" lon="0.85162">
        <ele>1163</ele>
        <time>2018-12-02T14:14:28.000Z</time>
      </trkpt>
      <trkpt lat="42.92061" lon="0.85163">
        <ele>1163</ele>
        <time>2018-12-02T14:14:30.000Z</time>
      </trkpt>
      <trkpt lat="42.92061" lon="0.85164">
        <ele>1162</ele>
        <time>2018-12-02T14:14:32.000Z</time>
      </trkpt>
      <trkpt lat="42.9206" lon="0.85166">
        <ele>1162</ele>
        <time>2018-12-02T14:14:34.000Z</time>
      </trkpt>
      <trkpt lat="42.92059" lon="0.85167">
        <ele>1162</ele>
        <time>2018-12-02T14:14:36.000Z</time>
      </trkpt>
      <trkpt lat="42.92059" lon="0.85168">
        <ele>1161</ele>
        <time>2018-12-02T14:14:38.000Z</time>
      </trkpt>
      <trkpt lat="42.92059" lon="0.85169">
        <ele>1161</ele>
        <time>2018-12-02T14:14:40.000Z</time>
      </trkpt>
      <trkpt lat="42.92059" lon="0.85169">
        <ele>1161</ele>
        <time>2018-12-02T14:14:42.000Z</time>
      </trkpt>
      <trkpt lat="42.9206" lon="0.8517">
        <ele>1161</ele>
        <time>2018-12-02T14:14:44.000Z</time>
      </trkpt>
      <trkpt lat="42.9206" lon="0.85172">
        <ele>1161</ele>
        <time>2018-12-02T14:14:46.000Z</time>
      </trkpt>
      <trkpt lat="42.9206" lon="0.85174">
        <ele>1161</ele>
        <time>2018-12-02T14:14:48.000Z</time>
      </trkpt>
      <trkpt lat="42.92059" lon="0.85176">
        <ele>1161</ele>
        <time>2018-12-02T14:14:50.000Z</time>
      </trkpt>
      <trkpt lat="42.92059" lon="0.85177">
        <ele>1160</ele>
        <time>2018-12-02T14:14:52.000Z</time>
      </trkpt>
      <trkpt lat="42.92059" lon="0.85179">
        <ele>1160</ele>
        <time>2018-12-02T14:14:54.000Z</time>
      </trkpt>
      <trkpt lat="42.92059" lon="0.85181">
        <ele>1159</ele>
        <time>2018-12-02T14:14:56.000Z</time>
      </trkpt>
      <trkpt lat="42.92059" lon="0.85182">
        <ele>1159</ele>
        <time>2018-12-02T14:14:58.000Z</time>
      </trkpt>
      <trkpt lat="42.92058" lon="0.85184">
        <ele>1159</ele>
        <time>2018-12-02T14:15:00.000Z</time>
      </trkpt>
      <trkpt lat="42.92058" lon="0.85185">
        <ele>1159</ele>
        <time>2018-12-02T14:15:02.000Z</time>
      </trkpt>
      <trkpt lat="42.92058" lon="0.85187">
        <ele>1158</ele>
        <time>2018-12-02T14:15:04.000Z</time>
      </trkpt>
      <trkpt lat="42.92057" lon="0.85189">
        <ele>1158</ele>
        <time>2018-12-02T14:15:06.000Z</time>
      </trkpt>
      <trkpt lat="42.92057" lon="0.8519">
        <ele>1158</ele>
        <time>2018-12-02T14:15:08.000Z</time>
      </trkpt>
      <trkpt lat="42.92056" lon="0.85191">
        <ele>1157</ele>
        <time>2018-12-02T14:15:10.000Z</time>
      </trkpt>
      <trkpt lat="42.92055" lon="0.85192">
        <ele>1156</ele>
        <time>2018-12-02T14:15:12.000Z</time>
      </trkpt>
      <trkpt lat="42.92054" lon="0.85194">
        <ele>1155</ele>
        <time>2018-12-02T14:15:14.000Z</time>
      </trkpt>
      <trkpt lat="42.92053" lon="0.85195">
        <ele>1155</ele>
        <time>2018-12-02T14:15:16.000Z</time>
      </trkpt>
      <trkpt lat="42.92052" lon="0.85197">
        <ele>1154</ele>
        <time>2018-12-02T14:15:18.000Z</time>
      </trkpt>
      <trkpt lat="42.92051" lon="0.85198">
        <ele>1153</ele>
        <time>2018-12-02T14:15:20.000Z</time>
      </trkpt>
      <trkpt lat="42.9205" lon="0.852">
        <ele>1153</ele>
        <time>2018-12-02T14:15:22.000Z</time>
      </trkpt>
      <trkpt lat="42.92049" lon="0.85202">
        <ele>1152</ele>
        <time>2018-12-02T14:15:24.000Z</time>
      </trkpt>
      <trkpt lat="42.92047" lon="0.85204">
        <ele>1151</ele>
        <time>2018-12-02T14:15:26.000Z</time>
      </trkpt>
      <trkpt lat="42.92047" lon="0.85206">
        <ele>1150</ele>
        <time>2018-12-02T14:15:28.000Z</time>
      </trkpt>
      <trkpt lat="42.92046" lon="0.85208">
        <ele>1150</ele>
        <time>2018-12-02T14:15:30.000Z</time>
      </trkpt>
      <trkpt lat="42.92046" lon="0.8521">
        <ele>1149</ele>
        <time>2018-12-02T14:15:32.000Z</time>
      </trkpt>
      <trkpt lat="42.92045" lon="0.85213">
        <ele>1148</ele>
        <time>2018-12-02T14:15:34.000Z</time>
      </trkpt>
      <trkpt lat="42.92045" lon="0.85216">
        <ele>1148</ele>
        <time>2018-12-02T14:15:36.000Z</time>
      </trkpt>
      <trkpt lat="42.92044" lon="0.8522">
        <ele>1147</ele>
        <time>2018-12-02T14:15:38.000Z</time>
      </trkpt>
      <trkpt lat="42.92042" lon="0.85223">
        <ele>1146</ele>
        <time>2018-12-02T14:15:40.000Z</time>
      </trkpt>
      <trkpt lat="42.92042" lon="0.85226">
        <ele>1146</ele>
        <time>2018-12-02T14:15:42.000Z</time>
      </trkpt>
      <trkpt lat="42.92042" lon="0.85229">
        <ele>1146</ele>
        <time>2018-12-02T14:15:44.000Z</time>
      </trkpt>
      <trkpt lat="42.92041" lon="0.85232">
        <ele>1146</ele>
        <time>2018-12-02T14:15:46.000Z</time>
      </trkpt>
      <trkpt lat="42.9204" lon="0.85236">
        <ele>1146</ele>
        <time>2018-12-02T14:15:48.000Z</time>
      </trkpt>
      <trkpt lat="42.92039" lon="0.85239">
        <ele>1145</ele>
        <time>2018-12-02T14:15:50.000Z</time>
      </trkpt>
      <trkpt lat="42.92039" lon="0.85242">
        <ele>1145</ele>
        <time>2018-12-02T14:15:52.000Z</time>
      </trkpt>
      <trkpt lat="42.92038" lon="0.85244">
        <ele>1145</ele>
        <time>2018-12-02T14:15:54.000Z</time>
      </trkpt>
      <trkpt lat="42.92036" lon="0.85248">
        <ele>1144</ele>
        <time>2018-12-02T14:15:56.000Z</time>
      </trkpt>
      <trkpt lat="42.92036" lon="0.8525">
        <ele>1144</ele>
        <time>2018-12-02T14:15:58.000Z</time>
      </trkpt>
      <trkpt lat="42.92034" lon="0.85253">
        <ele>1143</ele>
        <time>2018-12-02T14:16:00.000Z</time>
      </trkpt>
      <trkpt lat="42.92033" lon="0.85255">
        <ele>1143</ele>
        <time>2018-12-02T14:16:02.000Z</time>
      </trkpt>
      <trkpt lat="42.92031" lon="0.85258">
        <ele>1142</ele>
        <time>2018-12-02T14:16:04.000Z</time>
      </trkpt>
      <trkpt lat="42.92029" lon="0.85261">
        <ele>1141</ele>
        <time>2018-12-02T14:16:06.000Z</time>
      </trkpt>
      <trkpt lat="42.92027" lon="0.85263">
        <ele>1141</ele>
        <time>2018-12-02T14:16:08.000Z</time>
      </trkpt>
      <trkpt lat="42.92025" lon="0.85266">
        <ele>1140</ele>
        <time>2018-12-02T14:16:10.000Z</time>
      </trkpt>
      <trkpt lat="42.92024" lon="0.85268">
        <ele>1140</ele>
        <time>2018-12-02T14:16:12.000Z</time>
      </trkpt>
      <trkpt lat="42.92022" lon="0.85271">
        <ele>1139</ele>
        <time>2018-12-02T14:16:14.000Z</time>
      </trkpt>
      <trkpt lat="42.9202" lon="0.85273">
        <ele>1139</ele>
        <time>2018-12-02T14:16:16.000Z</time>
      </trkpt>
      <trkpt lat="42.92018" lon="0.85275">
        <ele>1138</ele>
        <time>2018-12-02T14:16:18.000Z</time>
      </trkpt>
      <trkpt lat="42.92016" lon="0.85277">
        <ele>1137</ele>
        <time>2018-12-02T14:16:20.000Z</time>
      </trkpt>
      <trkpt lat="42.92014" lon="0.85279">
        <ele>1136</ele>
        <time>2018-12-02T14:16:22.000Z</time>
      </trkpt>
      <trkpt lat="42.92012" lon="0.85281">
        <ele>1136</ele>
        <time>2018-12-02T14:16:24.000Z</time>
      </trkpt>
      <trkpt lat="42.92011" lon="0.85284">
        <ele>1136</ele>
        <time>2018-12-02T14:16:26.000Z</time>
      </trkpt>
      <trkpt lat="42.9201" lon="0.85287">
        <ele>1135</ele>
        <time>2018-12-02T14:16:28.000Z</time>
      </trkpt>
      <trkpt lat="42.92009" lon="0.85291">
        <ele>1135</ele>
        <time>2018-12-02T14:16:30.000Z</time>
      </trkpt>
      <trkpt lat="42.92008" lon="0.85293">
        <ele>1135</ele>
        <time>2018-12-02T14:16:32.000Z</time>
      </trkpt>
      <trkpt lat="42.92007" lon="0.85295">
        <ele>1135</ele>
        <time>2018-12-02T14:16:34.000Z</time>
      </trkpt>
      <trkpt lat="42.92006" lon="0.85297">
        <ele>1135</ele>
        <time>2018-12-02T14:16:36.000Z</time>
      </trkpt>
      <trkpt lat="42.92006" lon="0.85299">
        <ele>1135</ele>
        <time>2018-12-02T14:16:38.000Z</time>
      </trkpt>
      <trkpt lat="42.92005" lon="0.85301">
        <ele>1135</ele>
        <time>2018-12-02T14:16:40.000Z</time>
      </trkpt>
      <trkpt lat="42.92005" lon="0.85304">
        <ele>1135</ele>
        <time>2018-12-02T14:16:42.000Z</time>
      </trkpt>
      <trkpt lat="42.92004" lon="0.85306">
        <ele>1134</ele>
        <time>2018-12-02T14:16:44.000Z</time>
      </trkpt>
      <trkpt lat="42.92004" lon="0.85308">
        <ele>1134</ele>
        <time>2018-12-02T14:16:46.000Z</time>
      </trkpt>
      <trkpt lat="42.92003" lon="0.85309">
        <ele>1134</ele>
        <time>2018-12-02T14:16:48.000Z</time>
      </trkpt>
      <trkpt lat="42.92003" lon="0.85312">
        <ele>1133</ele>
        <time>2018-12-02T14:16:50.000Z</time>
      </trkpt>
      <trkpt lat="42.92002" lon="0.85314">
        <ele>1133</ele>
        <time>2018-12-02T14:16:52.000Z</time>
      </trkpt>
      <trkpt lat="42.92001" lon="0.85316">
        <ele>1132</ele>
        <time>2018-12-02T14:16:54.000Z</time>
      </trkpt>
      <trkpt lat="42.92" lon="0.85318">
        <ele>1131</ele>
        <time>2018-12-02T14:16:56.000Z</time>
      </trkpt>
      <trkpt lat="42.91999" lon="0.85319">
        <ele>1131</ele>
        <time>2018-12-02T14:16:58.000Z</time>
      </trkpt>
      <trkpt lat="42.91999" lon="0.85319">
        <ele>1131</ele>
        <time>2018-12-02T14:17:00.000Z</time>
      </trkpt>
      <trkpt lat="42.91999" lon="0.85319">
        <ele>1131</ele>
        <time>2018-12-02T14:17:02.000Z</time>
      </trkpt>
      <trkpt lat="42.92" lon="0.85318">
        <ele>1131</ele>
        <time>2018-12-02T14:17:04.000Z</time>
      </trkpt>
      <trkpt lat="42.92" lon="0.85318">
        <ele>1132</ele>
        <time>2018-12-02T14:17:06.000Z</time>
      </trkpt>
      <trkpt lat="42.92" lon="0.85319">
        <ele>1132</ele>
        <time>2018-12-02T14:17:08.000Z</time>
      </trkpt>
      <trkpt lat="42.92" lon="0.8532">
        <ele>1132</ele>
        <time>2018-12-02T14:17:10.000Z</time>
      </trkpt>
      <trkpt lat="42.92" lon="0.85322">
        <ele>1131</ele>
        <time>2018-12-02T14:17:12.000Z</time>
      </trkpt>
      <trkpt lat="42.91999" lon="0.85324">
        <ele>1131</ele>
        <time>2018-12-02T14:17:14.000Z</time>
      </trkpt>
      <trkpt lat="42.91998" lon="0.85326">
        <ele>1130</ele>
        <time>2018-12-02T14:17:16.000Z</time>
      </trkpt>
      <trkpt lat="42.91997" lon="0.85328">
        <ele>1130</ele>
        <time>2018-12-02T14:17:18.000Z</time>
      </trkpt>
      <trkpt lat="42.91996" lon="0.85329">
        <ele>1129</ele>
        <time>2018-12-02T14:17:20.000Z</time>
      </trkpt>
      <trkpt lat="42.91995" lon="0.85332">
        <ele>1128</ele>
        <time>2018-12-02T14:17:22.000Z</time>
      </trkpt>
      <trkpt lat="42.91994" lon="0.85334">
        <ele>1127</ele>
        <time>2018-12-02T14:17:24.000Z</time>
      </trkpt>
      <trkpt lat="42.91993" lon="0.85336">
        <ele>1127</ele>
        <time>2018-12-02T14:17:26.000Z</time>
      </trkpt>
      <trkpt lat="42.91991" lon="0.85339">
        <ele>1126</ele>
        <time>2018-12-02T14:17:28.000Z</time>
      </trkpt>
      <trkpt lat="42.91989" lon="0.8534">
        <ele>1125</ele>
        <time>2018-12-02T14:17:30.000Z</time>
      </trkpt>
      <trkpt lat="42.91987" lon="0.85342">
        <ele>1123</ele>
        <time>2018-12-02T14:17:32.000Z</time>
      </trkpt>
      <trkpt lat="42.91986" lon="0.85345">
        <ele>1123</ele>
        <time>2018-12-02T14:17:34.000Z</time>
      </trkpt>
      <trkpt lat="42.91985" lon="0.85347">
        <ele>1122</ele>
        <time>2018-12-02T14:17:36.000Z</time>
      </trkpt>
      <trkpt lat="42.91984" lon="0.8535">
        <ele>1122</ele>
        <time>2018-12-02T14:17:38.000Z</time>
      </trkpt>
      <trkpt lat="42.91984" lon="0.85353">
        <ele>1121</ele>
        <time>2018-12-02T14:17:40.000Z</time>
      </trkpt>
      <trkpt lat="42.91984" lon="0.85356">
        <ele>1121</ele>
        <time>2018-12-02T14:17:42.000Z</time>
      </trkpt>
      <trkpt lat="42.91984" lon="0.8536">
        <ele>1121</ele>
        <time>2018-12-02T14:17:44.000Z</time>
      </trkpt>
      <trkpt lat="42.91983" lon="0.85363">
        <ele>1121</ele>
        <time>2018-12-02T14:17:46.000Z</time>
      </trkpt>
      <trkpt lat="42.91982" lon="0.85366">
        <ele>1120</ele>
        <time>2018-12-02T14:17:48.000Z</time>
      </trkpt>
      <trkpt lat="42.91982" lon="0.85369">
        <ele>1121</ele>
        <time>2018-12-02T14:17:50.000Z</time>
      </trkpt>
      <trkpt lat="42.91981" lon="0.85371">
        <ele>1120</ele>
        <time>2018-12-02T14:17:52.000Z</time>
      </trkpt>
      <trkpt lat="42.9198" lon="0.85374">
        <ele>1120</ele>
        <time>2018-12-02T14:17:54.000Z</time>
      </trkpt>
      <trkpt lat="42.9198" lon="0.85377">
        <ele>1120</ele>
        <time>2018-12-02T14:17:56.000Z</time>
      </trkpt>
      <trkpt lat="42.9198" lon="0.85379">
        <ele>1120</ele>
        <time>2018-12-02T14:17:58.000Z</time>
      </trkpt>
      <trkpt lat="42.9198" lon="0.85382">
        <ele>1120</ele>
        <time>2018-12-02T14:18:00.000Z</time>
      </trkpt>
      <trkpt lat="42.9198" lon="0.85385">
        <ele>1121</ele>
        <time>2018-12-02T14:18:02.000Z</time>
      </trkpt>
      <trkpt lat="42.91981" lon="0.85388">
        <ele>1121</ele>
        <time>2018-12-02T14:18:04.000Z</time>
      </trkpt>
      <trkpt lat="42.91981" lon="0.85389">
        <ele>1122</ele>
        <time>2018-12-02T14:18:06.000Z</time>
      </trkpt>
      <trkpt lat="42.91982" lon="0.85392">
        <ele>1122</ele>
        <time>2018-12-02T14:18:08.000Z</time>
      </trkpt>
      <trkpt lat="42.91982" lon="0.85395">
        <ele>1121</ele>
        <time>2018-12-02T14:18:10.000Z</time>
      </trkpt>
      <trkpt lat="42.91982" lon="0.85398">
        <ele>1121</ele>
        <time>2018-12-02T14:18:12.000Z</time>
      </trkpt>
      <trkpt lat="42.91983" lon="0.85399">
        <ele>1121</ele>
        <time>2018-12-02T14:18:14.000Z</time>
      </trkpt>
      <trkpt lat="42.91983" lon="0.85401">
        <ele>1121</ele>
        <time>2018-12-02T14:18:16.000Z</time>
      </trkpt>
      <trkpt lat="42.91984" lon="0.85403">
        <ele>1121</ele>
        <time>2018-12-02T14:18:18.000Z</time>
      </trkpt>
      <trkpt lat="42.91983" lon="0.85405">
        <ele>1121</ele>
        <time>2018-12-02T14:18:20.000Z</time>
      </trkpt>
      <trkpt lat="42.91983" lon="0.85407">
        <ele>1120</ele>
        <time>2018-12-02T14:18:22.000Z</time>
      </trkpt>
      <trkpt lat="42.91983" lon="0.85409">
        <ele>1120</ele>
        <time>2018-12-02T14:18:24.000Z</time>
      </trkpt>
      <trkpt lat="42.91983" lon="0.85412">
        <ele>1119</ele>
        <time>2018-12-02T14:18:26.000Z</time>
      </trkpt>
      <trkpt lat="42.91982" lon="0.85414">
        <ele>1119</ele>
        <time>2018-12-02T14:18:28.000Z</time>
      </trkpt>
      <trkpt lat="42.91981" lon="0.85416">
        <ele>1118</ele>
        <time>2018-12-02T14:18:30.000Z</time>
      </trkpt>
      <trkpt lat="42.91979" lon="0.85418">
        <ele>1116</ele>
        <time>2018-12-02T14:18:32.000Z</time>
      </trkpt>
      <trkpt lat="42.91977" lon="0.8542">
        <ele>1115</ele>
        <time>2018-12-02T14:18:34.000Z</time>
      </trkpt>
      <trkpt lat="42.91976" lon="0.85421">
        <ele>1114</ele>
        <time>2018-12-02T14:18:36.000Z</time>
      </trkpt>
      <trkpt lat="42.91975" lon="0.85423">
        <ele>1113</ele>
        <time>2018-12-02T14:18:38.000Z</time>
      </trkpt>
      <trkpt lat="42.91974" lon="0.85424">
        <ele>1113</ele>
        <time>2018-12-02T14:18:40.000Z</time>
      </trkpt>
      <trkpt lat="42.91974" lon="0.85425">
        <ele>1112</ele>
        <time>2018-12-02T14:18:42.000Z</time>
      </trkpt>
      <trkpt lat="42.91972" lon="0.85427">
        <ele>1111</ele>
        <time>2018-12-02T14:18:44.000Z</time>
      </trkpt>
      <trkpt lat="42.91971" lon="0.85429">
        <ele>1110</ele>
        <time>2018-12-02T14:18:46.000Z</time>
      </trkpt>
      <trkpt lat="42.9197" lon="0.8543">
        <ele>1110</ele>
        <time>2018-12-02T14:18:48.000Z</time>
      </trkpt>
      <trkpt lat="42.91969" lon="0.85431">
        <ele>1109</ele>
        <time>2018-12-02T14:18:50.000Z</time>
      </trkpt>
      <trkpt lat="42.91968" lon="0.85432">
        <ele>1108</ele>
        <time>2018-12-02T14:18:52.000Z</time>
      </trkpt>
      <trkpt lat="42.91968" lon="0.85433">
        <ele>1108</ele>
        <time>2018-12-02T14:18:54.000Z</time>
      </trkpt>
      <trkpt lat="42.91967" lon="0.85435">
        <ele>1107</ele>
        <time>2018-12-02T14:18:56.000Z</time>
      </trkpt>
      <trkpt lat="42.91966" lon="0.85436">
        <ele>1107</ele>
        <time>2018-12-02T14:18:58.000Z</time>
      </trkpt>
      <trkpt lat="42.91963" lon="0.85436">
        <ele>1105</ele>
        <time>2018-12-02T14:19:00.000Z</time>
      </trkpt>
      <trkpt lat="42.91961" lon="0.85437">
        <ele>1105</ele>
        <time>2018-12-02T14:19:02.000Z</time>
      </trkpt>
      <trkpt lat="42.9196" lon="0.85438">
        <ele>1104</ele>
        <time>2018-12-02T14:19:04.000Z</time>
      </trkpt>
      <trkpt lat="42.91959" lon="0.85439">
        <ele>1103</ele>
        <time>2018-12-02T14:19:06.000Z</time>
      </trkpt>
      <trkpt lat="42.91957" lon="0.85439">
        <ele>1102</ele>
        <time>2018-12-02T14:19:08.000Z</time>
      </trkpt>
      <trkpt lat="42.91954" lon="0.85439">
        <ele>1101</ele>
        <time>2018-12-02T14:19:10.000Z</time>
      </trkpt>
      <trkpt lat="42.91953" lon="0.85439">
        <ele>1100</ele>
        <time>2018-12-02T14:19:12.000Z</time>
      </trkpt>
      <trkpt lat="42.91952" lon="0.8544">
        <ele>1100</ele>
        <time>2018-12-02T14:19:14.000Z</time>
      </trkpt>
      <trkpt lat="42.91951" lon="0.8544">
        <ele>1099</ele>
        <time>2018-12-02T14:19:16.000Z</time>
      </trkpt>
      <trkpt lat="42.9195" lon="0.8544">
        <ele>1099</ele>
        <time>2018-12-02T14:19:18.000Z</time>
      </trkpt>
      <trkpt lat="42.91949" lon="0.85439">
        <ele>1098</ele>
        <time>2018-12-02T14:19:20.000Z</time>
      </trkpt>
      <trkpt lat="42.91949" lon="0.8544">
        <ele>1098</ele>
        <time>2018-12-02T14:19:22.000Z</time>
      </trkpt>
      <trkpt lat="42.91947" lon="0.8544">
        <ele>1097</ele>
        <time>2018-12-02T14:19:24.000Z</time>
      </trkpt>
      <trkpt lat="42.91945" lon="0.85441">
        <ele>1096</ele>
        <time>2018-12-02T14:19:26.000Z</time>
      </trkpt>
      <trkpt lat="42.91943" lon="0.85441">
        <ele>1095</ele>
        <time>2018-12-02T14:19:28.000Z</time>
      </trkpt>
      <trkpt lat="42.91941" lon="0.85442">
        <ele>1094</ele>
        <time>2018-12-02T14:19:30.000Z</time>
      </trkpt>
      <trkpt lat="42.91938" lon="0.85443">
        <ele>1092</ele>
        <time>2018-12-02T14:19:32.000Z</time>
      </trkpt>
      <trkpt lat="42.91934" lon="0.85444">
        <ele>1090</ele>
        <time>2018-12-02T14:19:34.000Z</time>
      </trkpt>
      <trkpt lat="42.91932" lon="0.85442">
        <ele>1090</ele>
        <time>2018-12-02T14:19:36.000Z</time>
      </trkpt>
      <trkpt lat="42.9193" lon="0.85441">
        <ele>1089</ele>
        <time>2018-12-02T14:19:38.000Z</time>
      </trkpt>
      <trkpt lat="42.91929" lon="0.8544">
        <ele>1088</ele>
        <time>2018-12-02T14:19:40.000Z</time>
      </trkpt>
      <trkpt lat="42.91928" lon="0.85438">
        <ele>1088</ele>
        <time>2018-12-02T14:19:42.000Z</time>
      </trkpt>
      <trkpt lat="42.91927" lon="0.85438">
        <ele>1087</ele>
        <time>2018-12-02T14:19:44.000Z</time>
      </trkpt>
      <trkpt lat="42.91926" lon="0.85439">
        <ele>1087</ele>
        <time>2018-12-02T14:19:46.000Z</time>
      </trkpt>
      <trkpt lat="42.91927" lon="0.8544">
        <ele>1087</ele>
        <time>2018-12-02T14:19:48.000Z</time>
      </trkpt>
      <trkpt lat="42.91927" lon="0.85441">
        <ele>1087</ele>
        <time>2018-12-02T14:19:50.000Z</time>
      </trkpt>
      <trkpt lat="42.91927" lon="0.85444">
        <ele>1087</ele>
        <time>2018-12-02T14:19:52.000Z</time>
      </trkpt>
      <trkpt lat="42.91927" lon="0.85445">
        <ele>1087</ele>
        <time>2018-12-02T14:19:54.000Z</time>
      </trkpt>
      <trkpt lat="42.91928" lon="0.85447">
        <ele>1087</ele>
        <time>2018-12-02T14:19:56.000Z</time>
      </trkpt>
      <trkpt lat="42.91928" lon="0.85449">
        <ele>1087</ele>
        <time>2018-12-02T14:19:58.000Z</time>
      </trkpt>
      <trkpt lat="42.91927" lon="0.8545">
        <ele>1086</ele>
        <time>2018-12-02T14:20:00.000Z</time>
      </trkpt>
      <trkpt lat="42.91927" lon="0.8545">
        <ele>1086</ele>
        <time>2018-12-02T14:20:02.000Z</time>
      </trkpt>
      <trkpt lat="42.91928" lon="0.85451">
        <ele>1087</ele>
        <time>2018-12-02T14:20:04.000Z</time>
      </trkpt>
      <trkpt lat="42.91928" lon="0.85452">
        <ele>1087</ele>
        <time>2018-12-02T14:20:06.000Z</time>
      </trkpt>
      <trkpt lat="42.91926" lon="0.85453">
        <ele>1086</ele>
        <time>2018-12-02T14:20:08.000Z</time>
      </trkpt>
      <trkpt lat="42.91925" lon="0.85452">
        <ele>1085</ele>
        <time>2018-12-02T14:20:10.000Z</time>
      </trkpt>
      <trkpt lat="42.91923" lon="0.8545">
        <ele>1085</ele>
        <time>2018-12-02T14:20:12.000Z</time>
      </trkpt>
      <trkpt lat="42.91922" lon="0.8545">
        <ele>1084</ele>
        <time>2018-12-02T14:20:14.000Z</time>
      </trkpt>
      <trkpt lat="42.91921" lon="0.85449">
        <ele>1083</ele>
        <time>2018-12-02T14:20:16.000Z</time>
      </trkpt>
      <trkpt lat="42.91919" lon="0.85448">
        <ele>1082</ele>
        <time>2018-12-02T14:20:18.000Z</time>
      </trkpt>
      <trkpt lat="42.91918" lon="0.85447">
        <ele>1081</ele>
        <time>2018-12-02T14:20:20.000Z</time>
      </trkpt>
      <trkpt lat="42.91917" lon="0.85446">
        <ele>1080</ele>
        <time>2018-12-02T14:20:22.000Z</time>
      </trkpt>
      <trkpt lat="42.91916" lon="0.85446">
        <ele>1080</ele>
        <time>2018-12-02T14:20:24.000Z</time>
      </trkpt>
      <trkpt lat="42.91915" lon="0.85445">
        <ele>1079</ele>
        <time>2018-12-02T14:20:26.000Z</time>
      </trkpt>
      <trkpt lat="42.91914" lon="0.85444">
        <ele>1079</ele>
        <time>2018-12-02T14:20:28.000Z</time>
      </trkpt>
      <trkpt lat="42.91913" lon="0.85442">
        <ele>1078</ele>
        <time>2018-12-02T14:20:30.000Z</time>
      </trkpt>
      <trkpt lat="42.91912" lon="0.85441">
        <ele>1078</ele>
        <time>2018-12-02T14:20:32.000Z</time>
      </trkpt>
      <trkpt lat="42.91912" lon="0.85442">
        <ele>1077</ele>
        <time>2018-12-02T14:20:34.000Z</time>
      </trkpt>
      <trkpt lat="42.91911" lon="0.85441">
        <ele>1077</ele>
        <time>2018-12-02T14:20:36.000Z</time>
      </trkpt>
      <trkpt lat="42.91911" lon="0.85442">
        <ele>1076</ele>
        <time>2018-12-02T14:20:38.000Z</time>
      </trkpt>
      <trkpt lat="42.9191" lon="0.85442">
        <ele>1076</ele>
        <time>2018-12-02T14:20:40.000Z</time>
      </trkpt>
      <trkpt lat="42.91909" lon="0.85443">
        <ele>1075</ele>
        <time>2018-12-02T14:20:42.000Z</time>
      </trkpt>
      <trkpt lat="42.91908" lon="0.85444">
        <ele>1075</ele>
        <time>2018-12-02T14:20:44.000Z</time>
      </trkpt>
      <trkpt lat="42.91908" lon="0.85446">
        <ele>1074</ele>
        <time>2018-12-02T14:20:46.000Z</time>
      </trkpt>
      <trkpt lat="42.91908" lon="0.85448">
        <ele>1074</ele>
        <time>2018-12-02T14:20:48.000Z</time>
      </trkpt>
      <trkpt lat="42.91909" lon="0.85449">
        <ele>1074</ele>
        <time>2018-12-02T14:20:50.000Z</time>
      </trkpt>
      <trkpt lat="42.91909" lon="0.8545">
        <ele>1074</ele>
        <time>2018-12-02T14:20:52.000Z</time>
      </trkpt>
      <trkpt lat="42.91908" lon="0.85452">
        <ele>1074</ele>
        <time>2018-12-02T14:20:54.000Z</time>
      </trkpt>
      <trkpt lat="42.91909" lon="0.85454">
        <ele>1074</ele>
        <time>2018-12-02T14:20:56.000Z</time>
      </trkpt>
      <trkpt lat="42.91909" lon="0.85455">
        <ele>1074</ele>
        <time>2018-12-02T14:20:58.000Z</time>
      </trkpt>
      <trkpt lat="42.91909" lon="0.85456">
        <ele>1074</ele>
        <time>2018-12-02T14:21:00.000Z</time>
      </trkpt>
      <trkpt lat="42.9191" lon="0.85457">
        <ele>1074</ele>
        <time>2018-12-02T14:21:02.000Z</time>
      </trkpt>
      <trkpt lat="42.91909" lon="0.85458">
        <ele>1074</ele>
        <time>2018-12-02T14:21:04.000Z</time>
      </trkpt>
      <trkpt lat="42.91909" lon="0.85459">
        <ele>1074</ele>
        <time>2018-12-02T14:21:06.000Z</time>
      </trkpt>
      <trkpt lat="42.91909" lon="0.8546">
        <ele>1074</ele>
        <time>2018-12-02T14:21:08.000Z</time>
      </trkpt>
      <trkpt lat="42.91909" lon="0.8546">
        <ele>1074</ele>
        <time>2018-12-02T14:21:10.000Z</time>
      </trkpt>
      <trkpt lat="42.91909" lon="0.85461">
        <ele>1074</ele>
        <time>2018-12-02T14:21:12.000Z</time>
      </trkpt>
      <trkpt lat="42.91908" lon="0.85462">
        <ele>1073</ele>
        <time>2018-12-02T14:21:14.000Z</time>
      </trkpt>
      <trkpt lat="42.91909" lon="0.85463">
        <ele>1073</ele>
        <time>2018-12-02T14:21:16.000Z</time>
      </trkpt>
      <trkpt lat="42.91909" lon="0.85465">
        <ele>1073</ele>
        <time>2018-12-02T14:21:18.000Z</time>
      </trkpt>
      <trkpt lat="42.91909" lon="0.85467">
        <ele>1073</ele>
        <time>2018-12-02T14:21:20.000Z</time>
      </trkpt>
      <trkpt lat="42.91909" lon="0.85469">
        <ele>1073</ele>
        <time>2018-12-02T14:21:22.000Z</time>
      </trkpt>
      <trkpt lat="42.91909" lon="0.85471">
        <ele>1074</ele>
        <time>2018-12-02T14:21:24.000Z</time>
      </trkpt>
      <trkpt lat="42.9191" lon="0.85473">
        <ele>1074</ele>
        <time>2018-12-02T14:21:26.000Z</time>
      </trkpt>
      <trkpt lat="42.9191" lon="0.85475">
        <ele>1074</ele>
        <time>2018-12-02T14:21:28.000Z</time>
      </trkpt>
      <trkpt lat="42.9191" lon="0.85477">
        <ele>1073</ele>
        <time>2018-12-02T14:21:30.000Z</time>
      </trkpt>
      <trkpt lat="42.91911" lon="0.85478">
        <ele>1074</ele>
        <time>2018-12-02T14:21:32.000Z</time>
      </trkpt>
      <trkpt lat="42.91911" lon="0.85479">
        <ele>1073</ele>
        <time>2018-12-02T14:21:34.000Z</time>
      </trkpt>
      <trkpt lat="42.91911" lon="0.85481">
        <ele>1073</ele>
        <time>2018-12-02T14:21:36.000Z</time>
      </trkpt>
      <trkpt lat="42.91912" lon="0.85482">
        <ele>1073</ele>
        <time>2018-12-02T14:21:38.000Z</time>
      </trkpt>
      <trkpt lat="42.91912" lon="0.85483">
        <ele>1073</ele>
        <time>2018-12-02T14:21:40.000Z</time>
      </trkpt>
      <trkpt lat="42.91912" lon="0.85485">
        <ele>1073</ele>
        <time>2018-12-02T14:21:42.000Z</time>
      </trkpt>
      <trkpt lat="42.91912" lon="0.85486">
        <ele>1073</ele>
        <time>2018-12-02T14:21:44.000Z</time>
      </trkpt>
      <trkpt lat="42.91911" lon="0.85487">
        <ele>1072</ele>
        <time>2018-12-02T14:21:46.000Z</time>
      </trkpt>
      <trkpt lat="42.91913" lon="0.85488">
        <ele>1073</ele>
        <time>2018-12-02T14:21:48.000Z</time>
      </trkpt>
      <trkpt lat="42.91912" lon="0.85489">
        <ele>1072</ele>
        <time>2018-12-02T14:21:50.000Z</time>
      </trkpt>
      <trkpt lat="42.91912" lon="0.85489">
        <ele>1072</ele>
        <time>2018-12-02T14:21:52.000Z</time>
      </trkpt>
      <trkpt lat="42.9191" lon="0.85489">
        <ele>1071</ele>
        <time>2018-12-02T14:21:54.000Z</time>
      </trkpt>
      <trkpt lat="42.91909" lon="0.8549">
        <ele>1070</ele>
        <time>2018-12-02T14:21:56.000Z</time>
      </trkpt>
      <trkpt lat="42.91908" lon="0.8549">
        <ele>1069</ele>
        <time>2018-12-02T14:21:58.000Z</time>
      </trkpt>
      <trkpt lat="42.91906" lon="0.85489">
        <ele>1069</ele>
        <time>2018-12-02T14:22:00.000Z</time>
      </trkpt>
      <trkpt lat="42.91905" lon="0.85488">
        <ele>1067</ele>
        <time>2018-12-02T14:22:02.000Z</time>
      </trkpt>
      <trkpt lat="42.91903" lon="0.85487">
        <ele>1066</ele>
        <time>2018-12-02T14:22:04.000Z</time>
      </trkpt>
      <trkpt lat="42.91901" lon="0.85488">
        <ele>1065</ele>
        <time>2018-12-02T14:22:06.000Z</time>
      </trkpt>
      <trkpt lat="42.91901" lon="0.85488">
        <ele>1065</ele>
        <time>2018-12-02T14:22:08.000Z</time>
      </trkpt>
      <trkpt lat="42.919" lon="0.85489">
        <ele>1064</ele>
        <time>2018-12-02T14:22:10.000Z</time>
      </trkpt>
      <trkpt lat="42.919" lon="0.85489">
        <ele>1065</ele>
        <time>2018-12-02T14:22:12.000Z</time>
      </trkpt>
      <trkpt lat="42.919" lon="0.8549">
        <ele>1064</ele>
        <time>2018-12-02T14:22:14.000Z</time>
      </trkpt>
      <trkpt lat="42.919" lon="0.85492">
        <ele>1064</ele>
        <time>2018-12-02T14:22:16.000Z</time>
      </trkpt>
      <trkpt lat="42.91899" lon="0.85494">
        <ele>1063</ele>
        <time>2018-12-02T14:22:18.000Z</time>
      </trkpt>
      <trkpt lat="42.91898" lon="0.85495">
        <ele>1062</ele>
        <time>2018-12-02T14:22:20.000Z</time>
      </trkpt>
      <trkpt lat="42.91898" lon="0.85495">
        <ele>1061</ele>
        <time>2018-12-02T14:22:22.000Z</time>
      </trkpt>
      <trkpt lat="42.91896" lon="0.85495">
        <ele>1061</ele>
        <time>2018-12-02T14:22:24.000Z</time>
      </trkpt>
      <trkpt lat="42.91895" lon="0.85495">
        <ele>1060</ele>
        <time>2018-12-02T14:22:26.000Z</time>
      </trkpt>
      <trkpt lat="42.91894" lon="0.85495">
        <ele>1059</ele>
        <time>2018-12-02T14:22:28.000Z</time>
      </trkpt>
      <trkpt lat="42.91892" lon="0.85495">
        <ele>1058</ele>
        <time>2018-12-02T14:22:30.000Z</time>
      </trkpt>
      <trkpt lat="42.91891" lon="0.85495">
        <ele>1057</ele>
        <time>2018-12-02T14:22:32.000Z</time>
      </trkpt>
      <trkpt lat="42.9189" lon="0.85494">
        <ele>1057</ele>
        <time>2018-12-02T14:22:34.000Z</time>
      </trkpt>
      <trkpt lat="42.91889" lon="0.85492">
        <ele>1056</ele>
        <time>2018-12-02T14:22:36.000Z</time>
      </trkpt>
      <trkpt lat="42.91888" lon="0.85491">
        <ele>1056</ele>
        <time>2018-12-02T14:22:38.000Z</time>
      </trkpt>
      <trkpt lat="42.91886" lon="0.85491">
        <ele>1055</ele>
        <time>2018-12-02T14:22:40.000Z</time>
      </trkpt>
      <trkpt lat="42.91886" lon="0.8549">
        <ele>1055</ele>
        <time>2018-12-02T14:22:42.000Z</time>
      </trkpt>
      <trkpt lat="42.91885" lon="0.85489">
        <ele>1054</ele>
        <time>2018-12-02T14:22:44.000Z</time>
      </trkpt>
      <trkpt lat="42.91884" lon="0.85488">
        <ele>1054</ele>
        <time>2018-12-02T14:22:46.000Z</time>
      </trkpt>
      <trkpt lat="42.91884" lon="0.85488">
        <ele>1054</ele>
        <time>2018-12-02T14:22:48.000Z</time>
      </trkpt>
      <trkpt lat="42.91884" lon="0.85487">
        <ele>1054</ele>
        <time>2018-12-02T14:22:50.000Z</time>
      </trkpt>
      <trkpt lat="42.91884" lon="0.85489">
        <ele>1054</ele>
        <time>2018-12-02T14:22:52.000Z</time>
      </trkpt>
      <trkpt lat="42.91885" lon="0.8549">
        <ele>1054</ele>
        <time>2018-12-02T14:22:54.000Z</time>
      </trkpt>
      <trkpt lat="42.91884" lon="0.8549">
        <ele>1054</ele>
        <time>2018-12-02T14:22:56.000Z</time>
      </trkpt>
      <trkpt lat="42.91884" lon="0.8549">
        <ele>1054</ele>
        <time>2018-12-02T14:22:58.000Z</time>
      </trkpt>
      <trkpt lat="42.91884" lon="0.85491">
        <ele>1054</ele>
        <time>2018-12-02T14:23:00.000Z</time>
      </trkpt>
      <trkpt lat="42.91883" lon="0.85491">
        <ele>1053</ele>
        <time>2018-12-02T14:23:02.000Z</time>
      </trkpt>
      <trkpt lat="42.91883" lon="0.85493">
        <ele>1053</ele>
        <time>2018-12-02T14:23:04.000Z</time>
      </trkpt>
      <trkpt lat="42.91884" lon="0.85495">
        <ele>1053</ele>
        <time>2018-12-02T14:23:06.000Z</time>
      </trkpt>
      <trkpt lat="42.91885" lon="0.85497">
        <ele>1053</ele>
        <time>2018-12-02T14:23:08.000Z</time>
      </trkpt>
      <trkpt lat="42.91885" lon="0.85497">
        <ele>1053</ele>
        <time>2018-12-02T14:23:10.000Z</time>
      </trkpt>
      <trkpt lat="42.91884" lon="0.85498">
        <ele>1052</ele>
        <time>2018-12-02T14:23:12.000Z</time>
      </trkpt>
      <trkpt lat="42.91885" lon="0.855">
        <ele>1052</ele>
        <time>2018-12-02T14:23:14.000Z</time>
      </trkpt>
      <trkpt lat="42.91884" lon="0.855">
        <ele>1052</ele>
        <time>2018-12-02T14:23:16.000Z</time>
      </trkpt>
      <trkpt lat="42.91885" lon="0.85501">
        <ele>1052</ele>
        <time>2018-12-02T14:23:18.000Z</time>
      </trkpt>
      <trkpt lat="42.91885" lon="0.85503">
        <ele>1052</ele>
        <time>2018-12-02T14:23:20.000Z</time>
      </trkpt>
      <trkpt lat="42.91885" lon="0.85504">
        <ele>1051</ele>
        <time>2018-12-02T14:23:22.000Z</time>
      </trkpt>
      <trkpt lat="42.91884" lon="0.85505">
        <ele>1051</ele>
        <time>2018-12-02T14:23:24.000Z</time>
      </trkpt>
      <trkpt lat="42.91884" lon="0.85506">
        <ele>1051</ele>
        <time>2018-12-02T14:23:26.000Z</time>
      </trkpt>
      <trkpt lat="42.91885" lon="0.85508">
        <ele>1051</ele>
        <time>2018-12-02T14:23:28.000Z</time>
      </trkpt>
      <trkpt lat="42.91883" lon="0.8551">
        <ele>1049</ele>
        <time>2018-12-02T14:23:30.000Z</time>
      </trkpt>
      <trkpt lat="42.91882" lon="0.8551">
        <ele>1048</ele>
        <time>2018-12-02T14:23:32.000Z</time>
      </trkpt>
      <trkpt lat="42.9188" lon="0.85509">
        <ele>1047</ele>
        <time>2018-12-02T14:23:34.000Z</time>
      </trkpt>
      <trkpt lat="42.91879" lon="0.85508">
        <ele>1047</ele>
        <time>2018-12-02T14:23:36.000Z</time>
      </trkpt>
      <trkpt lat="42.91877" lon="0.85507">
        <ele>1046</ele>
        <time>2018-12-02T14:23:38.000Z</time>
      </trkpt>
      <trkpt lat="42.91877" lon="0.85507">
        <ele>1046</ele>
        <time>2018-12-02T14:23:40.000Z</time>
      </trkpt>
      <trkpt lat="42.91876" lon="0.85506">
        <ele>1045</ele>
        <time>2018-12-02T14:23:42.000Z</time>
      </trkpt>
      <trkpt lat="42.91875" lon="0.85506">
        <ele>1044</ele>
        <time>2018-12-02T14:23:44.000Z</time>
      </trkpt>
      <trkpt lat="42.91874" lon="0.85504">
        <ele>1044</ele>
        <time>2018-12-02T14:23:46.000Z</time>
      </trkpt>
      <trkpt lat="42.91872" lon="0.85503">
        <ele>1044</ele>
        <time>2018-12-02T14:23:48.000Z</time>
      </trkpt>
      <trkpt lat="42.91872" lon="0.85502">
        <ele>1043</ele>
        <time>2018-12-02T14:23:50.000Z</time>
      </trkpt>
      <trkpt lat="42.91871" lon="0.85502">
        <ele>1043</ele>
        <time>2018-12-02T14:23:52.000Z</time>
      </trkpt>
      <trkpt lat="42.9187" lon="0.85502">
        <ele>1042</ele>
        <time>2018-12-02T14:23:54.000Z</time>
      </trkpt>
      <trkpt lat="42.91871" lon="0.85503">
        <ele>1042</ele>
        <time>2018-12-02T14:23:56.000Z</time>
      </trkpt>
      <trkpt lat="42.9187" lon="0.85503">
        <ele>1042</ele>
        <time>2018-12-02T14:23:58.000Z</time>
      </trkpt>
      <trkpt lat="42.9187" lon="0.85503">
        <ele>1042</ele>
        <time>2018-12-02T14:24:00.000Z</time>
      </trkpt>
      <trkpt lat="42.91869" lon="0.85504">
        <ele>1042</ele>
        <time>2018-12-02T14:24:02.000Z</time>
      </trkpt>
      <trkpt lat="42.91869" lon="0.85505">
        <ele>1041</ele>
        <time>2018-12-02T14:24:04.000Z</time>
      </trkpt>
      <trkpt lat="42.91869" lon="0.85506">
        <ele>1041</ele>
        <time>2018-12-02T14:24:06.000Z</time>
      </trkpt>
      <trkpt lat="42.91869" lon="0.85506">
        <ele>1041</ele>
        <time>2018-12-02T14:24:08.000Z</time>
      </trkpt>
      <trkpt lat="42.9187" lon="0.85507">
        <ele>1041</ele>
        <time>2018-12-02T14:24:10.000Z</time>
      </trkpt>
      <trkpt lat="42.91868" lon="0.85508">
        <ele>1040</ele>
        <time>2018-12-02T14:24:12.000Z</time>
      </trkpt>
      <trkpt lat="42.91868" lon="0.85508">
        <ele>1040</ele>
        <time>2018-12-02T14:24:14.000Z</time>
      </trkpt>
      <trkpt lat="42.91868" lon="0.85508">
        <ele>1040</ele>
        <time>2018-12-02T14:24:16.000Z</time>
      </trkpt>
      <trkpt lat="42.91869" lon="0.85508">
        <ele>1041</ele>
        <time>2018-12-02T14:24:18.000Z</time>
      </trkpt>
      <trkpt lat="42.9187" lon="0.85509">
        <ele>1041</ele>
        <time>2018-12-02T14:24:20.000Z</time>
      </trkpt>
      <trkpt lat="42.9187" lon="0.85511">
        <ele>1041</ele>
        <time>2018-12-02T14:24:22.000Z</time>
      </trkpt>
      <trkpt lat="42.9187" lon="0.85513">
        <ele>1041</ele>
        <time>2018-12-02T14:24:24.000Z</time>
      </trkpt>
      <trkpt lat="42.91871" lon="0.85514">
        <ele>1041</ele>
        <time>2018-12-02T14:24:26.000Z</time>
      </trkpt>
      <trkpt lat="42.9187" lon="0.85516">
        <ele>1040</ele>
        <time>2018-12-02T14:24:28.000Z</time>
      </trkpt>
      <trkpt lat="42.91871" lon="0.85517">
        <ele>1041</ele>
        <time>2018-12-02T14:24:30.000Z</time>
      </trkpt>
      <trkpt lat="42.91872" lon="0.85518">
        <ele>1041</ele>
        <time>2018-12-02T14:24:32.000Z</time>
      </trkpt>
      <trkpt lat="42.91873" lon="0.85519">
        <ele>1041</ele>
        <time>2018-12-02T14:24:34.000Z</time>
      </trkpt>
      <trkpt lat="42.91873" lon="0.85522">
        <ele>1041</ele>
        <time>2018-12-02T14:24:36.000Z</time>
      </trkpt>
      <trkpt lat="42.91873" lon="0.85524">
        <ele>1040</ele>
        <time>2018-12-02T14:24:38.000Z</time>
      </trkpt>
      <trkpt lat="42.91874" lon="0.85525">
        <ele>1041</ele>
        <time>2018-12-02T14:24:40.000Z</time>
      </trkpt>
      <trkpt lat="42.91872" lon="0.85528">
        <ele>1040</ele>
        <time>2018-12-02T14:24:42.000Z</time>
      </trkpt>
      <trkpt lat="42.91872" lon="0.85529">
        <ele>1039</ele>
        <time>2018-12-02T14:24:44.000Z</time>
      </trkpt>
      <trkpt lat="42.91872" lon="0.85531">
        <ele>1039</ele>
        <time>2018-12-02T14:24:46.000Z</time>
      </trkpt>
      <trkpt lat="42.91871" lon="0.85533">
        <ele>1038</ele>
        <time>2018-12-02T14:24:48.000Z</time>
      </trkpt>
      <trkpt lat="42.91871" lon="0.85536">
        <ele>1038</ele>
        <time>2018-12-02T14:24:50.000Z</time>
      </trkpt>
      <trkpt lat="42.91871" lon="0.85538">
        <ele>1037</ele>
        <time>2018-12-02T14:24:52.000Z</time>
      </trkpt>
      <trkpt lat="42.91872" lon="0.8554">
        <ele>1037</ele>
        <time>2018-12-02T14:24:54.000Z</time>
      </trkpt>
      <trkpt lat="42.91872" lon="0.85543">
        <ele>1037</ele>
        <time>2018-12-02T14:24:56.000Z</time>
      </trkpt>
      <trkpt lat="42.91872" lon="0.85545">
        <ele>1037</ele>
        <time>2018-12-02T14:24:58.000Z</time>
      </trkpt>
      <trkpt lat="42.91872" lon="0.85546">
        <ele>1037</ele>
        <time>2018-12-02T14:25:00.000Z</time>
      </trkpt>
      <trkpt lat="42.91872" lon="0.8555">
        <ele>1036</ele>
        <time>2018-12-02T14:25:02.000Z</time>
      </trkpt>
      <trkpt lat="42.91872" lon="0.85552">
        <ele>1036</ele>
        <time>2018-12-02T14:25:04.000Z</time>
      </trkpt>
      <trkpt lat="42.91872" lon="0.85554">
        <ele>1035</ele>
        <time>2018-12-02T14:25:06.000Z</time>
      </trkpt>
      <trkpt lat="42.91872" lon="0.85555">
        <ele>1035</ele>
        <time>2018-12-02T14:25:08.000Z</time>
      </trkpt>
      <trkpt lat="42.91873" lon="0.85558">
        <ele>1035</ele>
        <time>2018-12-02T14:25:10.000Z</time>
      </trkpt>
      <trkpt lat="42.91874" lon="0.8556">
        <ele>1035</ele>
        <time>2018-12-02T14:25:12.000Z</time>
      </trkpt>
      <trkpt lat="42.91875" lon="0.85562">
        <ele>1036</ele>
        <time>2018-12-02T14:25:14.000Z</time>
      </trkpt>
      <trkpt lat="42.91876" lon="0.85566">
        <ele>1036</ele>
        <time>2018-12-02T14:25:16.000Z</time>
      </trkpt>
      <trkpt lat="42.91877" lon="0.8557">
        <ele>1036</ele>
        <time>2018-12-02T14:25:18.000Z</time>
      </trkpt>
      <trkpt lat="42.91878" lon="0.85573">
        <ele>1036</ele>
        <time>2018-12-02T14:25:20.000Z</time>
      </trkpt>
      <trkpt lat="42.91878" lon="0.85576">
        <ele>1036</ele>
        <time>2018-12-02T14:25:22.000Z</time>
      </trkpt>
      <trkpt lat="42.91879" lon="0.85578">
        <ele>1037</ele>
        <time>2018-12-02T14:25:24.000Z</time>
      </trkpt>
      <trkpt lat="42.91879" lon="0.85581">
        <ele>1036</ele>
        <time>2018-12-02T14:25:26.000Z</time>
      </trkpt>
      <trkpt lat="42.9188" lon="0.85583">
        <ele>1036</ele>
        <time>2018-12-02T14:25:28.000Z</time>
      </trkpt>
      <trkpt lat="42.91881" lon="0.85585">
        <ele>1037</ele>
        <time>2018-12-02T14:25:30.000Z</time>
      </trkpt>
      <trkpt lat="42.91881" lon="0.85586">
        <ele>1037</ele>
        <time>2018-12-02T14:25:32.000Z</time>
      </trkpt>
      <trkpt lat="42.91881" lon="0.85587">
        <ele>1037</ele>
        <time>2018-12-02T14:25:34.000Z</time>
      </trkpt>
      <trkpt lat="42.91883" lon="0.85587">
        <ele>1038</ele>
        <time>2018-12-02T14:25:36.000Z</time>
      </trkpt>
      <trkpt lat="42.91883" lon="0.85587">
        <ele>1038</ele>
        <time>2018-12-02T14:25:38.000Z</time>
      </trkpt>
      <trkpt lat="42.91884" lon="0.85589">
        <ele>1038</ele>
        <time>2018-12-02T14:25:40.000Z</time>
      </trkpt>
      <trkpt lat="42.91884" lon="0.85591">
        <ele>1038</ele>
        <time>2018-12-02T14:25:42.000Z</time>
      </trkpt>
      <trkpt lat="42.91885" lon="0.85593">
        <ele>1038</ele>
        <time>2018-12-02T14:25:44.000Z</time>
      </trkpt>
      <trkpt lat="42.91886" lon="0.85594">
        <ele>1039</ele>
        <time>2018-12-02T14:25:46.000Z</time>
      </trkpt>
      <trkpt lat="42.91887" lon="0.85596">
        <ele>1039</ele>
        <time>2018-12-02T14:25:48.000Z</time>
      </trkpt>
      <trkpt lat="42.91888" lon="0.85598">
        <ele>1039</ele>
        <time>2018-12-02T14:25:50.000Z</time>
      </trkpt>
      <trkpt lat="42.91889" lon="0.85601">
        <ele>1040</ele>
        <time>2018-12-02T14:25:52.000Z</time>
      </trkpt>
      <trkpt lat="42.91889" lon="0.85603">
        <ele>1040</ele>
        <time>2018-12-02T14:25:54.000Z</time>
      </trkpt>
      <trkpt lat="42.91889" lon="0.85605">
        <ele>1040</ele>
        <time>2018-12-02T14:25:56.000Z</time>
      </trkpt>
      <trkpt lat="42.9189" lon="0.85606">
        <ele>1040</ele>
        <time>2018-12-02T14:25:58.000Z</time>
      </trkpt>
      <trkpt lat="42.9189" lon="0.85608">
        <ele>1040</ele>
        <time>2018-12-02T14:26:00.000Z</time>
      </trkpt>
      <trkpt lat="42.91891" lon="0.85611">
        <ele>1039</ele>
        <time>2018-12-02T14:26:02.000Z</time>
      </trkpt>
      <trkpt lat="42.91891" lon="0.85612">
        <ele>1039</ele>
        <time>2018-12-02T14:26:04.000Z</time>
      </trkpt>
      <trkpt lat="42.91891" lon="0.85613">
        <ele>1039</ele>
        <time>2018-12-02T14:26:06.000Z</time>
      </trkpt>
      <trkpt lat="42.91891" lon="0.85613">
        <ele>1039</ele>
        <time>2018-12-02T14:26:08.000Z</time>
      </trkpt>
      <trkpt lat="42.91891" lon="0.85613">
        <ele>1039</ele>
        <time>2018-12-02T14:26:10.000Z</time>
      </trkpt>
      <trkpt lat="42.91891" lon="0.85613">
        <ele>1039</ele>
        <time>2018-12-02T14:26:12.000Z</time>
      </trkpt>
      <trkpt lat="42.91891" lon="0.85613">
        <ele>1039</ele>
        <time>2018-12-02T14:26:14.000Z</time>
      </trkpt>
      <trkpt lat="42.9189" lon="0.85613">
        <ele>1039</ele>
        <time>2018-12-02T14:26:16.000Z</time>
      </trkpt>
      <trkpt lat="42.91891" lon="0.85613">
        <ele>1039</ele>
        <time>2018-12-02T14:26:18.000Z</time>
      </trkpt>
      <trkpt lat="42.91891" lon="0.85613">
        <ele>1039</ele>
        <time>2018-12-02T14:26:20.000Z</time>
      </trkpt>
      <trkpt lat="42.91892" lon="0.85613">
        <ele>1040</ele>
        <time>2018-12-02T14:26:22.000Z</time>
      </trkpt>
      <trkpt lat="42.91893" lon="0.85613">
        <ele>1040</ele>
        <time>2018-12-02T14:26:24.000Z</time>
      </trkpt>
      <trkpt lat="42.91894" lon="0.85612">
        <ele>1041</ele>
        <time>2018-12-02T14:26:26.000Z</time>
      </trkpt>
      <trkpt lat="42.91894" lon="0.85612">
        <ele>1042</ele>
        <time>2018-12-02T14:26:28.000Z</time>
      </trkpt>
      <trkpt lat="42.91895" lon="0.85614">
        <ele>1042</ele>
        <time>2018-12-02T14:26:30.000Z</time>
      </trkpt>
      <trkpt lat="42.91895" lon="0.85615">
        <ele>1042</ele>
        <time>2018-12-02T14:26:32.000Z</time>
      </trkpt>
      <trkpt lat="42.91895" lon="0.85617">
        <ele>1041</ele>
        <time>2018-12-02T14:26:34.000Z</time>
      </trkpt>
      <trkpt lat="42.91895" lon="0.85617">
        <ele>1041</ele>
        <time>2018-12-02T14:26:36.000Z</time>
      </trkpt>
      <trkpt lat="42.91895" lon="0.85619">
        <ele>1041</ele>
        <time>2018-12-02T14:26:38.000Z</time>
      </trkpt>
      <trkpt lat="42.91895" lon="0.8562">
        <ele>1041</ele>
        <time>2018-12-02T14:26:40.000Z</time>
      </trkpt>
      <trkpt lat="42.91895" lon="0.85621">
        <ele>1041</ele>
        <time>2018-12-02T14:26:42.000Z</time>
      </trkpt>
      <trkpt lat="42.91895" lon="0.85622">
        <ele>1040</ele>
        <time>2018-12-02T14:26:44.000Z</time>
      </trkpt>
      <trkpt lat="42.91895" lon="0.85622">
        <ele>1040</ele>
        <time>2018-12-02T14:26:46.000Z</time>
      </trkpt>
      <trkpt lat="42.91895" lon="0.85622">
        <ele>1040</ele>
        <time>2018-12-02T14:26:48.000Z</time>
      </trkpt>
      <trkpt lat="42.91895" lon="0.85623">
        <ele>1040</ele>
        <time>2018-12-02T14:26:50.000Z</time>
      </trkpt>
      <trkpt lat="42.91894" lon="0.85623">
        <ele>1040</ele>
        <time>2018-12-02T14:26:52.000Z</time>
      </trkpt>
      <trkpt lat="42.91894" lon="0.85623">
        <ele>1039</ele>
        <time>2018-12-02T14:26:54.000Z</time>
      </trkpt>
      <trkpt lat="42.91893" lon="0.85624">
        <ele>1039</ele>
        <time>2018-12-02T14:26:56.000Z</time>
      </trkpt>
      <trkpt lat="42.91893" lon="0.85624">
        <ele>1038</ele>
        <time>2018-12-02T14:26:58.000Z</time>
      </trkpt>
      <trkpt lat="42.91893" lon="0.85625">
        <ele>1039</ele>
        <time>2018-12-02T14:27:00.000Z</time>
      </trkpt>
      <trkpt lat="42.91893" lon="0.85625">
        <ele>1038</ele>
        <time>2018-12-02T14:27:02.000Z</time>
      </trkpt>
      <trkpt lat="42.91892" lon="0.85625">
        <ele>1038</ele>
        <time>2018-12-02T14:27:04.000Z</time>
      </trkpt>
      <trkpt lat="42.91891" lon="0.85626">
        <ele>1037</ele>
        <time>2018-12-02T14:27:06.000Z</time>
      </trkpt>
      <trkpt lat="42.9189" lon="0.85626">
        <ele>1036</ele>
        <time>2018-12-02T14:27:08.000Z</time>
      </trkpt>
      <trkpt lat="42.9189" lon="0.85627">
        <ele>1036</ele>
        <time>2018-12-02T14:27:10.000Z</time>
      </trkpt>
      <trkpt lat="42.9189" lon="0.85628">
        <ele>1036</ele>
        <time>2018-12-02T14:27:12.000Z</time>
      </trkpt>
      <trkpt lat="42.91891" lon="0.85629">
        <ele>1037</ele>
        <time>2018-12-02T14:27:14.000Z</time>
      </trkpt>
      <trkpt lat="42.9189" lon="0.85632">
        <ele>1036</ele>
        <time>2018-12-02T14:27:16.000Z</time>
      </trkpt>
      <trkpt lat="42.9189" lon="0.85633">
        <ele>1035</ele>
        <time>2018-12-02T14:27:18.000Z</time>
      </trkpt>
      <trkpt lat="42.91889" lon="0.85635">
        <ele>1035</ele>
        <time>2018-12-02T14:27:20.000Z</time>
      </trkpt>
      <trkpt lat="42.91888" lon="0.85636">
        <ele>1033</ele>
        <time>2018-12-02T14:27:22.000Z</time>
      </trkpt>
      <trkpt lat="42.91887" lon="0.85638">
        <ele>1033</ele>
        <time>2018-12-02T14:27:24.000Z</time>
      </trkpt>
      <trkpt lat="42.91886" lon="0.85638">
        <ele>1032</ele>
        <time>2018-12-02T14:27:26.000Z</time>
      </trkpt>
      <trkpt lat="42.91885" lon="0.85639">
        <ele>1031</ele>
        <time>2018-12-02T14:27:28.000Z</time>
      </trkpt>
      <trkpt lat="42.91885" lon="0.85641">
        <ele>1031</ele>
        <time>2018-12-02T14:27:30.000Z</time>
      </trkpt>
      <trkpt lat="42.91884" lon="0.85642">
        <ele>1030</ele>
        <time>2018-12-02T14:27:32.000Z</time>
      </trkpt>
      <trkpt lat="42.91883" lon="0.85642">
        <ele>1029</ele>
        <time>2018-12-02T14:27:34.000Z</time>
      </trkpt>
      <trkpt lat="42.91882" lon="0.85643">
        <ele>1029</ele>
        <time>2018-12-02T14:27:36.000Z</time>
      </trkpt>
      <trkpt lat="42.91882" lon="0.85644">
        <ele>1029</ele>
        <time>2018-12-02T14:27:38.000Z</time>
      </trkpt>
      <trkpt lat="42.91882" lon="0.85645">
        <ele>1029</ele>
        <time>2018-12-02T14:27:40.000Z</time>
      </trkpt>
      <trkpt lat="42.91882" lon="0.85647">
        <ele>1028</ele>
        <time>2018-12-02T14:27:42.000Z</time>
      </trkpt>
      <trkpt lat="42.91882" lon="0.85649">
        <ele>1028</ele>
        <time>2018-12-02T14:27:44.000Z</time>
      </trkpt>
      <trkpt lat="42.91881" lon="0.85651">
        <ele>1028</ele>
        <time>2018-12-02T14:27:46.000Z</time>
      </trkpt>
      <trkpt lat="42.91881" lon="0.85653">
        <ele>1027</ele>
        <time>2018-12-02T14:27:48.000Z</time>
      </trkpt>
      <trkpt lat="42.91882" lon="0.85655">
        <ele>1028</ele>
        <time>2018-12-02T14:27:50.000Z</time>
      </trkpt>
      <trkpt lat="42.91882" lon="0.85657">
        <ele>1028</ele>
        <time>2018-12-02T14:27:52.000Z</time>
      </trkpt>
      <trkpt lat="42.91883" lon="0.85659">
        <ele>1028</ele>
        <time>2018-12-02T14:27:54.000Z</time>
      </trkpt>
      <trkpt lat="42.91883" lon="0.85662">
        <ele>1028</ele>
        <time>2018-12-02T14:27:56.000Z</time>
      </trkpt>
      <trkpt lat="42.91882" lon="0.85665">
        <ele>1027</ele>
        <time>2018-12-02T14:27:58.000Z</time>
      </trkpt>
      <trkpt lat="42.91881" lon="0.85667">
        <ele>1027</ele>
        <time>2018-12-02T14:28:00.000Z</time>
      </trkpt>
      <trkpt lat="42.91881" lon="0.85668">
        <ele>1026</ele>
        <time>2018-12-02T14:28:02.000Z</time>
      </trkpt>
      <trkpt lat="42.9188" lon="0.8567">
        <ele>1026</ele>
        <time>2018-12-02T14:28:04.000Z</time>
      </trkpt>
      <trkpt lat="42.91878" lon="0.85671">
        <ele>1024</ele>
        <time>2018-12-02T14:28:06.000Z</time>
      </trkpt>
      <trkpt lat="42.91878" lon="0.85673">
        <ele>1024</ele>
        <time>2018-12-02T14:28:08.000Z</time>
      </trkpt>
      <trkpt lat="42.91878" lon="0.85674">
        <ele>1024</ele>
        <time>2018-12-02T14:28:10.000Z</time>
      </trkpt>
      <trkpt lat="42.91878" lon="0.85677">
        <ele>1024</ele>
        <time>2018-12-02T14:28:12.000Z</time>
      </trkpt>
      <trkpt lat="42.91878" lon="0.85678">
        <ele>1024</ele>
        <time>2018-12-02T14:28:14.000Z</time>
      </trkpt>
      <trkpt lat="42.91878" lon="0.85679">
        <ele>1023</ele>
        <time>2018-12-02T14:28:16.000Z</time>
      </trkpt>
      <trkpt lat="42.91877" lon="0.8568">
        <ele>1023</ele>
        <time>2018-12-02T14:28:18.000Z</time>
      </trkpt>
      <trkpt lat="42.91877" lon="0.85681">
        <ele>1023</ele>
        <time>2018-12-02T14:28:20.000Z</time>
      </trkpt>
      <trkpt lat="42.91877" lon="0.85682">
        <ele>1022</ele>
        <time>2018-12-02T14:28:22.000Z</time>
      </trkpt>
      <trkpt lat="42.91876" lon="0.85683">
        <ele>1021</ele>
        <time>2018-12-02T14:28:24.000Z</time>
      </trkpt>
      <trkpt lat="42.91874" lon="0.85683">
        <ele>1021</ele>
        <time>2018-12-02T14:28:26.000Z</time>
      </trkpt>
      <trkpt lat="42.91874" lon="0.85684">
        <ele>1020</ele>
        <time>2018-12-02T14:28:28.000Z</time>
      </trkpt>
      <trkpt lat="42.91875" lon="0.85685">
        <ele>1021</ele>
        <time>2018-12-02T14:28:30.000Z</time>
      </trkpt>
      <trkpt lat="42.91875" lon="0.85688">
        <ele>1021</ele>
        <time>2018-12-02T14:28:32.000Z</time>
      </trkpt>
      <trkpt lat="42.91875" lon="0.8569">
        <ele>1021</ele>
        <time>2018-12-02T14:28:34.000Z</time>
      </trkpt>
      <trkpt lat="42.91876" lon="0.85692">
        <ele>1021</ele>
        <time>2018-12-02T14:28:36.000Z</time>
      </trkpt>
      <trkpt lat="42.91875" lon="0.85693">
        <ele>1020</ele>
        <time>2018-12-02T14:28:38.000Z</time>
      </trkpt>
      <trkpt lat="42.91875" lon="0.85695">
        <ele>1020</ele>
        <time>2018-12-02T14:28:40.000Z</time>
      </trkpt>
      <trkpt lat="42.91874" lon="0.85696">
        <ele>1019</ele>
        <time>2018-12-02T14:28:42.000Z</time>
      </trkpt>
      <trkpt lat="42.91874" lon="0.85697">
        <ele>1019</ele>
        <time>2018-12-02T14:28:44.000Z</time>
      </trkpt>
      <trkpt lat="42.91874" lon="0.85699">
        <ele>1019</ele>
        <time>2018-12-02T14:28:46.000Z</time>
      </trkpt>
      <trkpt lat="42.91874" lon="0.85701">
        <ele>1018</ele>
        <time>2018-12-02T14:28:48.000Z</time>
      </trkpt>
      <trkpt lat="42.91874" lon="0.85703">
        <ele>1018</ele>
        <time>2018-12-02T14:28:50.000Z</time>
      </trkpt>
      <trkpt lat="42.91874" lon="0.85706">
        <ele>1018</ele>
        <time>2018-12-02T14:28:52.000Z</time>
      </trkpt>
      <trkpt lat="42.91873" lon="0.85707">
        <ele>1018</ele>
        <time>2018-12-02T14:28:54.000Z</time>
      </trkpt>
      <trkpt lat="42.91873" lon="0.85709">
        <ele>1017</ele>
        <time>2018-12-02T14:28:56.000Z</time>
      </trkpt>
      <trkpt lat="42.91873" lon="0.85711">
        <ele>1017</ele>
        <time>2018-12-02T14:28:58.000Z</time>
      </trkpt>
      <trkpt lat="42.91874" lon="0.85712">
        <ele>1017</ele>
        <time>2018-12-02T14:29:00.000Z</time>
      </trkpt>
      <trkpt lat="42.91874" lon="0.85715">
        <ele>1017</ele>
        <time>2018-12-02T14:29:02.000Z</time>
      </trkpt>
      <trkpt lat="42.91873" lon="0.85716">
        <ele>1017</ele>
        <time>2018-12-02T14:29:04.000Z</time>
      </trkpt>
      <trkpt lat="42.91873" lon="0.85718">
        <ele>1016</ele>
        <time>2018-12-02T14:29:06.000Z</time>
      </trkpt>
      <trkpt lat="42.91873" lon="0.8572">
        <ele>1016</ele>
        <time>2018-12-02T14:29:08.000Z</time>
      </trkpt>
      <trkpt lat="42.91873" lon="0.85721">
        <ele>1016</ele>
        <time>2018-12-02T14:29:10.000Z</time>
      </trkpt>
      <trkpt lat="42.91873" lon="0.85722">
        <ele>1016</ele>
        <time>2018-12-02T14:29:12.000Z</time>
      </trkpt>
      <trkpt lat="42.91872" lon="0.85723">
        <ele>1015</ele>
        <time>2018-12-02T14:29:14.000Z</time>
      </trkpt>
      <trkpt lat="42.91872" lon="0.85723">
        <ele>1015</ele>
        <time>2018-12-02T14:29:16.000Z</time>
      </trkpt>
      <trkpt lat="42.91873" lon="0.85724">
        <ele>1016</ele>
        <time>2018-12-02T14:29:18.000Z</time>
      </trkpt>
      <trkpt lat="42.91874" lon="0.85725">
        <ele>1016</ele>
        <time>2018-12-02T14:29:20.000Z</time>
      </trkpt>
      <trkpt lat="42.91874" lon="0.85726">
        <ele>1016</ele>
        <time>2018-12-02T14:29:22.000Z</time>
      </trkpt>
      <trkpt lat="42.91874" lon="0.85727">
        <ele>1016</ele>
        <time>2018-12-02T14:29:24.000Z</time>
      </trkpt>
      <trkpt lat="42.91873" lon="0.85729">
        <ele>1015</ele>
        <time>2018-12-02T14:29:26.000Z</time>
      </trkpt>
      <trkpt lat="42.91873" lon="0.85731">
        <ele>1015</ele>
        <time>2018-12-02T14:29:28.000Z</time>
      </trkpt>
      <trkpt lat="42.91871" lon="0.85734">
        <ele>1013</ele>
        <time>2018-12-02T14:29:30.000Z</time>
      </trkpt>
      <trkpt lat="42.91869" lon="0.85735">
        <ele>1012</ele>
        <time>2018-12-02T14:29:32.000Z</time>
      </trkpt>
      <trkpt lat="42.91867" lon="0.85734">
        <ele>1011</ele>
        <time>2018-12-02T14:29:34.000Z</time>
      </trkpt>
      <trkpt lat="42.91866" lon="0.85734">
        <ele>1010</ele>
        <time>2018-12-02T14:29:36.000Z</time>
      </trkpt>
      <trkpt lat="42.91865" lon="0.85733">
        <ele>1009</ele>
        <time>2018-12-02T14:29:38.000Z</time>
      </trkpt>
      <trkpt lat="42.91864" lon="0.85733">
        <ele>1008</ele>
        <time>2018-12-02T14:29:40.000Z</time>
      </trkpt>
      <trkpt lat="42.91862" lon="0.85732">
        <ele>1008</ele>
        <time>2018-12-02T14:29:42.000Z</time>
      </trkpt>
      <trkpt lat="42.91861" lon="0.85731">
        <ele>1007</ele>
        <time>2018-12-02T14:29:44.000Z</time>
      </trkpt>
      <trkpt lat="42.91861" lon="0.8573">
        <ele>1007</ele>
        <time>2018-12-02T14:29:46.000Z</time>
      </trkpt>
      <trkpt lat="42.91859" lon="0.8573">
        <ele>1006</ele>
        <time>2018-12-02T14:29:48.000Z</time>
      </trkpt>
      <trkpt lat="42.91859" lon="0.8573">
        <ele>1005</ele>
        <time>2018-12-02T14:29:50.000Z</time>
      </trkpt>
      <trkpt lat="42.91859" lon="0.85729">
        <ele>1005</ele>
        <time>2018-12-02T14:29:52.000Z</time>
      </trkpt>
      <trkpt lat="42.91858" lon="0.85729">
        <ele>1005</ele>
        <time>2018-12-02T14:29:54.000Z</time>
      </trkpt>
      <trkpt lat="42.91857" lon="0.85729">
        <ele>1004</ele>
        <time>2018-12-02T14:29:56.000Z</time>
      </trkpt>
      <trkpt lat="42.91856" lon="0.85728">
        <ele>1004</ele>
        <time>2018-12-02T14:29:58.000Z</time>
      </trkpt>
      <trkpt lat="42.91855" lon="0.85728">
        <ele>1003</ele>
        <time>2018-12-02T14:30:00.000Z</time>
      </trkpt>
      <trkpt lat="42.91855" lon="0.85727">
        <ele>1003</ele>
        <time>2018-12-02T14:30:02.000Z</time>
      </trkpt>
      <trkpt lat="42.91854" lon="0.85727">
        <ele>1003</ele>
        <time>2018-12-02T14:30:04.000Z</time>
      </trkpt>
      <trkpt lat="42.91854" lon="0.85728">
        <ele>1003</ele>
        <time>2018-12-02T14:30:06.000Z</time>
      </trkpt>
      <trkpt lat="42.91855" lon="0.85728">
        <ele>1003</ele>
        <time>2018-12-02T14:30:08.000Z</time>
      </trkpt>
      <trkpt lat="42.91855" lon="0.85729">
        <ele>1003</ele>
        <time>2018-12-02T14:30:10.000Z</time>
      </trkpt>
      <trkpt lat="42.91856" lon="0.8573">
        <ele>1003</ele>
        <time>2018-12-02T14:30:12.000Z</time>
      </trkpt>
      <trkpt lat="42.91855" lon="0.85732">
        <ele>1003</ele>
        <time>2018-12-02T14:30:14.000Z</time>
      </trkpt>
      <trkpt lat="42.91856" lon="0.85733">
        <ele>1003</ele>
        <time>2018-12-02T14:30:16.000Z</time>
      </trkpt>
      <trkpt lat="42.91856" lon="0.85733">
        <ele>1003</ele>
        <time>2018-12-02T14:30:18.000Z</time>
      </trkpt>
      <trkpt lat="42.91855" lon="0.85734">
        <ele>1003</ele>
        <time>2018-12-02T14:30:20.000Z</time>
      </trkpt>
      <trkpt lat="42.91855" lon="0.85734">
        <ele>1002</ele>
        <time>2018-12-02T14:30:22.000Z</time>
      </trkpt>
      <trkpt lat="42.91855" lon="0.85735">
        <ele>1002</ele>
        <time>2018-12-02T14:30:24.000Z</time>
      </trkpt>
      <trkpt lat="42.91854" lon="0.85737">
        <ele>1002</ele>
        <time>2018-12-02T14:30:26.000Z</time>
      </trkpt>
      <trkpt lat="42.91854" lon="0.85738">
        <ele>1001</ele>
        <time>2018-12-02T14:30:28.000Z</time>
      </trkpt>
      <trkpt lat="42.91854" lon="0.85738">
        <ele>1001</ele>
        <time>2018-12-02T14:30:30.000Z</time>
      </trkpt>
      <trkpt lat="42.91854" lon="0.8574">
        <ele>1001</ele>
        <time>2018-12-02T14:30:32.000Z</time>
      </trkpt>
      <trkpt lat="42.91853" lon="0.85741">
        <ele>1000</ele>
        <time>2018-12-02T14:30:34.000Z</time>
      </trkpt>
      <trkpt lat="42.91852" lon="0.85742">
        <ele>1000</ele>
        <time>2018-12-02T14:30:36.000Z</time>
      </trkpt>
      <trkpt lat="42.91853" lon="0.85744">
        <ele>1000</ele>
        <time>2018-12-02T14:30:38.000Z</time>
      </trkpt>
      <trkpt lat="42.91853" lon="0.85746">
        <ele>1000</ele>
        <time>2018-12-02T14:30:40.000Z</time>
      </trkpt>
      <trkpt lat="42.91853" lon="0.85747">
        <ele>999</ele>
        <time>2018-12-02T14:30:42.000Z</time>
      </trkpt>
      <trkpt lat="42.91853" lon="0.85749">
        <ele>999</ele>
        <time>2018-12-02T14:30:44.000Z</time>
      </trkpt>
      <trkpt lat="42.91854" lon="0.85751">
        <ele>999</ele>
        <time>2018-12-02T14:30:46.000Z</time>
      </trkpt>
      <trkpt lat="42.91854" lon="0.85753">
        <ele>999</ele>
        <time>2018-12-02T14:30:48.000Z</time>
      </trkpt>
      <trkpt lat="42.91854" lon="0.85754">
        <ele>999</ele>
        <time>2018-12-02T14:30:50.000Z</time>
      </trkpt>
      <trkpt lat="42.91854" lon="0.85756">
        <ele>998</ele>
        <time>2018-12-02T14:30:52.000Z</time>
      </trkpt>
      <trkpt lat="42.91855" lon="0.85758">
        <ele>999</ele>
        <time>2018-12-02T14:30:54.000Z</time>
      </trkpt>
      <trkpt lat="42.91855" lon="0.85759">
        <ele>999</ele>
        <time>2018-12-02T14:30:56.000Z</time>
      </trkpt>
      <trkpt lat="42.91855" lon="0.85761">
        <ele>999</ele>
        <time>2018-12-02T14:30:58.000Z</time>
      </trkpt>
      <trkpt lat="42.91854" lon="0.85762">
        <ele>998</ele>
        <time>2018-12-02T14:31:00.000Z</time>
      </trkpt>
      <trkpt lat="42.91854" lon="0.85763">
        <ele>998</ele>
        <time>2018-12-02T14:31:02.000Z</time>
      </trkpt>
      <trkpt lat="42.91853" lon="0.85765">
        <ele>997</ele>
        <time>2018-12-02T14:31:04.000Z</time>
      </trkpt>
      <trkpt lat="42.91854" lon="0.85766">
        <ele>997</ele>
        <time>2018-12-02T14:31:06.000Z</time>
      </trkpt>
      <trkpt lat="42.91854" lon="0.85767">
        <ele>997</ele>
        <time>2018-12-02T14:31:08.000Z</time>
      </trkpt>
      <trkpt lat="42.91854" lon="0.8577">
        <ele>997</ele>
        <time>2018-12-02T14:31:10.000Z</time>
      </trkpt>
      <trkpt lat="42.91854" lon="0.85772">
        <ele>996</ele>
        <time>2018-12-02T14:31:12.000Z</time>
      </trkpt>
      <trkpt lat="42.91853" lon="0.85774">
        <ele>996</ele>
        <time>2018-12-02T14:31:14.000Z</time>
      </trkpt>
      <trkpt lat="42.91853" lon="0.85776">
        <ele>995</ele>
        <time>2018-12-02T14:31:16.000Z</time>
      </trkpt>
      <trkpt lat="42.91852" lon="0.85777">
        <ele>995</ele>
        <time>2018-12-02T14:31:18.000Z</time>
      </trkpt>
      <trkpt lat="42.91851" lon="0.8578">
        <ele>994</ele>
        <time>2018-12-02T14:31:20.000Z</time>
      </trkpt>
      <trkpt lat="42.91851" lon="0.85782">
        <ele>993</ele>
        <time>2018-12-02T14:31:22.000Z</time>
      </trkpt>
      <trkpt lat="42.9185" lon="0.85785">
        <ele>992</ele>
        <time>2018-12-02T14:31:24.000Z</time>
      </trkpt>
      <trkpt lat="42.9185" lon="0.85786">
        <ele>992</ele>
        <time>2018-12-02T14:31:26.000Z</time>
      </trkpt>
      <trkpt lat="42.9185" lon="0.85788">
        <ele>991</ele>
        <time>2018-12-02T14:31:28.000Z</time>
      </trkpt>
      <trkpt lat="42.91848" lon="0.8579">
        <ele>991</ele>
        <time>2018-12-02T14:31:30.000Z</time>
      </trkpt>
      <trkpt lat="42.91848" lon="0.85792">
        <ele>990</ele>
        <time>2018-12-02T14:31:32.000Z</time>
      </trkpt>
      <trkpt lat="42.91849" lon="0.85794">
        <ele>990</ele>
        <time>2018-12-02T14:31:34.000Z</time>
      </trkpt>
      <trkpt lat="42.91848" lon="0.85798">
        <ele>989</ele>
        <time>2018-12-02T14:31:36.000Z</time>
      </trkpt>
      <trkpt lat="42.91849" lon="0.85799">
        <ele>990</ele>
        <time>2018-12-02T14:31:38.000Z</time>
      </trkpt>
      <trkpt lat="42.91847" lon="0.85802">
        <ele>988</ele>
        <time>2018-12-02T14:31:40.000Z</time>
      </trkpt>
      <trkpt lat="42.91846" lon="0.85803">
        <ele>987</ele>
        <time>2018-12-02T14:31:42.000Z</time>
      </trkpt>
      <trkpt lat="42.91846" lon="0.85804">
        <ele>987</ele>
        <time>2018-12-02T14:31:44.000Z</time>
      </trkpt>
      <trkpt lat="42.91845" lon="0.85806">
        <ele>986</ele>
        <time>2018-12-02T14:31:46.000Z</time>
      </trkpt>
      <trkpt lat="42.91845" lon="0.85808">
        <ele>986</ele>
        <time>2018-12-02T14:31:48.000Z</time>
      </trkpt>
      <trkpt lat="42.91845" lon="0.8581">
        <ele>985</ele>
        <time>2018-12-02T14:31:50.000Z</time>
      </trkpt>
      <trkpt lat="42.91844" lon="0.85811">
        <ele>985</ele>
        <time>2018-12-02T14:31:52.000Z</time>
      </trkpt>
      <trkpt lat="42.91845" lon="0.85812">
        <ele>985</ele>
        <time>2018-12-02T14:31:54.000Z</time>
      </trkpt>
      <trkpt lat="42.91845" lon="0.85812">
        <ele>985</ele>
        <time>2018-12-02T14:31:56.000Z</time>
      </trkpt>
      <trkpt lat="42.91845" lon="0.85814">
        <ele>985</ele>
        <time>2018-12-02T14:31:58.000Z</time>
      </trkpt>
      <trkpt lat="42.91846" lon="0.85817">
        <ele>985</ele>
        <time>2018-12-02T14:32:00.000Z</time>
      </trkpt>
      <trkpt lat="42.91845" lon="0.85819">
        <ele>984</ele>
        <time>2018-12-02T14:32:02.000Z</time>
      </trkpt>
      <trkpt lat="42.91846" lon="0.85822">
        <ele>984</ele>
        <time>2018-12-02T14:32:04.000Z</time>
      </trkpt>
      <trkpt lat="42.91846" lon="0.85825">
        <ele>984</ele>
        <time>2018-12-02T14:32:06.000Z</time>
      </trkpt>
      <trkpt lat="42.91845" lon="0.85827">
        <ele>984</ele>
        <time>2018-12-02T14:32:08.000Z</time>
      </trkpt>
      <trkpt lat="42.91845" lon="0.85829">
        <ele>983</ele>
        <time>2018-12-02T14:32:10.000Z</time>
      </trkpt>
      <trkpt lat="42.91844" lon="0.85831">
        <ele>982</ele>
        <time>2018-12-02T14:32:12.000Z</time>
      </trkpt>
      <trkpt lat="42.91844" lon="0.85833">
        <ele>982</ele>
        <time>2018-12-02T14:32:14.000Z</time>
      </trkpt>
      <trkpt lat="42.91844" lon="0.85834">
        <ele>982</ele>
        <time>2018-12-02T14:32:16.000Z</time>
      </trkpt>
      <trkpt lat="42.91844" lon="0.85836">
        <ele>981</ele>
        <time>2018-12-02T14:32:18.000Z</time>
      </trkpt>
      <trkpt lat="42.91843" lon="0.85838">
        <ele>980</ele>
        <time>2018-12-02T14:32:20.000Z</time>
      </trkpt>
      <trkpt lat="42.91843" lon="0.8584">
        <ele>980</ele>
        <time>2018-12-02T14:32:22.000Z</time>
      </trkpt>
      <trkpt lat="42.91842" lon="0.85841">
        <ele>979</ele>
        <time>2018-12-02T14:32:24.000Z</time>
      </trkpt>
      <trkpt lat="42.91841" lon="0.85843">
        <ele>978</ele>
        <time>2018-12-02T14:32:26.000Z</time>
      </trkpt>
      <trkpt lat="42.9184" lon="0.85844">
        <ele>978</ele>
        <time>2018-12-02T14:32:28.000Z</time>
      </trkpt>
      <trkpt lat="42.9184" lon="0.85845">
        <ele>978</ele>
        <time>2018-12-02T14:32:30.000Z</time>
      </trkpt>
      <trkpt lat="42.91839" lon="0.85845">
        <ele>977</ele>
        <time>2018-12-02T14:32:32.000Z</time>
      </trkpt>
      <trkpt lat="42.91838" lon="0.85847">
        <ele>976</ele>
        <time>2018-12-02T14:32:34.000Z</time>
      </trkpt>
      <trkpt lat="42.91838" lon="0.85848">
        <ele>976</ele>
        <time>2018-12-02T14:32:36.000Z</time>
      </trkpt>
      <trkpt lat="42.91837" lon="0.8585">
        <ele>975</ele>
        <time>2018-12-02T14:32:38.000Z</time>
      </trkpt>
      <trkpt lat="42.91837" lon="0.85851">
        <ele>975</ele>
        <time>2018-12-02T14:32:40.000Z</time>
      </trkpt>
      <trkpt lat="42.91836" lon="0.85852">
        <ele>974</ele>
        <time>2018-12-02T14:32:42.000Z</time>
      </trkpt>
      <trkpt lat="42.91835" lon="0.85852">
        <ele>973</ele>
        <time>2018-12-02T14:32:44.000Z</time>
      </trkpt>
      <trkpt lat="42.91834" lon="0.85853">
        <ele>973</ele>
        <time>2018-12-02T14:32:46.000Z</time>
      </trkpt>
      <trkpt lat="42.91833" lon="0.85855">
        <ele>972</ele>
        <time>2018-12-02T14:32:48.000Z</time>
      </trkpt>
      <trkpt lat="42.91833" lon="0.85856">
        <ele>972</ele>
        <time>2018-12-02T14:32:50.000Z</time>
      </trkpt>
      <trkpt lat="42.91832" lon="0.85857">
        <ele>971</ele>
        <time>2018-12-02T14:32:52.000Z</time>
      </trkpt>
      <trkpt lat="42.91832" lon="0.85858">
        <ele>971</ele>
        <time>2018-12-02T14:32:54.000Z</time>
      </trkpt>
      <trkpt lat="42.91832" lon="0.8586">
        <ele>971</ele>
        <time>2018-12-02T14:32:56.000Z</time>
      </trkpt>
      <trkpt lat="42.91832" lon="0.85861">
        <ele>971</ele>
        <time>2018-12-02T14:32:58.000Z</time>
      </trkpt>
      <trkpt lat="42.91832" lon="0.85863">
        <ele>971</ele>
        <time>2018-12-02T14:33:00.000Z</time>
      </trkpt>
      <trkpt lat="42.91832" lon="0.85865">
        <ele>970</ele>
        <time>2018-12-02T14:33:02.000Z</time>
      </trkpt>
      <trkpt lat="42.91832" lon="0.85867">
        <ele>970</ele>
        <time>2018-12-02T14:33:04.000Z</time>
      </trkpt>
      <trkpt lat="42.91832" lon="0.85867">
        <ele>970</ele>
        <time>2018-12-02T14:33:06.000Z</time>
      </trkpt>
      <trkpt lat="42.91832" lon="0.85868">
        <ele>970</ele>
        <time>2018-12-02T14:33:08.000Z</time>
      </trkpt>
      <trkpt lat="42.91832" lon="0.85868">
        <ele>970</ele>
        <time>2018-12-02T14:33:10.000Z</time>
      </trkpt>
      <trkpt lat="42.91831" lon="0.85869">
        <ele>969</ele>
        <time>2018-12-02T14:33:12.000Z</time>
      </trkpt>
      <trkpt lat="42.91831" lon="0.85871">
        <ele>969</ele>
        <time>2018-12-02T14:33:14.000Z</time>
      </trkpt>
      <trkpt lat="42.91831" lon="0.85872">
        <ele>969</ele>
        <time>2018-12-02T14:33:16.000Z</time>
      </trkpt>
      <trkpt lat="42.9183" lon="0.85874">
        <ele>968</ele>
        <time>2018-12-02T14:33:18.000Z</time>
      </trkpt>
      <trkpt lat="42.9183" lon="0.85876">
        <ele>968</ele>
        <time>2018-12-02T14:33:20.000Z</time>
      </trkpt>
      <trkpt lat="42.91829" lon="0.85877">
        <ele>967</ele>
        <time>2018-12-02T14:33:22.000Z</time>
      </trkpt>
      <trkpt lat="42.91828" lon="0.85878">
        <ele>966</ele>
        <time>2018-12-02T14:33:24.000Z</time>
      </trkpt>
      <trkpt lat="42.91828" lon="0.85878">
        <ele>966</ele>
        <time>2018-12-02T14:33:26.000Z</time>
      </trkpt>
      <trkpt lat="42.91827" lon="0.85878">
        <ele>965</ele>
        <time>2018-12-02T14:33:28.000Z</time>
      </trkpt>
      <trkpt lat="42.91827" lon="0.85878">
        <ele>965</ele>
        <time>2018-12-02T14:33:30.000Z</time>
      </trkpt>
      <trkpt lat="42.91827" lon="0.85878">
        <ele>965</ele>
        <time>2018-12-02T14:33:32.000Z</time>
      </trkpt>
      <trkpt lat="42.91827" lon="0.85878">
        <ele>965</ele>
        <time>2018-12-02T14:33:34.000Z</time>
      </trkpt>
      <trkpt lat="42.91827" lon="0.85878">
        <ele>966</ele>
        <time>2018-12-02T14:33:36.000Z</time>
      </trkpt>
      <trkpt lat="42.91827" lon="0.85879">
        <ele>966</ele>
        <time>2018-12-02T14:33:38.000Z</time>
      </trkpt>
      <trkpt lat="42.91827" lon="0.85879">
        <ele>965</ele>
        <time>2018-12-02T14:33:40.000Z</time>
      </trkpt>
      <trkpt lat="42.91826" lon="0.8588">
        <ele>965</ele>
        <time>2018-12-02T14:33:42.000Z</time>
      </trkpt>
      <trkpt lat="42.91826" lon="0.85881">
        <ele>965</ele>
        <time>2018-12-02T14:33:44.000Z</time>
      </trkpt>
      <trkpt lat="42.91826" lon="0.85881">
        <ele>965</ele>
        <time>2018-12-02T14:33:46.000Z</time>
      </trkpt>
      <trkpt lat="42.91827" lon="0.85881">
        <ele>965</ele>
        <time>2018-12-02T14:33:48.000Z</time>
      </trkpt>
      <trkpt lat="42.91825" lon="0.85882">
        <ele>964</ele>
        <time>2018-12-02T14:33:50.000Z</time>
      </trkpt>
      <trkpt lat="42.91824" lon="0.85883">
        <ele>964</ele>
        <time>2018-12-02T14:33:52.000Z</time>
      </trkpt>
      <trkpt lat="42.91823" lon="0.85884">
        <ele>963</ele>
        <time>2018-12-02T14:33:54.000Z</time>
      </trkpt>
      <trkpt lat="42.91823" lon="0.85885">
        <ele>963</ele>
        <time>2018-12-02T14:33:56.000Z</time>
      </trkpt>
      <trkpt lat="42.91823" lon="0.85884">
        <ele>963</ele>
        <time>2018-12-02T14:33:58.000Z</time>
      </trkpt>
      <trkpt lat="42.91823" lon="0.85884">
        <ele>963</ele>
        <time>2018-12-02T14:34:00.000Z</time>
      </trkpt>
      <trkpt lat="42.91823" lon="0.85884">
        <ele>963</ele>
        <time>2018-12-02T14:34:02.000Z</time>
      </trkpt>
      <trkpt lat="42.91822" lon="0.85885">
        <ele>963</ele>
        <time>2018-12-02T14:34:04.000Z</time>
      </trkpt>
      <trkpt lat="42.91822" lon="0.85885">
        <ele>962</ele>
        <time>2018-12-02T14:34:06.000Z</time>
      </trkpt>
      <trkpt lat="42.91822" lon="0.85886">
        <ele>962</ele>
        <time>2018-12-02T14:34:08.000Z</time>
      </trkpt>
      <trkpt lat="42.91822" lon="0.85887">
        <ele>962</ele>
        <time>2018-12-02T14:34:10.000Z</time>
      </trkpt>
      <trkpt lat="42.91822" lon="0.85888">
        <ele>962</ele>
        <time>2018-12-02T14:34:12.000Z</time>
      </trkpt>
      <trkpt lat="42.91822" lon="0.85888">
        <ele>962</ele>
        <time>2018-12-02T14:34:14.000Z</time>
      </trkpt>
      <trkpt lat="42.91822" lon="0.85889">
        <ele>962</ele>
        <time>2018-12-02T14:34:16.000Z</time>
      </trkpt>
      <trkpt lat="42.91822" lon="0.85888">
        <ele>962</ele>
        <time>2018-12-02T14:34:18.000Z</time>
      </trkpt>
      <trkpt lat="42.91822" lon="0.85888">
        <ele>962</ele>
        <time>2018-12-02T14:34:20.000Z</time>
      </trkpt>
      <trkpt lat="42.91821" lon="0.85887">
        <ele>962</ele>
        <time>2018-12-02T14:34:22.000Z</time>
      </trkpt>
      <trkpt lat="42.91821" lon="0.85888">
        <ele>962</ele>
        <time>2018-12-02T14:34:24.000Z</time>
      </trkpt>
      <trkpt lat="42.9182" lon="0.85888">
        <ele>961</ele>
        <time>2018-12-02T14:34:26.000Z</time>
      </trkpt>
      <trkpt lat="42.91821" lon="0.85888">
        <ele>961</ele>
        <time>2018-12-02T14:34:28.000Z</time>
      </trkpt>
      <trkpt lat="42.91821" lon="0.85888">
        <ele>962</ele>
        <time>2018-12-02T14:34:30.000Z</time>
      </trkpt>
      <trkpt lat="42.9182" lon="0.85888">
        <ele>961</ele>
        <time>2018-12-02T14:34:32.000Z</time>
      </trkpt>
      <trkpt lat="42.9182" lon="0.85888">
        <ele>961</ele>
        <time>2018-12-02T14:34:34.000Z</time>
      </trkpt>
      <trkpt lat="42.91819" lon="0.85887">
        <ele>961</ele>
        <time>2018-12-02T14:34:36.000Z</time>
      </trkpt>
      <trkpt lat="42.91819" lon="0.85887">
        <ele>961</ele>
        <time>2018-12-02T14:34:38.000Z</time>
      </trkpt>
      <trkpt lat="42.91819" lon="0.85887">
        <ele>961</ele>
        <time>2018-12-02T14:34:40.000Z</time>
      </trkpt>
      <trkpt lat="42.91819" lon="0.85886">
        <ele>961</ele>
        <time>2018-12-02T14:34:42.000Z</time>
      </trkpt>
      <trkpt lat="42.91819" lon="0.85886">
        <ele>961</ele>
        <time>2018-12-02T14:34:44.000Z</time>
      </trkpt>
      <trkpt lat="42.91818" lon="0.85886">
        <ele>960</ele>
        <time>2018-12-02T14:34:46.000Z</time>
      </trkpt>
      <trkpt lat="42.91818" lon="0.85886">
        <ele>960</ele>
        <time>2018-12-02T14:34:48.000Z</time>
      </trkpt>
      <trkpt lat="42.91818" lon="0.85886">
        <ele>960</ele>
        <time>2018-12-02T14:34:50.000Z</time>
      </trkpt>
      <trkpt lat="42.91818" lon="0.85886">
        <ele>960</ele>
        <time>2018-12-02T14:34:52.000Z</time>
      </trkpt>
      <trkpt lat="42.91818" lon="0.85886">
        <ele>960</ele>
        <time>2018-12-02T14:34:54.000Z</time>
      </trkpt>
      <trkpt lat="42.91817" lon="0.85886">
        <ele>960</ele>
        <time>2018-12-02T14:34:56.000Z</time>
      </trkpt>
      <trkpt lat="42.91816" lon="0.85885">
        <ele>959</ele>
        <time>2018-12-02T14:34:58.000Z</time>
      </trkpt>
      <trkpt lat="42.91815" lon="0.85885">
        <ele>958</ele>
        <time>2018-12-02T14:35:00.000Z</time>
      </trkpt>
      <trkpt lat="42.91814" lon="0.85885">
        <ele>958</ele>
        <time>2018-12-02T14:35:02.000Z</time>
      </trkpt>
      <trkpt lat="42.91814" lon="0.85885">
        <ele>958</ele>
        <time>2018-12-02T14:35:04.000Z</time>
      </trkpt>
      <trkpt lat="42.91813" lon="0.85885">
        <ele>958</ele>
        <time>2018-12-02T14:35:06.000Z</time>
      </trkpt>
      <trkpt lat="42.91813" lon="0.85885">
        <ele>957</ele>
        <time>2018-12-02T14:35:08.000Z</time>
      </trkpt>
      <trkpt lat="42.91813" lon="0.85885">
        <ele>957</ele>
        <time>2018-12-02T14:35:10.000Z</time>
      </trkpt>
      <trkpt lat="42.91813" lon="0.85884">
        <ele>957</ele>
        <time>2018-12-02T14:35:12.000Z</time>
      </trkpt>
      <trkpt lat="42.91813" lon="0.85884">
        <ele>958</ele>
        <time>2018-12-02T14:35:14.000Z</time>
      </trkpt>
      <trkpt lat="42.91813" lon="0.85884">
        <ele>958</ele>
        <time>2018-12-02T14:35:16.000Z</time>
      </trkpt>
      <trkpt lat="42.91814" lon="0.85885">
        <ele>958</ele>
        <time>2018-12-02T14:35:18.000Z</time>
      </trkpt>
      <trkpt lat="42.91814" lon="0.85885">
        <ele>958</ele>
        <time>2018-12-02T14:35:20.000Z</time>
      </trkpt>
      <trkpt lat="42.91814" lon="0.85885">
        <ele>958</ele>
        <time>2018-12-02T14:35:22.000Z</time>
      </trkpt>
      <trkpt lat="42.91814" lon="0.85886">
        <ele>958</ele>
        <time>2018-12-02T14:35:24.000Z</time>
      </trkpt>
      <trkpt lat="42.91814" lon="0.85887">
        <ele>958</ele>
        <time>2018-12-02T14:35:26.000Z</time>
      </trkpt>
      <trkpt lat="42.91813" lon="0.85888">
        <ele>958</ele>
        <time>2018-12-02T14:35:28.000Z</time>
      </trkpt>
      <trkpt lat="42.91814" lon="0.85889">
        <ele>958</ele>
        <time>2018-12-02T14:35:30.000Z</time>
      </trkpt>
      <trkpt lat="42.91814" lon="0.8589">
        <ele>958</ele>
        <time>2018-12-02T14:35:32.000Z</time>
      </trkpt>
      <trkpt lat="42.91815" lon="0.85891">
        <ele>958</ele>
        <time>2018-12-02T14:35:34.000Z</time>
      </trkpt>
      <trkpt lat="42.91815" lon="0.85892">
        <ele>958</ele>
        <time>2018-12-02T14:35:36.000Z</time>
      </trkpt>
      <trkpt lat="42.91816" lon="0.85892">
        <ele>958</ele>
        <time>2018-12-02T14:35:38.000Z</time>
      </trkpt>
      <trkpt lat="42.91816" lon="0.85893">
        <ele>958</ele>
        <time>2018-12-02T14:35:40.000Z</time>
      </trkpt>
      <trkpt lat="42.91815" lon="0.85895">
        <ele>958</ele>
        <time>2018-12-02T14:35:42.000Z</time>
      </trkpt>
      <trkpt lat="42.91815" lon="0.85896">
        <ele>957</ele>
        <time>2018-12-02T14:35:44.000Z</time>
      </trkpt>
      <trkpt lat="42.91815" lon="0.85899">
        <ele>957</ele>
        <time>2018-12-02T14:35:46.000Z</time>
      </trkpt>
      <trkpt lat="42.91815" lon="0.85901">
        <ele>956</ele>
        <time>2018-12-02T14:35:48.000Z</time>
      </trkpt>
      <trkpt lat="42.91815" lon="0.85905">
        <ele>956</ele>
        <time>2018-12-02T14:35:50.000Z</time>
      </trkpt>
      <trkpt lat="42.91814" lon="0.85907">
        <ele>956</ele>
        <time>2018-12-02T14:35:52.000Z</time>
      </trkpt>
      <trkpt lat="42.91815" lon="0.85908">
        <ele>956</ele>
        <time>2018-12-02T14:35:54.000Z</time>
      </trkpt>
      <trkpt lat="42.91816" lon="0.8591">
        <ele>956</ele>
        <time>2018-12-02T14:35:56.000Z</time>
      </trkpt>
      <trkpt lat="42.91818" lon="0.85912">
        <ele>956</ele>
        <time>2018-12-02T14:35:58.000Z</time>
      </trkpt>
      <trkpt lat="42.91818" lon="0.85914">
        <ele>957</ele>
        <time>2018-12-02T14:36:00.000Z</time>
      </trkpt>
      <trkpt lat="42.91818" lon="0.85915">
        <ele>956</ele>
        <time>2018-12-02T14:36:02.000Z</time>
      </trkpt>
      <trkpt lat="42.91819" lon="0.85917">
        <ele>956</ele>
        <time>2018-12-02T14:36:04.000Z</time>
      </trkpt>
      <trkpt lat="42.91818" lon="0.85919">
        <ele>956</ele>
        <time>2018-12-02T14:36:06.000Z</time>
      </trkpt>
      <trkpt lat="42.91819" lon="0.8592">
        <ele>956</ele>
        <time>2018-12-02T14:36:08.000Z</time>
      </trkpt>
      <trkpt lat="42.91819" lon="0.85923">
        <ele>956</ele>
        <time>2018-12-02T14:36:10.000Z</time>
      </trkpt>
      <trkpt lat="42.9182" lon="0.85925">
        <ele>956</ele>
        <time>2018-12-02T14:36:12.000Z</time>
      </trkpt>
      <trkpt lat="42.91821" lon="0.85927">
        <ele>956</ele>
        <time>2018-12-02T14:36:14.000Z</time>
      </trkpt>
      <trkpt lat="42.91821" lon="0.8593">
        <ele>956</ele>
        <time>2018-12-02T14:36:16.000Z</time>
      </trkpt>
      <trkpt lat="42.91821" lon="0.85932">
        <ele>955</ele>
        <time>2018-12-02T14:36:18.000Z</time>
      </trkpt>
      <trkpt lat="42.91821" lon="0.85933">
        <ele>955</ele>
        <time>2018-12-02T14:36:20.000Z</time>
      </trkpt>
      <trkpt lat="42.91821" lon="0.85936">
        <ele>955</ele>
        <time>2018-12-02T14:36:22.000Z</time>
      </trkpt>
      <trkpt lat="42.91822" lon="0.85939">
        <ele>955</ele>
        <time>2018-12-02T14:36:24.000Z</time>
      </trkpt>
      <trkpt lat="42.91822" lon="0.85943">
        <ele>954</ele>
        <time>2018-12-02T14:36:26.000Z</time>
      </trkpt>
      <trkpt lat="42.91822" lon="0.85946">
        <ele>954</ele>
        <time>2018-12-02T14:36:28.000Z</time>
      </trkpt>
      <trkpt lat="42.91823" lon="0.85948">
        <ele>954</ele>
        <time>2018-12-02T14:36:30.000Z</time>
      </trkpt>
      <trkpt lat="42.91823" lon="0.85951">
        <ele>954</ele>
        <time>2018-12-02T14:36:32.000Z</time>
      </trkpt>
      <trkpt lat="42.91824" lon="0.85955">
        <ele>954</ele>
        <time>2018-12-02T14:36:34.000Z</time>
      </trkpt>
      <trkpt lat="42.91824" lon="0.85958">
        <ele>953</ele>
        <time>2018-12-02T14:36:36.000Z</time>
      </trkpt>
      <trkpt lat="42.91824" lon="0.85961">
        <ele>953</ele>
        <time>2018-12-02T14:36:38.000Z</time>
      </trkpt>
      <trkpt lat="42.91824" lon="0.85963">
        <ele>953</ele>
        <time>2018-12-02T14:36:40.000Z</time>
      </trkpt>
      <trkpt lat="42.91824" lon="0.85965">
        <ele>953</ele>
        <time>2018-12-02T14:36:42.000Z</time>
      </trkpt>
      <trkpt lat="42.91824" lon="0.85966">
        <ele>953</ele>
        <time>2018-12-02T14:36:44.000Z</time>
      </trkpt>
      <trkpt lat="42.91824" lon="0.85967">
        <ele>952</ele>
        <time>2018-12-02T14:36:46.000Z</time>
      </trkpt>
      <trkpt lat="42.91823" lon="0.85967">
        <ele>952</ele>
        <time>2018-12-02T14:36:48.000Z</time>
      </trkpt>
      <trkpt lat="42.91824" lon="0.85969">
        <ele>952</ele>
        <time>2018-12-02T14:36:50.000Z</time>
      </trkpt>
      <trkpt lat="42.91823" lon="0.8597">
        <ele>952</ele>
        <time>2018-12-02T14:36:52.000Z</time>
      </trkpt>
      <trkpt lat="42.91823" lon="0.85972">
        <ele>952</ele>
        <time>2018-12-02T14:36:54.000Z</time>
      </trkpt>
      <trkpt lat="42.91822" lon="0.85972">
        <ele>951</ele>
        <time>2018-12-02T14:36:56.000Z</time>
      </trkpt>
      <trkpt lat="42.91821" lon="0.85973">
        <ele>951</ele>
        <time>2018-12-02T14:36:58.000Z</time>
      </trkpt>
      <trkpt lat="42.91821" lon="0.85974">
        <ele>950</ele>
        <time>2018-12-02T14:37:00.000Z</time>
      </trkpt>
      <trkpt lat="42.9182" lon="0.85976">
        <ele>949</ele>
        <time>2018-12-02T14:37:02.000Z</time>
      </trkpt>
      <trkpt lat="42.91819" lon="0.85977">
        <ele>949</ele>
        <time>2018-12-02T14:37:04.000Z</time>
      </trkpt>
      <trkpt lat="42.91819" lon="0.85979">
        <ele>949</ele>
        <time>2018-12-02T14:37:06.000Z</time>
      </trkpt>
      <trkpt lat="42.91819" lon="0.85979">
        <ele>949</ele>
        <time>2018-12-02T14:37:08.000Z</time>
      </trkpt>
      <trkpt lat="42.91818" lon="0.85979">
        <ele>948</ele>
        <time>2018-12-02T14:37:10.000Z</time>
      </trkpt>
      <trkpt lat="42.91819" lon="0.85979">
        <ele>949</ele>
        <time>2018-12-02T14:37:12.000Z</time>
      </trkpt>
      <trkpt lat="42.9182" lon="0.85979">
        <ele>949</ele>
        <time>2018-12-02T14:37:14.000Z</time>
      </trkpt>
      <trkpt lat="42.9182" lon="0.85979">
        <ele>949</ele>
        <time>2018-12-02T14:37:16.000Z</time>
      </trkpt>
      <trkpt lat="42.9182" lon="0.85979">
        <ele>949</ele>
        <time>2018-12-02T14:37:18.000Z</time>
      </trkpt>
      <trkpt lat="42.9182" lon="0.8598">
        <ele>949</ele>
        <time>2018-12-02T14:37:20.000Z</time>
      </trkpt>
      <trkpt lat="42.9182" lon="0.8598">
        <ele>949</ele>
        <time>2018-12-02T14:37:22.000Z</time>
      </trkpt>
      <trkpt lat="42.91821" lon="0.85981">
        <ele>949</ele>
        <time>2018-12-02T14:37:24.000Z</time>
      </trkpt>
      <trkpt lat="42.9182" lon="0.85982">
        <ele>949</ele>
        <time>2018-12-02T14:37:26.000Z</time>
      </trkpt>
      <trkpt lat="42.9182" lon="0.85982">
        <ele>948</ele>
        <time>2018-12-02T14:37:28.000Z</time>
      </trkpt>
      <trkpt lat="42.9182" lon="0.85982">
        <ele>948</ele>
        <time>2018-12-02T14:37:30.000Z</time>
      </trkpt>
      <trkpt lat="42.9182" lon="0.85982">
        <ele>949</ele>
        <time>2018-12-02T14:37:32.000Z</time>
      </trkpt>
      <trkpt lat="42.9182" lon="0.85983">
        <ele>949</ele>
        <time>2018-12-02T14:37:34.000Z</time>
      </trkpt>
      <trkpt lat="42.9182" lon="0.85981">
        <ele>948</ele>
        <time>2018-12-02T14:37:36.000Z</time>
      </trkpt>
      <trkpt lat="42.9182" lon="0.85981">
        <ele>948</ele>
        <time>2018-12-02T14:37:38.000Z</time>
      </trkpt>
      <trkpt lat="42.91819" lon="0.8598">
        <ele>949</ele>
        <time>2018-12-02T14:37:40.000Z</time>
      </trkpt>
      <trkpt lat="42.9182" lon="0.85979">
        <ele>949</ele>
        <time>2018-12-02T14:37:42.000Z</time>
      </trkpt>
      <trkpt lat="42.9182" lon="0.85978">
        <ele>949</ele>
        <time>2018-12-02T14:37:44.000Z</time>
      </trkpt>
      <trkpt lat="42.9182" lon="0.85977">
        <ele>949</ele>
        <time>2018-12-02T14:37:46.000Z</time>
      </trkpt>
      <trkpt lat="42.9182" lon="0.85978">
        <ele>949</ele>
        <time>2018-12-02T14:37:48.000Z</time>
      </trkpt>
      <trkpt lat="42.91821" lon="0.85979">
        <ele>949</ele>
        <time>2018-12-02T14:37:50.000Z</time>
      </trkpt>
      <trkpt lat="42.9182" lon="0.85981">
        <ele>949</ele>
        <time>2018-12-02T14:37:52.000Z</time>
      </trkpt>
      <trkpt lat="42.91819" lon="0.85983">
        <ele>948</ele>
        <time>2018-12-02T14:37:54.000Z</time>
      </trkpt>
      <trkpt lat="42.91819" lon="0.85984">
        <ele>947</ele>
        <time>2018-12-02T14:37:56.000Z</time>
      </trkpt>
      <trkpt lat="42.91818" lon="0.85987">
        <ele>947</ele>
        <time>2018-12-02T14:37:58.000Z</time>
      </trkpt>
      <trkpt lat="42.91817" lon="0.8599">
        <ele>946</ele>
        <time>2018-12-02T14:38:01.000Z</time>
      </trkpt>
      <trkpt lat="42.91816" lon="0.85992">
        <ele>945</ele>
        <time>2018-12-02T14:38:03.000Z</time>
      </trkpt>
      <trkpt lat="42.91815" lon="0.85994">
        <ele>944</ele>
        <time>2018-12-02T14:38:05.000Z</time>
      </trkpt>
      <trkpt lat="42.91814" lon="0.85996">
        <ele>944</ele>
        <time>2018-12-02T14:38:07.000Z</time>
      </trkpt>
      <trkpt lat="42.91814" lon="0.85999">
        <ele>943</ele>
        <time>2018-12-02T14:38:09.000Z</time>
      </trkpt>
      <trkpt lat="42.91814" lon="0.86001">
        <ele>943</ele>
        <time>2018-12-02T14:38:11.000Z</time>
      </trkpt>
      <trkpt lat="42.91814" lon="0.86003">
        <ele>942</ele>
        <time>2018-12-02T14:38:13.000Z</time>
      </trkpt>
      <trkpt lat="42.91814" lon="0.86006">
        <ele>942</ele>
        <time>2018-12-02T14:38:15.000Z</time>
      </trkpt>
      <trkpt lat="42.91814" lon="0.86007">
        <ele>942</ele>
        <time>2018-12-02T14:38:17.000Z</time>
      </trkpt>
      <trkpt lat="42.91814" lon="0.86008">
        <ele>941</ele>
        <time>2018-12-02T14:38:19.000Z</time>
      </trkpt>
      <trkpt lat="42.91813" lon="0.8601">
        <ele>941</ele>
        <time>2018-12-02T14:38:21.000Z</time>
      </trkpt>
      <trkpt lat="42.91813" lon="0.86011">
        <ele>940</ele>
        <time>2018-12-02T14:38:23.000Z</time>
      </trkpt>
      <trkpt lat="42.91812" lon="0.86014">
        <ele>940</ele>
        <time>2018-12-02T14:38:25.000Z</time>
      </trkpt>
      <trkpt lat="42.91812" lon="0.86017">
        <ele>939</ele>
        <time>2018-12-02T14:38:27.000Z</time>
      </trkpt>
      <trkpt lat="42.91812" lon="0.86019">
        <ele>939</ele>
        <time>2018-12-02T14:38:29.000Z</time>
      </trkpt>
      <trkpt lat="42.91811" lon="0.86022">
        <ele>938</ele>
        <time>2018-12-02T14:38:31.000Z</time>
      </trkpt>
      <trkpt lat="42.91811" lon="0.86025">
        <ele>937</ele>
        <time>2018-12-02T14:38:33.000Z</time>
      </trkpt>
      <trkpt lat="42.91811" lon="0.86029">
        <ele>937</ele>
        <time>2018-12-02T14:38:35.000Z</time>
      </trkpt>
      <trkpt lat="42.9181" lon="0.86031">
        <ele>936</ele>
        <time>2018-12-02T14:38:37.000Z</time>
      </trkpt>
      <trkpt lat="42.91809" lon="0.86034">
        <ele>935</ele>
        <time>2018-12-02T14:38:39.000Z</time>
      </trkpt>
      <trkpt lat="42.91809" lon="0.86036">
        <ele>935</ele>
        <time>2018-12-02T14:38:41.000Z</time>
      </trkpt>
      <trkpt lat="42.91808" lon="0.86037">
        <ele>935</ele>
        <time>2018-12-02T14:38:43.000Z</time>
      </trkpt>
      <trkpt lat="42.91808" lon="0.86038">
        <ele>934</ele>
        <time>2018-12-02T14:38:45.000Z</time>
      </trkpt>
      <trkpt lat="42.91807" lon="0.8604">
        <ele>934</ele>
        <time>2018-12-02T14:38:47.000Z</time>
      </trkpt>
      <trkpt lat="42.91807" lon="0.86041">
        <ele>934</ele>
        <time>2018-12-02T14:38:49.000Z</time>
      </trkpt>
      <trkpt lat="42.91807" lon="0.86043">
        <ele>934</ele>
        <time>2018-12-02T14:38:51.000Z</time>
      </trkpt>
      <trkpt lat="42.91807" lon="0.86044">
        <ele>934</ele>
        <time>2018-12-02T14:38:53.000Z</time>
      </trkpt>
      <trkpt lat="42.91807" lon="0.86046">
        <ele>933</ele>
        <time>2018-12-02T14:38:55.000Z</time>
      </trkpt>
      <trkpt lat="42.91808" lon="0.86048">
        <ele>934</ele>
        <time>2018-12-02T14:38:57.000Z</time>
      </trkpt>
      <trkpt lat="42.91808" lon="0.8605">
        <ele>933</ele>
        <time>2018-12-02T14:38:59.000Z</time>
      </trkpt>
      <trkpt lat="42.91808" lon="0.86051">
        <ele>933</ele>
        <time>2018-12-02T14:39:01.000Z</time>
      </trkpt>
      <trkpt lat="42.91808" lon="0.86052">
        <ele>933</ele>
        <time>2018-12-02T14:39:03.000Z</time>
      </trkpt>
      <trkpt lat="42.91807" lon="0.86053">
        <ele>932</ele>
        <time>2018-12-02T14:39:05.000Z</time>
      </trkpt>
      <trkpt lat="42.91807" lon="0.86056">
        <ele>932</ele>
        <time>2018-12-02T14:39:07.000Z</time>
      </trkpt>
      <trkpt lat="42.91807" lon="0.86058">
        <ele>932</ele>
        <time>2018-12-02T14:39:09.000Z</time>
      </trkpt>
      <trkpt lat="42.91808" lon="0.86061">
        <ele>932</ele>
        <time>2018-12-02T14:39:11.000Z</time>
      </trkpt>
      <trkpt lat="42.91807" lon="0.86064">
        <ele>931</ele>
        <time>2018-12-02T14:39:13.000Z</time>
      </trkpt>
      <trkpt lat="42.91807" lon="0.86067">
        <ele>931</ele>
        <time>2018-12-02T14:39:15.000Z</time>
      </trkpt>
      <trkpt lat="42.91806" lon="0.86069">
        <ele>931</ele>
        <time>2018-12-02T14:39:17.000Z</time>
      </trkpt>
      <trkpt lat="42.91807" lon="0.86071">
        <ele>931</ele>
        <time>2018-12-02T14:39:19.000Z</time>
      </trkpt>
      <trkpt lat="42.91807" lon="0.86074">
        <ele>931</ele>
        <time>2018-12-02T14:39:21.000Z</time>
      </trkpt>
      <trkpt lat="42.91807" lon="0.86076">
        <ele>930</ele>
        <time>2018-12-02T14:39:23.000Z</time>
      </trkpt>
      <trkpt lat="42.91808" lon="0.86078">
        <ele>931</ele>
        <time>2018-12-02T14:39:25.000Z</time>
      </trkpt>
      <trkpt lat="42.91809" lon="0.86081">
        <ele>931</ele>
        <time>2018-12-02T14:39:27.000Z</time>
      </trkpt>
      <trkpt lat="42.91809" lon="0.86083">
        <ele>931</ele>
        <time>2018-12-02T14:39:29.000Z</time>
      </trkpt>
      <trkpt lat="42.9181" lon="0.86086">
        <ele>931</ele>
        <time>2018-12-02T14:39:31.000Z</time>
      </trkpt>
      <trkpt lat="42.91811" lon="0.86088">
        <ele>931</ele>
        <time>2018-12-02T14:39:33.000Z</time>
      </trkpt>
      <trkpt lat="42.91811" lon="0.86091">
        <ele>931</ele>
        <time>2018-12-02T14:39:35.000Z</time>
      </trkpt>
      <trkpt lat="42.91811" lon="0.86093">
        <ele>931</ele>
        <time>2018-12-02T14:39:37.000Z</time>
      </trkpt>
      <trkpt lat="42.91811" lon="0.86094">
        <ele>930</ele>
        <time>2018-12-02T14:39:39.000Z</time>
      </trkpt>
      <trkpt lat="42.9181" lon="0.86096">
        <ele>930</ele>
        <time>2018-12-02T14:39:41.000Z</time>
      </trkpt>
      <trkpt lat="42.9181" lon="0.86098">
        <ele>929</ele>
        <time>2018-12-02T14:39:43.000Z</time>
      </trkpt>
      <trkpt lat="42.9181" lon="0.861">
        <ele>929</ele>
        <time>2018-12-02T14:39:45.000Z</time>
      </trkpt>
      <trkpt lat="42.9181" lon="0.86102">
        <ele>929</ele>
        <time>2018-12-02T14:39:47.000Z</time>
      </trkpt>
      <trkpt lat="42.9181" lon="0.86104">
        <ele>929</ele>
        <time>2018-12-02T14:39:49.000Z</time>
      </trkpt>
      <trkpt lat="42.9181" lon="0.86105">
        <ele>929</ele>
        <time>2018-12-02T14:39:51.000Z</time>
      </trkpt>
      <trkpt lat="42.91809" lon="0.86106">
        <ele>928</ele>
        <time>2018-12-02T14:39:53.000Z</time>
      </trkpt>
      <trkpt lat="42.91809" lon="0.86108">
        <ele>928</ele>
        <time>2018-12-02T14:39:55.000Z</time>
      </trkpt>
      <trkpt lat="42.9181" lon="0.86109">
        <ele>928</ele>
        <time>2018-12-02T14:39:57.000Z</time>
      </trkpt>
      <trkpt lat="42.9181" lon="0.8611">
        <ele>928</ele>
        <time>2018-12-02T14:39:59.000Z</time>
      </trkpt>
      <trkpt lat="42.9181" lon="0.86112">
        <ele>928</ele>
        <time>2018-12-02T14:40:01.000Z</time>
      </trkpt>
      <trkpt lat="42.91811" lon="0.86114">
        <ele>929</ele>
        <time>2018-12-02T14:40:03.000Z</time>
      </trkpt>
      <trkpt lat="42.9181" lon="0.86115">
        <ele>928</ele>
        <time>2018-12-02T14:40:05.000Z</time>
      </trkpt>
      <trkpt lat="42.9181" lon="0.86116">
        <ele>928</ele>
        <time>2018-12-02T14:40:07.000Z</time>
      </trkpt>
      <trkpt lat="42.91809" lon="0.86116">
        <ele>928</ele>
        <time>2018-12-02T14:40:09.000Z</time>
      </trkpt>
      <trkpt lat="42.91808" lon="0.86116">
        <ele>928</ele>
        <time>2018-12-02T14:40:11.000Z</time>
      </trkpt>
      <trkpt lat="42.91808" lon="0.86115">
        <ele>927</ele>
        <time>2018-12-02T14:40:13.000Z</time>
      </trkpt>
      <trkpt lat="42.91807" lon="0.86114">
        <ele>927</ele>
        <time>2018-12-02T14:40:15.000Z</time>
      </trkpt>
      <trkpt lat="42.91806" lon="0.86113">
        <ele>927</ele>
        <time>2018-12-02T14:40:17.000Z</time>
      </trkpt>
      <trkpt lat="42.91806" lon="0.86113">
        <ele>927</ele>
        <time>2018-12-02T14:40:19.000Z</time>
      </trkpt>
      <trkpt lat="42.91805" lon="0.86112">
        <ele>926</ele>
        <time>2018-12-02T14:40:21.000Z</time>
      </trkpt>
      <trkpt lat="42.91804" lon="0.86112">
        <ele>926</ele>
        <time>2018-12-02T14:40:23.000Z</time>
      </trkpt>
      <trkpt lat="42.91803" lon="0.86111">
        <ele>926</ele>
        <time>2018-12-02T14:40:25.000Z</time>
      </trkpt>
      <trkpt lat="42.91802" lon="0.86112">
        <ele>925</ele>
        <time>2018-12-02T14:40:27.000Z</time>
      </trkpt>
      <trkpt lat="42.91801" lon="0.86112">
        <ele>925</ele>
        <time>2018-12-02T14:40:29.000Z</time>
      </trkpt>
      <trkpt lat="42.91801" lon="0.8611">
        <ele>925</ele>
        <time>2018-12-02T14:40:31.000Z</time>
      </trkpt>
      <trkpt lat="42.918" lon="0.8611">
        <ele>925</ele>
        <time>2018-12-02T14:40:33.000Z</time>
      </trkpt>
      <trkpt lat="42.918" lon="0.8611">
        <ele>924</ele>
        <time>2018-12-02T14:40:35.000Z</time>
      </trkpt>
      <trkpt lat="42.918" lon="0.86111">
        <ele>924</ele>
        <time>2018-12-02T14:40:37.000Z</time>
      </trkpt>
      <trkpt lat="42.918" lon="0.86111">
        <ele>924</ele>
        <time>2018-12-02T14:40:39.000Z</time>
      </trkpt>
      <trkpt lat="42.918" lon="0.86112">
        <ele>924</ele>
        <time>2018-12-02T14:40:41.000Z</time>
      </trkpt>
      <trkpt lat="42.91799" lon="0.86113">
        <ele>924</ele>
        <time>2018-12-02T14:40:43.000Z</time>
      </trkpt>
      <trkpt lat="42.91797" lon="0.86114">
        <ele>923</ele>
        <time>2018-12-02T14:40:45.000Z</time>
      </trkpt>
      <trkpt lat="42.91796" lon="0.86113">
        <ele>923</ele>
        <time>2018-12-02T14:40:47.000Z</time>
      </trkpt>
      <trkpt lat="42.91795" lon="0.86112">
        <ele>923</ele>
        <time>2018-12-02T14:40:49.000Z</time>
      </trkpt>
      <trkpt lat="42.91795" lon="0.86113">
        <ele>923</ele>
        <time>2018-12-02T14:40:51.000Z</time>
      </trkpt>
      <trkpt lat="42.91794" lon="0.86112">
        <ele>922</ele>
        <time>2018-12-02T14:40:53.000Z</time>
      </trkpt>
      <trkpt lat="42.91795" lon="0.86112">
        <ele>923</ele>
        <time>2018-12-02T14:40:55.000Z</time>
      </trkpt>
      <trkpt lat="42.91795" lon="0.86111">
        <ele>922</ele>
        <time>2018-12-02T14:40:57.000Z</time>
      </trkpt>
      <trkpt lat="42.91794" lon="0.8611">
        <ele>922</ele>
        <time>2018-12-02T14:40:59.000Z</time>
      </trkpt>
      <trkpt lat="42.91793" lon="0.8611">
        <ele>922</ele>
        <time>2018-12-02T14:41:01.000Z</time>
      </trkpt>
      <trkpt lat="42.91792" lon="0.86111">
        <ele>921</ele>
        <time>2018-12-02T14:41:03.000Z</time>
      </trkpt>
      <trkpt lat="42.91792" lon="0.86112">
        <ele>921</ele>
        <time>2018-12-02T14:41:05.000Z</time>
      </trkpt>
      <trkpt lat="42.91791" lon="0.86113">
        <ele>921</ele>
        <time>2018-12-02T14:41:07.000Z</time>
      </trkpt>
      <trkpt lat="42.9179" lon="0.86113">
        <ele>921</ele>
        <time>2018-12-02T14:41:09.000Z</time>
      </trkpt>
      <trkpt lat="42.91789" lon="0.86114">
        <ele>920</ele>
        <time>2018-12-02T14:41:11.000Z</time>
      </trkpt>
      <trkpt lat="42.91788" lon="0.86114">
        <ele>920</ele>
        <time>2018-12-02T14:41:13.000Z</time>
      </trkpt>
      <trkpt lat="42.91788" lon="0.86115">
        <ele>920</ele>
        <time>2018-12-02T14:41:15.000Z</time>
      </trkpt>
      <trkpt lat="42.91787" lon="0.86116">
        <ele>919</ele>
        <time>2018-12-02T14:41:17.000Z</time>
      </trkpt>
      <trkpt lat="42.91786" lon="0.86116">
        <ele>919</ele>
        <time>2018-12-02T14:41:19.000Z</time>
      </trkpt>
      <trkpt lat="42.91785" lon="0.86116">
        <ele>918</ele>
        <time>2018-12-02T14:41:21.000Z</time>
      </trkpt>
      <trkpt lat="42.91784" lon="0.86116">
        <ele>918</ele>
        <time>2018-12-02T14:41:23.000Z</time>
      </trkpt>
      <trkpt lat="42.91782" lon="0.86116">
        <ele>918</ele>
        <time>2018-12-02T14:41:25.000Z</time>
      </trkpt>
      <trkpt lat="42.91781" lon="0.86116">
        <ele>917</ele>
        <time>2018-12-02T14:41:27.000Z</time>
      </trkpt>
      <trkpt lat="42.9178" lon="0.86116">
        <ele>917</ele>
        <time>2018-12-02T14:41:29.000Z</time>
      </trkpt>
      <trkpt lat="42.9178" lon="0.86117">
        <ele>917</ele>
        <time>2018-12-02T14:41:31.000Z</time>
      </trkpt>
      <trkpt lat="42.91779" lon="0.86117">
        <ele>916</ele>
        <time>2018-12-02T14:41:33.000Z</time>
      </trkpt>
      <trkpt lat="42.91778" lon="0.86118">
        <ele>916</ele>
        <time>2018-12-02T14:41:35.000Z</time>
      </trkpt>
      <trkpt lat="42.91778" lon="0.86118">
        <ele>916</ele>
        <time>2018-12-02T14:41:37.000Z</time>
      </trkpt>
      <trkpt lat="42.91777" lon="0.86118">
        <ele>916</ele>
        <time>2018-12-02T14:41:39.000Z</time>
      </trkpt>
      <trkpt lat="42.91777" lon="0.86118">
        <ele>915</ele>
        <time>2018-12-02T14:41:41.000Z</time>
      </trkpt>
      <trkpt lat="42.91776" lon="0.86119">
        <ele>915</ele>
        <time>2018-12-02T14:41:43.000Z</time>
      </trkpt>
      <trkpt lat="42.91776" lon="0.86119">
        <ele>915</ele>
        <time>2018-12-02T14:41:45.000Z</time>
      </trkpt>
      <trkpt lat="42.91774" lon="0.8612">
        <ele>914</ele>
        <time>2018-12-02T14:41:47.000Z</time>
      </trkpt>
      <trkpt lat="42.91773" lon="0.86121">
        <ele>914</ele>
        <time>2018-12-02T14:41:49.000Z</time>
      </trkpt>
      <trkpt lat="42.91773" lon="0.86121">
        <ele>914</ele>
        <time>2018-12-02T14:41:51.000Z</time>
      </trkpt>
      <trkpt lat="42.91771" lon="0.86123">
        <ele>913</ele>
        <time>2018-12-02T14:41:53.000Z</time>
      </trkpt>
      <trkpt lat="42.9177" lon="0.86124">
        <ele>913</ele>
        <time>2018-12-02T14:41:55.000Z</time>
      </trkpt>
      <trkpt lat="42.91769" lon="0.86125">
        <ele>912</ele>
        <time>2018-12-02T14:41:57.000Z</time>
      </trkpt>
      <trkpt lat="42.91768" lon="0.86127">
        <ele>912</ele>
        <time>2018-12-02T14:41:59.000Z</time>
      </trkpt>
      <trkpt lat="42.91767" lon="0.86127">
        <ele>911</ele>
        <time>2018-12-02T14:42:01.000Z</time>
      </trkpt>
      <trkpt lat="42.91766" lon="0.86128">
        <ele>911</ele>
        <time>2018-12-02T14:42:03.000Z</time>
      </trkpt>
      <trkpt lat="42.91764" lon="0.86128">
        <ele>910</ele>
        <time>2018-12-02T14:42:05.000Z</time>
      </trkpt>
      <trkpt lat="42.91763" lon="0.86128">
        <ele>910</ele>
        <time>2018-12-02T14:42:07.000Z</time>
      </trkpt>
      <trkpt lat="42.91762" lon="0.86128">
        <ele>909</ele>
        <time>2018-12-02T14:42:09.000Z</time>
      </trkpt>
      <trkpt lat="42.91761" lon="0.86128">
        <ele>909</ele>
        <time>2018-12-02T14:42:11.000Z</time>
      </trkpt>
      <trkpt lat="42.91761" lon="0.86129">
        <ele>909</ele>
        <time>2018-12-02T14:42:13.000Z</time>
      </trkpt>
      <trkpt lat="42.91759" lon="0.86129">
        <ele>908</ele>
        <time>2018-12-02T14:42:15.000Z</time>
      </trkpt>
      <trkpt lat="42.91758" lon="0.8613">
        <ele>908</ele>
        <time>2018-12-02T14:42:17.000Z</time>
      </trkpt>
      <trkpt lat="42.91757" lon="0.8613">
        <ele>907</ele>
        <time>2018-12-02T14:42:19.000Z</time>
      </trkpt>
      <trkpt lat="42.91757" lon="0.86131">
        <ele>907</ele>
        <time>2018-12-02T14:42:21.000Z</time>
      </trkpt>
      <trkpt lat="42.91756" lon="0.86131">
        <ele>907</ele>
        <time>2018-12-02T14:42:23.000Z</time>
      </trkpt>
      <trkpt lat="42.91755" lon="0.86131">
        <ele>907</ele>
        <time>2018-12-02T14:42:25.000Z</time>
      </trkpt>
      <trkpt lat="42.91754" lon="0.86131">
        <ele>906</ele>
        <time>2018-12-02T14:42:27.000Z</time>
      </trkpt>
      <trkpt lat="42.91753" lon="0.8613">
        <ele>906</ele>
        <time>2018-12-02T14:42:29.000Z</time>
      </trkpt>
      <trkpt lat="42.91753" lon="0.8613">
        <ele>906</ele>
        <time>2018-12-02T14:42:31.000Z</time>
      </trkpt>
      <trkpt lat="42.91752" lon="0.86131">
        <ele>905</ele>
        <time>2018-12-02T14:42:33.000Z</time>
      </trkpt>
      <trkpt lat="42.91752" lon="0.86131">
        <ele>905</ele>
        <time>2018-12-02T14:42:35.000Z</time>
      </trkpt>
      <trkpt lat="42.91751" lon="0.86131">
        <ele>905</ele>
        <time>2018-12-02T14:42:37.000Z</time>
      </trkpt>
      <trkpt lat="42.91751" lon="0.86131">
        <ele>905</ele>
        <time>2018-12-02T14:42:39.000Z</time>
      </trkpt>
      <trkpt lat="42.9175" lon="0.8613">
        <ele>905</ele>
        <time>2018-12-02T14:42:41.000Z</time>
      </trkpt>
      <trkpt lat="42.9175" lon="0.8613">
        <ele>905</ele>
        <time>2018-12-02T14:42:43.000Z</time>
      </trkpt>
      <trkpt lat="42.9175" lon="0.8613">
        <ele>905</ele>
        <time>2018-12-02T14:42:45.000Z</time>
      </trkpt>
      <trkpt lat="42.9175" lon="0.86129">
        <ele>905</ele>
        <time>2018-12-02T14:42:47.000Z</time>
      </trkpt>
      <trkpt lat="42.9175" lon="0.8613">
        <ele>905</ele>
        <time>2018-12-02T14:42:49.000Z</time>
      </trkpt>
      <trkpt lat="42.91751" lon="0.8613">
        <ele>905</ele>
        <time>2018-12-02T14:42:51.000Z</time>
      </trkpt>
      <trkpt lat="42.91752" lon="0.8613">
        <ele>906</ele>
        <time>2018-12-02T14:42:53.000Z</time>
      </trkpt>
      <trkpt lat="42.91752" lon="0.8613">
        <ele>906</ele>
        <time>2018-12-02T14:42:55.000Z</time>
      </trkpt>
      <trkpt lat="42.91753" lon="0.8613">
        <ele>906</ele>
        <time>2018-12-02T14:42:57.000Z</time>
      </trkpt>
      <trkpt lat="42.91755" lon="0.86128">
        <ele>907</ele>
        <time>2018-12-02T14:42:59.000Z</time>
      </trkpt>
      <trkpt lat="42.91755" lon="0.86127">
        <ele>907</ele>
        <time>2018-12-02T14:43:01.000Z</time>
      </trkpt>
      <trkpt lat="42.91756" lon="0.86126">
        <ele>907</ele>
        <time>2018-12-02T14:43:03.000Z</time>
      </trkpt>
      <trkpt lat="42.91756" lon="0.86126">
        <ele>907</ele>
        <time>2018-12-02T14:43:05.000Z</time>
      </trkpt>
      <trkpt lat="42.91756" lon="0.86125">
        <ele>907</ele>
        <time>2018-12-02T14:43:07.000Z</time>
      </trkpt>
      <trkpt lat="42.91756" lon="0.86125">
        <ele>907</ele>
        <time>2018-12-02T14:43:09.000Z</time>
      </trkpt>
      <trkpt lat="42.91756" lon="0.86125">
        <ele>907</ele>
        <time>2018-12-02T14:43:11.000Z</time>
      </trkpt>
      <trkpt lat="42.91755" lon="0.86124">
        <ele>907</ele>
        <time>2018-12-02T14:43:13.000Z</time>
      </trkpt>
      <trkpt lat="42.91755" lon="0.86125">
        <ele>907</ele>
        <time>2018-12-02T14:43:15.000Z</time>
      </trkpt>
      <trkpt lat="42.91755" lon="0.86125">
        <ele>907</ele>
        <time>2018-12-02T14:43:17.000Z</time>
      </trkpt>
      <trkpt lat="42.91755" lon="0.86125">
        <ele>907</ele>
        <time>2018-12-02T14:43:19.000Z</time>
      </trkpt>
      <trkpt lat="42.91755" lon="0.86125">
        <ele>907</ele>
        <time>2018-12-02T14:43:21.000Z</time>
      </trkpt>
      <trkpt lat="42.91755" lon="0.86125">
        <ele>907</ele>
        <time>2018-12-02T14:43:23.000Z</time>
      </trkpt>
      <trkpt lat="42.91754" lon="0.86124">
        <ele>906</ele>
        <time>2018-12-02T14:43:25.000Z</time>
      </trkpt>
      <trkpt lat="42.91754" lon="0.86124">
        <ele>906</ele>
        <time>2018-12-02T14:43:27.000Z</time>
      </trkpt>
      <trkpt lat="42.91754" lon="0.86124">
        <ele>906</ele>
        <time>2018-12-02T14:43:29.000Z</time>
      </trkpt>
      <trkpt lat="42.91752" lon="0.86125">
        <ele>906</ele>
        <time>2018-12-02T14:43:31.000Z</time>
      </trkpt>
      <trkpt lat="42.91751" lon="0.86126">
        <ele>905</ele>
        <time>2018-12-02T14:43:33.000Z</time>
      </trkpt>
      <trkpt lat="42.9175" lon="0.86126">
        <ele>904</ele>
        <time>2018-12-02T14:43:35.000Z</time>
      </trkpt>
      <trkpt lat="42.91748" lon="0.86128">
        <ele>904</ele>
        <time>2018-12-02T14:43:37.000Z</time>
      </trkpt>
      <trkpt lat="42.91748" lon="0.86128">
        <ele>904</ele>
        <time>2018-12-02T14:43:39.000Z</time>
      </trkpt>
      <trkpt lat="42.91747" lon="0.86128">
        <ele>904</ele>
        <time>2018-12-02T14:43:41.000Z</time>
      </trkpt>
      <trkpt lat="42.91747" lon="0.86128">
        <ele>903</ele>
        <time>2018-12-02T14:43:43.000Z</time>
      </trkpt>
      <trkpt lat="42.91747" lon="0.86128">
        <ele>904</ele>
        <time>2018-12-02T14:43:45.000Z</time>
      </trkpt>
      <trkpt lat="42.91746" lon="0.86129">
        <ele>903</ele>
        <time>2018-12-02T14:43:47.000Z</time>
      </trkpt>
      <trkpt lat="42.91746" lon="0.86129">
        <ele>903</ele>
        <time>2018-12-02T14:43:49.000Z</time>
      </trkpt>
      <trkpt lat="42.91746" lon="0.86129">
        <ele>903</ele>
        <time>2018-12-02T14:43:51.000Z</time>
      </trkpt>
      <trkpt lat="42.91745" lon="0.86129">
        <ele>903</ele>
        <time>2018-12-02T14:43:53.000Z</time>
      </trkpt>
      <trkpt lat="42.91745" lon="0.86129">
        <ele>903</ele>
        <time>2018-12-02T14:43:55.000Z</time>
      </trkpt>
      <trkpt lat="42.91745" lon="0.86129">
        <ele>903</ele>
        <time>2018-12-02T14:43:57.000Z</time>
      </trkpt>
      <trkpt lat="42.91744" lon="0.86129">
        <ele>902</ele>
        <time>2018-12-02T14:43:59.000Z</time>
      </trkpt>
      <trkpt lat="42.91743" lon="0.86129">
        <ele>902</ele>
        <time>2018-12-02T14:44:01.000Z</time>
      </trkpt>
      <trkpt lat="42.91742" lon="0.86129">
        <ele>902</ele>
        <time>2018-12-02T14:44:03.000Z</time>
      </trkpt>
      <trkpt lat="42.91742" lon="0.86128">
        <ele>902</ele>
        <time>2018-12-02T14:44:05.000Z</time>
      </trkpt>
      <trkpt lat="42.91742" lon="0.86128">
        <ele>901</ele>
        <time>2018-12-02T14:44:07.000Z</time>
      </trkpt>
      <trkpt lat="42.91742" lon="0.86128">
        <ele>901</ele>
        <time>2018-12-02T14:44:09.000Z</time>
      </trkpt>
      <trkpt lat="42.91743" lon="0.86129">
        <ele>902</ele>
        <time>2018-12-02T14:44:11.000Z</time>
      </trkpt>
      <trkpt lat="42.91743" lon="0.86129">
        <ele>902</ele>
        <time>2018-12-02T14:44:13.000Z</time>
      </trkpt>
      <trkpt lat="42.91744" lon="0.86129">
        <ele>902</ele>
        <time>2018-12-02T14:44:15.000Z</time>
      </trkpt>
      <trkpt lat="42.91745" lon="0.8613">
        <ele>903</ele>
        <time>2018-12-02T14:44:17.000Z</time>
      </trkpt>
      <trkpt lat="42.91745" lon="0.8613">
        <ele>903</ele>
        <time>2018-12-02T14:44:19.000Z</time>
      </trkpt>
      <trkpt lat="42.91744" lon="0.86131">
        <ele>902</ele>
        <time>2018-12-02T14:44:21.000Z</time>
      </trkpt>
      <trkpt lat="42.91744" lon="0.86132">
        <ele>902</ele>
        <time>2018-12-02T14:44:23.000Z</time>
      </trkpt>
      <trkpt lat="42.91743" lon="0.86133">
        <ele>902</ele>
        <time>2018-12-02T14:44:25.000Z</time>
      </trkpt>
      <trkpt lat="42.91743" lon="0.86133">
        <ele>902</ele>
        <time>2018-12-02T14:44:27.000Z</time>
      </trkpt>
      <trkpt lat="42.91742" lon="0.86134">
        <ele>902</ele>
        <time>2018-12-02T14:44:29.000Z</time>
      </trkpt>
      <trkpt lat="42.91742" lon="0.86136">
        <ele>901</ele>
        <time>2018-12-02T14:44:31.000Z</time>
      </trkpt>
      <trkpt lat="42.91743" lon="0.86136">
        <ele>902</ele>
        <time>2018-12-02T14:44:33.000Z</time>
      </trkpt>
      <trkpt lat="42.91743" lon="0.86137">
        <ele>902</ele>
        <time>2018-12-02T14:44:35.000Z</time>
      </trkpt>
      <trkpt lat="42.91743" lon="0.86137">
        <ele>902</ele>
        <time>2018-12-02T14:44:37.000Z</time>
      </trkpt>
      <trkpt lat="42.91742" lon="0.86138">
        <ele>901</ele>
        <time>2018-12-02T14:44:39.000Z</time>
      </trkpt>
      <trkpt lat="42.91742" lon="0.86138">
        <ele>901</ele>
        <time>2018-12-02T14:44:41.000Z</time>
      </trkpt>
      <trkpt lat="42.91742" lon="0.86139">
        <ele>901</ele>
        <time>2018-12-02T14:44:43.000Z</time>
      </trkpt>
      <trkpt lat="42.91741" lon="0.86138">
        <ele>901</ele>
        <time>2018-12-02T14:44:45.000Z</time>
      </trkpt>
      <trkpt lat="42.9174" lon="0.86138">
        <ele>901</ele>
        <time>2018-12-02T14:44:47.000Z</time>
      </trkpt>
      <trkpt lat="42.91739" lon="0.86138">
        <ele>900</ele>
        <time>2018-12-02T14:44:49.000Z</time>
      </trkpt>
      <trkpt lat="42.9174" lon="0.86138">
        <ele>900</ele>
        <time>2018-12-02T14:44:51.000Z</time>
      </trkpt>
      <trkpt lat="42.9174" lon="0.86137">
        <ele>901</ele>
        <time>2018-12-02T14:44:53.000Z</time>
      </trkpt>
      <trkpt lat="42.9174" lon="0.86136">
        <ele>901</ele>
        <time>2018-12-02T14:44:55.000Z</time>
      </trkpt>
      <trkpt lat="42.9174" lon="0.86135">
        <ele>901</ele>
        <time>2018-12-02T14:44:57.000Z</time>
      </trkpt>
      <trkpt lat="42.9174" lon="0.86135">
        <ele>901</ele>
        <time>2018-12-02T14:44:59.000Z</time>
      </trkpt>
      <trkpt lat="42.9174" lon="0.86134">
        <ele>901</ele>
        <time>2018-12-02T14:45:01.000Z</time>
      </trkpt>
      <trkpt lat="42.91741" lon="0.86134">
        <ele>901</ele>
        <time>2018-12-02T14:45:03.000Z</time>
      </trkpt>
      <trkpt lat="42.91741" lon="0.86134">
        <ele>901</ele>
        <time>2018-12-02T14:45:05.000Z</time>
      </trkpt>
      <trkpt lat="42.91741" lon="0.86134">
        <ele>901</ele>
        <time>2018-12-02T14:45:07.000Z</time>
      </trkpt>
      <trkpt lat="42.9174" lon="0.86134">
        <ele>901</ele>
        <time>2018-12-02T14:45:09.000Z</time>
      </trkpt>
      <trkpt lat="42.91739" lon="0.86134">
        <ele>900</ele>
        <time>2018-12-02T14:45:11.000Z</time>
      </trkpt>
      <trkpt lat="42.91738" lon="0.86134">
        <ele>900</ele>
        <time>2018-12-02T14:45:13.000Z</time>
      </trkpt>
      <trkpt lat="42.91736" lon="0.86134">
        <ele>899</ele>
        <time>2018-12-02T14:45:15.000Z</time>
      </trkpt>
      <trkpt lat="42.91736" lon="0.86134">
        <ele>899</ele>
        <time>2018-12-02T14:45:17.000Z</time>
      </trkpt>
      <trkpt lat="42.91734" lon="0.86136">
        <ele>898</ele>
        <time>2018-12-02T14:45:19.000Z</time>
      </trkpt>
      <trkpt lat="42.91734" lon="0.86135">
        <ele>898</ele>
        <time>2018-12-02T14:45:21.000Z</time>
      </trkpt>
      <trkpt lat="42.91734" lon="0.86135">
        <ele>898</ele>
        <time>2018-12-02T14:45:23.000Z</time>
      </trkpt>
      <trkpt lat="42.91734" lon="0.86135">
        <ele>898</ele>
        <time>2018-12-02T14:45:25.000Z</time>
      </trkpt>
      <trkpt lat="42.91733" lon="0.86135">
        <ele>898</ele>
        <time>2018-12-02T14:45:27.000Z</time>
      </trkpt>
      <trkpt lat="42.91732" lon="0.86136">
        <ele>898</ele>
        <time>2018-12-02T14:45:29.000Z</time>
      </trkpt>
      <trkpt lat="42.91731" lon="0.86137">
        <ele>897</ele>
        <time>2018-12-02T14:45:31.000Z</time>
      </trkpt>
      <trkpt lat="42.9173" lon="0.86138">
        <ele>897</ele>
        <time>2018-12-02T14:45:33.000Z</time>
      </trkpt>
      <trkpt lat="42.91729" lon="0.86138">
        <ele>896</ele>
        <time>2018-12-02T14:45:35.000Z</time>
      </trkpt>
      <trkpt lat="42.91728" lon="0.86137">
        <ele>896</ele>
        <time>2018-12-02T14:45:37.000Z</time>
      </trkpt>
      <trkpt lat="42.91726" lon="0.86138">
        <ele>895</ele>
        <time>2018-12-02T14:45:39.000Z</time>
      </trkpt>
      <trkpt lat="42.91725" lon="0.86139">
        <ele>895</ele>
        <time>2018-12-02T14:45:41.000Z</time>
      </trkpt>
      <trkpt lat="42.91724" lon="0.8614">
        <ele>894</ele>
        <time>2018-12-02T14:45:43.000Z</time>
      </trkpt>
      <trkpt lat="42.91723" lon="0.8614">
        <ele>894</ele>
        <time>2018-12-02T14:45:45.000Z</time>
      </trkpt>
      <trkpt lat="42.91723" lon="0.8614">
        <ele>894</ele>
        <time>2018-12-02T14:45:47.000Z</time>
      </trkpt>
      <trkpt lat="42.91723" lon="0.8614">
        <ele>894</ele>
        <time>2018-12-02T14:45:49.000Z</time>
      </trkpt>
      <trkpt lat="42.91722" lon="0.8614">
        <ele>893</ele>
        <time>2018-12-02T14:45:51.000Z</time>
      </trkpt>
      <trkpt lat="42.91721" lon="0.8614">
        <ele>893</ele>
        <time>2018-12-02T14:45:53.000Z</time>
      </trkpt>
      <trkpt lat="42.9172" lon="0.8614">
        <ele>893</ele>
        <time>2018-12-02T14:45:55.000Z</time>
      </trkpt>
      <trkpt lat="42.9172" lon="0.86139">
        <ele>893</ele>
        <time>2018-12-02T14:45:57.000Z</time>
      </trkpt>
      <trkpt lat="42.9172" lon="0.86138">
        <ele>893</ele>
        <time>2018-12-02T14:45:59.000Z</time>
      </trkpt>
      <trkpt lat="42.9172" lon="0.86137">
        <ele>893</ele>
        <time>2018-12-02T14:46:01.000Z</time>
      </trkpt>
      <trkpt lat="42.91719" lon="0.86137">
        <ele>892</ele>
        <time>2018-12-02T14:46:03.000Z</time>
      </trkpt>
      <trkpt lat="42.91719" lon="0.86137">
        <ele>892</ele>
        <time>2018-12-02T14:46:05.000Z</time>
      </trkpt>
      <trkpt lat="42.91718" lon="0.86137">
        <ele>892</ele>
        <time>2018-12-02T14:46:07.000Z</time>
      </trkpt>
      <trkpt lat="42.91717" lon="0.86139">
        <ele>892</ele>
        <time>2018-12-02T14:46:09.000Z</time>
      </trkpt>
      <trkpt lat="42.91717" lon="0.86141">
        <ele>892</ele>
        <time>2018-12-02T14:46:11.000Z</time>
      </trkpt>
      <trkpt lat="42.91716" lon="0.86141">
        <ele>891</ele>
        <time>2018-12-02T14:46:13.000Z</time>
      </trkpt>
      <trkpt lat="42.91716" lon="0.86142">
        <ele>891</ele>
        <time>2018-12-02T14:46:15.000Z</time>
      </trkpt>
      <trkpt lat="42.91715" lon="0.86142">
        <ele>890</ele>
        <time>2018-12-02T14:46:17.000Z</time>
      </trkpt>
      <trkpt lat="42.91714" lon="0.86143">
        <ele>890</ele>
        <time>2018-12-02T14:46:19.000Z</time>
      </trkpt>
      <trkpt lat="42.91713" lon="0.86143">
        <ele>890</ele>
        <time>2018-12-02T14:46:21.000Z</time>
      </trkpt>
      <trkpt lat="42.91712" lon="0.86144">
        <ele>889</ele>
        <time>2018-12-02T14:46:23.000Z</time>
      </trkpt>
      <trkpt lat="42.91711" lon="0.86145">
        <ele>889</ele>
        <time>2018-12-02T14:46:25.000Z</time>
      </trkpt>
      <trkpt lat="42.9171" lon="0.86146">
        <ele>888</ele>
        <time>2018-12-02T14:46:27.000Z</time>
      </trkpt>
      <trkpt lat="42.91708" lon="0.86147">
        <ele>887</ele>
        <time>2018-12-02T14:46:29.000Z</time>
      </trkpt>
      <trkpt lat="42.91707" lon="0.86147">
        <ele>887</ele>
        <time>2018-12-02T14:46:31.000Z</time>
      </trkpt>
      <trkpt lat="42.91706" lon="0.86147">
        <ele>886</ele>
        <time>2018-12-02T14:46:33.000Z</time>
      </trkpt>
      <trkpt lat="42.91704" lon="0.86148">
        <ele>886</ele>
        <time>2018-12-02T14:46:35.000Z</time>
      </trkpt>
      <trkpt lat="42.91702" lon="0.86149">
        <ele>885</ele>
        <time>2018-12-02T14:46:37.000Z</time>
      </trkpt>
      <trkpt lat="42.91701" lon="0.8615">
        <ele>884</ele>
        <time>2018-12-02T14:46:39.000Z</time>
      </trkpt>
      <trkpt lat="42.917" lon="0.8615">
        <ele>884</ele>
        <time>2018-12-02T14:46:41.000Z</time>
      </trkpt>
      <trkpt lat="42.91699" lon="0.8615">
        <ele>883</ele>
        <time>2018-12-02T14:46:43.000Z</time>
      </trkpt>
      <trkpt lat="42.91698" lon="0.8615">
        <ele>883</ele>
        <time>2018-12-02T14:46:45.000Z</time>
      </trkpt>
      <trkpt lat="42.91697" lon="0.8615">
        <ele>882</ele>
        <time>2018-12-02T14:46:47.000Z</time>
      </trkpt>
      <trkpt lat="42.91696" lon="0.86151">
        <ele>882</ele>
        <time>2018-12-02T14:46:49.000Z</time>
      </trkpt>
      <trkpt lat="42.91695" lon="0.86151">
        <ele>881</ele>
        <time>2018-12-02T14:46:51.000Z</time>
      </trkpt>
      <trkpt lat="42.91693" lon="0.86151">
        <ele>881</ele>
        <time>2018-12-02T14:46:53.000Z</time>
      </trkpt>
      <trkpt lat="42.91691" lon="0.86149">
        <ele>880</ele>
        <time>2018-12-02T14:46:55.000Z</time>
      </trkpt>
      <trkpt lat="42.9169" lon="0.86146">
        <ele>881</ele>
        <time>2018-12-02T14:46:57.000Z</time>
      </trkpt>
      <trkpt lat="42.9169" lon="0.86143">
        <ele>881</ele>
        <time>2018-12-02T14:46:59.000Z</time>
      </trkpt>
      <trkpt lat="42.9169" lon="0.8614">
        <ele>881</ele>
        <time>2018-12-02T14:47:01.000Z</time>
      </trkpt>
      <trkpt lat="42.91689" lon="0.86138">
        <ele>881</ele>
        <time>2018-12-02T14:47:03.000Z</time>
      </trkpt>
      <trkpt lat="42.91689" lon="0.86135">
        <ele>881</ele>
        <time>2018-12-02T14:47:05.000Z</time>
      </trkpt>
      <trkpt lat="42.91689" lon="0.86132">
        <ele>881</ele>
        <time>2018-12-02T14:47:07.000Z</time>
      </trkpt>
      <trkpt lat="42.91689" lon="0.86128">
        <ele>881</ele>
        <time>2018-12-02T14:47:09.000Z</time>
      </trkpt>
      <trkpt lat="42.9169" lon="0.86125">
        <ele>882</ele>
        <time>2018-12-02T14:47:11.000Z</time>
      </trkpt>
      <trkpt lat="42.9169" lon="0.86123">
        <ele>882</ele>
        <time>2018-12-02T14:47:13.000Z</time>
      </trkpt>
      <trkpt lat="42.9169" lon="0.86121">
        <ele>882</ele>
        <time>2018-12-02T14:47:15.000Z</time>
      </trkpt>
      <trkpt lat="42.91691" lon="0.86119">
        <ele>882</ele>
        <time>2018-12-02T14:47:17.000Z</time>
      </trkpt>
      <trkpt lat="42.91691" lon="0.86116">
        <ele>882</ele>
        <time>2018-12-02T14:47:19.000Z</time>
      </trkpt>
      <trkpt lat="42.9169" lon="0.86114">
        <ele>882</ele>
        <time>2018-12-02T14:47:21.000Z</time>
      </trkpt>
      <trkpt lat="42.9169" lon="0.86111">
        <ele>882</ele>
        <time>2018-12-02T14:47:23.000Z</time>
      </trkpt>
      <trkpt lat="42.91689" lon="0.86108">
        <ele>881</ele>
        <time>2018-12-02T14:47:25.000Z</time>
      </trkpt>
      <trkpt lat="42.91687" lon="0.86107">
        <ele>881</ele>
        <time>2018-12-02T14:47:27.000Z</time>
      </trkpt>
      <trkpt lat="42.91686" lon="0.86105">
        <ele>881</ele>
        <time>2018-12-02T14:47:29.000Z</time>
      </trkpt>
      <trkpt lat="42.91686" lon="0.86103">
        <ele>880</ele>
        <time>2018-12-02T14:47:31.000Z</time>
      </trkpt>
      <trkpt lat="42.91685" lon="0.86102">
        <ele>880</ele>
        <time>2018-12-02T14:47:33.000Z</time>
      </trkpt>
      <trkpt lat="42.91684" lon="0.861">
        <ele>880</ele>
        <time>2018-12-02T14:47:35.000Z</time>
      </trkpt>
      <trkpt lat="42.91683" lon="0.86099">
        <ele>880</ele>
        <time>2018-12-02T14:47:37.000Z</time>
      </trkpt>
      <trkpt lat="42.91681" lon="0.86098">
        <ele>879</ele>
        <time>2018-12-02T14:47:39.000Z</time>
      </trkpt>
      <trkpt lat="42.9168" lon="0.86097">
        <ele>878</ele>
        <time>2018-12-02T14:47:41.000Z</time>
      </trkpt>
      <trkpt lat="42.91678" lon="0.86096">
        <ele>878</ele>
        <time>2018-12-02T14:47:43.000Z</time>
      </trkpt>
      <trkpt lat="42.91676" lon="0.86095">
        <ele>877</ele>
        <time>2018-12-02T14:47:45.000Z</time>
      </trkpt>
      <trkpt lat="42.91674" lon="0.86095">
        <ele>876</ele>
        <time>2018-12-02T14:47:47.000Z</time>
      </trkpt>
      <trkpt lat="42.91673" lon="0.86094">
        <ele>876</ele>
        <time>2018-12-02T14:47:49.000Z</time>
      </trkpt>
      <trkpt lat="42.91671" lon="0.86094">
        <ele>875</ele>
        <time>2018-12-02T14:47:51.000Z</time>
      </trkpt>
      <trkpt lat="42.9167" lon="0.86093">
        <ele>875</ele>
        <time>2018-12-02T14:47:53.000Z</time>
      </trkpt>
      <trkpt lat="42.91668" lon="0.86092">
        <ele>875</ele>
        <time>2018-12-02T14:47:55.000Z</time>
      </trkpt>
      <trkpt lat="42.91667" lon="0.86092">
        <ele>874</ele>
        <time>2018-12-02T14:47:57.000Z</time>
      </trkpt>
      <trkpt lat="42.91666" lon="0.86091">
        <ele>874</ele>
        <time>2018-12-02T14:47:59.000Z</time>
      </trkpt>
      <trkpt lat="42.91666" lon="0.86091">
        <ele>874</ele>
        <time>2018-12-02T14:48:01.000Z</time>
      </trkpt>
      <trkpt lat="42.91666" lon="0.8609">
        <ele>874</ele>
        <time>2018-12-02T14:48:03.000Z</time>
      </trkpt>
      <trkpt lat="42.91666" lon="0.8609">
        <ele>874</ele>
        <time>2018-12-02T14:48:05.000Z</time>
      </trkpt>
      <trkpt lat="42.91666" lon="0.8609">
        <ele>874</ele>
        <time>2018-12-02T14:48:07.000Z</time>
      </trkpt>
      <trkpt lat="42.91666" lon="0.8609">
        <ele>874</ele>
        <time>2018-12-02T14:48:09.000Z</time>
      </trkpt>
      <trkpt lat="42.91665" lon="0.8609">
        <ele>874</ele>
        <time>2018-12-02T14:48:11.000Z</time>
      </trkpt>
      <trkpt lat="42.91663" lon="0.86089">
        <ele>873</ele>
        <time>2018-12-02T14:48:13.000Z</time>
      </trkpt>
      <trkpt lat="42.91662" lon="0.86089">
        <ele>873</ele>
        <time>2018-12-02T14:48:15.000Z</time>
      </trkpt>
      <trkpt lat="42.91661" lon="0.86088">
        <ele>873</ele>
        <time>2018-12-02T14:48:17.000Z</time>
      </trkpt>
      <trkpt lat="42.91659" lon="0.86087">
        <ele>872</ele>
        <time>2018-12-02T14:48:19.000Z</time>
      </trkpt>
      <trkpt lat="42.91658" lon="0.86087">
        <ele>872</ele>
        <time>2018-12-02T14:48:21.000Z</time>
      </trkpt>
      <trkpt lat="42.91655" lon="0.86086">
        <ele>871</ele>
        <time>2018-12-02T14:48:23.000Z</time>
      </trkpt>
      <trkpt lat="42.91653" lon="0.86086">
        <ele>871</ele>
        <time>2018-12-02T14:48:25.000Z</time>
      </trkpt>
      <trkpt lat="42.91651" lon="0.86085">
        <ele>870</ele>
        <time>2018-12-02T14:48:27.000Z</time>
      </trkpt>
      <trkpt lat="42.91649" lon="0.86085">
        <ele>870</ele>
        <time>2018-12-02T14:48:29.000Z</time>
      </trkpt>
      <trkpt lat="42.91648" lon="0.86085">
        <ele>869</ele>
        <time>2018-12-02T14:48:31.000Z</time>
      </trkpt>
      <trkpt lat="42.91647" lon="0.86084">
        <ele>869</ele>
        <time>2018-12-02T14:48:33.000Z</time>
      </trkpt>
      <trkpt lat="42.91646" lon="0.86083">
        <ele>869</ele>
        <time>2018-12-02T14:48:35.000Z</time>
      </trkpt>
      <trkpt lat="42.91646" lon="0.86083">
        <ele>869</ele>
        <time>2018-12-02T14:48:37.000Z</time>
      </trkpt>
      <trkpt lat="42.91646" lon="0.86086">
        <ele>869</ele>
        <time>2018-12-02T14:48:39.000Z</time>
      </trkpt>
      <trkpt lat="42.91646" lon="0.86088">
        <ele>868</ele>
        <time>2018-12-02T14:48:41.000Z</time>
      </trkpt>
      <trkpt lat="42.91646" lon="0.8609">
        <ele>868</ele>
        <time>2018-12-02T14:48:43.000Z</time>
      </trkpt>
      <trkpt lat="42.91647" lon="0.86093">
        <ele>869</ele>
        <time>2018-12-02T14:48:45.000Z</time>
      </trkpt>
      <trkpt lat="42.91648" lon="0.86096">
        <ele>869</ele>
        <time>2018-12-02T14:48:47.000Z</time>
      </trkpt>
      <trkpt lat="42.91648" lon="0.86099">
        <ele>869</ele>
        <time>2018-12-02T14:48:49.000Z</time>
      </trkpt>
      <trkpt lat="42.91649" lon="0.86101">
        <ele>869</ele>
        <time>2018-12-02T14:48:51.000Z</time>
      </trkpt>
      <trkpt lat="42.91649" lon="0.86104">
        <ele>869</ele>
        <time>2018-12-02T14:48:53.000Z</time>
      </trkpt>
      <trkpt lat="42.9165" lon="0.86106">
        <ele>869</ele>
        <time>2018-12-02T14:48:55.000Z</time>
      </trkpt>
      <trkpt lat="42.9165" lon="0.86108">
        <ele>869</ele>
        <time>2018-12-02T14:48:57.000Z</time>
      </trkpt>
      <trkpt lat="42.9165" lon="0.86111">
        <ele>869</ele>
        <time>2018-12-02T14:48:59.000Z</time>
      </trkpt>
      <trkpt lat="42.9165" lon="0.86114">
        <ele>869</ele>
        <time>2018-12-02T14:49:01.000Z</time>
      </trkpt>
      <trkpt lat="42.91649" lon="0.86117">
        <ele>869</ele>
        <time>2018-12-02T14:49:03.000Z</time>
      </trkpt>
      <trkpt lat="42.91649" lon="0.86118">
        <ele>869</ele>
        <time>2018-12-02T14:49:05.000Z</time>
      </trkpt>
      <trkpt lat="42.91649" lon="0.86121">
        <ele>869</ele>
        <time>2018-12-02T14:49:07.000Z</time>
      </trkpt>
      <trkpt lat="42.91648" lon="0.86124">
        <ele>868</ele>
        <time>2018-12-02T14:49:09.000Z</time>
      </trkpt>
      <trkpt lat="42.91647" lon="0.86126">
        <ele>868</ele>
        <time>2018-12-02T14:49:11.000Z</time>
      </trkpt>
      <trkpt lat="42.91647" lon="0.86129">
        <ele>868</ele>
        <time>2018-12-02T14:49:13.000Z</time>
      </trkpt>
      <trkpt lat="42.91647" lon="0.86131">
        <ele>868</ele>
        <time>2018-12-02T14:49:15.000Z</time>
      </trkpt>
      <trkpt lat="42.91647" lon="0.86133">
        <ele>868</ele>
        <time>2018-12-02T14:49:17.000Z</time>
      </trkpt>
      <trkpt lat="42.91646" lon="0.86134">
        <ele>868</ele>
        <time>2018-12-02T14:49:19.000Z</time>
      </trkpt>
      <trkpt lat="42.91646" lon="0.86137">
        <ele>867</ele>
        <time>2018-12-02T14:49:21.000Z</time>
      </trkpt>
      <trkpt lat="42.91645" lon="0.86138">
        <ele>867</ele>
        <time>2018-12-02T14:49:23.000Z</time>
      </trkpt>
      <trkpt lat="42.91645" lon="0.86141">
        <ele>867</ele>
        <time>2018-12-02T14:49:25.000Z</time>
      </trkpt>
      <trkpt lat="42.91644" lon="0.86142">
        <ele>867</ele>
        <time>2018-12-02T14:49:27.000Z</time>
      </trkpt>
      <trkpt lat="42.91644" lon="0.86142">
        <ele>866</ele>
        <time>2018-12-02T14:49:29.000Z</time>
      </trkpt>
      <trkpt lat="42.91643" lon="0.86143">
        <ele>866</ele>
        <time>2018-12-02T14:49:31.000Z</time>
      </trkpt>
      <trkpt lat="42.91643" lon="0.86143">
        <ele>866</ele>
        <time>2018-12-02T14:49:33.000Z</time>
      </trkpt>
      <trkpt lat="42.9164" lon="0.86145">
        <ele>865</ele>
        <time>2018-12-02T14:49:35.000Z</time>
      </trkpt>
      <trkpt lat="42.91638" lon="0.86146">
        <ele>864</ele>
        <time>2018-12-02T14:49:37.000Z</time>
      </trkpt>
      <trkpt lat="42.91636" lon="0.86147">
        <ele>864</ele>
        <time>2018-12-02T14:49:39.000Z</time>
      </trkpt>
      <trkpt lat="42.91634" lon="0.86148">
        <ele>863</ele>
        <time>2018-12-02T14:49:41.000Z</time>
      </trkpt>
      <trkpt lat="42.91632" lon="0.86148">
        <ele>863</ele>
        <time>2018-12-02T14:49:43.000Z</time>
      </trkpt>
      <trkpt lat="42.9163" lon="0.86149">
        <ele>862</ele>
        <time>2018-12-02T14:49:45.000Z</time>
      </trkpt>
      <trkpt lat="42.91628" lon="0.8615">
        <ele>861</ele>
        <time>2018-12-02T14:49:47.000Z</time>
      </trkpt>
      <trkpt lat="42.91627" lon="0.86151">
        <ele>861</ele>
        <time>2018-12-02T14:49:49.000Z</time>
      </trkpt>
      <trkpt lat="42.91625" lon="0.86152">
        <ele>860</ele>
        <time>2018-12-02T14:49:51.000Z</time>
      </trkpt>
      <trkpt lat="42.91623" lon="0.86152">
        <ele>860</ele>
        <time>2018-12-02T14:49:53.000Z</time>
      </trkpt>
      <trkpt lat="42.91622" lon="0.8615">
        <ele>859</ele>
        <time>2018-12-02T14:49:55.000Z</time>
      </trkpt>
      <trkpt lat="42.91621" lon="0.86148">
        <ele>859</ele>
        <time>2018-12-02T14:49:57.000Z</time>
      </trkpt>
      <trkpt lat="42.9162" lon="0.86146">
        <ele>859</ele>
        <time>2018-12-02T14:49:59.000Z</time>
      </trkpt>
      <trkpt lat="42.91618" lon="0.86143">
        <ele>859</ele>
        <time>2018-12-02T14:50:01.000Z</time>
      </trkpt>
      <trkpt lat="42.91617" lon="0.86141">
        <ele>859</ele>
        <time>2018-12-02T14:50:03.000Z</time>
      </trkpt>
      <trkpt lat="42.91615" lon="0.86139">
        <ele>859</ele>
        <time>2018-12-02T14:50:05.000Z</time>
      </trkpt>
      <trkpt lat="42.91614" lon="0.86136">
        <ele>859</ele>
        <time>2018-12-02T14:50:07.000Z</time>
      </trkpt>
      <trkpt lat="42.91613" lon="0.86134">
        <ele>858</ele>
        <time>2018-12-02T14:50:09.000Z</time>
      </trkpt>
      <trkpt lat="42.91612" lon="0.86132">
        <ele>858</ele>
        <time>2018-12-02T14:50:11.000Z</time>
      </trkpt>
      <trkpt lat="42.91611" lon="0.86132">
        <ele>858</ele>
        <time>2018-12-02T14:50:13.000Z</time>
      </trkpt>
      <trkpt lat="42.91609" lon="0.86131">
        <ele>857</ele>
        <time>2018-12-02T14:50:15.000Z</time>
      </trkpt>
      <trkpt lat="42.91608" lon="0.86131">
        <ele>857</ele>
        <time>2018-12-02T14:50:17.000Z</time>
      </trkpt>
      <trkpt lat="42.91607" lon="0.86131">
        <ele>857</ele>
        <time>2018-12-02T14:50:19.000Z</time>
      </trkpt>
      <trkpt lat="42.91607" lon="0.86131">
        <ele>857</ele>
        <time>2018-12-02T14:50:21.000Z</time>
      </trkpt>
      <trkpt lat="42.91607" lon="0.8613">
        <ele>857</ele>
        <time>2018-12-02T14:50:23.000Z</time>
      </trkpt>
      <trkpt lat="42.91607" lon="0.8613">
        <ele>857</ele>
        <time>2018-12-02T14:50:25.000Z</time>
      </trkpt>
      <trkpt lat="42.91607" lon="0.8613">
        <ele>857</ele>
        <time>2018-12-02T14:50:27.000Z</time>
      </trkpt>
      <trkpt lat="42.91607" lon="0.8613">
        <ele>857</ele>
        <time>2018-12-02T14:50:29.000Z</time>
      </trkpt>
      <trkpt lat="42.91606" lon="0.8613">
        <ele>857</ele>
        <time>2018-12-02T14:50:31.000Z</time>
      </trkpt>
      <trkpt lat="42.91606" lon="0.86131">
        <ele>856</ele>
        <time>2018-12-02T14:50:33.000Z</time>
      </trkpt>
      <trkpt lat="42.91605" lon="0.86131">
        <ele>856</ele>
        <time>2018-12-02T14:50:35.000Z</time>
      </trkpt>
      <trkpt lat="42.91605" lon="0.86133">
        <ele>856</ele>
        <time>2018-12-02T14:50:37.000Z</time>
      </trkpt>
      <trkpt lat="42.91604" lon="0.86135">
        <ele>856</ele>
        <time>2018-12-02T14:50:39.000Z</time>
      </trkpt>
      <trkpt lat="42.91604" lon="0.86139">
        <ele>856</ele>
        <time>2018-12-02T14:50:41.000Z</time>
      </trkpt>
      <trkpt lat="42.91604" lon="0.86141">
        <ele>856</ele>
        <time>2018-12-02T14:50:43.000Z</time>
      </trkpt>
      <trkpt lat="42.91604" lon="0.86145">
        <ele>855</ele>
        <time>2018-12-02T14:50:45.000Z</time>
      </trkpt>
      <trkpt lat="42.91605" lon="0.86148">
        <ele>855</ele>
        <time>2018-12-02T14:50:47.000Z</time>
      </trkpt>
      <trkpt lat="42.91605" lon="0.86151">
        <ele>855</ele>
        <time>2018-12-02T14:50:49.000Z</time>
      </trkpt>
      <trkpt lat="42.91604" lon="0.86153">
        <ele>854</ele>
        <time>2018-12-02T14:50:51.000Z</time>
      </trkpt>
      <trkpt lat="42.91604" lon="0.86154">
        <ele>854</ele>
        <time>2018-12-02T14:50:53.000Z</time>
      </trkpt>
      <trkpt lat="42.91604" lon="0.86156">
        <ele>854</ele>
        <time>2018-12-02T14:50:55.000Z</time>
      </trkpt>
      <trkpt lat="42.91606" lon="0.8616">
        <ele>854</ele>
        <time>2018-12-02T14:50:57.000Z</time>
      </trkpt>
      <trkpt lat="42.91606" lon="0.86162">
        <ele>854</ele>
        <time>2018-12-02T14:50:59.000Z</time>
      </trkpt>
      <trkpt lat="42.91607" lon="0.86166">
        <ele>854</ele>
        <time>2018-12-02T14:51:01.000Z</time>
      </trkpt>
      <trkpt lat="42.91607" lon="0.86169">
        <ele>854</ele>
        <time>2018-12-02T14:51:03.000Z</time>
      </trkpt>
      <trkpt lat="42.91608" lon="0.86172">
        <ele>854</ele>
        <time>2018-12-02T14:51:05.000Z</time>
      </trkpt>
      <trkpt lat="42.91608" lon="0.86175">
        <ele>854</ele>
        <time>2018-12-02T14:51:07.000Z</time>
      </trkpt>
      <trkpt lat="42.91608" lon="0.86178">
        <ele>854</ele>
        <time>2018-12-02T14:51:09.000Z</time>
      </trkpt>
      <trkpt lat="42.91608" lon="0.8618">
        <ele>854</ele>
        <time>2018-12-02T14:51:11.000Z</time>
      </trkpt>
      <trkpt lat="42.91608" lon="0.86183">
        <ele>853</ele>
        <time>2018-12-02T14:51:13.000Z</time>
      </trkpt>
      <trkpt lat="42.91608" lon="0.86186">
        <ele>853</ele>
        <time>2018-12-02T14:51:15.000Z</time>
      </trkpt>
      <trkpt lat="42.91608" lon="0.86189">
        <ele>853</ele>
        <time>2018-12-02T14:51:17.000Z</time>
      </trkpt>
      <trkpt lat="42.91608" lon="0.86192">
        <ele>853</ele>
        <time>2018-12-02T14:51:19.000Z</time>
      </trkpt>
      <trkpt lat="42.91608" lon="0.86195">
        <ele>853</ele>
        <time>2018-12-02T14:51:21.000Z</time>
      </trkpt>
      <trkpt lat="42.91609" lon="0.86198">
        <ele>853</ele>
        <time>2018-12-02T14:51:23.000Z</time>
      </trkpt>
      <trkpt lat="42.91609" lon="0.86202">
        <ele>852</ele>
        <time>2018-12-02T14:51:25.000Z</time>
      </trkpt>
      <trkpt lat="42.91609" lon="0.86205">
        <ele>852</ele>
        <time>2018-12-02T14:51:27.000Z</time>
      </trkpt>
      <trkpt lat="42.9161" lon="0.86208">
        <ele>852</ele>
        <time>2018-12-02T14:51:29.000Z</time>
      </trkpt>
      <trkpt lat="42.9161" lon="0.86211">
        <ele>852</ele>
        <time>2018-12-02T14:51:31.000Z</time>
      </trkpt>
      <trkpt lat="42.91611" lon="0.86214">
        <ele>852</ele>
        <time>2018-12-02T14:51:33.000Z</time>
      </trkpt>
      <trkpt lat="42.91611" lon="0.86216">
        <ele>852</ele>
        <time>2018-12-02T14:51:35.000Z</time>
      </trkpt>
      <trkpt lat="42.91611" lon="0.86219">
        <ele>852</ele>
        <time>2018-12-02T14:51:37.000Z</time>
      </trkpt>
      <trkpt lat="42.91612" lon="0.86222">
        <ele>852</ele>
        <time>2018-12-02T14:51:39.000Z</time>
      </trkpt>
      <trkpt lat="42.91612" lon="0.86225">
        <ele>851</ele>
        <time>2018-12-02T14:51:41.000Z</time>
      </trkpt>
      <trkpt lat="42.91613" lon="0.86228">
        <ele>851</ele>
        <time>2018-12-02T14:51:43.000Z</time>
      </trkpt>
      <trkpt lat="42.91614" lon="0.86231">
        <ele>851</ele>
        <time>2018-12-02T14:51:45.000Z</time>
      </trkpt>
      <trkpt lat="42.91614" lon="0.86234">
        <ele>850</ele>
        <time>2018-12-02T14:51:47.000Z</time>
      </trkpt>
      <trkpt lat="42.91615" lon="0.86237">
        <ele>850</ele>
        <time>2018-12-02T14:51:49.000Z</time>
      </trkpt>
      <trkpt lat="42.91615" lon="0.86237">
        <ele>849</ele>
        <time>2018-12-02T14:51:51.000Z</time>
      </trkpt>
      <trkpt lat="42.91615" lon="0.86238">
        <ele>849</ele>
        <time>2018-12-02T14:51:53.000Z</time>
      </trkpt>
      <trkpt lat="42.91615" lon="0.86238">
        <ele>849</ele>
        <time>2018-12-02T14:51:55.000Z</time>
      </trkpt>
      <trkpt lat="42.91615" lon="0.86238">
        <ele>849</ele>
        <time>2018-12-02T14:51:57.000Z</time>
      </trkpt>
      <trkpt lat="42.91615" lon="0.86238">
        <ele>849</ele>
        <time>2018-12-02T14:51:59.000Z</time>
      </trkpt>
      <trkpt lat="42.91615" lon="0.86238">
        <ele>849</ele>
        <time>2018-12-02T14:52:01.000Z</time>
      </trkpt>
      <trkpt lat="42.91616" lon="0.8624">
        <ele>849</ele>
        <time>2018-12-02T14:52:03.000Z</time>
      </trkpt>
      <trkpt lat="42.91616" lon="0.86243">
        <ele>849</ele>
        <time>2018-12-02T14:52:05.000Z</time>
      </trkpt>
      <trkpt lat="42.91616" lon="0.86246">
        <ele>848</ele>
        <time>2018-12-02T14:52:07.000Z</time>
      </trkpt>
      <trkpt lat="42.91617" lon="0.86248">
        <ele>847</ele>
        <time>2018-12-02T14:52:09.000Z</time>
      </trkpt>
      <trkpt lat="42.91617" lon="0.86252">
        <ele>847</ele>
        <time>2018-12-02T14:52:11.000Z</time>
      </trkpt>
      <trkpt lat="42.91617" lon="0.86255">
        <ele>847</ele>
        <time>2018-12-02T14:52:13.000Z</time>
      </trkpt>
      <trkpt lat="42.91617" lon="0.86259">
        <ele>846</ele>
        <time>2018-12-02T14:52:15.000Z</time>
      </trkpt>
      <trkpt lat="42.91618" lon="0.86261">
        <ele>846</ele>
        <time>2018-12-02T14:52:17.000Z</time>
      </trkpt>
      <trkpt lat="42.91618" lon="0.86265">
        <ele>846</ele>
        <time>2018-12-02T14:52:19.000Z</time>
      </trkpt>
      <trkpt lat="42.91618" lon="0.86269">
        <ele>845</ele>
        <time>2018-12-02T14:52:21.000Z</time>
      </trkpt>
      <trkpt lat="42.91618" lon="0.86272">
        <ele>845</ele>
        <time>2018-12-02T14:52:23.000Z</time>
      </trkpt>
      <trkpt lat="42.91618" lon="0.86275">
        <ele>845</ele>
        <time>2018-12-02T14:52:25.000Z</time>
      </trkpt>
      <trkpt lat="42.91619" lon="0.86277">
        <ele>845</ele>
        <time>2018-12-02T14:52:27.000Z</time>
      </trkpt>
      <trkpt lat="42.9162" lon="0.8628">
        <ele>844</ele>
        <time>2018-12-02T14:52:29.000Z</time>
      </trkpt>
      <trkpt lat="42.91621" lon="0.86282">
        <ele>844</ele>
        <time>2018-12-02T14:52:31.000Z</time>
      </trkpt>
      <trkpt lat="42.91622" lon="0.86284">
        <ele>844</ele>
        <time>2018-12-02T14:52:33.000Z</time>
      </trkpt>
      <trkpt lat="42.91624" lon="0.86286">
        <ele>844</ele>
        <time>2018-12-02T14:52:35.000Z</time>
      </trkpt>
      <trkpt lat="42.91625" lon="0.86289">
        <ele>844</ele>
        <time>2018-12-02T14:52:37.000Z</time>
      </trkpt>
      <trkpt lat="42.91626" lon="0.86292">
        <ele>844</ele>
        <time>2018-12-02T14:52:39.000Z</time>
      </trkpt>
      <trkpt lat="42.91627" lon="0.86294">
        <ele>844</ele>
        <time>2018-12-02T14:52:41.000Z</time>
      </trkpt>
      <trkpt lat="42.91628" lon="0.86296">
        <ele>844</ele>
        <time>2018-12-02T14:52:43.000Z</time>
      </trkpt>
      <trkpt lat="42.91629" lon="0.86299">
        <ele>843</ele>
        <time>2018-12-02T14:52:45.000Z</time>
      </trkpt>
      <trkpt lat="42.9163" lon="0.86301">
        <ele>843</ele>
        <time>2018-12-02T14:52:47.000Z</time>
      </trkpt>
      <trkpt lat="42.91631" lon="0.86304">
        <ele>843</ele>
        <time>2018-12-02T14:52:49.000Z</time>
      </trkpt>
      <trkpt lat="42.91633" lon="0.86306">
        <ele>843</ele>
        <time>2018-12-02T14:52:51.000Z</time>
      </trkpt>
      <trkpt lat="42.91634" lon="0.86309">
        <ele>843</ele>
        <time>2018-12-02T14:52:53.000Z</time>
      </trkpt>
      <trkpt lat="42.91636" lon="0.86311">
        <ele>843</ele>
        <time>2018-12-02T14:52:55.000Z</time>
      </trkpt>
      <trkpt lat="42.91638" lon="0.86313">
        <ele>843</ele>
        <time>2018-12-02T14:52:57.000Z</time>
      </trkpt>
      <trkpt lat="42.9164" lon="0.86314">
        <ele>843</ele>
        <time>2018-12-02T14:52:59.000Z</time>
      </trkpt>
      <trkpt lat="42.91641" lon="0.86316">
        <ele>843</ele>
        <time>2018-12-02T14:53:01.000Z</time>
      </trkpt>
      <trkpt lat="42.91643" lon="0.86318">
        <ele>843</ele>
        <time>2018-12-02T14:53:03.000Z</time>
      </trkpt>
      <trkpt lat="42.91644" lon="0.8632">
        <ele>843</ele>
        <time>2018-12-02T14:53:05.000Z</time>
      </trkpt>
      <trkpt lat="42.91646" lon="0.8632">
        <ele>843</ele>
        <time>2018-12-02T14:53:07.000Z</time>
      </trkpt>
      <trkpt lat="42.91648" lon="0.86322">
        <ele>843</ele>
        <time>2018-12-02T14:53:09.000Z</time>
      </trkpt>
      <trkpt lat="42.9165" lon="0.86323">
        <ele>844</ele>
        <time>2018-12-02T14:53:11.000Z</time>
      </trkpt>
      <trkpt lat="42.91652" lon="0.86324">
        <ele>844</ele>
        <time>2018-12-02T14:53:13.000Z</time>
      </trkpt>
      <trkpt lat="42.91655" lon="0.86325">
        <ele>844</ele>
        <time>2018-12-02T14:53:15.000Z</time>
      </trkpt>
      <trkpt lat="42.91656" lon="0.86325">
        <ele>844</ele>
        <time>2018-12-02T14:53:17.000Z</time>
      </trkpt>
      <trkpt lat="42.91658" lon="0.86325">
        <ele>844</ele>
        <time>2018-12-02T14:53:19.000Z</time>
      </trkpt>
      <trkpt lat="42.9166" lon="0.86326">
        <ele>844</ele>
        <time>2018-12-02T14:53:21.000Z</time>
      </trkpt>
      <trkpt lat="42.91662" lon="0.86328">
        <ele>845</ele>
        <time>2018-12-02T14:53:23.000Z</time>
      </trkpt>
      <trkpt lat="42.91664" lon="0.86329">
        <ele>845</ele>
        <time>2018-12-02T14:53:25.000Z</time>
      </trkpt>
      <trkpt lat="42.91666" lon="0.86331">
        <ele>845</ele>
        <time>2018-12-02T14:53:27.000Z</time>
      </trkpt>
      <trkpt lat="42.91668" lon="0.86333">
        <ele>845</ele>
        <time>2018-12-02T14:53:29.000Z</time>
      </trkpt>
      <trkpt lat="42.91668" lon="0.86335">
        <ele>845</ele>
        <time>2018-12-02T14:53:31.000Z</time>
      </trkpt>
      <trkpt lat="42.9167" lon="0.86337">
        <ele>845</ele>
        <time>2018-12-02T14:53:33.000Z</time>
      </trkpt>
      <trkpt lat="42.91671" lon="0.86337">
        <ele>845</ele>
        <time>2018-12-02T14:53:35.000Z</time>
      </trkpt>
      <trkpt lat="42.91672" lon="0.86338">
        <ele>845</ele>
        <time>2018-12-02T14:53:37.000Z</time>
      </trkpt>
      <trkpt lat="42.91671" lon="0.86339">
        <ele>844</ele>
        <time>2018-12-02T14:53:39.000Z</time>
      </trkpt>
      <trkpt lat="42.91669" lon="0.86339">
        <ele>844</ele>
        <time>2018-12-02T14:53:41.000Z</time>
      </trkpt>
      <trkpt lat="42.91666" lon="0.86339">
        <ele>844</ele>
        <time>2018-12-02T14:53:43.000Z</time>
      </trkpt>
      <trkpt lat="42.91664" lon="0.8634">
        <ele>844</ele>
        <time>2018-12-02T14:53:45.000Z</time>
      </trkpt>
      <trkpt lat="42.91662" lon="0.86341">
        <ele>843</ele>
        <time>2018-12-02T14:53:47.000Z</time>
      </trkpt>
      <trkpt lat="42.91659" lon="0.86342">
        <ele>843</ele>
        <time>2018-12-02T14:53:49.000Z</time>
      </trkpt>
      <trkpt lat="42.91656" lon="0.86343">
        <ele>842</ele>
        <time>2018-12-02T14:53:51.000Z</time>
      </trkpt>
      <trkpt lat="42.91654" lon="0.86343">
        <ele>842</ele>
        <time>2018-12-02T14:53:53.000Z</time>
      </trkpt>
      <trkpt lat="42.91651" lon="0.86342">
        <ele>842</ele>
        <time>2018-12-02T14:53:55.000Z</time>
      </trkpt>
      <trkpt lat="42.91649" lon="0.86342">
        <ele>842</ele>
        <time>2018-12-02T14:53:57.000Z</time>
      </trkpt>
      <trkpt lat="42.91646" lon="0.86342">
        <ele>841</ele>
        <time>2018-12-02T14:53:59.000Z</time>
      </trkpt>
      <trkpt lat="42.91644" lon="0.86342">
        <ele>841</ele>
        <time>2018-12-02T14:54:01.000Z</time>
      </trkpt>
      <trkpt lat="42.91641" lon="0.86343">
        <ele>841</ele>
        <time>2018-12-02T14:54:03.000Z</time>
      </trkpt>
      <trkpt lat="42.91639" lon="0.86343">
        <ele>840</ele>
        <time>2018-12-02T14:54:05.000Z</time>
      </trkpt>
      <trkpt lat="42.91637" lon="0.86344">
        <ele>840</ele>
        <time>2018-12-02T14:54:07.000Z</time>
      </trkpt>
      <trkpt lat="42.91634" lon="0.86345">
        <ele>840</ele>
        <time>2018-12-02T14:54:09.000Z</time>
      </trkpt>
      <trkpt lat="42.91632" lon="0.86345">
        <ele>839</ele>
        <time>2018-12-02T14:54:11.000Z</time>
      </trkpt>
      <trkpt lat="42.9163" lon="0.86346">
        <ele>839</ele>
        <time>2018-12-02T14:54:13.000Z</time>
      </trkpt>
      <trkpt lat="42.91628" lon="0.86346">
        <ele>838</ele>
        <time>2018-12-02T14:54:15.000Z</time>
      </trkpt>
      <trkpt lat="42.91625" lon="0.86346">
        <ele>838</ele>
        <time>2018-12-02T14:54:17.000Z</time>
      </trkpt>
      <trkpt lat="42.91623" lon="0.86346">
        <ele>838</ele>
        <time>2018-12-02T14:54:19.000Z</time>
      </trkpt>
      <trkpt lat="42.91621" lon="0.86347">
        <ele>837</ele>
        <time>2018-12-02T14:54:21.000Z</time>
      </trkpt>
      <trkpt lat="42.91619" lon="0.86348">
        <ele>837</ele>
        <time>2018-12-02T14:54:23.000Z</time>
      </trkpt>
      <trkpt lat="42.91617" lon="0.86349">
        <ele>836</ele>
        <time>2018-12-02T14:54:25.000Z</time>
      </trkpt>
      <trkpt lat="42.91614" lon="0.86349">
        <ele>836</ele>
        <time>2018-12-02T14:54:27.000Z</time>
      </trkpt>
      <trkpt lat="42.91613" lon="0.8635">
        <ele>836</ele>
        <time>2018-12-02T14:54:29.000Z</time>
      </trkpt>
      <trkpt lat="42.91611" lon="0.8635">
        <ele>835</ele>
        <time>2018-12-02T14:54:31.000Z</time>
      </trkpt>
      <trkpt lat="42.91609" lon="0.86349">
        <ele>835</ele>
        <time>2018-12-02T14:54:33.000Z</time>
      </trkpt>
      <trkpt lat="42.91607" lon="0.86349">
        <ele>835</ele>
        <time>2018-12-02T14:54:35.000Z</time>
      </trkpt>
      <trkpt lat="42.91606" lon="0.8635">
        <ele>834</ele>
        <time>2018-12-02T14:54:37.000Z</time>
      </trkpt>
      <trkpt lat="42.91607" lon="0.8635">
        <ele>835</ele>
        <time>2018-12-02T14:54:39.000Z</time>
      </trkpt>
      <trkpt lat="42.91609" lon="0.86351">
        <ele>835</ele>
        <time>2018-12-02T14:54:41.000Z</time>
      </trkpt>
      <trkpt lat="42.9161" lon="0.86351">
        <ele>835</ele>
        <time>2018-12-02T14:54:43.000Z</time>
      </trkpt>
      <trkpt lat="42.91611" lon="0.86353">
        <ele>835</ele>
        <time>2018-12-02T14:54:45.000Z</time>
      </trkpt>
      <trkpt lat="42.91612" lon="0.86353">
        <ele>835</ele>
        <time>2018-12-02T14:54:47.000Z</time>
      </trkpt>
      <trkpt lat="42.91613" lon="0.86355">
        <ele>835</ele>
        <time>2018-12-02T14:54:49.000Z</time>
      </trkpt>
      <trkpt lat="42.91614" lon="0.86357">
        <ele>835</ele>
        <time>2018-12-02T14:54:51.000Z</time>
      </trkpt>
      <trkpt lat="42.91615" lon="0.86359">
        <ele>835</ele>
        <time>2018-12-02T14:54:53.000Z</time>
      </trkpt>
      <trkpt lat="42.91616" lon="0.86361">
        <ele>834</ele>
        <time>2018-12-02T14:54:55.000Z</time>
      </trkpt>
      <trkpt lat="42.91617" lon="0.86362">
        <ele>834</ele>
        <time>2018-12-02T14:54:57.000Z</time>
      </trkpt>
      <trkpt lat="42.91618" lon="0.86363">
        <ele>834</ele>
        <time>2018-12-02T14:54:59.000Z</time>
      </trkpt>
      <trkpt lat="42.91619" lon="0.86364">
        <ele>834</ele>
        <time>2018-12-02T14:55:01.000Z</time>
      </trkpt>
      <trkpt lat="42.91621" lon="0.86365">
        <ele>835</ele>
        <time>2018-12-02T14:55:03.000Z</time>
      </trkpt>
      <trkpt lat="42.91621" lon="0.86365">
        <ele>835</ele>
        <time>2018-12-02T14:55:05.000Z</time>
      </trkpt>
      <trkpt lat="42.91623" lon="0.86364">
        <ele>835</ele>
        <time>2018-12-02T14:55:07.000Z</time>
      </trkpt>
      <trkpt lat="42.91626" lon="0.86365">
        <ele>836</ele>
        <time>2018-12-02T14:55:09.000Z</time>
      </trkpt>
      <trkpt lat="42.91629" lon="0.86363">
        <ele>836</ele>
        <time>2018-12-02T14:55:11.000Z</time>
      </trkpt>
      <trkpt lat="42.91631" lon="0.86362">
        <ele>837</ele>
        <time>2018-12-02T14:55:13.000Z</time>
      </trkpt>
      <trkpt lat="42.91634" lon="0.86363">
        <ele>837</ele>
        <time>2018-12-02T14:55:15.000Z</time>
      </trkpt>
      <trkpt lat="42.91636" lon="0.86364">
        <ele>837</ele>
        <time>2018-12-02T14:55:17.000Z</time>
      </trkpt>
      <trkpt lat="42.91637" lon="0.86364">
        <ele>838</ele>
        <time>2018-12-02T14:55:19.000Z</time>
      </trkpt>
      <trkpt lat="42.9164" lon="0.86364">
        <ele>838</ele>
        <time>2018-12-02T14:55:21.000Z</time>
      </trkpt>
      <trkpt lat="42.91641" lon="0.86366">
        <ele>838</ele>
        <time>2018-12-02T14:55:23.000Z</time>
      </trkpt>
      <trkpt lat="42.91642" lon="0.86367">
        <ele>838</ele>
        <time>2018-12-02T14:55:25.000Z</time>
      </trkpt>
      <trkpt lat="42.91644" lon="0.86367">
        <ele>838</ele>
        <time>2018-12-02T14:55:27.000Z</time>
      </trkpt>
      <trkpt lat="42.91645" lon="0.86367">
        <ele>838</ele>
        <time>2018-12-02T14:55:29.000Z</time>
      </trkpt>
      <trkpt lat="42.91647" lon="0.86368">
        <ele>839</ele>
        <time>2018-12-02T14:55:31.000Z</time>
      </trkpt>
      <trkpt lat="42.91648" lon="0.86369">
        <ele>839</ele>
        <time>2018-12-02T14:55:33.000Z</time>
      </trkpt>
      <trkpt lat="42.91649" lon="0.8637">
        <ele>839</ele>
        <time>2018-12-02T14:55:35.000Z</time>
      </trkpt>
      <trkpt lat="42.9165" lon="0.86371">
        <ele>839</ele>
        <time>2018-12-02T14:55:37.000Z</time>
      </trkpt>
      <trkpt lat="42.91652" lon="0.86373">
        <ele>839</ele>
        <time>2018-12-02T14:55:39.000Z</time>
      </trkpt>
      <trkpt lat="42.91654" lon="0.86374">
        <ele>839</ele>
        <time>2018-12-02T14:55:41.000Z</time>
      </trkpt>
      <trkpt lat="42.91655" lon="0.86376">
        <ele>839</ele>
        <time>2018-12-02T14:55:43.000Z</time>
      </trkpt>
      <trkpt lat="42.91656" lon="0.86378">
        <ele>839</ele>
        <time>2018-12-02T14:55:45.000Z</time>
      </trkpt>
      <trkpt lat="42.91657" lon="0.8638">
        <ele>839</ele>
        <time>2018-12-02T14:55:47.000Z</time>
      </trkpt>
      <trkpt lat="42.91659" lon="0.86382">
        <ele>839</ele>
        <time>2018-12-02T14:55:49.000Z</time>
      </trkpt>
      <trkpt lat="42.91661" lon="0.86384">
        <ele>839</ele>
        <time>2018-12-02T14:55:51.000Z</time>
      </trkpt>
      <trkpt lat="42.91663" lon="0.86387">
        <ele>839</ele>
        <time>2018-12-02T14:55:53.000Z</time>
      </trkpt>
      <trkpt lat="42.91665" lon="0.8639">
        <ele>838</ele>
        <time>2018-12-02T14:55:55.000Z</time>
      </trkpt>
      <trkpt lat="42.91666" lon="0.86392">
        <ele>839</ele>
        <time>2018-12-02T14:55:57.000Z</time>
      </trkpt>
      <trkpt lat="42.91665" lon="0.86395">
        <ele>839</ele>
        <time>2018-12-02T14:55:59.000Z</time>
      </trkpt>
      <trkpt lat="42.91662" lon="0.86398">
        <ele>838</ele>
        <time>2018-12-02T14:56:01.000Z</time>
      </trkpt>
      <trkpt lat="42.91663" lon="0.86401">
        <ele>838</ele>
        <time>2018-12-02T14:56:03.000Z</time>
      </trkpt>
      <trkpt lat="42.91663" lon="0.86403">
        <ele>839</ele>
        <time>2018-12-02T14:56:05.000Z</time>
      </trkpt>
      <trkpt lat="42.91663" lon="0.86406">
        <ele>839</ele>
        <time>2018-12-02T14:56:07.000Z</time>
      </trkpt>
      <trkpt lat="42.91663" lon="0.86408">
        <ele>839</ele>
        <time>2018-12-02T14:56:09.000Z</time>
      </trkpt>
      <trkpt lat="42.91663" lon="0.86411">
        <ele>839</ele>
        <time>2018-12-02T14:56:11.000Z</time>
      </trkpt>
      <trkpt lat="42.91662" lon="0.86414">
        <ele>839</ele>
        <time>2018-12-02T14:56:13.000Z</time>
      </trkpt>
      <trkpt lat="42.91661" lon="0.86417">
        <ele>839</ele>
        <time>2018-12-02T14:56:15.000Z</time>
      </trkpt>
      <trkpt lat="42.9166" lon="0.8642">
        <ele>838</ele>
        <time>2018-12-02T14:56:17.000Z</time>
      </trkpt>
      <trkpt lat="42.9166" lon="0.86423">
        <ele>839</ele>
        <time>2018-12-02T14:56:19.000Z</time>
      </trkpt>
      <trkpt lat="42.9166" lon="0.86425">
        <ele>838</ele>
        <time>2018-12-02T14:56:21.000Z</time>
      </trkpt>
      <trkpt lat="42.91659" lon="0.86427">
        <ele>838</ele>
        <time>2018-12-02T14:56:23.000Z</time>
      </trkpt>
      <trkpt lat="42.91658" lon="0.86431">
        <ele>838</ele>
        <time>2018-12-02T14:56:25.000Z</time>
      </trkpt>
      <trkpt lat="42.91657" lon="0.86435">
        <ele>838</ele>
        <time>2018-12-02T14:56:27.000Z</time>
      </trkpt>
      <trkpt lat="42.91655" lon="0.86439">
        <ele>838</ele>
        <time>2018-12-02T14:56:29.000Z</time>
      </trkpt>
      <trkpt lat="42.91654" lon="0.86443">
        <ele>838</ele>
        <time>2018-12-02T14:56:31.000Z</time>
      </trkpt>
      <trkpt lat="42.91653" lon="0.86445">
        <ele>838</ele>
        <time>2018-12-02T14:56:33.000Z</time>
      </trkpt>
      <trkpt lat="42.91652" lon="0.86449">
        <ele>838</ele>
        <time>2018-12-02T14:56:35.000Z</time>
      </trkpt>
      <trkpt lat="42.91649" lon="0.86451">
        <ele>837</ele>
        <time>2018-12-02T14:56:37.000Z</time>
      </trkpt>
      <trkpt lat="42.91647" lon="0.86455">
        <ele>836</ele>
        <time>2018-12-02T14:56:39.000Z</time>
      </trkpt>
      <trkpt lat="42.91645" lon="0.86458">
        <ele>835</ele>
        <time>2018-12-02T14:56:41.000Z</time>
      </trkpt>
      <trkpt lat="42.91644" lon="0.8646">
        <ele>834</ele>
        <time>2018-12-02T14:56:43.000Z</time>
      </trkpt>
      <trkpt lat="42.91643" lon="0.86463">
        <ele>833</ele>
        <time>2018-12-02T14:56:45.000Z</time>
      </trkpt>
      <trkpt lat="42.91643" lon="0.86466">
        <ele>833</ele>
        <time>2018-12-02T14:56:47.000Z</time>
      </trkpt>
      <trkpt lat="42.91642" lon="0.86468">
        <ele>832</ele>
        <time>2018-12-02T14:56:49.000Z</time>
      </trkpt>
      <trkpt lat="42.91641" lon="0.86471">
        <ele>832</ele>
        <time>2018-12-02T14:56:51.000Z</time>
      </trkpt>
      <trkpt lat="42.9164" lon="0.86474">
        <ele>831</ele>
        <time>2018-12-02T14:56:53.000Z</time>
      </trkpt>
      <trkpt lat="42.91639" lon="0.86477">
        <ele>831</ele>
        <time>2018-12-02T14:56:55.000Z</time>
      </trkpt>
      <trkpt lat="42.91639" lon="0.86481">
        <ele>831</ele>
        <time>2018-12-02T14:56:57.000Z</time>
      </trkpt>
      <trkpt lat="42.91638" lon="0.86484">
        <ele>830</ele>
        <time>2018-12-02T14:56:59.000Z</time>
      </trkpt>
      <trkpt lat="42.91637" lon="0.86486">
        <ele>830</ele>
        <time>2018-12-02T14:57:01.000Z</time>
      </trkpt>
      <trkpt lat="42.91636" lon="0.86489">
        <ele>830</ele>
        <time>2018-12-02T14:57:03.000Z</time>
      </trkpt>
      <trkpt lat="42.91635" lon="0.86492">
        <ele>829</ele>
        <time>2018-12-02T14:57:05.000Z</time>
      </trkpt>
      <trkpt lat="42.91634" lon="0.86494">
        <ele>829</ele>
        <time>2018-12-02T14:57:07.000Z</time>
      </trkpt>
      <trkpt lat="42.91634" lon="0.86497">
        <ele>829</ele>
        <time>2018-12-02T14:57:09.000Z</time>
      </trkpt>
      <trkpt lat="42.91633" lon="0.865">
        <ele>829</ele>
        <time>2018-12-02T14:57:11.000Z</time>
      </trkpt>
      <trkpt lat="42.91632" lon="0.86503">
        <ele>828</ele>
        <time>2018-12-02T14:57:13.000Z</time>
      </trkpt>
      <trkpt lat="42.91631" lon="0.86507">
        <ele>828</ele>
        <time>2018-12-02T14:57:16.000Z</time>
      </trkpt>
      <trkpt lat="42.91629" lon="0.8651">
        <ele>828</ele>
        <time>2018-12-02T14:57:18.000Z</time>
      </trkpt>
      <trkpt lat="42.91628" lon="0.86513">
        <ele>827</ele>
        <time>2018-12-02T14:57:20.000Z</time>
      </trkpt>
      <trkpt lat="42.91628" lon="0.86515">
        <ele>827</ele>
        <time>2018-12-02T14:57:22.000Z</time>
      </trkpt>
      <trkpt lat="42.91628" lon="0.86518">
        <ele>827</ele>
        <time>2018-12-02T14:57:24.000Z</time>
      </trkpt>
      <trkpt lat="42.91627" lon="0.8652">
        <ele>826</ele>
        <time>2018-12-02T14:57:26.000Z</time>
      </trkpt>
      <trkpt lat="42.91625" lon="0.86523">
        <ele>826</ele>
        <time>2018-12-02T14:57:28.000Z</time>
      </trkpt>
      <trkpt lat="42.91624" lon="0.86526">
        <ele>825</ele>
        <time>2018-12-02T14:57:30.000Z</time>
      </trkpt>
      <trkpt lat="42.91624" lon="0.86528">
        <ele>825</ele>
        <time>2018-12-02T14:57:32.000Z</time>
      </trkpt>
      <trkpt lat="42.91624" lon="0.8653">
        <ele>825</ele>
        <time>2018-12-02T14:57:34.000Z</time>
      </trkpt>
      <trkpt lat="42.91623" lon="0.86534">
        <ele>825</ele>
        <time>2018-12-02T14:57:36.000Z</time>
      </trkpt>
      <trkpt lat="42.91623" lon="0.86536">
        <ele>824</ele>
        <time>2018-12-02T14:57:38.000Z</time>
      </trkpt>
      <trkpt lat="42.91623" lon="0.86539">
        <ele>824</ele>
        <time>2018-12-02T14:57:40.000Z</time>
      </trkpt>
      <trkpt lat="42.91622" lon="0.86542">
        <ele>824</ele>
        <time>2018-12-02T14:57:42.000Z</time>
      </trkpt>
      <trkpt lat="42.91622" lon="0.86544">
        <ele>824</ele>
        <time>2018-12-02T14:57:44.000Z</time>
      </trkpt>
      <trkpt lat="42.9162" lon="0.86545">
        <ele>823</ele>
        <time>2018-12-02T14:57:46.000Z</time>
      </trkpt>
      <trkpt lat="42.91621" lon="0.86548">
        <ele>823</ele>
        <time>2018-12-02T14:57:48.000Z</time>
      </trkpt>
      <trkpt lat="42.9162" lon="0.8655">
        <ele>823</ele>
        <time>2018-12-02T14:57:50.000Z</time>
      </trkpt>
      <trkpt lat="42.91618" lon="0.86552">
        <ele>822</ele>
        <time>2018-12-02T14:57:52.000Z</time>
      </trkpt>
      <trkpt lat="42.91618" lon="0.86555">
        <ele>822</ele>
        <time>2018-12-02T14:57:54.000Z</time>
      </trkpt>
      <trkpt lat="42.91617" lon="0.86558">
        <ele>821</ele>
        <time>2018-12-02T14:57:56.000Z</time>
      </trkpt>
      <trkpt lat="42.91617" lon="0.86561">
        <ele>821</ele>
        <time>2018-12-02T14:57:58.000Z</time>
      </trkpt>
      <trkpt lat="42.91617" lon="0.86564">
        <ele>821</ele>
        <time>2018-12-02T14:58:00.000Z</time>
      </trkpt>
      <trkpt lat="42.91616" lon="0.86567">
        <ele>821</ele>
        <time>2018-12-02T14:58:02.000Z</time>
      </trkpt>
      <trkpt lat="42.91616" lon="0.86569">
        <ele>820</ele>
        <time>2018-12-02T14:58:04.000Z</time>
      </trkpt>
      <trkpt lat="42.91616" lon="0.86572">
        <ele>820</ele>
        <time>2018-12-02T14:58:06.000Z</time>
      </trkpt>
      <trkpt lat="42.91615" lon="0.86575">
        <ele>819</ele>
        <time>2018-12-02T14:58:08.000Z</time>
      </trkpt>
      <trkpt lat="42.91614" lon="0.86578">
        <ele>819</ele>
        <time>2018-12-02T14:58:10.000Z</time>
      </trkpt>
      <trkpt lat="42.91614" lon="0.86581">
        <ele>819</ele>
        <time>2018-12-02T14:58:12.000Z</time>
      </trkpt>
      <trkpt lat="42.91612" lon="0.86584">
        <ele>818</ele>
        <time>2018-12-02T14:58:14.000Z</time>
      </trkpt>
      <trkpt lat="42.91613" lon="0.86586">
        <ele>818</ele>
        <time>2018-12-02T14:58:16.000Z</time>
      </trkpt>
      <trkpt lat="42.91613" lon="0.86589">
        <ele>818</ele>
        <time>2018-12-02T14:58:18.000Z</time>
      </trkpt>
      <trkpt lat="42.91613" lon="0.86592">
        <ele>817</ele>
        <time>2018-12-02T14:58:20.000Z</time>
      </trkpt>
      <trkpt lat="42.91613" lon="0.86595">
        <ele>817</ele>
        <time>2018-12-02T14:58:22.000Z</time>
      </trkpt>
      <trkpt lat="42.91614" lon="0.86598">
        <ele>817</ele>
        <time>2018-12-02T14:58:24.000Z</time>
      </trkpt>
      <trkpt lat="42.91614" lon="0.86601">
        <ele>816</ele>
        <time>2018-12-02T14:58:26.000Z</time>
      </trkpt>
      <trkpt lat="42.91614" lon="0.86604">
        <ele>816</ele>
        <time>2018-12-02T14:58:28.000Z</time>
      </trkpt>
      <trkpt lat="42.91613" lon="0.86606">
        <ele>816</ele>
        <time>2018-12-02T14:58:30.000Z</time>
      </trkpt>
      <trkpt lat="42.91613" lon="0.86609">
        <ele>815</ele>
        <time>2018-12-02T14:58:32.000Z</time>
      </trkpt>
      <trkpt lat="42.91613" lon="0.86611">
        <ele>815</ele>
        <time>2018-12-02T14:58:34.000Z</time>
      </trkpt>
      <trkpt lat="42.91614" lon="0.86613">
        <ele>815</ele>
        <time>2018-12-02T14:58:36.000Z</time>
      </trkpt>
      <trkpt lat="42.91614" lon="0.86614">
        <ele>815</ele>
        <time>2018-12-02T14:58:38.000Z</time>
      </trkpt>
      <trkpt lat="42.91613" lon="0.86616">
        <ele>815</ele>
        <time>2018-12-02T14:58:40.000Z</time>
      </trkpt>
      <trkpt lat="42.91611" lon="0.86618">
        <ele>814</ele>
        <time>2018-12-02T14:58:42.000Z</time>
      </trkpt>
      <trkpt lat="42.9161" lon="0.8662">
        <ele>813</ele>
        <time>2018-12-02T14:58:44.000Z</time>
      </trkpt>
      <trkpt lat="42.91609" lon="0.86621">
        <ele>813</ele>
        <time>2018-12-02T14:58:46.000Z</time>
      </trkpt>
      <trkpt lat="42.91608" lon="0.86622">
        <ele>812</ele>
        <time>2018-12-02T14:58:48.000Z</time>
      </trkpt>
      <trkpt lat="42.91607" lon="0.86623">
        <ele>811</ele>
        <time>2018-12-02T14:58:50.000Z</time>
      </trkpt>
      <trkpt lat="42.91608" lon="0.86626">
        <ele>811</ele>
        <time>2018-12-02T14:58:52.000Z</time>
      </trkpt>
      <trkpt lat="42.91607" lon="0.86628">
        <ele>811</ele>
        <time>2018-12-02T14:58:54.000Z</time>
      </trkpt>
      <trkpt lat="42.91607" lon="0.8663">
        <ele>810</ele>
        <time>2018-12-02T14:58:56.000Z</time>
      </trkpt>
      <trkpt lat="42.91606" lon="0.86632">
        <ele>810</ele>
        <time>2018-12-02T14:58:58.000Z</time>
      </trkpt>
      <trkpt lat="42.91606" lon="0.86634">
        <ele>810</ele>
        <time>2018-12-02T14:59:00.000Z</time>
      </trkpt>
      <trkpt lat="42.91605" lon="0.86637">
        <ele>809</ele>
        <time>2018-12-02T14:59:02.000Z</time>
      </trkpt>
      <trkpt lat="42.91605" lon="0.86639">
        <ele>809</ele>
        <time>2018-12-02T14:59:04.000Z</time>
      </trkpt>
      <trkpt lat="42.91605" lon="0.86641">
        <ele>809</ele>
        <time>2018-12-02T14:59:06.000Z</time>
      </trkpt>
      <trkpt lat="42.91605" lon="0.86643">
        <ele>808</ele>
        <time>2018-12-02T14:59:08.000Z</time>
      </trkpt>
      <trkpt lat="42.91605" lon="0.86644">
        <ele>808</ele>
        <time>2018-12-02T14:59:10.000Z</time>
      </trkpt>
      <trkpt lat="42.91605" lon="0.86647">
        <ele>807</ele>
        <time>2018-12-02T14:59:12.000Z</time>
      </trkpt>
      <trkpt lat="42.91606" lon="0.86649">
        <ele>807</ele>
        <time>2018-12-02T14:59:14.000Z</time>
      </trkpt>
      <trkpt lat="42.91607" lon="0.86651">
        <ele>807</ele>
        <time>2018-12-02T14:59:16.000Z</time>
      </trkpt>
      <trkpt lat="42.91606" lon="0.86653">
        <ele>806</ele>
        <time>2018-12-02T14:59:18.000Z</time>
      </trkpt>
      <trkpt lat="42.91607" lon="0.86656">
        <ele>805</ele>
        <time>2018-12-02T14:59:20.000Z</time>
      </trkpt>
      <trkpt lat="42.91606" lon="0.86659">
        <ele>805</ele>
        <time>2018-12-02T14:59:22.000Z</time>
      </trkpt>
      <trkpt lat="42.91606" lon="0.86661">
        <ele>804</ele>
        <time>2018-12-02T14:59:24.000Z</time>
      </trkpt>
      <trkpt lat="42.91606" lon="0.86663">
        <ele>804</ele>
        <time>2018-12-02T14:59:26.000Z</time>
      </trkpt>
      <trkpt lat="42.91606" lon="0.86665">
        <ele>803</ele>
        <time>2018-12-02T14:59:28.000Z</time>
      </trkpt>
      <trkpt lat="42.91605" lon="0.86667">
        <ele>803</ele>
        <time>2018-12-02T14:59:30.000Z</time>
      </trkpt>
      <trkpt lat="42.91605" lon="0.86669">
        <ele>802</ele>
        <time>2018-12-02T14:59:32.000Z</time>
      </trkpt>
      <trkpt lat="42.91604" lon="0.8667">
        <ele>801</ele>
        <time>2018-12-02T14:59:34.000Z</time>
      </trkpt>
      <trkpt lat="42.91604" lon="0.86672">
        <ele>801</ele>
        <time>2018-12-02T14:59:36.000Z</time>
      </trkpt>
      <trkpt lat="42.91604" lon="0.86674">
        <ele>800</ele>
        <time>2018-12-02T14:59:38.000Z</time>
      </trkpt>
      <trkpt lat="42.91604" lon="0.86674">
        <ele>801</ele>
        <time>2018-12-02T14:59:40.000Z</time>
      </trkpt>
      <trkpt lat="42.91605" lon="0.86676">
        <ele>800</ele>
        <time>2018-12-02T14:59:42.000Z</time>
      </trkpt>
      <trkpt lat="42.91606" lon="0.86678">
        <ele>800</ele>
        <time>2018-12-02T14:59:44.000Z</time>
      </trkpt>
      <trkpt lat="42.91607" lon="0.8668">
        <ele>800</ele>
        <time>2018-12-02T14:59:46.000Z</time>
      </trkpt>
      <trkpt lat="42.91607" lon="0.86681">
        <ele>800</ele>
        <time>2018-12-02T14:59:48.000Z</time>
      </trkpt>
      <trkpt lat="42.91607" lon="0.86682">
        <ele>800</ele>
        <time>2018-12-02T14:59:50.000Z</time>
      </trkpt>
      <trkpt lat="42.91607" lon="0.86684">
        <ele>800</ele>
        <time>2018-12-02T14:59:52.000Z</time>
      </trkpt>
      <trkpt lat="42.91608" lon="0.86685">
        <ele>799</ele>
        <time>2018-12-02T14:59:54.000Z</time>
      </trkpt>
      <trkpt lat="42.91609" lon="0.86687">
        <ele>799</ele>
        <time>2018-12-02T14:59:56.000Z</time>
      </trkpt>
      <trkpt lat="42.9161" lon="0.86688">
        <ele>799</ele>
        <time>2018-12-02T14:59:58.000Z</time>
      </trkpt>
      <trkpt lat="42.91611" lon="0.8669">
        <ele>799</ele>
        <time>2018-12-02T15:00:00.000Z</time>
      </trkpt>
      <trkpt lat="42.91611" lon="0.86692">
        <ele>799</ele>
        <time>2018-12-02T15:00:02.000Z</time>
      </trkpt>
      <trkpt lat="42.91611" lon="0.86694">
        <ele>799</ele>
        <time>2018-12-02T15:00:04.000Z</time>
      </trkpt>
      <trkpt lat="42.91612" lon="0.86695">
        <ele>799</ele>
        <time>2018-12-02T15:00:06.000Z</time>
      </trkpt>
      <trkpt lat="42.91611" lon="0.86695">
        <ele>799</ele>
        <time>2018-12-02T15:00:08.000Z</time>
      </trkpt>
      <trkpt lat="42.91611" lon="0.86696">
        <ele>798</ele>
        <time>2018-12-02T15:00:10.000Z</time>
      </trkpt>
      <trkpt lat="42.91613" lon="0.86698">
        <ele>798</ele>
        <time>2018-12-02T15:00:12.000Z</time>
      </trkpt>
      <trkpt lat="42.91614" lon="0.867">
        <ele>798</ele>
        <time>2018-12-02T15:00:14.000Z</time>
      </trkpt>
      <trkpt lat="42.91615" lon="0.86701">
        <ele>798</ele>
        <time>2018-12-02T15:00:16.000Z</time>
      </trkpt>
      <trkpt lat="42.91616" lon="0.86704">
        <ele>798</ele>
        <time>2018-12-02T15:00:18.000Z</time>
      </trkpt>
      <trkpt lat="42.91619" lon="0.86707">
        <ele>799</ele>
        <time>2018-12-02T15:00:20.000Z</time>
      </trkpt>
      <trkpt lat="42.91621" lon="0.8671">
        <ele>799</ele>
        <time>2018-12-02T15:00:22.000Z</time>
      </trkpt>
      <trkpt lat="42.91622" lon="0.86713">
        <ele>798</ele>
        <time>2018-12-02T15:00:24.000Z</time>
      </trkpt>
      <trkpt lat="42.91622" lon="0.86715">
        <ele>798</ele>
        <time>2018-12-02T15:00:26.000Z</time>
      </trkpt>
      <trkpt lat="42.91623" lon="0.86718">
        <ele>798</ele>
        <time>2018-12-02T15:00:28.000Z</time>
      </trkpt>
      <trkpt lat="42.91624" lon="0.8672">
        <ele>798</ele>
        <time>2018-12-02T15:00:30.000Z</time>
      </trkpt>
      <trkpt lat="42.91624" lon="0.86722">
        <ele>797</ele>
        <time>2018-12-02T15:00:32.000Z</time>
      </trkpt>
      <trkpt lat="42.91624" lon="0.86725">
        <ele>797</ele>
        <time>2018-12-02T15:00:34.000Z</time>
      </trkpt>
      <trkpt lat="42.91626" lon="0.86729">
        <ele>796</ele>
        <time>2018-12-02T15:00:36.000Z</time>
      </trkpt>
      <trkpt lat="42.91627" lon="0.86732">
        <ele>796</ele>
        <time>2018-12-02T15:00:38.000Z</time>
      </trkpt>
      <trkpt lat="42.91627" lon="0.86735">
        <ele>795</ele>
        <time>2018-12-02T15:00:40.000Z</time>
      </trkpt>
      <trkpt lat="42.91628" lon="0.86738">
        <ele>795</ele>
        <time>2018-12-02T15:00:42.000Z</time>
      </trkpt>
      <trkpt lat="42.91627" lon="0.86741">
        <ele>793</ele>
        <time>2018-12-02T15:00:44.000Z</time>
      </trkpt>
      <trkpt lat="42.91627" lon="0.86744">
        <ele>793</ele>
        <time>2018-12-02T15:00:46.000Z</time>
      </trkpt>
      <trkpt lat="42.91627" lon="0.86746">
        <ele>792</ele>
        <time>2018-12-02T15:00:48.000Z</time>
      </trkpt>
      <trkpt lat="42.91627" lon="0.86747">
        <ele>792</ele>
        <time>2018-12-02T15:00:50.000Z</time>
      </trkpt>
      <trkpt lat="42.91627" lon="0.86751">
        <ele>791</ele>
        <time>2018-12-02T15:00:52.000Z</time>
      </trkpt>
      <trkpt lat="42.91628" lon="0.86754">
        <ele>791</ele>
        <time>2018-12-02T15:00:54.000Z</time>
      </trkpt>
      <trkpt lat="42.91628" lon="0.86756">
        <ele>790</ele>
        <time>2018-12-02T15:00:56.000Z</time>
      </trkpt>
      <trkpt lat="42.91629" lon="0.86759">
        <ele>790</ele>
        <time>2018-12-02T15:00:58.000Z</time>
      </trkpt>
      <trkpt lat="42.91629" lon="0.8676">
        <ele>790</ele>
        <time>2018-12-02T15:01:00.000Z</time>
      </trkpt>
      <trkpt lat="42.91629" lon="0.86762">
        <ele>789</ele>
        <time>2018-12-02T15:01:02.000Z</time>
      </trkpt>
      <trkpt lat="42.91629" lon="0.86763">
        <ele>789</ele>
        <time>2018-12-02T15:01:04.000Z</time>
      </trkpt>
      <trkpt lat="42.91629" lon="0.86765">
        <ele>789</ele>
        <time>2018-12-02T15:01:06.000Z</time>
      </trkpt>
      <trkpt lat="42.91629" lon="0.86767">
        <ele>789</ele>
        <time>2018-12-02T15:01:08.000Z</time>
      </trkpt>
      <trkpt lat="42.91629" lon="0.86768">
        <ele>788</ele>
        <time>2018-12-02T15:01:10.000Z</time>
      </trkpt>
      <trkpt lat="42.9163" lon="0.8677">
        <ele>788</ele>
        <time>2018-12-02T15:01:12.000Z</time>
      </trkpt>
      <trkpt lat="42.9163" lon="0.86773">
        <ele>788</ele>
        <time>2018-12-02T15:01:14.000Z</time>
      </trkpt>
      <trkpt lat="42.91631" lon="0.86775">
        <ele>788</ele>
        <time>2018-12-02T15:01:16.000Z</time>
      </trkpt>
      <trkpt lat="42.91632" lon="0.86778">
        <ele>788</ele>
        <time>2018-12-02T15:01:18.000Z</time>
      </trkpt>
      <trkpt lat="42.91631" lon="0.8678">
        <ele>787</ele>
        <time>2018-12-02T15:01:20.000Z</time>
      </trkpt>
      <trkpt lat="42.91632" lon="0.86782">
        <ele>787</ele>
        <time>2018-12-02T15:01:22.000Z</time>
      </trkpt>
      <trkpt lat="42.91633" lon="0.86784">
        <ele>787</ele>
        <time>2018-12-02T15:01:24.000Z</time>
      </trkpt>
      <trkpt lat="42.91633" lon="0.86787">
        <ele>787</ele>
        <time>2018-12-02T15:01:26.000Z</time>
      </trkpt>
      <trkpt lat="42.91633" lon="0.86788">
        <ele>787</ele>
        <time>2018-12-02T15:01:28.000Z</time>
      </trkpt>
      <trkpt lat="42.91633" lon="0.86791">
        <ele>786</ele>
        <time>2018-12-02T15:01:30.000Z</time>
      </trkpt>
      <trkpt lat="42.91633" lon="0.86792">
        <ele>786</ele>
        <time>2018-12-02T15:01:32.000Z</time>
      </trkpt>
      <trkpt lat="42.91633" lon="0.86794">
        <ele>786</ele>
        <time>2018-12-02T15:01:34.000Z</time>
      </trkpt>
      <trkpt lat="42.91633" lon="0.86796">
        <ele>786</ele>
        <time>2018-12-02T15:01:36.000Z</time>
      </trkpt>
      <trkpt lat="42.91633" lon="0.86798">
        <ele>785</ele>
        <time>2018-12-02T15:01:38.000Z</time>
      </trkpt>
      <trkpt lat="42.91633" lon="0.86799">
        <ele>785</ele>
        <time>2018-12-02T15:01:40.000Z</time>
      </trkpt>
      <trkpt lat="42.91633" lon="0.86801">
        <ele>785</ele>
        <time>2018-12-02T15:01:42.000Z</time>
      </trkpt>
      <trkpt lat="42.91633" lon="0.86803">
        <ele>785</ele>
        <time>2018-12-02T15:01:44.000Z</time>
      </trkpt>
      <trkpt lat="42.91633" lon="0.86804">
        <ele>784</ele>
        <time>2018-12-02T15:01:46.000Z</time>
      </trkpt>
      <trkpt lat="42.91633" lon="0.86806">
        <ele>784</ele>
        <time>2018-12-02T15:01:48.000Z</time>
      </trkpt>
      <trkpt lat="42.91633" lon="0.86809">
        <ele>784</ele>
        <time>2018-12-02T15:01:50.000Z</time>
      </trkpt>
      <trkpt lat="42.91633" lon="0.86811">
        <ele>783</ele>
        <time>2018-12-02T15:01:52.000Z</time>
      </trkpt>
      <trkpt lat="42.91634" lon="0.86813">
        <ele>783</ele>
        <time>2018-12-02T15:01:54.000Z</time>
      </trkpt>
      <trkpt lat="42.91634" lon="0.86816">
        <ele>783</ele>
        <time>2018-12-02T15:01:56.000Z</time>
      </trkpt>
      <trkpt lat="42.91634" lon="0.86819">
        <ele>782</ele>
        <time>2018-12-02T15:01:58.000Z</time>
      </trkpt>
      <trkpt lat="42.91634" lon="0.86821">
        <ele>782</ele>
        <time>2018-12-02T15:02:00.000Z</time>
      </trkpt>
      <trkpt lat="42.91634" lon="0.86823">
        <ele>781</ele>
        <time>2018-12-02T15:02:02.000Z</time>
      </trkpt>
      <trkpt lat="42.91634" lon="0.86825">
        <ele>781</ele>
        <time>2018-12-02T15:02:04.000Z</time>
      </trkpt>
      <trkpt lat="42.91635" lon="0.86827">
        <ele>781</ele>
        <time>2018-12-02T15:02:06.000Z</time>
      </trkpt>
      <trkpt lat="42.91635" lon="0.86829">
        <ele>780</ele>
        <time>2018-12-02T15:02:08.000Z</time>
      </trkpt>
      <trkpt lat="42.91635" lon="0.86831">
        <ele>780</ele>
        <time>2018-12-02T15:02:10.000Z</time>
      </trkpt>
      <trkpt lat="42.91635" lon="0.86833">
        <ele>780</ele>
        <time>2018-12-02T15:02:12.000Z</time>
      </trkpt>
      <trkpt lat="42.91635" lon="0.86835">
        <ele>779</ele>
        <time>2018-12-02T15:02:14.000Z</time>
      </trkpt>
      <trkpt lat="42.91635" lon="0.86836">
        <ele>779</ele>
        <time>2018-12-02T15:02:16.000Z</time>
      </trkpt>
      <trkpt lat="42.91636" lon="0.86838">
        <ele>779</ele>
        <time>2018-12-02T15:02:18.000Z</time>
      </trkpt>
      <trkpt lat="42.91636" lon="0.86841">
        <ele>778</ele>
        <time>2018-12-02T15:02:20.000Z</time>
      </trkpt>
      <trkpt lat="42.91637" lon="0.86844">
        <ele>778</ele>
        <time>2018-12-02T15:02:22.000Z</time>
      </trkpt>
      <trkpt lat="42.91638" lon="0.86846">
        <ele>778</ele>
        <time>2018-12-02T15:02:24.000Z</time>
      </trkpt>
      <trkpt lat="42.91638" lon="0.86848">
        <ele>777</ele>
        <time>2018-12-02T15:02:26.000Z</time>
      </trkpt>
      <trkpt lat="42.91638" lon="0.86851">
        <ele>777</ele>
        <time>2018-12-02T15:02:28.000Z</time>
      </trkpt>
      <trkpt lat="42.91639" lon="0.86853">
        <ele>777</ele>
        <time>2018-12-02T15:02:30.000Z</time>
      </trkpt>
      <trkpt lat="42.9164" lon="0.86856">
        <ele>776</ele>
        <time>2018-12-02T15:02:32.000Z</time>
      </trkpt>
      <trkpt lat="42.9164" lon="0.86859">
        <ele>776</ele>
        <time>2018-12-02T15:02:34.000Z</time>
      </trkpt>
      <trkpt lat="42.91641" lon="0.86861">
        <ele>776</ele>
        <time>2018-12-02T15:02:36.000Z</time>
      </trkpt>
      <trkpt lat="42.91641" lon="0.86864">
        <ele>776</ele>
        <time>2018-12-02T15:02:38.000Z</time>
      </trkpt>
      <trkpt lat="42.91642" lon="0.86866">
        <ele>776</ele>
        <time>2018-12-02T15:02:40.000Z</time>
      </trkpt>
      <trkpt lat="42.91643" lon="0.86869">
        <ele>776</ele>
        <time>2018-12-02T15:02:42.000Z</time>
      </trkpt>
      <trkpt lat="42.91644" lon="0.86871">
        <ele>776</ele>
        <time>2018-12-02T15:02:44.000Z</time>
      </trkpt>
      <trkpt lat="42.91645" lon="0.86874">
        <ele>776</ele>
        <time>2018-12-02T15:02:46.000Z</time>
      </trkpt>
      <trkpt lat="42.91646" lon="0.86877">
        <ele>776</ele>
        <time>2018-12-02T15:02:48.000Z</time>
      </trkpt>
      <trkpt lat="42.91646" lon="0.86879">
        <ele>776</ele>
        <time>2018-12-02T15:02:50.000Z</time>
      </trkpt>
      <trkpt lat="42.91646" lon="0.86883">
        <ele>776</ele>
        <time>2018-12-02T15:02:52.000Z</time>
      </trkpt>
      <trkpt lat="42.91646" lon="0.86885">
        <ele>776</ele>
        <time>2018-12-02T15:02:54.000Z</time>
      </trkpt>
      <trkpt lat="42.91647" lon="0.86888">
        <ele>776</ele>
        <time>2018-12-02T15:02:56.000Z</time>
      </trkpt>
      <trkpt lat="42.91646" lon="0.86891">
        <ele>776</ele>
        <time>2018-12-02T15:02:58.000Z</time>
      </trkpt>
      <trkpt lat="42.91645" lon="0.86894">
        <ele>775</ele>
        <time>2018-12-02T15:03:00.000Z</time>
      </trkpt>
      <trkpt lat="42.91645" lon="0.86896">
        <ele>775</ele>
        <time>2018-12-02T15:03:02.000Z</time>
      </trkpt>
      <trkpt lat="42.91644" lon="0.86899">
        <ele>775</ele>
        <time>2018-12-02T15:03:04.000Z</time>
      </trkpt>
      <trkpt lat="42.91644" lon="0.86901">
        <ele>775</ele>
        <time>2018-12-02T15:03:06.000Z</time>
      </trkpt>
      <trkpt lat="42.91644" lon="0.86904">
        <ele>775</ele>
        <time>2018-12-02T15:03:08.000Z</time>
      </trkpt>
      <trkpt lat="42.91643" lon="0.86906">
        <ele>775</ele>
        <time>2018-12-02T15:03:10.000Z</time>
      </trkpt>
      <trkpt lat="42.91642" lon="0.86909">
        <ele>774</ele>
        <time>2018-12-02T15:03:12.000Z</time>
      </trkpt>
      <trkpt lat="42.91643" lon="0.86912">
        <ele>774</ele>
        <time>2018-12-02T15:03:14.000Z</time>
      </trkpt>
      <trkpt lat="42.91642" lon="0.86915">
        <ele>774</ele>
        <time>2018-12-02T15:03:16.000Z</time>
      </trkpt>
      <trkpt lat="42.91643" lon="0.86918">
        <ele>774</ele>
        <time>2018-12-02T15:03:18.000Z</time>
      </trkpt>
      <trkpt lat="42.91643" lon="0.86921">
        <ele>774</ele>
        <time>2018-12-02T15:03:20.000Z</time>
      </trkpt>
      <trkpt lat="42.91645" lon="0.86923">
        <ele>774</ele>
        <time>2018-12-02T15:03:22.000Z</time>
      </trkpt>
      <trkpt lat="42.91645" lon="0.86926">
        <ele>774</ele>
        <time>2018-12-02T15:03:24.000Z</time>
      </trkpt>
      <trkpt lat="42.91647" lon="0.86929">
        <ele>774</ele>
        <time>2018-12-02T15:03:26.000Z</time>
      </trkpt>
      <trkpt lat="42.91646" lon="0.86931">
        <ele>774</ele>
        <time>2018-12-02T15:03:28.000Z</time>
      </trkpt>
      <trkpt lat="42.91648" lon="0.86935">
        <ele>774</ele>
        <time>2018-12-02T15:03:30.000Z</time>
      </trkpt>
      <trkpt lat="42.91649" lon="0.86938">
        <ele>774</ele>
        <time>2018-12-02T15:03:32.000Z</time>
      </trkpt>
      <trkpt lat="42.91648" lon="0.86939">
        <ele>773</ele>
        <time>2018-12-02T15:03:34.000Z</time>
      </trkpt>
      <trkpt lat="42.91648" lon="0.86941">
        <ele>773</ele>
        <time>2018-12-02T15:03:36.000Z</time>
      </trkpt>
      <trkpt lat="42.91648" lon="0.86944">
        <ele>773</ele>
        <time>2018-12-02T15:03:38.000Z</time>
      </trkpt>
      <trkpt lat="42.91649" lon="0.86948">
        <ele>773</ele>
        <time>2018-12-02T15:03:40.000Z</time>
      </trkpt>
      <trkpt lat="42.91649" lon="0.8695">
        <ele>773</ele>
        <time>2018-12-02T15:03:42.000Z</time>
      </trkpt>
      <trkpt lat="42.91651" lon="0.86952">
        <ele>773</ele>
        <time>2018-12-02T15:03:44.000Z</time>
      </trkpt>
      <trkpt lat="42.91653" lon="0.86954">
        <ele>773</ele>
        <time>2018-12-02T15:03:46.000Z</time>
      </trkpt>
      <trkpt lat="42.91654" lon="0.86955">
        <ele>773</ele>
        <time>2018-12-02T15:03:48.000Z</time>
      </trkpt>
      <trkpt lat="42.91656" lon="0.86956">
        <ele>773</ele>
        <time>2018-12-02T15:03:50.000Z</time>
      </trkpt>
      <trkpt lat="42.91657" lon="0.86956">
        <ele>773</ele>
        <time>2018-12-02T15:03:52.000Z</time>
      </trkpt>
      <trkpt lat="42.91659" lon="0.86958">
        <ele>773</ele>
        <time>2018-12-02T15:03:54.000Z</time>
      </trkpt>
      <trkpt lat="42.9166" lon="0.8696">
        <ele>774</ele>
        <time>2018-12-02T15:03:56.000Z</time>
      </trkpt>
      <trkpt lat="42.91661" lon="0.86961">
        <ele>774</ele>
        <time>2018-12-02T15:03:58.000Z</time>
      </trkpt>
      <trkpt lat="42.91662" lon="0.86964">
        <ele>774</ele>
        <time>2018-12-02T15:04:00.000Z</time>
      </trkpt>
      <trkpt lat="42.91663" lon="0.86966">
        <ele>774</ele>
        <time>2018-12-02T15:04:02.000Z</time>
      </trkpt>
      <trkpt lat="42.91663" lon="0.86969">
        <ele>774</ele>
        <time>2018-12-02T15:04:04.000Z</time>
      </trkpt>
      <trkpt lat="42.91664" lon="0.86972">
        <ele>774</ele>
        <time>2018-12-02T15:04:06.000Z</time>
      </trkpt>
      <trkpt lat="42.91665" lon="0.86974">
        <ele>774</ele>
        <time>2018-12-02T15:04:08.000Z</time>
      </trkpt>
      <trkpt lat="42.91665" lon="0.86977">
        <ele>774</ele>
        <time>2018-12-02T15:04:10.000Z</time>
      </trkpt>
      <trkpt lat="42.91665" lon="0.8698">
        <ele>774</ele>
        <time>2018-12-02T15:04:12.000Z</time>
      </trkpt>
      <trkpt lat="42.91665" lon="0.86983">
        <ele>774</ele>
        <time>2018-12-02T15:04:14.000Z</time>
      </trkpt>
      <trkpt lat="42.91666" lon="0.86985">
        <ele>774</ele>
        <time>2018-12-02T15:04:16.000Z</time>
      </trkpt>
      <trkpt lat="42.91667" lon="0.86988">
        <ele>774</ele>
        <time>2018-12-02T15:04:18.000Z</time>
      </trkpt>
      <trkpt lat="42.91668" lon="0.8699">
        <ele>774</ele>
        <time>2018-12-02T15:04:20.000Z</time>
      </trkpt>
      <trkpt lat="42.91669" lon="0.86993">
        <ele>774</ele>
        <time>2018-12-02T15:04:22.000Z</time>
      </trkpt>
      <trkpt lat="42.91669" lon="0.86994">
        <ele>773</ele>
        <time>2018-12-02T15:04:24.000Z</time>
      </trkpt>
      <trkpt lat="42.9167" lon="0.86995">
        <ele>773</ele>
        <time>2018-12-02T15:04:26.000Z</time>
      </trkpt>
      <trkpt lat="42.91672" lon="0.86997">
        <ele>773</ele>
        <time>2018-12-02T15:04:28.000Z</time>
      </trkpt>
      <trkpt lat="42.91672" lon="0.86999">
        <ele>773</ele>
        <time>2018-12-02T15:04:30.000Z</time>
      </trkpt>
      <trkpt lat="42.91674" lon="0.87002">
        <ele>773</ele>
        <time>2018-12-02T15:04:32.000Z</time>
      </trkpt>
      <trkpt lat="42.91674" lon="0.87004">
        <ele>774</ele>
        <time>2018-12-02T15:04:34.000Z</time>
      </trkpt>
      <trkpt lat="42.91675" lon="0.87006">
        <ele>774</ele>
        <time>2018-12-02T15:04:36.000Z</time>
      </trkpt>
      <trkpt lat="42.91675" lon="0.87009">
        <ele>774</ele>
        <time>2018-12-02T15:04:38.000Z</time>
      </trkpt>
      <trkpt lat="42.91675" lon="0.87011">
        <ele>774</ele>
        <time>2018-12-02T15:04:40.000Z</time>
      </trkpt>
      <trkpt lat="42.91674" lon="0.87014">
        <ele>773</ele>
        <time>2018-12-02T15:04:42.000Z</time>
      </trkpt>
      <trkpt lat="42.91674" lon="0.87016">
        <ele>773</ele>
        <time>2018-12-02T15:04:44.000Z</time>
      </trkpt>
      <trkpt lat="42.91672" lon="0.87018">
        <ele>773</ele>
        <time>2018-12-02T15:04:46.000Z</time>
      </trkpt>
      <trkpt lat="42.91671" lon="0.8702">
        <ele>773</ele>
        <time>2018-12-02T15:04:48.000Z</time>
      </trkpt>
      <trkpt lat="42.9167" lon="0.87023">
        <ele>773</ele>
        <time>2018-12-02T15:04:50.000Z</time>
      </trkpt>
      <trkpt lat="42.91666" lon="0.87026">
        <ele>773</ele>
        <time>2018-12-02T15:04:52.000Z</time>
      </trkpt>
      <trkpt lat="42.91665" lon="0.87028">
        <ele>773</ele>
        <time>2018-12-02T15:04:54.000Z</time>
      </trkpt>
      <trkpt lat="42.91664" lon="0.87031">
        <ele>773</ele>
        <time>2018-12-02T15:04:56.000Z</time>
      </trkpt>
      <trkpt lat="42.91662" lon="0.87034">
        <ele>773</ele>
        <time>2018-12-02T15:04:58.000Z</time>
      </trkpt>
      <trkpt lat="42.9166" lon="0.87036">
        <ele>772</ele>
        <time>2018-12-02T15:05:00.000Z</time>
      </trkpt>
      <trkpt lat="42.91659" lon="0.87039">
        <ele>772</ele>
        <time>2018-12-02T15:05:02.000Z</time>
      </trkpt>
      <trkpt lat="42.91659" lon="0.87041">
        <ele>772</ele>
        <time>2018-12-02T15:05:04.000Z</time>
      </trkpt>
      <trkpt lat="42.9166" lon="0.87044">
        <ele>772</ele>
        <time>2018-12-02T15:05:06.000Z</time>
      </trkpt>
      <trkpt lat="42.9166" lon="0.87047">
        <ele>773</ele>
        <time>2018-12-02T15:05:08.000Z</time>
      </trkpt>
      <trkpt lat="42.91661" lon="0.8705">
        <ele>773</ele>
        <time>2018-12-02T15:05:10.000Z</time>
      </trkpt>
      <trkpt lat="42.91661" lon="0.87053">
        <ele>773</ele>
        <time>2018-12-02T15:05:12.000Z</time>
      </trkpt>
      <trkpt lat="42.91661" lon="0.87056">
        <ele>773</ele>
        <time>2018-12-02T15:05:14.000Z</time>
      </trkpt>
      <trkpt lat="42.91663" lon="0.87058">
        <ele>773</ele>
        <time>2018-12-02T15:05:16.000Z</time>
      </trkpt>
      <trkpt lat="42.91663" lon="0.87061">
        <ele>773</ele>
        <time>2018-12-02T15:05:18.000Z</time>
      </trkpt>
      <trkpt lat="42.91663" lon="0.87063">
        <ele>773</ele>
        <time>2018-12-02T15:05:20.000Z</time>
      </trkpt>
      <trkpt lat="42.91663" lon="0.87065">
        <ele>773</ele>
        <time>2018-12-02T15:05:22.000Z</time>
      </trkpt>
      <trkpt lat="42.91663" lon="0.87067">
        <ele>773</ele>
        <time>2018-12-02T15:05:24.000Z</time>
      </trkpt>
      <trkpt lat="42.91662" lon="0.87071">
        <ele>773</ele>
        <time>2018-12-02T15:05:26.000Z</time>
      </trkpt>
      <trkpt lat="42.91662" lon="0.87073">
        <ele>773</ele>
        <time>2018-12-02T15:05:28.000Z</time>
      </trkpt>
      <trkpt lat="42.91662" lon="0.87076">
        <ele>773</ele>
        <time>2018-12-02T15:05:30.000Z</time>
      </trkpt>
      <trkpt lat="42.91662" lon="0.87078">
        <ele>773</ele>
        <time>2018-12-02T15:05:32.000Z</time>
      </trkpt>
      <trkpt lat="42.91661" lon="0.87079">
        <ele>773</ele>
        <time>2018-12-02T15:05:34.000Z</time>
      </trkpt>
      <trkpt lat="42.91661" lon="0.8708">
        <ele>773</ele>
        <time>2018-12-02T15:05:36.000Z</time>
      </trkpt>
      <trkpt lat="42.91661" lon="0.87081">
        <ele>773</ele>
        <time>2018-12-02T15:05:38.000Z</time>
      </trkpt>
      <trkpt lat="42.91661" lon="0.87081">
        <ele>773</ele>
        <time>2018-12-02T15:05:40.000Z</time>
      </trkpt>
      <trkpt lat="42.91661" lon="0.8708">
        <ele>773</ele>
        <time>2018-12-02T15:05:42.000Z</time>
      </trkpt>
      <trkpt lat="42.9166" lon="0.8708">
        <ele>773</ele>
        <time>2018-12-02T15:05:44.000Z</time>
      </trkpt>
      <trkpt lat="42.9166" lon="0.87079">
        <ele>773</ele>
        <time>2018-12-02T15:05:46.000Z</time>
      </trkpt>
      <trkpt lat="42.91659" lon="0.87079">
        <ele>773</ele>
        <time>2018-12-02T15:05:48.000Z</time>
      </trkpt>
      <trkpt lat="42.91658" lon="0.87078">
        <ele>773</ele>
        <time>2018-12-02T15:05:50.000Z</time>
      </trkpt>
      <trkpt lat="42.91659" lon="0.87081">
        <ele>773</ele>
        <time>2018-12-02T15:05:52.000Z</time>
      </trkpt>
      <trkpt lat="42.91658" lon="0.87084">
        <ele>773</ele>
        <time>2018-12-02T15:05:54.000Z</time>
      </trkpt>
      <trkpt lat="42.91659" lon="0.87087">
        <ele>773</ele>
        <time>2018-12-02T15:05:56.000Z</time>
      </trkpt>
      <trkpt lat="42.91659" lon="0.8709">
        <ele>773</ele>
        <time>2018-12-02T15:05:58.000Z</time>
      </trkpt>
      <trkpt lat="42.91659" lon="0.87093">
        <ele>772</ele>
        <time>2018-12-02T15:06:00.000Z</time>
      </trkpt>
      <trkpt lat="42.91659" lon="0.87095">
        <ele>772</ele>
        <time>2018-12-02T15:06:02.000Z</time>
      </trkpt>
      <trkpt lat="42.91659" lon="0.87099">
        <ele>772</ele>
        <time>2018-12-02T15:06:04.000Z</time>
      </trkpt>
      <trkpt lat="42.91658" lon="0.87101">
        <ele>772</ele>
        <time>2018-12-02T15:06:06.000Z</time>
      </trkpt>
      <trkpt lat="42.91658" lon="0.87104">
        <ele>772</ele>
        <time>2018-12-02T15:06:08.000Z</time>
      </trkpt>
      <trkpt lat="42.91658" lon="0.87106">
        <ele>772</ele>
        <time>2018-12-02T15:06:10.000Z</time>
      </trkpt>
      <trkpt lat="42.91659" lon="0.87108">
        <ele>772</ele>
        <time>2018-12-02T15:06:12.000Z</time>
      </trkpt>
      <trkpt lat="42.91659" lon="0.87111">
        <ele>772</ele>
        <time>2018-12-02T15:06:14.000Z</time>
      </trkpt>
      <trkpt lat="42.91658" lon="0.87114">
        <ele>772</ele>
        <time>2018-12-02T15:06:16.000Z</time>
      </trkpt>
      <trkpt lat="42.91658" lon="0.87117">
        <ele>772</ele>
        <time>2018-12-02T15:06:18.000Z</time>
      </trkpt>
      <trkpt lat="42.91658" lon="0.8712">
        <ele>772</ele>
        <time>2018-12-02T15:06:20.000Z</time>
      </trkpt>
      <trkpt lat="42.91658" lon="0.87122">
        <ele>772</ele>
        <time>2018-12-02T15:06:22.000Z</time>
      </trkpt>
      <trkpt lat="42.91658" lon="0.87125">
        <ele>772</ele>
        <time>2018-12-02T15:06:24.000Z</time>
      </trkpt>
      <trkpt lat="42.91658" lon="0.87127">
        <ele>772</ele>
        <time>2018-12-02T15:06:26.000Z</time>
      </trkpt>
      <trkpt lat="42.91657" lon="0.8713">
        <ele>772</ele>
        <time>2018-12-02T15:06:28.000Z</time>
      </trkpt>
      <trkpt lat="42.91657" lon="0.87132">
        <ele>773</ele>
        <time>2018-12-02T15:06:30.000Z</time>
      </trkpt>
      <trkpt lat="42.91656" lon="0.87134">
        <ele>773</ele>
        <time>2018-12-02T15:06:32.000Z</time>
      </trkpt>
      <trkpt lat="42.91655" lon="0.87137">
        <ele>773</ele>
        <time>2018-12-02T15:06:34.000Z</time>
      </trkpt>
      <trkpt lat="42.91655" lon="0.87139">
        <ele>773</ele>
        <time>2018-12-02T15:06:36.000Z</time>
      </trkpt>
      <trkpt lat="42.91654" lon="0.87141">
        <ele>773</ele>
        <time>2018-12-02T15:06:38.000Z</time>
      </trkpt>
      <trkpt lat="42.91653" lon="0.87143">
        <ele>773</ele>
        <time>2018-12-02T15:06:40.000Z</time>
      </trkpt>
      <trkpt lat="42.91653" lon="0.87145">
        <ele>773</ele>
        <time>2018-12-02T15:06:42.000Z</time>
      </trkpt>
      <trkpt lat="42.91652" lon="0.87146">
        <ele>773</ele>
        <time>2018-12-02T15:06:44.000Z</time>
      </trkpt>
      <trkpt lat="42.9165" lon="0.87148">
        <ele>774</ele>
        <time>2018-12-02T15:06:46.000Z</time>
      </trkpt>
      <trkpt lat="42.91648" lon="0.87149">
        <ele>774</ele>
        <time>2018-12-02T15:06:48.000Z</time>
      </trkpt>
      <trkpt lat="42.91648" lon="0.8715">
        <ele>774</ele>
        <time>2018-12-02T15:06:50.000Z</time>
      </trkpt>
      <trkpt lat="42.91647" lon="0.87152">
        <ele>774</ele>
        <time>2018-12-02T15:06:52.000Z</time>
      </trkpt>
      <trkpt lat="42.91645" lon="0.87153">
        <ele>774</ele>
        <time>2018-12-02T15:06:54.000Z</time>
      </trkpt>
      <trkpt lat="42.91644" lon="0.87157">
        <ele>774</ele>
        <time>2018-12-02T15:06:56.000Z</time>
      </trkpt>
      <trkpt lat="42.91643" lon="0.87158">
        <ele>774</ele>
        <time>2018-12-02T15:06:58.000Z</time>
      </trkpt>
      <trkpt lat="42.91642" lon="0.8716">
        <ele>774</ele>
        <time>2018-12-02T15:07:00.000Z</time>
      </trkpt>
      <trkpt lat="42.91641" lon="0.87162">
        <ele>774</ele>
        <time>2018-12-02T15:07:02.000Z</time>
      </trkpt>
      <trkpt lat="42.91641" lon="0.87164">
        <ele>774</ele>
        <time>2018-12-02T15:07:04.000Z</time>
      </trkpt>
      <trkpt lat="42.9164" lon="0.87166">
        <ele>774</ele>
        <time>2018-12-02T15:07:06.000Z</time>
      </trkpt>
      <trkpt lat="42.91639" lon="0.87168">
        <ele>774</ele>
        <time>2018-12-02T15:07:08.000Z</time>
      </trkpt>
      <trkpt lat="42.91638" lon="0.87169">
        <ele>774</ele>
        <time>2018-12-02T15:07:10.000Z</time>
      </trkpt>
      <trkpt lat="42.91637" lon="0.8717">
        <ele>774</ele>
        <time>2018-12-02T15:07:12.000Z</time>
      </trkpt>
      <trkpt lat="42.91638" lon="0.8717">
        <ele>774</ele>
        <time>2018-12-02T15:07:14.000Z</time>
      </trkpt>
      <trkpt lat="42.91639" lon="0.8717">
        <ele>774</ele>
        <time>2018-12-02T15:07:16.000Z</time>
      </trkpt>
      <trkpt lat="42.91638" lon="0.8717">
        <ele>774</ele>
        <time>2018-12-02T15:07:18.000Z</time>
      </trkpt>
      <trkpt lat="42.91639" lon="0.8717">
        <ele>774</ele>
        <time>2018-12-02T15:07:20.000Z</time>
      </trkpt>
      <trkpt lat="42.91639" lon="0.8717">
        <ele>774</ele>
        <time>2018-12-02T15:07:22.000Z</time>
      </trkpt>
      <trkpt lat="42.91639" lon="0.8717">
        <ele>774</ele>
        <time>2018-12-02T15:07:24.000Z</time>
      </trkpt>
      <trkpt lat="42.91639" lon="0.8717">
        <ele>774</ele>
        <time>2018-12-02T15:07:26.000Z</time>
      </trkpt>
      <trkpt lat="42.9164" lon="0.87171">
        <ele>773</ele>
        <time>2018-12-02T15:07:28.000Z</time>
      </trkpt>
      <trkpt lat="42.9164" lon="0.87172">
        <ele>773</ele>
        <time>2018-12-02T15:07:30.000Z</time>
      </trkpt>
      <trkpt lat="42.9164" lon="0.87173">
        <ele>773</ele>
        <time>2018-12-02T15:07:32.000Z</time>
      </trkpt>
      <trkpt lat="42.91641" lon="0.87173">
        <ele>773</ele>
        <time>2018-12-02T15:07:34.000Z</time>
      </trkpt>
      <trkpt lat="42.9164" lon="0.87174">
        <ele>773</ele>
        <time>2018-12-02T15:07:36.000Z</time>
      </trkpt>
      <trkpt lat="42.9164" lon="0.87175">
        <ele>773</ele>
        <time>2018-12-02T15:07:38.000Z</time>
      </trkpt>
      <trkpt lat="42.91639" lon="0.87176">
        <ele>773</ele>
        <time>2018-12-02T15:07:40.000Z</time>
      </trkpt>
      <trkpt lat="42.91639" lon="0.87176">
        <ele>773</ele>
        <time>2018-12-02T15:07:42.000Z</time>
      </trkpt>
      <trkpt lat="42.91638" lon="0.87177">
        <ele>773</ele>
        <time>2018-12-02T15:07:44.000Z</time>
      </trkpt>
      <trkpt lat="42.91637" lon="0.87178">
        <ele>773</ele>
        <time>2018-12-02T15:07:46.000Z</time>
      </trkpt>
      <trkpt lat="42.91639" lon="0.87178">
        <ele>773</ele>
        <time>2018-12-02T15:07:48.000Z</time>
      </trkpt>
      <trkpt lat="42.91638" lon="0.87178">
        <ele>773</ele>
        <time>2018-12-02T15:07:50.000Z</time>
      </trkpt>
      <trkpt lat="42.91638" lon="0.87177">
        <ele>773</ele>
        <time>2018-12-02T15:07:52.000Z</time>
      </trkpt>
      <trkpt lat="42.91638" lon="0.87177">
        <ele>773</ele>
        <time>2018-12-02T15:07:54.000Z</time>
      </trkpt>
      <trkpt lat="42.9164" lon="0.87175">
        <ele>773</ele>
        <time>2018-12-02T15:07:56.000Z</time>
      </trkpt>
      <trkpt lat="42.91638" lon="0.87174">
        <ele>773</ele>
        <time>2018-12-02T15:07:58.000Z</time>
      </trkpt>
      <trkpt lat="42.91635" lon="0.87175">
        <ele>774</ele>
        <time>2018-12-02T15:08:00.000Z</time>
      </trkpt>
      <trkpt lat="42.91632" lon="0.87176">
        <ele>774</ele>
        <time>2018-12-02T15:08:02.000Z</time>
      </trkpt>
      <trkpt lat="42.91631" lon="0.87176">
        <ele>775</ele>
        <time>2018-12-02T15:08:04.000Z</time>
      </trkpt>
      <trkpt lat="42.91629" lon="0.87176">
        <ele>775</ele>
        <time>2018-12-02T15:08:06.000Z</time>
      </trkpt>
      <trkpt lat="42.91628" lon="0.87176">
        <ele>775</ele>
        <time>2018-12-02T15:08:08.000Z</time>
      </trkpt>
      <trkpt lat="42.9163" lon="0.87174">
        <ele>775</ele>
        <time>2018-12-02T15:08:10.000Z</time>
      </trkpt>
      <trkpt lat="42.91632" lon="0.87173">
        <ele>775</ele>
        <time>2018-12-02T15:08:12.000Z</time>
      </trkpt>
      <trkpt lat="42.91639" lon="0.87169">
        <ele>774</ele>
        <time>2018-12-02T15:08:14.000Z</time>
      </trkpt>
      <trkpt lat="42.91641" lon="0.87168">
        <ele>774</ele>
        <time>2018-12-02T15:08:16.000Z</time>
      </trkpt>
      <trkpt lat="42.91643" lon="0.87167">
        <ele>773</ele>
        <time>2018-12-02T15:08:18.000Z</time>
      </trkpt>
      <trkpt lat="42.91643" lon="0.87166">
        <ele>773</ele>
        <time>2018-12-02T15:08:20.000Z</time>
      </trkpt>
      <trkpt lat="42.91642" lon="0.87167">
        <ele>773</ele>
        <time>2018-12-02T15:08:22.000Z</time>
      </trkpt>
      <trkpt lat="42.91642" lon="0.87167">
        <ele>773</ele>
        <time>2018-12-02T15:08:24.000Z</time>
      </trkpt>
      <trkpt lat="42.91642" lon="0.87167">
        <ele>773</ele>
        <time>2018-12-02T15:08:26.000Z</time>
      </trkpt>
      <trkpt lat="42.91641" lon="0.87167">
        <ele>774</ele>
        <time>2018-12-02T15:08:28.000Z</time>
      </trkpt>
      <trkpt lat="42.91641" lon="0.87167">
        <ele>774</ele>
        <time>2018-12-02T15:08:30.000Z</time>
      </trkpt>
      <trkpt lat="42.91642" lon="0.87167">
        <ele>773</ele>
        <time>2018-12-02T15:08:32.000Z</time>
      </trkpt>
      <trkpt lat="42.91642" lon="0.87169">
        <ele>773</ele>
        <time>2018-12-02T15:08:34.000Z</time>
      </trkpt>
      <trkpt lat="42.91641" lon="0.8717">
        <ele>773</ele>
        <time>2018-12-02T15:08:36.000Z</time>
      </trkpt>
      <trkpt lat="42.91641" lon="0.87172">
        <ele>773</ele>
        <time>2018-12-02T15:08:38.000Z</time>
      </trkpt>
      <trkpt lat="42.91639" lon="0.87175">
        <ele>773</ele>
        <time>2018-12-02T15:08:40.000Z</time>
      </trkpt>
      <trkpt lat="42.91639" lon="0.87176">
        <ele>773</ele>
        <time>2018-12-02T15:08:42.000Z</time>
      </trkpt>
      <trkpt lat="42.9164" lon="0.87176">
        <ele>773</ele>
        <time>2018-12-02T15:08:44.000Z</time>
      </trkpt>
      <trkpt lat="42.91641" lon="0.87177">
        <ele>773</ele>
        <time>2018-12-02T15:08:46.000Z</time>
      </trkpt>
      <trkpt lat="42.91641" lon="0.87178">
        <ele>773</ele>
        <time>2018-12-02T15:08:48.000Z</time>
      </trkpt>
      <trkpt lat="42.9164" lon="0.87179">
        <ele>773</ele>
        <time>2018-12-02T15:08:50.000Z</time>
      </trkpt>
      <trkpt lat="42.9164" lon="0.8718">
        <ele>773</ele>
        <time>2018-12-02T15:08:52.000Z</time>
      </trkpt>
      <trkpt lat="42.9164" lon="0.87183">
        <ele>772</ele>
        <time>2018-12-02T15:08:54.000Z</time>
      </trkpt>
      <trkpt lat="42.9164" lon="0.87185">
        <ele>772</ele>
        <time>2018-12-02T15:08:56.000Z</time>
      </trkpt>
      <trkpt lat="42.91638" lon="0.87187">
        <ele>772</ele>
        <time>2018-12-02T15:08:58.000Z</time>
      </trkpt>
      <trkpt lat="42.91637" lon="0.8719">
        <ele>773</ele>
        <time>2018-12-02T15:09:00.000Z</time>
      </trkpt>
      <trkpt lat="42.91637" lon="0.87194">
        <ele>773</ele>
        <time>2018-12-02T15:09:02.000Z</time>
      </trkpt>
      <trkpt lat="42.91638" lon="0.87196">
        <ele>773</ele>
        <time>2018-12-02T15:09:04.000Z</time>
      </trkpt>
      <trkpt lat="42.91638" lon="0.872">
        <ele>773</ele>
        <time>2018-12-02T15:09:06.000Z</time>
      </trkpt>
      <trkpt lat="42.91638" lon="0.87204">
        <ele>773</ele>
        <time>2018-12-02T15:09:08.000Z</time>
      </trkpt>
      <trkpt lat="42.91638" lon="0.87207">
        <ele>773</ele>
        <time>2018-12-02T15:09:10.000Z</time>
      </trkpt>
      <trkpt lat="42.91638" lon="0.8721">
        <ele>773</ele>
        <time>2018-12-02T15:09:12.000Z</time>
      </trkpt>
      <trkpt lat="42.91639" lon="0.87213">
        <ele>773</ele>
        <time>2018-12-02T15:09:14.000Z</time>
      </trkpt>
      <trkpt lat="42.91639" lon="0.87215">
        <ele>773</ele>
        <time>2018-12-02T15:09:16.000Z</time>
      </trkpt>
      <trkpt lat="42.91639" lon="0.87218">
        <ele>773</ele>
        <time>2018-12-02T15:09:18.000Z</time>
      </trkpt>
      <trkpt lat="42.91639" lon="0.87221">
        <ele>773</ele>
        <time>2018-12-02T15:09:20.000Z</time>
      </trkpt>
      <trkpt lat="42.9164" lon="0.87224">
        <ele>773</ele>
        <time>2018-12-02T15:09:22.000Z</time>
      </trkpt>
      <trkpt lat="42.9164" lon="0.87227">
        <ele>773</ele>
        <time>2018-12-02T15:09:24.000Z</time>
      </trkpt>
      <trkpt lat="42.91641" lon="0.8723">
        <ele>773</ele>
        <time>2018-12-02T15:09:26.000Z</time>
      </trkpt>
      <trkpt lat="42.91642" lon="0.87233">
        <ele>772</ele>
        <time>2018-12-02T15:09:28.000Z</time>
      </trkpt>
      <trkpt lat="42.91643" lon="0.87236">
        <ele>772</ele>
        <time>2018-12-02T15:09:30.000Z</time>
      </trkpt>
      <trkpt lat="42.91644" lon="0.87239">
        <ele>772</ele>
        <time>2018-12-02T15:09:32.000Z</time>
      </trkpt>
      <trkpt lat="42.91644" lon="0.87243">
        <ele>771</ele>
        <time>2018-12-02T15:09:34.000Z</time>
      </trkpt>
      <trkpt lat="42.91645" lon="0.87245">
        <ele>771</ele>
        <time>2018-12-02T15:09:36.000Z</time>
      </trkpt>
      <trkpt lat="42.91646" lon="0.87249">
        <ele>771</ele>
        <time>2018-12-02T15:09:38.000Z</time>
      </trkpt>
      <trkpt lat="42.91646" lon="0.87252">
        <ele>771</ele>
        <time>2018-12-02T15:09:40.000Z</time>
      </trkpt>
      <trkpt lat="42.91647" lon="0.87255">
        <ele>770</ele>
        <time>2018-12-02T15:09:42.000Z</time>
      </trkpt>
      <trkpt lat="42.91648" lon="0.87257">
        <ele>770</ele>
        <time>2018-12-02T15:09:44.000Z</time>
      </trkpt>
      <trkpt lat="42.91648" lon="0.87259">
        <ele>770</ele>
        <time>2018-12-02T15:09:46.000Z</time>
      </trkpt>
      <trkpt lat="42.91649" lon="0.87261">
        <ele>770</ele>
        <time>2018-12-02T15:09:48.000Z</time>
      </trkpt>
      <trkpt lat="42.91649" lon="0.87264">
        <ele>770</ele>
        <time>2018-12-02T15:09:50.000Z</time>
      </trkpt>
      <trkpt lat="42.91649" lon="0.87266">
        <ele>769</ele>
        <time>2018-12-02T15:09:52.000Z</time>
      </trkpt>
      <trkpt lat="42.9165" lon="0.87269">
        <ele>769</ele>
        <time>2018-12-02T15:09:54.000Z</time>
      </trkpt>
      <trkpt lat="42.9165" lon="0.87272">
        <ele>769</ele>
        <time>2018-12-02T15:09:56.000Z</time>
      </trkpt>
      <trkpt lat="42.91649" lon="0.87276">
        <ele>769</ele>
        <time>2018-12-02T15:09:58.000Z</time>
      </trkpt>
      <trkpt lat="42.91649" lon="0.87278">
        <ele>769</ele>
        <time>2018-12-02T15:10:00.000Z</time>
      </trkpt>
      <trkpt lat="42.91649" lon="0.87282">
        <ele>769</ele>
        <time>2018-12-02T15:10:02.000Z</time>
      </trkpt>
      <trkpt lat="42.9165" lon="0.87285">
        <ele>769</ele>
        <time>2018-12-02T15:10:04.000Z</time>
      </trkpt>
      <trkpt lat="42.91649" lon="0.87288">
        <ele>769</ele>
        <time>2018-12-02T15:10:06.000Z</time>
      </trkpt>
      <trkpt lat="42.9165" lon="0.87291">
        <ele>769</ele>
        <time>2018-12-02T15:10:08.000Z</time>
      </trkpt>
      <trkpt lat="42.91649" lon="0.87293">
        <ele>769</ele>
        <time>2018-12-02T15:10:10.000Z</time>
      </trkpt>
      <trkpt lat="42.91649" lon="0.87297">
        <ele>769</ele>
        <time>2018-12-02T15:10:12.000Z</time>
      </trkpt>
      <trkpt lat="42.91649" lon="0.873">
        <ele>769</ele>
        <time>2018-12-02T15:10:14.000Z</time>
      </trkpt>
      <trkpt lat="42.91649" lon="0.87303">
        <ele>769</ele>
        <time>2018-12-02T15:10:16.000Z</time>
      </trkpt>
      <trkpt lat="42.91649" lon="0.87306">
        <ele>770</ele>
        <time>2018-12-02T15:10:18.000Z</time>
      </trkpt>
      <trkpt lat="42.91649" lon="0.87309">
        <ele>769</ele>
        <time>2018-12-02T15:10:20.000Z</time>
      </trkpt>
      <trkpt lat="42.91649" lon="0.87312">
        <ele>769</ele>
        <time>2018-12-02T15:10:22.000Z</time>
      </trkpt>
      <trkpt lat="42.91649" lon="0.87314">
        <ele>769</ele>
        <time>2018-12-02T15:10:24.000Z</time>
      </trkpt>
      <trkpt lat="42.91651" lon="0.87316">
        <ele>769</ele>
        <time>2018-12-02T15:10:26.000Z</time>
      </trkpt>
      <trkpt lat="42.91651" lon="0.87318">
        <ele>768</ele>
        <time>2018-12-02T15:10:28.000Z</time>
      </trkpt>
      <trkpt lat="42.91652" lon="0.87318">
        <ele>768</ele>
        <time>2018-12-02T15:10:30.000Z</time>
      </trkpt>
      <trkpt lat="42.91653" lon="0.87318">
        <ele>768</ele>
        <time>2018-12-02T15:10:32.000Z</time>
      </trkpt>
      <trkpt lat="42.91653" lon="0.87318">
        <ele>768</ele>
        <time>2018-12-02T15:10:34.000Z</time>
      </trkpt>
      <trkpt lat="42.91655" lon="0.87317">
        <ele>767</ele>
        <time>2018-12-02T15:10:36.000Z</time>
      </trkpt>
      <trkpt lat="42.91656" lon="0.87316">
        <ele>767</ele>
        <time>2018-12-02T15:10:38.000Z</time>
      </trkpt>
      <trkpt lat="42.91656" lon="0.87315">
        <ele>767</ele>
        <time>2018-12-02T15:10:40.000Z</time>
      </trkpt>
      <trkpt lat="42.91658" lon="0.87313">
        <ele>766</ele>
        <time>2018-12-02T15:10:42.000Z</time>
      </trkpt>
      <trkpt lat="42.91659" lon="0.87312">
        <ele>766</ele>
        <time>2018-12-02T15:10:44.000Z</time>
      </trkpt>
      <trkpt lat="42.91661" lon="0.8731">
        <ele>765</ele>
        <time>2018-12-02T15:10:46.000Z</time>
      </trkpt>
      <trkpt lat="42.91663" lon="0.87308">
        <ele>765</ele>
        <time>2018-12-02T15:10:48.000Z</time>
      </trkpt>
      <trkpt lat="42.91664" lon="0.87307">
        <ele>764</ele>
        <time>2018-12-02T15:10:50.000Z</time>
      </trkpt>
      <trkpt lat="42.91665" lon="0.87305">
        <ele>764</ele>
        <time>2018-12-02T15:10:52.000Z</time>
      </trkpt>
      <trkpt lat="42.91666" lon="0.87304">
        <ele>764</ele>
        <time>2018-12-02T15:10:54.000Z</time>
      </trkpt>
      <trkpt lat="42.91668" lon="0.87303">
        <ele>763</ele>
        <time>2018-12-02T15:10:56.000Z</time>
      </trkpt>
      <trkpt lat="42.9167" lon="0.873">
        <ele>762</ele>
        <time>2018-12-02T15:10:58.000Z</time>
      </trkpt>
      <trkpt lat="42.91672" lon="0.87299">
        <ele>762</ele>
        <time>2018-12-02T15:11:00.000Z</time>
      </trkpt>
      <trkpt lat="42.91674" lon="0.87297">
        <ele>761</ele>
        <time>2018-12-02T15:11:02.000Z</time>
      </trkpt>
      <trkpt lat="42.91675" lon="0.87294">
        <ele>761</ele>
        <time>2018-12-02T15:11:04.000Z</time>
      </trkpt>
      <trkpt lat="42.91677" lon="0.87292">
        <ele>762</ele>
        <time>2018-12-02T15:11:06.000Z</time>
      </trkpt>
      <trkpt lat="42.91678" lon="0.87289">
        <ele>762</ele>
        <time>2018-12-02T15:11:08.000Z</time>
      </trkpt>
      <trkpt lat="42.91679" lon="0.87286">
        <ele>762</ele>
        <time>2018-12-02T15:11:10.000Z</time>
      </trkpt>
      <trkpt lat="42.9168" lon="0.87284">
        <ele>762</ele>
        <time>2018-12-02T15:11:12.000Z</time>
      </trkpt>
      <trkpt lat="42.91681" lon="0.87282">
        <ele>762</ele>
        <time>2018-12-02T15:11:14.000Z</time>
      </trkpt>
      <trkpt lat="42.91683" lon="0.87279">
        <ele>763</ele>
        <time>2018-12-02T15:11:16.000Z</time>
      </trkpt>
      <trkpt lat="42.91686" lon="0.87276">
        <ele>763</ele>
        <time>2018-12-02T15:11:18.000Z</time>
      </trkpt>
      <trkpt lat="42.91688" lon="0.87275">
        <ele>763</ele>
        <time>2018-12-02T15:11:20.000Z</time>
      </trkpt>
      <trkpt lat="42.91689" lon="0.87272">
        <ele>763</ele>
        <time>2018-12-02T15:11:22.000Z</time>
      </trkpt>
      <trkpt lat="42.91691" lon="0.87271">
        <ele>764</ele>
        <time>2018-12-02T15:11:24.000Z</time>
      </trkpt>
      <trkpt lat="42.91694" lon="0.87269">
        <ele>764</ele>
        <time>2018-12-02T15:11:26.000Z</time>
      </trkpt>
      <trkpt lat="42.91695" lon="0.87269">
        <ele>764</ele>
        <time>2018-12-02T15:11:28.000Z</time>
      </trkpt>
      <trkpt lat="42.91697" lon="0.87269">
        <ele>764</ele>
        <time>2018-12-02T15:11:30.000Z</time>
      </trkpt>
      <trkpt lat="42.91699" lon="0.87269">
        <ele>764</ele>
        <time>2018-12-02T15:11:32.000Z</time>
      </trkpt>
      <trkpt lat="42.91701" lon="0.87271">
        <ele>764</ele>
        <time>2018-12-02T15:11:34.000Z</time>
      </trkpt>
      <trkpt lat="42.91702" lon="0.87272">
        <ele>765</ele>
        <time>2018-12-02T15:11:36.000Z</time>
      </trkpt>
      <trkpt lat="42.91703" lon="0.87272">
        <ele>765</ele>
        <time>2018-12-02T15:11:38.000Z</time>
      </trkpt>
      <trkpt lat="42.91705" lon="0.87274">
        <ele>765</ele>
        <time>2018-12-02T15:11:40.000Z</time>
      </trkpt>
      <trkpt lat="42.91707" lon="0.87277">
        <ele>765</ele>
        <time>2018-12-02T15:11:42.000Z</time>
      </trkpt>
      <trkpt lat="42.91709" lon="0.8728">
        <ele>765</ele>
        <time>2018-12-02T15:11:44.000Z</time>
      </trkpt>
      <trkpt lat="42.9171" lon="0.87283">
        <ele>765</ele>
        <time>2018-12-02T15:11:46.000Z</time>
      </trkpt>
      <trkpt lat="42.91711" lon="0.87285">
        <ele>765</ele>
        <time>2018-12-02T15:11:48.000Z</time>
      </trkpt>
      <trkpt lat="42.91712" lon="0.87288">
        <ele>765</ele>
        <time>2018-12-02T15:11:50.000Z</time>
      </trkpt>
      <trkpt lat="42.91712" lon="0.8729">
        <ele>765</ele>
        <time>2018-12-02T15:11:52.000Z</time>
      </trkpt>
      <trkpt lat="42.91713" lon="0.87292">
        <ele>765</ele>
        <time>2018-12-02T15:11:54.000Z</time>
      </trkpt>
      <trkpt lat="42.91713" lon="0.87295">
        <ele>765</ele>
        <time>2018-12-02T15:11:56.000Z</time>
      </trkpt>
      <trkpt lat="42.91714" lon="0.87298">
        <ele>765</ele>
        <time>2018-12-02T15:11:58.000Z</time>
      </trkpt>
      <trkpt lat="42.91714" lon="0.873">
        <ele>765</ele>
        <time>2018-12-02T15:12:00.000Z</time>
      </trkpt>
      <trkpt lat="42.91716" lon="0.87304">
        <ele>765</ele>
        <time>2018-12-02T15:12:02.000Z</time>
      </trkpt>
      <trkpt lat="42.91716" lon="0.87307">
        <ele>765</ele>
        <time>2018-12-02T15:12:04.000Z</time>
      </trkpt>
      <trkpt lat="42.91716" lon="0.8731">
        <ele>765</ele>
        <time>2018-12-02T15:12:06.000Z</time>
      </trkpt>
      <trkpt lat="42.91718" lon="0.87313">
        <ele>765</ele>
        <time>2018-12-02T15:12:08.000Z</time>
      </trkpt>
      <trkpt lat="42.91719" lon="0.87316">
        <ele>766</ele>
        <time>2018-12-02T15:12:10.000Z</time>
      </trkpt>
      <trkpt lat="42.91721" lon="0.87319">
        <ele>766</ele>
        <time>2018-12-02T15:12:12.000Z</time>
      </trkpt>
      <trkpt lat="42.91723" lon="0.87321">
        <ele>766</ele>
        <time>2018-12-02T15:12:14.000Z</time>
      </trkpt>
      <trkpt lat="42.91725" lon="0.87323">
        <ele>767</ele>
        <time>2018-12-02T15:12:16.000Z</time>
      </trkpt>
      <trkpt lat="42.91728" lon="0.87325">
        <ele>767</ele>
        <time>2018-12-02T15:12:18.000Z</time>
      </trkpt>
      <trkpt lat="42.91729" lon="0.87327">
        <ele>767</ele>
        <time>2018-12-02T15:12:20.000Z</time>
      </trkpt>
      <trkpt lat="42.91731" lon="0.87329">
        <ele>767</ele>
        <time>2018-12-02T15:12:22.000Z</time>
      </trkpt>
      <trkpt lat="42.91732" lon="0.8733">
        <ele>767</ele>
        <time>2018-12-02T15:12:24.000Z</time>
      </trkpt>
      <trkpt lat="42.91734" lon="0.87332">
        <ele>768</ele>
        <time>2018-12-02T15:12:26.000Z</time>
      </trkpt>
      <trkpt lat="42.91735" lon="0.87334">
        <ele>768</ele>
        <time>2018-12-02T15:12:28.000Z</time>
      </trkpt>
      <trkpt lat="42.91735" lon="0.87334">
        <ele>768</ele>
        <time>2018-12-02T15:12:30.000Z</time>
      </trkpt>
      <trkpt lat="42.91737" lon="0.87334">
        <ele>768</ele>
        <time>2018-12-02T15:12:32.000Z</time>
      </trkpt>
      <trkpt lat="42.91739" lon="0.87334">
        <ele>768</ele>
        <time>2018-12-02T15:12:34.000Z</time>
      </trkpt>
      <trkpt lat="42.9174" lon="0.87334">
        <ele>768</ele>
        <time>2018-12-02T15:12:36.000Z</time>
      </trkpt>
      <trkpt lat="42.91741" lon="0.87335">
        <ele>768</ele>
        <time>2018-12-02T15:12:38.000Z</time>
      </trkpt>
      <trkpt lat="42.91743" lon="0.87336">
        <ele>769</ele>
        <time>2018-12-02T15:12:40.000Z</time>
      </trkpt>
      <trkpt lat="42.91745" lon="0.87336">
        <ele>769</ele>
        <time>2018-12-02T15:12:42.000Z</time>
      </trkpt>
      <trkpt lat="42.91746" lon="0.87336">
        <ele>769</ele>
        <time>2018-12-02T15:12:44.000Z</time>
      </trkpt>
      <trkpt lat="42.91747" lon="0.87337">
        <ele>769</ele>
        <time>2018-12-02T15:12:46.000Z</time>
      </trkpt>
      <trkpt lat="42.91747" lon="0.87337">
        <ele>769</ele>
        <time>2018-12-02T15:12:48.000Z</time>
      </trkpt>
      <trkpt lat="42.91747" lon="0.87337">
        <ele>769</ele>
        <time>2018-12-02T15:12:50.000Z</time>
      </trkpt>
      <trkpt lat="42.91747" lon="0.87335">
        <ele>769</ele>
        <time>2018-12-02T15:12:52.000Z</time>
      </trkpt>
      <trkpt lat="42.91747" lon="0.87335">
        <ele>769</ele>
        <time>2018-12-02T15:12:54.000Z</time>
      </trkpt>
      <trkpt lat="42.91748" lon="0.87335">
        <ele>769</ele>
        <time>2018-12-02T15:12:56.000Z</time>
      </trkpt>
      <trkpt lat="42.91749" lon="0.87334">
        <ele>769</ele>
        <time>2018-12-02T15:12:58.000Z</time>
      </trkpt>
      <trkpt lat="42.9175" lon="0.87334">
        <ele>769</ele>
        <time>2018-12-02T15:13:00.000Z</time>
      </trkpt>
      <trkpt lat="42.91751" lon="0.87332">
        <ele>769</ele>
        <time>2018-12-02T15:13:02.000Z</time>
      </trkpt>
      <trkpt lat="42.91751" lon="0.87331">
        <ele>769</ele>
        <time>2018-12-02T15:13:04.000Z</time>
      </trkpt>
      <trkpt lat="42.91752" lon="0.87329">
        <ele>769</ele>
        <time>2018-12-02T15:13:06.000Z</time>
      </trkpt>
      <trkpt lat="42.91751" lon="0.87327">
        <ele>769</ele>
        <time>2018-12-02T15:13:08.000Z</time>
      </trkpt>
      <trkpt lat="42.91752" lon="0.87326">
        <ele>769</ele>
        <time>2018-12-02T15:13:10.000Z</time>
      </trkpt>
      <trkpt lat="42.91752" lon="0.87324">
        <ele>769</ele>
        <time>2018-12-02T15:13:12.000Z</time>
      </trkpt>
      <trkpt lat="42.91752" lon="0.87322">
        <ele>769</ele>
        <time>2018-12-02T15:13:14.000Z</time>
      </trkpt>
      <trkpt lat="42.91753" lon="0.87321">
        <ele>769</ele>
        <time>2018-12-02T15:13:16.000Z</time>
      </trkpt>
      <trkpt lat="42.91755" lon="0.8732">
        <ele>769</ele>
        <time>2018-12-02T15:13:18.000Z</time>
      </trkpt>
      <trkpt lat="42.91756" lon="0.87319">
        <ele>769</ele>
        <time>2018-12-02T15:13:20.000Z</time>
      </trkpt>
      <trkpt lat="42.91758" lon="0.87318">
        <ele>770</ele>
        <time>2018-12-02T15:13:22.000Z</time>
      </trkpt>
      <trkpt lat="42.9176" lon="0.87318">
        <ele>771</ele>
        <time>2018-12-02T15:13:24.000Z</time>
      </trkpt>
      <trkpt lat="42.91761" lon="0.87318">
        <ele>771</ele>
        <time>2018-12-02T15:13:26.000Z</time>
      </trkpt>
      <trkpt lat="42.91762" lon="0.87317">
        <ele>772</ele>
        <time>2018-12-02T15:13:28.000Z</time>
      </trkpt>
      <trkpt lat="42.91763" lon="0.87316">
        <ele>772</ele>
        <time>2018-12-02T15:13:30.000Z</time>
      </trkpt>
      <trkpt lat="42.91765" lon="0.87315">
        <ele>773</ele>
        <time>2018-12-02T15:13:32.000Z</time>
      </trkpt>
      <trkpt lat="42.91765" lon="0.87312">
        <ele>773</ele>
        <time>2018-12-02T15:13:34.000Z</time>
      </trkpt>
      <trkpt lat="42.91767" lon="0.87311">
        <ele>773</ele>
        <time>2018-12-02T15:13:36.000Z</time>
      </trkpt>
      <trkpt lat="42.91767" lon="0.8731">
        <ele>773</ele>
        <time>2018-12-02T15:13:38.000Z</time>
      </trkpt>
      <trkpt lat="42.91769" lon="0.87309">
        <ele>773</ele>
        <time>2018-12-02T15:13:40.000Z</time>
      </trkpt>
      <trkpt lat="42.91769" lon="0.87306">
        <ele>773</ele>
        <time>2018-12-02T15:13:42.000Z</time>
      </trkpt>
      <trkpt lat="42.91769" lon="0.87304">
        <ele>773</ele>
        <time>2018-12-02T15:13:44.000Z</time>
      </trkpt>
      <trkpt lat="42.91769" lon="0.87302">
        <ele>774</ele>
        <time>2018-12-02T15:13:46.000Z</time>
      </trkpt>
      <trkpt lat="42.91772" lon="0.87303">
        <ele>774</ele>
        <time>2018-12-02T15:13:48.000Z</time>
      </trkpt>
      <trkpt lat="42.91775" lon="0.87305">
        <ele>775</ele>
        <time>2018-12-02T15:13:50.000Z</time>
      </trkpt>
      <trkpt lat="42.91777" lon="0.87306">
        <ele>775</ele>
        <time>2018-12-02T15:13:52.000Z</time>
      </trkpt>
      <trkpt lat="42.91778" lon="0.87307">
        <ele>775</ele>
        <time>2018-12-02T15:13:54.000Z</time>
      </trkpt>
      <trkpt lat="42.9178" lon="0.87308">
        <ele>776</ele>
        <time>2018-12-02T15:13:56.000Z</time>
      </trkpt>
      <trkpt lat="42.91781" lon="0.87311">
        <ele>777</ele>
        <time>2018-12-02T15:13:58.000Z</time>
      </trkpt>
      <trkpt lat="42.9178" lon="0.87312">
        <ele>777</ele>
        <time>2018-12-02T15:14:00.000Z</time>
      </trkpt>
      <trkpt lat="42.91779" lon="0.87315">
        <ele>778</ele>
        <time>2018-12-02T15:14:02.000Z</time>
      </trkpt>
      <trkpt lat="42.91778" lon="0.87319">
        <ele>778</ele>
        <time>2018-12-02T15:14:04.000Z</time>
      </trkpt>
      <trkpt lat="42.91778" lon="0.87321">
        <ele>778</ele>
        <time>2018-12-02T15:14:06.000Z</time>
      </trkpt>
      <trkpt lat="42.91777" lon="0.87323">
        <ele>779</ele>
        <time>2018-12-02T15:14:08.000Z</time>
      </trkpt>
      <trkpt lat="42.91777" lon="0.87326">
        <ele>779</ele>
        <time>2018-12-02T15:14:10.000Z</time>
      </trkpt>
      <trkpt lat="42.91776" lon="0.87328">
        <ele>779</ele>
        <time>2018-12-02T15:14:12.000Z</time>
      </trkpt>
      <trkpt lat="42.91775" lon="0.8733">
        <ele>778</ele>
        <time>2018-12-02T15:14:14.000Z</time>
      </trkpt>
      <trkpt lat="42.91774" lon="0.87332">
        <ele>778</ele>
        <time>2018-12-02T15:14:16.000Z</time>
      </trkpt>
      <trkpt lat="42.91773" lon="0.87333">
        <ele>778</ele>
        <time>2018-12-02T15:14:18.000Z</time>
      </trkpt>
      <trkpt lat="42.91771" lon="0.87333">
        <ele>777</ele>
        <time>2018-12-02T15:14:20.000Z</time>
      </trkpt>
      <trkpt lat="42.9177" lon="0.87336">
        <ele>777</ele>
        <time>2018-12-02T15:14:22.000Z</time>
      </trkpt>
      <trkpt lat="42.91769" lon="0.87337">
        <ele>776</ele>
        <time>2018-12-02T15:14:24.000Z</time>
      </trkpt>
      <trkpt lat="42.91767" lon="0.87339">
        <ele>775</ele>
        <time>2018-12-02T15:14:26.000Z</time>
      </trkpt>
      <trkpt lat="42.91766" lon="0.87339">
        <ele>775</ele>
        <time>2018-12-02T15:14:28.000Z</time>
      </trkpt>
      <trkpt lat="42.91766" lon="0.87342">
        <ele>775</ele>
        <time>2018-12-02T15:14:30.000Z</time>
      </trkpt>
      <trkpt lat="42.91768" lon="0.87345">
        <ele>775</ele>
        <time>2018-12-02T15:14:32.000Z</time>
      </trkpt>
      <trkpt lat="42.91768" lon="0.87347">
        <ele>776</ele>
        <time>2018-12-02T15:14:34.000Z</time>
      </trkpt>
      <trkpt lat="42.91768" lon="0.87351">
        <ele>776</ele>
        <time>2018-12-02T15:14:36.000Z</time>
      </trkpt>
      <trkpt lat="42.91768" lon="0.87354">
        <ele>776</ele>
        <time>2018-12-02T15:14:38.000Z</time>
      </trkpt>
      <trkpt lat="42.91767" lon="0.87356">
        <ele>775</ele>
        <time>2018-12-02T15:14:40.000Z</time>
      </trkpt>
      <trkpt lat="42.91765" lon="0.87358">
        <ele>775</ele>
        <time>2018-12-02T15:14:42.000Z</time>
      </trkpt>
      <trkpt lat="42.91764" lon="0.8736">
        <ele>774</ele>
        <time>2018-12-02T15:14:44.000Z</time>
      </trkpt>
      <trkpt lat="42.91766" lon="0.87364">
        <ele>776</ele>
        <time>2018-12-02T15:14:46.000Z</time>
      </trkpt>
      <trkpt lat="42.91767" lon="0.87366">
        <ele>776</ele>
        <time>2018-12-02T15:14:48.000Z</time>
      </trkpt>
      <trkpt lat="42.91767" lon="0.87369">
        <ele>776</ele>
        <time>2018-12-02T15:14:50.000Z</time>
      </trkpt>
      <trkpt lat="42.91768" lon="0.87372">
        <ele>777</ele>
        <time>2018-12-02T15:14:52.000Z</time>
      </trkpt>
      <trkpt lat="42.91768" lon="0.87375">
        <ele>777</ele>
        <time>2018-12-02T15:14:54.000Z</time>
      </trkpt>
      <trkpt lat="42.91768" lon="0.87376">
        <ele>777</ele>
        <time>2018-12-02T15:14:56.000Z</time>
      </trkpt>
      <trkpt lat="42.91767" lon="0.87378">
        <ele>777</ele>
        <time>2018-12-02T15:14:58.000Z</time>
      </trkpt>
      <trkpt lat="42.91767" lon="0.8738">
        <ele>776</ele>
        <time>2018-12-02T15:15:00.000Z</time>
      </trkpt>
      <trkpt lat="42.91766" lon="0.87382">
        <ele>776</ele>
        <time>2018-12-02T15:15:02.000Z</time>
      </trkpt>
      <trkpt lat="42.91766" lon="0.87385">
        <ele>776</ele>
        <time>2018-12-02T15:15:04.000Z</time>
      </trkpt>
      <trkpt lat="42.91765" lon="0.87387">
        <ele>776</ele>
        <time>2018-12-02T15:15:06.000Z</time>
      </trkpt>
      <trkpt lat="42.91765" lon="0.87389">
        <ele>776</ele>
        <time>2018-12-02T15:15:08.000Z</time>
      </trkpt>
      <trkpt lat="42.91765" lon="0.87391">
        <ele>776</ele>
        <time>2018-12-02T15:15:10.000Z</time>
      </trkpt>
      <trkpt lat="42.91765" lon="0.87394">
        <ele>776</ele>
        <time>2018-12-02T15:15:12.000Z</time>
      </trkpt>
      <trkpt lat="42.91764" lon="0.87397">
        <ele>776</ele>
        <time>2018-12-02T15:15:14.000Z</time>
      </trkpt>
      <trkpt lat="42.91763" lon="0.87399">
        <ele>776</ele>
        <time>2018-12-02T15:15:16.000Z</time>
      </trkpt>
      <trkpt lat="42.91763" lon="0.87402">
        <ele>776</ele>
        <time>2018-12-02T15:15:18.000Z</time>
      </trkpt>
      <trkpt lat="42.91764" lon="0.87404">
        <ele>776</ele>
        <time>2018-12-02T15:15:20.000Z</time>
      </trkpt>
      <trkpt lat="42.91764" lon="0.87407">
        <ele>776</ele>
        <time>2018-12-02T15:15:22.000Z</time>
      </trkpt>
      <trkpt lat="42.91763" lon="0.87409">
        <ele>776</ele>
        <time>2018-12-02T15:15:24.000Z</time>
      </trkpt>
      <trkpt lat="42.91762" lon="0.87411">
        <ele>776</ele>
        <time>2018-12-02T15:15:26.000Z</time>
      </trkpt>
      <trkpt lat="42.91762" lon="0.87414">
        <ele>776</ele>
        <time>2018-12-02T15:15:28.000Z</time>
      </trkpt>
      <trkpt lat="42.91762" lon="0.87416">
        <ele>776</ele>
        <time>2018-12-02T15:15:30.000Z</time>
      </trkpt>
      <trkpt lat="42.91762" lon="0.87418">
        <ele>775</ele>
        <time>2018-12-02T15:15:32.000Z</time>
      </trkpt>
      <trkpt lat="42.91762" lon="0.87421">
        <ele>776</ele>
        <time>2018-12-02T15:15:34.000Z</time>
      </trkpt>
      <trkpt lat="42.91762" lon="0.87423">
        <ele>776</ele>
        <time>2018-12-02T15:15:36.000Z</time>
      </trkpt>
      <trkpt lat="42.91762" lon="0.87426">
        <ele>776</ele>
        <time>2018-12-02T15:15:38.000Z</time>
      </trkpt>
      <trkpt lat="42.91762" lon="0.87429">
        <ele>776</ele>
        <time>2018-12-02T15:15:40.000Z</time>
      </trkpt>
      <trkpt lat="42.91762" lon="0.87432">
        <ele>776</ele>
        <time>2018-12-02T15:15:42.000Z</time>
      </trkpt>
      <trkpt lat="42.91762" lon="0.87435">
        <ele>776</ele>
        <time>2018-12-02T15:15:44.000Z</time>
      </trkpt>
      <trkpt lat="42.91761" lon="0.87438">
        <ele>776</ele>
        <time>2018-12-02T15:15:46.000Z</time>
      </trkpt>
      <trkpt lat="42.91761" lon="0.87441">
        <ele>775</ele>
        <time>2018-12-02T15:15:48.000Z</time>
      </trkpt>
      <trkpt lat="42.91761" lon="0.87444">
        <ele>775</ele>
        <time>2018-12-02T15:15:50.000Z</time>
      </trkpt>
      <trkpt lat="42.9176" lon="0.87447">
        <ele>775</ele>
        <time>2018-12-02T15:15:52.000Z</time>
      </trkpt>
      <trkpt lat="42.9176" lon="0.8745">
        <ele>775</ele>
        <time>2018-12-02T15:15:54.000Z</time>
      </trkpt>
      <trkpt lat="42.9176" lon="0.87452">
        <ele>775</ele>
        <time>2018-12-02T15:15:56.000Z</time>
      </trkpt>
      <trkpt lat="42.9176" lon="0.87455">
        <ele>775</ele>
        <time>2018-12-02T15:15:58.000Z</time>
      </trkpt>
      <trkpt lat="42.9176" lon="0.87458">
        <ele>775</ele>
        <time>2018-12-02T15:16:00.000Z</time>
      </trkpt>
      <trkpt lat="42.9176" lon="0.87461">
        <ele>775</ele>
        <time>2018-12-02T15:16:02.000Z</time>
      </trkpt>
      <trkpt lat="42.9176" lon="0.87464">
        <ele>775</ele>
        <time>2018-12-02T15:16:04.000Z</time>
      </trkpt>
      <trkpt lat="42.9176" lon="0.87467">
        <ele>776</ele>
        <time>2018-12-02T15:16:06.000Z</time>
      </trkpt>
      <trkpt lat="42.91761" lon="0.8747">
        <ele>776</ele>
        <time>2018-12-02T15:16:08.000Z</time>
      </trkpt>
      <trkpt lat="42.91761" lon="0.87473">
        <ele>776</ele>
        <time>2018-12-02T15:16:10.000Z</time>
      </trkpt>
      <trkpt lat="42.91761" lon="0.87476">
        <ele>776</ele>
        <time>2018-12-02T15:16:12.000Z</time>
      </trkpt>
      <trkpt lat="42.91761" lon="0.87479">
        <ele>776</ele>
        <time>2018-12-02T15:16:14.000Z</time>
      </trkpt>
      <trkpt lat="42.91761" lon="0.87482">
        <ele>777</ele>
        <time>2018-12-02T15:16:16.000Z</time>
      </trkpt>
      <trkpt lat="42.9176" lon="0.87486">
        <ele>777</ele>
        <time>2018-12-02T15:16:18.000Z</time>
      </trkpt>
      <trkpt lat="42.9176" lon="0.87489">
        <ele>777</ele>
        <time>2018-12-02T15:16:20.000Z</time>
      </trkpt>
      <trkpt lat="42.9176" lon="0.87492">
        <ele>777</ele>
        <time>2018-12-02T15:16:22.000Z</time>
      </trkpt>
      <trkpt lat="42.9176" lon="0.87495">
        <ele>777</ele>
        <time>2018-12-02T15:16:24.000Z</time>
      </trkpt>
      <trkpt lat="42.91759" lon="0.87498">
        <ele>777</ele>
        <time>2018-12-02T15:16:26.000Z</time>
      </trkpt>
      <trkpt lat="42.9176" lon="0.87501">
        <ele>778</ele>
        <time>2018-12-02T15:16:28.000Z</time>
      </trkpt>
      <trkpt lat="42.91759" lon="0.87505">
        <ele>778</ele>
        <time>2018-12-02T15:16:30.000Z</time>
      </trkpt>
      <trkpt lat="42.9176" lon="0.87508">
        <ele>778</ele>
        <time>2018-12-02T15:16:32.000Z</time>
      </trkpt>
      <trkpt lat="42.9176" lon="0.87511">
        <ele>779</ele>
        <time>2018-12-02T15:16:34.000Z</time>
      </trkpt>
      <trkpt lat="42.91759" lon="0.87514">
        <ele>779</ele>
        <time>2018-12-02T15:16:36.000Z</time>
      </trkpt>
      <trkpt lat="42.9176" lon="0.87517">
        <ele>779</ele>
        <time>2018-12-02T15:16:38.000Z</time>
      </trkpt>
      <trkpt lat="42.9176" lon="0.8752">
        <ele>780</ele>
        <time>2018-12-02T15:16:40.000Z</time>
      </trkpt>
      <trkpt lat="42.91761" lon="0.87523">
        <ele>780</ele>
        <time>2018-12-02T15:16:42.000Z</time>
      </trkpt>
      <trkpt lat="42.91761" lon="0.87526">
        <ele>781</ele>
        <time>2018-12-02T15:16:44.000Z</time>
      </trkpt>
      <trkpt lat="42.91761" lon="0.87529">
        <ele>781</ele>
        <time>2018-12-02T15:16:46.000Z</time>
      </trkpt>
      <trkpt lat="42.91761" lon="0.87532">
        <ele>781</ele>
        <time>2018-12-02T15:16:48.000Z</time>
      </trkpt>
      <trkpt lat="42.91761" lon="0.87535">
        <ele>782</ele>
        <time>2018-12-02T15:16:50.000Z</time>
      </trkpt>
      <trkpt lat="42.91761" lon="0.87538">
        <ele>782</ele>
        <time>2018-12-02T15:16:52.000Z</time>
      </trkpt>
      <trkpt lat="42.91762" lon="0.87541">
        <ele>783</ele>
        <time>2018-12-02T15:16:54.000Z</time>
      </trkpt>
      <trkpt lat="42.91763" lon="0.87544">
        <ele>783</ele>
        <time>2018-12-02T15:16:56.000Z</time>
      </trkpt>
      <trkpt lat="42.91764" lon="0.87547">
        <ele>784</ele>
        <time>2018-12-02T15:16:58.000Z</time>
      </trkpt>
      <trkpt lat="42.91765" lon="0.87549">
        <ele>785</ele>
        <time>2018-12-02T15:17:00.000Z</time>
      </trkpt>
      <trkpt lat="42.91765" lon="0.87552">
        <ele>785</ele>
        <time>2018-12-02T15:17:02.000Z</time>
      </trkpt>
      <trkpt lat="42.91765" lon="0.87555">
        <ele>785</ele>
        <time>2018-12-02T15:17:04.000Z</time>
      </trkpt>
      <trkpt lat="42.91764" lon="0.87558">
        <ele>785</ele>
        <time>2018-12-02T15:17:06.000Z</time>
      </trkpt>
      <trkpt lat="42.91763" lon="0.87562">
        <ele>784</ele>
        <time>2018-12-02T15:17:08.000Z</time>
      </trkpt>
      <trkpt lat="42.91761" lon="0.87565">
        <ele>784</ele>
        <time>2018-12-02T15:17:10.000Z</time>
      </trkpt>
      <trkpt lat="42.91761" lon="0.87568">
        <ele>784</ele>
        <time>2018-12-02T15:17:12.000Z</time>
      </trkpt>
      <trkpt lat="42.91759" lon="0.87571">
        <ele>784</ele>
        <time>2018-12-02T15:17:14.000Z</time>
      </trkpt>
      <trkpt lat="42.91759" lon="0.87574">
        <ele>784</ele>
        <time>2018-12-02T15:17:16.000Z</time>
      </trkpt>
      <trkpt lat="42.91759" lon="0.87577">
        <ele>784</ele>
        <time>2018-12-02T15:17:18.000Z</time>
      </trkpt>
      <trkpt lat="42.91757" lon="0.87579">
        <ele>784</ele>
        <time>2018-12-02T15:17:20.000Z</time>
      </trkpt>
      <trkpt lat="42.91756" lon="0.87582">
        <ele>784</ele>
        <time>2018-12-02T15:17:22.000Z</time>
      </trkpt>
      <trkpt lat="42.91755" lon="0.87584">
        <ele>784</ele>
        <time>2018-12-02T15:17:24.000Z</time>
      </trkpt>
      <trkpt lat="42.91754" lon="0.87586">
        <ele>784</ele>
        <time>2018-12-02T15:17:26.000Z</time>
      </trkpt>
      <trkpt lat="42.91753" lon="0.87589">
        <ele>784</ele>
        <time>2018-12-02T15:17:28.000Z</time>
      </trkpt>
      <trkpt lat="42.91753" lon="0.8759">
        <ele>784</ele>
        <time>2018-12-02T15:17:30.000Z</time>
      </trkpt>
      <trkpt lat="42.91752" lon="0.87591">
        <ele>784</ele>
        <time>2018-12-02T15:17:32.000Z</time>
      </trkpt>
      <trkpt lat="42.91751" lon="0.87593">
        <ele>784</ele>
        <time>2018-12-02T15:17:34.000Z</time>
      </trkpt>
      <trkpt lat="42.9175" lon="0.87595">
        <ele>784</ele>
        <time>2018-12-02T15:17:36.000Z</time>
      </trkpt>
      <trkpt lat="42.91749" lon="0.87597">
        <ele>784</ele>
        <time>2018-12-02T15:17:38.000Z</time>
      </trkpt>
      <trkpt lat="42.91748" lon="0.87598">
        <ele>784</ele>
        <time>2018-12-02T15:17:40.000Z</time>
      </trkpt>
      <trkpt lat="42.91747" lon="0.876">
        <ele>783</ele>
        <time>2018-12-02T15:17:42.000Z</time>
      </trkpt>
      <trkpt lat="42.91746" lon="0.87602">
        <ele>783</ele>
        <time>2018-12-02T15:17:44.000Z</time>
      </trkpt>
      <trkpt lat="42.91746" lon="0.87604">
        <ele>783</ele>
        <time>2018-12-02T15:17:46.000Z</time>
      </trkpt>
      <trkpt lat="42.91745" lon="0.87605">
        <ele>783</ele>
        <time>2018-12-02T15:17:48.000Z</time>
      </trkpt>
      <trkpt lat="42.91744" lon="0.87607">
        <ele>783</ele>
        <time>2018-12-02T15:17:50.000Z</time>
      </trkpt>
      <trkpt lat="42.91743" lon="0.87609">
        <ele>783</ele>
        <time>2018-12-02T15:17:52.000Z</time>
      </trkpt>
      <trkpt lat="42.91742" lon="0.87611">
        <ele>783</ele>
        <time>2018-12-02T15:17:54.000Z</time>
      </trkpt>
      <trkpt lat="42.91741" lon="0.87613">
        <ele>783</ele>
        <time>2018-12-02T15:17:56.000Z</time>
      </trkpt>
      <trkpt lat="42.91739" lon="0.87614">
        <ele>783</ele>
        <time>2018-12-02T15:17:58.000Z</time>
      </trkpt>
      <trkpt lat="42.91738" lon="0.87616">
        <ele>783</ele>
        <time>2018-12-02T15:18:00.000Z</time>
      </trkpt>
      <trkpt lat="42.91738" lon="0.87618">
        <ele>783</ele>
        <time>2018-12-02T15:18:02.000Z</time>
      </trkpt>
      <trkpt lat="42.91737" lon="0.8762">
        <ele>782</ele>
        <time>2018-12-02T15:18:04.000Z</time>
      </trkpt>
      <trkpt lat="42.91735" lon="0.87622">
        <ele>782</ele>
        <time>2018-12-02T15:18:06.000Z</time>
      </trkpt>
      <trkpt lat="42.91734" lon="0.87623">
        <ele>782</ele>
        <time>2018-12-02T15:18:08.000Z</time>
      </trkpt>
      <trkpt lat="42.91733" lon="0.87625">
        <ele>781</ele>
        <time>2018-12-02T15:18:10.000Z</time>
      </trkpt>
      <trkpt lat="42.91733" lon="0.87627">
        <ele>781</ele>
        <time>2018-12-02T15:18:12.000Z</time>
      </trkpt>
      <trkpt lat="42.91734" lon="0.8763">
        <ele>781</ele>
        <time>2018-12-02T15:18:14.000Z</time>
      </trkpt>
      <trkpt lat="42.91734" lon="0.87632">
        <ele>781</ele>
        <time>2018-12-02T15:18:16.000Z</time>
      </trkpt>
      <trkpt lat="42.91734" lon="0.87635">
        <ele>781</ele>
        <time>2018-12-02T15:18:18.000Z</time>
      </trkpt>
      <trkpt lat="42.91734" lon="0.87637">
        <ele>781</ele>
        <time>2018-12-02T15:18:20.000Z</time>
      </trkpt>
      <trkpt lat="42.91735" lon="0.8764">
        <ele>782</ele>
        <time>2018-12-02T15:18:22.000Z</time>
      </trkpt>
      <trkpt lat="42.91735" lon="0.87642">
        <ele>782</ele>
        <time>2018-12-02T15:18:24.000Z</time>
      </trkpt>
      <trkpt lat="42.91735" lon="0.87644">
        <ele>782</ele>
        <time>2018-12-02T15:18:26.000Z</time>
      </trkpt>
      <trkpt lat="42.91736" lon="0.87647">
        <ele>782</ele>
        <time>2018-12-02T15:18:28.000Z</time>
      </trkpt>
      <trkpt lat="42.91736" lon="0.87648">
        <ele>782</ele>
        <time>2018-12-02T15:18:30.000Z</time>
      </trkpt>
      <trkpt lat="42.91736" lon="0.8765">
        <ele>783</ele>
        <time>2018-12-02T15:18:32.000Z</time>
      </trkpt>
      <trkpt lat="42.91735" lon="0.87651">
        <ele>782</ele>
        <time>2018-12-02T15:18:34.000Z</time>
      </trkpt>
      <trkpt lat="42.91734" lon="0.87653">
        <ele>782</ele>
        <time>2018-12-02T15:18:36.000Z</time>
      </trkpt>
      <trkpt lat="42.91736" lon="0.87655">
        <ele>783</ele>
        <time>2018-12-02T15:18:38.000Z</time>
      </trkpt>
      <trkpt lat="42.91734" lon="0.87658">
        <ele>782</ele>
        <time>2018-12-02T15:18:40.000Z</time>
      </trkpt>
      <trkpt lat="42.91734" lon="0.87661">
        <ele>782</ele>
        <time>2018-12-02T15:18:42.000Z</time>
      </trkpt>
      <trkpt lat="42.91733" lon="0.87663">
        <ele>782</ele>
        <time>2018-12-02T15:18:44.000Z</time>
      </trkpt>
      <trkpt lat="42.91733" lon="0.87665">
        <ele>782</ele>
        <time>2018-12-02T15:18:46.000Z</time>
      </trkpt>
      <trkpt lat="42.91733" lon="0.87667">
        <ele>782</ele>
        <time>2018-12-02T15:18:48.000Z</time>
      </trkpt>
      <trkpt lat="42.91732" lon="0.87669">
        <ele>782</ele>
        <time>2018-12-02T15:18:50.000Z</time>
      </trkpt>
      <trkpt lat="42.91732" lon="0.87672">
        <ele>782</ele>
        <time>2018-12-02T15:18:52.000Z</time>
      </trkpt>
      <trkpt lat="42.91731" lon="0.87674">
        <ele>782</ele>
        <time>2018-12-02T15:18:54.000Z</time>
      </trkpt>
      <trkpt lat="42.91731" lon="0.87676">
        <ele>782</ele>
        <time>2018-12-02T15:18:56.000Z</time>
      </trkpt>
      <trkpt lat="42.91732" lon="0.87679">
        <ele>783</ele>
        <time>2018-12-02T15:18:58.000Z</time>
      </trkpt>
      <trkpt lat="42.91732" lon="0.87681">
        <ele>783</ele>
        <time>2018-12-02T15:19:00.000Z</time>
      </trkpt>
      <trkpt lat="42.91733" lon="0.87684">
        <ele>783</ele>
        <time>2018-12-02T15:19:02.000Z</time>
      </trkpt>
      <trkpt lat="42.91733" lon="0.87687">
        <ele>784</ele>
        <time>2018-12-02T15:19:04.000Z</time>
      </trkpt>
      <trkpt lat="42.91734" lon="0.87689">
        <ele>784</ele>
        <time>2018-12-02T15:19:06.000Z</time>
      </trkpt>
      <trkpt lat="42.91734" lon="0.87691">
        <ele>784</ele>
        <time>2018-12-02T15:19:08.000Z</time>
      </trkpt>
      <trkpt lat="42.91734" lon="0.87693">
        <ele>784</ele>
        <time>2018-12-02T15:19:10.000Z</time>
      </trkpt>
      <trkpt lat="42.91735" lon="0.87695">
        <ele>785</ele>
        <time>2018-12-02T15:19:12.000Z</time>
      </trkpt>
      <trkpt lat="42.91735" lon="0.87698">
        <ele>785</ele>
        <time>2018-12-02T15:19:14.000Z</time>
      </trkpt>
      <trkpt lat="42.91735" lon="0.877">
        <ele>785</ele>
        <time>2018-12-02T15:19:16.000Z</time>
      </trkpt>
      <trkpt lat="42.91736" lon="0.87702">
        <ele>786</ele>
        <time>2018-12-02T15:19:18.000Z</time>
      </trkpt>
      <trkpt lat="42.91735" lon="0.87704">
        <ele>785</ele>
        <time>2018-12-02T15:19:20.000Z</time>
      </trkpt>
      <trkpt lat="42.91736" lon="0.87707">
        <ele>786</ele>
        <time>2018-12-02T15:19:22.000Z</time>
      </trkpt>
      <trkpt lat="42.91738" lon="0.87709">
        <ele>786</ele>
        <time>2018-12-02T15:19:24.000Z</time>
      </trkpt>
      <trkpt lat="42.91739" lon="0.87711">
        <ele>787</ele>
        <time>2018-12-02T15:19:26.000Z</time>
      </trkpt>
      <trkpt lat="42.9174" lon="0.87713">
        <ele>787</ele>
        <time>2018-12-02T15:19:28.000Z</time>
      </trkpt>
      <trkpt lat="42.91742" lon="0.87714">
        <ele>788</ele>
        <time>2018-12-02T15:19:30.000Z</time>
      </trkpt>
      <trkpt lat="42.91743" lon="0.87716">
        <ele>789</ele>
        <time>2018-12-02T15:19:32.000Z</time>
      </trkpt>
      <trkpt lat="42.91745" lon="0.87718">
        <ele>790</ele>
        <time>2018-12-02T15:19:34.000Z</time>
      </trkpt>
      <trkpt lat="42.91746" lon="0.8772">
        <ele>790</ele>
        <time>2018-12-02T15:19:36.000Z</time>
      </trkpt>
      <trkpt lat="42.91748" lon="0.87721">
        <ele>791</ele>
        <time>2018-12-02T15:19:38.000Z</time>
      </trkpt>
      <trkpt lat="42.91749" lon="0.87722">
        <ele>791</ele>
        <time>2018-12-02T15:19:40.000Z</time>
      </trkpt>
      <trkpt lat="42.9175" lon="0.87724">
        <ele>792</ele>
        <time>2018-12-02T15:19:42.000Z</time>
      </trkpt>
      <trkpt lat="42.91751" lon="0.87726">
        <ele>792</ele>
        <time>2018-12-02T15:19:44.000Z</time>
      </trkpt>
      <trkpt lat="42.91751" lon="0.87728">
        <ele>793</ele>
        <time>2018-12-02T15:19:46.000Z</time>
      </trkpt>
      <trkpt lat="42.91752" lon="0.87729">
        <ele>793</ele>
        <time>2018-12-02T15:19:48.000Z</time>
      </trkpt>
      <trkpt lat="42.91753" lon="0.87731">
        <ele>794</ele>
        <time>2018-12-02T15:19:50.000Z</time>
      </trkpt>
      <trkpt lat="42.91755" lon="0.87733">
        <ele>794</ele>
        <time>2018-12-02T15:19:52.000Z</time>
      </trkpt>
      <trkpt lat="42.91756" lon="0.87734">
        <ele>795</ele>
        <time>2018-12-02T15:19:54.000Z</time>
      </trkpt>
      <trkpt lat="42.91757" lon="0.87735">
        <ele>796</ele>
        <time>2018-12-02T15:19:56.000Z</time>
      </trkpt>
      <trkpt lat="42.91758" lon="0.87736">
        <ele>796</ele>
        <time>2018-12-02T15:19:58.000Z</time>
      </trkpt>
      <trkpt lat="42.91759" lon="0.87737">
        <ele>797</ele>
        <time>2018-12-02T15:20:00.000Z</time>
      </trkpt>
      <trkpt lat="42.9176" lon="0.87738">
        <ele>797</ele>
        <time>2018-12-02T15:20:02.000Z</time>
      </trkpt>
      <trkpt lat="42.91762" lon="0.87739">
        <ele>798</ele>
        <time>2018-12-02T15:20:04.000Z</time>
      </trkpt>
      <trkpt lat="42.91763" lon="0.87741">
        <ele>799</ele>
        <time>2018-12-02T15:20:06.000Z</time>
      </trkpt>
      <trkpt lat="42.91763" lon="0.87743">
        <ele>799</ele>
        <time>2018-12-02T15:20:08.000Z</time>
      </trkpt>
      <trkpt lat="42.91763" lon="0.87743">
        <ele>799</ele>
        <time>2018-12-02T15:20:10.000Z</time>
      </trkpt>
      <trkpt lat="42.91762" lon="0.87745">
        <ele>799</ele>
        <time>2018-12-02T15:20:12.000Z</time>
      </trkpt>
      <trkpt lat="42.91762" lon="0.87746">
        <ele>799</ele>
        <time>2018-12-02T15:20:14.000Z</time>
      </trkpt>
      <trkpt lat="42.91762" lon="0.87748">
        <ele>799</ele>
        <time>2018-12-02T15:20:16.000Z</time>
      </trkpt>
      <trkpt lat="42.91762" lon="0.8775">
        <ele>799</ele>
        <time>2018-12-02T15:20:18.000Z</time>
      </trkpt>
      <trkpt lat="42.91761" lon="0.87752">
        <ele>799</ele>
        <time>2018-12-02T15:20:20.000Z</time>
      </trkpt>
      <trkpt lat="42.91762" lon="0.87755">
        <ele>799</ele>
        <time>2018-12-02T15:20:22.000Z</time>
      </trkpt>
      <trkpt lat="42.91763" lon="0.87758">
        <ele>800</ele>
        <time>2018-12-02T15:20:24.000Z</time>
      </trkpt>
      <trkpt lat="42.91763" lon="0.8776">
        <ele>800</ele>
        <time>2018-12-02T15:20:26.000Z</time>
      </trkpt>
      <trkpt lat="42.91765" lon="0.87761">
        <ele>801</ele>
        <time>2018-12-02T15:20:28.000Z</time>
      </trkpt>
      <trkpt lat="42.91765" lon="0.87763">
        <ele>801</ele>
        <time>2018-12-02T15:20:30.000Z</time>
      </trkpt>
      <trkpt lat="42.91765" lon="0.87765">
        <ele>801</ele>
        <time>2018-12-02T15:20:32.000Z</time>
      </trkpt>
      <trkpt lat="42.91764" lon="0.87766">
        <ele>801</ele>
        <time>2018-12-02T15:20:34.000Z</time>
      </trkpt>
      <trkpt lat="42.91764" lon="0.87768">
        <ele>801</ele>
        <time>2018-12-02T15:20:36.000Z</time>
      </trkpt>
      <trkpt lat="42.91765" lon="0.87769">
        <ele>801</ele>
        <time>2018-12-02T15:20:38.000Z</time>
      </trkpt>
      <trkpt lat="42.91765" lon="0.87771">
        <ele>801</ele>
        <time>2018-12-02T15:20:40.000Z</time>
      </trkpt>
      <trkpt lat="42.91766" lon="0.87773">
        <ele>802</ele>
        <time>2018-12-02T15:20:42.000Z</time>
      </trkpt>
      <trkpt lat="42.91766" lon="0.87774">
        <ele>802</ele>
        <time>2018-12-02T15:20:44.000Z</time>
      </trkpt>
      <trkpt lat="42.91766" lon="0.87775">
        <ele>802</ele>
        <time>2018-12-02T15:20:46.000Z</time>
      </trkpt>
      <trkpt lat="42.91766" lon="0.87777">
        <ele>802</ele>
        <time>2018-12-02T15:20:48.000Z</time>
      </trkpt>
      <trkpt lat="42.91766" lon="0.87778">
        <ele>802</ele>
        <time>2018-12-02T15:20:50.000Z</time>
      </trkpt>
      <trkpt lat="42.91767" lon="0.8778">
        <ele>803</ele>
        <time>2018-12-02T15:20:52.000Z</time>
      </trkpt>
      <trkpt lat="42.91767" lon="0.87781">
        <ele>803</ele>
        <time>2018-12-02T15:20:54.000Z</time>
      </trkpt>
      <trkpt lat="42.91767" lon="0.87784">
        <ele>803</ele>
        <time>2018-12-02T15:20:56.000Z</time>
      </trkpt>
      <trkpt lat="42.91767" lon="0.87785">
        <ele>803</ele>
        <time>2018-12-02T15:20:58.000Z</time>
      </trkpt>
      <trkpt lat="42.91766" lon="0.87787">
        <ele>803</ele>
        <time>2018-12-02T15:21:00.000Z</time>
      </trkpt>
      <trkpt lat="42.91766" lon="0.87788">
        <ele>803</ele>
        <time>2018-12-02T15:21:02.000Z</time>
      </trkpt>
      <trkpt lat="42.91766" lon="0.87789">
        <ele>803</ele>
        <time>2018-12-02T15:21:04.000Z</time>
      </trkpt>
      <trkpt lat="42.91766" lon="0.8779">
        <ele>803</ele>
        <time>2018-12-02T15:21:06.000Z</time>
      </trkpt>
      <trkpt lat="42.91767" lon="0.87792">
        <ele>804</ele>
        <time>2018-12-02T15:21:08.000Z</time>
      </trkpt>
      <trkpt lat="42.91767" lon="0.87793">
        <ele>804</ele>
        <time>2018-12-02T15:21:10.000Z</time>
      </trkpt>
      <trkpt lat="42.91767" lon="0.87794">
        <ele>804</ele>
        <time>2018-12-02T15:21:12.000Z</time>
      </trkpt>
      <trkpt lat="42.91769" lon="0.87796">
        <ele>805</ele>
        <time>2018-12-02T15:21:14.000Z</time>
      </trkpt>
      <trkpt lat="42.91769" lon="0.87796">
        <ele>805</ele>
        <time>2018-12-02T15:21:16.000Z</time>
      </trkpt>
      <trkpt lat="42.9177" lon="0.87797">
        <ele>805</ele>
        <time>2018-12-02T15:21:18.000Z</time>
      </trkpt>
      <trkpt lat="42.9177" lon="0.87798">
        <ele>805</ele>
        <time>2018-12-02T15:21:20.000Z</time>
      </trkpt>
      <trkpt lat="42.91771" lon="0.87799">
        <ele>806</ele>
        <time>2018-12-02T15:21:22.000Z</time>
      </trkpt>
      <trkpt lat="42.91771" lon="0.878">
        <ele>806</ele>
        <time>2018-12-02T15:21:24.000Z</time>
      </trkpt>
      <trkpt lat="42.91771" lon="0.87801">
        <ele>806</ele>
        <time>2018-12-02T15:21:26.000Z</time>
      </trkpt>
      <trkpt lat="42.91771" lon="0.87801">
        <ele>806</ele>
        <time>2018-12-02T15:21:28.000Z</time>
      </trkpt>
      <trkpt lat="42.91771" lon="0.87803">
        <ele>806</ele>
        <time>2018-12-02T15:21:30.000Z</time>
      </trkpt>
      <trkpt lat="42.91772" lon="0.87804">
        <ele>806</ele>
        <time>2018-12-02T15:21:32.000Z</time>
      </trkpt>
      <trkpt lat="42.91772" lon="0.87806">
        <ele>807</ele>
        <time>2018-12-02T15:21:34.000Z</time>
      </trkpt>
      <trkpt lat="42.91773" lon="0.87807">
        <ele>807</ele>
        <time>2018-12-02T15:21:36.000Z</time>
      </trkpt>
      <trkpt lat="42.91774" lon="0.87808">
        <ele>807</ele>
        <time>2018-12-02T15:21:38.000Z</time>
      </trkpt>
      <trkpt lat="42.91774" lon="0.8781">
        <ele>807</ele>
        <time>2018-12-02T15:21:40.000Z</time>
      </trkpt>
      <trkpt lat="42.91773" lon="0.87811">
        <ele>807</ele>
        <time>2018-12-02T15:21:42.000Z</time>
      </trkpt>
      <trkpt lat="42.91774" lon="0.87812">
        <ele>807</ele>
        <time>2018-12-02T15:21:44.000Z</time>
      </trkpt>
      <trkpt lat="42.91774" lon="0.87812">
        <ele>808</ele>
        <time>2018-12-02T15:21:46.000Z</time>
      </trkpt>
      <trkpt lat="42.91775" lon="0.87813">
        <ele>808</ele>
        <time>2018-12-02T15:21:48.000Z</time>
      </trkpt>
      <trkpt lat="42.91775" lon="0.87814">
        <ele>808</ele>
        <time>2018-12-02T15:21:50.000Z</time>
      </trkpt>
      <trkpt lat="42.91775" lon="0.87814">
        <ele>808</ele>
        <time>2018-12-02T15:21:52.000Z</time>
      </trkpt>
      <trkpt lat="42.91775" lon="0.87815">
        <ele>808</ele>
        <time>2018-12-02T15:21:54.000Z</time>
      </trkpt>
      <trkpt lat="42.91776" lon="0.87816">
        <ele>808</ele>
        <time>2018-12-02T15:21:56.000Z</time>
      </trkpt>
      <trkpt lat="42.91776" lon="0.87817">
        <ele>808</ele>
        <time>2018-12-02T15:21:58.000Z</time>
      </trkpt>
      <trkpt lat="42.91777" lon="0.87819">
        <ele>808</ele>
        <time>2018-12-02T15:22:00.000Z</time>
      </trkpt>
      <trkpt lat="42.91778" lon="0.8782">
        <ele>809</ele>
        <time>2018-12-02T15:22:02.000Z</time>
      </trkpt>
      <trkpt lat="42.91778" lon="0.87821">
        <ele>809</ele>
        <time>2018-12-02T15:22:04.000Z</time>
      </trkpt>
      <trkpt lat="42.91779" lon="0.87823">
        <ele>809</ele>
        <time>2018-12-02T15:22:06.000Z</time>
      </trkpt>
      <trkpt lat="42.91779" lon="0.87823">
        <ele>809</ele>
        <time>2018-12-02T15:22:08.000Z</time>
      </trkpt>
      <trkpt lat="42.9178" lon="0.87823">
        <ele>810</ele>
        <time>2018-12-02T15:22:10.000Z</time>
      </trkpt>
      <trkpt lat="42.91781" lon="0.87824">
        <ele>810</ele>
        <time>2018-12-02T15:22:12.000Z</time>
      </trkpt>
      <trkpt lat="42.91782" lon="0.87825">
        <ele>810</ele>
        <time>2018-12-02T15:22:14.000Z</time>
      </trkpt>
      <trkpt lat="42.91782" lon="0.87826">
        <ele>810</ele>
        <time>2018-12-02T15:22:16.000Z</time>
      </trkpt>
      <trkpt lat="42.91782" lon="0.87826">
        <ele>811</ele>
        <time>2018-12-02T15:22:18.000Z</time>
      </trkpt>
      <trkpt lat="42.91782" lon="0.87827">
        <ele>811</ele>
        <time>2018-12-02T15:22:20.000Z</time>
      </trkpt>
      <trkpt lat="42.91783" lon="0.87827">
        <ele>811</ele>
        <time>2018-12-02T15:22:22.000Z</time>
      </trkpt>
      <trkpt lat="42.91783" lon="0.87826">
        <ele>811</ele>
        <time>2018-12-02T15:22:24.000Z</time>
      </trkpt>
      <trkpt lat="42.91781" lon="0.87825">
        <ele>810</ele>
        <time>2018-12-02T15:22:26.000Z</time>
      </trkpt>
      <trkpt lat="42.9178" lon="0.87823">
        <ele>810</ele>
        <time>2018-12-02T15:22:28.000Z</time>
      </trkpt>
      <trkpt lat="42.91778" lon="0.87821">
        <ele>809</ele>
        <time>2018-12-02T15:22:30.000Z</time>
      </trkpt>
      <trkpt lat="42.91778" lon="0.87819">
        <ele>809</ele>
        <time>2018-12-02T15:22:32.000Z</time>
      </trkpt>
      <trkpt lat="42.91777" lon="0.87818">
        <ele>808</ele>
        <time>2018-12-02T15:22:34.000Z</time>
      </trkpt>
      <trkpt lat="42.91776" lon="0.87816">
        <ele>808</ele>
        <time>2018-12-02T15:22:36.000Z</time>
      </trkpt>
      <trkpt lat="42.91776" lon="0.87815">
        <ele>808</ele>
        <time>2018-12-02T15:22:38.000Z</time>
      </trkpt>
      <trkpt lat="42.91776" lon="0.87814">
        <ele>808</ele>
        <time>2018-12-02T15:22:40.000Z</time>
      </trkpt>
      <trkpt lat="42.91777" lon="0.87813">
        <ele>809</ele>
        <time>2018-12-02T15:22:42.000Z</time>
      </trkpt>
      <trkpt lat="42.91778" lon="0.87812">
        <ele>809</ele>
        <time>2018-12-02T15:22:44.000Z</time>
      </trkpt>
      <trkpt lat="42.91779" lon="0.87811">
        <ele>810</ele>
        <time>2018-12-02T15:22:46.000Z</time>
      </trkpt>
      <trkpt lat="42.9178" lon="0.8781">
        <ele>810</ele>
        <time>2018-12-02T15:22:48.000Z</time>
      </trkpt>
      <trkpt lat="42.91781" lon="0.87809">
        <ele>811</ele>
        <time>2018-12-02T15:22:50.000Z</time>
      </trkpt>
      <trkpt lat="42.91782" lon="0.87808">
        <ele>811</ele>
        <time>2018-12-02T15:22:52.000Z</time>
      </trkpt>
      <trkpt lat="42.91783" lon="0.87807">
        <ele>812</ele>
        <time>2018-12-02T15:22:54.000Z</time>
      </trkpt>
      <trkpt lat="42.91785" lon="0.87805">
        <ele>812</ele>
        <time>2018-12-02T15:22:56.000Z</time>
      </trkpt>
      <trkpt lat="42.91786" lon="0.87803">
        <ele>813</ele>
        <time>2018-12-02T15:22:58.000Z</time>
      </trkpt>
      <trkpt lat="42.91788" lon="0.87801">
        <ele>813</ele>
        <time>2018-12-02T15:23:00.000Z</time>
      </trkpt>
      <trkpt lat="42.91789" lon="0.878">
        <ele>814</ele>
        <time>2018-12-02T15:23:02.000Z</time>
      </trkpt>
      <trkpt lat="42.9179" lon="0.87799">
        <ele>814</ele>
        <time>2018-12-02T15:23:04.000Z</time>
      </trkpt>
      <trkpt lat="42.9179" lon="0.87798">
        <ele>814</ele>
        <time>2018-12-02T15:23:06.000Z</time>
      </trkpt>
      <trkpt lat="42.91792" lon="0.87796">
        <ele>815</ele>
        <time>2018-12-02T15:23:08.000Z</time>
      </trkpt>
      <trkpt lat="42.91793" lon="0.87796">
        <ele>816</ele>
        <time>2018-12-02T15:23:10.000Z</time>
      </trkpt>
      <trkpt lat="42.91795" lon="0.87795">
        <ele>816</ele>
        <time>2018-12-02T15:23:12.000Z</time>
      </trkpt>
      <trkpt lat="42.91796" lon="0.87794">
        <ele>816</ele>
        <time>2018-12-02T15:23:14.000Z</time>
      </trkpt>
      <trkpt lat="42.91797" lon="0.87794">
        <ele>817</ele>
        <time>2018-12-02T15:23:16.000Z</time>
      </trkpt>
      <trkpt lat="42.91799" lon="0.87794">
        <ele>818</ele>
        <time>2018-12-02T15:23:18.000Z</time>
      </trkpt>
      <trkpt lat="42.91799" lon="0.87793">
        <ele>818</ele>
        <time>2018-12-02T15:23:20.000Z</time>
      </trkpt>
      <trkpt lat="42.918" lon="0.87793">
        <ele>818</ele>
        <time>2018-12-02T15:23:22.000Z</time>
      </trkpt>
      <trkpt lat="42.91802" lon="0.87791">
        <ele>819</ele>
        <time>2018-12-02T15:23:24.000Z</time>
      </trkpt>
      <trkpt lat="42.91804" lon="0.87789">
        <ele>820</ele>
        <time>2018-12-02T15:23:26.000Z</time>
      </trkpt>
      <trkpt lat="42.91805" lon="0.87789">
        <ele>820</ele>
        <time>2018-12-02T15:23:28.000Z</time>
      </trkpt>
      <trkpt lat="42.91806" lon="0.87788">
        <ele>821</ele>
        <time>2018-12-02T15:23:30.000Z</time>
      </trkpt>
      <trkpt lat="42.91806" lon="0.87787">
        <ele>821</ele>
        <time>2018-12-02T15:23:32.000Z</time>
      </trkpt>
      <trkpt lat="42.91806" lon="0.87786">
        <ele>821</ele>
        <time>2018-12-02T15:23:34.000Z</time>
      </trkpt>
      <trkpt lat="42.91807" lon="0.87784">
        <ele>821</ele>
        <time>2018-12-02T15:23:36.000Z</time>
      </trkpt>
      <trkpt lat="42.91807" lon="0.87783">
        <ele>821</ele>
        <time>2018-12-02T15:23:38.000Z</time>
      </trkpt>
      <trkpt lat="42.91808" lon="0.87781">
        <ele>821</ele>
        <time>2018-12-02T15:23:40.000Z</time>
      </trkpt>
      <trkpt lat="42.91808" lon="0.87781">
        <ele>821</ele>
        <time>2018-12-02T15:23:42.000Z</time>
      </trkpt>
      <trkpt lat="42.9181" lon="0.87781">
        <ele>822</ele>
        <time>2018-12-02T15:23:44.000Z</time>
      </trkpt>
      <trkpt lat="42.91812" lon="0.8778">
        <ele>823</ele>
        <time>2018-12-02T15:23:46.000Z</time>
      </trkpt>
      <trkpt lat="42.91813" lon="0.87779">
        <ele>823</ele>
        <time>2018-12-02T15:23:48.000Z</time>
      </trkpt>
      <trkpt lat="42.91815" lon="0.87778">
        <ele>824</ele>
        <time>2018-12-02T15:23:50.000Z</time>
      </trkpt>
      <trkpt lat="42.91817" lon="0.87778">
        <ele>825</ele>
        <time>2018-12-02T15:23:52.000Z</time>
      </trkpt>
      <trkpt lat="42.91818" lon="0.87776">
        <ele>825</ele>
        <time>2018-12-02T15:23:54.000Z</time>
      </trkpt>
      <trkpt lat="42.9182" lon="0.87774">
        <ele>826</ele>
        <time>2018-12-02T15:23:56.000Z</time>
      </trkpt>
      <trkpt lat="42.91821" lon="0.87773">
        <ele>826</ele>
        <time>2018-12-02T15:23:58.000Z</time>
      </trkpt>
      <trkpt lat="42.91823" lon="0.87773">
        <ele>827</ele>
        <time>2018-12-02T15:24:00.000Z</time>
      </trkpt>
      <trkpt lat="42.91824" lon="0.87772">
        <ele>827</ele>
        <time>2018-12-02T15:24:02.000Z</time>
      </trkpt>
      <trkpt lat="42.91825" lon="0.87771">
        <ele>827</ele>
        <time>2018-12-02T15:24:04.000Z</time>
      </trkpt>
      <trkpt lat="42.91826" lon="0.87771">
        <ele>828</ele>
        <time>2018-12-02T15:24:06.000Z</time>
      </trkpt>
      <trkpt lat="42.91827" lon="0.8777">
        <ele>828</ele>
        <time>2018-12-02T15:24:08.000Z</time>
      </trkpt>
      <trkpt lat="42.91828" lon="0.87768">
        <ele>828</ele>
        <time>2018-12-02T15:24:10.000Z</time>
      </trkpt>
      <trkpt lat="42.91828" lon="0.87768">
        <ele>829</ele>
        <time>2018-12-02T15:24:12.000Z</time>
      </trkpt>
      <trkpt lat="42.91828" lon="0.87767">
        <ele>829</ele>
        <time>2018-12-02T15:24:14.000Z</time>
      </trkpt>
      <trkpt lat="42.91829" lon="0.87766">
        <ele>829</ele>
        <time>2018-12-02T15:24:16.000Z</time>
      </trkpt>
      <trkpt lat="42.9183" lon="0.87764">
        <ele>829</ele>
        <time>2018-12-02T15:24:18.000Z</time>
      </trkpt>
      <trkpt lat="42.9183" lon="0.87762">
        <ele>829</ele>
        <time>2018-12-02T15:24:20.000Z</time>
      </trkpt>
      <trkpt lat="42.91831" lon="0.87761">
        <ele>829</ele>
        <time>2018-12-02T15:24:22.000Z</time>
      </trkpt>
      <trkpt lat="42.91833" lon="0.87758">
        <ele>830</ele>
        <time>2018-12-02T15:24:24.000Z</time>
      </trkpt>
      <trkpt lat="42.91834" lon="0.87757">
        <ele>830</ele>
        <time>2018-12-02T15:24:26.000Z</time>
      </trkpt>
      <trkpt lat="42.91836" lon="0.87755">
        <ele>831</ele>
        <time>2018-12-02T15:24:28.000Z</time>
      </trkpt>
      <trkpt lat="42.91838" lon="0.87755">
        <ele>832</ele>
        <time>2018-12-02T15:24:30.000Z</time>
      </trkpt>
      <trkpt lat="42.9184" lon="0.87753">
        <ele>832</ele>
        <time>2018-12-02T15:24:32.000Z</time>
      </trkpt>
      <trkpt lat="42.91841" lon="0.87752">
        <ele>833</ele>
        <time>2018-12-02T15:24:34.000Z</time>
      </trkpt>
      <trkpt lat="42.91842" lon="0.8775">
        <ele>833</ele>
        <time>2018-12-02T15:24:36.000Z</time>
      </trkpt>
      <trkpt lat="42.91843" lon="0.87749">
        <ele>833</ele>
        <time>2018-12-02T15:24:38.000Z</time>
      </trkpt>
      <trkpt lat="42.91844" lon="0.87747">
        <ele>833</ele>
        <time>2018-12-02T15:24:40.000Z</time>
      </trkpt>
      <trkpt lat="42.91845" lon="0.87746">
        <ele>833</ele>
        <time>2018-12-02T15:24:42.000Z</time>
      </trkpt>
      <trkpt lat="42.91845" lon="0.87745">
        <ele>833</ele>
        <time>2018-12-02T15:24:44.000Z</time>
      </trkpt>
      <trkpt lat="42.91845" lon="0.87745">
        <ele>833</ele>
        <time>2018-12-02T15:24:46.000Z</time>
      </trkpt>
      <trkpt lat="42.91845" lon="0.87745">
        <ele>833</ele>
        <time>2018-12-02T15:24:48.000Z</time>
      </trkpt>
      <trkpt lat="42.91846" lon="0.87744">
        <ele>833</ele>
        <time>2018-12-02T15:24:50.000Z</time>
      </trkpt>
      <trkpt lat="42.91847" lon="0.87744">
        <ele>833</ele>
        <time>2018-12-02T15:24:52.000Z</time>
      </trkpt>
      <trkpt lat="42.91847" lon="0.87743">
        <ele>833</ele>
        <time>2018-12-02T15:24:54.000Z</time>
      </trkpt>
      <trkpt lat="42.91847" lon="0.87741">
        <ele>833</ele>
        <time>2018-12-02T15:24:56.000Z</time>
      </trkpt>
      <trkpt lat="42.91848" lon="0.8774">
        <ele>833</ele>
        <time>2018-12-02T15:24:58.000Z</time>
      </trkpt>
      <trkpt lat="42.91848" lon="0.87739">
        <ele>833</ele>
        <time>2018-12-02T15:25:00.000Z</time>
      </trkpt>
      <trkpt lat="42.91849" lon="0.87738">
        <ele>834</ele>
        <time>2018-12-02T15:25:02.000Z</time>
      </trkpt>
      <trkpt lat="42.91851" lon="0.87739">
        <ele>834</ele>
        <time>2018-12-02T15:25:04.000Z</time>
      </trkpt>
      <trkpt lat="42.91851" lon="0.87738">
        <ele>834</ele>
        <time>2018-12-02T15:25:06.000Z</time>
      </trkpt>
      <trkpt lat="42.91852" lon="0.87737">
        <ele>834</ele>
        <time>2018-12-02T15:25:08.000Z</time>
      </trkpt>
      <trkpt lat="42.91853" lon="0.87736">
        <ele>834</ele>
        <time>2018-12-02T15:25:10.000Z</time>
      </trkpt>
      <trkpt lat="42.91855" lon="0.87735">
        <ele>835</ele>
        <time>2018-12-02T15:25:12.000Z</time>
      </trkpt>
      <trkpt lat="42.91856" lon="0.87735">
        <ele>835</ele>
        <time>2018-12-02T15:25:14.000Z</time>
      </trkpt>
      <trkpt lat="42.91858" lon="0.87735">
        <ele>836</ele>
        <time>2018-12-02T15:25:16.000Z</time>
      </trkpt>
      <trkpt lat="42.91859" lon="0.87734">
        <ele>836</ele>
        <time>2018-12-02T15:25:18.000Z</time>
      </trkpt>
      <trkpt lat="42.9186" lon="0.87733">
        <ele>836</ele>
        <time>2018-12-02T15:25:20.000Z</time>
      </trkpt>
      <trkpt lat="42.91862" lon="0.87731">
        <ele>837</ele>
        <time>2018-12-02T15:25:22.000Z</time>
      </trkpt>
      <trkpt lat="42.91863" lon="0.87729">
        <ele>837</ele>
        <time>2018-12-02T15:25:24.000Z</time>
      </trkpt>
      <trkpt lat="42.91864" lon="0.87728">
        <ele>837</ele>
        <time>2018-12-02T15:25:26.000Z</time>
      </trkpt>
      <trkpt lat="42.91865" lon="0.87727">
        <ele>837</ele>
        <time>2018-12-02T15:25:28.000Z</time>
      </trkpt>
      <trkpt lat="42.91865" lon="0.87725">
        <ele>837</ele>
        <time>2018-12-02T15:25:30.000Z</time>
      </trkpt>
      <trkpt lat="42.91866" lon="0.87724">
        <ele>837</ele>
        <time>2018-12-02T15:25:32.000Z</time>
      </trkpt>
      <trkpt lat="42.91867" lon="0.87723">
        <ele>838</ele>
        <time>2018-12-02T15:25:34.000Z</time>
      </trkpt>
      <trkpt lat="42.91868" lon="0.87723">
        <ele>838</ele>
        <time>2018-12-02T15:25:36.000Z</time>
      </trkpt>
      <trkpt lat="42.91869" lon="0.87722">
        <ele>838</ele>
        <time>2018-12-02T15:25:38.000Z</time>
      </trkpt>
      <trkpt lat="42.9187" lon="0.87721">
        <ele>838</ele>
        <time>2018-12-02T15:25:40.000Z</time>
      </trkpt>
      <trkpt lat="42.91873" lon="0.87719">
        <ele>839</ele>
        <time>2018-12-02T15:25:42.000Z</time>
      </trkpt>
      <trkpt lat="42.91874" lon="0.87716">
        <ele>839</ele>
        <time>2018-12-02T15:25:44.000Z</time>
      </trkpt>
      <trkpt lat="42.91875" lon="0.87713">
        <ele>839</ele>
        <time>2018-12-02T15:25:46.000Z</time>
      </trkpt>
      <trkpt lat="42.91877" lon="0.87711">
        <ele>839</ele>
        <time>2018-12-02T15:25:48.000Z</time>
      </trkpt>
      <trkpt lat="42.91877" lon="0.87708">
        <ele>838</ele>
        <time>2018-12-02T15:25:50.000Z</time>
      </trkpt>
      <trkpt lat="42.91878" lon="0.87706">
        <ele>839</ele>
        <time>2018-12-02T15:25:52.000Z</time>
      </trkpt>
      <trkpt lat="42.91879" lon="0.87705">
        <ele>838</ele>
        <time>2018-12-02T15:25:54.000Z</time>
      </trkpt>
      <trkpt lat="42.9188" lon="0.87702">
        <ele>838</ele>
        <time>2018-12-02T15:25:56.000Z</time>
      </trkpt>
      <trkpt lat="42.91881" lon="0.87701">
        <ele>838</ele>
        <time>2018-12-02T15:25:58.000Z</time>
      </trkpt>
      <trkpt lat="42.91882" lon="0.87699">
        <ele>839</ele>
        <time>2018-12-02T15:26:00.000Z</time>
      </trkpt>
      <trkpt lat="42.91883" lon="0.87697">
        <ele>839</ele>
        <time>2018-12-02T15:26:02.000Z</time>
      </trkpt>
      <trkpt lat="42.91884" lon="0.87695">
        <ele>839</ele>
        <time>2018-12-02T15:26:04.000Z</time>
      </trkpt>
      <trkpt lat="42.91884" lon="0.87694">
        <ele>838</ele>
        <time>2018-12-02T15:26:06.000Z</time>
      </trkpt>
      <trkpt lat="42.91885" lon="0.87692">
        <ele>838</ele>
        <time>2018-12-02T15:26:08.000Z</time>
      </trkpt>
      <trkpt lat="42.91885" lon="0.8769">
        <ele>838</ele>
        <time>2018-12-02T15:26:10.000Z</time>
      </trkpt>
      <trkpt lat="42.91886" lon="0.87689">
        <ele>838</ele>
        <time>2018-12-02T15:26:12.000Z</time>
      </trkpt>
      <trkpt lat="42.91885" lon="0.87687">
        <ele>838</ele>
        <time>2018-12-02T15:26:14.000Z</time>
      </trkpt>
      <trkpt lat="42.91885" lon="0.87685">
        <ele>838</ele>
        <time>2018-12-02T15:26:16.000Z</time>
      </trkpt>
      <trkpt lat="42.91886" lon="0.87683">
        <ele>838</ele>
        <time>2018-12-02T15:26:18.000Z</time>
      </trkpt>
      <trkpt lat="42.91887" lon="0.87682">
        <ele>838</ele>
        <time>2018-12-02T15:26:20.000Z</time>
      </trkpt>
      <trkpt lat="42.91887" lon="0.87681">
        <ele>838</ele>
        <time>2018-12-02T15:26:22.000Z</time>
      </trkpt>
      <trkpt lat="42.91888" lon="0.87679">
        <ele>838</ele>
        <time>2018-12-02T15:26:24.000Z</time>
      </trkpt>
      <trkpt lat="42.91888" lon="0.87678">
        <ele>838</ele>
        <time>2018-12-02T15:26:26.000Z</time>
      </trkpt>
      <trkpt lat="42.91889" lon="0.87677">
        <ele>838</ele>
        <time>2018-12-02T15:26:28.000Z</time>
      </trkpt>
      <trkpt lat="42.9189" lon="0.87675">
        <ele>839</ele>
        <time>2018-12-02T15:26:30.000Z</time>
      </trkpt>
      <trkpt lat="42.91891" lon="0.87674">
        <ele>839</ele>
        <time>2018-12-02T15:26:32.000Z</time>
      </trkpt>
      <trkpt lat="42.91892" lon="0.87673">
        <ele>840</ele>
        <time>2018-12-02T15:26:34.000Z</time>
      </trkpt>
      <trkpt lat="42.91894" lon="0.87672">
        <ele>840</ele>
        <time>2018-12-02T15:26:36.000Z</time>
      </trkpt>
      <trkpt lat="42.91895" lon="0.87671">
        <ele>840</ele>
        <time>2018-12-02T15:26:38.000Z</time>
      </trkpt>
      <trkpt lat="42.91896" lon="0.87669">
        <ele>841</ele>
        <time>2018-12-02T15:26:40.000Z</time>
      </trkpt>
      <trkpt lat="42.91897" lon="0.87668">
        <ele>841</ele>
        <time>2018-12-02T15:26:42.000Z</time>
      </trkpt>
      <trkpt lat="42.91898" lon="0.87668">
        <ele>841</ele>
        <time>2018-12-02T15:26:44.000Z</time>
      </trkpt>
      <trkpt lat="42.91899" lon="0.87668">
        <ele>842</ele>
        <time>2018-12-02T15:26:46.000Z</time>
      </trkpt>
      <trkpt lat="42.919" lon="0.87667">
        <ele>842</ele>
        <time>2018-12-02T15:26:48.000Z</time>
      </trkpt>
      <trkpt lat="42.91901" lon="0.87666">
        <ele>842</ele>
        <time>2018-12-02T15:26:50.000Z</time>
      </trkpt>
      <trkpt lat="42.91902" lon="0.87666">
        <ele>843</ele>
        <time>2018-12-02T15:26:52.000Z</time>
      </trkpt>
      <trkpt lat="42.91902" lon="0.87666">
        <ele>843</ele>
        <time>2018-12-02T15:26:54.000Z</time>
      </trkpt>
      <trkpt lat="42.91904" lon="0.87668">
        <ele>844</ele>
        <time>2018-12-02T15:26:56.000Z</time>
      </trkpt>
      <trkpt lat="42.91905" lon="0.87669">
        <ele>844</ele>
        <time>2018-12-02T15:26:58.000Z</time>
      </trkpt>
      <trkpt lat="42.91905" lon="0.8767">
        <ele>844</ele>
        <time>2018-12-02T15:27:00.000Z</time>
      </trkpt>
      <trkpt lat="42.91906" lon="0.87671">
        <ele>845</ele>
        <time>2018-12-02T15:27:02.000Z</time>
      </trkpt>
      <trkpt lat="42.91906" lon="0.87672">
        <ele>845</ele>
        <time>2018-12-02T15:27:04.000Z</time>
      </trkpt>
      <trkpt lat="42.91907" lon="0.87672">
        <ele>845</ele>
        <time>2018-12-02T15:27:06.000Z</time>
      </trkpt>
      <trkpt lat="42.91908" lon="0.87673">
        <ele>845</ele>
        <time>2018-12-02T15:27:08.000Z</time>
      </trkpt>
      <trkpt lat="42.91908" lon="0.87673">
        <ele>846</ele>
        <time>2018-12-02T15:27:10.000Z</time>
      </trkpt>
      <trkpt lat="42.91908" lon="0.87674">
        <ele>846</ele>
        <time>2018-12-02T15:27:12.000Z</time>
      </trkpt>
      <trkpt lat="42.91908" lon="0.87674">
        <ele>846</ele>
        <time>2018-12-02T15:27:14.000Z</time>
      </trkpt>
      <trkpt lat="42.91909" lon="0.87674">
        <ele>846</ele>
        <time>2018-12-02T15:27:16.000Z</time>
      </trkpt>
      <trkpt lat="42.9191" lon="0.87674">
        <ele>846</ele>
        <time>2018-12-02T15:27:18.000Z</time>
      </trkpt>
      <trkpt lat="42.9191" lon="0.87674">
        <ele>847</ele>
        <time>2018-12-02T15:27:20.000Z</time>
      </trkpt>
      <trkpt lat="42.91911" lon="0.87675">
        <ele>847</ele>
        <time>2018-12-02T15:27:22.000Z</time>
      </trkpt>
      <trkpt lat="42.91912" lon="0.87675">
        <ele>847</ele>
        <time>2018-12-02T15:27:24.000Z</time>
      </trkpt>
      <trkpt lat="42.91913" lon="0.87674">
        <ele>847</ele>
        <time>2018-12-02T15:27:26.000Z</time>
      </trkpt>
      <trkpt lat="42.91913" lon="0.87673">
        <ele>848</ele>
        <time>2018-12-02T15:27:28.000Z</time>
      </trkpt>
      <trkpt lat="42.91914" lon="0.87674">
        <ele>848</ele>
        <time>2018-12-02T15:27:30.000Z</time>
      </trkpt>
      <trkpt lat="42.91915" lon="0.87674">
        <ele>848</ele>
        <time>2018-12-02T15:27:32.000Z</time>
      </trkpt>
      <trkpt lat="42.91917" lon="0.87675">
        <ele>849</ele>
        <time>2018-12-02T15:27:34.000Z</time>
      </trkpt>
      <trkpt lat="42.91918" lon="0.87676">
        <ele>850</ele>
        <time>2018-12-02T15:27:36.000Z</time>
      </trkpt>
      <trkpt lat="42.91919" lon="0.87677">
        <ele>850</ele>
        <time>2018-12-02T15:27:38.000Z</time>
      </trkpt>
      <trkpt lat="42.91921" lon="0.87679">
        <ele>851</ele>
        <time>2018-12-02T15:27:40.000Z</time>
      </trkpt>
      <trkpt lat="42.91922" lon="0.87681">
        <ele>851</ele>
        <time>2018-12-02T15:27:42.000Z</time>
      </trkpt>
      <trkpt lat="42.91922" lon="0.87683">
        <ele>851</ele>
        <time>2018-12-02T15:27:44.000Z</time>
      </trkpt>
      <trkpt lat="42.91921" lon="0.87686">
        <ele>851</ele>
        <time>2018-12-02T15:27:46.000Z</time>
      </trkpt>
      <trkpt lat="42.9192" lon="0.87688">
        <ele>851</ele>
        <time>2018-12-02T15:27:48.000Z</time>
      </trkpt>
      <trkpt lat="42.91919" lon="0.87691">
        <ele>851</ele>
        <time>2018-12-02T15:27:50.000Z</time>
      </trkpt>
      <trkpt lat="42.91919" lon="0.87694">
        <ele>851</ele>
        <time>2018-12-02T15:27:52.000Z</time>
      </trkpt>
      <trkpt lat="42.91918" lon="0.87696">
        <ele>851</ele>
        <time>2018-12-02T15:27:54.000Z</time>
      </trkpt>
      <trkpt lat="42.91918" lon="0.87699">
        <ele>851</ele>
        <time>2018-12-02T15:27:56.000Z</time>
      </trkpt>
      <trkpt lat="42.91917" lon="0.87701">
        <ele>851</ele>
        <time>2018-12-02T15:27:58.000Z</time>
      </trkpt>
      <trkpt lat="42.91917" lon="0.87704">
        <ele>851</ele>
        <time>2018-12-02T15:28:00.000Z</time>
      </trkpt>
      <trkpt lat="42.91917" lon="0.87706">
        <ele>851</ele>
        <time>2018-12-02T15:28:02.000Z</time>
      </trkpt>
      <trkpt lat="42.91916" lon="0.87709">
        <ele>850</ele>
        <time>2018-12-02T15:28:04.000Z</time>
      </trkpt>
      <trkpt lat="42.91915" lon="0.87711">
        <ele>850</ele>
        <time>2018-12-02T15:28:06.000Z</time>
      </trkpt>
      <trkpt lat="42.91915" lon="0.87714">
        <ele>850</ele>
        <time>2018-12-02T15:28:08.000Z</time>
      </trkpt>
      <trkpt lat="42.91914" lon="0.87716">
        <ele>850</ele>
        <time>2018-12-02T15:28:10.000Z</time>
      </trkpt>
      <trkpt lat="42.91913" lon="0.87719">
        <ele>850</ele>
        <time>2018-12-02T15:28:12.000Z</time>
      </trkpt>
      <trkpt lat="42.91912" lon="0.87721">
        <ele>850</ele>
        <time>2018-12-02T15:28:14.000Z</time>
      </trkpt>
      <trkpt lat="42.91912" lon="0.87723">
        <ele>851</ele>
        <time>2018-12-02T15:28:16.000Z</time>
      </trkpt>
      <trkpt lat="42.91911" lon="0.87725">
        <ele>851</ele>
        <time>2018-12-02T15:28:18.000Z</time>
      </trkpt>
      <trkpt lat="42.91912" lon="0.87726">
        <ele>851</ele>
        <time>2018-12-02T15:28:20.000Z</time>
      </trkpt>
      <trkpt lat="42.91912" lon="0.87729">
        <ele>851</ele>
        <time>2018-12-02T15:28:22.000Z</time>
      </trkpt>
      <trkpt lat="42.91911" lon="0.87731">
        <ele>851</ele>
        <time>2018-12-02T15:28:24.000Z</time>
      </trkpt>
      <trkpt lat="42.9191" lon="0.87733">
        <ele>851</ele>
        <time>2018-12-02T15:28:26.000Z</time>
      </trkpt>
      <trkpt lat="42.91909" lon="0.87735">
        <ele>851</ele>
        <time>2018-12-02T15:28:28.000Z</time>
      </trkpt>
      <trkpt lat="42.91908" lon="0.87738">
        <ele>850</ele>
        <time>2018-12-02T15:28:30.000Z</time>
      </trkpt>
      <trkpt lat="42.91906" lon="0.87739">
        <ele>850</ele>
        <time>2018-12-02T15:28:32.000Z</time>
      </trkpt>
      <trkpt lat="42.91905" lon="0.87741">
        <ele>850</ele>
        <time>2018-12-02T15:28:34.000Z</time>
      </trkpt>
      <trkpt lat="42.91903" lon="0.87743">
        <ele>849</ele>
        <time>2018-12-02T15:28:36.000Z</time>
      </trkpt>
      <trkpt lat="42.91902" lon="0.87745">
        <ele>849</ele>
        <time>2018-12-02T15:28:38.000Z</time>
      </trkpt>
      <trkpt lat="42.91901" lon="0.87748">
        <ele>849</ele>
        <time>2018-12-02T15:28:40.000Z</time>
      </trkpt>
      <trkpt lat="42.91899" lon="0.8775">
        <ele>848</ele>
        <time>2018-12-02T15:28:42.000Z</time>
      </trkpt>
      <trkpt lat="42.91898" lon="0.87753">
        <ele>848</ele>
        <time>2018-12-02T15:28:44.000Z</time>
      </trkpt>
      <trkpt lat="42.91896" lon="0.87756">
        <ele>848</ele>
        <time>2018-12-02T15:28:46.000Z</time>
      </trkpt>
      <trkpt lat="42.91895" lon="0.87758">
        <ele>848</ele>
        <time>2018-12-02T15:28:48.000Z</time>
      </trkpt>
      <trkpt lat="42.91894" lon="0.8776">
        <ele>848</ele>
        <time>2018-12-02T15:28:50.000Z</time>
      </trkpt>
      <trkpt lat="42.91894" lon="0.8776">
        <ele>848</ele>
        <time>2018-12-02T15:28:52.000Z</time>
      </trkpt>
      <trkpt lat="42.91894" lon="0.87761">
        <ele>848</ele>
        <time>2018-12-02T15:28:54.000Z</time>
      </trkpt>
      <trkpt lat="42.91893" lon="0.87761">
        <ele>848</ele>
        <time>2018-12-02T15:28:56.000Z</time>
      </trkpt>
      <trkpt lat="42.91894" lon="0.87762">
        <ele>848</ele>
        <time>2018-12-02T15:28:58.000Z</time>
      </trkpt>
      <trkpt lat="42.91894" lon="0.87761">
        <ele>848</ele>
        <time>2018-12-02T15:29:00.000Z</time>
      </trkpt>
      <trkpt lat="42.91895" lon="0.8776">
        <ele>848</ele>
        <time>2018-12-02T15:29:02.000Z</time>
      </trkpt>
      <trkpt lat="42.91895" lon="0.87759">
        <ele>848</ele>
        <time>2018-12-02T15:29:04.000Z</time>
      </trkpt>
      <trkpt lat="42.91896" lon="0.87759">
        <ele>848</ele>
        <time>2018-12-02T15:29:06.000Z</time>
      </trkpt>
      <trkpt lat="42.91896" lon="0.87758">
        <ele>848</ele>
        <time>2018-12-02T15:29:08.000Z</time>
      </trkpt>
      <trkpt lat="42.91896" lon="0.87757">
        <ele>848</ele>
        <time>2018-12-02T15:29:10.000Z</time>
      </trkpt>
      <trkpt lat="42.91896" lon="0.87756">
        <ele>848</ele>
        <time>2018-12-02T15:29:12.000Z</time>
      </trkpt>
      <trkpt lat="42.91895" lon="0.87755">
        <ele>848</ele>
        <time>2018-12-02T15:29:14.000Z</time>
      </trkpt>
      <trkpt lat="42.91896" lon="0.87755">
        <ele>848</ele>
        <time>2018-12-02T15:29:16.000Z</time>
      </trkpt>
      <trkpt lat="42.91896" lon="0.87755">
        <ele>848</ele>
        <time>2018-12-02T15:29:18.000Z</time>
      </trkpt>
      <trkpt lat="42.91897" lon="0.87757">
        <ele>848</ele>
        <time>2018-12-02T15:29:20.000Z</time>
      </trkpt>
      <trkpt lat="42.91898" lon="0.87757">
        <ele>849</ele>
        <time>2018-12-02T15:29:22.000Z</time>
      </trkpt>
      <trkpt lat="42.919" lon="0.87759">
        <ele>849</ele>
        <time>2018-12-02T15:29:24.000Z</time>
      </trkpt>
      <trkpt lat="42.91902" lon="0.87761">
        <ele>850</ele>
        <time>2018-12-02T15:29:26.000Z</time>
      </trkpt>
      <trkpt lat="42.91903" lon="0.87762">
        <ele>850</ele>
        <time>2018-12-02T15:29:28.000Z</time>
      </trkpt>
      <trkpt lat="42.91906" lon="0.87764">
        <ele>851</ele>
        <time>2018-12-02T15:29:30.000Z</time>
      </trkpt>
      <trkpt lat="42.91908" lon="0.87766">
        <ele>852</ele>
        <time>2018-12-02T15:29:32.000Z</time>
      </trkpt>
      <trkpt lat="42.9191" lon="0.87769">
        <ele>853</ele>
        <time>2018-12-02T15:29:34.000Z</time>
      </trkpt>
      <trkpt lat="42.91913" lon="0.87771">
        <ele>854</ele>
        <time>2018-12-02T15:29:36.000Z</time>
      </trkpt>
      <trkpt lat="42.91914" lon="0.87774">
        <ele>854</ele>
        <time>2018-12-02T15:29:38.000Z</time>
      </trkpt>
      <trkpt lat="42.91915" lon="0.87776">
        <ele>855</ele>
        <time>2018-12-02T15:29:40.000Z</time>
      </trkpt>
      <trkpt lat="42.91916" lon="0.87778">
        <ele>855</ele>
        <time>2018-12-02T15:29:42.000Z</time>
      </trkpt>
      <trkpt lat="42.91916" lon="0.87781">
        <ele>855</ele>
        <time>2018-12-02T15:29:44.000Z</time>
      </trkpt>
      <trkpt lat="42.91916" lon="0.87785">
        <ele>855</ele>
        <time>2018-12-02T15:29:46.000Z</time>
      </trkpt>
      <trkpt lat="42.91916" lon="0.87788">
        <ele>856</ele>
        <time>2018-12-02T15:29:48.000Z</time>
      </trkpt>
      <trkpt lat="42.91916" lon="0.8779">
        <ele>856</ele>
        <time>2018-12-02T15:29:50.000Z</time>
      </trkpt>
      <trkpt lat="42.91914" lon="0.87793">
        <ele>856</ele>
        <time>2018-12-02T15:29:52.000Z</time>
      </trkpt>
      <trkpt lat="42.91913" lon="0.87796">
        <ele>855</ele>
        <time>2018-12-02T15:29:54.000Z</time>
      </trkpt>
      <trkpt lat="42.91913" lon="0.87799">
        <ele>855</ele>
        <time>2018-12-02T15:29:56.000Z</time>
      </trkpt>
      <trkpt lat="42.91912" lon="0.87802">
        <ele>856</ele>
        <time>2018-12-02T15:29:58.000Z</time>
      </trkpt>
      <trkpt lat="42.91911" lon="0.87805">
        <ele>856</ele>
        <time>2018-12-02T15:30:00.000Z</time>
      </trkpt>
      <trkpt lat="42.9191" lon="0.87808">
        <ele>855</ele>
        <time>2018-12-02T15:30:02.000Z</time>
      </trkpt>
      <trkpt lat="42.9191" lon="0.87811">
        <ele>855</ele>
        <time>2018-12-02T15:30:04.000Z</time>
      </trkpt>
      <trkpt lat="42.91909" lon="0.87813">
        <ele>855</ele>
        <time>2018-12-02T15:30:06.000Z</time>
      </trkpt>
      <trkpt lat="42.91909" lon="0.87816">
        <ele>855</ele>
        <time>2018-12-02T15:30:08.000Z</time>
      </trkpt>
      <trkpt lat="42.91908" lon="0.8782">
        <ele>854</ele>
        <time>2018-12-02T15:30:10.000Z</time>
      </trkpt>
      <trkpt lat="42.91907" lon="0.87822">
        <ele>854</ele>
        <time>2018-12-02T15:30:12.000Z</time>
      </trkpt>
      <trkpt lat="42.91908" lon="0.87825">
        <ele>854</ele>
        <time>2018-12-02T15:30:14.000Z</time>
      </trkpt>
      <trkpt lat="42.91907" lon="0.87828">
        <ele>854</ele>
        <time>2018-12-02T15:30:16.000Z</time>
      </trkpt>
      <trkpt lat="42.91907" lon="0.8783">
        <ele>853</ele>
        <time>2018-12-02T15:30:18.000Z</time>
      </trkpt>
      <trkpt lat="42.91906" lon="0.87834">
        <ele>853</ele>
        <time>2018-12-02T15:30:20.000Z</time>
      </trkpt>
      <trkpt lat="42.91906" lon="0.87836">
        <ele>853</ele>
        <time>2018-12-02T15:30:22.000Z</time>
      </trkpt>
      <trkpt lat="42.91905" lon="0.87839">
        <ele>853</ele>
        <time>2018-12-02T15:30:24.000Z</time>
      </trkpt>
      <trkpt lat="42.91905" lon="0.87842">
        <ele>852</ele>
        <time>2018-12-02T15:30:26.000Z</time>
      </trkpt>
      <trkpt lat="42.91905" lon="0.87844">
        <ele>852</ele>
        <time>2018-12-02T15:30:28.000Z</time>
      </trkpt>
      <trkpt lat="42.91905" lon="0.87846">
        <ele>852</ele>
        <time>2018-12-02T15:30:30.000Z</time>
      </trkpt>
      <trkpt lat="42.91906" lon="0.87848">
        <ele>852</ele>
        <time>2018-12-02T15:30:32.000Z</time>
      </trkpt>
      <trkpt lat="42.91906" lon="0.87851">
        <ele>852</ele>
        <time>2018-12-02T15:30:34.000Z</time>
      </trkpt>
      <trkpt lat="42.91907" lon="0.87852">
        <ele>852</ele>
        <time>2018-12-02T15:30:36.000Z</time>
      </trkpt>
      <trkpt lat="42.91907" lon="0.87855">
        <ele>852</ele>
        <time>2018-12-02T15:30:38.000Z</time>
      </trkpt>
      <trkpt lat="42.91908" lon="0.87857">
        <ele>852</ele>
        <time>2018-12-02T15:30:40.000Z</time>
      </trkpt>
      <trkpt lat="42.91908" lon="0.87859">
        <ele>852</ele>
        <time>2018-12-02T15:30:42.000Z</time>
      </trkpt>
      <trkpt lat="42.91909" lon="0.87862">
        <ele>852</ele>
        <time>2018-12-02T15:30:44.000Z</time>
      </trkpt>
      <trkpt lat="42.91909" lon="0.87864">
        <ele>852</ele>
        <time>2018-12-02T15:30:46.000Z</time>
      </trkpt>
      <trkpt lat="42.91911" lon="0.87866">
        <ele>853</ele>
        <time>2018-12-02T15:30:48.000Z</time>
      </trkpt>
      <trkpt lat="42.91912" lon="0.8787">
        <ele>853</ele>
        <time>2018-12-02T15:30:50.000Z</time>
      </trkpt>
      <trkpt lat="42.91914" lon="0.87873">
        <ele>853</ele>
        <time>2018-12-02T15:30:52.000Z</time>
      </trkpt>
      <trkpt lat="42.91915" lon="0.87876">
        <ele>853</ele>
        <time>2018-12-02T15:30:54.000Z</time>
      </trkpt>
      <trkpt lat="42.91918" lon="0.87878">
        <ele>854</ele>
        <time>2018-12-02T15:30:56.000Z</time>
      </trkpt>
      <trkpt lat="42.91919" lon="0.87881">
        <ele>854</ele>
        <time>2018-12-02T15:30:58.000Z</time>
      </trkpt>
      <trkpt lat="42.9192" lon="0.87883">
        <ele>854</ele>
        <time>2018-12-02T15:31:00.000Z</time>
      </trkpt>
      <trkpt lat="42.91922" lon="0.87886">
        <ele>855</ele>
        <time>2018-12-02T15:31:02.000Z</time>
      </trkpt>
      <trkpt lat="42.91923" lon="0.87889">
        <ele>855</ele>
        <time>2018-12-02T15:31:04.000Z</time>
      </trkpt>
      <trkpt lat="42.91925" lon="0.87891">
        <ele>855</ele>
        <time>2018-12-02T15:31:06.000Z</time>
      </trkpt>
      <trkpt lat="42.91926" lon="0.87894">
        <ele>855</ele>
        <time>2018-12-02T15:31:08.000Z</time>
      </trkpt>
      <trkpt lat="42.91927" lon="0.87897">
        <ele>855</ele>
        <time>2018-12-02T15:31:10.000Z</time>
      </trkpt>
      <trkpt lat="42.91928" lon="0.87899">
        <ele>855</ele>
        <time>2018-12-02T15:31:12.000Z</time>
      </trkpt>
      <trkpt lat="42.9193" lon="0.87901">
        <ele>855</ele>
        <time>2018-12-02T15:31:14.000Z</time>
      </trkpt>
      <trkpt lat="42.91931" lon="0.87904">
        <ele>854</ele>
        <time>2018-12-02T15:31:16.000Z</time>
      </trkpt>
      <trkpt lat="42.91932" lon="0.87905">
        <ele>854</ele>
        <time>2018-12-02T15:31:18.000Z</time>
      </trkpt>
      <trkpt lat="42.91933" lon="0.87907">
        <ele>854</ele>
        <time>2018-12-02T15:31:20.000Z</time>
      </trkpt>
      <trkpt lat="42.91934" lon="0.87908">
        <ele>854</ele>
        <time>2018-12-02T15:31:22.000Z</time>
      </trkpt>
      <trkpt lat="42.91935" lon="0.8791">
        <ele>854</ele>
        <time>2018-12-02T15:31:24.000Z</time>
      </trkpt>
      <trkpt lat="42.91936" lon="0.87912">
        <ele>854</ele>
        <time>2018-12-02T15:31:26.000Z</time>
      </trkpt>
      <trkpt lat="42.91938" lon="0.87915">
        <ele>854</ele>
        <time>2018-12-02T15:31:28.000Z</time>
      </trkpt>
      <trkpt lat="42.91939" lon="0.87917">
        <ele>854</ele>
        <time>2018-12-02T15:31:30.000Z</time>
      </trkpt>
      <trkpt lat="42.91941" lon="0.87918">
        <ele>854</ele>
        <time>2018-12-02T15:31:32.000Z</time>
      </trkpt>
      <trkpt lat="42.91943" lon="0.87919">
        <ele>854</ele>
        <time>2018-12-02T15:31:34.000Z</time>
      </trkpt>
      <trkpt lat="42.91945" lon="0.87921">
        <ele>854</ele>
        <time>2018-12-02T15:31:36.000Z</time>
      </trkpt>
      <trkpt lat="42.91946" lon="0.87923">
        <ele>854</ele>
        <time>2018-12-02T15:31:38.000Z</time>
      </trkpt>
      <trkpt lat="42.91949" lon="0.87925">
        <ele>854</ele>
        <time>2018-12-02T15:31:40.000Z</time>
      </trkpt>
      <trkpt lat="42.9195" lon="0.87927">
        <ele>854</ele>
        <time>2018-12-02T15:31:42.000Z</time>
      </trkpt>
      <trkpt lat="42.91952" lon="0.87929">
        <ele>854</ele>
        <time>2018-12-02T15:31:44.000Z</time>
      </trkpt>
      <trkpt lat="42.91953" lon="0.87931">
        <ele>854</ele>
        <time>2018-12-02T15:31:46.000Z</time>
      </trkpt>
      <trkpt lat="42.91955" lon="0.87933">
        <ele>854</ele>
        <time>2018-12-02T15:31:48.000Z</time>
      </trkpt>
      <trkpt lat="42.91957" lon="0.87934">
        <ele>854</ele>
        <time>2018-12-02T15:31:50.000Z</time>
      </trkpt>
      <trkpt lat="42.91959" lon="0.87936">
        <ele>854</ele>
        <time>2018-12-02T15:31:52.000Z</time>
      </trkpt>
      <trkpt lat="42.91961" lon="0.87937">
        <ele>855</ele>
        <time>2018-12-02T15:31:54.000Z</time>
      </trkpt>
      <trkpt lat="42.91963" lon="0.87938">
        <ele>855</ele>
        <time>2018-12-02T15:31:56.000Z</time>
      </trkpt>
      <trkpt lat="42.91965" lon="0.87939">
        <ele>855</ele>
        <time>2018-12-02T15:31:58.000Z</time>
      </trkpt>
      <trkpt lat="42.91966" lon="0.87939">
        <ele>855</ele>
        <time>2018-12-02T15:32:00.000Z</time>
      </trkpt>
      <trkpt lat="42.91967" lon="0.8794">
        <ele>855</ele>
        <time>2018-12-02T15:32:02.000Z</time>
      </trkpt>
      <trkpt lat="42.91969" lon="0.8794">
        <ele>855</ele>
        <time>2018-12-02T15:32:04.000Z</time>
      </trkpt>
      <trkpt lat="42.91971" lon="0.8794">
        <ele>855</ele>
        <time>2018-12-02T15:32:06.000Z</time>
      </trkpt>
      <trkpt lat="42.91973" lon="0.8794">
        <ele>855</ele>
        <time>2018-12-02T15:32:08.000Z</time>
      </trkpt>
      <trkpt lat="42.91975" lon="0.8794">
        <ele>856</ele>
        <time>2018-12-02T15:32:10.000Z</time>
      </trkpt>
      <trkpt lat="42.91977" lon="0.87941">
        <ele>856</ele>
        <time>2018-12-02T15:32:12.000Z</time>
      </trkpt>
      <trkpt lat="42.91979" lon="0.87942">
        <ele>856</ele>
        <time>2018-12-02T15:32:14.000Z</time>
      </trkpt>
      <trkpt lat="42.9198" lon="0.87943">
        <ele>856</ele>
        <time>2018-12-02T15:32:16.000Z</time>
      </trkpt>
      <trkpt lat="42.91982" lon="0.87944">
        <ele>856</ele>
        <time>2018-12-02T15:32:18.000Z</time>
      </trkpt>
      <trkpt lat="42.91984" lon="0.87945">
        <ele>856</ele>
        <time>2018-12-02T15:32:20.000Z</time>
      </trkpt>
      <trkpt lat="42.91986" lon="0.87947">
        <ele>856</ele>
        <time>2018-12-02T15:32:22.000Z</time>
      </trkpt>
      <trkpt lat="42.91988" lon="0.87949">
        <ele>856</ele>
        <time>2018-12-02T15:32:24.000Z</time>
      </trkpt>
      <trkpt lat="42.91989" lon="0.8795">
        <ele>856</ele>
        <time>2018-12-02T15:32:26.000Z</time>
      </trkpt>
      <trkpt lat="42.9199" lon="0.87952">
        <ele>856</ele>
        <time>2018-12-02T15:32:28.000Z</time>
      </trkpt>
      <trkpt lat="42.91992" lon="0.87954">
        <ele>856</ele>
        <time>2018-12-02T15:32:30.000Z</time>
      </trkpt>
      <trkpt lat="42.91994" lon="0.87956">
        <ele>856</ele>
        <time>2018-12-02T15:32:32.000Z</time>
      </trkpt>
      <trkpt lat="42.91996" lon="0.87958">
        <ele>856</ele>
        <time>2018-12-02T15:32:34.000Z</time>
      </trkpt>
      <trkpt lat="42.91998" lon="0.8796">
        <ele>856</ele>
        <time>2018-12-02T15:32:36.000Z</time>
      </trkpt>
      <trkpt lat="42.91999" lon="0.87962">
        <ele>856</ele>
        <time>2018-12-02T15:32:38.000Z</time>
      </trkpt>
      <trkpt lat="42.92001" lon="0.87963">
        <ele>856</ele>
        <time>2018-12-02T15:32:40.000Z</time>
      </trkpt>
      <trkpt lat="42.92003" lon="0.87964">
        <ele>857</ele>
        <time>2018-12-02T15:32:42.000Z</time>
      </trkpt>
      <trkpt lat="42.92004" lon="0.87965">
        <ele>857</ele>
        <time>2018-12-02T15:32:44.000Z</time>
      </trkpt>
      <trkpt lat="42.92006" lon="0.87966">
        <ele>857</ele>
        <time>2018-12-02T15:32:46.000Z</time>
      </trkpt>
      <trkpt lat="42.92007" lon="0.87967">
        <ele>857</ele>
        <time>2018-12-02T15:32:48.000Z</time>
      </trkpt>
      <trkpt lat="42.92009" lon="0.87968">
        <ele>857</ele>
        <time>2018-12-02T15:32:50.000Z</time>
      </trkpt>
      <trkpt lat="42.9201" lon="0.87969">
        <ele>857</ele>
        <time>2018-12-02T15:32:52.000Z</time>
      </trkpt>
      <trkpt lat="42.92011" lon="0.87971">
        <ele>857</ele>
        <time>2018-12-02T15:32:54.000Z</time>
      </trkpt>
      <trkpt lat="42.92012" lon="0.87973">
        <ele>857</ele>
        <time>2018-12-02T15:32:56.000Z</time>
      </trkpt>
      <trkpt lat="42.92014" lon="0.87975">
        <ele>857</ele>
        <time>2018-12-02T15:32:58.000Z</time>
      </trkpt>
      <trkpt lat="42.92015" lon="0.87975">
        <ele>857</ele>
        <time>2018-12-02T15:33:00.000Z</time>
      </trkpt>
      <trkpt lat="42.92015" lon="0.87976">
        <ele>857</ele>
        <time>2018-12-02T15:33:02.000Z</time>
      </trkpt>
      <trkpt lat="42.92017" lon="0.87975">
        <ele>857</ele>
        <time>2018-12-02T15:33:04.000Z</time>
      </trkpt>
      <trkpt lat="42.92018" lon="0.87975">
        <ele>857</ele>
        <time>2018-12-02T15:33:06.000Z</time>
      </trkpt>
      <trkpt lat="42.9202" lon="0.87976">
        <ele>858</ele>
        <time>2018-12-02T15:33:08.000Z</time>
      </trkpt>
      <trkpt lat="42.9202" lon="0.87976">
        <ele>858</ele>
        <time>2018-12-02T15:33:10.000Z</time>
      </trkpt>
      <trkpt lat="42.9202" lon="0.87976">
        <ele>858</ele>
        <time>2018-12-02T15:33:12.000Z</time>
      </trkpt>
      <trkpt lat="42.92022" lon="0.87977">
        <ele>858</ele>
        <time>2018-12-02T15:33:14.000Z</time>
      </trkpt>
      <trkpt lat="42.92023" lon="0.87979">
        <ele>858</ele>
        <time>2018-12-02T15:33:16.000Z</time>
      </trkpt>
      <trkpt lat="42.92025" lon="0.87981">
        <ele>858</ele>
        <time>2018-12-02T15:33:18.000Z</time>
      </trkpt>
      <trkpt lat="42.92026" lon="0.87982">
        <ele>858</ele>
        <time>2018-12-02T15:33:20.000Z</time>
      </trkpt>
      <trkpt lat="42.92028" lon="0.87985">
        <ele>858</ele>
        <time>2018-12-02T15:33:22.000Z</time>
      </trkpt>
      <trkpt lat="42.92029" lon="0.87986">
        <ele>858</ele>
        <time>2018-12-02T15:33:24.000Z</time>
      </trkpt>
      <trkpt lat="42.9203" lon="0.87988">
        <ele>858</ele>
        <time>2018-12-02T15:33:26.000Z</time>
      </trkpt>
      <trkpt lat="42.92032" lon="0.8799">
        <ele>858</ele>
        <time>2018-12-02T15:33:28.000Z</time>
      </trkpt>
      <trkpt lat="42.92033" lon="0.87991">
        <ele>858</ele>
        <time>2018-12-02T15:33:30.000Z</time>
      </trkpt>
      <trkpt lat="42.92035" lon="0.87993">
        <ele>859</ele>
        <time>2018-12-02T15:33:32.000Z</time>
      </trkpt>
      <trkpt lat="42.92036" lon="0.87994">
        <ele>859</ele>
        <time>2018-12-02T15:33:34.000Z</time>
      </trkpt>
      <trkpt lat="42.92037" lon="0.87994">
        <ele>859</ele>
        <time>2018-12-02T15:33:36.000Z</time>
      </trkpt>
      <trkpt lat="42.92038" lon="0.87994">
        <ele>859</ele>
        <time>2018-12-02T15:33:38.000Z</time>
      </trkpt>
      <trkpt lat="42.92039" lon="0.87994">
        <ele>859</ele>
        <time>2018-12-02T15:33:40.000Z</time>
      </trkpt>
      <trkpt lat="42.92041" lon="0.87994">
        <ele>859</ele>
        <time>2018-12-02T15:33:42.000Z</time>
      </trkpt>
      <trkpt lat="42.92042" lon="0.87994">
        <ele>860</ele>
        <time>2018-12-02T15:33:44.000Z</time>
      </trkpt>
      <trkpt lat="42.92044" lon="0.87994">
        <ele>860</ele>
        <time>2018-12-02T15:33:46.000Z</time>
      </trkpt>
      <trkpt lat="42.92046" lon="0.87993">
        <ele>860</ele>
        <time>2018-12-02T15:33:48.000Z</time>
      </trkpt>
      <trkpt lat="42.92047" lon="0.87993">
        <ele>860</ele>
        <time>2018-12-02T15:33:50.000Z</time>
      </trkpt>
      <trkpt lat="42.92049" lon="0.87993">
        <ele>861</ele>
        <time>2018-12-02T15:33:52.000Z</time>
      </trkpt>
      <trkpt lat="42.9205" lon="0.87993">
        <ele>861</ele>
        <time>2018-12-02T15:33:54.000Z</time>
      </trkpt>
      <trkpt lat="42.92052" lon="0.87992">
        <ele>861</ele>
        <time>2018-12-02T15:33:56.000Z</time>
      </trkpt>
      <trkpt lat="42.92053" lon="0.87992">
        <ele>861</ele>
        <time>2018-12-02T15:33:58.000Z</time>
      </trkpt>
      <trkpt lat="42.92054" lon="0.87992">
        <ele>861</ele>
        <time>2018-12-02T15:34:00.000Z</time>
      </trkpt>
      <trkpt lat="42.92056" lon="0.87991">
        <ele>862</ele>
        <time>2018-12-02T15:34:02.000Z</time>
      </trkpt>
      <trkpt lat="42.92058" lon="0.87991">
        <ele>862</ele>
        <time>2018-12-02T15:34:04.000Z</time>
      </trkpt>
      <trkpt lat="42.92059" lon="0.87991">
        <ele>862</ele>
        <time>2018-12-02T15:34:06.000Z</time>
      </trkpt>
      <trkpt lat="42.9206" lon="0.8799">
        <ele>862</ele>
        <time>2018-12-02T15:34:08.000Z</time>
      </trkpt>
      <trkpt lat="42.92061" lon="0.8799">
        <ele>863</ele>
        <time>2018-12-02T15:34:10.000Z</time>
      </trkpt>
      <trkpt lat="42.92064" lon="0.87992">
        <ele>863</ele>
        <time>2018-12-02T15:34:12.000Z</time>
      </trkpt>
      <trkpt lat="42.92066" lon="0.87992">
        <ele>863</ele>
        <time>2018-12-02T15:34:14.000Z</time>
      </trkpt>
      <trkpt lat="42.92067" lon="0.87992">
        <ele>863</ele>
        <time>2018-12-02T15:34:16.000Z</time>
      </trkpt>
      <trkpt lat="42.92068" lon="0.87991">
        <ele>863</ele>
        <time>2018-12-02T15:34:18.000Z</time>
      </trkpt>
      <trkpt lat="42.9207" lon="0.87991">
        <ele>864</ele>
        <time>2018-12-02T15:34:20.000Z</time>
      </trkpt>
      <trkpt lat="42.9207" lon="0.87991">
        <ele>864</ele>
        <time>2018-12-02T15:34:22.000Z</time>
      </trkpt>
      <trkpt lat="42.92071" lon="0.87991">
        <ele>864</ele>
        <time>2018-12-02T15:34:24.000Z</time>
      </trkpt>
      <trkpt lat="42.92073" lon="0.8799">
        <ele>864</ele>
        <time>2018-12-02T15:34:26.000Z</time>
      </trkpt>
      <trkpt lat="42.92074" lon="0.8799">
        <ele>864</ele>
        <time>2018-12-02T15:34:28.000Z</time>
      </trkpt>
      <trkpt lat="42.92075" lon="0.87989">
        <ele>865</ele>
        <time>2018-12-02T15:34:30.000Z</time>
      </trkpt>
      <trkpt lat="42.92077" lon="0.8799">
        <ele>865</ele>
        <time>2018-12-02T15:34:32.000Z</time>
      </trkpt>
      <trkpt lat="42.92079" lon="0.8799">
        <ele>865</ele>
        <time>2018-12-02T15:34:34.000Z</time>
      </trkpt>
      <trkpt lat="42.9208" lon="0.87991">
        <ele>865</ele>
        <time>2018-12-02T15:34:36.000Z</time>
      </trkpt>
      <trkpt lat="42.92082" lon="0.8799">
        <ele>865</ele>
        <time>2018-12-02T15:34:38.000Z</time>
      </trkpt>
      <trkpt lat="42.92083" lon="0.8799">
        <ele>866</ele>
        <time>2018-12-02T15:34:40.000Z</time>
      </trkpt>
      <trkpt lat="42.92085" lon="0.87989">
        <ele>866</ele>
        <time>2018-12-02T15:34:42.000Z</time>
      </trkpt>
      <trkpt lat="42.92086" lon="0.87989">
        <ele>866</ele>
        <time>2018-12-02T15:34:44.000Z</time>
      </trkpt>
      <trkpt lat="42.92088" lon="0.87988">
        <ele>867</ele>
        <time>2018-12-02T15:34:46.000Z</time>
      </trkpt>
      <trkpt lat="42.92089" lon="0.87989">
        <ele>867</ele>
        <time>2018-12-02T15:34:48.000Z</time>
      </trkpt>
      <trkpt lat="42.92091" lon="0.87988">
        <ele>867</ele>
        <time>2018-12-02T15:34:50.000Z</time>
      </trkpt>
      <trkpt lat="42.92092" lon="0.87988">
        <ele>867</ele>
        <time>2018-12-02T15:34:52.000Z</time>
      </trkpt>
      <trkpt lat="42.92094" lon="0.87988">
        <ele>868</ele>
        <time>2018-12-02T15:34:54.000Z</time>
      </trkpt>
      <trkpt lat="42.92096" lon="0.87988">
        <ele>868</ele>
        <time>2018-12-02T15:34:56.000Z</time>
      </trkpt>
      <trkpt lat="42.92098" lon="0.87988">
        <ele>868</ele>
        <time>2018-12-02T15:34:58.000Z</time>
      </trkpt>
      <trkpt lat="42.92099" lon="0.87988">
        <ele>869</ele>
        <time>2018-12-02T15:35:00.000Z</time>
      </trkpt>
      <trkpt lat="42.921" lon="0.87988">
        <ele>869</ele>
        <time>2018-12-02T15:35:02.000Z</time>
      </trkpt>
      <trkpt lat="42.92102" lon="0.87988">
        <ele>869</ele>
        <time>2018-12-02T15:35:04.000Z</time>
      </trkpt>
      <trkpt lat="42.92104" lon="0.87988">
        <ele>869</ele>
        <time>2018-12-02T15:35:06.000Z</time>
      </trkpt>
      <trkpt lat="42.92105" lon="0.87988">
        <ele>870</ele>
        <time>2018-12-02T15:35:08.000Z</time>
      </trkpt>
      <trkpt lat="42.92107" lon="0.87988">
        <ele>870</ele>
        <time>2018-12-02T15:35:10.000Z</time>
      </trkpt>
      <trkpt lat="42.92109" lon="0.87988">
        <ele>870</ele>
        <time>2018-12-02T15:35:12.000Z</time>
      </trkpt>
      <trkpt lat="42.9211" lon="0.87988">
        <ele>871</ele>
        <time>2018-12-02T15:35:14.000Z</time>
      </trkpt>
      <trkpt lat="42.92111" lon="0.87988">
        <ele>871</ele>
        <time>2018-12-02T15:35:16.000Z</time>
      </trkpt>
      <trkpt lat="42.92111" lon="0.87987">
        <ele>871</ele>
        <time>2018-12-02T15:35:18.000Z</time>
      </trkpt>
      <trkpt lat="42.92113" lon="0.87988">
        <ele>871</ele>
        <time>2018-12-02T15:35:20.000Z</time>
      </trkpt>
      <trkpt lat="42.92114" lon="0.87989">
        <ele>871</ele>
        <time>2018-12-02T15:35:22.000Z</time>
      </trkpt>
      <trkpt lat="42.92115" lon="0.87988">
        <ele>872</ele>
        <time>2018-12-02T15:35:24.000Z</time>
      </trkpt>
      <trkpt lat="42.92116" lon="0.87988">
        <ele>872</ele>
        <time>2018-12-02T15:35:26.000Z</time>
      </trkpt>
      <trkpt lat="42.92117" lon="0.8799">
        <ele>872</ele>
        <time>2018-12-02T15:35:28.000Z</time>
      </trkpt>
      <trkpt lat="42.92118" lon="0.87992">
        <ele>872</ele>
        <time>2018-12-02T15:35:30.000Z</time>
      </trkpt>
      <trkpt lat="42.92119" lon="0.87993">
        <ele>872</ele>
        <time>2018-12-02T15:35:32.000Z</time>
      </trkpt>
      <trkpt lat="42.9212" lon="0.87993">
        <ele>872</ele>
        <time>2018-12-02T15:35:34.000Z</time>
      </trkpt>
      <trkpt lat="42.92119" lon="0.87994">
        <ele>872</ele>
        <time>2018-12-02T15:35:36.000Z</time>
      </trkpt>
      <trkpt lat="42.92119" lon="0.87994">
        <ele>872</ele>
        <time>2018-12-02T15:35:38.000Z</time>
      </trkpt>
      <trkpt lat="42.9212" lon="0.87992">
        <ele>872</ele>
        <time>2018-12-02T15:35:40.000Z</time>
      </trkpt>
      <trkpt lat="42.92121" lon="0.87991">
        <ele>873</ele>
        <time>2018-12-02T15:35:42.000Z</time>
      </trkpt>
      <trkpt lat="42.92122" lon="0.8799">
        <ele>873</ele>
        <time>2018-12-02T15:35:44.000Z</time>
      </trkpt>
      <trkpt lat="42.92122" lon="0.87988">
        <ele>873</ele>
        <time>2018-12-02T15:35:46.000Z</time>
      </trkpt>
      <trkpt lat="42.92122" lon="0.87985">
        <ele>873</ele>
        <time>2018-12-02T15:35:48.000Z</time>
      </trkpt>
      <trkpt lat="42.92123" lon="0.87984">
        <ele>874</ele>
        <time>2018-12-02T15:35:50.000Z</time>
      </trkpt>
      <trkpt lat="42.92124" lon="0.87982">
        <ele>874</ele>
        <time>2018-12-02T15:35:52.000Z</time>
      </trkpt>
      <trkpt lat="42.92125" lon="0.8798">
        <ele>874</ele>
        <time>2018-12-02T15:35:54.000Z</time>
      </trkpt>
      <trkpt lat="42.92126" lon="0.87978">
        <ele>874</ele>
        <time>2018-12-02T15:35:56.000Z</time>
      </trkpt>
      <trkpt lat="42.92127" lon="0.87975">
        <ele>875</ele>
        <time>2018-12-02T15:35:58.000Z</time>
      </trkpt>
      <trkpt lat="42.92128" lon="0.87974">
        <ele>875</ele>
        <time>2018-12-02T15:36:00.000Z</time>
      </trkpt>
      <trkpt lat="42.92129" lon="0.87971">
        <ele>875</ele>
        <time>2018-12-02T15:36:02.000Z</time>
      </trkpt>
      <trkpt lat="42.9213" lon="0.8797">
        <ele>876</ele>
        <time>2018-12-02T15:36:04.000Z</time>
      </trkpt>
      <trkpt lat="42.92132" lon="0.87968">
        <ele>876</ele>
        <time>2018-12-02T15:36:06.000Z</time>
      </trkpt>
      <trkpt lat="42.92133" lon="0.87967">
        <ele>876</ele>
        <time>2018-12-02T15:36:08.000Z</time>
      </trkpt>
      <trkpt lat="42.92134" lon="0.87966">
        <ele>877</ele>
        <time>2018-12-02T15:36:10.000Z</time>
      </trkpt>
      <trkpt lat="42.92136" lon="0.87965">
        <ele>877</ele>
        <time>2018-12-02T15:36:12.000Z</time>
      </trkpt>
      <trkpt lat="42.92137" lon="0.87964">
        <ele>877</ele>
        <time>2018-12-02T15:36:14.000Z</time>
      </trkpt>
      <trkpt lat="42.92139" lon="0.87963">
        <ele>878</ele>
        <time>2018-12-02T15:36:16.000Z</time>
      </trkpt>
      <trkpt lat="42.9214" lon="0.87962">
        <ele>878</ele>
        <time>2018-12-02T15:36:18.000Z</time>
      </trkpt>
      <trkpt lat="42.92141" lon="0.87961">
        <ele>878</ele>
        <time>2018-12-02T15:36:20.000Z</time>
      </trkpt>
      <trkpt lat="42.92142" lon="0.87959">
        <ele>878</ele>
        <time>2018-12-02T15:36:22.000Z</time>
      </trkpt>
      <trkpt lat="42.92143" lon="0.87958">
        <ele>879</ele>
        <time>2018-12-02T15:36:24.000Z</time>
      </trkpt>
      <trkpt lat="42.92143" lon="0.87956">
        <ele>879</ele>
        <time>2018-12-02T15:36:26.000Z</time>
      </trkpt>
      <trkpt lat="42.92144" lon="0.87955">
        <ele>879</ele>
        <time>2018-12-02T15:36:28.000Z</time>
      </trkpt>
      <trkpt lat="42.92145" lon="0.87953">
        <ele>879</ele>
        <time>2018-12-02T15:36:30.000Z</time>
      </trkpt>
      <trkpt lat="42.92146" lon="0.87952">
        <ele>879</ele>
        <time>2018-12-02T15:36:32.000Z</time>
      </trkpt>
      <trkpt lat="42.92147" lon="0.8795">
        <ele>880</ele>
        <time>2018-12-02T15:36:34.000Z</time>
      </trkpt>
      <trkpt lat="42.92148" lon="0.87949">
        <ele>880</ele>
        <time>2018-12-02T15:36:36.000Z</time>
      </trkpt>
      <trkpt lat="42.92148" lon="0.87947">
        <ele>880</ele>
        <time>2018-12-02T15:36:38.000Z</time>
      </trkpt>
      <trkpt lat="42.92149" lon="0.87947">
        <ele>880</ele>
        <time>2018-12-02T15:36:40.000Z</time>
      </trkpt>
      <trkpt lat="42.9215" lon="0.87946">
        <ele>880</ele>
        <time>2018-12-02T15:36:42.000Z</time>
      </trkpt>
      <trkpt lat="42.92151" lon="0.87945">
        <ele>881</ele>
        <time>2018-12-02T15:36:44.000Z</time>
      </trkpt>
      <trkpt lat="42.92152" lon="0.87942">
        <ele>881</ele>
        <time>2018-12-02T15:36:46.000Z</time>
      </trkpt>
      <trkpt lat="42.92153" lon="0.87941">
        <ele>881</ele>
        <time>2018-12-02T15:36:48.000Z</time>
      </trkpt>
      <trkpt lat="42.92153" lon="0.87939">
        <ele>881</ele>
        <time>2018-12-02T15:36:50.000Z</time>
      </trkpt>
      <trkpt lat="42.92153" lon="0.87938">
        <ele>881</ele>
        <time>2018-12-02T15:36:52.000Z</time>
      </trkpt>
      <trkpt lat="42.92153" lon="0.87936">
        <ele>881</ele>
        <time>2018-12-02T15:36:54.000Z</time>
      </trkpt>
      <trkpt lat="42.92153" lon="0.87935">
        <ele>881</ele>
        <time>2018-12-02T15:36:56.000Z</time>
      </trkpt>
      <trkpt lat="42.92154" lon="0.87934">
        <ele>882</ele>
        <time>2018-12-02T15:36:58.000Z</time>
      </trkpt>
      <trkpt lat="42.92154" lon="0.87932">
        <ele>882</ele>
        <time>2018-12-02T15:37:00.000Z</time>
      </trkpt>
      <trkpt lat="42.92153" lon="0.8793">
        <ele>882</ele>
        <time>2018-12-02T15:37:02.000Z</time>
      </trkpt>
      <trkpt lat="42.92153" lon="0.87928">
        <ele>882</ele>
        <time>2018-12-02T15:37:04.000Z</time>
      </trkpt>
      <trkpt lat="42.92154" lon="0.87926">
        <ele>882</ele>
        <time>2018-12-02T15:37:06.000Z</time>
      </trkpt>
      <trkpt lat="42.92154" lon="0.87924">
        <ele>882</ele>
        <time>2018-12-02T15:37:08.000Z</time>
      </trkpt>
      <trkpt lat="42.92155" lon="0.87922">
        <ele>882</ele>
        <time>2018-12-02T15:37:10.000Z</time>
      </trkpt>
      <trkpt lat="42.92156" lon="0.87919">
        <ele>883</ele>
        <time>2018-12-02T15:37:12.000Z</time>
      </trkpt>
      <trkpt lat="42.92156" lon="0.87917">
        <ele>883</ele>
        <time>2018-12-02T15:37:14.000Z</time>
      </trkpt>
      <trkpt lat="42.92156" lon="0.87915">
        <ele>883</ele>
        <time>2018-12-02T15:37:16.000Z</time>
      </trkpt>
      <trkpt lat="42.92157" lon="0.87912">
        <ele>883</ele>
        <time>2018-12-02T15:37:18.000Z</time>
      </trkpt>
      <trkpt lat="42.92158" lon="0.8791">
        <ele>883</ele>
        <time>2018-12-02T15:37:20.000Z</time>
      </trkpt>
      <trkpt lat="42.92158" lon="0.87908">
        <ele>883</ele>
        <time>2018-12-02T15:37:22.000Z</time>
      </trkpt>
      <trkpt lat="42.92159" lon="0.87906">
        <ele>884</ele>
        <time>2018-12-02T15:37:24.000Z</time>
      </trkpt>
      <trkpt lat="42.9216" lon="0.87904">
        <ele>884</ele>
        <time>2018-12-02T15:37:26.000Z</time>
      </trkpt>
      <trkpt lat="42.9216" lon="0.87902">
        <ele>884</ele>
        <time>2018-12-02T15:37:28.000Z</time>
      </trkpt>
      <trkpt lat="42.92161" lon="0.87899">
        <ele>884</ele>
        <time>2018-12-02T15:37:30.000Z</time>
      </trkpt>
      <trkpt lat="42.92162" lon="0.87897">
        <ele>884</ele>
        <time>2018-12-02T15:37:32.000Z</time>
      </trkpt>
      <trkpt lat="42.92164" lon="0.87895">
        <ele>885</ele>
        <time>2018-12-02T15:37:34.000Z</time>
      </trkpt>
      <trkpt lat="42.92165" lon="0.87893">
        <ele>885</ele>
        <time>2018-12-02T15:37:36.000Z</time>
      </trkpt>
      <trkpt lat="42.92166" lon="0.87891">
        <ele>885</ele>
        <time>2018-12-02T15:37:38.000Z</time>
      </trkpt>
      <trkpt lat="42.92167" lon="0.87889">
        <ele>886</ele>
        <time>2018-12-02T15:37:40.000Z</time>
      </trkpt>
      <trkpt lat="42.92168" lon="0.87888">
        <ele>886</ele>
        <time>2018-12-02T15:37:42.000Z</time>
      </trkpt>
      <trkpt lat="42.9217" lon="0.87887">
        <ele>887</ele>
        <time>2018-12-02T15:37:44.000Z</time>
      </trkpt>
      <trkpt lat="42.92171" lon="0.87886">
        <ele>887</ele>
        <time>2018-12-02T15:37:46.000Z</time>
      </trkpt>
      <trkpt lat="42.92172" lon="0.87885">
        <ele>887</ele>
        <time>2018-12-02T15:37:48.000Z</time>
      </trkpt>
      <trkpt lat="42.92174" lon="0.87883">
        <ele>888</ele>
        <time>2018-12-02T15:37:50.000Z</time>
      </trkpt>
      <trkpt lat="42.92174" lon="0.87882">
        <ele>888</ele>
        <time>2018-12-02T15:37:52.000Z</time>
      </trkpt>
      <trkpt lat="42.92176" lon="0.87881">
        <ele>889</ele>
        <time>2018-12-02T15:37:54.000Z</time>
      </trkpt>
      <trkpt lat="42.92177" lon="0.8788">
        <ele>889</ele>
        <time>2018-12-02T15:37:56.000Z</time>
      </trkpt>
      <trkpt lat="42.92178" lon="0.87879">
        <ele>890</ele>
        <time>2018-12-02T15:37:58.000Z</time>
      </trkpt>
      <trkpt lat="42.92178" lon="0.87877">
        <ele>890</ele>
        <time>2018-12-02T15:38:00.000Z</time>
      </trkpt>
      <trkpt lat="42.92179" lon="0.87875">
        <ele>891</ele>
        <time>2018-12-02T15:38:02.000Z</time>
      </trkpt>
      <trkpt lat="42.92179" lon="0.87873">
        <ele>891</ele>
        <time>2018-12-02T15:38:04.000Z</time>
      </trkpt>
      <trkpt lat="42.9218" lon="0.8787">
        <ele>892</ele>
        <time>2018-12-02T15:38:06.000Z</time>
      </trkpt>
      <trkpt lat="42.92181" lon="0.87869">
        <ele>892</ele>
        <time>2018-12-02T15:38:08.000Z</time>
      </trkpt>
      <trkpt lat="42.92181" lon="0.87867">
        <ele>893</ele>
        <time>2018-12-02T15:38:10.000Z</time>
      </trkpt>
      <trkpt lat="42.92182" lon="0.87865">
        <ele>893</ele>
        <time>2018-12-02T15:38:12.000Z</time>
      </trkpt>
      <trkpt lat="42.92183" lon="0.87865">
        <ele>893</ele>
        <time>2018-12-02T15:38:14.000Z</time>
      </trkpt>
      <trkpt lat="42.92184" lon="0.87867">
        <ele>893</ele>
        <time>2018-12-02T15:38:16.000Z</time>
      </trkpt>
      <trkpt lat="42.92185" lon="0.87869">
        <ele>893</ele>
        <time>2018-12-02T15:38:18.000Z</time>
      </trkpt>
      <trkpt lat="42.92186" lon="0.87872">
        <ele>893</ele>
        <time>2018-12-02T15:38:20.000Z</time>
      </trkpt>
      <trkpt lat="42.92186" lon="0.87874">
        <ele>893</ele>
        <time>2018-12-02T15:38:22.000Z</time>
      </trkpt>
      <trkpt lat="42.92187" lon="0.87877">
        <ele>893</ele>
        <time>2018-12-02T15:38:24.000Z</time>
      </trkpt>
      <trkpt lat="42.92186" lon="0.8788">
        <ele>892</ele>
        <time>2018-12-02T15:38:26.000Z</time>
      </trkpt>
      <trkpt lat="42.92186" lon="0.87883">
        <ele>892</ele>
        <time>2018-12-02T15:38:28.000Z</time>
      </trkpt>
      <trkpt lat="42.92186" lon="0.87886">
        <ele>892</ele>
        <time>2018-12-02T15:38:30.000Z</time>
      </trkpt>
      <trkpt lat="42.92186" lon="0.87888">
        <ele>891</ele>
        <time>2018-12-02T15:38:32.000Z</time>
      </trkpt>
      <trkpt lat="42.92186" lon="0.8789">
        <ele>891</ele>
        <time>2018-12-02T15:38:34.000Z</time>
      </trkpt>
      <trkpt lat="42.92186" lon="0.87892">
        <ele>891</ele>
        <time>2018-12-02T15:38:36.000Z</time>
      </trkpt>
      <trkpt lat="42.92187" lon="0.87894">
        <ele>891</ele>
        <time>2018-12-02T15:38:38.000Z</time>
      </trkpt>
      <trkpt lat="42.92187" lon="0.87896">
        <ele>891</ele>
        <time>2018-12-02T15:38:40.000Z</time>
      </trkpt>
      <trkpt lat="42.92189" lon="0.87897">
        <ele>891</ele>
        <time>2018-12-02T15:38:42.000Z</time>
      </trkpt>
      <trkpt lat="42.92188" lon="0.87897">
        <ele>891</ele>
        <time>2018-12-02T15:38:44.000Z</time>
      </trkpt>
      <trkpt lat="42.92188" lon="0.87897">
        <ele>891</ele>
        <time>2018-12-02T15:38:46.000Z</time>
      </trkpt>
      <trkpt lat="42.92188" lon="0.87897">
        <ele>891</ele>
        <time>2018-12-02T15:38:48.000Z</time>
      </trkpt>
      <trkpt lat="42.92187" lon="0.87897">
        <ele>891</ele>
        <time>2018-12-02T15:38:50.000Z</time>
      </trkpt>
      <trkpt lat="42.92186" lon="0.87897">
        <ele>890</ele>
        <time>2018-12-02T15:38:52.000Z</time>
      </trkpt>
      <trkpt lat="42.92185" lon="0.87896">
        <ele>890</ele>
        <time>2018-12-02T15:38:54.000Z</time>
      </trkpt>
      <trkpt lat="42.92185" lon="0.87895">
        <ele>890</ele>
        <time>2018-12-02T15:38:56.000Z</time>
      </trkpt>
      <trkpt lat="42.92184" lon="0.87895">
        <ele>890</ele>
        <time>2018-12-02T15:38:58.000Z</time>
      </trkpt>
      <trkpt lat="42.92184" lon="0.87894">
        <ele>890</ele>
        <time>2018-12-02T15:39:00.000Z</time>
      </trkpt>
      <trkpt lat="42.92184" lon="0.87894">
        <ele>890</ele>
        <time>2018-12-02T15:39:02.000Z</time>
      </trkpt>
      <trkpt lat="42.92184" lon="0.87894">
        <ele>890</ele>
        <time>2018-12-02T15:39:04.000Z</time>
      </trkpt>
      <trkpt lat="42.92184" lon="0.87894">
        <ele>890</ele>
        <time>2018-12-02T15:39:06.000Z</time>
      </trkpt>
      <trkpt lat="42.92182" lon="0.87894">
        <ele>889</ele>
        <time>2018-12-02T15:39:08.000Z</time>
      </trkpt>
      <trkpt lat="42.92181" lon="0.87894">
        <ele>889</ele>
        <time>2018-12-02T15:39:10.000Z</time>
      </trkpt>
      <trkpt lat="42.92181" lon="0.87894">
        <ele>889</ele>
        <time>2018-12-02T15:39:12.000Z</time>
      </trkpt>
      <trkpt lat="42.9218" lon="0.87894">
        <ele>889</ele>
        <time>2018-12-02T15:39:14.000Z</time>
      </trkpt>
      <trkpt lat="42.9218" lon="0.87894">
        <ele>889</ele>
        <time>2018-12-02T15:39:16.000Z</time>
      </trkpt>
      <trkpt lat="42.9218" lon="0.87893">
        <ele>889</ele>
        <time>2018-12-02T15:39:18.000Z</time>
      </trkpt>
      <trkpt lat="42.92181" lon="0.87893">
        <ele>889</ele>
        <time>2018-12-02T15:39:20.000Z</time>
      </trkpt>
      <trkpt lat="42.92181" lon="0.87893">
        <ele>889</ele>
        <time>2018-12-02T15:39:22.000Z</time>
      </trkpt>
      <trkpt lat="42.9218" lon="0.87893">
        <ele>889</ele>
        <time>2018-12-02T15:39:24.000Z</time>
      </trkpt>
      <trkpt lat="42.9218" lon="0.87893">
        <ele>889</ele>
        <time>2018-12-02T15:39:26.000Z</time>
      </trkpt>
      <trkpt lat="42.92181" lon="0.87893">
        <ele>889</ele>
        <time>2018-12-02T15:39:28.000Z</time>
      </trkpt>
      <trkpt lat="42.92181" lon="0.87894">
        <ele>889</ele>
        <time>2018-12-02T15:39:30.000Z</time>
      </trkpt>
      <trkpt lat="42.92181" lon="0.87894">
        <ele>889</ele>
        <time>2018-12-02T15:39:32.000Z</time>
      </trkpt>
      <trkpt lat="42.92181" lon="0.87894">
        <ele>889</ele>
        <time>2018-12-02T15:39:34.000Z</time>
      </trkpt>
      <trkpt lat="42.92183" lon="0.87895">
        <ele>890</ele>
        <time>2018-12-02T15:39:36.000Z</time>
      </trkpt>
      <trkpt lat="42.92183" lon="0.87895">
        <ele>890</ele>
        <time>2018-12-02T15:39:38.000Z</time>
      </trkpt>
      <trkpt lat="42.92184" lon="0.87895">
        <ele>890</ele>
        <time>2018-12-02T15:39:40.000Z</time>
      </trkpt>
      <trkpt lat="42.92184" lon="0.87895">
        <ele>890</ele>
        <time>2018-12-02T15:39:42.000Z</time>
      </trkpt>
      <trkpt lat="42.92184" lon="0.87895">
        <ele>890</ele>
        <time>2018-12-02T15:39:44.000Z</time>
      </trkpt>
      <trkpt lat="42.92184" lon="0.87895">
        <ele>890</ele>
        <time>2018-12-02T15:39:46.000Z</time>
      </trkpt>
      <trkpt lat="42.92184" lon="0.87896">
        <ele>890</ele>
        <time>2018-12-02T15:39:48.000Z</time>
      </trkpt>
      <trkpt lat="42.92184" lon="0.87896">
        <ele>890</ele>
        <time>2018-12-02T15:39:50.000Z</time>
      </trkpt>
      <trkpt lat="42.92184" lon="0.87896">
        <ele>890</ele>
        <time>2018-12-02T15:39:52.000Z</time>
      </trkpt>
      <trkpt lat="42.92185" lon="0.87895">
        <ele>890</ele>
        <time>2018-12-02T15:39:54.000Z</time>
      </trkpt>
      <trkpt lat="42.92185" lon="0.87895">
        <ele>890</ele>
        <time>2018-12-02T15:39:56.000Z</time>
      </trkpt>
      <trkpt lat="42.92184" lon="0.87895">
        <ele>890</ele>
        <time>2018-12-02T15:39:58.000Z</time>
      </trkpt>
      <trkpt lat="42.92184" lon="0.87895">
        <ele>890</ele>
        <time>2018-12-02T15:40:00.000Z</time>
      </trkpt>
      <trkpt lat="42.92185" lon="0.87895">
        <ele>890</ele>
        <time>2018-12-02T15:40:02.000Z</time>
      </trkpt>
      <trkpt lat="42.92185" lon="0.87895">
        <ele>890</ele>
        <time>2018-12-02T15:40:04.000Z</time>
      </trkpt>
      <trkpt lat="42.92184" lon="0.87894">
        <ele>890</ele>
        <time>2018-12-02T15:40:06.000Z</time>
      </trkpt>
      <trkpt lat="42.92184" lon="0.87894">
        <ele>890</ele>
        <time>2018-12-02T15:40:08.000Z</time>
      </trkpt>
      <trkpt lat="42.92184" lon="0.87894">
        <ele>890</ele>
        <time>2018-12-02T15:40:10.000Z</time>
      </trkpt>
      <trkpt lat="42.92185" lon="0.87894">
        <ele>890</ele>
        <time>2018-12-02T15:40:12.000Z</time>
      </trkpt>
      <trkpt lat="42.92185" lon="0.87894">
        <ele>890</ele>
        <time>2018-12-02T15:40:14.000Z</time>
      </trkpt>
      <trkpt lat="42.92186" lon="0.87894">
        <ele>890</ele>
        <time>2018-12-02T15:40:16.000Z</time>
      </trkpt>
      <trkpt lat="42.92186" lon="0.87894">
        <ele>891</ele>
        <time>2018-12-02T15:40:18.000Z</time>
      </trkpt>
      <trkpt lat="42.92185" lon="0.87894">
        <ele>890</ele>
        <time>2018-12-02T15:40:20.000Z</time>
      </trkpt>
      <trkpt lat="42.92186" lon="0.87893">
        <ele>891</ele>
        <time>2018-12-02T15:40:22.000Z</time>
      </trkpt>
      <trkpt lat="42.92186" lon="0.87893">
        <ele>891</ele>
        <time>2018-12-02T15:40:24.000Z</time>
      </trkpt>
      <trkpt lat="42.92186" lon="0.87892">
        <ele>891</ele>
        <time>2018-12-02T15:40:26.000Z</time>
      </trkpt>
      <trkpt lat="42.92186" lon="0.87893">
        <ele>891</ele>
        <time>2018-12-02T15:40:28.000Z</time>
      </trkpt>
      <trkpt lat="42.92186" lon="0.87893">
        <ele>891</ele>
        <time>2018-12-02T15:40:30.000Z</time>
      </trkpt>
      <trkpt lat="42.92186" lon="0.87894">
        <ele>891</ele>
        <time>2018-12-02T15:40:32.000Z</time>
      </trkpt>
      <trkpt lat="42.92186" lon="0.87894">
        <ele>891</ele>
        <time>2018-12-02T15:40:34.000Z</time>
      </trkpt>
      <trkpt lat="42.92186" lon="0.87893">
        <ele>891</ele>
        <time>2018-12-02T15:40:36.000Z</time>
      </trkpt>
      <trkpt lat="42.92185" lon="0.87894">
        <ele>890</ele>
        <time>2018-12-02T15:40:38.000Z</time>
      </trkpt>
      <trkpt lat="42.92185" lon="0.87893">
        <ele>891</ele>
        <time>2018-12-02T15:40:40.000Z</time>
      </trkpt>
      <trkpt lat="42.92186" lon="0.87893">
        <ele>891</ele>
        <time>2018-12-02T15:40:42.000Z</time>
      </trkpt>
      <trkpt lat="42.92186" lon="0.87894">
        <ele>891</ele>
        <time>2018-12-02T15:40:44.000Z</time>
      </trkpt>
      <trkpt lat="42.92186" lon="0.87894">
        <ele>891</ele>
        <time>2018-12-02T15:40:46.000Z</time>
      </trkpt>
      <trkpt lat="42.92186" lon="0.87894">
        <ele>891</ele>
        <time>2018-12-02T15:40:48.000Z</time>
      </trkpt>
      <trkpt lat="42.92186" lon="0.87894">
        <ele>891</ele>
        <time>2018-12-02T15:40:50.000Z</time>
      </trkpt>
      <trkpt lat="42.92186" lon="0.87894">
        <ele>891</ele>
        <time>2018-12-02T15:40:52.000Z</time>
      </trkpt>
      <trkpt lat="42.92187" lon="0.87894">
        <ele>891</ele>
        <time>2018-12-02T15:40:54.000Z</time>
      </trkpt>
      <trkpt lat="42.92187" lon="0.87895">
        <ele>891</ele>
        <time>2018-12-02T15:40:56.000Z</time>
      </trkpt>
      <trkpt lat="42.92187" lon="0.87895">
        <ele>891</ele>
        <time>2018-12-02T15:40:58.000Z</time>
      </trkpt>
      <trkpt lat="42.92188" lon="0.87895">
        <ele>891</ele>
        <time>2018-12-02T15:41:00.000Z</time>
      </trkpt>
      <trkpt lat="42.92188" lon="0.87894">
        <ele>891</ele>
        <time>2018-12-02T15:41:02.000Z</time>
      </trkpt>
      <trkpt lat="42.92188" lon="0.87894">
        <ele>891</ele>
        <time>2018-12-02T15:41:04.000Z</time>
      </trkpt>
      <trkpt lat="42.92189" lon="0.87895">
        <ele>892</ele>
        <time>2018-12-02T15:41:06.000Z</time>
      </trkpt>
      <trkpt lat="42.92189" lon="0.87895">
        <ele>892</ele>
        <time>2018-12-02T15:41:08.000Z</time>
      </trkpt>
      <trkpt lat="42.92189" lon="0.87895">
        <ele>892</ele>
        <time>2018-12-02T15:41:10.000Z</time>
      </trkpt>
      <trkpt lat="42.92189" lon="0.87895">
        <ele>892</ele>
        <time>2018-12-02T15:41:12.000Z</time>
      </trkpt>
      <trkpt lat="42.92189" lon="0.87895">
        <ele>891</ele>
        <time>2018-12-02T15:41:14.000Z</time>
      </trkpt>
      <trkpt lat="42.92189" lon="0.87895">
        <ele>892</ele>
        <time>2018-12-02T15:41:16.000Z</time>
      </trkpt>
      <trkpt lat="42.92189" lon="0.87895">
        <ele>892</ele>
        <time>2018-12-02T15:41:18.000Z</time>
      </trkpt>
      <trkpt lat="42.92189" lon="0.87896">
        <ele>891</ele>
        <time>2018-12-02T15:41:20.000Z</time>
      </trkpt>
      <trkpt lat="42.92189" lon="0.87895">
        <ele>891</ele>
        <time>2018-12-02T15:41:22.000Z</time>
      </trkpt>
      <trkpt lat="42.92189" lon="0.87897">
        <ele>891</ele>
        <time>2018-12-02T15:41:24.000Z</time>
      </trkpt>
      <trkpt lat="42.92188" lon="0.87896">
        <ele>891</ele>
        <time>2018-12-02T15:41:26.000Z</time>
      </trkpt>
      <trkpt lat="42.92187" lon="0.87896">
        <ele>891</ele>
        <time>2018-12-02T15:41:28.000Z</time>
      </trkpt>
      <trkpt lat="42.92187" lon="0.87896">
        <ele>891</ele>
        <time>2018-12-02T15:41:30.000Z</time>
      </trkpt>
      <trkpt lat="42.92186" lon="0.87895">
        <ele>891</ele>
        <time>2018-12-02T15:41:32.000Z</time>
      </trkpt>
      <trkpt lat="42.92186" lon="0.87896">
        <ele>890</ele>
        <time>2018-12-02T15:41:34.000Z</time>
      </trkpt>
      <trkpt lat="42.92186" lon="0.87896">
        <ele>891</ele>
        <time>2018-12-02T15:41:36.000Z</time>
      </trkpt>
      <trkpt lat="42.92186" lon="0.87897">
        <ele>891</ele>
        <time>2018-12-02T15:41:38.000Z</time>
      </trkpt>
      <trkpt lat="42.92186" lon="0.87897">
        <ele>890</ele>
        <time>2018-12-02T15:41:40.000Z</time>
      </trkpt>
      <trkpt lat="42.92186" lon="0.87896">
        <ele>891</ele>
        <time>2018-12-02T15:41:42.000Z</time>
      </trkpt>
      <trkpt lat="42.92187" lon="0.87897">
        <ele>891</ele>
        <time>2018-12-02T15:41:44.000Z</time>
      </trkpt>
      <trkpt lat="42.92187" lon="0.87897">
        <ele>891</ele>
        <time>2018-12-02T15:41:46.000Z</time>
      </trkpt>
      <trkpt lat="42.92187" lon="0.87897">
        <ele>891</ele>
        <time>2018-12-02T15:41:48.000Z</time>
      </trkpt>
      <trkpt lat="42.92187" lon="0.87897">
        <ele>891</ele>
        <time>2018-12-02T15:41:50.000Z</time>
      </trkpt>
      <trkpt lat="42.92187" lon="0.87897">
        <ele>891</ele>
        <time>2018-12-02T15:41:52.000Z</time>
      </trkpt>
      <trkpt lat="42.92187" lon="0.87897">
        <ele>891</ele>
        <time>2018-12-02T15:41:54.000Z</time>
      </trkpt>
      <trkpt lat="42.92187" lon="0.87897">
        <ele>891</ele>
        <time>2018-12-02T15:41:56.000Z</time>
      </trkpt>
      <trkpt lat="42.92188" lon="0.87898">
        <ele>891</ele>
        <time>2018-12-02T15:41:58.000Z</time>
      </trkpt>
      <trkpt lat="42.92188" lon="0.87898">
        <ele>891</ele>
        <time>2018-12-02T15:42:00.000Z</time>
      </trkpt>
      <trkpt lat="42.92187" lon="0.87899">
        <ele>891</ele>
        <time>2018-12-02T15:42:02.000Z</time>
      </trkpt>
      <trkpt lat="42.92188" lon="0.87898">
        <ele>891</ele>
        <time>2018-12-02T15:42:04.000Z</time>
      </trkpt>
      <trkpt lat="42.92187" lon="0.87898">
        <ele>891</ele>
        <time>2018-12-02T15:42:06.000Z</time>
      </trkpt>
      <trkpt lat="42.92187" lon="0.87898">
        <ele>891</ele>
        <time>2018-12-02T15:42:08.000Z</time>
      </trkpt>
      <trkpt lat="42.92187" lon="0.87898">
        <ele>891</ele>
        <time>2018-12-02T15:42:10.000Z</time>
      </trkpt>
      <trkpt lat="42.92188" lon="0.87898">
        <ele>891</ele>
        <time>2018-12-02T15:42:12.000Z</time>
      </trkpt>
      <trkpt lat="42.92188" lon="0.87897">
        <ele>891</ele>
        <time>2018-12-02T15:42:14.000Z</time>
      </trkpt>
      <trkpt lat="42.92188" lon="0.87898">
        <ele>891</ele>
        <time>2018-12-02T15:42:16.000Z</time>
      </trkpt>
      <trkpt lat="42.92188" lon="0.87898">
        <ele>891</ele>
        <time>2018-12-02T15:42:18.000Z</time>
      </trkpt>
      <trkpt lat="42.92188" lon="0.87899">
        <ele>891</ele>
        <time>2018-12-02T15:42:20.000Z</time>
      </trkpt>
      <trkpt lat="42.92187" lon="0.87899">
        <ele>891</ele>
        <time>2018-12-02T15:42:22.000Z</time>
      </trkpt>
      <trkpt lat="42.92187" lon="0.87898">
        <ele>891</ele>
        <time>2018-12-02T15:42:24.000Z</time>
      </trkpt>
      <trkpt lat="42.92186" lon="0.87898">
        <ele>890</ele>
        <time>2018-12-02T15:42:26.000Z</time>
      </trkpt>
      <trkpt lat="42.92185" lon="0.87897">
        <ele>890</ele>
        <time>2018-12-02T15:42:28.000Z</time>
      </trkpt>
      <trkpt lat="42.92185" lon="0.87897">
        <ele>890</ele>
        <time>2018-12-02T15:42:30.000Z</time>
      </trkpt>
      <trkpt lat="42.92185" lon="0.87897">
        <ele>890</ele>
        <time>2018-12-02T15:42:32.000Z</time>
      </trkpt>
      <trkpt lat="42.92185" lon="0.87897">
        <ele>890</ele>
        <time>2018-12-02T15:42:34.000Z</time>
      </trkpt>
      <trkpt lat="42.92185" lon="0.87897">
        <ele>890</ele>
        <time>2018-12-02T15:42:36.000Z</time>
      </trkpt>
      <trkpt lat="42.92185" lon="0.87898">
        <ele>890</ele>
        <time>2018-12-02T15:42:38.000Z</time>
      </trkpt>
      <trkpt lat="42.92185" lon="0.87898">
        <ele>890</ele>
        <time>2018-12-02T15:42:40.000Z</time>
      </trkpt>
      <trkpt lat="42.92185" lon="0.87898">
        <ele>890</ele>
        <time>2018-12-02T15:42:42.000Z</time>
      </trkpt>
      <trkpt lat="42.92186" lon="0.87898">
        <ele>891</ele>
        <time>2018-12-02T15:42:44.000Z</time>
      </trkpt>
      <trkpt lat="42.92186" lon="0.87898">
        <ele>890</ele>
        <time>2018-12-02T15:42:46.000Z</time>
      </trkpt>
      <trkpt lat="42.92186" lon="0.87898">
        <ele>890</ele>
        <time>2018-12-02T15:42:48.000Z</time>
      </trkpt>
      <trkpt lat="42.92185" lon="0.87899">
        <ele>890</ele>
        <time>2018-12-02T15:42:50.000Z</time>
      </trkpt>
      <trkpt lat="42.92186" lon="0.87899">
        <ele>890</ele>
        <time>2018-12-02T15:42:52.000Z</time>
      </trkpt>
      <trkpt lat="42.92186" lon="0.87899">
        <ele>890</ele>
        <time>2018-12-02T15:42:54.000Z</time>
      </trkpt>
      <trkpt lat="42.92186" lon="0.87899">
        <ele>890</ele>
        <time>2018-12-02T15:42:56.000Z</time>
      </trkpt>
      <trkpt lat="42.92185" lon="0.87899">
        <ele>890</ele>
        <time>2018-12-02T15:42:58.000Z</time>
      </trkpt>
      <trkpt lat="42.92185" lon="0.87898">
        <ele>890</ele>
        <time>2018-12-02T15:43:00.000Z</time>
      </trkpt>
      <trkpt lat="42.92185" lon="0.87897">
        <ele>890</ele>
        <time>2018-12-02T15:43:02.000Z</time>
      </trkpt>
      <trkpt lat="42.92185" lon="0.87897">
        <ele>890</ele>
        <time>2018-12-02T15:43:04.000Z</time>
      </trkpt>
      <trkpt lat="42.92185" lon="0.87897">
        <ele>890</ele>
        <time>2018-12-02T15:43:06.000Z</time>
      </trkpt>
      <trkpt lat="42.92185" lon="0.87895">
        <ele>890</ele>
        <time>2018-12-02T15:43:08.000Z</time>
      </trkpt>
      <trkpt lat="42.92185" lon="0.87896">
        <ele>890</ele>
        <time>2018-12-02T15:43:10.000Z</time>
      </trkpt>
      <trkpt lat="42.92184" lon="0.87897">
        <ele>890</ele>
        <time>2018-12-02T15:43:12.000Z</time>
      </trkpt>
      <trkpt lat="42.92184" lon="0.87897">
        <ele>890</ele>
        <time>2018-12-02T15:43:14.000Z</time>
      </trkpt>
      <trkpt lat="42.92185" lon="0.87898">
        <ele>890</ele>
        <time>2018-12-02T15:43:16.000Z</time>
      </trkpt>
      <trkpt lat="42.92185" lon="0.87898">
        <ele>890</ele>
        <time>2018-12-02T15:43:18.000Z</time>
      </trkpt>
      <trkpt lat="42.92185" lon="0.87899">
        <ele>890</ele>
        <time>2018-12-02T15:43:20.000Z</time>
      </trkpt>
      <trkpt lat="42.92184" lon="0.87898">
        <ele>890</ele>
        <time>2018-12-02T15:43:22.000Z</time>
      </trkpt>
      <trkpt lat="42.92185" lon="0.87898">
        <ele>890</ele>
        <time>2018-12-02T15:43:24.000Z</time>
      </trkpt>
      <trkpt lat="42.92184" lon="0.87899">
        <ele>890</ele>
        <time>2018-12-02T15:43:26.000Z</time>
      </trkpt>
      <trkpt lat="42.92185" lon="0.87899">
        <ele>890</ele>
        <time>2018-12-02T15:43:28.000Z</time>
      </trkpt>
      <trkpt lat="42.92184" lon="0.87899">
        <ele>890</ele>
        <time>2018-12-02T15:43:30.000Z</time>
      </trkpt>
      <trkpt lat="42.92184" lon="0.87899">
        <ele>890</ele>
        <time>2018-12-02T15:43:32.000Z</time>
      </trkpt>
      <trkpt lat="42.92184" lon="0.87899">
        <ele>890</ele>
        <time>2018-12-02T15:43:34.000Z</time>
      </trkpt>
      <trkpt lat="42.92184" lon="0.87898">
        <ele>890</ele>
        <time>2018-12-02T15:43:36.000Z</time>
      </trkpt>
      <trkpt lat="42.92185" lon="0.87898">
        <ele>890</ele>
        <time>2018-12-02T15:43:38.000Z</time>
      </trkpt>
      <trkpt lat="42.92185" lon="0.87898">
        <ele>890</ele>
        <time>2018-12-02T15:43:40.000Z</time>
      </trkpt>
      <trkpt lat="42.92186" lon="0.87899">
        <ele>890</ele>
        <time>2018-12-02T15:43:42.000Z</time>
      </trkpt>
      <trkpt lat="42.92186" lon="0.87899">
        <ele>890</ele>
        <time>2018-12-02T15:43:44.000Z</time>
      </trkpt>
      <trkpt lat="42.92186" lon="0.87899">
        <ele>890</ele>
        <time>2018-12-02T15:43:46.000Z</time>
      </trkpt>
      <trkpt lat="42.92186" lon="0.87899">
        <ele>890</ele>
        <time>2018-12-02T15:43:48.000Z</time>
      </trkpt>
      <trkpt lat="42.92186" lon="0.87899">
        <ele>890</ele>
        <time>2018-12-02T15:43:50.000Z</time>
      </trkpt>
      <trkpt lat="42.92186" lon="0.87899">
        <ele>890</ele>
        <time>2018-12-02T15:43:52.000Z</time>
      </trkpt>
      <trkpt lat="42.92186" lon="0.879">
        <ele>890</ele>
        <time>2018-12-02T15:43:54.000Z</time>
      </trkpt>
      <trkpt lat="42.92186" lon="0.879">
        <ele>890</ele>
        <time>2018-12-02T15:43:56.000Z</time>
      </trkpt>
      <trkpt lat="42.92185" lon="0.87899">
        <ele>890</ele>
        <time>2018-12-02T15:43:58.000Z</time>
      </trkpt>
      <trkpt lat="42.92184" lon="0.87899">
        <ele>890</ele>
        <time>2018-12-02T15:44:00.000Z</time>
      </trkpt>
      <trkpt lat="42.92184" lon="0.87899">
        <ele>890</ele>
        <time>2018-12-02T15:44:02.000Z</time>
      </trkpt>
      <trkpt lat="42.92185" lon="0.87899">
        <ele>890</ele>
        <time>2018-12-02T15:44:04.000Z</time>
      </trkpt>
      <trkpt lat="42.92184" lon="0.87899">
        <ele>890</ele>
        <time>2018-12-02T15:44:06.000Z</time>
      </trkpt>
      <trkpt lat="42.92185" lon="0.87898">
        <ele>890</ele>
        <time>2018-12-02T15:44:08.000Z</time>
      </trkpt>
      <trkpt lat="42.92185" lon="0.87898">
        <ele>890</ele>
        <time>2018-12-02T15:44:10.000Z</time>
      </trkpt>
      <trkpt lat="42.92185" lon="0.87897">
        <ele>890</ele>
        <time>2018-12-02T15:44:12.000Z</time>
      </trkpt>
      <trkpt lat="42.92185" lon="0.87897">
        <ele>890</ele>
        <time>2018-12-02T15:44:14.000Z</time>
      </trkpt>
      <trkpt lat="42.92185" lon="0.87897">
        <ele>890</ele>
        <time>2018-12-02T15:44:16.000Z</time>
      </trkpt>
      <trkpt lat="42.92185" lon="0.87898">
        <ele>890</ele>
        <time>2018-12-02T15:44:18.000Z</time>
      </trkpt>
      <trkpt lat="42.92185" lon="0.87897">
        <ele>890</ele>
        <time>2018-12-02T15:44:20.000Z</time>
      </trkpt>
      <trkpt lat="42.92185" lon="0.87897">
        <ele>890</ele>
        <time>2018-12-02T15:44:22.000Z</time>
      </trkpt>
      <trkpt lat="42.92186" lon="0.87897">
        <ele>890</ele>
        <time>2018-12-02T15:44:24.000Z</time>
      </trkpt>
      <trkpt lat="42.92186" lon="0.87897">
        <ele>890</ele>
        <time>2018-12-02T15:44:26.000Z</time>
      </trkpt>
      <trkpt lat="42.92186" lon="0.87896">
        <ele>890</ele>
        <time>2018-12-02T15:44:28.000Z</time>
      </trkpt>
      <trkpt lat="42.92186" lon="0.87896">
        <ele>891</ele>
        <time>2018-12-02T15:44:30.000Z</time>
      </trkpt>
      <trkpt lat="42.92186" lon="0.87896">
        <ele>891</ele>
        <time>2018-12-02T15:44:32.000Z</time>
      </trkpt>
      <trkpt lat="42.92187" lon="0.87895">
        <ele>891</ele>
        <time>2018-12-02T15:44:34.000Z</time>
      </trkpt>
      <trkpt lat="42.92187" lon="0.87895">
        <ele>891</ele>
        <time>2018-12-02T15:44:36.000Z</time>
      </trkpt>
      <trkpt lat="42.92188" lon="0.87894">
        <ele>891</ele>
        <time>2018-12-02T15:44:38.000Z</time>
      </trkpt>
      <trkpt lat="42.92188" lon="0.87895">
        <ele>891</ele>
        <time>2018-12-02T15:44:40.000Z</time>
      </trkpt>
      <trkpt lat="42.92188" lon="0.87895">
        <ele>891</ele>
        <time>2018-12-02T15:44:42.000Z</time>
      </trkpt>
      <trkpt lat="42.92188" lon="0.87896">
        <ele>891</ele>
        <time>2018-12-02T15:44:44.000Z</time>
      </trkpt>
      <trkpt lat="42.92187" lon="0.87896">
        <ele>891</ele>
        <time>2018-12-02T15:44:46.000Z</time>
      </trkpt>
      <trkpt lat="42.92187" lon="0.87896">
        <ele>891</ele>
        <time>2018-12-02T15:44:48.000Z</time>
      </trkpt>
      <trkpt lat="42.92186" lon="0.87896">
        <ele>891</ele>
        <time>2018-12-02T15:44:50.000Z</time>
      </trkpt>
      <trkpt lat="42.92186" lon="0.87896">
        <ele>891</ele>
        <time>2018-12-02T15:44:52.000Z</time>
      </trkpt>
      <trkpt lat="42.92186" lon="0.87896">
        <ele>891</ele>
        <time>2018-12-02T15:44:54.000Z</time>
      </trkpt>
      <trkpt lat="42.92186" lon="0.87896">
        <ele>891</ele>
        <time>2018-12-02T15:44:56.000Z</time>
      </trkpt>
      <trkpt lat="42.92186" lon="0.87897">
        <ele>891</ele>
        <time>2018-12-02T15:44:58.000Z</time>
      </trkpt>
      <trkpt lat="42.92186" lon="0.87897">
        <ele>891</ele>
        <time>2018-12-02T15:45:00.000Z</time>
      </trkpt>
      <trkpt lat="42.92187" lon="0.87897">
        <ele>891</ele>
        <time>2018-12-02T15:45:02.000Z</time>
      </trkpt>
      <trkpt lat="42.92187" lon="0.87898">
        <ele>891</ele>
        <time>2018-12-02T15:45:04.000Z</time>
      </trkpt>
      <trkpt lat="42.92187" lon="0.87898">
        <ele>891</ele>
        <time>2018-12-02T15:45:06.000Z</time>
      </trkpt>
      <trkpt lat="42.92187" lon="0.87898">
        <ele>891</ele>
        <time>2018-12-02T15:45:08.000Z</time>
      </trkpt>
      <trkpt lat="42.92186" lon="0.87898">
        <ele>890</ele>
        <time>2018-12-02T15:45:10.000Z</time>
      </trkpt>
      <trkpt lat="42.92186" lon="0.87897">
        <ele>890</ele>
        <time>2018-12-02T15:45:12.000Z</time>
      </trkpt>
      <trkpt lat="42.92186" lon="0.87897">
        <ele>890</ele>
        <time>2018-12-02T15:45:14.000Z</time>
      </trkpt>
      <trkpt lat="42.92186" lon="0.87897">
        <ele>891</ele>
        <time>2018-12-02T15:45:16.000Z</time>
      </trkpt>
      <trkpt lat="42.92187" lon="0.87897">
        <ele>891</ele>
        <time>2018-12-02T15:45:18.000Z</time>
      </trkpt>
      <trkpt lat="42.92188" lon="0.87896">
        <ele>891</ele>
        <time>2018-12-02T15:45:20.000Z</time>
      </trkpt>
    </trkseg>
  </trk>
</gpx>